JPL-Sats

  Home –  History –  Credit –  Support –  Last_Sats –  Future_Sats –  C95_Ephs –  M58_Ephs –  I98_Ephs(T18) –  Q62_Ephs(T33) –  U94_Ephs(T68) –  Legal –  Privacy
Home   
History   
Credit   
Support   
Last_Sats   
Future_Sats   
C95_Ephs   
M58_Ephs   
I98_Ephs(T18)   
Q62_Ephs(T33)   
U94_Ephs(T68)   
Legal   
Privacy   

Index of all used observable objects

Wind (-8) TESS (-95) Chandra Observatory (-151) James Webb Space Telescope (-170) INTEGRAL (-198) Spektr-R Observatory (-557) Euclid (-680) CAPSTONE (-1176) Titan-3C RB (-102770) Gaia (-139479) MMS-1 (-140482) MMS-2 (-140483) MMS-3 (-140484) MMS-4 (-140485)

Missions with actual ephemerides

The ephemeris are downloaded by JPL Horizont:

  • Start of interval: 2024-03-04 00:00:00.
  • End of interval: 2024-03-18 00:00:00.
  • Time of interval: 10 min.
  • Station: I98.
  • Created: 2024-Mar-04 03:21:06 UTC.

Wind (JPL-ID: -8)

   Date (UTC) HH:MM   RA              Dec         delta   r     elong SM  mag  '/hr    PA   alt  az moo ill
   ---- -- -- -----  -------------   -----------  ------ ------ ----- --  --- ------ ------ --- --- --- ---
   2024 03 04 05:50  21 28 52.22    -15 53 57.1   0.0097 0.9829  24.3 Nm  20?   2.43  90.9    0 110  58  43
   2024 03 04 06:00  21 28 53.86    -15 53 57.5   0.0097 0.9829  24.3 Nm  20?   2.30  90.7    1 112  58  43
   2024 03 04 06:10  21 28 55.41    -15 53 57.8   0.0097 0.9829  24.3 Nm  20?   2.17  90.5    3 114  58  43
   2024 03 04 06:20  21 28 56.87    -15 53 58.0   0.0097 0.9829  24.3 Cm  20?   2.05  90.2    4 115  58  43
   2024 03 04 06:30  21 28 58.25    -15 53 58.0   0.0097 0.9829  24.3 Cm  20?   1.93  89.8    6 117  58  43
   ................
   2024 03 05 05:50  21 34 10.68    -15 35 18.9   0.0096 0.9831  24.0 Nr  20?   2.53  89.5    0 110  46  33
   2024 03 05 06:00  21 34 12.38    -15 35 18.6   0.0096 0.9831  24.0 Nm  20?   2.41  89.2    1 112  46  33
   2024 03 05 06:10  21 34 14.01    -15 35 18.3   0.0096 0.9831  24.0 Nm  20?   2.28  88.9    3 113  46  32
   2024 03 05 06:20  21 34 15.54    -15 35 17.8   0.0096 0.9831  24.0 Cm  20?   2.16  88.5    4 115  45  32
   2024 03 05 06:30  21 34 16.99    -15 35 17.2   0.0096 0.9832  24.0 Cm  20?   2.04  88.0    6 117  45  32
   ................
   2024 03 06 05:50  21 39 37.90    -15 15 23.1   0.0096 0.9834  23.6 Nr  20?   2.64  88.1    0 109  33  22
   2024 03 06 06:00  21 39 39.68    -15 15 22.2   0.0096 0.9834  23.6 Nm  20?   2.51  87.8    1 111  33  22
   2024 03 06 06:10  21 39 41.37    -15 15 21.2   0.0096 0.9834  23.6 Nm  20?   2.39  87.4    3 113  33  22
   2024 03 06 06:20  21 39 42.98    -15 15 20.1   0.0096 0.9834  23.7 Cm  20?   2.26  87.0    4 114  33  22
   2024 03 06 06:30  21 39 44.50    -15 15 18.8   0.0096 0.9834  23.7 Cm  20?   2.14  86.4    6 116  33  22
   ................
   2024 03 07 05:50  21 45 13.59    -14 54 08.7   0.0095 0.9837  23.3 Nr  20?   2.75  86.8    0 109  20  14
   2024 03 07 06:00  21 45 15.44    -14 54 07.1   0.0095 0.9837  23.3 Nm  20?   2.62  86.4    1 111  20  13
   2024 03 07 06:10  21 45 17.20    -14 54 05.4   0.0095 0.9837  23.3 Nm  20?   2.50  86.0    3 112  20  13
   2024 03 07 06:20  21 45 18.88    -14 54 03.7   0.0095 0.9837  23.3 Cm  20?   2.37  85.5    4 114  20  13
   2024 03 07 06:30  21 45 20.46    -14 54 01.8   0.0095 0.9837  23.3 Cm  20?   2.25  84.9    6 116  20  13
   ................
   2024 03 08 05:50  21 50 57.36    -14 31 35.4   0.0095 0.9840  22.8 Nr  20?   2.86  85.5    0 108   8   6
   2024 03 08 06:00  21 50 59.28    -14 31 33.2   0.0094 0.9840  22.8 Nm  20?   2.73  85.1    1 110   8   6
   2024 03 08 06:10  21 51 01.11    -14 31 30.8   0.0094 0.9840  22.8 Cm  20?   2.60  84.7    3 112   8   6
   2024 03 08 06:20  21 51 02.85    -14 31 28.4   0.0094 0.9840  22.8 Cm  20?   2.48  84.2    4 113   8   6
   2024 03 08 06:30  21 51 04.51    -14 31 25.9   0.0094 0.9840  22.8 Cm  20?   2.36  83.5    6 115   8   6
   ................
   2024 03 09 05:50  21 56 48.74    -14 07 44.1   0.0094 0.9843  22.4 Nr  20?   2.97  84.3    0 108   7   2
   2024 03 09 06:00  21 56 50.73    -14 07 41.1   0.0094 0.9843  22.4 N   20?   2.84  83.9    1 109   7   1
   2024 03 09 06:10  21 56 52.62    -14 07 38.1   0.0094 0.9843  22.4 C   20?   2.71  83.5    3 111   7   1
   2024 03 09 06:20  21 56 54.43    -14 07 35.0   0.0094 0.9843  22.4 Cm  20?   2.58  82.9    4 113   8   1
   ................
   2024 03 10 05:50  22 02 47.21    -13 42 36.1   0.0093 0.9846  21.9 Nr  20?   3.07  83.3    0 107  20   0
   2024 03 10 06:00  22 02 49.26    -13 42 32.5   0.0093 0.9846  21.9 N   20?   2.94  82.8    1 109  20   0
   2024 03 10 06:10  22 02 51.21    -13 42 28.8   0.0093 0.9846  21.9 C   20?   2.81  82.3    3 110  20   0
   2024 03 10 06:20  22 02 53.08    -13 42 25.0   0.0093 0.9846  21.9 C   20?   2.69  81.7    4 112  20   0
   ................
   2024 03 11 06:00  22 08 54.33    -13 16 09.3   0.0093 0.9849  21.3 N   20?   3.04  81.8    1 108  34   1
   2024 03 11 06:10  22 08 56.34    -13 16 05.0   0.0093 0.9849  21.3 C   20?   2.91  81.3    2 110  34   1
   2024 03 11 06:20  22 08 58.27    -13 16 00.5   0.0093 0.9849  21.3 C   20?   2.79  80.7    4 111  34   1
   ................
   2024 03 12 06:00  22 15 05.43    -12 48 33.9   0.0092 0.9851  20.8 N   20?   3.14  80.8    1 107  47   5
   2024 03 12 06:10  22 15 07.51    -12 48 28.9   0.0092 0.9852  20.8 C   20?   3.01  80.3    2 109  47   5
   2024 03 12 06:20  22 15 09.50    -12 48 23.8   0.0092 0.9852  20.8 C   20?   2.89  79.6    4 111  47   5
   ................
   2024 03 13 06:00  22 21 22.15    -12 19 48.4   0.0092 0.9854  20.2 N   20?   3.24  79.9    0 107  60  12
   2024 03 13 06:10  22 21 24.28    -12 19 42.7   0.0092 0.9854  20.2 C   20?   3.11  79.3    2 108  60  12
   2024 03 13 06:20  22 21 26.32    -12 19 36.9   0.0091 0.9854  20.2 C   20?   2.98  78.7    4 110  60  12
   ................
   2024 03 14 06:00  22 27 44.13    -11 49 54.6   0.0091 0.9857  19.6 C   20?   3.34  79.0    0 106  73  20
   2024 03 14 06:10  22 27 46.32    -11 49 48.2   0.0091 0.9857  19.6 C   20?   3.21  78.4    2 107  73  20
   2024 03 14 06:20  22 27 48.42    -11 49 41.7   0.0091 0.9857  19.6 C   20?   3.08  77.8    4 109  73  20
   ................
   2024 03 15 06:00  22 34 11.17    -11 18 53.6   0.0090 0.9860  18.9 C   20?   3.44  78.2    0 105  85  30
   2024 03 15 06:10  22 34 13.41    -11 18 46.5   0.0090 0.9860  18.9 C   20?   3.31  77.6    2 107  85  30
   ................
   2024 03 16 06:00  22 40 43.10    -10 46 46.1   0.0090 0.9863  18.2 C   20?   3.54  77.4    0 104  97  40
   2024 03 16 06:10  22 40 45.40    -10 46 38.3   0.0090 0.9863  18.2 C   20?   3.41  76.8    2 106  97  40
   ................
   2024 03 17 06:00  22 47 19.86    -10 13 32.5   0.0089 0.9866  17.5 C   20?   3.65  76.6    0 103 108  50
   2024 03 17 06:10  22 47 22.22    -10 13 24.0   0.0089 0.9866  17.5 C   20?   3.51  76.0    2 105 108  50
   ................
   

TESS (JPL-ID: -95)

   Date (UTC) HH:MM   RA              Dec         delta   r     elong SM  mag  '/hr    PA   alt  az moo ill
   ---- -- -- -----  -------------   -----------  ------ ------ ----- --  --- ------ ------ --- --- --- ---
   2024 03 04 18:20  02 35 11.91    -26 13 24.2   341484 0.9905  54.4 C   14?  26.31  30.5   15 212 107  38
   2024 03 04 18:30  02 35 21.92    -26 09 36.3   341595 0.9905  54.4 C   14?  26.63  30.9   14 214 107  38
   2024 03 04 18:40  02 35 32.17    -26 05 46.7   341713 0.9905  54.4 N   14?  26.96  31.3   13 216 107  38
   2024 03 04 18:50  02 35 42.66    -26 01 55.2   341836 0.9905  54.5 N   14?  27.29  31.7   12 218 107  38
   2024 03 04 19:00  02 35 53.41    -25 58 02.1   341965 0.9905  54.5 N   14?  27.62  32.2   11 220 107  38
   2024 03 04 19:10  02 36 04.44    -25 54 07.5   342099 0.9905  54.5 A   14?  27.95  32.7    9 222 107  37
   2024 03 04 19:20  02 36 15.75    -25 50 11.3   342237 0.9905  54.5 A   14?  28.29  33.2    8 224 107  37
   2024 03 04 19:30  02 36 27.36    -25 46 13.7   342381 0.9905  54.6 A   14?  28.64  33.8    7 226 107  37
   2024 03 04 19:40  02 36 39.27    -25 42 14.7   342529 0.9905  54.6 A   14?  28.98  34.3    6 228 107  37
   2024 03 04 19:50  02 36 51.50    -25 38 14.6   342682 0.9905  54.6     14?  29.33  34.9    4 229 107  37
   2024 03 04 20:00  02 37 04.04    -25 34 13.3   342838 0.9905  54.6     14?  29.68  35.5    3 231 107  37
   2024 03 04 20:10  02 37 16.92    -25 30 10.9   342998 0.9905  54.7     14?  30.03  36.1    2 233 107  37
   2024 03 04 20:20  02 37 30.13    -25 26 07.6   343162 0.9905  54.7     14?  30.38  36.7    0 234 107  37
   ................
   2024 03 05 18:20  03 15 21.52    -18 02 52.6   336402 0.9910  61.9 C   14?  25.89  26.2   26 208 110  28
   2024 03 05 18:30  03 15 29.58    -17 58 59.3   336426 0.9910  61.9 C   14?  26.14  26.5   25 210 110  28
   2024 03 05 18:40  03 15 37.83    -17 55 04.4   336456 0.9910  61.9 N   14?  26.39  26.9   24 212 110  28
   2024 03 05 18:50  03 15 46.27    -17 51 08.1   336493 0.9910  62.0 N   14?  26.66  27.3   23 215 110  27
   2024 03 05 19:00  03 15 54.92    -17 47 10.4   336537 0.9910  62.0 N   14?  26.93  27.8   22 217 110  27
   2024 03 05 19:10  03 16 03.80    -17 43 11.4   336587 0.9910  62.0 A   14?  27.20  28.3   21 219 110  27
   2024 03 05 19:20  03 16 12.92    -17 39 11.0   336643 0.9910  62.0 A   14?  27.48  28.8   20 221 110  27
   2024 03 05 19:30  03 16 22.29    -17 35 09.5   336706 0.9910  62.1 A   14?  27.76  29.4   18 224 110  27
   2024 03 05 19:40  03 16 31.92    -17 31 06.7   336774 0.9910  62.1 A   14?  28.06  30.0   17 226 109  27
   2024 03 05 19:50  03 16 41.82    -17 27 02.9   336847 0.9910  62.1     14?  28.35  30.6   16 228 109  27
   2024 03 05 20:00  03 16 52.01    -17 22 58.0   336926 0.9910  62.2     14?  28.65  31.2   15 230 109  27
   2024 03 05 20:10  03 17 02.49    -17 18 52.1   337010 0.9910  62.2     14?  28.96  31.8   13 232 109  27
   2024 03 05 20:20  03 17 13.28    -17 14 45.3   337099 0.9910  62.2     14?  29.27  32.5   12 234 109  27
   2024 03 05 20:30  03 17 24.38    -17 10 37.7   337192 0.9910  62.3     14?  29.59  33.2   10 235 109  27
   2024 03 05 20:40  03 17 35.80    -17 06 29.3   337289 0.9910  62.3     14?  29.91  33.8    9 237 109  26
   2024 03 05 20:50  03 17 47.55    -17 02 20.2   337389 0.9911  62.3     14?  30.24  34.5    7 239 109  26
   2024 03 05 21:00  03 17 59.64    -16 58 10.4   337493 0.9911  62.4     14?  30.57  35.2    6 241 109  26
   2024 03 05 21:10  03 18 12.07    -16 54 00.1   337601 0.9911  62.4     14?  30.90  35.9    4 243 109  26
   2024 03 05 21:20  03 18 24.85    -16 49 49.3   337711 0.9911  62.5     14?  31.24  36.6    2 244 109  26
   2024 03 05 21:30  03 18 37.98    -16 45 38.0   337823 0.9911  62.5     14?  31.58  37.3    1 246 109  26
   2024 03 05 21:40  03 18 51.47    -16 41 26.4   337938 0.9911  62.6     14?  31.93  38.1    0 248 109  26
   ................
   2024 03 06 18:20  03 53 55.76    -08 54 28.9   321484 0.9916  70.5 C   13?  27.41  24.4   37 202 112  18
   2024 03 06 18:30  03 54 03.42    -08 50 18.5   321413 0.9916  70.5 C   13?  27.58  24.7   37 205 112  18
   2024 03 06 18:40  03 54 11.21    -08 46 07.2   321350 0.9916  70.5 N   13?  27.75  25.0   36 208 112  18
   2024 03 06 18:50  03 54 19.16    -08 41 54.9   321295 0.9916  70.5 N   13?  27.94  25.4   35 210 112  18
   2024 03 06 19:00  03 54 27.29    -08 37 41.8   321247 0.9916  70.6 N   13?  28.13  25.8   34 213 111  18
   2024 03 06 19:10  03 54 35.59    -08 33 27.7   321207 0.9916  70.6 N   13?  28.33  26.2   33 216 111  18
   2024 03 06 19:20  03 54 44.09    -08 29 12.9   321174 0.9916  70.6 A   13?  28.54  26.7   32 218 111  18
   2024 03 06 19:30  03 54 52.81    -08 24 57.3   321147 0.9916  70.7 A   13?  28.76  27.2   31 221 111  18
   2024 03 06 19:40  03 55 01.76    -08 20 40.9   321128 0.9916  70.7 A   13?  28.98  27.8   30 223 111  18
   2024 03 06 19:50  03 55 10.94    -08 16 23.8   321115 0.9916  70.7     13?  29.22  28.3   28 226 111  18
   2024 03 06 20:00  03 55 20.38    -08 12 06.0   321108 0.9916  70.8     13?  29.46  28.9   27 228 111  17
   2024 03 06 20:10  03 55 30.08    -08 07 47.6   321108 0.9916  70.8     13?  29.72  29.6   26 230 111  17
   2024 03 06 20:20  03 55 40.07    -08 03 28.5   321113 0.9916  70.8     13?  29.98  30.2   24 233 111  17
   2024 03 06 20:30  03 55 50.34    -07 59 08.9   321124 0.9917  70.9     13?  30.25  30.9   23 235 111  17
   2024 03 06 20:40  03 56 00.91    -07 54 48.8   321140 0.9917  70.9     13?  30.53  31.6   21 237 111  17
   2024 03 06 20:50  03 56 11.80    -07 50 28.2   321160 0.9917  71.0     13?  30.82  32.3   20 239 111  17
   2024 03 06 21:00  03 56 23.00    -07 46 07.2   321186 0.9917  71.0     13?  31.11  33.0   18 241 111  17
   2024 03 06 21:10  03 56 34.54    -07 41 45.7   321216 0.9917  71.1     13?  31.42  33.7   17 243 111  17
   2024 03 06 21:20  03 56 46.41    -07 37 23.9   321250 0.9917  71.1     13?  31.74  34.5   15 245 111  17
   2024 03 06 21:30  03 56 58.63    -07 33 01.7   321287 0.9917  71.2     13?  32.06  35.2   13 247 111  17
   2024 03 06 21:40  03 57 11.20    -07 28 39.3   321328 0.9917  71.2     13?  32.39  36.0   12 248 111  17
   2024 03 06 21:50  03 57 24.14    -07 24 16.6   321372 0.9917  71.3     13?  32.73  36.7   10 250 111  17
   2024 03 06 22:00  03 57 37.43    -07 19 53.6   321419 0.9917  71.3     13?  33.08  37.4    8 252 111  16
   2024 03 06 22:10  03 57 51.10    -07 15 30.5   321468 0.9917  71.4     13?  33.43  38.2    6 254 111  16
   2024 03 06 22:20  03 58 05.15    -07 11 07.3   321519 0.9917  71.4     13?  33.79  38.9    5 255 111  16
   2024 03 06 22:30  03 58 19.57    -07 06 43.9   321571 0.9917  71.5     13?  34.16  39.7    3 257 111  16
   2024 03 06 22:40  03 58 34.37    -07 02 20.5   321625 0.9917  71.5     13?  34.53  40.4    1 259 111  16
   2024 03 06 22:50  03 58 49.56    -06 57 57.0   321679 0.9917  71.6     13?  34.91  41.1    0 260 111  16
   ................
   2024 03 07 18:20  04 35 24.13    +01 39 38.5   296688 0.9923  80.6 C   13?  31.71  25.4   50 192 113  10
   2024 03 07 18:30  04 35 33.19    +01 44 25.4   296516 0.9923  80.7 C   13?  31.77  25.5   49 196 113  10
   2024 03 07 18:40  04 35 42.33    +01 49 12.4   296352 0.9923  80.7 C   13?  31.85  25.8   49 200 113  10
   2024 03 07 18:50  04 35 51.59    +01 53 59.6   296197 0.9923  80.8 N   13?  31.93  26.1   48 203 113  10
   2024 03 07 19:00  04 36 00.97    +01 58 46.8   296049 0.9923  80.8 N   13?  32.03  26.4   47 207 113  10
   2024 03 07 19:10  04 36 10.49    +02 03 34.0   295910 0.9923  80.8 N   13?  32.13  26.7   47 210 113  10
   2024 03 07 19:20  04 36 20.18    +02 08 21.3   295778 0.9923  80.9 A   13?  32.25  27.1   46 214 113  10
   2024 03 07 19:30  04 36 30.04    +02 13 08.5   295653 0.9923  80.9 A   13?  32.37  27.6   45 217 113  10
   2024 03 07 19:40  04 36 40.10    +02 17 55.8   295537 0.9923  81.0 A   13?  32.51  28.1   43 220 113  10
   2024 03 07 19:50  04 36 50.36    +02 22 43.1   295427 0.9923  81.0     13?  32.66  28.6   42 223 113  10
   2024 03 07 20:00  04 37 00.86    +02 27 30.3   295325 0.9923  81.1     13?  32.83  29.1   41 226 113   9
   2024 03 07 20:10  04 37 11.60    +02 32 17.4   295230 0.9923  81.1     13?  33.01  29.7   40 229 113   9
   2024 03 07 20:20  04 37 22.59    +02 37 04.5   295141 0.9923  81.1     13?  33.20  30.3   38 231 113   9
   2024 03 07 20:30  04 37 33.86    +02 41 51.5   295059 0.9923  81.2     13?  33.40  30.9   37 234 113   9
   2024 03 07 20:40  04 37 45.42    +02 46 38.4   294983 0.9923  81.2     13?  33.62  31.6   35 236 113   9
   2024 03 07 20:50  04 37 57.27    +02 51 25.2   294913 0.9923  81.3     13?  33.85  32.2   34 239 113   9
   2024 03 07 21:00  04 38 09.44    +02 56 11.9   294848 0.9923  81.3     13?  34.10  32.9   32 241 113   9
   2024 03 07 21:10  04 38 21.93    +03 00 58.5   294789 0.9923  81.4     13?  34.36  33.6   31 243 113   9
   2024 03 07 21:20  04 38 34.77    +03 05 44.9   294735 0.9923  81.4     13?  34.64  34.3   29 245 113   9
   2024 03 07 21:30  04 38 47.95    +03 10 31.3   294686 0.9923  81.5     13?  34.93  35.1   28 247 113   9
   2024 03 07 21:40  04 39 01.49    +03 15 17.5   294642 0.9923  81.6     13?  35.23  35.8   26 249 113   9
   2024 03 07 21:50  04 39 15.40    +03 20 03.5   294602 0.9924  81.6     13?  35.55  36.6   24 251 112   9
   2024 03 07 22:00  04 39 29.70    +03 24 49.4   294565 0.9924  81.7     13?  35.88  37.3   22 253 112   9
   2024 03 07 22:10  04 39 44.38    +03 29 35.2   294532 0.9924  81.7     13?  36.23  38.1   21 255 112   9
   2024 03 07 22:20  04 39 59.46    +03 34 20.9   294503 0.9924  81.8     13?  36.59  38.8   19 257 112   9
   2024 03 07 22:30  04 40 14.94    +03 39 06.5   294476 0.9924  81.9     13?  36.97  39.6   17 259 112   8
   2024 03 07 22:40  04 40 30.84    +03 43 51.9   294452 0.9924  81.9     13?  37.36  40.3   15 260 112   8
   2024 03 07 22:50  04 40 47.15    +03 48 37.2   294430 0.9924  82.0     13?  37.76  41.0   14 262 112   8
   2024 03 07 23:00  04 41 03.89    +03 53 22.5   294409 0.9924  82.1     13?  38.17  41.8   12 264 112   8
   2024 03 07 23:10  04 41 21.05    +03 58 07.6   294390 0.9924  82.1     13?  38.59  42.5   10 266 112   8
   2024 03 07 23:20  04 41 38.64    +04 02 52.7   294373 0.9924  82.2     13?  39.02  43.2    8 267 112   8
   2024 03 07 23:30  04 41 56.67    +04 07 37.8   294355 0.9924  82.3     13?  39.47  43.9    7 269 112   8
   2024 03 07 23:40  04 42 15.14    +04 12 22.7   294339 0.9924  82.4     13?  39.92  44.6    5 271 112   8
   2024 03 07 23:50  04 42 34.04    +04 17 07.7   294322 0.9924  82.5     13?  40.38  45.2    3 272 112   8
   2024 03 08 00:00  04 42 53.38    +04 21 52.7   294305 0.9924  82.5     13?  40.84  45.9    1 274 112   8
   2024 03 08 00:10  04 43 13.17    +04 26 37.6   294287 0.9924  82.6     13?  41.32  46.5    0 276 112   8
   ................
   2024 03 08 18:20  05 27 10.31    +14 25 11.4   262311 0.9929  93.5 C   12?  41.15  30.1   63 171 116   4
   2024 03 08 18:30  05 27 24.46    +14 31 07.4   262032 0.9929  93.6 C   12?  41.06  30.2   63 177 116   4
   2024 03 08 18:40  05 27 38.64    +14 37 02.3   261761 0.9930  93.6 Ct  12?  40.99  30.3   63 182 116   4
   2024 03 08 18:50  05 27 52.88    +14 42 55.9   261498 0.9930  93.7 Ne  12?  40.92  30.5   63 187 116   4
   2024 03 08 19:00  05 28 07.19    +14 48 48.4   261243 0.9930  93.8 N   12?  40.87  30.7   63 193 116   4
   2024 03 08 19:10  05 28 21.59    +14 54 39.5   260996 0.9930  93.8 N   12?  40.84  31.0   63 198 116   4
   2024 03 08 19:20  05 28 36.10    +15 00 29.4   260756 0.9930  93.9 A   12?  40.82  31.3   62 203 116   4
   2024 03 08 19:30  05 28 50.76    +15 06 18.0   260525 0.9930  93.9 A   12?  40.81  31.6   61 208 116   4
   2024 03 08 19:40  05 29 05.56    +15 12 05.2   260301 0.9930  94.0 A   12?  40.82  32.0   60 212 115   4
   2024 03 08 19:50  05 29 20.55    +15 17 51.1   260084 0.9930  94.1     12?  40.84  32.4   59 217 115   4
   2024 03 08 20:00  05 29 35.73    +15 23 35.7   259876 0.9930  94.1     12?  40.88  32.9   58 221 115   3
   2024 03 08 20:10  05 29 51.13    +15 29 18.9   259674 0.9930  94.2     12?  40.94  33.4   57 225 115   3
   2024 03 08 20:20  05 30 06.77    +15 35 00.7   259480 0.9930  94.2     12?  41.02  33.9   56 228 115   3
   2024 03 08 20:30  05 30 22.67    +15 40 41.2   259292 0.9930  94.3     12?  41.12  34.4   55 232 115   3
   2024 03 08 20:40  05 30 38.84    +15 46 20.3   259112 0.9930  94.4     12?  41.23  35.0   53 235 115   3
   2024 03 08 20:50  05 30 55.31    +15 51 58.0   258938 0.9930  94.4     12?  41.37  35.6   52 238 115   3
   2024 03 08 21:00  05 31 12.10    +15 57 34.4   258771 0.9930  94.5     12?  41.53  36.2   50 241 115   3
   2024 03 08 21:10  05 31 29.22    +16 03 09.5   258609 0.9930  94.6     12?  41.71  36.8   49 243 115   3
   2024 03 08 21:20  05 31 46.69    +16 08 43.3   258454 0.9930  94.6     12?  41.91  37.5   47 246 115   3
   2024 03 08 21:30  05 32 04.52    +16 14 15.8   258305 0.9930  94.7     12?  42.14  38.2   45 248 115   3
   2024 03 08 21:40  05 32 22.74    +16 19 47.1   258161 0.9930  94.8     12?  42.38  38.9   44 251 115   3
   2024 03 08 21:50  05 32 41.37    +16 25 17.1   258023 0.9930  94.8     12?  42.65  39.6   42 253 115   3
   2024 03 08 22:00  05 33 00.40    +16 30 46.0   257889 0.9930  94.9     12?  42.95  40.3   40 255 115   3
   2024 03 08 22:10  05 33 19.87    +16 36 13.7   257760 0.9931  95.0     12?  43.26  41.0   39 257 115   3
   2024 03 08 22:20  05 33 39.79    +16 41 40.4   257636 0.9931  95.1     12?  43.60  41.7   37 259 115   3
   2024 03 08 22:30  05 34 00.16    +16 47 05.9   257516 0.9931  95.2     12?  43.96  42.5   35 261 115   3
   2024 03 08 22:40  05 34 21.01    +16 52 30.5   257399 0.9931  95.2     12?  44.35  43.2   33 263 115   3
   2024 03 08 22:50  05 34 42.34    +16 57 54.2   257286 0.9931  95.3     12?  44.75  43.9   32 265 115   3
   2024 03 08 23:00  05 35 04.17    +17 03 16.9   257177 0.9931  95.4     12?  45.18  44.6   30 266 115   3
   2024 03 08 23:10  05 35 26.50    +17 08 38.9   257070 0.9931  95.5     12?  45.63  45.3   28 268 115   3
   2024 03 08 23:20  05 35 49.35    +17 14 00.0   256966 0.9931  95.6     12?  46.10  46.0   26 270 115   3
   2024 03 08 23:30  05 36 12.72    +17 19 20.5   256864 0.9931  95.7     12?  46.59  46.7   24 271 115   3
   2024 03 08 23:40  05 36 36.62    +17 24 40.3   256765 0.9931  95.8     12?  47.10  47.4   23 273 115   3
   2024 03 08 23:50  05 37 01.07    +17 29 59.6   256666 0.9931  95.9     12?  47.63  48.1   21 275 115   3
   2024 03 09 00:00  05 37 26.07    +17 35 18.5   256570 0.9931  95.9     12?  48.17  48.7   19 276 114   3
   2024 03 09 00:10  05 37 51.61    +17 40 36.9   256474 0.9931  96.0     12?  48.74  49.4   17 278 114   3
   2024 03 09 00:20  05 38 17.72    +17 45 55.0   256378 0.9931  96.1     12?  49.31  50.0   16 279 114   2
   2024 03 09 00:30  05 38 44.39    +17 51 12.8   256283 0.9931  96.3     12?  49.91  50.6   14 281 114   2
   2024 03 09 00:40  05 39 11.63    +17 56 30.5   256188 0.9931  96.4     12?  50.51  51.2   12 282 114   2
   2024 03 09 00:50  05 39 39.43    +18 01 48.1   256092 0.9931  96.5     12?  51.13  51.7   11 284 114   2
   2024 03 09 01:00  05 40 07.81    +18 07 05.8   255996 0.9931  96.6     12?  51.76  52.3    9 285 114   2
   2024 03 09 01:10  05 40 36.75    +18 12 23.5   255899 0.9931  96.7     12?  52.39  52.8    7 287 114   2
   2024 03 09 01:20  05 41 06.27    +18 17 41.4   255800 0.9931  96.8     12?  53.04  53.3    6 289 114   2
   2024 03 09 01:30  05 41 36.36    +18 22 59.6   255699 0.9931  96.9     12?  53.70  53.8    4 290 114   2
   2024 03 09 01:40  05 42 07.03    +18 28 18.2   255597 0.9932  97.0     12?  54.36  54.2    2 292 114   2
   2024 03 09 01:50  05 42 38.25    +18 33 37.2   255492 0.9932  97.2     12?  55.02  54.7    1 293 114   2
   2024 03 09 02:00  05 43 10.05    +18 38 56.7   255384 0.9932  97.3     12?  55.69  55.1    0 295 114   2
   ................
   2024 03 09 18:30  06 48 39.10    +30 14 41.6   219785 0.9936 111.0 C   13?  61.52  41.9   70 115 121   0
   2024 03 09 18:40  06 49 10.71    +30 22 18.9   219415 0.9936 111.1 C   13?  61.23  42.0   71 119 120   0
   2024 03 09 18:50  06 49 42.29    +30 29 53.1   219051 0.9936 111.2 N   13?  60.95  42.2   73 123 120   0
   2024 03 09 19:00  06 50 13.88    +30 37 24.0   218694 0.9936 111.3 N   13?  60.68  42.4   74 128 120   0
   2024 03 09 19:10  06 50 45.50    +30 44 51.6   218344 0.9936 111.4 N   13?  60.42  42.6   76 134 120   0
   2024 03 09 19:20  06 51 17.16    +30 52 15.7   218000 0.9936 111.5 A   13?  60.19  42.9   77 141 120   0
   2024 03 09 19:30  06 51 48.91    +30 59 36.2   217664 0.9937 111.5 A   13?  59.97  43.1   78 150 120   0
   2024 03 09 19:40  06 52 20.76    +31 06 53.1   217334 0.9937 111.6 A   13?  59.76  43.4   79 160 120   0
   2024 03 09 19:50  06 52 52.74    +31 14 06.2   217011 0.9937 111.7     13?  59.58  43.8   80 171 120   0
   2024 03 09 20:00  06 53 24.88    +31 21 15.6   216696 0.9937 111.8  t  13?  59.42  44.2   80 183 120   0
   2024 03 09 20:10  06 53 57.20    +31 28 21.0   216386 0.9937 111.9  e  13?  59.28  44.6   80 195 120   0
   2024 03 09 20:20  06 54 29.73    +31 35 22.6   216084 0.9937 112.0     13?  59.16  45.0   79 206 120   0
   2024 03 09 20:30  06 55 02.50    +31 42 20.1   215788 0.9937 112.1     13?  59.07  45.5   78 216 120   0
   2024 03 09 20:40  06 55 35.54    +31 49 13.7   215499 0.9937 112.2     13?  59.01  45.9   77 225 120   0
   2024 03 09 20:50  06 56 08.87    +31 56 03.1   215217 0.9937 112.3     13?  58.97  46.5   76 232 120   0
   2024 03 09 21:00  06 56 42.53    +32 02 48.5   214941 0.9937 112.3     13?  58.96  47.0   75 238 120   0
   2024 03 09 21:10  06 57 16.53    +32 09 29.8   214671 0.9937 112.4     13?  58.98  47.6   73 243 120   0
   2024 03 09 21:20  06 57 50.90    +32 16 07.0   214408 0.9937 112.5     13?  59.03  48.1   72 247 120   0
   2024 03 09 21:30  06 58 25.69    +32 22 40.0   214151 0.9937 112.6     13?  59.11  48.7   70 251 120   0
   2024 03 09 21:40  06 59 00.90    +32 29 09.0   213900 0.9937 112.7     13?  59.22  49.4   68 254 120   0
   2024 03 09 21:50  06 59 36.57    +32 35 33.8   213655 0.9937 112.8     13?  59.37  50.0   67 257 120   0
   2024 03 09 22:00  07 00 12.72    +32 41 54.5   213415 0.9937 112.9     13?  59.55  50.7   65 259 120   0
   2024 03 09 22:10  07 00 49.39    +32 48 11.2   213182 0.9937 113.0     13?  59.76  51.3   63 262 120   0
   2024 03 09 22:20  07 01 26.59    +32 54 23.9   212953 0.9937 113.1     13?  60.01  52.0   62 264 120   0
   2024 03 09 22:30  07 02 04.35    +33 00 32.7   212730 0.9937 113.2     13?  60.30  52.7   60 266 120   0
   2024 03 09 22:40  07 02 42.70    +33 06 37.5   212512 0.9937 113.3     13?  60.62  53.4   58 268 120   0
   2024 03 09 22:50  07 03 21.66    +33 12 38.4   212299 0.9937 113.4     13?  60.98  54.1   56 269 120   0
   2024 03 09 23:00  07 04 01.25    +33 18 35.5   212090 0.9937 113.5     13?  61.37  54.8   55 271 120   0
   2024 03 09 23:10  07 04 41.51    +33 24 29.0   211886 0.9937 113.7     13?  61.80  55.5   53 273 120   0
   2024 03 09 23:20  07 05 22.44    +33 30 18.7   211686 0.9938 113.8     13?  62.26  56.2   51 274 120   0
   2024 03 09 23:30  07 06 04.07    +33 36 05.0   211491 0.9938 113.9     13?  62.76  56.9   49 276 120   0
   2024 03 09 23:40  07 06 46.43    +33 41 47.7   211299 0.9938 114.0     13?  63.29  57.6   48 277 120   0
   2024 03 09 23:50  07 07 29.53    +33 47 27.1   211110 0.9938 114.1     13?  63.86  58.2   46 278 120   0
   2024 03 10 00:00  07 08 13.39    +33 53 03.2   210925 0.9938 114.3     13?  64.46  58.9   44 280 120   0
   2024 03 10 00:10  07 08 58.04    +33 58 36.2   210743 0.9938 114.4     13?  65.10  59.6   43 281 120   0
   2024 03 10 00:20  07 09 43.48    +34 04 06.1   210564 0.9938 114.5     13?  65.76  60.2   41 282 120   0
   2024 03 10 00:30  07 10 29.74    +34 09 33.1   210388 0.9938 114.6     13?  66.45  60.8   39 284 120   0
   2024 03 10 00:40  07 11 16.83    +34 14 57.3   210214 0.9938 114.8     13?  67.18  61.4   38 285 120   0
   2024 03 10 00:50  07 12 04.77    +34 20 18.8   210042 0.9938 114.9     13?  67.93  62.0   36 286 120   0
   2024 03 10 01:00  07 12 53.58    +34 25 37.7   209872 0.9938 115.0     13?  68.71  62.6   34 287 120   0
   2024 03 10 01:10  07 13 43.26    +34 30 54.3   209704 0.9938 115.2     13?  69.51  63.2   33 289 120   0
   2024 03 10 01:20  07 14 33.82    +34 36 08.6   209537 0.9938 115.3     13?  70.34  63.7   31 290 120   0
   2024 03 10 01:30  07 15 25.29    +34 41 20.7   209372 0.9938 115.5     13?  71.19  64.2   30 291 120   0
   2024 03 10 01:40  07 16 17.66    +34 46 30.8   209207 0.9938 115.6     13?  72.06  64.8   28 292 120   0
   2024 03 10 01:50  07 17 10.95    +34 51 39.1   209043 0.9938 115.8     13?  72.96  65.2   27 293 120   0
   2024 03 10 02:00  07 18 05.18    +34 56 45.7   208879 0.9938 115.9     13?  73.87  65.7   25 295 120   0
   2024 03 10 02:10  07 19 00.33    +35 01 50.7   208715 0.9938 116.1     13?  74.79  66.2   24 296 120   0
   2024 03 10 02:20  07 19 56.43    +35 06 54.3   208552 0.9938 116.2     13?  75.74  66.6   22 297 120   0
   2024 03 10 02:30  07 20 53.48    +35 11 56.7   208388 0.9938 116.4     13?  76.69  67.0   21 298 120   0
   2024 03 10 02:40  07 21 51.48    +35 16 57.9   208223 0.9938 116.5     13?  77.66  67.4   19 300 120   0
   2024 03 10 02:50  07 22 50.43    +35 21 58.2   208058 0.9938 116.7     13?  78.64  67.7   18 301 120   0
   2024 03 10 03:00  07 23 50.35    +35 26 57.7   207891 0.9938 116.9     13?  79.63  68.1   16 302 121   0
   2024 03 10 03:10  07 24 51.22    +35 31 56.5   207723 0.9938 117.1     13?  80.63  68.4   15 303 121   0
   2024 03 10 03:20  07 25 53.06    +35 36 54.8   207554 0.9939 117.2     13?  81.63  68.7   14 305 121   0
   2024 03 10 03:30  07 26 55.86    +35 41 52.7   207383 0.9939 117.4     13?  82.64  69.0   12 306 121   0
   2024 03 10 03:40  07 27 59.62    +35 46 50.4   207210 0.9939 117.6     13?  83.65  69.3   11 307 121   0
   2024 03 10 03:50  07 29 04.35    +35 51 48.0   207035 0.9939 117.8     13?  84.66  69.6   10 309 121   0
   2024 03 10 04:00  07 30 10.02    +35 56 45.7   206858 0.9939 117.9     13?  85.68  69.8    8 310 121   0
   2024 03 10 04:10  07 31 16.66    +36 01 43.6   206678 0.9939 118.1     13?  86.69  70.0    7 311 121   0
   2024 03 10 04:20  07 32 24.24    +36 06 41.8   206495 0.9939 118.3     13?  87.71  70.3    6 313 121   0
   2024 03 10 04:30  07 33 32.77    +36 11 40.5   206309 0.9939 118.5     13?  88.72  70.5    5 314 121   0
   2024 03 10 04:40  07 34 42.24    +36 16 39.8   206120 0.9939 118.7     13?  89.72  70.6    4 315 121   0
   2024 03 10 04:50  07 35 52.64    +36 21 39.9   205928 0.9939 118.9     13?  90.72  70.8    3 317 121   0
   2024 03 10 05:00  07 37 03.96    +36 26 40.9   205732 0.9939 119.1     13?  91.71  71.0    2 318 121   0
   2024 03 10 05:10  07 38 16.21    +36 31 42.8   205533 0.9939 119.3 A   13?  92.70  71.1    1 320 122   0
   2024 03 10 05:20  07 39 29.36    +36 36 45.9   205330 0.9939 119.5 A   13?  93.68  71.2    0 321 122   0
   ................
   2024 03 10 18:30  09 41 09.51    +44 33 27.4   177211 0.9942 133.3 Cm  13? 105.63  73.2   44  63 131   0
   2024 03 10 18:40  09 42 43.97    +44 38 31.4   176822 0.9942 133.4 Cm  13? 105.09  73.5   46  64 131   0
   2024 03 10 18:50  09 44 18.24    +44 43 28.1   176435 0.9942 133.5 N   13? 104.56  73.8   47  64 131   0
   2024 03 10 19:00  09 45 52.33    +44 48 17.3   176053 0.9942 133.6 N   13? 104.03  74.2   49  65 131   0
   2024 03 10 19:10  09 47 26.24    +44 52 58.5   175674 0.9942 133.7 N   13? 103.51  74.6   50  65 131   0
   2024 03 10 19:20  09 48 59.99    +44 57 31.7   175299 0.9942 133.8 A   13? 103.00  75.0   52  66 131   0
   2024 03 10 19:30  09 50 33.58    +45 01 56.4   174928 0.9942 133.9 A   13? 102.49  75.4   53  66 131   0
   2024 03 10 19:40  09 52 07.02    +45 06 12.5   174561 0.9942 134.0 A   13? 102.01  75.8   55  66 131   0
   2024 03 10 19:50  09 53 40.33    +45 10 19.6   174199 0.9942 134.0     13? 101.54  76.3   56  67 131   0
   2024 03 10 20:00  09 55 13.50    +45 14 17.6   173840 0.9942 134.1     13? 101.08  76.8   58  67 131   0
   2024 03 10 20:10  09 56 46.56    +45 18 06.1   173486 0.9942 134.2     13? 100.65  77.3   59  67 131   0
   2024 03 10 20:20  09 58 19.52    +45 21 45.0   173136 0.9942 134.3     13? 100.23  77.8   61  67 131   0
   2024 03 10 20:30  09 59 52.38    +45 25 13.9   172791 0.9942 134.4     13?  99.84  78.3   62  68 131   0
   2024 03 10 20:40  10 01 25.18    +45 28 32.6   172451 0.9942 134.5     13?  99.47  78.9   64  68 131   0
   2024 03 10 20:50  10 02 57.91    +45 31 41.0   172116 0.9942 134.5     13?  99.13  79.5   65  68 131   0
   2024 03 10 21:00  10 04 30.61    +45 34 38.7   171785 0.9942 134.6     13?  98.82  80.1   67  68 131   0
   2024 03 10 21:10  10 06 03.27    +45 37 25.6   171459 0.9942 134.7     13?  98.53  80.7   68  67 131   0
   2024 03 10 21:20  10 07 35.93    +45 40 01.5   171139 0.9942 134.8     13?  98.28  81.3   69  67 131   0
   2024 03 10 21:30  10 09 08.60    +45 42 26.1   170823 0.9942 134.9     13?  98.07  82.0   71  67 131   0
   2024 03 10 21:40  10 10 41.29    +45 44 39.2   170513 0.9942 135.0     13?  97.89  82.6   72  66 131   0
   2024 03 10 21:50  10 12 14.04    +45 46 40.7   170207 0.9942 135.1     13?  97.74  83.3   74  65 131   0
   2024 03 10 22:00  10 13 46.85    +45 48 30.4   169907 0.9942 135.1     13?  97.64  84.0   75  64 131   0
   2024 03 10 22:10  10 15 19.75    +45 50 08.1   169612 0.9942 135.2     13?  97.58  84.7   77  62 131   0
   2024 03 10 22:20  10 16 52.77    +45 51 33.7   169323 0.9942 135.3     13?  97.55  85.4   78  59 131   0
   2024 03 10 22:30  10 18 25.91    +45 52 46.9   169039 0.9942 135.4     13?  97.57  86.1   80  56 131   0
   2024 03 10 22:40  10 19 59.20    +45 53 47.8   168760 0.9942 135.5     13?  97.63  86.9   81  52 131   0
   2024 03 10 22:50  10 21 32.67    +45 54 36.0   168487 0.9942 135.6     13?  97.74  87.6   82  46 132   0
   2024 03 10 23:00  10 23 06.34    +45 55 11.6   168219 0.9942 135.7     13?  97.90  88.4   83  37 132   0
   2024 03 10 23:10  10 24 40.23    +45 55 34.4   167957 0.9942 135.8     13?  98.09  89.1   84  26 132   0
   2024 03 10 23:20  10 26 14.36    +45 55 44.2   167700 0.9942 135.9     13?  98.34  89.9   84  11 132   0
   2024 03 10 23:30  10 27 48.75    +45 55 41.1   167449 0.9943 136.0  t  13?  98.63  90.6   85 354 132   0
   2024 03 10 23:40  10 29 23.43    +45 55 24.8   167203 0.9943 136.0     13?  98.97  91.4   84 338 132   0
   2024 03 10 23:50  10 30 58.41    +45 54 55.5   166963 0.9943 136.1     13?  99.36  92.2   83 325 132   0
   2024 03 11 00:00  10 32 33.73    +45 54 12.9   166728 0.9943 136.2     13?  99.80  92.9   82 316 132   0
   2024 03 11 00:10  10 34 09.40    +45 53 17.1   166499 0.9943 136.3     13? 100.28  93.7   81 309 132   0
   2024 03 11 00:20  10 35 45.45    +45 52 07.9   166275 0.9943 136.4     13? 100.80  94.4   80 304 132   0
   2024 03 11 00:30  10 37 21.89    +45 50 45.5   166057 0.9943 136.6     13? 101.38  95.1   79 300 132   0
   2024 03 11 00:40  10 38 58.75    +45 49 09.7   165844 0.9943 136.7     13? 102.00  95.8   77 298 132   0
   2024 03 11 00:50  10 40 36.05    +45 47 20.6   165637 0.9943 136.8     13? 102.66  96.5   76 296 132   0
   2024 03 11 01:00  10 42 13.81    +45 45 18.2   165435 0.9943 136.9     13? 103.37  97.2   74 294 132   0
   2024 03 11 01:10  10 43 52.05    +45 43 02.4   165238 0.9943 137.0     13? 104.12  97.9   73 293 132   0
   2024 03 11 01:20  10 45 30.78    +45 40 33.3   165047 0.9943 137.1     13? 104.91  98.6   72 293 132   0
   2024 03 11 01:30  10 47 10.02    +45 37 51.0   164860 0.9943 137.2     13? 105.74  99.3   70 292 133   0
   2024 03 11 01:40  10 48 49.80    +45 34 55.5   164679 0.9943 137.3     13? 106.61  99.9   69 292 133   0
   2024 03 11 01:50  10 50 30.13    +45 31 46.8   164504 0.9943 137.4     13? 107.51 100.5   67 291 133   0
   2024 03 11 02:00  10 52 11.03    +45 28 25.0   164333 0.9943 137.5     13? 108.45 101.1   66 291 133   0
   2024 03 11 02:10  10 53 52.51    +45 24 50.2   164168 0.9943 137.7     13? 109.42 101.7   64 291 133   0
   2024 03 11 02:20  10 55 34.58    +45 21 02.5   164007 0.9943 137.8     13? 110.43 102.3   63 291 133   0
   2024 03 11 02:30  10 57 17.26    +45 17 01.9   163851 0.9943 137.9     13? 111.47 102.8   61 291 133   0
   2024 03 11 02:40  10 59 00.57    +45 12 48.6   163701 0.9943 138.0     13? 112.53 103.3   60 291 133   0
   2024 03 11 02:50  11 00 44.51    +45 08 22.7   163555 0.9943 138.1     13? 113.62 103.9   58 292 133   0
   2024 03 11 03:00  11 02 29.09    +45 03 44.2   163414 0.9943 138.3     13? 114.74 104.4   57 292 133   0
   2024 03 11 03:10  11 04 14.32    +44 58 53.4   163277 0.9943 138.4     13? 115.87 104.9   55 292 134   0
   2024 03 11 03:20  11 06 00.22    +44 53 50.3   163145 0.9943 138.5     13? 117.03 105.3   54 292 134   0
   2024 03 11 03:30  11 07 46.79    +44 48 35.2   163018 0.9943 138.6     13? 118.21 105.8   53 293 134   0
   2024 03 11 03:40  11 09 34.03    +44 43 08.0   162894 0.9943 138.8     13? 119.41 106.2   51 293 134   0
   2024 03 11 03:50  11 11 21.95    +44 37 29.1   162776 0.9943 138.9     13? 120.62 106.6   50 294 134   1
   2024 03 11 04:00  11 13 10.57    +44 31 38.5   162661 0.9943 139.0     13? 121.84 107.0   48 294 134   1
   2024 03 11 04:10  11 14 59.86    +44 25 36.4   162551 0.9943 139.1     13? 123.08 107.4   47 295 134   1
   2024 03 11 04:20  11 16 49.85    +44 19 23.0   162444 0.9943 139.2     13? 124.32 107.7   45 295 134   1
   2024 03 11 04:30  11 18 40.54    +44 12 58.5   162342 0.9943 139.4     13? 125.57 108.1   44 296 135   1
   2024 03 11 04:40  11 20 31.91    +44 06 23.0   162243 0.9943 139.5     13? 126.83 108.4   42 296 135   1
   2024 03 11 04:50  11 22 23.97    +43 59 36.7   162148 0.9943 139.6     13? 128.10 108.7   41 297 135   1
   2024 03 11 05:00  11 24 16.73    +43 52 39.9   162057 0.9943 139.7     13? 129.36 109.0   40 297 135   1
   2024 03 11 05:10  11 26 10.16    +43 45 32.7   161969 0.9943 139.8 A   13? 130.63 109.3   38 298 135   1
   2024 03 11 05:20  11 28 04.28    +43 38 15.2   161885 0.9943 140.0 A   13? 131.89 109.6   37 298 135   1
   2024 03 11 05:30  11 29 59.07    +43 30 47.8   161803 0.9943 140.1 A   13? 133.16 109.8   35 299 135   1
   2024 03 11 05:40  11 31 54.53    +43 23 10.6   161726 0.9943 140.2 N   13? 134.42 110.1   34 300 136   1
   2024 03 11 05:50  11 33 50.65    +43 15 23.8   161651 0.9943 140.3 N   13? 135.67 110.3   33 300 136   1
   2024 03 11 06:00  11 35 47.42    +43 07 27.6   161579 0.9943 140.4 N   13? 136.92 110.5   31 301 136   1
   2024 03 11 06:10  11 37 44.83    +42 59 22.2   161509 0.9943 140.5 C   13? 138.15 110.7   30 302 136   1
   2024 03 11 06:20  11 39 42.88    +42 51 07.8   161443 0.9943 140.6 C   13? 139.38 110.9   29 302 136   1
   ................
   2024 03 11 19:20  14 17 11.09    +28 03 04.8   155194 0.9943 132.8 Am  12? 155.29 120.8    0  51 140   2
   2024 03 11 19:30  14 18 51.16    +27 49 43.8   155037 0.9943 132.6 Am  12? 154.56 121.2    0  52 140   2
   2024 03 11 19:40  14 20 30.21    +27 36 18.9   154879 0.9943 132.3 Am  12? 153.83 121.5    1  54 140   2
   2024 03 11 19:50  14 22 08.22    +27 22 50.1   154720 0.9943 132.1  m  12? 153.09 121.8    2  55 140   2
   2024 03 11 20:00  14 23 45.19    +27 09 17.4   154561 0.9943 131.8  m  12? 152.35 122.2    3  57 140   2
   2024 03 11 20:10  14 25 21.12    +26 55 40.5   154401 0.9943 131.6     12? 151.61 122.6    5  58 140   2
   2024 03 11 20:20  14 26 55.99    +26 41 59.3   154241 0.9943 131.4     12? 150.87 122.9    6  60 140   3
   2024 03 11 20:30  14 28 29.81    +26 28 13.9   154081 0.9943 131.1     12? 150.13 123.3    7  61 140   3
   2024 03 11 20:40  14 30 02.57    +26 14 24.0   153922 0.9943 130.9     12? 149.40 123.7    8  62 140   3
   2024 03 11 20:50  14 31 34.26    +26 00 29.6   153762 0.9943 130.6     12? 148.67 124.1   10  64 140   3
   2024 03 11 21:00  14 33 04.89    +25 46 30.6   153604 0.9943 130.4     12? 147.95 124.5   11  65 140   3
   2024 03 11 21:10  14 34 34.45    +25 32 26.8   153446 0.9943 130.2     12? 147.24 124.9   12  67 140   3
   2024 03 11 21:20  14 36 02.95    +25 18 18.3   153289 0.9943 129.9     12? 146.53 125.4   14  68 140   3
   2024 03 11 21:30  14 37 30.38    +25 04 04.8   153134 0.9943 129.7     12? 145.84 125.8   15  70 140   3
   2024 03 11 21:40  14 38 56.75    +24 49 46.3   152980 0.9943 129.4     12? 145.15 126.2   16  71 140   3
   2024 03 11 21:50  14 40 22.06    +24 35 22.6   152828 0.9943 129.2     12? 144.48 126.7   18  73 139   3
   2024 03 11 22:00  14 41 46.31    +24 20 53.9   152678 0.9943 129.0     12? 143.82 127.2   19  74 139   3
   2024 03 11 22:10  14 43 09.51    +24 06 19.8   152530 0.9943 128.7     12? 143.18 127.6   21  76 139   3
   2024 03 11 22:20  14 44 31.67    +23 51 40.4   152385 0.9943 128.5     12? 142.56 128.1   22  77 139   3
   2024 03 11 22:30  14 45 52.79    +23 36 55.6   152243 0.9943 128.3     12? 141.95 128.6   24  78 139   3
   2024 03 11 22:40  14 47 12.88    +23 22 05.4   152103 0.9943 128.1     12? 141.36 129.0   25  80 139   3
   2024 03 11 22:50  14 48 31.95    +23 07 09.6   151967 0.9943 127.8     12? 140.79 129.5   27  82 139   3
   2024 03 11 23:00  14 49 50.01    +22 52 08.2   151834 0.9943 127.6     12? 140.23 130.0   28  83 139   3
   2024 03 11 23:10  14 51 07.07    +22 37 01.1   151705 0.9943 127.4     12? 139.70 130.5   30  85 139   3
   2024 03 11 23:20  14 52 23.14    +22 21 48.4   151580 0.9943 127.2     12? 139.20 131.0   31  86 139   3
   2024 03 11 23:30  14 53 38.24    +22 06 30.0   151459 0.9943 127.0     12? 138.71 131.5   33  88 139   3
   2024 03 11 23:40  14 54 52.38    +21 51 05.9   151343 0.9943 126.7     12? 138.25 132.0   34  90 139   3
   2024 03 11 23:50  14 56 05.58    +21 35 36.0   151232 0.9943 126.5     12? 137.80 132.5   36  91 139   3
   2024 03 12 00:00  14 57 17.85    +21 20 00.4   151125 0.9943 126.3     12? 137.39 132.9   37  93 139   3
   2024 03 12 00:10  14 58 29.21    +21 04 19.0   151024 0.9943 126.1     12? 136.99 133.4   39  95 139   3
   2024 03 12 00:20  14 59 39.67    +20 48 31.8   150929 0.9943 125.9     12? 136.63 133.9   40  97 139   3
   2024 03 12 00:30  15 00 49.27    +20 32 38.9   150839 0.9943 125.7     12? 136.28 134.4   42  99 139   3
   2024 03 12 00:40  15 01 58.01    +20 16 40.3   150755 0.9943 125.5     12? 135.96 134.9   43 101 139   3
   2024 03 12 00:50  15 03 05.91    +20 00 36.0   150677 0.9943 125.3     12? 135.66 135.3   45 103 139   4
   2024 03 12 01:00  15 04 13.01    +19 44 26.0   150606 0.9943 125.1     12? 135.39 135.8   46 105 139   4
   2024 03 12 01:10  15 05 19.32    +19 28 10.5   150542 0.9943 124.8     12? 135.14 136.2   47 107 139   4
   2024 03 12 01:20  15 06 24.87    +19 11 49.4   150484 0.9943 124.6     12? 134.92 136.7   49 110 139   4
   2024 03 12 01:30  15 07 29.68    +18 55 22.9   150434 0.9943 124.4     12? 134.71 137.1   50 112 139   4
   2024 03 12 01:40  15 08 33.77    +18 38 51.1   150391 0.9943 124.2     12? 134.53 137.5   52 115 139   4
   2024 03 12 01:50  15 09 37.18    +18 22 13.9   150355 0.9943 124.0     12? 134.37 137.9   53 118 139   4
   2024 03 12 02:00  15 10 39.93    +18 05 31.6   150327 0.9943 123.8     12? 134.24 138.3   54 121 139   4
   2024 03 12 02:10  15 11 42.04    +17 48 44.2   150308 0.9943 123.6     12? 134.12 138.7   55 124 139   4
   2024 03 12 02:20  15 12 43.54    +17 31 51.9   150296 0.9943 123.4     12? 134.02 139.1   57 127 139   4
   2024 03 12 02:30  15 13 44.47    +17 14 54.8   150292 0.9943 123.3     12? 133.95 139.4   58 131 139   4
   2024 03 12 02:40  15 14 44.84    +16 57 52.9   150297 0.9943 123.1     12? 133.89 139.7   59 134 139   4
   2024 03 12 02:50  15 15 44.70    +16 40 46.6   150311 0.9943 122.9     12? 133.84 140.1   60 138 139   4
   2024 03 12 03:00  15 16 44.06    +16 23 35.9   150333 0.9943 122.7     12? 133.82 140.4   61 142 139   4
   2024 03 12 03:10  15 17 42.96    +16 06 21.0   150365 0.9943 122.5     12? 133.81 140.6   61 147 139   4
   2024 03 12 03:20  15 18 41.43    +15 49 02.1   150405 0.9943 122.3     12? 133.81 140.9   62 151 139   4
   2024 03 12 03:30  15 19 39.51    +15 31 39.3   150454 0.9943 122.1     12? 133.83 141.2   62 156 139   4
   2024 03 12 03:40  15 20 37.21    +15 14 12.8   150512 0.9943 121.9     12? 133.86 141.4   63 161 139   4
   2024 03 12 03:50  15 21 34.57    +14 56 42.9   150580 0.9943 121.7     12? 133.90 141.6   63 165 139   4
   2024 03 12 04:00  15 22 31.62    +14 39 09.8   150657 0.9943 121.5  e  12? 133.96 141.8   63 170 139   4
   2024 03 12 04:10  15 23 28.40    +14 21 33.5   150743 0.9943 121.3     12? 134.02 142.0   63 175 139   4
   2024 03 12 04:20  15 24 24.92    +14 03 54.5   150839 0.9943 121.1  t  12? 134.10 142.1   63 180 139   4
   2024 03 12 04:30  15 25 21.23    +13 46 12.8   150944 0.9943 120.9     12? 134.18 142.2   62 185 140   4
   2024 03 12 04:40  15 26 17.36    +13 28 28.8   151059 0.9943 120.7     12? 134.27 142.3   62 190 140   5
   2024 03 12 04:50  15 27 13.33    +13 10 42.5   151184 0.9943 120.5     12? 134.37 142.4   61 194 140   5
   2024 03 12 05:00  15 28 09.17    +12 52 54.4   151317 0.9943 120.3 A   12? 134.48 142.5   60 199 140   5
   2024 03 12 05:10  15 29 04.91    +12 35 04.5   151461 0.9943 120.1 A   12? 134.59 142.5   59 203 140   5
   2024 03 12 05:20  15 30 00.59    +12 17 13.2   151613 0.9943 119.9 A   12? 134.70 142.6   58 207 140   5
   2024 03 12 05:30  15 30 56.23    +11 59 20.6   151776 0.9943 119.7 A   12? 134.82 142.6   57 210 140   5
   2024 03 12 05:40  15 31 51.86    +11 41 27.1   151947 0.9943 119.5 N   12? 134.95 142.6   56 214 140   5
   2024 03 12 05:50  15 32 47.50    +11 23 32.8   152128 0.9943 119.3 N   12? 135.08 142.5   55 217 140   5
   2024 03 12 06:00  15 33 43.19    +11 05 38.0   152318 0.9943 119.1 N   12? 135.21 142.5   53 220 140   5
   2024 03 12 06:10  15 34 38.95    +10 47 42.9   152517 0.9942 118.9 C   12? 135.35 142.4   52 223 140   5
   2024 03 12 06:20  15 35 34.81    +10 29 47.8   152725 0.9942 118.7 C   12? 135.49 142.4   51 226 140   5
   ................
   2024 03 13 01:50  17 44 51.60    -19 20 57.4   181894 0.9939  86.2     11? 108.34 137.9    0 116 123  10
   2024 03 13 02:00  17 45 42.43    -19 34 22.0   182019 0.9939  86.0     11? 107.46 138.2    1 118 123  10
   2024 03 13 02:10  17 46 32.64    -19 47 43.4   182147 0.9939  85.8     11? 106.58 138.4    3 119 123  10
   2024 03 13 02:20  17 47 22.25    -20 01 01.6   182279 0.9939  85.6     11? 105.70 138.7    4 121 123  10
   2024 03 13 02:30  17 48 11.26    -20 14 16.2   182415 0.9939  85.4     11? 104.82 139.0    5 123 123  10
   2024 03 13 02:40  17 48 59.68    -20 27 27.2   182556 0.9939  85.2     11? 103.94 139.2    7 125 123  10
   2024 03 13 02:50  17 49 47.53    -20 40 34.5   182701 0.9939  85.0     11? 103.06 139.4    8 126 123  10
   2024 03 13 03:00  17 50 34.82    -20 53 37.7   182852 0.9939  84.8     11? 102.19 139.7    9 128 123  10
   2024 03 13 03:10  17 51 21.55    -21 06 36.9   183007 0.9939  84.7     11? 101.32 139.9   10 130 123  10
   2024 03 13 03:20  17 52 07.75    -21 19 31.8   183168 0.9939  84.5     11? 100.45 140.1   11 132 123  10
   2024 03 13 03:30  17 52 53.43    -21 32 22.2   183334 0.9939  84.3     11?  99.59 140.3   13 134 123  11
   2024 03 13 03:40  17 53 38.61    -21 45 08.0   183507 0.9939  84.1     11?  98.73 140.5   14 136 122  11
   2024 03 13 03:50  17 54 23.31    -21 57 49.0   183685 0.9939  84.0     11?  97.87 140.6   15 138 122  11
   2024 03 13 04:00  17 55 07.53    -22 10 25.0   183869 0.9939  83.8     11?  97.02 140.8   16 140 122  11
   2024 03 13 04:10  17 55 51.31    -22 22 56.0   184060 0.9939  83.6     11?  96.18 140.9   17 142 122  11
   2024 03 13 04:20  17 56 34.66    -22 35 21.7   184257 0.9939  83.5     12?  95.35 141.0   17 144 122  11
   2024 03 13 04:30  17 57 17.60    -22 47 42.0   184460 0.9939  83.3     12?  94.52 141.1   18 146 122  11
   2024 03 13 04:40  17 58 00.16    -22 59 56.7   184671 0.9939  83.2     12?  93.70 141.2   19 148 122  11
   2024 03 13 04:50  17 58 42.35    -23 12 05.8   184888 0.9939  83.0     12?  92.89 141.2   20 150 122  11
   2024 03 13 05:00  17 59 24.19    -23 24 09.0   185112 0.9939  82.9 A   12?  92.09 141.3   20 153 122  11
   2024 03 13 05:10  18 00 05.72    -23 36 06.2   185344 0.9939  82.7 A   12?  91.30 141.3   21 155 122  11
   2024 03 13 05:20  18 00 46.96    -23 47 57.3   185583 0.9939  82.6 A   12?  90.52 141.3   21 157 122  11
   2024 03 13 05:30  18 01 27.92    -23 59 42.1   185829 0.9939  82.4 N   12?  89.75 141.2   22 159 122  11
   2024 03 13 05:40  18 02 08.64    -24 11 20.6   186082 0.9939  82.3 N   12?  89.00 141.2   22 162 122  11
   2024 03 13 05:50  18 02 49.14    -24 22 52.7   186343 0.9939  82.1 N   12?  88.26 141.1   23 164 122  11
   2024 03 13 06:00  18 03 29.44    -24 34 18.2   186611 0.9938  82.0 N   12?  87.54 141.0   23 166 122  12
   2024 03 13 06:10  18 04 09.58    -24 45 37.0   186887 0.9938  81.8 C   12?  86.83 140.9   23 168 122  12
   2024 03 13 06:20  18 04 49.57    -24 56 49.0   187170 0.9938  81.7 C   12?  86.14 140.7   23 171 122  12
   ................
   

Chandra Observatory (JPL-ID: -151)

   Date (UTC) HH:MM   RA              Dec         delta   r     elong SM  mag  '/hr    PA   alt  az moo ill
   ---- -- -- -----  -------------   -----------  ------ ------ ----- --  --- ------ ------ --- --- --- ---
   2024 03 04 01:00  19 34 26.97    +30 41 09.1   129714 0.9912  61.4     14?  74.74  99.4    0  48  68  45
   2024 03 04 01:10  19 35 23.91    +30 39 05.3   129017 0.9912  61.3     14?  74.25  99.4    1  49  68  45
   2024 03 04 01:20  19 36 20.45    +30 37 01.7   128310 0.9912  61.1     14?  73.76  99.5    3  50  68  45
   2024 03 04 01:30  19 37 16.56    +30 34 57.9   127593 0.9912  60.9     14?  73.24  99.6    4  52  68  45
   2024 03 04 01:40  19 38 12.25    +30 32 53.9   126865 0.9912  60.7     14?  72.72  99.7    5  53  68  45
   2024 03 04 01:50  19 39 07.49    +30 30 49.2   126126 0.9912  60.5     14?  72.18  99.8    7  55  68  44
   2024 03 04 02:00  19 40 02.26    +30 28 43.5   125378 0.9912  60.3     14?  71.63 100.0    8  56  68  44
   2024 03 04 02:10  19 40 56.57    +30 26 36.7   124620 0.9912  60.1     14?  71.07 100.1    9  57  68  44
   2024 03 04 02:20  19 41 50.39    +30 24 28.4   123853 0.9912  59.9  m  14?  70.50 100.4   11  59  68  44
   2024 03 04 02:30  19 42 43.72    +30 22 18.2   123076 0.9912  59.8  m  14?  69.93 100.6   12  60  68  44
   2024 03 04 02:40  19 43 36.54    +30 20 05.9   122290 0.9912  59.6  m  14?  69.36 100.9   14  62  68  44
   2024 03 04 02:50  19 44 28.86    +30 17 51.0   121494 0.9912  59.4  m  14?  68.78 101.2   15  63  68  44
   2024 03 04 03:00  19 45 20.65    +30 15 33.3   120690 0.9912  59.2  m  14?  68.21 101.6   17  64  68  44
   2024 03 04 03:10  19 46 11.93    +30 13 12.5   119877 0.9912  59.0  m  14?  67.64 102.0   18  65  68  44
   2024 03 04 03:20  19 47 02.68    +30 10 48.0   119056 0.9912  58.9  m  14?  67.08 102.4   20  67  68  44
   2024 03 04 03:30  19 47 52.91    +30 08 19.6   118227 0.9912  58.7  m  14?  66.53 102.9   22  68  68  44
   2024 03 04 03:40  19 48 42.60    +30 05 46.9   117389 0.9912  58.5  m  14?  66.00 103.4   23  69  68  44
   2024 03 04 03:50  19 49 31.77    +30 03 09.4   116543 0.9912  58.4  m  14?  65.48 104.0   25  71  69  44
   2024 03 04 04:00  19 50 20.42    +30 00 26.7   115690 0.9912  58.2  m  14?  64.99 104.6   26  72  69  44
   2024 03 04 04:10  19 51 08.54    +29 57 38.4   114829 0.9912  58.0  m  14?  64.52 105.2   28  73  69  44
   2024 03 04 04:20  19 51 56.15    +29 54 44.2   113961 0.9913  57.8  m  14?  64.07 105.9   30  74  69  44
   2024 03 04 04:30  19 52 43.25    +29 51 43.4   113085 0.9913  57.7  m  14?  63.67 106.6   31  76  69  44
   2024 03 04 04:40  19 53 29.85    +29 48 35.7   112203 0.9913  57.5  m  14?  63.30 107.4   33  77  69  43
   2024 03 04 04:50  19 54 15.97    +29 45 20.6   111313 0.9913  57.3  m  14?  62.97 108.2   35  78  69  43
   2024 03 04 05:00  19 55 01.62    +29 41 57.6   110417 0.9913  57.2  m  14?  62.69 109.1   36  80  69  43
   2024 03 04 05:10  19 55 46.80    +29 38 26.1   109514 0.9913  57.0  m  14?  62.47 110.0   38  81  69  43
   2024 03 04 05:20  19 56 31.55    +29 34 45.8   108604 0.9913  56.8 Am  14?  62.30 111.0   40  82  69  43
   2024 03 04 05:30  19 57 15.88    +29 30 56.0   107688 0.9913  56.7 Am  14?  62.19 112.0   42  84  69  43
   2024 03 04 05:40  19 57 59.81    +29 26 56.3   106766 0.9913  56.5 Am  14?  62.16 113.0   43  85  69  43
   2024 03 04 05:50  19 58 43.36    +29 22 46.0   105838 0.9913  56.3 Nm  14?  62.20 114.1   45  87  69  43
   2024 03 04 06:00  19 59 26.57    +29 18 24.7   104904 0.9913  56.2 Nm  14?  62.32 115.2   47  88  69  43
   2024 03 04 06:10  20 00 09.46    +29 13 51.6   103963 0.9913  56.0 Nm  14?  62.52 116.3   48  90  69  43
   2024 03 04 06:20  20 00 52.07    +29 09 06.3   103017 0.9913  55.8 Cm  14?  62.82 117.5   50  92  69  43
   2024 03 04 06:30  20 01 34.42    +29 04 08.1   102064 0.9913  55.7 Cm  14?  63.21 118.6   52  93  69  43
   ................
   2024 03 04 20:50  15 27 56.96    +30 26 30.0    48861 0.9920 113.4     12? 437.07  61.0    0  48  69  37
   2024 03 04 21:00  15 32 44.47    +31 00 05.9    50493 0.9920 112.3     12? 407.51  61.7    1  48  69  36
   2024 03 04 21:10  15 37 16.13    +31 30 49.1    52087 0.9920 111.3     12? 381.18  62.3    2  49  69  36
   2024 03 04 21:20  15 41 33.34    +31 59 01.7    53643 0.9920 110.4     12? 357.59  62.9    3  49  69  36
   2024 03 04 21:30  15 45 37.31    +32 25 02.5    55163 0.9920 109.5     12? 336.32  63.4    4  50  69  36
   2024 03 04 21:40  15 49 29.09    +32 49 07.2    56649 0.9920 108.6     12? 317.05  63.8    6  51  69  36
   2024 03 04 21:50  15 53 09.61    +33 11 28.8    58101 0.9920 107.8     12? 299.50  64.3    7  51  69  36
   2024 03 04 22:00  15 56 39.69    +33 32 18.9    59523 0.9920 107.1     12? 283.46  64.7    8  52  69  36
   2024 03 04 22:10  16 00 00.07    +33 51 46.9    60913 0.9920 106.4     12? 268.72  65.0    9  53  69  36
   2024 03 04 22:20  16 03 11.38    +34 10 01.2    62275 0.9920 105.7     12? 255.13  65.3   10  53  69  36
   2024 03 04 22:30  16 06 14.23    +34 27 08.9    63609 0.9920 105.1     12? 242.56  65.6   12  54  69  36
   2024 03 04 22:40  16 09 09.12    +34 43 16.4    64916 0.9920 104.5     12? 230.89  65.8   13  55  69  35
   2024 03 04 22:50  16 11 56.53    +34 58 28.9    66196 0.9920 103.9     12? 220.01  66.1   14  56  69  35
   2024 03 04 23:00  16 14 36.89    +35 12 51.3    67452 0.9920 103.3     12? 209.86  66.3   16  57  69  35
   2024 03 04 23:10  16 17 10.60    +35 26 27.6    68684 0.9920 102.8     13? 200.35  66.5   17  57  69  35
   2024 03 04 23:20  16 19 38.00    +35 39 21.6    69892 0.9920 102.3     13? 191.42  66.7   18  58  69  35
   2024 03 04 23:30  16 21 59.43    +35 51 36.4    71078 0.9920 101.8     13? 183.01  66.8   20  59  69  35
   2024 03 04 23:40  16 24 15.17    +36 03 14.8    72243 0.9920 101.4     13? 175.08  67.0   21  60  69  35
   2024 03 04 23:50  16 26 25.52    +36 14 19.3    73387 0.9920 100.9     13? 167.59  67.1   22  61  69  35
   2024 03 05 00:00  16 28 30.73    +36 24 52.2    74510 0.9920 100.5     13? 160.49  67.2   24  62  69  35
   2024 03 05 00:10  16 30 31.02    +36 34 55.3    75615 0.9920 100.1     13? 153.76  67.3   25  62  69  35
   2024 03 05 00:20  16 32 26.63    +36 44 30.6    76701 0.9920  99.7     13? 147.36  67.4   27  63  69  35
   2024 03 05 00:30  16 34 17.77    +36 53 39.4    77769 0.9920  99.4     13? 141.28  67.5   28  64  69  35
   2024 03 05 00:40  16 36 04.61    +37 02 23.2    78819 0.9920  99.0     13? 135.48  67.7   30  65  69  34
   2024 03 05 00:50  16 37 47.36    +37 10 43.2    79853 0.9920  98.7     13? 129.94  67.8   31  66  69  34
   2024 03 05 01:00  16 39 26.18    +37 18 40.4    80871 0.9920  98.4     13? 124.66  67.9   33  67  69  34
   2024 03 05 01:10  16 41 01.23    +37 26 16.0    81874 0.9920  98.0     13? 119.61  68.0   34  67  69  34
   2024 03 05 01:20  16 42 32.66    +37 33 30.7    82862 0.9920  97.8     13? 114.78  68.1   36  68  69  34
   2024 03 05 01:30  16 44 00.63    +37 40 25.3    83836 0.9920  97.5     13? 110.15  68.3   37  69  69  34
   2024 03 05 01:40  16 45 25.28    +37 47 00.5    84796 0.9920  97.2     13? 105.72  68.4   39  70  69  34
   2024 03 05 01:50  16 46 46.74    +37 53 17.0    85742 0.9920  96.9     13? 101.48  68.6   41  71  70  34
   2024 03 05 02:00  16 48 05.14    +37 59 15.3    86677 0.9920  96.7     13?  97.40  68.8   42  72  70  34
   2024 03 05 02:10  16 49 20.60    +38 04 55.9    87599 0.9920  96.4     13?  93.50  69.0   44  72  70  34
   2024 03 05 02:20  16 50 33.24    +38 10 19.2    88509 0.9920  96.2     13?  89.76  69.3   45  73  70  34
   2024 03 05 02:30  16 51 43.19    +38 15 25.6    89409 0.9920  96.0     13?  86.17  69.6   47  74  70  34
   2024 03 05 02:40  16 52 50.55    +38 20 15.6    90298 0.9920  95.8     13?  82.73  69.9   49  75  70  34
   2024 03 05 02:50  16 53 55.44    +38 24 49.5    91176 0.9920  95.6     13?  79.43  70.3   50  76  70  34
   2024 03 05 03:00  16 54 57.96    +38 29 07.5    92045 0.9920  95.4     13?  76.27  70.7   52  77  70  34
   2024 03 05 03:10  16 55 58.21    +38 33 09.9    92905 0.9920  95.2     13?  73.25  71.1   54  78  70  33
   2024 03 05 03:20  16 56 56.30    +38 36 57.1    93755 0.9920  95.0     13?  70.37  71.7   55  78  70  33
   2024 03 05 03:30  16 57 52.32    +38 40 29.1    94598 0.9920  94.8  m  13?  67.61  72.2   57  79  70  33
   2024 03 05 03:40  16 58 46.38    +38 43 46.3    95432 0.9920  94.7  m  13?  64.98  72.8   59  80  70  33
   2024 03 05 03:50  16 59 38.57    +38 46 48.9    96258 0.9920  94.5  m  13?  62.48  73.5   61  81  70  33
   2024 03 05 04:00  17 00 28.98    +38 49 37.1    97077 0.9920  94.4  m  13?  60.10  74.3   62  82  70  33
   2024 03 05 04:10  17 01 17.71    +38 52 10.9    97890 0.9920  94.2  m  13?  57.85  75.1   64  83  70  33
   2024 03 05 04:20  17 02 04.84    +38 54 30.8    98695 0.9920  94.1  m  13?  55.73  76.0   66  84  70  33
   2024 03 05 04:30  17 02 50.47    +38 56 36.7    99494 0.9920  93.9  m  13?  53.73  77.0   68  85  70  33
   2024 03 05 04:40  17 03 34.68    +38 58 28.9   100287 0.9920  93.8  m  13?  51.85  78.1   69  86  70  33
   2024 03 05 04:50  17 04 17.57    +39 00 07.6   101075 0.9920  93.6  m  13?  50.10  79.3   71  88  70  33
   2024 03 05 05:00  17 04 59.20    +39 01 33.0   101857 0.9920  93.5  m  13?  48.47  80.5   73  89  70  33
   2024 03 05 05:10  17 05 39.68    +39 02 45.2   102634 0.9920  93.4  m  13?  46.97  81.8   75  90  70  33
   2024 03 05 05:20  17 06 19.07    +39 03 44.4   103406 0.9920  93.3 Am  13?  45.59  83.2   76  92  70  33
   2024 03 05 05:30  17 06 57.46    +39 04 30.8   104173 0.9920  93.1 Am  13?  44.34  84.6   78  94  70  33
   2024 03 05 05:40  17 07 34.93    +39 05 04.6   104936 0.9920  93.0 Am  13?  43.21  86.2   80  97  70  33
   2024 03 05 05:50  17 08 11.55    +39 05 26.1   105695 0.9920  92.9 Nm  13?  42.20  87.8   82 100  70  33
   2024 03 05 06:00  17 08 47.40    +39 05 35.3   106450 0.9920  92.8 Nm  13?  41.32  89.4   83 105  70  33
   2024 03 05 06:10  17 09 22.56    +39 05 32.6   107201 0.9920  92.7 Nm  13?  40.57  91.1   85 113  70  32
   2024 03 05 06:20  17 09 57.10    +39 05 18.1   107948 0.9920  92.6 Cm  13?  39.93  92.7   87 129  70  32
   2024 03 05 06:30  17 10 31.09    +39 04 52.0   108692 0.9920  92.5 Cm  13?  39.41  94.4   88 169  70  32
   ................
   2024 03 05 23:20  18 31 17.01    +35 07 04.3   152937 0.9919  76.3     14?  58.28  87.7    0  40  63  25
   2024 03 05 23:30  18 32 04.10    +35 07 27.7   152873 0.9919  76.1     14?  57.36  87.3    1  41  63  25
   2024 03 05 23:40  18 32 50.42    +35 07 53.9   152799 0.9919  76.0     14?  56.42  87.0    2  43  63  25
   2024 03 05 23:50  18 33 35.96    +35 08 22.6   152717 0.9919  75.8     14?  55.45  86.7    3  44  63  25
   2024 03 06 00:00  18 34 20.70    +35 08 53.8   152625 0.9919  75.7     14?  54.47  86.4    4  46  63  25
   2024 03 06 00:10  18 35 04.63    +35 09 27.2   152525 0.9919  75.6     14?  53.47  86.1    6  47  63  25
   2024 03 06 00:20  18 35 47.72    +35 10 02.6   152417 0.9919  75.4     14?  52.45  85.9    7  49  63  25
   2024 03 06 00:30  18 36 29.97    +35 10 39.8   152300 0.9919  75.3     14?  51.42  85.6    8  50  63  24
   2024 03 06 00:40  18 37 11.37    +35 11 18.5   152176 0.9919  75.2     14?  50.37  85.3   10  51  63  24
   2024 03 06 00:50  18 37 51.89    +35 11 58.6   152043 0.9919  75.1     14?  49.30  85.1   11  53  63  24
   2024 03 06 01:00  18 38 31.54    +35 12 39.7   151904 0.9919  74.9     14?  48.23  84.9   13  54  63  24
   2024 03 06 01:10  18 39 10.29    +35 13 21.8   151757 0.9919  74.8     14?  47.13  84.7   14  55  63  24
   2024 03 06 01:20  18 39 48.15    +35 14 04.5   151603 0.9919  74.7     14?  46.03  84.5   16  56  63  24
   2024 03 06 01:30  18 40 25.11    +35 14 47.5   151443 0.9919  74.6     14?  44.92  84.3   17  58  63  24
   2024 03 06 01:40  18 41 01.15    +35 15 30.8   151276 0.9919  74.5     14?  43.80  84.2   19  59  63  24
   2024 03 06 01:50  18 41 36.28    +35 16 13.8   151103 0.9919  74.4     14?  42.67  84.1   20  60  63  24
   2024 03 06 02:00  18 42 10.48    +35 16 56.6   150924 0.9919  74.3     14?  41.54  84.0   22  61  63  24
   2024 03 06 02:10  18 42 43.77    +35 17 38.6   150740 0.9919  74.2     14?  40.40  83.9   23  63  64  24
   2024 03 06 02:20  18 43 16.13    +35 18 19.8   150550 0.9919  74.1     14?  39.26  83.9   25  64  64  24
   2024 03 06 02:30  18 43 47.57    +35 18 59.8   150356 0.9919  74.0     14?  38.12  83.9   27  65  64  24
   2024 03 06 02:40  18 44 18.09    +35 19 38.4   150157 0.9919  73.9     14?  36.98  84.0   28  66  64  24
   2024 03 06 02:50  18 44 47.70    +35 20 15.3   149953 0.9919  73.8     14?  35.85  84.1   30  67  64  23
   2024 03 06 03:00  18 45 16.39    +35 20 50.2   149745 0.9919  73.7     14?  34.72  84.2   32  68  64  23
   2024 03 06 03:10  18 45 44.18    +35 21 22.8   149534 0.9919  73.6     14?  33.59  84.5   33  69  64  23
   2024 03 06 03:20  18 46 11.07    +35 21 52.9   149318 0.9919  73.6     14?  32.48  84.8   35  71  64  23
   2024 03 06 03:30  18 46 37.07    +35 22 20.2   149100 0.9919  73.5     14?  31.37  85.1   37  72  64  23
   2024 03 06 03:40  18 47 02.20    +35 22 44.4   148878 0.9919  73.4     14?  30.29  85.6   38  73  64  23
   2024 03 06 03:50  18 47 26.47    +35 23 05.3   148654 0.9919  73.3     14?  29.22  86.1   40  74  64  23
   2024 03 06 04:00  18 47 49.88    +35 23 22.6   148427 0.9919  73.3     14?  28.16  86.7   42  75  64  23
   2024 03 06 04:10  18 48 12.47    +35 23 35.9   148197 0.9919  73.2     14?  27.14  87.4   44  76  64  23
   2024 03 06 04:20  18 48 34.24    +35 23 45.1   147966 0.9919  73.1  m  14?  26.14  88.3   45  78  64  23
   2024 03 06 04:30  18 48 55.21    +35 23 49.9   147733 0.9919  73.1  m  14?  25.17  89.3   47  79  64  23
   2024 03 06 04:40  18 49 15.41    +35 23 50.0   147498 0.9919  73.0  m  14?  24.24  90.4   49  80  64  23
   2024 03 06 04:50  18 49 34.86    +35 23 45.2   147262 0.9919  72.9  m  14?  23.34  91.7   51  81  64  23
   2024 03 06 05:00  18 49 53.58    +35 23 35.1   147024 0.9919  72.9  m  14?  22.49  93.1   53  82  64  23
   2024 03 06 05:10  18 50 11.60    +35 23 19.7   146786 0.9919  72.8 Am  14?  21.69  94.7   55  84  64  23
   2024 03 06 05:20  18 50 28.94    +35 22 58.5   146547 0.9919  72.8 Am  14?  20.95  96.4   56  85  64  23
   2024 03 06 05:30  18 50 45.63    +35 22 31.5   146308 0.9919  72.7 Am  14?  20.26  98.4   58  87  64  23
   2024 03 06 05:40  18 51 01.71    +35 21 58.3   146068 0.9919  72.7 Am  14?  19.64 100.4   60  88  64  23
   2024 03 06 05:50  18 51 17.21    +35 21 18.8   145828 0.9919  72.6 Nm  14?  19.10 102.7   62  90  64  22
   2024 03 06 06:00  18 51 32.15    +35 20 32.7   145588 0.9919  72.6 Nm  14?  18.63 105.2   64  91  64  22
   2024 03 06 06:10  18 51 46.58    +35 19 39.9   145349 0.9919  72.5 Nm  14?  18.24 107.8   66  93  64  22
   2024 03 06 06:20  18 52 00.52    +35 18 40.1   145110 0.9919  72.5 Cm  14?  17.94 110.4   67  95  64  22
   2024 03 06 06:30  18 52 14.02    +35 17 33.2   144871 0.9919  72.4 Cm  14?  17.73 113.2   69  97  63  22
   ................
   2024 03 07 02:30  20 42 18.75    +22 34 46.1    79254 0.9921  45.7     14? 190.80 115.5    0  59  48  15
   2024 03 07 02:40  20 44 24.20    +22 20 43.2    77896 0.9921  45.2     14? 195.76 115.9    0  60  48  14
   2024 03 07 02:50  20 46 32.27    +22 06 03.5    76518 0.9921  44.6     14? 201.11 116.4    1  61  47  14
   2024 03 07 03:00  20 48 43.14    +21 50 43.9    75121 0.9921  44.1     14? 206.88 116.9    3  63  47  14
   2024 03 07 03:10  20 50 57.04    +21 34 41.1    73704 0.9921  43.5     14? 213.14 117.4    4  64  47  14
   2024 03 07 03:20  20 53 14.20    +21 17 51.3    72267 0.9921  42.9     14? 219.94 117.9    5  66  47  14
   2024 03 07 03:30  20 55 34.88    +21 00 10.4    70809 0.9921  42.3     14? 227.33 118.4    6  67  47  14
   2024 03 07 03:40  20 57 59.40    +20 41 33.9    69330 0.9921  41.7     14? 235.40 119.0    7  69  46  14
   2024 03 07 03:50  21 00 28.06    +20 21 56.6    67830 0.9921  41.0     14? 244.21 119.5    8  70  46  14
   2024 03 07 04:00  21 03 01.26    +20 01 13.0    66309 0.9921  40.3     14? 253.86 120.1    9  71  46  14
   2024 03 07 04:10  21 05 39.41    +19 39 16.6    64765 0.9921  39.6     14? 264.47 120.7   11  73  46  14
   2024 03 07 04:20  21 08 22.98    +19 16 00.2    63199 0.9921  38.9     14? 276.15 121.3   12  74  45  14
   2024 03 07 04:30  21 11 12.51    +18 51 15.8    61610 0.9921  38.1     14? 289.05 121.8   13  76  45  14
   2024 03 07 04:40  21 14 08.61    +18 24 54.2    59998 0.9921  37.3     13? 303.36 122.4   14  77  45  14
   2024 03 07 04:50  21 17 11.97    +17 56 44.8    58361 0.9921  36.4     13? 319.26 123.0   15  79  44  14
   2024 03 07 05:00  21 20 23.39    +17 26 35.5    56699 0.9921  35.5     13? 337.01 123.6   16  80  44  14
   2024 03 07 05:10  21 23 43.80    +16 54 12.5    55012 0.9921  34.5 Am  13? 356.89 124.2   17  82  44  14
   2024 03 07 05:20  21 27 14.26    +16 19 19.5    53299 0.9921  33.5 Am  13? 379.26 124.8   17  83  44  14
   2024 03 07 05:30  21 30 56.01    +15 41 37.7    51559 0.9921  32.4 Am  13? 404.54 125.4   18  85  43  14
   2024 03 07 05:40  21 34 50.52    +15 00 45.0    49791 0.9922  31.3 Nm  13? 433.26 126.0   19  86  43  14
   2024 03 07 05:50  21 38 59.52    +14 16 15.0    47994 0.9922  30.0 Nm  13? 466.08 126.6   20  88  43  14
   2024 03 07 06:00  21 43 25.07    +13 27 36.3    46168 0.9922  28.7 Nm  13? 503.80 127.2   20  89  42  13
   2024 03 07 06:10  21 48 09.67    +12 34 11.3    44311 0.9922  27.2 Nm  13? 547.46 127.8   21  91  42  13
   2024 03 07 06:20  21 53 16.35    +11 35 13.9    42424 0.9922  25.7 Cm  13? 598.37 128.3   21  92  42  13
   2024 03 07 06:30  21 58 48.83    +10 29 48.1    40504 0.9922  23.9 Cm  13? 658.23 128.9   21  94  41  13
   ................
   2024 03 07 21:50  17 18 51.86    +36 39 34.8   114342 0.9927  91.9     13?  97.89  79.2    0  37  79   9
   2024 03 07 22:00  17 20 10.91    +36 42 36.2   114969 0.9927  91.7     13?  95.72  78.9    1  39  79   9
   2024 03 07 22:10  17 21 28.18    +36 45 37.7   115582 0.9927  91.4     13?  93.57  78.6    2  40  79   9
   2024 03 07 22:20  17 22 43.69    +36 48 39.2   116183 0.9927  91.2     13?  91.44  78.4    3  42  78   9
   2024 03 07 22:30  17 23 57.44    +36 51 40.6   116772 0.9927  90.9     13?  89.32  78.1    4  43  78   8
   2024 03 07 22:40  17 25 09.44    +36 54 41.8   117348 0.9927  90.7     13?  87.22  77.8    5  44  78   8
   2024 03 07 22:50  17 26 19.72    +36 57 42.5   117913 0.9927  90.5     13?  85.13  77.6    6  45  78   8
   2024 03 07 23:00  17 27 28.27    +37 00 42.8   118466 0.9927  90.3     13?  83.06  77.3    8  47  78   8
   2024 03 07 23:10  17 28 35.12    +37 03 42.4   119008 0.9927  90.0     13?  81.01  77.1    9  48  78   8
   2024 03 07 23:20  17 29 40.27    +37 06 41.2   119538 0.9927  89.8     13?  78.96  76.8   10  49  78   8
   2024 03 07 23:30  17 30 43.74    +37 09 38.9   120059 0.9927  89.6     13?  76.94  76.5   12  50  78   8
   2024 03 07 23:40  17 31 45.54    +37 12 35.5   120568 0.9927  89.4     13?  74.93  76.3   13  52  78   8
   2024 03 07 23:50  17 32 45.68    +37 15 30.8   121068 0.9927  89.3     13?  72.94  76.0   14  53  78   8
   2024 03 08 00:00  17 33 44.18    +37 18 24.4   121558 0.9927  89.1     13?  70.96  75.7   16  54  78   8
   2024 03 08 00:10  17 34 41.05    +37 21 16.3   122038 0.9927  88.9     13?  68.99  75.5   17  55  78   8
   2024 03 08 00:20  17 35 36.30    +37 24 06.2   122510 0.9926  88.7     13?  67.05  75.2   19  56  78   8
   2024 03 08 00:30  17 36 29.96    +37 26 53.9   122972 0.9926  88.6     13?  65.12  75.0   20  57  77   8
   2024 03 08 00:40  17 37 22.04    +37 29 39.3   123426 0.9926  88.4     13?  63.21  74.8   22  58  77   8
   2024 03 08 00:50  17 38 12.56    +37 32 21.9   123872 0.9926  88.2     13?  61.32  74.6   23  60  77   8
   2024 03 08 01:00  17 39 01.53    +37 35 01.8   124310 0.9926  88.1     13?  59.45  74.4   25  61  77   8
   2024 03 08 01:10  17 39 48.97    +37 37 38.5   124740 0.9926  87.9     13?  57.60  74.2   26  62  77   8
   2024 03 08 01:20  17 40 34.91    +37 40 11.9   125163 0.9926  87.8     13?  55.76  74.1   28  63  77   8
   2024 03 08 01:30  17 41 19.37    +37 42 41.7   125580 0.9926  87.7     13?  53.95  73.9   30  64  77   7
   2024 03 08 01:40  17 42 02.37    +37 45 07.7   125989 0.9926  87.5     13?  52.17  73.8   31  65  77   7
   2024 03 08 01:50  17 42 43.94    +37 47 29.7   126392 0.9926  87.4     13?  50.41  73.7   33  66  77   7
   2024 03 08 02:00  17 43 24.09    +37 49 47.3   126790 0.9926  87.3     13?  48.67  73.7   34  67  77   7
   2024 03 08 02:10  17 44 02.86    +37 52 00.5   127181 0.9926  87.2     13?  46.96  73.7   36  68  77   7
   2024 03 08 02:20  17 44 40.27    +37 54 08.9   127567 0.9926  87.1     13?  45.28  73.7   38  69  77   7
   2024 03 08 02:30  17 45 16.35    +37 56 12.3   127948 0.9926  86.9     13?  43.62  73.8   39  70  77   7
   2024 03 08 02:40  17 45 51.14    +37 58 10.4   128325 0.9926  86.8     13?  42.00  73.9   41  71  77   7
   2024 03 08 02:50  17 46 24.66    +38 00 03.1   128697 0.9926  86.7     13?  40.41  74.1   43  72  77   7
   2024 03 08 03:00  17 46 56.95    +38 01 50.0   129064 0.9926  86.6     13?  38.85  74.3   45  73  77   7
   2024 03 08 03:10  17 47 28.04    +38 03 31.1   129428 0.9926  86.5     13?  37.34  74.6   46  74  77   7
   2024 03 08 03:20  17 47 57.97    +38 05 05.9   129788 0.9926  86.5     13?  35.85  75.0   48  75  77   7
   2024 03 08 03:30  17 48 26.77    +38 06 34.5   130145 0.9926  86.4     13?  34.42  75.5   50  76  77   7
   2024 03 08 03:40  17 48 54.48    +38 07 56.5   130499 0.9926  86.3     14?  33.02  76.1   52  77  77   7
   2024 03 08 03:50  17 49 21.14    +38 09 11.7   130850 0.9926  86.2     14?  31.67  76.7   53  78  77   7
   2024 03 08 04:00  17 49 46.80    +38 10 20.0   131198 0.9926  86.1     14?  30.37  77.5   55  79  77   7
   2024 03 08 04:10  17 50 11.48    +38 11 21.1   131544 0.9926  86.1     14?  29.12  78.4   57  80  77   7
   2024 03 08 04:20  17 50 35.24    +38 12 14.9   131888 0.9926  86.0     14?  27.93  79.5   59  81  77   7
   2024 03 08 04:30  17 50 58.11    +38 13 01.3   132230 0.9926  85.9     14?  26.80  80.7   61  82  77   7
   2024 03 08 04:40  17 51 20.15    +38 13 40.0   132570 0.9926  85.9     14?  25.73  82.0   62  83  77   7
   2024 03 08 04:50  17 51 41.39    +38 14 11.0   132909 0.9926  85.8     14?  24.73  83.5   64  85  77   7
   2024 03 08 05:00  17 52 01.89    +38 14 34.1   133247 0.9926  85.7     14?  23.80  85.2   66  86  77   6
   2024 03 08 05:10  17 52 21.68    +38 14 49.2   133584 0.9926  85.7 A   14?  22.95  87.1   68  87  77   6
   2024 03 08 05:20  17 52 40.83    +38 14 56.2   133920 0.9926  85.6 A   14?  22.19  89.1   70  89  77   6
   2024 03 08 05:30  17 52 59.37    +38 14 55.0   134255 0.9926  85.6 A   14?  21.51  91.3   72  90  77   6
   2024 03 08 05:40  17 53 17.35    +38 14 45.4   134590 0.9926  85.5 N   14?  20.92  93.6   73  92  77   6
   2024 03 08 05:50  17 53 34.83    +38 14 27.6   134924 0.9926  85.4 Nm  14?  20.43  96.0   75  94  77   6
   2024 03 08 06:00  17 53 51.85    +38 14 01.3   135259 0.9926  85.4 Nm  14?  20.04  98.6   77  97  77   6
   2024 03 08 06:10  17 54 08.47    +38 13 26.7   135593 0.9926  85.3 Cm  14?  19.74 101.1   79 100  77   6
   2024 03 08 06:20  17 54 24.72    +38 12 43.5   135927 0.9926  85.3 Cm  14?  19.55 103.8   81 104  77   6
   2024 03 08 06:30  17 54 40.67    +38 11 51.9   136261 0.9926  85.2 Cm  14?  19.46 106.5   82 109  77   6
   ................
   2024 03 08 23:50  19 02 21.50    +33 15 46.3   148403 0.9926  71.1     14?  60.38  92.9    0  43  66   3
   2024 03 09 00:00  19 03 09.27    +33 15 14.9   148029 0.9926  70.9     14?  59.62  92.7    1  44  66   3
   2024 03 09 00:10  19 03 56.43    +33 14 45.8   147645 0.9926  70.8     14?  58.83  92.6    2  46  66   3
   2024 03 09 00:20  19 04 42.95    +33 14 18.7   147253 0.9926  70.6     14?  58.02  92.4    3  47  66   2
   2024 03 09 00:30  19 05 28.83    +33 13 53.5   146851 0.9926  70.5     14?  57.19  92.3    4  49  66   2
   2024 03 09 00:40  19 06 14.03    +33 13 29.9   146440 0.9926  70.3     14?  56.34  92.2    6  50  66   2
   2024 03 09 00:50  19 06 58.55    +33 13 07.7   146021 0.9926  70.2     14?  55.47  92.1    7  52  66   2
   2024 03 09 01:00  19 07 42.37    +33 12 46.8   145593 0.9926  70.0     14?  54.58  92.0    9  53  65   2
   2024 03 09 01:10  19 08 25.47    +33 12 26.8   145157 0.9926  69.9     14?  53.68  91.9   10  54  65   2
   2024 03 09 01:20  19 09 07.84    +33 12 07.5   144713 0.9926  69.8     14?  52.75  91.9   11  56  65   2
   2024 03 09 01:30  19 09 49.47    +33 11 48.7   144261 0.9926  69.6     14?  51.82  91.9   13  57  65   2
   2024 03 09 01:40  19 10 30.35    +33 11 30.2   143802 0.9926  69.5     14?  50.87  91.9   14  58  65   2
   2024 03 09 01:50  19 11 10.47    +33 11 11.6   143336 0.9926  69.4     14?  49.91  92.0   16  60  65   2
   2024 03 09 02:00  19 11 49.81    +33 10 52.8   142863 0.9926  69.2     14?  48.94  92.1   17  61  65   2
   2024 03 09 02:10  19 12 28.37    +33 10 33.5   142383 0.9926  69.1     14?  47.96  92.2   19  62  65   2
   2024 03 09 02:20  19 13 06.15    +33 10 13.4   141897 0.9926  69.0     14?  46.98  92.4   21  63  65   2
   2024 03 09 02:30  19 13 43.13    +33 09 52.1   141405 0.9926  68.9     14?  45.99  92.6   22  65  65   2
   2024 03 09 02:40  19 14 19.32    +33 09 29.6   140906 0.9926  68.7     14?  45.00  92.8   24  66  65   2
   2024 03 09 02:50  19 14 54.70    +33 09 05.4   140402 0.9926  68.6     14?  44.01  93.1   25  67  65   2
   2024 03 09 03:00  19 15 29.29    +33 08 39.2   139893 0.9926  68.5     14?  43.02  93.5   27  68  65   2
   2024 03 09 03:10  19 16 03.07    +33 08 10.8   139378 0.9926  68.4     14?  42.04  93.9   29  69  65   2
   2024 03 09 03:20  19 16 36.06    +33 07 39.9   138858 0.9926  68.3     14?  41.06  94.3   30  71  65   2
   2024 03 09 03:30  19 17 08.25    +33 07 06.2   138334 0.9926  68.2     14?  40.10  94.9   32  72  65   2
   2024 03 09 03:40  19 17 39.65    +33 06 29.4   137805 0.9926  68.1     14?  39.15  95.5   34  73  65   2
   2024 03 09 03:50  19 18 10.26    +33 05 49.1   137273 0.9926  68.0     14?  38.21  96.2   36  74  65   2
   2024 03 09 04:00  19 18 40.10    +33 05 05.1   136736 0.9926  67.9     14?  37.30  96.9   37  75  65   2
   2024 03 09 04:10  19 19 09.17    +33 04 17.1   136195 0.9926  67.8     14?  36.41  97.8   39  77  65   2
   2024 03 09 04:20  19 19 37.49    +33 03 24.7   135651 0.9926  67.7     14?  35.55  98.7   41  78  64   2
   2024 03 09 04:30  19 20 05.07    +33 02 27.6   135104 0.9926  67.6     14?  34.73  99.7   43  79  64   2
   2024 03 09 04:40  19 20 31.91    +33 01 25.5   134554 0.9926  67.5     14?  33.94 100.8   44  81  64   2
   2024 03 09 04:50  19 20 58.05    +33 00 18.1   134000 0.9926  67.4     14?  33.19 102.0   46  82  64   2
   2024 03 09 05:00  19 21 23.50    +32 59 05.2   133445 0.9926  67.3     14?  32.49 103.3   48  83  64   2
   2024 03 09 05:10  19 21 48.27    +32 57 46.3   132886 0.9926  67.3 A   14?  31.84 104.7   50  85  64   2
   2024 03 09 05:20  19 22 12.40    +32 56 21.2   132326 0.9926  67.2 A   14?  31.24 106.2   52  86  64   2
   2024 03 09 05:30  19 22 35.90    +32 54 49.6   131763 0.9926  67.1 A   14?  30.71 107.8   53  88  64   2
   2024 03 09 05:40  19 22 58.79    +32 53 11.2   131199 0.9926  67.0 N   14?  30.25 109.5   55  89  64   2
   2024 03 09 05:50  19 23 21.12    +32 51 25.6   130633 0.9926  66.9 N   14?  29.85 111.3   57  91  64   2
   2024 03 09 06:00  19 23 42.90    +32 49 32.6   130065 0.9926  66.9 N   14?  29.53 113.1   59  93  64   1
   2024 03 09 06:10  19 24 04.16    +32 47 31.9   129496 0.9926  66.8 C   14?  29.29 115.0   61  94  64   1
   2024 03 09 06:20  19 24 24.95    +32 45 23.2   128926 0.9926  66.7 Cm  14?  29.13 116.9   62  96  64   1
   ................
   2024 03 10 01:00  10 30 58.81    -23 44 34.1     9176 0.9933 149.5  r  10? 9697.1  44.1   22 201 146   0
   2024 03 10 01:10  11 35 10.11    -06 52 29.7    10655 0.9933 168.5     11? 6780.6  41.7   41 190 163   0
   2024 03 10 01:20  12 16 56.59    +04 40 17.3    12760 0.9933 166.2     11? 4580.6  42.9   53 180 162   0
   2024 03 10 01:30  12 46 52.89    +12 21 44.0    15098 0.9933 157.4  t  11? 3214.1  45.1   61 170 156   0
   2024 03 10 01:40  13 09 48.14    +17 40 02.2    17493 0.9933 150.3     11? 2369.3  47.4   65 160 149   0
   2024 03 10 01:50  13 28 10.02    +21 29 27.0    19870 0.9933 144.7     11? 1824.2  49.6   68 153 144   0
   2024 03 10 02:00  13 43 22.10    +24 21 23.8    22198 0.9933 140.4     11? 1454.9  51.7   70 146 140   0
   2024 03 10 02:10  13 56 15.59    +26 34 30.1    24465 0.9933 136.8     11? 1193.5  53.6   72 141 137   0
   2024 03 10 02:20  14 07 23.89    +28 20 16.8    26668 0.9933 133.8     11? 1001.2  55.3   73 137 134   0
   2024 03 10 02:30  14 17 09.91    +29 46 09.1    28809 0.9933 131.3     12? 855.40  56.9   74 134 132   0
   2024 03 10 02:40  14 25 49.97    +30 57 05.3    30890 0.9933 129.1     12? 741.84  58.4   76 132 130   0
   2024 03 10 02:50  14 33 36.10    +31 56 32.1    32913 0.9933 127.2     12? 651.43  59.7   77 130 128   0
   2024 03 10 03:00  14 40 37.39    +32 46 57.0    34882 0.9934 125.5     12? 578.08  61.0   78 130 126   0
   2024 03 10 03:10  14 47 00.89    +33 30 07.9    36802 0.9934 124.0     12? 517.63  62.2   79 130 125   0
   2024 03 10 03:20  14 52 52.15    +34 07 25.5    38674 0.9934 122.7     12? 467.11  63.4   80 131 124   0
   2024 03 10 03:30  14 58 15.63    +34 39 51.4    40502 0.9934 121.4     12? 424.39  64.5   81 134 122   0
   2024 03 10 03:40  15 03 14.97    +35 08 13.4    42289 0.9934 120.3     12? 387.90  65.6   82 137 121   0
   2024 03 10 03:50  15 07 53.15    +35 33 09.2    44037 0.9934 119.3     12? 356.44  66.7   83 142 120   0
   2024 03 10 04:00  15 12 12.70    +35 55 08.8    45749 0.9934 118.4     12? 329.11  67.7   84 150 120   0
   2024 03 10 04:10  15 16 15.71    +36 14 36.7    47427 0.9934 117.5     12? 305.20  68.8   84 160 119   0
   2024 03 10 04:20  15 20 03.98    +36 31 52.6    49072 0.9934 116.7     12? 284.17  69.8   85 174 118   0
   2024 03 10 04:30  15 23 39.04    +36 47 13.0    50688 0.9934 115.9  t  12? 265.56  70.8   85 192 117   0
   2024 03 10 04:40  15 27 02.25    +37 00 51.7    52275 0.9934 115.2     12? 249.02  71.8   85 209 117   0
   2024 03 10 04:50  15 30 14.74    +37 13 00.1    53834 0.9934 114.5     12? 234.26  72.8   84 224 116   0
   2024 03 10 05:00  15 33 17.55    +37 23 48.1    55368 0.9934 113.9     12? 221.04  73.8   83 235 116   0
   2024 03 10 05:10  15 36 11.57    +37 33 24.0    56878 0.9934 113.3 A   12? 209.18  74.8   82 243 115   0
   2024 03 10 05:20  15 38 57.58    +37 41 54.9    58365 0.9934 112.8 A   13? 198.49  75.8   81 249 114   0
   2024 03 10 05:30  15 41 36.31    +37 49 27.1    59830 0.9934 112.2 A   13? 188.84  76.9   80 254 114   0
   2024 03 10 05:40  15 44 08.37    +37 56 06.1    61274 0.9934 111.7 N   13? 180.12  77.9   79 258 114   0
   2024 03 10 05:50  15 46 34.34    +38 01 56.5    62698 0.9934 111.2 N   13? 172.22  78.9   77 261 113   0
   2024 03 10 06:00  15 48 54.73    +38 07 02.5    64103 0.9934 110.8 N   13? 165.05  79.9   76 263 113   0
   2024 03 10 06:10  15 51 10.01    +38 11 27.9    65490 0.9934 110.3 C   13? 158.55  80.9   74 265 112   0
   2024 03 10 06:20  15 53 20.58    +38 15 15.9    66859 0.9934 109.9 C   13? 152.65  81.9   73 267 112   0
   ................
   2024 03 10 22:20  18 01 55.09    +36 12 42.7   143317 0.9933  84.8     14?  66.51  84.4    0  38  90   0
   2024 03 10 22:30  18 02 49.31    +36 13 47.0   143535 0.9933  84.6     14?  65.35  84.1    0  39  90   0
   2024 03 10 22:40  18 03 42.56    +36 14 54.0   143742 0.9933  84.4     14?  64.18  83.7    1  40  89   0
   2024 03 10 22:50  18 04 34.81    +36 16 03.7   143939 0.9933  84.3     14?  62.99  83.4    2  42  89   0
   2024 03 10 23:00  18 05 26.06    +36 17 15.7   144126 0.9933  84.1     14?  61.78  83.0    4  43  89   0
   2024 03 10 23:10  18 06 16.29    +36 18 30.1   144304 0.9933  83.9     14?  60.57  82.7    5  45  89   0
   2024 03 10 23:20  18 07 05.48    +36 19 46.4   144473 0.9933  83.8     14?  59.33  82.3    6  46  89   0
   2024 03 10 23:30  18 07 53.64    +36 21 04.5   144633 0.9933  83.6     14?  58.09  82.0    7  47  89   0
   2024 03 10 23:40  18 08 40.75    +36 22 24.2   144784 0.9933  83.5     14?  56.83  81.7    9  49  89   0
   2024 03 10 23:50  18 09 26.81    +36 23 45.3   144927 0.9933  83.3     14?  55.57  81.4   10  50  89   0
   2024 03 11 00:00  18 10 11.79    +36 25 07.5   145061 0.9933  83.2     14?  54.29  81.1   12  51  89   0
   2024 03 11 00:10  18 10 55.71    +36 26 30.6   145187 0.9933  83.1     14?  53.01  80.8   13  53  89   0
   2024 03 11 00:20  18 11 38.55    +36 27 54.4   145306 0.9933  82.9     14?  51.71  80.5   14  54  89   0
   2024 03 11 00:30  18 12 20.31    +36 29 18.6   145418 0.9933  82.8     14?  50.42  80.2   16  55  88   0
   2024 03 11 00:40  18 13 00.98    +36 30 42.9   145522 0.9933  82.7     14?  49.11  79.9   17  56  88   0
   2024 03 11 00:50  18 13 40.57    +36 32 07.1   145619 0.9933  82.6     14?  47.81  79.7   19  57  88   0
   2024 03 11 01:00  18 14 19.07    +36 33 31.1   145710 0.9933  82.4     14?  46.50  79.5   20  59  88   0
   2024 03 11 01:10  18 14 56.49    +36 34 54.4   145795 0.9933  82.3     14?  45.18  79.3   22  60  88   0
   2024 03 11 01:20  18 15 32.83    +36 36 16.8   145873 0.9933  82.2     14?  43.87  79.1   23  61  88   0
   2024 03 11 01:30  18 16 08.08    +36 37 38.1   145946 0.9933  82.1     14?  42.56  78.9   25  62  88   0
   2024 03 11 01:40  18 16 42.26    +36 38 58.0   146014 0.9933  82.0     14?  41.26  78.8   27  63  88   0
   2024 03 11 01:50  18 17 15.37    +36 40 16.3   146076 0.9933  81.9     14?  39.95  78.7   28  64  88   0
   2024 03 11 02:00  18 17 47.43    +36 41 32.6   146134 0.9933  81.8     14?  38.66  78.6   30  65  88   0
   2024 03 11 02:10  18 18 18.43    +36 42 46.8   146187 0.9933  81.7     14?  37.37  78.6   32  67  88   0
   2024 03 11 02:20  18 18 48.39    +36 43 58.4   146236 0.9933  81.6     14?  36.09  78.6   33  68  88   0
   2024 03 11 02:30  18 19 17.32    +36 45 07.3   146281 0.9933  81.5     14?  34.82  78.7   35  69  88   0
   2024 03 11 02:40  18 19 45.24    +36 46 13.2   146322 0.9933  81.4     14?  33.57  78.8   37  70  88   0
   2024 03 11 02:50  18 20 12.16    +36 47 15.9   146359 0.9933  81.4     14?  32.32  79.0   38  71  88   0
   2024 03 11 03:00  18 20 38.10    +36 48 15.0   146394 0.9933  81.3     14?  31.10  79.2   40  72  88   0
   2024 03 11 03:10  18 21 03.07    +36 49 10.3   146425 0.9933  81.2     14?  29.90  79.6   42  73  88   0
   2024 03 11 03:20  18 21 27.11    +36 50 01.5   146455 0.9933  81.1     14?  28.72  80.0   44  74  88   0
   2024 03 11 03:30  18 21 50.22    +36 50 48.4   146481 0.9933  81.1     14?  27.56  80.5   45  75  88   0
   2024 03 11 03:40  18 22 12.43    +36 51 30.7   146506 0.9933  81.0     14?  26.43  81.1   47  76  88   0
   2024 03 11 03:50  18 22 33.77    +36 52 08.3   146529 0.9933  80.9     14?  25.34  81.9   49  77  88   1
   2024 03 11 04:00  18 22 54.26    +36 52 40.7   146550 0.9933  80.9     14?  24.27  82.8   51  79  88   1
   2024 03 11 04:10  18 23 13.93    +36 53 07.9   146570 0.9933  80.8     14?  23.25  83.8   53  80  88   1
   2024 03 11 04:20  18 23 32.81    +36 53 29.6   146588 0.9933  80.8     14?  22.27  85.0   54  81  88   1
   2024 03 11 04:30  18 23 50.93    +36 53 45.5   146606 0.9933  80.7     14?  21.33  86.3   56  82  88   1
   2024 03 11 04:40  18 24 08.32    +36 53 55.5   146623 0.9933  80.6     14?  20.45  87.9   58  83  88   1
   2024 03 11 04:50  18 24 25.01    +36 53 59.4   146640 0.9933  80.6     14?  19.62  89.6   60  85  88   1
   2024 03 11 05:00  18 24 41.05    +36 53 56.9   146656 0.9933  80.5     14?  18.86  91.6   62  86  88   1
   2024 03 11 05:10  18 24 56.46    +36 53 47.9   146673 0.9933  80.5 A   14?  18.17  93.7   64  87  88   1
   2024 03 11 05:20  18 25 11.28    +36 53 32.1   146689 0.9933  80.4 A   14?  17.55  96.1   65  89  88   1
   2024 03 11 05:30  18 25 25.55    +36 53 09.5   146706 0.9933  80.4 A   14?  17.01  98.7   67  91  88   1
   2024 03 11 05:40  18 25 39.31    +36 52 39.9   146723 0.9933  80.4 N   14?  16.55 101.3   69  92  88   1
   2024 03 11 05:50  18 25 52.59    +36 52 03.2   146740 0.9933  80.3 N   14?  16.19 104.2   71  94  88   1
   2024 03 11 06:00  18 26 05.45    +36 51 19.1   146759 0.9933  80.3 N   14?  15.92 107.2   73  97  88   1
   2024 03 11 06:10  18 26 17.92    +36 50 27.7   146778 0.9933  80.2 C   14?  15.75 110.3   75  99  88   1
   2024 03 11 06:20  18 26 30.04    +36 49 28.8   146798 0.9933  80.2 C   14?  15.67 113.4   76 102  88   1
   ................
   2024 03 12 00:30  19 39 27.39    +30 03 12.4   125678 0.9934  64.1  r  14?  80.05 101.1    0  47  77   3
   2024 03 12 00:40  19 40 27.70    +30 00 35.9   124929 0.9934  63.9     14?  79.69 101.1    0  49  77   3
   2024 03 12 00:50  19 41 27.70    +29 57 59.0   124168 0.9934  63.7     14?  79.32 101.2    2  50  77   4
   2024 03 12 01:00  19 42 27.36    +29 55 21.3   123397 0.9934  63.4     14?  78.94 101.4    3  52  77   4
   2024 03 12 01:10  19 43 26.68    +29 52 42.6   122615 0.9934  63.2     14?  78.55 101.5    4  53  77   4
   2024 03 12 01:20  19 44 25.64    +29 50 02.6   121822 0.9934  63.0     14?  78.15 101.7    6  55  76   4
   2024 03 12 01:30  19 45 24.23    +29 47 20.9   121018 0.9934  62.8     14?  77.74 101.9    7  56  76   4
   2024 03 12 01:40  19 46 22.44    +29 44 37.3   120204 0.9934  62.6     14?  77.33 102.1    8  57  76   4
   2024 03 12 01:50  19 47 20.25    +29 41 51.3   119380 0.9934  62.4     14?  76.92 102.4   10  59  76   4
   2024 03 12 02:00  19 48 17.67    +29 39 02.7   118545 0.9934  62.2     14?  76.50 102.7   11  60  76   4
   2024 03 12 02:10  19 49 14.69    +29 36 11.1   117701 0.9934  62.0     14?  76.09 103.0   13  61  76   4
   2024 03 12 02:20  19 50 11.29    +29 33 16.1   116847 0.9934  61.8     14?  75.68 103.3   14  63  76   4
   2024 03 12 02:30  19 51 07.47    +29 30 17.3   115984 0.9934  61.6     14?  75.28 103.7   16  64  76   4
   2024 03 12 02:40  19 52 03.24    +29 27 14.3   115111 0.9934  61.4     14?  74.89 104.1   17  65  75   4
   2024 03 12 02:50  19 52 58.59    +29 24 06.7   114228 0.9934  61.2     14?  74.51 104.6   19  67  75   4
   2024 03 12 03:00  19 53 53.51    +29 20 54.1   113337 0.9934  61.0     14?  74.16 105.1   20  68  75   4
   2024 03 12 03:10  19 54 48.02    +29 17 36.0   112437 0.9934  60.8     14?  73.82 105.6   22  69  75   4
   2024 03 12 03:20  19 55 42.11    +29 14 12.0   111528 0.9934  60.6     14?  73.51 106.2   23  71  75   4
   2024 03 12 03:30  19 56 35.79    +29 10 41.6   110611 0.9934  60.4     14?  73.23 106.8   25  72  75   4
   2024 03 12 03:40  19 57 29.07    +29 07 04.3   109685 0.9934  60.2     14?  72.98 107.4   27  73  75   4
   2024 03 12 03:50  19 58 21.95    +29 03 19.7   108751 0.9934  60.0     14?  72.77 108.1   28  75  75   4
   2024 03 12 04:00  19 59 14.45    +28 59 27.1   107808 0.9934  59.8     14?  72.60 108.8   30  76  75   4
   2024 03 12 04:10  20 00 06.57    +28 55 26.0   106858 0.9934  59.6     14?  72.48 109.6   32  77  74   4
   2024 03 12 04:20  20 00 58.34    +28 51 16.0   105900 0.9934  59.4     14?  72.41 110.4   33  79  74   4
   2024 03 12 04:30  20 01 49.77    +28 46 56.3   104933 0.9934  59.2     14?  72.40 111.3   35  80  74   4
   2024 03 12 04:40  20 02 40.87    +28 42 26.5   103960 0.9934  59.0     14?  72.46 112.1   37  81  74   5
   2024 03 12 04:50  20 03 31.68    +28 37 45.9   102978 0.9934  58.8     14?  72.59 113.0   38  83  74   5
   2024 03 12 05:00  20 04 22.21    +28 32 53.8   101989 0.9934  58.6 A   14?  72.79 114.0   40  84  74   5
   2024 03 12 05:10  20 05 12.50    +28 27 49.7   100993 0.9934  58.4 A   14?  73.08 115.0   42  86  74   5
   2024 03 12 05:20  20 06 02.56    +28 22 32.8    99989 0.9934  58.2 A   14?  73.45 115.9   43  87  74   5
   2024 03 12 05:30  20 06 52.44    +28 17 02.5    98978 0.9934  58.0 A   14?  73.92 117.0   45  89  74   5
   2024 03 12 05:40  20 07 42.17    +28 11 17.9    97960 0.9934  57.8 N   14?  74.50 118.0   47  90  73   5
   2024 03 12 05:50  20 08 31.79    +28 05 18.5    96935 0.9934  57.6 N   14?  75.18 119.1   48  92  73   5
   2024 03 12 06:00  20 09 21.33    +27 59 03.2    95902 0.9934  57.4 N   14?  75.98 120.1   50  94  73   5
   2024 03 12 06:10  20 10 10.84    +27 52 31.5    94863 0.9934  57.2 C   14?  76.90 121.2   52  96  73   5
   2024 03 12 06:20  20 11 00.38    +27 45 42.4    93816 0.9934  57.0 C   14?  77.95 122.3   53  98  73   5
   ................
   2024 03 12 20:30  15 55 35.76    +33 18 39.2    61935 0.9941 111.7  m  13? 286.71  66.7    0  43 124   8
   2024 03 12 20:40  15 59 01.42    +33 36 53.9    63307 0.9941 110.9  m  13? 272.81  67.0    1  44 124   8
   2024 03 12 20:50  16 02 18.37    +33 54 02.8    64650 0.9941 110.2  m  13? 259.95  67.3    2  45 123   8
   2024 03 12 21:00  16 05 27.16    +34 10 12.3    65966 0.9941 109.5  m  13? 248.01  67.5    3  46 122   8
   2024 03 12 21:10  16 08 28.27    +34 25 27.8    67255 0.9941 108.9  m  13? 236.89  67.8    4  47 122   8
   2024 03 12 21:20  16 11 22.15    +34 39 54.3    68519 0.9941 108.2     13? 226.51  68.0    5  48 121   8
   2024 03 12 21:30  16 14 09.18    +34 53 36.1    69758 0.9941 107.6     13? 216.78  68.2    7  49 121   8
   2024 03 12 21:40  16 16 49.73    +35 06 36.9    70972 0.9941 107.1     13? 207.64  68.3    8  50 120   8
   2024 03 12 21:50  16 19 24.13    +35 18 59.9    72164 0.9941 106.5     13? 199.03  68.5    9  51 120   8
   2024 03 12 22:00  16 21 52.69    +35 30 48.2    73333 0.9941 106.0     13? 190.91  68.6   10  51 119   8
   2024 03 12 22:10  16 24 15.68    +35 42 04.3    74479 0.9941 105.5     13? 183.22  68.7   12  52 119   9
   2024 03 12 22:20  16 26 33.36    +35 52 50.4    75605 0.9941 105.0     13? 175.94  68.8   13  53 118   9
   2024 03 12 22:30  16 28 45.96    +36 03 08.7    76710 0.9941 104.5     13? 169.02  68.9   14  54 118   9
   2024 03 12 22:40  16 30 53.70    +36 13 01.0    77796 0.9941 104.1     13? 162.44  68.9   15  55 118   9
   2024 03 12 22:50  16 32 56.80    +36 22 28.7    78862 0.9941 103.7     13? 156.16  69.0   17  56 117   9
   2024 03 12 23:00  16 34 55.43    +36 31 33.4    79909 0.9941 103.3     13? 150.18  69.0   18  57 117   9
   2024 03 12 23:10  16 36 49.77    +36 40 16.4    80939 0.9941 102.9     13? 144.45  69.1   20  58 116   9
   2024 03 12 23:20  16 38 39.99    +36 48 38.6    81951 0.9941 102.5     13? 138.97  69.1   21  59 116   9
   2024 03 12 23:30  16 40 26.25    +36 56 41.3    82947 0.9941 102.1     13? 133.72  69.1   22  60 116   9
   2024 03 12 23:40  16 42 08.69    +37 04 25.1    83926 0.9941 101.8     13? 128.68  69.1   24  61 115   9
   2024 03 12 23:50  16 43 47.45    +37 11 51.0    84890 0.9941 101.5     13? 123.83  69.2   25  62 115   9
   2024 03 13 00:00  16 45 22.67    +37 18 59.6    85838 0.9941 101.1     13? 119.18  69.2   27  62 115   9
   2024 03 13 00:10  16 46 54.47    +37 25 51.5    86772 0.9941 100.8     13? 114.70  69.2   28  63 115   9
   2024 03 13 00:20  16 48 22.97    +37 32 27.4    87691 0.9941 100.5     13? 110.39  69.3   30  64 114   9
   2024 03 13 00:30  16 49 48.28    +37 38 47.6    88598 0.9941 100.2     13? 106.23  69.3   31  65 114   9
   2024 03 13 00:40  16 51 10.53    +37 44 52.6    89491 0.9941 100.0     13? 102.22  69.4   33  66 114   9
   2024 03 13 00:50  16 52 29.80    +37 50 42.8    90371 0.9941  99.7     13?  98.36  69.4   34  67 114   9
   2024 03 13 01:00  16 53 46.22    +37 56 18.5    91239 0.9941  99.5     13?  94.63  69.5   36  68 113  10
   2024 03 13 01:10  16 54 59.87    +38 01 40.0    92096 0.9941  99.2     13?  91.04  69.6   38  69 113  10
   2024 03 13 01:20  16 56 10.86    +38 06 47.6    92941 0.9941  99.0     13?  87.57  69.8   39  70 113  10
   2024 03 13 01:30  16 57 19.27    +38 11 41.4    93776 0.9941  98.8     13?  84.22  69.9   41  70 113  10
   2024 03 13 01:40  16 58 25.21    +38 16 21.7    94600 0.9941  98.5     13?  80.98  70.1   42  71 113  10
   2024 03 13 01:50  16 59 28.76    +38 20 48.7    95415 0.9941  98.3     13?  77.87  70.3   44  72 113  10
   2024 03 13 02:00  17 00 30.00    +38 25 02.4    96220 0.9941  98.1     13?  74.86  70.6   46  73 112  10
   2024 03 13 02:10  17 01 29.04    +38 29 03.1    97016 0.9941  97.9     13?  71.97  70.8   47  74 112  10
   2024 03 13 02:20  17 02 25.94    +38 32 50.7    97803 0.9941  97.7     13?  69.18  71.2   49  75 112  10
   2024 03 13 02:30  17 03 20.81    +38 36 25.5    98583 0.9941  97.6     13?  66.49  71.6   51  76 112  10
   2024 03 13 02:40  17 04 13.71    +38 39 47.6    99354 0.9941  97.4     13?  63.92  72.0   53  77 112  10
   2024 03 13 02:50  17 05 04.73    +38 42 56.9   100118 0.9941  97.2     13?  61.44  72.5   54  78 112  10
   2024 03 13 03:00  17 05 53.96    +38 45 53.6   100874 0.9941  97.1     13?  59.07  73.1   56  78 112  10
   2024 03 13 03:10  17 06 41.47    +38 48 37.8   101624 0.9941  96.9     13?  56.80  73.7   58  79 112  10
   2024 03 13 03:20  17 07 27.35    +38 51 09.4   102368 0.9941  96.8     13?  54.64  74.4   59  80 111  10
   2024 03 13 03:30  17 08 11.67    +38 53 28.7   103105 0.9941  96.6     13?  52.57  75.2   61  81 111  11
   2024 03 13 03:40  17 08 54.50    +38 55 35.6   103836 0.9941  96.5     13?  50.62  76.0   63  82 111  11
   2024 03 13 03:50  17 09 35.94    +38 57 30.2   104563 0.9941  96.4     13?  48.76  77.0   65  83 111  11
   2024 03 13 04:00  17 10 16.05    +38 59 12.7   105283 0.9941  96.2     13?  47.02  78.0   66  84 111  11
   2024 03 13 04:10  17 10 54.91    +39 00 43.0   105999 0.9941  96.1     13?  45.38  79.1   68  86 111  11
   2024 03 13 04:20  17 11 32.59    +39 02 01.2   106711 0.9941  96.0     13?  43.85  80.3   70  87 111  11
   2024 03 13 04:30  17 12 09.18    +39 03 07.5   107417 0.9941  95.9     13?  42.44  81.7   72  88 111  11
   2024 03 13 04:40  17 12 44.73    +39 04 01.9   108120 0.9941  95.8     13?  41.13  83.1   74  89 111  11
   2024 03 13 04:50  17 13 19.34    +39 04 44.6   108819 0.9941  95.7     13?  39.94  84.5   75  91 111  11
   2024 03 13 05:00  17 13 53.06    +39 05 15.6   109514 0.9941  95.6 A   13?  38.86  86.1   77  93 111  11
   2024 03 13 05:10  17 14 25.98    +39 05 35.0   110206 0.9941  95.5 A   13?  37.90  87.8   79  95 111  11
   2024 03 13 05:20  17 14 58.15    +39 05 43.1   110894 0.9941  95.4 A   13?  37.05  89.5   81  98 111  11
   2024 03 13 05:30  17 15 29.65    +39 05 39.9   111580 0.9941  95.3 N   13?  36.32  91.2   83 102 111  11
   2024 03 13 05:40  17 16 00.55    +39 05 25.6   112262 0.9941  95.2 N   13?  35.70  93.0   84 108 111  11
   2024 03 13 05:50  17 16 30.91    +39 05 00.3   112941 0.9941  95.1 N   13?  35.20  94.8   86 119 110  11
   2024 03 13 06:00  17 17 00.81    +39 04 24.2   113618 0.9941  95.0 N   13?  34.81  96.7   87 144 110  12
   2024 03 13 06:10  17 17 30.29    +39 03 37.6   114293 0.9941  94.9 Ct  13?  34.52  98.5   88 196 110  12
   2024 03 13 06:20  17 17 59.43    +39 02 40.5   114965 0.9941  94.8 C   13?  34.34 100.2   86 232 110  12
   ................
   2024 03 13 22:50  18 34 31.01    +34 54 54.0   153280 0.9940  79.5     14?  58.29  88.6    0  40 103  17
   2024 03 13 23:00  18 35 18.02    +34 55 08.1   153178 0.9940  79.4     14?  57.40  88.3    0  41 103  17
   2024 03 13 23:10  18 36 04.30    +34 55 25.1   153067 0.9940  79.2     14?  56.48  88.0    2  43 102  17
   2024 03 13 23:20  18 36 49.82    +34 55 44.7   152947 0.9940  79.1     14?  55.55  87.7    3  44 102  17
   2024 03 13 23:30  18 37 34.56    +34 56 06.7   152818 0.9940  79.0     14?  54.59  87.4    4  46 102  17
   2024 03 13 23:40  18 38 18.52    +34 56 31.0   152680 0.9940  78.8     14?  53.62  87.1    5  47 102  17
   2024 03 13 23:50  18 39 01.68    +34 56 57.3   152534 0.9940  78.7     14?  52.63  86.9    7  48 102  17
   2024 03 14 00:00  18 39 44.01    +34 57 25.5   152379 0.9940  78.5     14?  51.61  86.6    8  50 102  17
   2024 03 14 00:10  18 40 25.51    +34 57 55.2   152216 0.9940  78.4     14?  50.59  86.4    9  51 102  17
   2024 03 14 00:20  18 41 06.16    +34 58 26.3   152046 0.9940  78.3     14?  49.55  86.2   11  53 102  17
   2024 03 14 00:30  18 41 45.96    +34 58 58.5   151868 0.9940  78.1     14?  48.49  86.0   12  54 102  17
   2024 03 14 00:40  18 42 24.89    +34 59 31.7   151683 0.9940  78.0     14?  47.42  85.8   14  55 102  17
   2024 03 14 00:50  18 43 02.94    +35 00 05.5   151491 0.9940  77.9     14?  46.34  85.6   15  56 102  17
   2024 03 14 01:00  18 43 40.11    +35 00 39.8   151292 0.9940  77.8     14?  45.25  85.5   17  58 102  18
   2024 03 14 01:10  18 44 16.38    +35 01 14.2   151087 0.9940  77.7     14?  44.15  85.4   18  59 102  18
   2024 03 14 01:20  18 44 51.76    +35 01 48.6   150876 0.9940  77.5     14?  43.04  85.3   20  60 102  18
   2024 03 14 01:30  18 45 26.24    +35 02 22.6   150659 0.9940  77.4     14?  41.92  85.2   21  61 102  18
   2024 03 14 01:40  18 45 59.81    +35 02 56.1   150436 0.9940  77.3     14?  40.80  85.2   23  62 102  18
   2024 03 14 01:50  18 46 32.48    +35 03 28.7   150208 0.9940  77.2     14?  39.68  85.2   24  64 102  18
   2024 03 14 02:00  18 47 04.24    +35 04 00.2   149975 0.9940  77.1     14?  38.56  85.3   26  65 102  18
   2024 03 14 02:10  18 47 35.09    +35 04 30.2   149737 0.9940  77.0     14?  37.44  85.3   28  66 102  18
   2024 03 14 02:20  18 48 05.04    +35 04 58.7   149494 0.9940  76.9     14?  36.32  85.5   29  67 101  18
   2024 03 14 02:30  18 48 34.10    +35 05 25.1   149247 0.9940  76.8     14?  35.20  85.7   31  68 101  18
   2024 03 14 02:40  18 49 02.26    +35 05 49.4   148997 0.9940  76.8     14?  34.09  86.0   33  69 101  18
   2024 03 14 02:50  18 49 29.53    +35 06 11.2   148742 0.9940  76.7     14?  32.99  86.3   34  71 101  18
   2024 03 14 03:00  18 49 55.93    +35 06 30.2   148484 0.9940  76.6     14?  31.91  86.7   36  72 101  18
   2024 03 14 03:10  18 50 21.46    +35 06 46.2   148223 0.9940  76.5     14?  30.84  87.2   38  73 101  19
   2024 03 14 03:20  18 50 46.14    +35 06 58.9   147960 0.9940  76.4     14?  29.78  87.7   40  74 101  19
   2024 03 14 03:30  18 51 09.98    +35 07 07.9   147693 0.9940  76.4     14?  28.75  88.4   41  75 101  19
   2024 03 14 03:40  18 51 32.99    +35 07 13.1   147424 0.9940  76.3     14?  27.74  89.2   43  76 101  19
   2024 03 14 03:50  18 51 55.19    +35 07 14.2   147153 0.9940  76.2     14?  26.75  90.1   45  78 101  19
   2024 03 14 04:00  18 52 16.61    +35 07 10.9   146880 0.9940  76.1     14?  25.80  91.1   47  79 101  19
   2024 03 14 04:10  18 52 37.25    +35 07 02.9   146605 0.9940  76.1     14?  24.89  92.2   49  80 101  19
   2024 03 14 04:20  18 52 57.15    +35 06 49.9   146329 0.9940  76.0     14?  24.01  93.5   50  81 101  19
   2024 03 14 04:30  18 53 16.32    +35 06 31.8   146052 0.9940  76.0     14?  23.18  95.0   52  83 101  19
   2024 03 14 04:40  18 53 34.79    +35 06 08.3   145774 0.9940  75.9     14?  22.41  96.6   54  84 101  19
   2024 03 14 04:50  18 53 52.59    +35 05 39.1   145494 0.9940  75.8     14?  21.68  98.4   56  85 101  19
   2024 03 14 05:00  18 54 09.74    +35 05 03.9   145215 0.9940  75.8 A   14?  21.02 100.3   58  87 101  19
   2024 03 14 05:10  18 54 26.28    +35 04 22.6   144934 0.9940  75.7 A   14?  20.43 102.4   60  88 101  20
   2024 03 14 05:20  18 54 42.23    +35 03 35.0   144654 0.9940  75.7 A   14?  19.90 104.6   61  90 101  20
   2024 03 14 05:30  18 54 57.64    +35 02 40.7   144374 0.9940  75.6 N   14?  19.46 107.0   63  92 102  20
   2024 03 14 05:40  18 55 12.52    +35 01 39.7   144093 0.9940  75.6 N   14?  19.10 109.5   65  93 102  20
   2024 03 14 05:50  18 55 26.92    +35 00 31.6   143813 0.9940  75.5 N   14?  18.82 112.1   67  95 102  20
   2024 03 14 06:00  18 55 40.87    +34 59 16.4   143533 0.9940  75.5 C   14?  18.64 114.8   69  98 102  20
   2024 03 14 06:10  18 55 54.41    +34 57 53.9   143254 0.9940  75.4 C   14?  18.54 117.5   71 100 102  20
   2024 03 14 06:20  18 56 07.58    +34 56 23.8   142975 0.9940  75.4 C   14?  18.54 120.2   72 103 102  20
   ................
   2024 03 15 02:40  21 06 35.80    +18 44 53.0    64615 0.9942  43.1     13? 287.66 120.2    0  64  90  28
   2024 03 15 02:50  21 09 33.68    +18 19 53.4    63037 0.9942  42.3     13? 300.70 120.8    0  66  90  28
   2024 03 15 03:00  21 12 38.36    +17 53 19.6    61433 0.9942  41.5     13? 315.11 121.3    1  67  90  28
   2024 03 15 03:10  21 15 50.55    +17 25 01.4    59805 0.9942  40.6     13? 331.08 121.8    2  68  89  28
   2024 03 15 03:20  21 19 11.02    +16 54 47.1    58151 0.9942  39.7     13? 348.85 122.4    3  70  89  28
   2024 03 15 03:30  21 22 40.71    +16 22 23.4    56470 0.9942  38.7     13? 368.71 123.0    4  71  88  28
   2024 03 15 03:40  21 26 20.66    +15 47 34.8    54763 0.9943  37.6     13? 390.99 123.5    5  73  88  28
   2024 03 15 03:50  21 30 12.12    +15 10 03.2    53027 0.9943  36.5     13? 416.10 124.1    5  74  88  28
   2024 03 15 04:00  21 34 16.54    +14 29 27.6    51263 0.9943  35.4     13? 444.55 124.6    6  76  87  29
   2024 03 15 04:10  21 38 35.61    +13 45 22.9    49470 0.9943  34.1     13? 476.96 125.2    6  77  86  29
   2024 03 15 04:20  21 43 11.38    +12 57 19.5    47647 0.9943  32.8     13? 514.08 125.8    7  79  86  29
   2024 03 15 04:30  21 48 06.30    +12 04 42.0    45793 0.9943  31.3     13? 556.90 126.3    7  80  85  29
   2024 03 15 04:40  21 53 23.32    +11 06 47.3    43908 0.9943  29.7     13? 606.64 126.9    8  82  84  29
   2024 03 15 04:50  21 59 06.08    +10 02 43.3    41991 0.9943  28.0     13? 664.87 127.4    8  83  84  29
   2024 03 15 05:00  22 05 19.11    +08 51 25.7    40042 0.9943  26.1 Ae  13? 733.65 127.9    8  85  83  29
   2024 03 15 05:10  22 12 08.07    +07 31 34.4    38061 0.9943  24.1 A   13? 815.69 128.4    7  86  82  29
   2024 03 15 05:20  22 19 40.23    +06 01 29.2    36048 0.9943  21.8 A   13? 914.60 128.9    7  88  81  29
   2024 03 15 05:30  22 28 05.04    +04 19 02.6    34005 0.9943  19.2 N   13? 1035.3 129.3    6  89  80  29
   2024 03 15 05:40  22 37 35.06    +02 21 31.6    31935 0.9943  16.4 N   13? 1184.4 129.6    5  91  78  30
   2024 03 15 05:50  22 48 27.34    +00 05 25.0    29842 0.9944  13.2 N   13? 1371.3 129.9    3  92  77  30
   ................
   2024 03 15 21:20  17 25 00.30    +36 42 01.4   119381 0.9948  94.7  m  13?  91.40  80.4    0  37 116  36
   2024 03 15 21:30  17 26 14.46    +36 44 32.3   119946 0.9948  94.4  m  13?  89.48  80.1    0  38 116  36
   2024 03 15 21:40  17 27 27.04    +36 47 04.3   120499 0.9948  94.2  m  13?  87.57  79.8    1  40 115  36
   2024 03 15 21:50  17 28 38.03    +36 49 37.2   121040 0.9948  94.0  m  13?  85.67  79.5    2  41 115  36
   2024 03 15 22:00  17 29 47.44    +36 52 10.9   121568 0.9948  93.7  m  13?  83.77  79.2    3  42 115  36
   2024 03 15 22:10  17 30 55.28    +36 54 45.1   122086 0.9948  93.5  m  13?  81.89  79.0    5  44 115  36
   2024 03 15 22:20  17 32 01.54    +36 57 19.9   122591 0.9948  93.3  m  13?  80.00  78.7    6  45 115  36
   2024 03 15 22:30  17 33 06.24    +36 59 54.9   123086 0.9948  93.1  m  13?  78.13  78.4    7  46 115  36
   2024 03 15 22:40  17 34 09.38    +37 02 30.0   123570 0.9948  92.9  m  13?  76.26  78.1    8  47 115  36
   2024 03 15 22:50  17 35 10.97    +37 05 05.0   124043 0.9948  92.7  m  13?  74.40  77.8   10  49 115  36
   2024 03 15 23:00  17 36 11.02    +37 07 39.8   124506 0.9948  92.5  m  13?  72.55  77.5   11  50 115  36
   2024 03 15 23:10  17 37 09.52    +37 10 14.1   124960 0.9948  92.3  m  13?  70.71  77.3   12  51 115  36
   2024 03 15 23:20  17 38 06.50    +37 12 47.7   125403 0.9948  92.1  m  13?  68.88  77.0   14  52 115  36
   2024 03 15 23:30  17 39 01.95    +37 15 20.4   125837 0.9948  91.9  m  13?  67.05  76.7   15  53 115  36
   2024 03 15 23:40  17 39 55.89    +37 17 52.0   126262 0.9948  91.8  m  13?  65.24  76.5   17  55 114  37
   2024 03 15 23:50  17 40 48.34    +37 20 22.3   126679 0.9948  91.6  m  13?  63.44  76.2   18  56 114  37
   2024 03 16 00:00  17 41 39.29    +37 22 51.0   127087 0.9948  91.4  m  13?  61.65  76.0   20  57 114  37
   2024 03 16 00:10  17 42 28.76    +37 25 17.9   127486 0.9948  91.3  m  13?  59.87  75.7   21  58 114  37
   2024 03 16 00:20  17 43 16.77    +37 27 42.7   127878 0.9948  91.1  m  13?  58.10  75.5   23  59 114  37
   2024 03 16 00:30  17 44 03.33    +37 30 05.3   128262 0.9948  91.0  m  13?  56.35  75.3   24  60 114  37
   2024 03 16 00:40  17 44 48.46    +37 32 25.4   128639 0.9948  90.8  m  13?  54.62  75.1   26  61 114  37
   2024 03 16 00:50  17 45 32.17    +37 34 42.7   129010 0.9948  90.7  m  13?  52.90  75.0   27  62 114  37
   2024 03 16 01:00  17 46 14.48    +37 36 56.9   129373 0.9948  90.5  m  13?  51.20  74.8   29  63 114  37
   2024 03 16 01:10  17 46 55.41    +37 39 07.9   129730 0.9948  90.4     13?  49.51  74.7   30  65 114  37
   2024 03 16 01:20  17 47 34.97    +37 41 15.4   130082 0.9948  90.3     14?  47.85  74.6   32  66 114  37
   2024 03 16 01:30  17 48 13.20    +37 43 19.1   130427 0.9948  90.2     14?  46.21  74.6   34  67 114  37
   2024 03 16 01:40  17 48 50.12    +37 45 18.7   130767 0.9948  90.0     14?  44.58  74.5   35  68 114  38
   2024 03 16 01:50  17 49 25.74    +37 47 14.1   131103 0.9948  89.9     14?  42.99  74.6   37  69 114  38
   2024 03 16 02:00  17 50 00.09    +37 49 04.9   131433 0.9948  89.8     14?  41.42  74.6   39  70 114  38
   2024 03 16 02:10  17 50 33.21    +37 50 51.0   131759 0.9948  89.7     14?  39.87  74.8   40  71 114  38
   2024 03 16 02:20  17 51 05.12    +37 52 32.1   132080 0.9948  89.6     14?  38.36  75.0   42  72 114  38
   2024 03 16 02:30  17 51 35.84    +37 54 07.9   132398 0.9948  89.5     14?  36.88  75.2   44  73 114  38
   2024 03 16 02:40  17 52 05.42    +37 55 38.3   132712 0.9948  89.4     14?  35.43  75.5   46  74 114  38
   2024 03 16 02:50  17 52 33.88    +37 57 02.9   133023 0.9948  89.3     14?  34.01  75.9   47  75 114  38
   2024 03 16 03:00  17 53 01.26    +37 58 21.6   133330 0.9948  89.3     14?  32.63  76.4   49  76 113  38
   2024 03 16 03:10  17 53 27.58    +37 59 34.1   133635 0.9948  89.2     14?  31.30  77.0   51  77 113  38
   2024 03 16 03:20  17 53 52.90    +38 00 40.2   133937 0.9948  89.1     14?  30.00  77.7   53  78 113  38
   2024 03 16 03:30  17 54 17.24    +38 01 39.8   134237 0.9948  89.0     14?  28.76  78.5   55  79 113  39
   2024 03 16 03:40  17 54 40.64    +38 02 32.7   134535 0.9948  89.0     14?  27.56  79.5   56  80 113  39
   2024 03 16 03:50  17 55 03.15    +38 03 18.6   134831 0.9948  88.9     14?  26.41  80.6   58  81 113  39
   2024 03 16 04:00  17 55 24.81    +38 03 57.3   135126 0.9948  88.8     14?  25.33  81.8   60  82 113  39
   2024 03 16 04:10  17 55 45.65    +38 04 28.8   135419 0.9948  88.7     14?  24.31  83.3   62  83 113  39
   2024 03 16 04:20  17 56 05.72    +38 04 52.9   135711 0.9948  88.7     14?  23.35  84.8   64  85 113  39
   2024 03 16 04:30  17 56 25.07    +38 05 09.3   136002 0.9948  88.6     14?  22.47  86.6   65  86 113  39
   2024 03 16 04:40  17 56 43.73    +38 05 18.1   136292 0.9948  88.6     14?  21.66  88.5   67  87 113  39
   2024 03 16 04:50  17 57 01.76    +38 05 19.0   136581 0.9948  88.5     14?  20.93  90.7   69  89 113  39
   2024 03 16 05:00  17 57 19.20    +38 05 12.1   136870 0.9948  88.5 A   14?  20.29  92.9   71  90 113  39
   2024 03 16 05:10  17 57 36.10    +38 04 57.0   137159 0.9948  88.4 A   14?  19.74  95.4   73  92 113  39
   2024 03 16 05:20  17 57 52.51    +38 04 33.9   137448 0.9948  88.4 A   14?  19.29  97.9   75  94 113  40
   2024 03 16 05:30  17 58 08.47    +38 04 02.7   137737 0.9948  88.3 N   14?  18.93 100.5   76  97 113  40
   2024 03 16 05:40  17 58 24.03    +38 03 23.2   138025 0.9948  88.3 N   14?  18.68 103.3   78 100 113  40
   2024 03 16 05:50  17 58 39.24    +38 02 35.5   138314 0.9948  88.2 N   14?  18.52 106.0   80 103 113  40
   2024 03 16 06:00  17 58 54.15    +38 01 39.5   138604 0.9948  88.2 C   14?  18.46 108.8   82 108 113  40
   2024 03 16 06:10  17 59 08.80    +38 00 35.2   138894 0.9948  88.1 C   14?  18.50 111.5   84 116 113  40
   ................
   2024 03 16 23:30  19 06 34.33    +32 51 52.0   146357 0.9948  74.2  m  14?  60.99  93.9    0  44 115  47
   2024 03 16 23:40  19 07 22.32    +32 51 09.6   145934 0.9948  74.0  m  14?  60.24  93.8    1  46 115  47
   2024 03 16 23:50  19 08 09.70    +32 50 29.0   145502 0.9948  73.9  m  14?  59.46  93.7    3  47 115  47
   2024 03 17 00:00  19 08 56.46    +32 49 50.3   145060 0.9948  73.7  m  14?  58.66  93.6    4  49 115  47
   2024 03 17 00:10  19 09 42.58    +32 49 13.0   144609 0.9948  73.5  m  14?  57.84  93.5    5  50 115  47
   2024 03 17 00:20  19 10 28.04    +32 48 37.1   144149 0.9948  73.4  m  14?  57.00  93.4    7  52 115  47
   2024 03 17 00:30  19 11 12.82    +32 48 02.3   143681 0.9948  73.2  m  14?  56.14  93.3    8  53 115  47
   2024 03 17 00:40  19 11 56.92    +32 47 28.4   143205 0.9948  73.1  m  14?  55.26  93.3    9  54 115  47
   2024 03 17 00:50  19 12 40.31    +32 46 55.1   142720 0.9948  72.9  m  14?  54.37  93.3   11  56 115  48
   2024 03 17 01:00  19 13 22.98    +32 46 22.2   142227 0.9948  72.8  m  14?  53.46  93.4   12  57 115  48
   2024 03 17 01:10  19 14 04.92    +32 45 49.5   141727 0.9948  72.7  m  14?  52.54  93.4   14  58 115  48
   2024 03 17 01:20  19 14 46.13    +32 45 16.6   141219 0.9948  72.5  m  14?  51.61  93.5   15  60 115  48
   2024 03 17 01:30  19 15 26.58    +32 44 43.4   140704 0.9948  72.4  m  14?  50.67  93.6   17  61 115  48
   2024 03 17 01:40  19 16 06.28    +32 44 09.5   140182 0.9948  72.2  m  14?  49.73  93.8   18  62 115  48
   2024 03 17 01:50  19 16 45.21    +32 43 34.7   139654 0.9948  72.1  m  14?  48.77  94.0   20  63 115  48
   2024 03 17 02:00  19 17 23.37    +32 42 58.8   139119 0.9948  72.0  m  14?  47.81  94.2   22  65 115  48
   2024 03 17 02:10  19 18 00.76    +32 42 21.3   138578 0.9948  71.9  m  14?  46.85  94.5   23  66 115  48
   2024 03 17 02:20  19 18 37.36    +32 41 42.1   138031 0.9948  71.7     14?  45.89  94.9   25  67 115  48
   2024 03 17 02:30  19 19 13.19    +32 41 00.8   137478 0.9948  71.6     14?  44.94  95.3   26  68 115  48
   2024 03 17 02:40  19 19 48.23    +32 40 17.1   136919 0.9948  71.5     14?  43.98  95.7   28  70 115  48
   2024 03 17 02:50  19 20 22.49    +32 39 30.8   136356 0.9948  71.4     14?  43.04  96.2   30  71 115  49
   2024 03 17 03:00  19 20 55.98    +32 38 41.6   135788 0.9948  71.3     14?  42.11  96.8   32  72 115  49
   2024 03 17 03:10  19 21 28.69    +32 37 49.0   135214 0.9948  71.2     14?  41.20  97.4   33  73 115  49
   2024 03 17 03:20  19 22 00.63    +32 36 52.8   134637 0.9948  71.1     14?  40.30  98.1   35  74 115  49
   2024 03 17 03:30  19 22 31.82    +32 35 52.7   134055 0.9948  70.9     14?  39.42  98.9   37  76 115  49
   2024 03 17 03:40  19 23 02.25    +32 34 48.4   133469 0.9948  70.8     14?  38.57  99.8   38  77 115  49
   2024 03 17 03:50  19 23 31.94    +32 33 39.6   132879 0.9948  70.7     14?  37.75 100.7   40  78 115  49
   2024 03 17 04:00  19 24 00.90    +32 32 25.8   132286 0.9948  70.6     14?  36.97 101.7   42  80 115  49
   2024 03 17 04:10  19 24 29.15    +32 31 06.9   131690 0.9948  70.5     14?  36.22 102.8   44  81 115  49
   2024 03 17 04:20  19 24 56.70    +32 29 42.5   131090 0.9948  70.4     14?  35.51 104.0   46  82 115  49
   2024 03 17 04:30  19 25 23.58    +32 28 12.1   130487 0.9948  70.4     14?  34.86 105.3   47  84 115  49
   2024 03 17 04:40  19 25 49.79    +32 26 35.7   129882 0.9948  70.3     14?  34.25 106.7   49  85 115  50
   2024 03 17 04:50  19 26 15.36    +32 24 52.7   129274 0.9948  70.2     14?  33.71 108.2   51  86 115  50
   2024 03 17 05:00  19 26 40.32    +32 23 02.9   128663 0.9948  70.1 A   14?  33.23 109.7   53  88 115  50
   2024 03 17 05:10  19 27 04.69    +32 21 06.0   128051 0.9948  70.0 A   14?  32.81 111.4   54  90 115  50
   2024 03 17 05:20  19 27 28.49    +32 19 01.6   127436 0.9948  69.9 A   14?  32.47 113.1   56  91 115  50
   2024 03 17 05:30  19 27 51.76    +32 16 49.5   126819 0.9948  69.8 N   14?  32.20 114.8   58  93 115  50
   2024 03 17 05:40  19 28 14.53    +32 14 29.3   126201 0.9948  69.7 N   14?  32.02 116.6   60  95 115  50
   2024 03 17 05:50  19 28 36.82    +32 12 00.7   125581 0.9948  69.7 N   14?  31.91 118.4   62  97 115  50
   2024 03 17 06:00  19 28 58.68    +32 09 23.4   124959 0.9948  69.6 C   14?  31.89 120.3   63  99 115  50
   2024 03 17 06:10  19 29 20.13    +32 06 37.2   124336 0.9948  69.5 C   14?  31.96 122.1   65 101 115  50
   ................
   2024 03 17 23:20  10 44 25.97    -30 06 00.9     8597 0.9954 145.1  r   9?  10652  40.1   18 180  84  57
   2024 03 17 23:30  11 50 27.00    -10 33 22.6    10104 0.9954 168.4  t  10? 7269.6  37.4   37 163  86  57
   2024 03 17 23:40  12 31 08.30    +02 23 42.6    12295 0.9954 169.8  m  11? 4768.7  39.0   47 148  89  57
   2024 03 17 23:50  12 59 46.55    +10 47 18.4    14718 0.9954 160.2  m  11? 3281.0  41.6   52 136  91  57
   2024 03 18 00:00  13 21 35.72    +16 28 54.5    17181 0.9954 152.8  m  11? 2391.0  44.3   55 126  93  57
   

James Webb Space Telescope (JPL-ID: -170)

   Date (UTC) HH:MM   RA              Dec         delta   r     elong SM  mag  '/hr    PA   alt  az moo ill
   ---- -- -- -----  -------------   -----------  ------ ------ ----- --  --- ------ ------ --- --- --- ---
   2024 03 04 00:00  09 36 40.31    +21 14 56.1   0.0089 0.9997 155.1     15?   1.32 103.5   66 215 119  45
   2024 03 04 00:10  09 36 41.24    +21 14 52.8   0.0089 0.9997 155.1     15?   1.37 105.2   65 220 119  45
   2024 03 04 00:20  09 36 42.20    +21 14 48.9   0.0089 0.9997 155.1     15?   1.42 106.7   64 225 119  45
   2024 03 04 00:30  09 36 43.19    +21 14 44.6   0.0089 0.9997 155.1     15?   1.49 107.9   63 229 119  45
   2024 03 04 00:40  09 36 44.22    +21 14 39.8   0.0089 0.9997 155.1     15?   1.55 109.0   61 233 119  45
   2024 03 04 00:50  09 36 45.30    +21 14 34.5   0.0089 0.9997 155.1     15?   1.63 109.8   60 236 119  45
   2024 03 04 01:00  09 36 46.42    +21 14 28.8   0.0089 0.9997 155.1     15?   1.71 110.5   58 240 120  45
   2024 03 04 01:10  09 36 47.59    +21 14 22.6   0.0089 0.9997 155.1     15?   1.79 111.0   56 243 120  45
   2024 03 04 01:20  09 36 48.81    +21 14 16.0   0.0089 0.9997 155.1     15?   1.88 111.4   55 246 120  45
   2024 03 04 01:30  09 36 50.09    +21 14 08.9   0.0089 0.9997 155.1     15?   1.97 111.7   53 248 120  45
   2024 03 04 01:40  09 36 51.44    +21 14 01.4   0.0089 0.9997 155.1     15?   2.07 111.8   51 251 120  45
   2024 03 04 01:50  09 36 52.85    +21 13 53.5   0.0089 0.9997 155.1     15?   2.17 111.9   49 253 120  44
   2024 03 04 02:00  09 36 54.32    +21 13 45.3   0.0089 0.9997 155.1     15?   2.28 111.8   47 255 120  44
   2024 03 04 02:10  09 36 55.87    +21 13 36.6   0.0089 0.9997 155.0     15?   2.39 111.7   46 257 120  44
   2024 03 04 02:20  09 36 57.50    +21 13 27.6   0.0089 0.9997 155.0  m  15?   2.50 111.6   44 259 120  44
   2024 03 04 02:30  09 36 59.20    +21 13 18.3   0.0089 0.9997 155.0  m  15?   2.61 111.4   42 261 120  44
   2024 03 04 02:40  09 37 00.98    +21 13 08.6   0.0089 0.9997 155.1  m  15?   2.73 111.1   40 263 120  44
   2024 03 04 02:50  09 37 02.85    +21 12 58.7   0.0089 0.9997 155.1  m  15?   2.85 110.8   38 265 120  44
   2024 03 04 03:00  09 37 04.80    +21 12 48.4   0.0089 0.9997 155.1  m  15?   2.98 110.5   36 267 120  44
   2024 03 04 03:10  09 37 06.84    +21 12 37.9   0.0089 0.9997 155.1  m  15?   3.10 110.1   34 268 121  44
   2024 03 04 03:20  09 37 08.97    +21 12 27.1   0.0089 0.9997 155.1  m  15?   3.23 109.7   32 270 121  44
   2024 03 04 03:30  09 37 11.19    +21 12 16.2   0.0089 0.9997 155.1  m  15?   3.36 109.3   30 272 121  44
   2024 03 04 03:40  09 37 13.50    +21 12 05.0   0.0089 0.9997 155.1  m  15?   3.49 108.9   29 273 121  44
   2024 03 04 03:50  09 37 15.92    +21 11 53.6   0.0089 0.9997 155.1  m  15?   3.63 108.5   27 275 121  44
   2024 03 04 04:00  09 37 18.42    +21 11 42.1   0.0089 0.9997 155.1  m  15?   3.76 108.0   25 276 121  44
   2024 03 04 04:10  09 37 21.03    +21 11 30.4   0.0089 0.9997 155.1  m  15?   3.90 107.6   23 278 121  44
   2024 03 04 04:20  09 37 23.74    +21 11 18.6   0.0089 0.9997 155.1  m  15?   4.03 107.1   21 279 121  44
   2024 03 04 04:30  09 37 26.55    +21 11 06.7   0.0089 0.9997 155.1  m  15?   4.17 106.7   19 281 121  44
   2024 03 04 04:40  09 37 29.46    +21 10 54.7   0.0089 0.9997 155.1  m  15?   4.31 106.2   17 282 121  43
   2024 03 04 04:50  09 37 32.47    +21 10 42.7   0.0089 0.9997 155.1  m  15?   4.45 105.7   16 284 121  43
   2024 03 04 05:00  09 37 35.58    +21 10 30.7   0.0089 0.9997 155.1  m  15?   4.59 105.3   14 285 121  43
   2024 03 04 05:10  09 37 38.79    +21 10 18.6   0.0089 0.9997 155.1  m  15?   4.72 104.8   12 287 121  43
   2024 03 04 05:20  09 37 42.11    +21 10 06.6   0.0089 0.9997 155.1 Am  15?   4.86 104.4   10 288 121  43
   2024 03 04 05:30  09 37 45.53    +21 09 54.6   0.0089 0.9997 155.1 Am  15?   5.00 103.9    8 290 121  43
   2024 03 04 05:40  09 37 49.05    +21 09 42.6   0.0089 0.9997 155.1 Am  15?   5.13 103.5    7 291 121  43
   2024 03 04 05:50  09 37 52.67    +21 09 30.7   0.0089 0.9997 155.1 Nm  15?   5.27 103.0    5 293 121  43
   2024 03 04 06:00  09 37 56.39    +21 09 19.0   0.0089 0.9997 155.1 Nm  15?   5.40 102.6    3 294 121  43
   2024 03 04 06:10  09 38 00.21    +21 09 07.3   0.0089 0.9997 155.1 Nm  15?   5.53 102.1    1 296 121  43
   2024 03 04 06:20  09 38 04.13    +21 08 55.8   0.0089 0.9997 155.1 Cm  15?   5.66 101.7    0 298 122  43
   ................
   2024 03 04 18:20  09 43 38.00    +21 11 11.8   0.0088 0.9998 155.7 C   15?   3.66  73.4   27  84 127  38
   2024 03 04 18:30  09 43 40.46    +21 11 22.2   0.0088 0.9998 155.7 C   15?   3.52  73.1   28  86 127  38
   2024 03 04 18:40  09 43 42.82    +21 11 32.4   0.0088 0.9998 155.7 N   15?   3.39  72.7   30  87 127  38
   2024 03 04 18:50  09 43 45.09    +21 11 42.5   0.0088 0.9998 155.7 N   15?   3.26  72.4   32  89 127  38
   2024 03 04 19:00  09 43 47.26    +21 11 52.2   0.0088 0.9998 155.7 N   15?   3.13  72.1   34  91 127  38
   2024 03 04 19:10  09 43 49.35    +21 12 01.8   0.0088 0.9998 155.7 A   15?   3.00  71.8   36  92 127  37
   2024 03 04 19:20  09 43 51.34    +21 12 11.1   0.0088 0.9998 155.7 A   15?   2.88  71.6   38  94 127  37
   2024 03 04 19:30  09 43 53.26    +21 12 20.0   0.0088 0.9998 155.7 A   15?   2.76  71.4   40  96 127  37
   2024 03 04 19:40  09 43 55.08    +21 12 28.7   0.0088 0.9998 155.7 A   15?   2.64  71.3   42  98 128  37
   2024 03 04 19:50  09 43 56.83    +21 12 37.1   0.0088 0.9998 155.7     15?   2.52  71.2   44 100 128  37
   2024 03 04 20:00  09 43 58.50    +21 12 45.1   0.0088 0.9998 155.7     15?   2.41  71.1   45 102 128  37
   2024 03 04 20:10  09 44 00.09    +21 12 52.7   0.0088 0.9999 155.7     15?   2.30  71.2   47 104 128  37
   2024 03 04 20:20  09 44 01.62    +21 13 00.0   0.0088 0.9999 155.7     15?   2.20  71.3   49 106 128  37
   2024 03 04 20:30  09 44 03.07    +21 13 06.9   0.0088 0.9999 155.7     15?   2.10  71.5   51 108 128  37
   2024 03 04 20:40  09 44 04.46    +21 13 13.4   0.0088 0.9999 155.7     15?   2.00  71.8   53 111 128  37
   2024 03 04 20:50  09 44 05.79    +21 13 19.5   0.0088 0.9999 155.7     15?   1.91  72.2   54 113 128  37
   2024 03 04 21:00  09 44 07.06    +21 13 25.1   0.0088 0.9999 155.7     15?   1.82  72.8   56 116 128  36
   2024 03 04 21:10  09 44 08.27    +21 13 30.3   0.0088 0.9999 155.7     15?   1.74  73.5   58 119 129  36
   2024 03 04 21:20  09 44 09.44    +21 13 35.0   0.0088 0.9999 155.7     15?   1.66  74.3   59 122 129  36
   2024 03 04 21:30  09 44 10.56    +21 13 39.3   0.0088 0.9999 155.7     15?   1.59  75.4   61 126 129  36
   2024 03 04 21:40  09 44 11.64    +21 13 43.1   0.0088 0.9999 155.7     15?   1.52  76.6   62 130 129  36
   2024 03 04 21:50  09 44 12.67    +21 13 46.4   0.0088 0.9999 155.7     15?   1.46  78.0   64 134 129  36
   2024 03 04 22:00  09 44 13.68    +21 13 49.2   0.0088 0.9999 155.7     15?   1.41  79.6   65 139 129  36
   2024 03 04 22:10  09 44 14.65    +21 13 51.5   0.0088 0.9999 155.7     15?   1.36  81.4   66 144 129  36
   2024 03 04 22:20  09 44 15.60    +21 13 53.3   0.0088 0.9999 155.6     15?   1.32  83.4   67 149 129  36
   2024 03 04 22:30  09 44 16.53    +21 13 54.6   0.0088 0.9999 155.6     15?   1.29  85.5   68 155 130  36
   2024 03 04 22:40  09 44 17.44    +21 13 55.3   0.0088 0.9999 155.6     15?   1.27  87.8   69 161 130  35
   2024 03 04 22:50  09 44 18.34    +21 13 55.6   0.0088 0.9999 155.6     15?   1.25  90.2   69 168 130  35
   2024 03 04 23:00  09 44 19.23    +21 13 55.3   0.0088 0.9999 155.6     15?   1.25  92.6   70 174 130  35
   2024 03 04 23:10  09 44 20.12    +21 13 54.5   0.0088 0.9999 155.6  t  15?   1.25  95.0   70 181 130  35
   2024 03 04 23:20  09 44 21.01    +21 13 53.2   0.0088 0.9999 155.6     15?   1.26  97.3   70 188 130  35
   2024 03 04 23:30  09 44 21.91    +21 13 51.3   0.0088 0.9999 155.6     15?   1.28  99.6   69 195 130  35
   2024 03 04 23:40  09 44 22.82    +21 13 48.9   0.0088 0.9999 155.6     15?   1.30 101.7   69 201 130  35
   2024 03 04 23:50  09 44 23.74    +21 13 46.1   0.0088 0.9999 155.6     15?   1.34 103.6   68 207 130  35
   2024 03 05 00:00  09 44 24.68    +21 13 42.6   0.0088 0.9999 155.6     15?   1.38 105.4   67 213 130  35
   2024 03 05 00:10  09 44 25.65    +21 13 38.7   0.0088 0.9999 155.6     15?   1.43 107.0   66 218 131  35
   2024 03 05 00:20  09 44 26.64    +21 13 34.3   0.0088 0.9999 155.6     15?   1.49 108.4   64 223 131  35
   2024 03 05 00:30  09 44 27.67    +21 13 29.4   0.0088 0.9999 155.6     15?   1.55 109.5   63 227 131  35
   2024 03 05 00:40  09 44 28.73    +21 13 24.0   0.0088 0.9999 155.6     15?   1.62 110.5   62 231 131  34
   2024 03 05 00:50  09 44 29.84    +21 13 18.1   0.0088 0.9999 155.6     15?   1.69 111.3   60 235 131  34
   2024 03 05 01:00  09 44 30.99    +21 13 11.7   0.0088 0.9999 155.6     15?   1.77 111.9   59 238 131  34
   2024 03 05 01:10  09 44 32.18    +21 13 04.9   0.0088 0.9999 155.6     15?   1.85 112.4   57 242 131  34
   2024 03 05 01:20  09 44 33.44    +21 12 57.6   0.0088 0.9999 155.6     15?   1.94 112.8   55 244 131  34
   2024 03 05 01:30  09 44 34.74    +21 12 49.9   0.0088 0.9999 155.6     15?   2.03 113.0   53 247 131  34
   2024 03 05 01:40  09 44 36.11    +21 12 41.7   0.0088 0.9999 155.6     15?   2.13 113.1   52 250 131  34
   2024 03 05 01:50  09 44 37.55    +21 12 33.2   0.0088 0.9999 155.6     15?   2.23 113.1   50 252 132  34
   2024 03 05 02:00  09 44 39.05    +21 12 24.2   0.0088 0.9999 155.6     15?   2.33 113.1   48 254 132  34
   2024 03 05 02:10  09 44 40.62    +21 12 14.9   0.0088 0.9999 155.6     15?   2.44 113.0   46 256 132  34
   2024 03 05 02:20  09 44 42.27    +21 12 05.2   0.0088 0.9999 155.6     15?   2.55 112.8   44 259 132  34
   2024 03 05 02:30  09 44 43.99    +21 11 55.2   0.0088 0.9999 155.6     15?   2.67 112.5   43 260 132  34
   2024 03 05 02:40  09 44 45.79    +21 11 44.8   0.0088 0.9999 155.6     15?   2.79 112.2   41 262 132  34
   2024 03 05 02:50  09 44 47.68    +21 11 34.1   0.0088 0.9999 155.6     15?   2.91 111.9   39 264 132  34
   2024 03 05 03:00  09 44 49.65    +21 11 23.2   0.0088 0.9999 155.6     15?   3.03 111.6   37 266 132  34
   2024 03 05 03:10  09 44 51.71    +21 11 11.9   0.0088 0.9999 155.6     15?   3.16 111.2   35 268 132  33
   2024 03 05 03:20  09 44 53.86    +21 11 00.4   0.0088 0.9999 155.6     15?   3.28 110.8   33 269 132  33
   2024 03 05 03:30  09 44 56.10    +21 10 48.7   0.0088 0.9999 155.6  m  15?   3.41 110.3   31 271 132  33
   2024 03 05 03:40  09 44 58.44    +21 10 36.7   0.0088 0.9999 155.6  m  15?   3.55 109.9   29 272 132  33
   2024 03 05 03:50  09 45 00.87    +21 10 24.6   0.0088 0.9999 155.6  m  15?   3.68 109.5   27 274 132  33
   2024 03 05 04:00  09 45 03.40    +21 10 12.2   0.0088 0.9999 155.6  m  15?   3.81 109.0   26 276 133  33
   2024 03 05 04:10  09 45 06.03    +21 09 59.8   0.0088 0.9999 155.6  m  15?   3.95 108.5   24 277 133  33
   2024 03 05 04:20  09 45 08.76    +21 09 47.2   0.0088 0.9999 155.6  m  15?   4.09 108.1   22 279 133  33
   2024 03 05 04:30  09 45 11.59    +21 09 34.5   0.0088 0.9999 155.6  m  15?   4.23 107.6   20 280 133  33
   2024 03 05 04:40  09 45 14.52    +21 09 21.7   0.0088 0.9999 155.6  m  15?   4.36 107.1   18 282 133  33
   2024 03 05 04:50  09 45 17.55    +21 09 08.8   0.0088 0.9999 155.6  m  15?   4.50 106.6   16 283 133  33
   2024 03 05 05:00  09 45 20.69    +21 08 55.9   0.0088 0.9999 155.6  m  15?   4.64 106.2   14 285 133  33
   2024 03 05 05:10  09 45 23.93    +21 08 43.0   0.0088 0.9999 155.6  m  15?   4.78 105.7   13 286 133  33
   2024 03 05 05:20  09 45 27.27    +21 08 30.1   0.0088 0.9999 155.6 Am  15?   4.92 105.2   11 288 133  33
   2024 03 05 05:30  09 45 30.71    +21 08 17.3   0.0088 0.9999 155.7 Am  15?   5.06 104.8    9 289 133  33
   2024 03 05 05:40  09 45 34.26    +21 08 04.4   0.0088 0.9999 155.7 Am  15?   5.19 104.3    7 291 133  33
   2024 03 05 05:50  09 45 37.91    +21 07 51.7   0.0088 0.9999 155.7 Nm  15?   5.33 103.8    5 292 133  33
   2024 03 05 06:00  09 45 41.66    +21 07 39.0   0.0088 0.9999 155.7 Nm  15?   5.46 103.4    4 294 133  33
   2024 03 05 06:10  09 45 45.51    +21 07 26.5   0.0088 0.9999 155.7 Nm  15?   5.60 102.9    2 295 133  32
   2024 03 05 06:20  09 45 49.45    +21 07 14.1   0.0088 0.9999 155.7 Cm  15?   5.73 102.5    0 297 133  32
   ................
   2024 03 05 18:20  09 51 29.16    +21 08 25.5   0.0088 1.0001 156.3 C   15?   3.77  75.0   26  84 138  28
   2024 03 05 18:30  09 51 31.71    +21 08 35.2   0.0087 1.0001 156.3 C   15?   3.63  74.7   28  85 138  28
   2024 03 05 18:40  09 51 34.17    +21 08 44.8   0.0087 1.0001 156.3 N   15?   3.50  74.4   30  87 138  28
   2024 03 05 18:50  09 51 36.53    +21 08 54.1   0.0087 1.0001 156.3 N   15?   3.36  74.1   31  88 139  27
   2024 03 05 19:00  09 51 38.79    +21 09 03.2   0.0087 1.0001 156.3 N   15?   3.23  73.9   33  90 139  27
   2024 03 05 19:10  09 51 40.97    +21 09 12.1   0.0087 1.0001 156.3 A   15?   3.10  73.7   35  92 139  27
   2024 03 05 19:20  09 51 43.05    +21 09 20.8   0.0087 1.0001 156.3 A   15?   2.98  73.5   37  93 139  27
   2024 03 05 19:30  09 51 45.05    +21 09 29.1   0.0087 1.0001 156.3 A   15?   2.85  73.4   39  95 139  27
   2024 03 05 19:40  09 51 46.96    +21 09 37.1   0.0087 1.0001 156.3 A   15?   2.73  73.3   41  97 139  27
   2024 03 05 19:50  09 51 48.79    +21 09 44.9   0.0087 1.0001 156.3     15?   2.62  73.3   43  99 139  27
   2024 03 05 20:00  09 51 50.54    +21 09 52.2   0.0087 1.0001 156.2     15?   2.50  73.3   45 101 139  27
   2024 03 05 20:10  09 51 52.22    +21 09 59.3   0.0087 1.0001 156.2     15?   2.39  73.4   46 103 140  27
   2024 03 05 20:20  09 51 53.82    +21 10 05.9   0.0087 1.0001 156.2     15?   2.28  73.6   48 105 140  27
   2024 03 05 20:30  09 51 55.35    +21 10 12.2   0.0087 1.0001 156.2     15?   2.18  73.9   50 107 140  27
   2024 03 05 20:40  09 51 56.81    +21 10 18.1   0.0087 1.0001 156.2     15?   2.08  74.3   52 110 140  26
   2024 03 05 20:50  09 51 58.21    +21 10 23.6   0.0087 1.0001 156.2     15?   1.99  74.8   54 112 140  26
   2024 03 05 21:00  09 51 59.55    +21 10 28.6   0.0087 1.0001 156.2     15?   1.90  75.4   55 115 140  26
   2024 03 05 21:10  09 52 00.84    +21 10 33.2   0.0087 1.0001 156.2     15?   1.81  76.2   57 118 140  26
   2024 03 05 21:20  09 52 02.07    +21 10 37.3   0.0087 1.0001 156.2     15?   1.73  77.1   59 121 140  26
   2024 03 05 21:30  09 52 03.25    +21 10 41.0   0.0087 1.0001 156.2     15?   1.66  78.2   60 125 141  26
   2024 03 05 21:40  09 52 04.39    +21 10 44.2   0.0087 1.0001 156.2     15?   1.59  79.4   62 128 141  26
   2024 03 05 21:50  09 52 05.49    +21 10 46.9   0.0087 1.0001 156.2     15?   1.53  80.8   63 132 141  26
   2024 03 05 22:00  09 52 06.55    +21 10 49.1   0.0087 1.0001 156.2     15?   1.48  82.5   65 137 141  26
   2024 03 05 22:10  09 52 07.58    +21 10 50.8   0.0087 1.0001 156.2     15?   1.43  84.3   66 142 141  26
   2024 03 05 22:20  09 52 08.59    +21 10 52.0   0.0087 1.0001 156.2     15?   1.39  86.2   67 147 141  26
   2024 03 05 22:30  09 52 09.57    +21 10 52.6   0.0087 1.0001 156.2     15?   1.36  88.3   68 153 141  25
   2024 03 05 22:40  09 52 10.53    +21 10 52.8   0.0087 1.0001 156.2     15?   1.34  90.5   69 159 141  25
   2024 03 05 22:50  09 52 11.48    +21 10 52.4   0.0087 1.0001 156.2     15?   1.32  92.8   69 165 141  25
   2024 03 05 23:00  09 52 12.42    +21 10 51.6   0.0087 1.0001 156.2     15?   1.32  95.1   70 172 142  25
   2024 03 05 23:10  09 52 13.36    +21 10 50.1   0.0087 1.0001 156.2     15?   1.32  97.4   70 179 142  25
   2024 03 05 23:20  09 52 14.29    +21 10 48.2   0.0087 1.0001 156.2  t  15?   1.33  99.6   70 186 142  25
   2024 03 05 23:30  09 52 15.23    +21 10 45.7   0.0087 1.0001 156.2     15?   1.35 101.7   69 192 142  25
   2024 03 05 23:40  09 52 16.18    +21 10 42.7   0.0087 1.0001 156.2     15?   1.37 103.8   69 199 142  25
   2024 03 05 23:50  09 52 17.14    +21 10 39.2   0.0087 1.0001 156.2     15?   1.41 105.6   68 205 142  25
   2024 03 06 00:00  09 52 18.12    +21 10 35.2   0.0087 1.0001 156.2     15?   1.45 107.3   67 211 142  25
   2024 03 06 00:10  09 52 19.12    +21 10 30.6   0.0087 1.0001 156.2     15?   1.50 108.8   66 216 142  25
   2024 03 06 00:20  09 52 20.15    +21 10 25.6   0.0087 1.0001 156.2     15?   1.55 110.1   65 221 143  25
   2024 03 06 00:30  09 52 21.21    +21 10 20.0   0.0087 1.0001 156.2     15?   1.61 111.2   64 226 143  24
   2024 03 06 00:40  09 52 22.30    +21 10 13.9   0.0087 1.0001 156.2     15?   1.68 112.1   62 230 143  24
   2024 03 06 00:50  09 52 23.43    +21 10 07.4   0.0087 1.0001 156.2     15?   1.75 112.8   61 234 143  24
   2024 03 06 01:00  09 52 24.61    +21 10 00.3   0.0087 1.0001 156.2     15?   1.83 113.4   59 237 143  24
   2024 03 06 01:10  09 52 25.84    +21 09 52.8   0.0087 1.0001 156.2     15?   1.91 113.9   57 240 143  24
   2024 03 06 01:20  09 52 27.11    +21 09 44.9   0.0087 1.0001 156.2     15?   2.00 114.2   56 243 143  24
   2024 03 06 01:30  09 52 28.45    +21 09 36.5   0.0087 1.0001 156.1     15?   2.09 114.4   54 246 143  24
   2024 03 06 01:40  09 52 29.84    +21 09 27.7   0.0087 1.0001 156.1     15?   2.19 114.4   52 249 143  24
   2024 03 06 01:50  09 52 31.30    +21 09 18.4   0.0087 1.0001 156.1     15?   2.29 114.4   51 251 143  24
   2024 03 06 02:00  09 52 32.82    +21 09 08.8   0.0087 1.0001 156.1     15?   2.39 114.4   49 253 144  24
   2024 03 06 02:10  09 52 34.41    +21 08 58.7   0.0087 1.0001 156.1     15?   2.50 114.2   47 256 144  24
   2024 03 06 02:20  09 52 36.08    +21 08 48.3   0.0087 1.0001 156.1     15?   2.61 114.0   45 258 144  24
   2024 03 06 02:30  09 52 37.82    +21 08 37.5   0.0087 1.0001 156.1     15?   2.72 113.7   43 260 144  24
   2024 03 06 02:40  09 52 39.65    +21 08 26.4   0.0087 1.0001 156.1     15?   2.84 113.4   41 262 144  24
   2024 03 06 02:50  09 52 41.55    +21 08 15.0   0.0087 1.0001 156.2     15?   2.96 113.1   39 263 144  23
   2024 03 06 03:00  09 52 43.54    +21 08 03.2   0.0087 1.0001 156.2     15?   3.08 112.7   38 265 144  23
   2024 03 06 03:10  09 52 45.62    +21 07 51.2   0.0087 1.0002 156.2     15?   3.21 112.3   36 267 144  23
   2024 03 06 03:20  09 52 47.79    +21 07 38.9   0.0087 1.0002 156.2     15?   3.34 111.9   34 269 144  23
   2024 03 06 03:30  09 52 50.05    +21 07 26.4   0.0087 1.0002 156.2     15?   3.47 111.4   32 270 144  23
   2024 03 06 03:40  09 52 52.40    +21 07 13.7   0.0087 1.0002 156.2     15?   3.60 111.0   30 272 144  23
   2024 03 06 03:50  09 52 54.85    +21 07 00.7   0.0087 1.0002 156.2     15?   3.73 110.5   28 273 144  23
   2024 03 06 04:00  09 52 57.40    +21 06 47.6   0.0087 1.0002 156.2     15?   3.87 110.0   26 275 145  23
   2024 03 06 04:10  09 53 00.05    +21 06 34.3   0.0087 1.0002 156.2     15?   4.00 109.5   24 276 145  23
   2024 03 06 04:20  09 53 02.79    +21 06 20.8   0.0087 1.0002 156.2  m  15?   4.14 109.1   23 278 145  23
   2024 03 06 04:30  09 53 05.64    +21 06 07.3   0.0087 1.0002 156.2  m  15?   4.28 108.6   21 279 145  23
   2024 03 06 04:40  09 53 08.59    +21 05 53.6   0.0087 1.0002 156.2  m  15?   4.42 108.1   19 281 145  23
   2024 03 06 04:50  09 53 11.64    +21 05 39.9   0.0087 1.0002 156.2  m  15?   4.56 107.6   17 282 145  23
   2024 03 06 05:00  09 53 14.80    +21 05 26.2   0.0087 1.0002 156.2  m  15?   4.70 107.1   15 284 145  23
   2024 03 06 05:10  09 53 18.06    +21 05 12.4   0.0087 1.0002 156.2 Am  15?   4.84 106.6   13 285 145  23
   2024 03 06 05:20  09 53 21.42    +21 04 58.6   0.0087 1.0002 156.2 Am  15?   4.97 106.1   11 287 145  23
   2024 03 06 05:30  09 53 24.89    +21 04 44.8   0.0087 1.0002 156.2 Am  15?   5.11 105.6   10 288 145  23
   2024 03 06 05:40  09 53 28.46    +21 04 31.1   0.0087 1.0002 156.2 Am  15?   5.25 105.2    8 290 145  23
   2024 03 06 05:50  09 53 32.13    +21 04 17.4   0.0087 1.0002 156.2 Nm  15?   5.39 104.7    6 292 145  22
   2024 03 06 06:00  09 53 35.90    +21 04 03.8   0.0087 1.0002 156.2 Nm  15?   5.52 104.2    4 293 145  22
   2024 03 06 06:10  09 53 39.78    +21 03 50.3   0.0087 1.0002 156.2 Nm  15?   5.66 103.8    3 295 145  22
   2024 03 06 06:20  09 53 43.75    +21 03 37.0   0.0087 1.0002 156.3 Cm  15?   5.79 103.3    1 296 145  22
   2024 03 06 06:30  09 53 47.83    +21 03 23.8   0.0087 1.0002 156.3 Cm  15?   5.92 102.8    0 298 145  22
   ................
   2024 03 06 18:20  09 59 29.16    +21 03 38.9   0.0087 1.0003 156.8 C   15?   3.88  76.6   25  83 150  18
   2024 03 06 18:30  09 59 31.81    +21 03 47.8   0.0087 1.0003 156.8 C   15?   3.74  76.3   27  85 150  18
   2024 03 06 18:40  09 59 34.36    +21 03 56.6   0.0087 1.0003 156.8 N   15?   3.61  76.1   29  86 151  18
   2024 03 06 18:50  09 59 36.81    +21 04 05.2   0.0087 1.0003 156.8 N   15?   3.47  75.9   31  88 151  18
   2024 03 06 19:00  09 59 39.17    +21 04 13.6   0.0087 1.0003 156.8 N   15?   3.34  75.7   33  89 151  18
   2024 03 06 19:10  09 59 41.43    +21 04 21.8   0.0087 1.0003 156.8 N   15?   3.21  75.6   34  91 151  18
   2024 03 06 19:20  09 59 43.61    +21 04 29.7   0.0087 1.0003 156.8 A   15?   3.08  75.5   36  93 151  18
   2024 03 06 19:30  09 59 45.69    +21 04 37.3   0.0087 1.0003 156.8 A   15?   2.95  75.4   38  95 151  18
   2024 03 06 19:40  09 59 47.69    +21 04 44.6   0.0087 1.0003 156.8 A   15?   2.83  75.4   40  96 151  18
   2024 03 06 19:50  09 59 49.61    +21 04 51.6   0.0087 1.0003 156.8     15?   2.71  75.4   42  98 151  18
   2024 03 06 20:00  09 59 51.44    +21 04 58.3   0.0087 1.0003 156.8     15?   2.59  75.5   44 100 151  17
   2024 03 06 20:10  09 59 53.19    +21 05 04.7   0.0087 1.0003 156.8     15?   2.48  75.7   46 102 152  17
   2024 03 06 20:20  09 59 54.87    +21 05 10.6   0.0087 1.0003 156.8     15?   2.37  76.0   48 104 152  17
   2024 03 06 20:30  09 59 56.48    +21 05 16.2   0.0087 1.0003 156.8     15?   2.27  76.3   49 106 152  17
   2024 03 06 20:40  09 59 58.02    +21 05 21.4   0.0087 1.0003 156.8     15?   2.17  76.7   51 109 152  17
   2024 03 06 20:50  09 59 59.49    +21 05 26.2   0.0087 1.0003 156.8     15?   2.07  77.3   53 111 152  17
   2024 03 06 21:00  10 00 00.90    +21 05 30.6   0.0087 1.0003 156.8     15?   1.98  78.0   55 114 152  17
   2024 03 06 21:10  10 00 02.26    +21 05 34.5   0.0087 1.0003 156.8     15?   1.89  78.8   56 117 152  17
   2024 03 06 21:20  10 00 03.56    +21 05 38.0   0.0087 1.0003 156.8     15?   1.81  79.8   58 120 152  17
   2024 03 06 21:30  10 00 04.81    +21 05 41.0   0.0087 1.0003 156.8     15?   1.74  80.9   60 123 153  17
   2024 03 06 21:40  10 00 06.01    +21 05 43.5   0.0087 1.0003 156.8     15?   1.67  82.2   61 127 153  17
   2024 03 06 21:50  10 00 07.17    +21 05 45.5   0.0087 1.0003 156.8     15?   1.61  83.7   63 131 153  17
   2024 03 06 22:00  10 00 08.29    +21 05 47.1   0.0087 1.0003 156.8     15?   1.55  85.3   64 135 153  16
   2024 03 06 22:10  10 00 09.38    +21 05 48.1   0.0087 1.0003 156.8     15?   1.51  87.1   65 140 153  16
   2024 03 06 22:20  10 00 10.44    +21 05 48.6   0.0087 1.0003 156.8     15?   1.47  89.0   66 145 153  16
   2024 03 06 22:30  10 00 11.48    +21 05 48.7   0.0087 1.0003 156.8     15?   1.43  91.0   67 150 153  16
   2024 03 06 22:40  10 00 12.49    +21 05 48.2   0.0087 1.0003 156.8     15?   1.41  93.2   68 156 153  16
   2024 03 06 22:50  10 00 13.49    +21 05 47.1   0.0087 1.0003 156.8     15?   1.40  95.3   69 163 154  16
   2024 03 06 23:00  10 00 14.48    +21 05 45.6   0.0087 1.0003 156.8     15?   1.39  97.6   69 169 154  16
   2024 03 06 23:10  10 00 15.46    +21 05 43.5   0.0087 1.0003 156.8     15?   1.39  99.8   70 176 154  16
   2024 03 06 23:20  10 00 16.44    +21 05 40.9   0.0087 1.0003 156.7  t  15?   1.40 101.9   70 183 154  16
   2024 03 06 23:30  10 00 17.42    +21 05 37.8   0.0087 1.0004 156.7     15?   1.42 103.9   69 190 154  16
   2024 03 06 23:40  10 00 18.41    +21 05 34.1   0.0087 1.0004 156.7     15?   1.44 105.8   69 196 154  16
   2024 03 06 23:50  10 00 19.41    +21 05 29.9   0.0087 1.0004 156.7     15?   1.48 107.6   68 202 154  16
   2024 03 07 00:00  10 00 20.43    +21 05 25.2   0.0087 1.0004 156.7     15?   1.52 109.1   67 208 154  16
   2024 03 07 00:10  10 00 21.46    +21 05 20.0   0.0087 1.0004 156.7     15?   1.57 110.5   66 214 155  15
   2024 03 07 00:20  10 00 22.53    +21 05 14.2   0.0087 1.0004 156.7     15?   1.62 111.8   65 219 155  15
   2024 03 07 00:30  10 00 23.62    +21 05 08.0   0.0087 1.0004 156.7     15?   1.68 112.8   64 224 155  15
   2024 03 07 00:40  10 00 24.74    +21 05 01.2   0.0087 1.0004 156.7     15?   1.75 113.7   63 228 155  15
   2024 03 07 00:50  10 00 25.91    +21 04 54.0   0.0087 1.0004 156.7     15?   1.82 114.4   61 232 155  15
   2024 03 07 01:00  10 00 27.11    +21 04 46.2   0.0087 1.0004 156.7     15?   1.90 114.9   60 236 155  15
   2024 03 07 01:10  10 00 28.36    +21 04 38.0   0.0087 1.0004 156.7     15?   1.98 115.3   58 239 155  15
   2024 03 07 01:20  10 00 29.67    +21 04 29.3   0.0087 1.0004 156.7     15?   2.06 115.6   56 242 155  15
   2024 03 07 01:30  10 00 31.03    +21 04 20.2   0.0087 1.0004 156.7     15?   2.15 115.7   55 245 155  15
   2024 03 07 01:40  10 00 32.44    +21 04 10.6   0.0087 1.0004 156.7     15?   2.25 115.8   53 248 156  15
   2024 03 07 01:50  10 00 33.92    +21 04 00.7   0.0087 1.0004 156.7     15?   2.35 115.8   51 250 156  15
   2024 03 07 02:00  10 00 35.46    +21 03 50.3   0.0087 1.0004 156.7     15?   2.45 115.7   49 252 156  15
   2024 03 07 02:10  10 00 37.08    +21 03 39.5   0.0087 1.0004 156.7     15?   2.56 115.5   48 255 156  15
   2024 03 07 02:20  10 00 38.76    +21 03 28.3   0.0087 1.0004 156.7     15?   2.67 115.3   46 257 156  15
   2024 03 07 02:30  10 00 40.52    +21 03 16.7   0.0087 1.0004 156.7     15?   2.78 115.0   44 259 156  15
   2024 03 07 02:40  10 00 42.36    +21 03 04.8   0.0087 1.0004 156.7     15?   2.90 114.6   42 261 156  14
   2024 03 07 02:50  10 00 44.29    +21 02 52.6   0.0087 1.0004 156.7     15?   3.02 114.3   40 263 156  14
   2024 03 07 03:00  10 00 46.29    +21 02 40.1   0.0087 1.0004 156.7     15?   3.14 113.9   38 264 156  14
   2024 03 07 03:10  10 00 48.39    +21 02 27.3   0.0087 1.0004 156.7     15?   3.26 113.4   36 266 156  14
   2024 03 07 03:20  10 00 50.57    +21 02 14.2   0.0087 1.0004 156.7     15?   3.39 113.0   35 268 157  14
   2024 03 07 03:30  10 00 52.85    +21 02 00.8   0.0087 1.0004 156.7     15?   3.52 112.5   33 269 157  14
   2024 03 07 03:40  10 00 55.22    +21 01 47.2   0.0087 1.0004 156.7     15?   3.65 112.1   31 271 157  14
   2024 03 07 03:50  10 00 57.68    +21 01 33.4   0.0087 1.0004 156.7     15?   3.78 111.6   29 273 157  14
   2024 03 07 04:00  10 01 00.24    +21 01 19.4   0.0087 1.0004 156.7     15?   3.92 111.1   27 274 157  14
   2024 03 07 04:10  10 01 02.91    +21 01 05.3   0.0087 1.0004 156.7     15?   4.05 110.6   25 276 157  14
   2024 03 07 04:20  10 01 05.67    +21 00 51.0   0.0087 1.0004 156.8     15?   4.19 110.1   23 277 157  14
   2024 03 07 04:30  10 01 08.53    +21 00 36.6   0.0087 1.0004 156.8     15?   4.33 109.6   21 279 157  14
   2024 03 07 04:40  10 01 11.50    +21 00 22.0   0.0087 1.0004 156.8     15?   4.47 109.1   19 280 157  14
   2024 03 07 04:50  10 01 14.57    +21 00 07.4   0.0087 1.0004 156.8     15?   4.61 108.6   18 282 157  14
   2024 03 07 05:00  10 01 17.74    +20 59 52.7   0.0087 1.0004 156.8     15?   4.75 108.0   16 283 157  14
   2024 03 07 05:10  10 01 21.02    +20 59 38.0   0.0087 1.0004 156.8 Am  15?   4.89 107.5   14 285 157  14
   2024 03 07 05:20  10 01 24.40    +20 59 23.3   0.0087 1.0004 156.8 Am  15?   5.03 107.0   12 286 157  14
   2024 03 07 05:30  10 01 27.88    +20 59 08.6   0.0087 1.0004 156.8 Am  15?   5.17 106.6   10 288 158  14
   2024 03 07 05:40  10 01 31.47    +20 58 53.9   0.0087 1.0004 156.8 Nm  15?   5.31 106.1    9 289 158  14
   2024 03 07 05:50  10 01 35.16    +20 58 39.3   0.0087 1.0004 156.8 Nm  15?   5.44 105.6    7 291 158  14
   2024 03 07 06:00  10 01 38.96    +20 58 24.7   0.0087 1.0004 156.8 Nm  15?   5.58 105.1    5 292 158  13
   2024 03 07 06:10  10 01 42.86    +20 58 10.3   0.0087 1.0004 156.8 Nm  15?   5.71 104.6    3 294 158  13
   2024 03 07 06:20  10 01 46.86    +20 57 55.9   0.0087 1.0004 156.8 Cm  15?   5.85 104.1    2 296 158  13
   2024 03 07 06:30  10 01 50.96    +20 57 41.8   0.0087 1.0004 156.8 Cm  15?   5.98 103.7    0 297 158  13
   ................
   2024 03 07 18:20  10 07 37.83    +20 56 42.9   0.0086 1.0005 157.4 C   15?   4.00  78.3   24  83 162  10
   2024 03 07 18:30  10 07 40.57    +20 56 51.0   0.0086 1.0005 157.4 C   15?   3.86  78.0   26  84 163  10
   2024 03 07 18:40  10 07 43.22    +20 56 59.0   0.0086 1.0005 157.4 C   15?   3.72  77.9   28  86 163  10
   2024 03 07 18:50  10 07 45.76    +20 57 06.8   0.0086 1.0005 157.4 N   15?   3.58  77.7   30  87 163  10
   2024 03 07 19:00  10 07 48.21    +20 57 14.3   0.0086 1.0005 157.4 N   15?   3.45  77.6   32  89 163  10
   2024 03 07 19:10  10 07 50.57    +20 57 21.7   0.0086 1.0005 157.4 N   15?   3.32  77.5   34  91 163  10
   2024 03 07 19:20  10 07 52.84    +20 57 28.8   0.0086 1.0005 157.4 A   15?   3.18  77.4   35  92 163  10
   2024 03 07 19:30  10 07 55.01    +20 57 35.6   0.0086 1.0006 157.4 A   15?   3.06  77.4   37  94 163  10
   2024 03 07 19:40  10 07 57.10    +20 57 42.1   0.0086 1.0006 157.4 A   15?   2.93  77.5   39  96 163  10
   2024 03 07 19:50  10 07 59.10    +20 57 48.4   0.0086 1.0006 157.4     15?   2.81  77.6   41  98 163  10
   2024 03 07 20:00  10 08 01.01    +20 57 54.3   0.0086 1.0006 157.4     15?   2.69  77.8   43  99 164   9
   2024 03 07 20:10  10 08 02.85    +20 57 59.8   0.0086 1.0006 157.4     15?   2.58  78.0   45 101 164   9
   2024 03 07 20:20  10 08 04.61    +20 58 05.1   0.0086 1.0006 157.4     15?   2.47  78.3   47 103 164   9
   2024 03 07 20:30  10 08 06.30    +20 58 09.9   0.0086 1.0006 157.4     15?   2.36  78.7   48 106 164   9
   2024 03 07 20:40  10 08 07.91    +20 58 14.3   0.0086 1.0006 157.4     15?   2.26  79.2   50 108 164   9
   2024 03 07 20:50  10 08 09.46    +20 58 18.4   0.0086 1.0006 157.4     15?   2.16  79.9   52 110 164   9
   2024 03 07 21:00  10 08 10.95    +20 58 22.0   0.0086 1.0006 157.4     15?   2.07  80.6   54 113 164   9
   2024 03 07 21:10  10 08 12.37    +20 58 25.1   0.0086 1.0006 157.4     15?   1.98  81.5   56 116 164   9
   2024 03 07 21:20  10 08 13.74    +20 58 27.9   0.0086 1.0006 157.4     15?   1.90  82.5   57 119 165   9
   2024 03 07 21:30  10 08 15.06    +20 58 30.1   0.0086 1.0006 157.4     15?   1.82  83.7   59 122 165   9
   2024 03 07 21:40  10 08 16.33    +20 58 31.9   0.0086 1.0006 157.4     15?   1.75  85.0   60 125 165   9
   2024 03 07 21:50  10 08 17.55    +20 58 33.2   0.0086 1.0006 157.4     15?   1.69  86.4   62 129 165   9
   2024 03 07 22:00  10 08 18.74    +20 58 34.1   0.0086 1.0006 157.4     15?   1.63  88.1   63 133 165   9
   2024 03 07 22:10  10 08 19.89    +20 58 34.4   0.0086 1.0006 157.4     15?   1.59  89.8   65 138 165   9
   2024 03 07 22:20  10 08 21.00    +20 58 34.2   0.0086 1.0006 157.4     15?   1.55  91.7   66 143 165   9
   2024 03 07 22:30  10 08 22.09    +20 58 33.5   0.0086 1.0006 157.3     15?   1.51  93.7   67 148 165   8
   2024 03 07 22:40  10 08 23.16    +20 58 32.3   0.0086 1.0006 157.3     15?   1.49  95.8   68 154 166   8
   2024 03 07 22:50  10 08 24.21    +20 58 30.5   0.0086 1.0006 157.3     15?   1.47  97.9   69 160 166   8
   2024 03 07 23:00  10 08 25.25    +20 58 28.3   0.0086 1.0006 157.3     15?   1.47 100.0   69 166 166   8
   2024 03 07 23:10  10 08 26.28    +20 58 25.5   0.0086 1.0006 157.3     15?   1.47 102.1   69 173 166   8
   2024 03 07 23:20  10 08 27.30    +20 58 22.1   0.0086 1.0006 157.3  t  15?   1.48 104.1   69 180 166   8
   2024 03 07 23:30  10 08 28.33    +20 58 18.3   0.0086 1.0006 157.3     15?   1.50 106.0   69 187 166   8
   2024 03 07 23:40  10 08 29.36    +20 58 13.9   0.0086 1.0006 157.3     15?   1.52 107.8   69 193 166   8
   2024 03 07 23:50  10 08 30.40    +20 58 09.0   0.0086 1.0006 157.3     15?   1.55 109.5   68 200 166   8
   2024 03 08 00:00  10 08 31.45    +20 58 03.5   0.0086 1.0006 157.3     15?   1.59 111.0   68 206 167   8
   2024 03 08 00:10  10 08 32.52    +20 57 57.6   0.0086 1.0006 157.3     15?   1.64 112.3   67 211 167   8
   2024 03 08 00:20  10 08 33.62    +20 57 51.1   0.0086 1.0006 157.3     15?   1.69 113.5   66 217 167   8
   2024 03 08 00:30  10 08 34.74    +20 57 44.1   0.0086 1.0006 157.3     15?   1.75 114.5   64 222 167   8
   2024 03 08 00:40  10 08 35.90    +20 57 36.6   0.0086 1.0006 157.3     15?   1.82 115.3   63 226 167   8
   2024 03 08 00:50  10 08 37.09    +20 57 28.6   0.0086 1.0006 157.3     15?   1.89 115.9   62 230 167   8
   2024 03 08 01:00  10 08 38.33    +20 57 20.1   0.0086 1.0006 157.3     15?   1.96 116.4   60 234 167   8
   2024 03 08 01:10  10 08 39.61    +20 57 11.1   0.0086 1.0006 157.3     15?   2.04 116.8   59 237 167   8
   2024 03 08 01:20  10 08 40.93    +20 57 01.7   0.0086 1.0006 157.3     15?   2.13 117.0   57 241 167   8
   2024 03 08 01:30  10 08 42.32    +20 56 51.8   0.0086 1.0006 157.3     15?   2.22 117.2   55 243 168   7
   2024 03 08 01:40  10 08 43.75    +20 56 41.4   0.0086 1.0006 157.3     15?   2.31 117.2   54 246 168   7
   2024 03 08 01:50  10 08 45.25    +20 56 30.7   0.0086 1.0006 157.3     15?   2.41 117.1   52 249 168   7
   2024 03 08 02:00  10 08 46.82    +20 56 19.5   0.0086 1.0006 157.3     15?   2.51 117.0   50 251 168   7
   2024 03 08 02:10  10 08 48.45    +20 56 07.9   0.0086 1.0006 157.3     15?   2.62 116.8   48 254 168   7
   2024 03 08 02:20  10 08 50.15    +20 55 55.9   0.0086 1.0006 157.3     15?   2.73 116.5   46 256 168   7
   2024 03 08 02:30  10 08 51.93    +20 55 43.5   0.0086 1.0006 157.3     15?   2.84 116.2   45 258 168   7
   2024 03 08 02:40  10 08 53.79    +20 55 30.8   0.0086 1.0006 157.3     15?   2.95 115.9   43 260 168   7
   2024 03 08 02:50  10 08 55.73    +20 55 17.8   0.0086 1.0006 157.3     15?   3.07 115.5   41 262 168   7
   2024 03 08 03:00  10 08 57.75    +20 55 04.4   0.0086 1.0006 157.3     15?   3.19 115.1   39 263 169   7
   2024 03 08 03:10  10 08 59.86    +20 54 50.8   0.0086 1.0006 157.3     15?   3.32 114.6   37 265 169   7
   2024 03 08 03:20  10 09 02.06    +20 54 36.8   0.0086 1.0006 157.3     15?   3.44 114.2   35 267 169   7
   2024 03 08 03:30  10 09 04.35    +20 54 22.6   0.0086 1.0006 157.3     15?   3.57 113.7   33 269 169   7
   2024 03 08 03:40  10 09 06.73    +20 54 08.1   0.0086 1.0006 157.3     15?   3.70 113.2   31 270 169   7
   2024 03 08 03:50  10 09 09.21    +20 53 53.5   0.0086 1.0006 157.3     15?   3.84 112.7   30 272 169   7
   2024 03 08 04:00  10 09 11.78    +20 53 38.6   0.0086 1.0006 157.3     15?   3.97 112.2   28 273 169   7
   2024 03 08 04:10  10 09 14.46    +20 53 23.5   0.0086 1.0006 157.3     15?   4.11 111.6   26 275 169   7
   2024 03 08 04:20  10 09 17.23    +20 53 08.3   0.0086 1.0006 157.3     15?   4.24 111.1   24 276 169   7
   2024 03 08 04:30  10 09 20.11    +20 52 53.0   0.0086 1.0006 157.3     15?   4.38 110.6   22 278 169   7
   2024 03 08 04:40  10 09 23.09    +20 52 37.5   0.0086 1.0006 157.4     15?   4.52 110.1   20 280 169   7
   2024 03 08 04:50  10 09 26.17    +20 52 22.0   0.0086 1.0006 157.4     15?   4.66 109.6   18 281 170   7
   2024 03 08 05:00  10 09 29.36    +20 52 06.3   0.0086 1.0006 157.4     15?   4.80 109.0   16 283 170   6
   2024 03 08 05:10  10 09 32.65    +20 51 50.7   0.0086 1.0006 157.4 A   15?   4.94 108.5   15 284 170   6
   2024 03 08 05:20  10 09 36.04    +20 51 35.0   0.0086 1.0007 157.4 A   15?   5.08 108.0   13 286 170   6
   2024 03 08 05:30  10 09 39.55    +20 51 19.3   0.0086 1.0007 157.4 A   15?   5.22 107.5   11 287 170   6
   2024 03 08 05:40  10 09 43.15    +20 51 03.6   0.0086 1.0007 157.4 N   15?   5.36 107.0    9 289 170   6
   2024 03 08 05:50  10 09 46.86    +20 50 48.0   0.0086 1.0007 157.4 Nm  15?   5.50 106.5    7 290 170   6
   2024 03 08 06:00  10 09 50.67    +20 50 32.5   0.0086 1.0007 157.4 Nm  15?   5.64 106.0    6 292 170   6
   2024 03 08 06:10  10 09 54.59    +20 50 17.0   0.0086 1.0007 157.4 Cm  15?   5.77 105.5    4 293 170   6
   2024 03 08 06:20  10 09 58.61    +20 50 01.6   0.0086 1.0007 157.4 Cm  15?   5.91 105.0    2 295 170   6
   2024 03 08 06:30  10 10 02.73    +20 49 46.4   0.0086 1.0007 157.4 Cm  15?   6.04 104.5    1 296 170   6
   ................
   2024 03 08 18:20  10 15 55.00    +20 47 28.2   0.0086 1.0008 158.0 C   15?   4.12  79.9   23  82 173   4
   2024 03 08 18:30  10 15 57.84    +20 47 35.3   0.0086 1.0008 158.0 C   15?   3.98  79.8   25  84 173   4
   2024 03 08 18:40  10 16 00.59    +20 47 42.4   0.0086 1.0008 158.0 C   15?   3.84  79.7   27  85 173   4
   2024 03 08 18:50  10 16 03.23    +20 47 49.2   0.0086 1.0008 158.0 N   15?   3.70  79.6   29  87 173   4
   2024 03 08 19:00  10 16 05.78    +20 47 55.9   0.0086 1.0008 158.0 N   15?   3.56  79.5   31  88 173   4
   2024 03 08 19:10  10 16 08.23    +20 48 02.3   0.0086 1.0008 158.0 N   15?   3.43  79.5   33  90 173   4
   2024 03 08 19:20  10 16 10.58    +20 48 08.5   0.0086 1.0008 158.0 A   15?   3.30  79.5   35  92 174   4
   2024 03 08 19:30  10 16 12.85    +20 48 14.4   0.0086 1.0008 158.0 A   15?   3.17  79.5   36  93 174   4
   2024 03 08 19:40  10 16 15.02    +20 48 20.1   0.0086 1.0008 158.0 A   15?   3.04  79.6   38  95 174   4
   2024 03 08 19:50  10 16 17.11    +20 48 25.4   0.0086 1.0008 158.0     15?   2.92  79.8   40  97 174   4
   2024 03 08 20:00  10 16 19.12    +20 48 30.5   0.0086 1.0008 158.0     15?   2.79  80.0   42  99 174   3
   2024 03 08 20:10  10 16 21.04    +20 48 35.2   0.0086 1.0008 158.0     15?   2.68  80.3   44 101 174   3
   2024 03 08 20:20  10 16 22.88    +20 48 39.5   0.0086 1.0008 158.0     15?   2.56  80.7   46 103 174   3
   2024 03 08 20:30  10 16 24.65    +20 48 43.5   0.0085 1.0008 158.0     15?   2.46  81.2   48 105 174   3
   2024 03 08 20:40  10 16 26.34    +20 48 47.1   0.0085 1.0008 158.0     15?   2.35  81.8   49 107 174   3
   2024 03 08 20:50  10 16 27.97    +20 48 50.3   0.0085 1.0008 158.0     15?   2.25  82.4   51 110 174   3
   2024 03 08 21:00  10 16 29.53    +20 48 53.1   0.0085 1.0008 158.0     15?   2.16  83.2   53 112 174   3
   2024 03 08 21:10  10 16 31.03    +20 48 55.5   0.0085 1.0008 158.0     15?   2.07  84.2   55 115 174   3
   2024 03 08 21:20  10 16 32.47    +20 48 57.4   0.0085 1.0008 158.0     15?   1.99  85.2   56 118 174   3
   2024 03 08 21:30  10 16 33.86    +20 48 58.8   0.0085 1.0008 158.0     15?   1.91  86.4   58 121 174   3
   2024 03 08 21:40  10 16 35.19    +20 48 59.8   0.0085 1.0008 158.0     15?   1.84  87.7   60 124 174   3
   2024 03 08 21:50  10 16 36.48    +20 49 00.3   0.0085 1.0008 158.0     15?   1.78  89.2   61 128 174   3
   2024 03 08 22:00  10 16 37.73    +20 49 00.3   0.0085 1.0008 158.0     15?   1.72  90.8   63 132 174   3
   2024 03 08 22:10  10 16 38.94    +20 48 59.9   0.0085 1.0008 157.9     15?   1.67  92.6   64 136 174   3
   2024 03 08 22:20  10 16 40.12    +20 48 58.9   0.0085 1.0008 157.9     15?   1.63  94.4   65 141 174   3
   2024 03 08 22:30  10 16 41.26    +20 48 57.4   0.0085 1.0008 157.9     15?   1.60  96.3   66 146 174   3
   2024 03 08 22:40  10 16 42.39    +20 48 55.4   0.0085 1.0008 157.9     15?   1.58  98.3   67 151 174   3
   2024 03 08 22:50  10 16 43.49    +20 48 52.9   0.0085 1.0008 157.9     15?   1.56 100.3   68 157 174   3
   2024 03 08 23:00  10 16 44.58    +20 48 49.8   0.0085 1.0008 157.9     15?   1.55 102.4   69 164 174   3
   2024 03 08 23:10  10 16 45.66    +20 48 46.2   0.0085 1.0008 157.9     15?   1.55 104.4   69 170 174   3
   2024 03 08 23:20  10 16 46.73    +20 48 42.1   0.0085 1.0008 157.9     15?   1.56 106.3   69 177 174   3
   2024 03 08 23:30  10 16 47.80    +20 48 37.5   0.0085 1.0008 157.9  t  15?   1.58 108.1   69 184 174   3
   2024 03 08 23:40  10 16 48.87    +20 48 32.3   0.0085 1.0008 157.9     15?   1.60 109.8   69 190 174   3
   2024 03 08 23:50  10 16 49.95    +20 48 26.6   0.0085 1.0008 157.9     15?   1.64 111.4   69 197 174   3
   2024 03 09 00:00  10 16 51.04    +20 48 20.4   0.0085 1.0008 157.9     15?   1.67 112.8   68 203 174   3
   2024 03 09 00:10  10 16 52.15    +20 48 13.6   0.0085 1.0008 157.9     15?   1.72 114.1   67 209 174   3
   2024 03 09 00:20  10 16 53.29    +20 48 06.3   0.0085 1.0008 157.9     15?   1.77 115.2   66 214 174   2
   2024 03 09 00:30  10 16 54.44    +20 47 58.5   0.0085 1.0008 157.9     15?   1.83 116.1   65 219 174   2
   2024 03 09 00:40  10 16 55.63    +20 47 50.2   0.0085 1.0008 157.9     15?   1.89 116.9   64 224 174   2
   2024 03 09 00:50  10 16 56.85    +20 47 41.4   0.0085 1.0008 157.9     15?   1.96 117.5   62 228 174   2
   2024 03 09 01:00  10 16 58.12    +20 47 32.2   0.0085 1.0009 157.9     15?   2.04 117.9   61 232 174   2
   2024 03 09 01:10  10 16 59.42    +20 47 22.4   0.0085 1.0009 157.9     15?   2.12 118.3   59 236 174   2
   2024 03 09 01:20  10 17 00.77    +20 47 12.1   0.0085 1.0009 157.9     15?   2.20 118.5   58 239 174   2
   2024 03 09 01:30  10 17 02.18    +20 47 01.4   0.0085 1.0009 157.9     15?   2.29 118.6   56 242 174   2
   2024 03 09 01:40  10 17 03.64    +20 46 50.3   0.0085 1.0009 157.9     15?   2.38 118.6   54 245 174   2
   2024 03 09 01:50  10 17 05.16    +20 46 38.7   0.0085 1.0009 157.9     15?   2.48 118.5   53 247 174   2
   2024 03 09 02:00  10 17 06.74    +20 46 26.6   0.0085 1.0009 157.9     15?   2.58 118.4   51 250 174   2
   2024 03 09 02:10  10 17 08.39    +20 46 14.2   0.0085 1.0009 157.9     15?   2.68 118.1   49 252 174   2
   2024 03 09 02:20  10 17 10.12    +20 46 01.4   0.0085 1.0009 157.9     15?   2.79 117.9   47 255 174   2
   2024 03 09 02:30  10 17 11.91    +20 45 48.2   0.0085 1.0009 157.9     15?   2.90 117.5   45 257 174   2
   2024 03 09 02:40  10 17 13.78    +20 45 34.6   0.0085 1.0009 157.9     15?   3.01 117.2   43 259 174   2
   2024 03 09 02:50  10 17 15.74    +20 45 20.7   0.0085 1.0009 157.9     15?   3.13 116.7   42 261 174   2
   2024 03 09 03:00  10 17 17.77    +20 45 06.5   0.0085 1.0009 157.9     15?   3.25 116.3   40 262 174   2
   2024 03 09 03:10  10 17 19.89    +20 44 51.9   0.0085 1.0009 157.9     15?   3.37 115.8   38 264 174   2
   2024 03 09 03:20  10 17 22.10    +20 44 37.1   0.0085 1.0009 157.9     15?   3.50 115.4   36 266 174   2
   2024 03 09 03:30  10 17 24.40    +20 44 22.0   0.0085 1.0009 157.9     15?   3.63 114.9   34 268 174   2
   2024 03 09 03:40  10 17 26.80    +20 44 06.6   0.0085 1.0009 157.9     15?   3.76 114.3   32 269 174   2
   2024 03 09 03:50  10 17 29.29    +20 43 51.0   0.0085 1.0009 157.9     15?   3.89 113.8   30 271 174   2
   2024 03 09 04:00  10 17 31.87    +20 43 35.2   0.0085 1.0009 157.9     15?   4.02 113.3   28 273 174   2
   2024 03 09 04:10  10 17 34.56    +20 43 19.2   0.0085 1.0009 157.9     15?   4.16 112.7   27 274 174   2
   2024 03 09 04:20  10 17 37.35    +20 43 03.0   0.0085 1.0009 157.9     15?   4.30 112.2   25 276 174   2
   2024 03 09 04:30  10 17 40.23    +20 42 46.7   0.0085 1.0009 158.0     15?   4.44 111.7   23 277 173   2
   2024 03 09 04:40  10 17 43.22    +20 42 30.3   0.0085 1.0009 158.0     15?   4.57 111.1   21 279 173   2
   2024 03 09 04:50  10 17 46.32    +20 42 13.8   0.0085 1.0009 158.0     15?   4.71 110.6   19 280 173   2
   2024 03 09 05:00  10 17 49.51    +20 41 57.2   0.0085 1.0009 158.0     15?   4.85 110.1   17 282 173   2
   2024 03 09 05:10  10 17 52.82    +20 41 40.5   0.0085 1.0009 158.0 A   15?   5.00 109.5   15 283 173   2
   2024 03 09 05:20  10 17 56.23    +20 41 23.8   0.0086 1.0009 158.0 A   15?   5.14 109.0   14 285 173   2
   2024 03 09 05:30  10 17 59.74    +20 41 07.1   0.0086 1.0009 158.0 A   15?   5.28 108.5   12 286 173   2
   2024 03 09 05:40  10 18 03.36    +20 40 50.4   0.0086 1.0009 158.0 N   15?   5.42 108.0   10 288 173   2
   2024 03 09 05:50  10 18 07.08    +20 40 33.8   0.0086 1.0009 158.0 N   15?   5.55 107.4    8 289 173   2
   2024 03 09 06:00  10 18 10.91    +20 40 17.2   0.0086 1.0009 158.0 N   15?   5.69 106.9    6 291 173   1
   2024 03 09 06:10  10 18 14.84    +20 40 00.7   0.0086 1.0009 158.0 C   15?   5.83 106.4    5 292 173   1
   2024 03 09 06:20  10 18 18.88    +20 39 44.2   0.0086 1.0009 158.0 Cm  15?   5.96 105.9    3 294 173   1
   ................
   2024 03 09 18:30  10 24 23.47    +20 35 50.8   0.0085 1.0010 158.6 C   15?   4.11  81.6   24  83 168   0
   2024 03 09 18:40  10 24 26.31    +20 35 56.8   0.0085 1.0010 158.6 C   15?   3.96  81.5   26  85 168   0
   2024 03 09 18:50  10 24 29.06    +20 36 02.7   0.0085 1.0010 158.6 N   15?   3.82  81.4   28  86 168   0
   2024 03 09 19:00  10 24 31.70    +20 36 08.3   0.0085 1.0010 158.6 N   15?   3.68  81.4   30  88 168   0
   2024 03 09 19:10  10 24 34.25    +20 36 13.7   0.0085 1.0010 158.6 N   15?   3.55  81.4   32  89 168   0
   2024 03 09 19:20  10 24 36.70    +20 36 18.9   0.0085 1.0010 158.6 A   15?   3.41  81.5   34  91 168   0
   2024 03 09 19:30  10 24 39.06    +20 36 23.9   0.0085 1.0010 158.6 A   15?   3.28  81.6   35  93 167   0
   2024 03 09 19:40  10 24 41.32    +20 36 28.6   0.0085 1.0010 158.6 A   15?   3.15  81.8   37  94 167   0
   2024 03 09 19:50  10 24 43.50    +20 36 32.9   0.0085 1.0010 158.6     15?   3.03  82.0   39  96 167   0
   2024 03 09 20:00  10 24 45.59    +20 36 37.0   0.0085 1.0010 158.6     15?   2.90  82.3   41  98 167   0
   2024 03 09 20:10  10 24 47.60    +20 36 40.8   0.0085 1.0010 158.6     15?   2.79  82.7   43 100 167   0
   2024 03 09 20:20  10 24 49.53    +20 36 44.2   0.0085 1.0010 158.6     15?   2.67  83.1   45 102 167   0
   2024 03 09 20:30  10 24 51.38    +20 36 47.3   0.0085 1.0011 158.6     15?   2.56  83.6   47 104 167   0
   2024 03 09 20:40  10 24 53.16    +20 36 49.9   0.0085 1.0011 158.6     15?   2.46  84.3   48 106 167   0
   2024 03 09 20:50  10 24 54.86    +20 36 52.2   0.0085 1.0011 158.6     15?   2.36  85.0   50 109 167   0
   2024 03 09 21:00  10 24 56.50    +20 36 54.1   0.0085 1.0011 158.6     15?   2.26  85.8   52 111 167   0
   2024 03 09 21:10  10 24 58.07    +20 36 55.5   0.0085 1.0011 158.6     15?   2.17  86.8   54 114 166   0
   2024 03 09 21:20  10 24 59.59    +20 36 56.5   0.0085 1.0011 158.6     15?   2.09  87.9   55 117 166   0
   2024 03 09 21:30  10 25 01.05    +20 36 57.1   0.0085 1.0011 158.6     15?   2.01  89.1   57 120 166   0
   2024 03 09 21:40  10 25 02.45    +20 36 57.2   0.0085 1.0011 158.6     15?   1.94  90.5   59 123 166   0
   2024 03 09 21:50  10 25 03.81    +20 36 56.8   0.0085 1.0011 158.6     15?   1.87  91.9   60 126 166   0
   2024 03 09 22:00  10 25 05.12    +20 36 56.0   0.0085 1.0011 158.6     15?   1.82  93.5   62 130 166   0
   2024 03 09 22:10  10 25 06.39    +20 36 54.6   0.0085 1.0011 158.6     15?   1.77  95.2   63 134 166   0
   2024 03 09 22:20  10 25 07.63    +20 36 52.8   0.0085 1.0011 158.6     15?   1.73  97.0   64 139 166   0
   2024 03 09 22:30  10 25 08.84    +20 36 50.4   0.0085 1.0011 158.6     15?   1.69  98.9   66 144 166   0
   2024 03 09 22:40  10 25 10.02    +20 36 47.6   0.0085 1.0011 158.5     15?   1.67 100.8   67 149 165   0
   2024 03 09 22:50  10 25 11.18    +20 36 44.2   0.0085 1.0011 158.5     15?   1.65 102.7   68 155 165   0
   2024 03 09 23:00  10 25 12.32    +20 36 40.3   0.0085 1.0011 158.5     15?   1.64 104.7   68 161 165   0
   2024 03 09 23:10  10 25 13.44    +20 36 35.9   0.0085 1.0011 158.5     15?   1.64 106.6   69 167 165   0
   2024 03 09 23:20  10 25 14.56    +20 36 30.9   0.0085 1.0011 158.5     15?   1.65 108.4   69 174 165   0
   2024 03 09 23:30  10 25 15.68    +20 36 25.4   0.0085 1.0011 158.5  t  15?   1.67 110.2   69 181 165   0
   2024 03 09 23:40  10 25 16.80    +20 36 19.4   0.0085 1.0011 158.5     15?   1.69 111.8   69 187 165   0
   2024 03 09 23:50  10 25 17.92    +20 36 12.8   0.0085 1.0011 158.5     15?   1.72 113.3   69 194 165   0
   2024 03 10 00:00  10 25 19.05    +20 36 05.8   0.0085 1.0011 158.5     15?   1.76 114.6   68 200 165   0
   2024 03 10 00:10  10 25 20.20    +20 35 58.2   0.0085 1.0011 158.5     15?   1.80 115.8   67 206 164   0
   2024 03 10 00:20  10 25 21.37    +20 35 50.1   0.0085 1.0011 158.5     15?   1.85 116.9   66 212 164   0
   2024 03 10 00:30  10 25 22.56    +20 35 41.4   0.0085 1.0011 158.5     15?   1.91 117.7   65 217 164   0
   2024 03 10 00:40  10 25 23.78    +20 35 32.3   0.0085 1.0011 158.5     15?   1.97 118.4   64 222 164   0
   2024 03 10 00:50  10 25 25.03    +20 35 22.6   0.0085 1.0011 158.5     15?   2.04 119.0   63 226 164   0
   2024 03 10 01:00  10 25 26.32    +20 35 12.5   0.0085 1.0011 158.5     15?   2.11 119.4   61 230 164   0
   2024 03 10 01:10  10 25 27.65    +20 35 01.9   0.0085 1.0011 158.5     15?   2.19 119.7   60 234 164   0
   2024 03 10 01:20  10 25 29.03    +20 34 50.8   0.0085 1.0011 158.5     15?   2.27 119.9   58 237 164   0
   2024 03 10 01:30  10 25 30.46    +20 34 39.2   0.0085 1.0011 158.5     15?   2.36 120.0   57 240 164   0
   2024 03 10 01:40  10 25 31.94    +20 34 27.2   0.0085 1.0011 158.5     15?   2.45 120.0   55 243 163   0
   2024 03 10 01:50  10 25 33.48    +20 34 14.7   0.0085 1.0011 158.5     15?   2.55 119.9   53 246 163   0
   2024 03 10 02:00  10 25 35.09    +20 34 01.8   0.0085 1.0011 158.5     15?   2.64 119.7   51 249 163   0
   2024 03 10 02:10  10 25 36.76    +20 33 48.5   0.0085 1.0011 158.5     15?   2.75 119.5   50 251 163   0
   2024 03 10 02:20  10 25 38.49    +20 33 34.8   0.0085 1.0011 158.5     15?   2.85 119.2   48 253 163   0
   2024 03 10 02:30  10 25 40.31    +20 33 20.7   0.0085 1.0011 158.5     15?   2.96 118.8   46 255 163   0
   2024 03 10 02:40  10 25 42.19    +20 33 06.2   0.0085 1.0011 158.5     15?   3.08 118.4   44 258 163   0
   2024 03 10 02:50  10 25 44.16    +20 32 51.4   0.0085 1.0011 158.5     15?   3.19 118.0   42 260 163   0
   2024 03 10 03:00  10 25 46.21    +20 32 36.2   0.0085 1.0011 158.5     15?   3.31 117.6   40 261 163   0
   2024 03 10 03:10  10 25 48.34    +20 32 20.8   0.0085 1.0011 158.5     15?   3.43 117.1   39 263 162   0
   2024 03 10 03:20  10 25 50.56    +20 32 05.0   0.0085 1.0011 158.5     15?   3.56 116.6   37 265 162   0
   2024 03 10 03:30  10 25 52.87    +20 31 49.0   0.0085 1.0011 158.5     15?   3.69 116.1   35 267 162   0
   2024 03 10 03:40  10 25 55.28    +20 31 32.7   0.0085 1.0011 158.5     15?   3.81 115.5   33 268 162   0
   2024 03 10 03:50  10 25 57.77    +20 31 16.1   0.0085 1.0011 158.6     15?   3.95 115.0   31 270 162   0
   2024 03 10 04:00  10 26 00.37    +20 30 59.3   0.0085 1.0011 158.6     15?   4.08 114.4   29 272 162   0
   2024 03 10 04:10  10 26 03.06    +20 30 42.4   0.0085 1.0011 158.6     15?   4.21 113.9   27 273 162   0
   2024 03 10 04:20  10 26 05.86    +20 30 25.3   0.0085 1.0011 158.6     15?   4.35 113.3   25 275 162   0
   2024 03 10 04:30  10 26 08.75    +20 30 08.0   0.0085 1.0011 158.6     15?   4.49 112.8   23 276 162   0
   2024 03 10 04:40  10 26 11.75    +20 29 50.5   0.0085 1.0011 158.6     15?   4.63 112.2   22 278 162   0
   2024 03 10 04:50  10 26 14.85    +20 29 33.0   0.0085 1.0011 158.6     15?   4.77 111.6   20 279 161   0
   2024 03 10 05:00  10 26 18.06    +20 29 15.4   0.0085 1.0011 158.6     15?   4.91 111.1   18 281 161   0
   2024 03 10 05:10  10 26 21.37    +20 28 57.7   0.0085 1.0011 158.6 A   15?   5.05 110.5   16 282 161   0
   2024 03 10 05:20  10 26 24.79    +20 28 40.0   0.0085 1.0011 158.6 A   15?   5.19 110.0   14 284 161   0
   2024 03 10 05:30  10 26 28.31    +20 28 22.2   0.0085 1.0011 158.6 A   15?   5.33 109.5   12 285 161   0
   2024 03 10 05:40  10 26 31.94    +20 28 04.5   0.0085 1.0011 158.6 N   15?   5.47 108.9   11 287 161   0
   2024 03 10 05:50  10 26 35.68    +20 27 46.7   0.0085 1.0011 158.6 N   15?   5.61 108.4    9 288 161   0
   2024 03 10 06:00  10 26 39.52    +20 27 29.1   0.0085 1.0012 158.6 N   15?   5.75 107.9    7 290 161   0
   2024 03 10 06:10  10 26 43.46    +20 27 11.5   0.0085 1.0012 158.6 C   15?   5.89 107.4    5 291 161   0
   2024 03 10 06:20  10 26 47.51    +20 26 53.9   0.0085 1.0012 158.6 C   15?   6.02 106.9    4 293 161   0
   ................
   2024 03 10 18:30  10 32 57.27    +20 21 27.9   0.0085 1.0013 159.2 Cm  15?   4.24  83.4   23  83 156   0
   2024 03 10 18:40  10 33 00.21    +20 21 32.8   0.0085 1.0013 159.2 Cm  15?   4.09  83.3   25  84 155   0
   2024 03 10 18:50  10 33 03.06    +20 21 37.5   0.0085 1.0013 159.2 N   15?   3.95  83.3   27  86 155   0
   2024 03 10 19:00  10 33 05.80    +20 21 42.0   0.0085 1.0013 159.2 N   15?   3.81  83.4   29  87 155   0
   2024 03 10 19:10  10 33 08.44    +20 21 46.3   0.0085 1.0013 159.2 N   15?   3.67  83.5   31  89 155   0
   2024 03 10 19:20  10 33 10.99    +20 21 50.5   0.0085 1.0013 159.2 A   15?   3.54  83.6   33  91 155   0
   2024 03 10 19:30  10 33 13.44    +20 21 54.3   0.0085 1.0013 159.2 A   15?   3.40  83.7   34  92 155   0
   2024 03 10 19:40  10 33 15.80    +20 21 57.9   0.0085 1.0013 159.2 A   15?   3.27  84.0   36  94 155   0
   2024 03 10 19:50  10 33 18.07    +20 22 01.3   0.0085 1.0013 159.2     15?   3.15  84.2   38  96 155   0
   2024 03 10 20:00  10 33 20.25    +20 22 04.3   0.0085 1.0013 159.2     15?   3.02  84.6   40  97 155   0
   2024 03 10 20:10  10 33 22.35    +20 22 07.0   0.0084 1.0013 159.2     15?   2.90  85.0   42  99 155   0
   2024 03 10 20:20  10 33 24.36    +20 22 09.4   0.0084 1.0013 159.2     15?   2.79  85.5   44 101 154   0
   2024 03 10 20:30  10 33 26.30    +20 22 11.5   0.0084 1.0013 159.2     15?   2.67  86.1   46 103 154   0
   2024 03 10 20:40  10 33 28.16    +20 22 13.1   0.0084 1.0013 159.2     15?   2.57  86.8   47 106 154   0
   2024 03 10 20:50  10 33 29.94    +20 22 14.4   0.0084 1.0013 159.2     15?   2.46  87.5   49 108 154   0
   2024 03 10 21:00  10 33 31.66    +20 22 15.3   0.0084 1.0013 159.2     15?   2.37  88.4   51 110 154   0
   2024 03 10 21:10  10 33 33.31    +20 22 15.7   0.0084 1.0013 159.2     15?   2.28  89.4   53 113 154   0
   2024 03 10 21:20  10 33 34.90    +20 22 15.8   0.0084 1.0013 159.2     15?   2.19  90.5   55 116 154   0
   2024 03 10 21:30  10 33 36.43    +20 22 15.4   0.0084 1.0013 159.2     15?   2.11  91.8   56 118 154   0
   2024 03 10 21:40  10 33 37.91    +20 22 14.5   0.0084 1.0013 159.2     15?   2.04  93.1   58 122 154   0
   2024 03 10 21:50  10 33 39.33    +20 22 13.2   0.0084 1.0013 159.2     15?   1.98  94.6   59 125 153   0
   2024 03 10 22:00  10 33 40.71    +20 22 11.4   0.0084 1.0013 159.2     15?   1.92  96.2   61 129 153   0
   2024 03 10 22:10  10 33 42.05    +20 22 09.1   0.0084 1.0013 159.2     15?   1.87  97.8   62 133 153   0
   2024 03 10 22:20  10 33 43.35    +20 22 06.3   0.0084 1.0013 159.2     15?   1.83  99.6   64 137 153   0
   2024 03 10 22:30  10 33 44.62    +20 22 03.0   0.0084 1.0013 159.2     15?   1.80 101.4   65 142 153   0
   2024 03 10 22:40  10 33 45.86    +20 21 59.2   0.0084 1.0013 159.2     15?   1.77 103.2   66 147 153   0
   2024 03 10 22:50  10 33 47.07    +20 21 54.9   0.0084 1.0013 159.2     15?   1.75 105.1   67 152 153   0
   2024 03 10 23:00  10 33 48.26    +20 21 50.1   0.0084 1.0013 159.2     15?   1.74 107.0   68 158 153   0
   2024 03 10 23:10  10 33 49.44    +20 21 44.8   0.0084 1.0013 159.2     15?   1.74 108.8   68 164 152   0
   2024 03 10 23:20  10 33 50.61    +20 21 38.9   0.0084 1.0013 159.2     15?   1.75 110.5   69 171 152   0
   2024 03 10 23:30  10 33 51.77    +20 21 32.5   0.0084 1.0013 159.2     15?   1.76 112.2   69 177 152   0
   2024 03 10 23:40  10 33 52.94    +20 21 25.6   0.0084 1.0013 159.2  t  15?   1.79 113.7   69 184 152   0
   2024 03 10 23:50  10 33 54.10    +20 21 18.1   0.0084 1.0013 159.2     15?   1.82 115.1   69 191 152   0
   2024 03 11 00:00  10 33 55.27    +20 21 10.2   0.0084 1.0013 159.2     15?   1.85 116.4   68 197 152   0
   2024 03 11 00:10  10 33 56.46    +20 21 01.7   0.0084 1.0013 159.2     15?   1.89 117.5   67 203 152   0
   2024 03 11 00:20  10 33 57.66    +20 20 52.7   0.0084 1.0013 159.2     15?   1.94 118.5   67 209 152   0
   2024 03 11 00:30  10 33 58.89    +20 20 43.1   0.0084 1.0013 159.1     15?   2.00 119.3   66 214 152   0
   2024 03 11 00:40  10 34 00.14    +20 20 33.1   0.0084 1.0013 159.1     15?   2.06 120.0   64 219 151   0
   2024 03 11 00:50  10 34 01.43    +20 20 22.6   0.0084 1.0013 159.1     15?   2.12 120.5   63 224 151   0
   2024 03 11 01:00  10 34 02.74    +20 20 11.5   0.0084 1.0013 159.1     15?   2.19 120.9   62 228 151   0
   2024 03 11 01:10  10 34 04.10    +20 20 00.0   0.0084 1.0014 159.1     15?   2.27 121.2   60 232 151   0
   2024 03 11 01:20  10 34 05.51    +20 19 48.0   0.0084 1.0014 159.1     15?   2.35 121.4   59 235 151   0
   2024 03 11 01:30  10 34 06.96    +20 19 35.5   0.0084 1.0014 159.1     15?   2.44 121.4   57 239 151   0
   2024 03 11 01:40  10 34 08.46    +20 19 22.6   0.0084 1.0014 159.1     15?   2.52 121.4   56 242 151   0
   2024 03 11 01:50  10 34 10.02    +20 19 09.2   0.0084 1.0014 159.1     15?   2.62 121.3   54 244 151   0
   2024 03 11 02:00  10 34 11.65    +20 18 55.4   0.0084 1.0014 159.1     15?   2.72 121.1   52 247 150   0
   2024 03 11 02:10  10 34 13.33    +20 18 41.2   0.0084 1.0014 159.2     15?   2.82 120.8   50 250 150   0
   2024 03 11 02:20  10 34 15.09    +20 18 26.6   0.0084 1.0014 159.2     15?   2.92 120.5   49 252 150   0
   2024 03 11 02:30  10 34 16.91    +20 18 11.5   0.0084 1.0014 159.2     15?   3.03 120.2   47 254 150   0
   2024 03 11 02:40  10 34 18.81    +20 17 56.1   0.0084 1.0014 159.2     15?   3.14 119.7   45 256 150   0
   2024 03 11 02:50  10 34 20.79    +20 17 40.4   0.0084 1.0014 159.2     15?   3.26 119.3   43 258 150   0
   2024 03 11 03:00  10 34 22.85    +20 17 24.3   0.0084 1.0014 159.2     15?   3.37 118.8   41 260 150   0
   2024 03 11 03:10  10 34 24.99    +20 17 07.9   0.0084 1.0014 159.2     15?   3.49 118.3   39 262 150   0
   2024 03 11 03:20  10 34 27.22    +20 16 51.1   0.0084 1.0014 159.2     15?   3.62 117.8   37 264 150   0
   2024 03 11 03:30  10 34 29.54    +20 16 34.1   0.0084 1.0014 159.2     15?   3.74 117.3   36 266 149   0
   2024 03 11 03:40  10 34 31.95    +20 16 16.8   0.0084 1.0014 159.2     15?   3.87 116.7   34 267 149   0
   2024 03 11 03:50  10 34 34.46    +20 15 59.3   0.0084 1.0014 159.2     15?   4.00 116.2   32 269 149   1
   2024 03 11 04:00  10 34 37.06    +20 15 41.6   0.0084 1.0014 159.2     15?   4.14 115.6   30 271 149   1
   2024 03 11 04:10  10 34 39.76    +20 15 23.6   0.0084 1.0014 159.2     15?   4.27 115.0   28 272 149   1
   2024 03 11 04:20  10 34 42.56    +20 15 05.5   0.0084 1.0014 159.2     15?   4.41 114.4   26 274 149   1
   2024 03 11 04:30  10 34 45.46    +20 14 47.2   0.0084 1.0014 159.2     15?   4.54 113.9   24 275 149   1
   2024 03 11 04:40  10 34 48.46    +20 14 28.7   0.0084 1.0014 159.2     15?   4.68 113.3   22 277 149   1
   2024 03 11 04:50  10 34 51.57    +20 14 10.2   0.0084 1.0014 159.2     15?   4.82 112.7   20 278 149   1
   2024 03 11 05:00  10 34 54.78    +20 13 51.5   0.0084 1.0014 159.2     15?   4.96 112.2   19 280 148   1
   2024 03 11 05:10  10 34 58.10    +20 13 32.8   0.0084 1.0014 159.2 A   15?   5.10 111.6   17 281 148   1
   2024 03 11 05:20  10 35 01.52    +20 13 14.0   0.0084 1.0014 159.2 A   15?   5.24 111.0   15 283 148   1
   2024 03 11 05:30  10 35 05.05    +20 12 55.1   0.0084 1.0014 159.2 A   15?   5.38 110.5   13 284 148   1
   2024 03 11 05:40  10 35 08.69    +20 12 36.3   0.0085 1.0014 159.2 N   15?   5.52 109.9   11 286 148   1
   2024 03 11 05:50  10 35 12.43    +20 12 17.5   0.0085 1.0014 159.2 N   15?   5.66 109.4    9 287 148   1
   2024 03 11 06:00  10 35 16.28    +20 11 58.7   0.0085 1.0014 159.3 N   15?   5.80 108.9    8 289 148   1
   2024 03 11 06:10  10 35 20.23    +20 11 40.0   0.0085 1.0014 159.3 C   15?   5.94 108.3    6 291 148   1
   2024 03 11 06:20  10 35 24.29    +20 11 21.3   0.0085 1.0014 159.3 C   15?   6.08 107.8    4 292 148   1
   ................
   2024 03 11 18:30  10 41 38.97    +20 04 17.8   0.0084 1.0015 159.8 Cm  15?   4.38  85.2   22  82 142   2
   2024 03 11 18:40  10 41 42.01    +20 04 21.5   0.0084 1.0015 159.8 Cm  15?   4.23  85.2   24  84 142   2
   2024 03 11 18:50  10 41 44.95    +20 04 25.0   0.0084 1.0015 159.8 Nm  15?   4.09  85.3   26  85 142   2
   2024 03 11 19:00  10 41 47.79    +20 04 28.3   0.0084 1.0015 159.8 Nm  15?   3.94  85.3   28  87 142   2
   2024 03 11 19:10  10 41 50.53    +20 04 31.4   0.0084 1.0015 159.8 Nm  15?   3.80  85.5   30  88 142   2
   2024 03 11 19:20  10 41 53.17    +20 04 34.4   0.0084 1.0015 159.8 Am  15?   3.67  85.6   31  90 142   2
   2024 03 11 19:30  10 41 55.72    +20 04 37.1   0.0084 1.0015 159.8 Am  15?   3.53  85.8   33  92 142   2
   2024 03 11 19:40  10 41 58.17    +20 04 39.5   0.0084 1.0015 159.8 Am  15?   3.40  86.1   35  93 142   2
   2024 03 11 19:50  10 42 00.54    +20 04 41.7   0.0084 1.0015 159.8  m  15?   3.27  86.5   37  95 142   2
   2024 03 11 20:00  10 42 02.81    +20 04 43.6   0.0084 1.0015 159.8  m  15?   3.14  86.8   39  97 142   2
   2024 03 11 20:10  10 42 04.99    +20 04 45.2   0.0084 1.0016 159.8     15?   3.02  87.3   41  99 142   2
   2024 03 11 20:20  10 42 07.10    +20 04 46.5   0.0084 1.0016 159.8     15?   2.91  87.9   43 101 141   3
   2024 03 11 20:30  10 42 09.12    +20 04 47.4   0.0084 1.0016 159.8     15?   2.79  88.5   45 103 141   3
   2024 03 11 20:40  10 42 11.06    +20 04 48.0   0.0084 1.0016 159.8     15?   2.68  89.2   46 105 141   3
   2024 03 11 20:50  10 42 12.93    +20 04 48.2   0.0084 1.0016 159.8     15?   2.58  90.0   48 107 141   3
   2024 03 11 21:00  10 42 14.72    +20 04 48.0   0.0084 1.0016 159.8     15?   2.48  91.0   50 109 141   3
   2024 03 11 21:10  10 42 16.45    +20 04 47.4   0.0084 1.0016 159.8     15?   2.39  92.0   52 112 141   3
   2024 03 11 21:20  10 42 18.12    +20 04 46.4   0.0084 1.0016 159.8     15?   2.31  93.1   54 115 141   3
   2024 03 11 21:30  10 42 19.72    +20 04 44.9   0.0084 1.0016 159.8     15?   2.23  94.3   55 117 141   3
   2024 03 11 21:40  10 42 21.27    +20 04 43.0   0.0084 1.0016 159.8     15?   2.15  95.7   57 120 141   3
   2024 03 11 21:50  10 42 22.77    +20 04 40.7   0.0084 1.0016 159.8     15?   2.09  97.2   58 124 141   3
   2024 03 11 22:00  10 42 24.21    +20 04 37.9   0.0084 1.0016 159.8     15?   2.03  98.7   60 127 140   3
   2024 03 11 22:10  10 42 25.62    +20 04 34.6   0.0084 1.0016 159.8     15?   1.98 100.3   61 131 140   3
   2024 03 11 22:20  10 42 26.98    +20 04 30.8   0.0084 1.0016 159.8     15?   1.94 102.0   63 135 140   3
   2024 03 11 22:30  10 42 28.31    +20 04 26.5   0.0084 1.0016 159.8     15?   1.90 103.8   64 140 140   3
   2024 03 11 22:40  10 42 29.61    +20 04 21.8   0.0084 1.0016 159.8     15?   1.88 105.5   65 145 140   3
   2024 03 11 22:50  10 42 30.88    +20 04 16.5   0.0084 1.0016 159.8     15?   1.86 107.3   66 150 140   3
   2024 03 11 23:00  10 42 32.12    +20 04 10.7   0.0084 1.0016 159.8     15?   1.85 109.1   67 156 140   3
   2024 03 11 23:10  10 42 33.35    +20 04 04.4   0.0084 1.0016 159.8     15?   1.85 110.9   68 162 140   3
   2024 03 11 23:20  10 42 34.57    +20 03 57.5   0.0084 1.0016 159.8     15?   1.85 112.5   68 168 140   3
   2024 03 11 23:30  10 42 35.78    +20 03 50.2   0.0084 1.0016 159.8     15?   1.86 114.1   68 174 139   3
   2024 03 11 23:40  10 42 36.99    +20 03 42.3   0.0084 1.0016 159.8  t  15?   1.88 115.6   69 181 139   3
   2024 03 11 23:50  10 42 38.20    +20 03 33.9   0.0084 1.0016 159.8     15?   1.91 116.9   68 187 139   3
   2024 03 12 00:00  10 42 39.41    +20 03 25.0   0.0084 1.0016 159.8     15?   1.95 118.1   68 194 139   3
   2024 03 12 00:10  10 42 40.64    +20 03 15.6   0.0084 1.0016 159.8     15?   1.99 119.2   67 200 139   3
   2024 03 12 00:20  10 42 41.88    +20 03 05.6   0.0084 1.0016 159.8     15?   2.04 120.1   67 206 139   3
   2024 03 12 00:30  10 42 43.14    +20 02 55.2   0.0084 1.0016 159.8     15?   2.09 120.9   66 211 139   3
   2024 03 12 00:40  10 42 44.42    +20 02 44.2   0.0084 1.0016 159.8     15?   2.15 121.5   65 216 139   3
   2024 03 12 00:50  10 42 45.74    +20 02 32.7   0.0084 1.0016 159.8     15?   2.21 122.0   63 221 138   4
   2024 03 12 01:00  10 42 47.08    +20 02 20.7   0.0084 1.0016 159.8     15?   2.28 122.4   62 226 138   4
   2024 03 12 01:10  10 42 48.47    +20 02 08.3   0.0084 1.0016 159.8     15?   2.35 122.7   61 230 138   4
   2024 03 12 01:20  10 42 49.90    +20 01 55.3   0.0084 1.0016 159.8     15?   2.43 122.8   59 233 138   4
   2024 03 12 01:30  10 42 51.37    +20 01 41.9   0.0084 1.0016 159.8     15?   2.51 122.8   58 237 138   4
   2024 03 12 01:40  10 42 52.90    +20 01 28.1   0.0084 1.0016 159.8     15?   2.60 122.8   56 240 138   4
   2024 03 12 01:50  10 42 54.48    +20 01 13.7   0.0084 1.0016 159.8     15?   2.69 122.7   54 243 138   4
   2024 03 12 02:00  10 42 56.11    +20 00 59.0   0.0084 1.0016 159.8     15?   2.79 122.5   53 246 138   4
   2024 03 12 02:10  10 42 57.82    +20 00 43.8   0.0084 1.0016 159.8     15?   2.89 122.2   51 248 137   4
   2024 03 12 02:20  10 42 59.58    +20 00 28.2   0.0084 1.0016 159.8     15?   2.99 121.8   49 251 137   4
   2024 03 12 02:30  10 43 01.42    +20 00 12.3   0.0084 1.0016 159.8     15?   3.10 121.5   47 253 137   4
   2024 03 12 02:40  10 43 03.33    +19 59 55.9   0.0084 1.0016 159.8     15?   3.21 121.0   46 255 137   4
   2024 03 12 02:50  10 43 05.32    +19 59 39.2   0.0084 1.0016 159.8     15?   3.32 120.6   44 257 137   4
   2024 03 12 03:00  10 43 07.39    +19 59 22.1   0.0084 1.0016 159.8     15?   3.44 120.1   42 259 137   4
   2024 03 12 03:10  10 43 09.54    +19 59 04.8   0.0084 1.0016 159.8     15?   3.56 119.6   40 261 137   4
   2024 03 12 03:20  10 43 11.78    +19 58 47.1   0.0084 1.0016 159.8     15?   3.68 119.0   38 263 137   4
   2024 03 12 03:30  10 43 14.10    +19 58 29.1   0.0084 1.0016 159.8     15?   3.80 118.5   36 265 137   4
   2024 03 12 03:40  10 43 16.52    +19 58 10.8   0.0084 1.0016 159.8     15?   3.93 117.9   34 266 136   4
   2024 03 12 03:50  10 43 19.03    +19 57 52.3   0.0084 1.0016 159.8     15?   4.06 117.3   32 268 136   4
   2024 03 12 04:00  10 43 21.63    +19 57 33.5   0.0084 1.0016 159.8     15?   4.19 116.8   31 270 136   4
   2024 03 12 04:10  10 43 24.33    +19 57 14.6   0.0084 1.0016 159.8     15?   4.32 116.2   29 271 136   4
   2024 03 12 04:20  10 43 27.14    +19 56 55.4   0.0084 1.0016 159.8     15?   4.46 115.6   27 273 136   4
   2024 03 12 04:30  10 43 30.04    +19 56 36.1   0.0084 1.0016 159.8     15?   4.59 115.0   25 274 136   4
   2024 03 12 04:40  10 43 33.04    +19 56 16.6   0.0084 1.0016 159.8     15?   4.73 114.4   23 276 136   5
   2024 03 12 04:50  10 43 36.15    +19 55 57.0   0.0084 1.0016 159.8     15?   4.87 113.8   21 277 136   5
   2024 03 12 05:00  10 43 39.37    +19 55 37.2   0.0084 1.0016 159.8 A   15?   5.01 113.2   19 279 136   5
   2024 03 12 05:10  10 43 42.68    +19 55 17.4   0.0084 1.0016 159.9 A   15?   5.15 112.7   17 280 135   5
   2024 03 12 05:20  10 43 46.11    +19 54 57.6   0.0084 1.0016 159.9 A   15?   5.29 112.1   16 282 135   5
   2024 03 12 05:30  10 43 49.64    +19 54 37.7   0.0084 1.0017 159.9 A   15?   5.43 111.5   14 283 135   5
   2024 03 12 05:40  10 43 53.28    +19 54 17.7   0.0084 1.0017 159.9 N   15?   5.57 111.0   12 285 135   5
   2024 03 12 05:50  10 43 57.02    +19 53 57.8   0.0084 1.0017 159.9 N   15?   5.71 110.4   10 287 135   5
   2024 03 12 06:00  10 44 00.87    +19 53 37.9   0.0084 1.0017 159.9 N   15?   5.85 109.9    8 288 135   5
   2024 03 12 06:10  10 44 04.82    +19 53 18.0   0.0084 1.0017 159.9 C   15?   5.99 109.3    7 290 135   5
   2024 03 12 06:20  10 44 08.89    +19 52 58.3   0.0084 1.0017 159.9 C   15?   6.13 108.8    5 291 135   5
   ................
   2024 03 12 18:30  10 50 28.15    +19 44 13.3   0.0084 1.0018 160.4 Cm  15?   4.52  87.0   21  82 130   8
   2024 03 12 18:40  10 50 31.30    +19 44 15.6   0.0084 1.0018 160.4 Cm  15?   4.37  87.1   23  83 130   8
   2024 03 12 18:50  10 50 34.34    +19 44 17.8   0.0084 1.0018 160.4 Nm  15?   4.22  87.1   25  85 129   8
   2024 03 12 19:00  10 50 37.27    +19 44 19.9   0.0084 1.0018 160.4 Nm  15?   4.08  87.3   27  86 129   8
   2024 03 12 19:10  10 50 40.11    +19 44 21.8   0.0084 1.0018 160.4 Nm  15?   3.94  87.5   28  88 129   8
   2024 03 12 19:20  10 50 42.85    +19 44 23.4   0.0084 1.0018 160.4 Am  15?   3.80  87.7   30  90 129   8
   2024 03 12 19:30  10 50 45.49    +19 44 24.9   0.0084 1.0018 160.4 Am  15?   3.66  87.9   32  91 129   8
   2024 03 12 19:40  10 50 48.04    +19 44 26.1   0.0084 1.0018 160.4 Am  15?   3.53  88.3   34  93 129   8
   2024 03 12 19:50  10 50 50.49    +19 44 27.1   0.0084 1.0018 160.4  m  15?   3.40  88.6   36  95 129   8
   2024 03 12 20:00  10 50 52.85    +19 44 27.8   0.0084 1.0018 160.4  m  15?   3.27  89.1   38  96 129   8
   2024 03 12 20:10  10 50 55.13    +19 44 28.2   0.0084 1.0018 160.4  m  15?   3.15  89.6   40  98 129   8
   2024 03 12 20:20  10 50 57.31    +19 44 28.3   0.0084 1.0018 160.4  m  15?   3.03  90.2   42 100 129   8
   2024 03 12 20:30  10 50 59.42    +19 44 28.1   0.0084 1.0018 160.4  m  15?   2.92  90.8   43 102 129   8
   2024 03 12 20:40  10 51 01.45    +19 44 27.5   0.0084 1.0018 160.4  m  15?   2.81  91.6   45 104 129   8
   2024 03 12 20:50  10 51 03.40    +19 44 26.5   0.0084 1.0018 160.4  m  15?   2.70  92.5   47 106 128   8
   2024 03 12 21:00  10 51 05.27    +19 44 25.2   0.0084 1.0018 160.4  m  15?   2.60  93.4   49 109 128   8
   2024 03 12 21:10  10 51 07.08    +19 44 23.5   0.0084 1.0018 160.4  m  15?   2.51  94.4   51 111 128   8
   2024 03 12 21:20  10 51 08.82    +19 44 21.3   0.0084 1.0018 160.4     15?   2.42  95.6   52 114 128   8
   2024 03 12 21:30  10 51 10.50    +19 44 18.8   0.0084 1.0018 160.4     15?   2.34  96.8   54 116 128   8
   2024 03 12 21:40  10 51 12.12    +19 44 15.8   0.0084 1.0018 160.4     15?   2.27  98.2   56 119 128   8
   2024 03 12 21:50  10 51 13.68    +19 44 12.3   0.0084 1.0018 160.4     15?   2.20  99.6   57 123 128   8
   2024 03 12 22:00  10 51 15.20    +19 44 08.4   0.0084 1.0018 160.4     15?   2.14 101.1   59 126 128   8
   2024 03 12 22:10  10 51 16.67    +19 44 04.1   0.0083 1.0018 160.4     15?   2.09 102.7   60 130 128   9
   2024 03 12 22:20  10 51 18.09    +19 43 59.3   0.0083 1.0018 160.4     15?   2.05 104.3   62 134 128   9
   2024 03 12 22:30  10 51 19.48    +19 43 53.9   0.0083 1.0018 160.4     15?   2.01 106.0   63 138 127   9
   2024 03 12 22:40  10 51 20.84    +19 43 48.1   0.0083 1.0018 160.4     15?   1.99 107.8   64 143 127   9
   2024 03 12 22:50  10 51 22.16    +19 43 41.8   0.0083 1.0018 160.4     15?   1.97 109.5   65 148 127   9
   2024 03 12 23:00  10 51 23.47    +19 43 35.0   0.0083 1.0018 160.4     15?   1.96 111.2   66 153 127   9
   2024 03 12 23:10  10 51 24.75    +19 43 27.7   0.0083 1.0018 160.4     15?   1.95 112.8   67 159 127   9
   2024 03 12 23:20  10 51 26.02    +19 43 19.8   0.0083 1.0018 160.4     15?   1.96 114.4   68 165 127   9
   2024 03 12 23:30  10 51 27.27    +19 43 11.5   0.0083 1.0018 160.4     15?   1.97 115.9   68 171 127   9
   2024 03 12 23:40  10 51 28.52    +19 43 02.6   0.0083 1.0018 160.4     15?   1.99 117.3   68 178 127   9
   2024 03 12 23:50  10 51 29.77    +19 42 53.2   0.0083 1.0018 160.4  t  15?   2.01 118.6   68 184 127   9
   2024 03 13 00:00  10 51 31.03    +19 42 43.3   0.0083 1.0018 160.4     15?   2.05 119.8   68 191 126   9
   2024 03 13 00:10  10 51 32.29    +19 42 32.9   0.0083 1.0019 160.4     15?   2.08 120.8   67 197 126   9
   2024 03 13 00:20  10 51 33.57    +19 42 22.0   0.0083 1.0019 160.4     15?   2.13 121.7   67 203 126   9
   2024 03 13 00:30  10 51 34.86    +19 42 10.6   0.0083 1.0019 160.4     15?   2.18 122.4   66 208 126   9
   2024 03 13 00:40  10 51 36.17    +19 41 58.6   0.0083 1.0019 160.4     15?   2.24 123.0   65 214 126   9
   2024 03 13 00:50  10 51 37.52    +19 41 46.2   0.0083 1.0019 160.4     15?   2.30 123.5   64 218 126   9
   2024 03 13 01:00  10 51 38.89    +19 41 33.3   0.0083 1.0019 160.4     15?   2.37 123.8   63 223 126  10
   2024 03 13 01:10  10 51 40.30    +19 41 19.8   0.0083 1.0019 160.4     15?   2.44 124.1   61 227 126  10
   2024 03 13 01:20  10 51 41.75    +19 41 06.0   0.0083 1.0019 160.4     15?   2.51 124.2   60 231 126  10
   2024 03 13 01:30  10 51 43.25    +19 40 51.6   0.0083 1.0019 160.4     15?   2.59 124.2   58 235 125  10
   2024 03 13 01:40  10 51 44.79    +19 40 36.8   0.0083 1.0019 160.4     15?   2.68 124.2   57 238 125  10
   2024 03 13 01:50  10 51 46.39    +19 40 21.5   0.0083 1.0019 160.4     15?   2.77 124.0   55 241 125  10
   2024 03 13 02:00  10 51 48.04    +19 40 05.8   0.0083 1.0019 160.4     15?   2.86 123.8   53 244 125  10
   2024 03 13 02:10  10 51 49.75    +19 39 49.7   0.0083 1.0019 160.4     15?   2.96 123.5   52 246 125  10
   2024 03 13 02:20  10 51 51.53    +19 39 33.1   0.0083 1.0019 160.4     15?   3.06 123.2   50 249 125  10
   2024 03 13 02:30  10 51 53.38    +19 39 16.2   0.0083 1.0019 160.4     15?   3.16 122.8   48 251 125  10
   2024 03 13 02:40  10 51 55.30    +19 38 58.9   0.0083 1.0019 160.4     15?   3.27 122.3   46 254 125  10
   2024 03 13 02:50  10 51 57.30    +19 38 41.2   0.0083 1.0019 160.4     15?   3.38 121.9   44 256 124  10
   2024 03 13 03:00  10 51 59.37    +19 38 23.2   0.0083 1.0019 160.4     15?   3.50 121.4   43 258 124  10
   2024 03 13 03:10  10 52 01.53    +19 38 04.8   0.0084 1.0019 160.4     15?   3.61 120.8   41 260 124  10
   2024 03 13 03:20  10 52 03.76    +19 37 46.1   0.0084 1.0019 160.4     15?   3.74 120.3   39 262 124  10
   2024 03 13 03:30  10 52 06.09    +19 37 27.1   0.0084 1.0019 160.4     15?   3.86 119.7   37 263 124  11
   2024 03 13 03:40  10 52 08.51    +19 37 07.9   0.0084 1.0019 160.4     15?   3.98 119.1   35 265 124  11
   2024 03 13 03:50  10 52 11.02    +19 36 48.4   0.0084 1.0019 160.5     15?   4.11 118.5   33 267 124  11
   2024 03 13 04:00  10 52 13.62    +19 36 28.6   0.0084 1.0019 160.5     15?   4.24 117.9   31 268 124  11
   2024 03 13 04:10  10 52 16.32    +19 36 08.6   0.0084 1.0019 160.5     15?   4.37 117.3   29 270 124  11
   2024 03 13 04:20  10 52 19.12    +19 35 48.4   0.0084 1.0019 160.5     15?   4.51 116.7   28 272 123  11
   2024 03 13 04:30  10 52 22.02    +19 35 28.1   0.0084 1.0019 160.5     15?   4.64 116.1   26 273 123  11
   2024 03 13 04:40  10 52 25.03    +19 35 07.6   0.0084 1.0019 160.5     15?   4.78 115.5   24 275 123  11
   2024 03 13 04:50  10 52 28.13    +19 34 46.9   0.0084 1.0019 160.5     15?   4.92 114.9   22 276 123  11
   2024 03 13 05:00  10 52 31.34    +19 34 26.1   0.0084 1.0019 160.5 A   15?   5.06 114.3   20 278 123  11
   2024 03 13 05:10  10 52 34.65    +19 34 05.3   0.0084 1.0019 160.5 A   15?   5.20 113.7   18 279 123  11
   2024 03 13 05:20  10 52 38.07    +19 33 44.3   0.0084 1.0019 160.5 A   15?   5.34 113.1   16 281 123  11
   2024 03 13 05:30  10 52 41.60    +19 33 23.3   0.0084 1.0019 160.5 N   15?   5.48 112.5   14 282 123  11
   2024 03 13 05:40  10 52 45.23    +19 33 02.3   0.0084 1.0019 160.5 N   15?   5.62 112.0   13 284 123  11
   2024 03 13 05:50  10 52 48.97    +19 32 41.3   0.0084 1.0019 160.5 N   15?   5.76 111.4   11 285 122  11
   2024 03 13 06:00  10 52 52.82    +19 32 20.2   0.0084 1.0019 160.5 N   15?   5.90 110.9    9 287 122  12
   2024 03 13 06:10  10 52 56.77    +19 31 59.3   0.0084 1.0019 160.5 C   15?   6.04 110.3    7 289 122  12
   2024 03 13 06:20  10 53 00.83    +19 31 38.3   0.0084 1.0019 160.5 C   15?   6.18 109.8    5 290 122  12
   ................
   2024 03 13 18:30  10 59 24.27    +19 21 09.1   0.0083 1.0020 161.1 Cm  15?   4.66  88.8   20  81 117  15
   2024 03 13 18:40  10 59 27.51    +19 21 10.1   0.0083 1.0021 161.1 Cm  15?   4.51  88.9   22  83 117  15
   2024 03 13 18:50  10 59 30.64    +19 21 11.0   0.0083 1.0021 161.1 Nm  15?   4.37  89.0   24  84 117  15
   2024 03 13 19:00  10 59 33.68    +19 21 11.7   0.0083 1.0021 161.1 Nm  15?   4.22  89.2   25  86 117  15
   2024 03 13 19:10  10 59 36.61    +19 21 12.2   0.0083 1.0021 161.1 Nm  15?   4.08  89.4   27  87 117  15
   2024 03 13 19:20  10 59 39.44    +19 21 12.6   0.0083 1.0021 161.1 Am  15?   3.94  89.7   29  89 117  15
   2024 03 13 19:30  10 59 42.17    +19 21 12.7   0.0083 1.0021 161.1 Am  15?   3.80  90.0   31  91 117  15
   2024 03 13 19:40  10 59 44.81    +19 21 12.7   0.0083 1.0021 161.1 Am  15?   3.66  90.3   33  92 117  16
   2024 03 13 19:50  10 59 47.35    +19 21 12.3   0.0083 1.0021 161.1 Am  15?   3.53  90.8   35  94 117  16
   2024 03 13 20:00  10 59 49.80    +19 21 11.8   0.0083 1.0021 161.1  m  15?   3.40  91.2   37  96 116  16
   2024 03 13 20:10  10 59 52.16    +19 21 10.9   0.0083 1.0021 161.1  m  15?   3.28  91.8   39  98 116  16
   2024 03 13 20:20  10 59 54.44    +19 21 09.8   0.0083 1.0021 161.1  m  15?   3.16  92.4   40 100 116  16
   2024 03 13 20:30  10 59 56.63    +19 21 08.3   0.0083 1.0021 161.1  m  15?   3.04  93.1   42 102 116  16
   2024 03 13 20:40  10 59 58.73    +19 21 06.5   0.0083 1.0021 161.1  m  15?   2.93  93.9   44 104 116  16
   2024 03 13 20:50  11 00 00.76    +19 21 04.3   0.0083 1.0021 161.1  m  15?   2.83  94.8   46 106 116  16
   2024 03 13 21:00  11 00 02.72    +19 21 01.8   0.0083 1.0021 161.1  m  15?   2.73  95.7   48 108 116  16
   2024 03 13 21:10  11 00 04.60    +19 20 58.9   0.0083 1.0021 161.1  m  15?   2.63  96.8   50 110 116  16
   2024 03 13 21:20  11 00 06.42    +19 20 55.6   0.0083 1.0021 161.1  m  15?   2.55  98.0   51 113 116  16
   2024 03 13 21:30  11 00 08.17    +19 20 51.9   0.0083 1.0021 161.1  m  15?   2.47  99.2   53 116 116  16
   2024 03 13 21:40  11 00 09.86    +19 20 47.7   0.0083 1.0021 161.1  m  15?   2.39 100.5   55 118 116  16
   2024 03 13 21:50  11 00 11.49    +19 20 43.2   0.0083 1.0021 161.1  m  15?   2.32 101.9   56 121 116  16
   2024 03 13 22:00  11 00 13.07    +19 20 38.2   0.0083 1.0021 161.0  m  15?   2.26 103.4   58 125 115  16
   2024 03 13 22:10  11 00 14.60    +19 20 32.7   0.0083 1.0021 161.0  m  15?   2.21 104.9   59 128 115  16
   2024 03 13 22:20  11 00 16.09    +19 20 26.7   0.0083 1.0021 161.0  m  15?   2.17 106.5   61 132 115  16
   2024 03 13 22:30  11 00 17.54    +19 20 20.3   0.0083 1.0021 161.0  m  15?   2.13 108.2   62 136 115  16
   2024 03 13 22:40  11 00 18.95    +19 20 13.5   0.0083 1.0021 161.0     15?   2.10 109.8   63 141 115  17
   2024 03 13 22:50  11 00 20.33    +19 20 06.1   0.0083 1.0021 161.0     15?   2.08 111.5   65 146 115  17
   2024 03 13 23:00  11 00 21.69    +19 19 58.2   0.0083 1.0021 161.0     15?   2.07 113.1   66 151 115  17
   2024 03 13 23:10  11 00 23.02    +19 19 49.8   0.0083 1.0021 161.0     15?   2.06 114.7   66 156 115  17
   2024 03 13 23:20  11 00 24.33    +19 19 41.0   0.0083 1.0021 161.0     15?   2.06 116.2   67 162 115  17
   2024 03 13 23:30  11 00 25.64    +19 19 31.6   0.0083 1.0021 161.0     15?   2.07 117.7   67 168 115  17
   2024 03 13 23:40  11 00 26.93    +19 19 21.7   0.0083 1.0021 161.0     15?   2.09 119.0   68 175 114  17
   2024 03 13 23:50  11 00 28.22    +19 19 11.3   0.0083 1.0021 161.0  t  15?   2.11 120.2   68 181 114  17
   2024 03 14 00:00  11 00 29.51    +19 19 00.4   0.0083 1.0021 161.0     15?   2.15 121.3   68 187 114  17
   2024 03 14 00:10  11 00 30.81    +19 18 49.0   0.0083 1.0021 161.0     15?   2.18 122.3   67 194 114  17
   2024 03 14 00:20  11 00 32.12    +19 18 37.1   0.0083 1.0021 161.0     15?   2.22 123.2   67 200 114  17
   2024 03 14 00:30  11 00 33.44    +19 18 24.7   0.0083 1.0021 161.0     15?   2.27 123.9   66 205 114  17
   2024 03 14 00:40  11 00 34.79    +19 18 11.7   0.0083 1.0021 161.0     15?   2.33 124.4   65 211 114  17
   2024 03 14 00:50  11 00 36.16    +19 17 58.3   0.0083 1.0021 161.0     15?   2.39 124.9   64 216 114  17
   2024 03 14 01:00  11 00 37.56    +19 17 44.4   0.0083 1.0021 161.0     15?   2.45 125.2   63 220 114  18
   2024 03 14 01:10  11 00 38.99    +19 17 30.0   0.0083 1.0021 161.0     15?   2.52 125.5   62 225 114  18
   2024 03 14 01:20  11 00 40.46    +19 17 15.2   0.0083 1.0021 161.0     15?   2.59 125.6   60 229 113  18
   2024 03 14 01:30  11 00 41.97    +19 16 59.8   0.0083 1.0021 161.0     15?   2.67 125.6   59 232 113  18
   2024 03 14 01:40  11 00 43.53    +19 16 44.1   0.0083 1.0021 161.0     15?   2.76 125.5   57 236 113  18
   2024 03 14 01:50  11 00 45.14    +19 16 27.8   0.0083 1.0021 161.0     15?   2.84 125.3   56 239 113  18
   2024 03 14 02:00  11 00 46.80    +19 16 11.2   0.0083 1.0021 161.0     15?   2.93 125.1   54 242 113  18
   2024 03 14 02:10  11 00 48.53    +19 15 54.1   0.0083 1.0021 161.1     15?   3.03 124.8   52 245 113  18
   2024 03 14 02:20  11 00 50.32    +19 15 36.6   0.0083 1.0021 161.1     15?   3.13 124.5   50 247 113  18
   2024 03 14 02:30  11 00 52.17    +19 15 18.7   0.0083 1.0021 161.1     15?   3.23 124.1   49 250 113  18
   2024 03 14 02:40  11 00 54.10    +19 15 00.4   0.0083 1.0021 161.1     15?   3.33 123.6   47 252 113  18
   2024 03 14 02:50  11 00 56.09    +19 14 41.8   0.0083 1.0021 161.1     15?   3.44 123.1   45 254 112  18
   2024 03 14 03:00  11 00 58.17    +19 14 22.8   0.0083 1.0021 161.1     15?   3.56 122.6   43 256 112  18
   2024 03 14 03:10  11 01 00.32    +19 14 03.4   0.0083 1.0021 161.1     15?   3.67 122.1   41 258 112  19
   2024 03 14 03:20  11 01 02.56    +19 13 43.8   0.0083 1.0021 161.1     15?   3.79 121.5   40 260 112  19
   2024 03 14 03:30  11 01 04.89    +19 13 23.8   0.0083 1.0021 161.1     15?   3.91 120.9   38 262 112  19
   2024 03 14 03:40  11 01 07.30    +19 13 03.6   0.0083 1.0021 161.1     15?   4.04 120.3   36 264 112  19
   2024 03 14 03:50  11 01 09.81    +19 12 43.1   0.0083 1.0022 161.1     15?   4.16 119.7   34 266 112  19
   2024 03 14 04:00  11 01 12.40    +19 12 22.3   0.0083 1.0022 161.1     15?   4.29 119.1   32 267 112  19
   2024 03 14 04:10  11 01 15.10    +19 12 01.4   0.0083 1.0022 161.1     15?   4.42 118.5   30 269 111  19
   2024 03 14 04:20  11 01 17.89    +19 11 40.2   0.0083 1.0022 161.1     15?   4.55 117.9   28 271 111  19
   2024 03 14 04:30  11 01 20.78    +19 11 18.8   0.0083 1.0022 161.1     15?   4.69 117.2   26 272 111  19
   2024 03 14 04:40  11 01 23.78    +19 10 57.3   0.0083 1.0022 161.1     15?   4.82 116.6   24 274 111  19
   2024 03 14 04:50  11 01 26.87    +19 10 35.6   0.0083 1.0022 161.1     15?   4.96 116.0   23 275 111  19
   2024 03 14 05:00  11 01 30.07    +19 10 13.8   0.0083 1.0022 161.1 A   15?   5.10 115.4   21 277 111  19
   2024 03 14 05:10  11 01 33.38    +19 09 51.8   0.0083 1.0022 161.1 A   15?   5.24 114.8   19 278 111  20
   2024 03 14 05:20  11 01 36.79    +19 09 29.9   0.0083 1.0022 161.1 A   15?   5.38 114.2   17 280 111  20
   2024 03 14 05:30  11 01 40.30    +19 09 07.8   0.0083 1.0022 161.1 N   15?   5.52 113.6   15 281 111  20
   2024 03 14 05:40  11 01 43.93    +19 08 45.7   0.0083 1.0022 161.1 N   15?   5.66 113.0   13 283 111  20
   2024 03 14 05:50  11 01 47.66    +19 08 23.6   0.0083 1.0022 161.2 N   15?   5.80 112.4   11 284 110  20
   2024 03 14 06:00  11 01 51.49    +19 08 01.5   0.0083 1.0022 161.2 C   15?   5.94 111.8   10 286 110  20
   2024 03 14 06:10  11 01 55.44    +19 07 39.4   0.0083 1.0022 161.2 C   15?   6.08 111.3    8 287 110  20
   2024 03 14 06:20  11 01 59.49    +19 07 17.3   0.0083 1.0022 161.2 C   15?   6.22 110.7    6 289 110  20
   ................
   2024 03 14 18:30  11 08 26.57    +18 55 02.5   0.0083 1.0023 161.7 Cm  15?   4.80  90.5   19  81 105  24
   2024 03 14 18:40  11 08 29.91    +18 55 02.0   0.0083 1.0023 161.7 Cm  15?   4.65  90.7   20  82 105  25
   2024 03 14 18:50  11 08 33.14    +18 55 01.4   0.0083 1.0023 161.7 Nm  15?   4.51  90.8   22  84 105  25
   2024 03 14 19:00  11 08 36.26    +18 55 00.8   0.0083 1.0023 161.7 Nm  15?   4.36  91.0   24  85 105  25
   2024 03 14 19:10  11 08 39.28    +18 54 59.9   0.0083 1.0023 161.7 Nm  15?   4.22  91.3   26  87 105  25
   2024 03 14 19:20  11 08 42.20    +18 54 58.9   0.0083 1.0023 161.7 Am  15?   4.08  91.6   28  89 105  25
   2024 03 14 19:30  11 08 45.03    +18 54 57.7   0.0083 1.0023 161.7 Am  15?   3.94  91.9   30  90 105  25
   2024 03 14 19:40  11 08 47.75    +18 54 56.3   0.0083 1.0023 161.7 Am  15?   3.80  92.3   32  92 105  25
   2024 03 14 19:50  11 08 50.38    +18 54 54.6   0.0083 1.0023 161.7 Am  15?   3.67  92.8   34  94 105  25
   2024 03 14 20:00  11 08 52.92    +18 54 52.7   0.0083 1.0023 161.7  m  15?   3.54  93.3   36  95 104  25
   2024 03 14 20:10  11 08 55.36    +18 54 50.6   0.0083 1.0023 161.7  m  15?   3.41  93.9   37  97 104  25
   2024 03 14 20:20  11 08 57.72    +18 54 48.1   0.0083 1.0023 161.7  m  15?   3.29  94.6   39  99 104  25
   2024 03 14 20:30  11 08 59.99    +18 54 45.4   0.0083 1.0023 161.7  m  15?   3.18  95.3   41 101 104  25
   2024 03 14 20:40  11 09 02.17    +18 54 42.3   0.0083 1.0023 161.7  m  15?   3.06  96.1   43 103 104  25
   2024 03 14 20:50  11 09 04.28    +18 54 38.9   0.0083 1.0023 161.7  m  15?   2.96  97.0   45 105 104  25
   2024 03 14 21:00  11 09 06.31    +18 54 35.1   0.0083 1.0023 161.7  m  15?   2.86  98.0   47 107 104  25
   2024 03 14 21:10  11 09 08.27    +18 54 31.0   0.0083 1.0023 161.7  m  15?   2.76  99.0   48 110 104  25
   2024 03 14 21:20  11 09 10.16    +18 54 26.5   0.0083 1.0023 161.7  m  15?   2.67 100.1   50 112 104  25
   2024 03 14 21:30  11 09 11.98    +18 54 21.6   0.0083 1.0023 161.7  m  15?   2.59 101.4   52 115 104  25
   2024 03 14 21:40  11 09 13.73    +18 54 16.3   0.0083 1.0023 161.7  m  15?   2.51 102.7   54 117 104  26
   2024 03 14 21:50  11 09 15.43    +18 54 10.5   0.0083 1.0023 161.7  m  15?   2.44 104.1   55 120 104  26
   2024 03 14 22:00  11 09 17.08    +18 54 04.4   0.0083 1.0023 161.7  m  15?   2.38 105.5   57 124 104  26
   2024 03 14 22:10  11 09 18.67    +18 53 57.8   0.0083 1.0024 161.7  m  15?   2.33 107.0   58 127 104  26
   2024 03 14 22:20  11 09 20.22    +18 53 50.7   0.0083 1.0024 161.7  m  15?   2.28 108.6   60 131 103  26
   2024 03 14 22:30  11 09 21.72    +18 53 43.2   0.0083 1.0024 161.7  m  15?   2.25 110.2   61 135 103  26
   2024 03 14 22:40  11 09 23.19    +18 53 35.2   0.0083 1.0024 161.7  m  15?   2.21 111.8   62 139 103  26
   2024 03 14 22:50  11 09 24.62    +18 53 26.7   0.0083 1.0024 161.7  m  15?   2.19 113.4   64 144 103  26
   2024 03 14 23:00  11 09 26.03    +18 53 17.8   0.0083 1.0024 161.7  m  15?   2.18 115.0   65 148 103  26
   2024 03 14 23:10  11 09 27.41    +18 53 08.3   0.0083 1.0024 161.7  m  15?   2.17 116.5   66 154 103  26
   2024 03 14 23:20  11 09 28.77    +18 52 58.4   0.0083 1.0024 161.7  m  15?   2.17 117.9   66 159 103  26
   2024 03 14 23:30  11 09 30.11    +18 52 48.0   0.0083 1.0024 161.7  m  15?   2.18 119.3   67 165 103  26
   2024 03 14 23:40  11 09 31.44    +18 52 37.0   0.0083 1.0024 161.7  m  15?   2.19 120.6   67 171 103  26
   2024 03 14 23:50  11 09 32.77    +18 52 25.6   0.0083 1.0024 161.7  m  15?   2.22 121.8   67 178 103  26
   2024 03 15 00:00  11 09 34.10    +18 52 13.7   0.0083 1.0024 161.7  t  15?   2.24 122.8   67 184 103  26
   2024 03 15 00:10  11 09 35.43    +18 52 01.3   0.0083 1.0024 161.7     15?   2.28 123.8   67 190 102  27
   2024 03 15 00:20  11 09 36.77    +18 51 48.4   0.0083 1.0024 161.7     15?   2.32 124.6   67 196 102  27
   2024 03 15 00:30  11 09 38.12    +18 51 35.0   0.0083 1.0024 161.7     15?   2.36 125.3   66 202 102  27
   2024 03 15 00:40  11 09 39.49    +18 51 21.1   0.0083 1.0024 161.7     15?   2.42 125.8   65 207 102  27
   2024 03 15 00:50  11 09 40.88    +18 51 06.7   0.0083 1.0024 161.7     15?   2.47 126.3   64 213 102  27
   2024 03 15 01:00  11 09 42.30    +18 50 51.8   0.0083 1.0024 161.7     15?   2.54 126.6   63 217 102  27
   2024 03 15 01:10  11 09 43.75    +18 50 36.4   0.0083 1.0024 161.7     15?   2.60 126.8   62 222 102  27
   2024 03 15 01:20  11 09 45.24    +18 50 20.6   0.0083 1.0024 161.7     15?   2.67 126.9   61 226 102  27
   2024 03 15 01:30  11 09 46.76    +18 50 04.3   0.0083 1.0024 161.7     15?   2.75 126.9   59 230 102  27
   2024 03 15 01:40  11 09 48.33    +18 49 47.6   0.0083 1.0024 161.7     15?   2.83 126.8   58 233 102  27
   2024 03 15 01:50  11 09 49.95    +18 49 30.4   0.0083 1.0024 161.7     15?   2.91 126.7   56 237 101  27
   2024 03 15 02:00  11 09 51.63    +18 49 12.8   0.0083 1.0024 161.7     15?   3.00 126.4   54 240 101  27
   2024 03 15 02:10  11 09 53.36    +18 48 54.8   0.0083 1.0024 161.7     15?   3.09 126.1   53 243 101  28
   2024 03 15 02:20  11 09 55.15    +18 48 36.3   0.0083 1.0024 161.7     15?   3.19 125.7   51 245 101  28
   2024 03 15 02:30  11 09 57.00    +18 48 17.5   0.0083 1.0024 161.7     15?   3.29 125.3   49 248 101  28
   2024 03 15 02:40  11 09 58.93    +18 47 58.3   0.0083 1.0024 161.7     15?   3.39 124.9   48 250 101  28
   2024 03 15 02:50  11 10 00.93    +18 47 38.7   0.0083 1.0024 161.7     15?   3.50 124.4   46 253 101  28
   2024 03 15 03:00  11 10 03.00    +18 47 18.7   0.0083 1.0024 161.7     15?   3.61 123.8   44 255 101  28
   2024 03 15 03:10  11 10 05.15    +18 46 58.5   0.0083 1.0024 161.7     15?   3.72 123.3   42 257 101  28
   2024 03 15 03:20  11 10 07.38    +18 46 37.9   0.0083 1.0024 161.7     15?   3.84 122.7   40 259 100  28
   2024 03 15 03:30  11 10 09.70    +18 46 17.0   0.0083 1.0024 161.7     15?   3.96 122.1   38 261 100  28
   2024 03 15 03:40  11 10 12.10    +18 45 55.8   0.0083 1.0024 161.7     15?   4.08 121.5   36 262 100  28
   2024 03 15 03:50  11 10 14.60    +18 45 34.3   0.0083 1.0024 161.7     15?   4.21 120.9   35 264 100  28
   2024 03 15 04:00  11 10 17.18    +18 45 12.6   0.0083 1.0024 161.7     15?   4.33 120.2   33 266 100  29
   2024 03 15 04:10  11 10 19.87    +18 44 50.6   0.0083 1.0024 161.7     15?   4.46 119.6   31 268 100  29
   2024 03 15 04:20  11 10 22.64    +18 44 28.5   0.0083 1.0024 161.7     15?   4.59 119.0   29 269 100  29
   2024 03 15 04:30  11 10 25.52    +18 44 06.1   0.0083 1.0024 161.7     15?   4.73 118.3   27 271 100  29
   2024 03 15 04:40  11 10 28.50    +18 43 43.6   0.0083 1.0024 161.7     15?   4.86 117.7   25 272 100  29
   2024 03 15 04:50  11 10 31.58    +18 43 20.9   0.0083 1.0024 161.7     15?   5.00 117.1   23 274  99  29
   2024 03 15 05:00  11 10 34.77    +18 42 58.1   0.0083 1.0024 161.7 A   15?   5.13 116.4   21 276  99  29
   2024 03 15 05:10  11 10 38.05    +18 42 35.2   0.0083 1.0024 161.8 A   15?   5.27 115.8   20 277  99  29
   2024 03 15 05:20  11 10 41.45    +18 42 12.2   0.0083 1.0024 161.8 A   15?   5.41 115.2   18 279  99  29
   2024 03 15 05:30  11 10 44.95    +18 41 49.1   0.0083 1.0024 161.8 N   15?   5.55 114.6   16 280  99  29
   2024 03 15 05:40  11 10 48.55    +18 41 26.0   0.0083 1.0024 161.8 N   15?   5.69 114.0   14 282  99  30
   2024 03 15 05:50  11 10 52.27    +18 41 02.8   0.0083 1.0024 161.8 N   15?   5.83 113.4   12 283  99  30
   2024 03 15 06:00  11 10 56.09    +18 40 39.6   0.0083 1.0024 161.8 C   15?   5.97 112.8   10 285  99  30
   2024 03 15 06:10  11 11 00.01    +18 40 16.5   0.0083 1.0024 161.8 C   15?   6.11 112.2    8 286  99  30
   ................
   2024 03 15 18:30  11 17 34.20    +18 25 52.7   0.0083 1.0026 162.3 Cm  15?   4.95  92.2   17  80  94  35
   2024 03 15 18:40  11 17 37.62    +18 25 50.8   0.0083 1.0026 162.3 Cm  15?   4.80  92.4   19  82  93  35
   2024 03 15 18:50  11 17 40.93    +18 25 48.8   0.0083 1.0026 162.3 Nm  15?   4.65  92.6   21  84  93  35
   2024 03 15 19:00  11 17 44.15    +18 25 46.6   0.0083 1.0026 162.3 Nm  15?   4.50  92.8   23  85  93  35
   2024 03 15 19:10  11 17 47.26    +18 25 44.4   0.0083 1.0026 162.3 Nm  15?   4.36  93.1   25  87  93  35
   2024 03 15 19:20  11 17 50.26    +18 25 41.9   0.0083 1.0026 162.3 Nm  15?   4.21  93.4   27  88  93  35
   2024 03 15 19:30  11 17 53.17    +18 25 39.3   0.0083 1.0026 162.3 Am  15?   4.07  93.8   29  90  93  35
   2024 03 15 19:40  11 17 55.98    +18 25 36.5   0.0083 1.0026 162.3 Am  15?   3.94  94.3   30  92  93  35
   2024 03 15 19:50  11 17 58.69    +18 25 33.5   0.0083 1.0026 162.3 Am  15?   3.80  94.8   32  93  93  35
   2024 03 15 20:00  11 18 01.30    +18 25 30.3   0.0083 1.0026 162.3  m  15?   3.67  95.3   34  95  93  35
   2024 03 15 20:10  11 18 03.83    +18 25 26.7   0.0083 1.0026 162.3  m  15?   3.55  95.9   36  97  93  35
   2024 03 15 20:20  11 18 06.26    +18 25 23.0   0.0083 1.0026 162.3  m  15?   3.42  96.6   38  99  93  35
   2024 03 15 20:30  11 18 08.61    +18 25 18.9   0.0083 1.0026 162.3  m  15?   3.31  97.3   40 100  93  35
   2024 03 15 20:40  11 18 10.87    +18 25 14.5   0.0083 1.0026 162.3  m  15?   3.19  98.2   42 102  93  35
   2024 03 15 20:50  11 18 13.05    +18 25 09.9   0.0083 1.0026 162.3  m  15?   3.09  99.1   44 105  93  35
   2024 03 15 21:00  11 18 15.16    +18 25 04.8   0.0083 1.0026 162.3  m  15?   2.98 100.0   45 107  93  36
   2024 03 15 21:10  11 18 17.18    +18 24 59.4   0.0083 1.0026 162.3  m  15?   2.89 101.1   47 109  93  36
   2024 03 15 21:20  11 18 19.14    +18 24 53.7   0.0083 1.0026 162.3  m  15?   2.80 102.2   49 111  93  36
   2024 03 15 21:30  11 18 21.03    +18 24 47.6   0.0083 1.0026 162.3  m  15?   2.71 103.5   51 114  92  36
   2024 03 15 21:40  11 18 22.85    +18 24 41.1   0.0083 1.0026 162.3  m  15?   2.64 104.7   52 117  92  36
   2024 03 15 21:50  11 18 24.61    +18 24 34.1   0.0083 1.0026 162.3  m  15?   2.57 106.1   54 119  92  36
   2024 03 15 22:00  11 18 26.31    +18 24 26.8   0.0083 1.0026 162.3  m  15?   2.50 107.5   56 122  92  36
   2024 03 15 22:10  11 18 27.96    +18 24 19.0   0.0083 1.0026 162.3  m  15?   2.45 109.0   57 126  92  36
   2024 03 15 22:20  11 18 29.57    +18 24 10.8   0.0082 1.0026 162.3  m  15?   2.40 110.5   59 129  92  36
   2024 03 15 22:30  11 18 31.12    +18 24 02.2   0.0082 1.0026 162.3  m  15?   2.36 112.1   60 133  92  36
   2024 03 15 22:40  11 18 32.64    +18 23 53.1   0.0082 1.0026 162.3  m  15?   2.33 113.6   61 137  92  36
   2024 03 15 22:50  11 18 34.12    +18 23 43.5   0.0082 1.0026 162.3  m  15?   2.30 115.2   63 142  92  36
   2024 03 15 23:00  11 18 35.57    +18 23 33.5   0.0082 1.0026 162.3  m  15?   2.29 116.7   64 146  92  36
   2024 03 15 23:10  11 18 36.99    +18 23 22.9   0.0082 1.0026 162.3  m  15?   2.28 118.1   65 151  92  36
   2024 03 15 23:20  11 18 38.40    +18 23 11.9   0.0082 1.0026 162.3  m  15?   2.28 119.5   65 157  92  36
   2024 03 15 23:30  11 18 39.78    +18 23 00.5   0.0082 1.0026 162.3  m  15?   2.28 120.9   66 163  92  36
   2024 03 15 23:40  11 18 41.15    +18 22 48.5   0.0082 1.0026 162.3  m  15?   2.29 122.1   67 168  91  37
   2024 03 15 23:50  11 18 42.51    +18 22 36.1   0.0082 1.0026 162.3  m  15?   2.31 123.2   67 175  91  37
   2024 03 16 00:00  11 18 43.87    +18 22 23.1   0.0082 1.0026 162.3  t  15?   2.34 124.3   67 181  91  37
   2024 03 16 00:10  11 18 45.23    +18 22 09.7   0.0082 1.0026 162.3  m  15?   2.37 125.2   67 187  91  37
   2024 03 16 00:20  11 18 46.59    +18 21 55.8   0.0082 1.0026 162.3  m  15?   2.41 126.0   66 193  91  37
   2024 03 16 00:30  11 18 47.97    +18 21 41.4   0.0082 1.0026 162.3  m  15?   2.45 126.6   66 199  91  37
   2024 03 16 00:40  11 18 49.36    +18 21 26.5   0.0082 1.0026 162.3  m  15?   2.50 127.2   65 204  91  37
   2024 03 16 00:50  11 18 50.77    +18 21 11.2   0.0082 1.0026 162.3  m  15?   2.56 127.6   64 210  91  37
   2024 03 16 01:00  11 18 52.21    +18 20 55.3   0.0082 1.0026 162.3  m  15?   2.62 127.9   63 214  91  37
   2024 03 16 01:10  11 18 53.67    +18 20 39.0   0.0082 1.0027 162.3     15?   2.68 128.1   62 219  91  37
   2024 03 16 01:20  11 18 55.17    +18 20 22.3   0.0082 1.0027 162.3     15?   2.75 128.2   61 223  91  37
   2024 03 16 01:30  11 18 56.70    +18 20 05.0   0.0082 1.0027 162.3     15?   2.82 128.2   59 227  90  37
   2024 03 16 01:40  11 18 58.28    +18 19 47.4   0.0082 1.0027 162.3     15?   2.90 128.1   58 231  90  38
   2024 03 16 01:50  11 18 59.91    +18 19 29.3   0.0082 1.0027 162.3     15?   2.98 127.9   56 234  90  38
   2024 03 16 02:00  11 19 01.58    +18 19 10.7   0.0082 1.0027 162.3     15?   3.06 127.7   55 238  90  38
   2024 03 16 02:10  11 19 03.31    +18 18 51.8   0.0082 1.0027 162.3     15?   3.15 127.4   53 241  90  38
   2024 03 16 02:20  11 19 05.10    +18 18 32.4   0.0082 1.0027 162.3     15?   3.25 127.0   52 243  90  38
   2024 03 16 02:30  11 19 06.96    +18 18 12.7   0.0082 1.0027 162.3     15?   3.34 126.6   50 246  90  38
   2024 03 16 02:40  11 19 08.87    +18 17 52.5   0.0082 1.0027 162.3     15?   3.45 126.1   48 248  90  38
   2024 03 16 02:50  11 19 10.86    +18 17 32.0   0.0083 1.0027 162.3     15?   3.55 125.6   46 251  90  38
   2024 03 16 03:00  11 19 12.93    +18 17 11.2   0.0083 1.0027 162.3     15?   3.66 125.1   45 253  90  38
   2024 03 16 03:10  11 19 15.07    +18 16 50.0   0.0083 1.0027 162.3     15?   3.77 124.5   43 255  90  38
   2024 03 16 03:20  11 19 17.29    +18 16 28.5   0.0083 1.0027 162.3     15?   3.88 123.9   41 257  89  38
   2024 03 16 03:30  11 19 19.59    +18 16 06.7   0.0083 1.0027 162.3     15?   4.00 123.3   39 259  89  39
   2024 03 16 03:40  11 19 21.98    +18 15 44.6   0.0083 1.0027 162.3     15?   4.12 122.7   37 261  89  39
   2024 03 16 03:50  11 19 24.46    +18 15 22.2   0.0083 1.0027 162.3     15?   4.24 122.0   35 263  89  39
   2024 03 16 04:00  11 19 27.03    +18 14 59.6   0.0083 1.0027 162.3     15?   4.37 121.4   33 265  89  39
   2024 03 16 04:10  11 19 29.69    +18 14 36.7   0.0083 1.0027 162.3     15?   4.49 120.7   32 266  89  39
   2024 03 16 04:20  11 19 32.45    +18 14 13.6   0.0083 1.0027 162.3     15?   4.62 120.1   30 268  89  39
   2024 03 16 04:30  11 19 35.31    +18 13 50.3   0.0083 1.0027 162.3     15?   4.76 119.4   28 270  89  39
   2024 03 16 04:40  11 19 38.26    +18 13 26.9   0.0083 1.0027 162.3     15?   4.89 118.8   26 271  89  39
   2024 03 16 04:50  11 19 41.32    +18 13 03.2   0.0083 1.0027 162.3     15?   5.02 118.1   24 273  88  39
   2024 03 16 05:00  11 19 44.48    +18 12 39.5   0.0083 1.0027 162.4 A   15?   5.16 117.5   22 274  88  39
   2024 03 16 05:10  11 19 47.75    +18 12 15.6   0.0083 1.0027 162.4 A   15?   5.30 116.8   20 276  88  39
   2024 03 16 05:20  11 19 51.12    +18 11 51.6   0.0083 1.0027 162.4 A   15?   5.44 116.2   18 277  88  40
   2024 03 16 05:30  11 19 54.59    +18 11 27.5   0.0083 1.0027 162.4 N   15?   5.58 115.6   16 279  88  40
   2024 03 16 05:40  11 19 58.17    +18 11 03.4   0.0083 1.0027 162.4 N   15?   5.71 115.0   15 281  88  40
   2024 03 16 05:50  11 20 01.86    +18 10 39.3   0.0083 1.0027 162.4 N   15?   5.85 114.4   13 282  88  40
   2024 03 16 06:00  11 20 05.66    +18 10 15.1   0.0083 1.0027 162.4 C   15?   5.99 113.8   11 284  88  40
   2024 03 16 06:10  11 20 09.56    +18 09 50.9   0.0083 1.0027 162.4 C   15?   6.13 113.2    9 285  88  40
   ................
   2024 03 16 18:30  11 26 46.14    +17 53 41.5   0.0083 1.0028 162.8 Cm  15?   5.09  93.8   16  80  83  45
   2024 03 16 18:40  11 26 49.65    +17 53 38.1   0.0083 1.0028 162.8 Cm  15?   4.94  94.0   18  82  82  45
   2024 03 16 18:50  11 26 53.04    +17 53 34.6   0.0082 1.0028 162.8 Nm  15?   4.79  94.3   20  83  82  45
   2024 03 16 19:00  11 26 56.34    +17 53 31.0   0.0082 1.0028 162.8 Nm  15?   4.64  94.5   22  85  82  45
   2024 03 16 19:10  11 26 59.53    +17 53 27.3   0.0082 1.0029 162.8 Nm  15?   4.50  94.8   23  86  82  46
   2024 03 16 19:20  11 27 02.61    +17 53 23.4   0.0082 1.0029 162.8 Nm  15?   4.35  95.2   25  88  82  46
   2024 03 16 19:30  11 27 05.60    +17 53 19.4   0.0082 1.0029 162.8 Am  15?   4.21  95.6   27  89  82  46
   2024 03 16 19:40  11 27 08.48    +17 53 15.2   0.0082 1.0029 162.8 Am  15?   4.07  96.1   29  91  82  46
   2024 03 16 19:50  11 27 11.27    +17 53 10.8   0.0082 1.0029 162.8 Am  15?   3.94  96.6   31  93  82  46
   2024 03 16 20:00  11 27 13.96    +17 53 06.1   0.0082 1.0029 162.8  m  15?   3.81  97.2   33  95  82  46
   2024 03 16 20:10  11 27 16.56    +17 53 01.3   0.0082 1.0029 162.8  m  15?   3.68  97.8   35  96  82  46
   2024 03 16 20:20  11 27 19.07    +17 52 56.1   0.0082 1.0029 162.8  m  15?   3.55  98.5   37  98  82  46
   2024 03 16 20:30  11 27 21.49    +17 52 50.7   0.0082 1.0029 162.8  m  15?   3.44  99.3   39 100  82  46
   2024 03 16 20:40  11 27 23.82    +17 52 45.1   0.0082 1.0029 162.8  m  15?   3.32 100.1   40 102  82  46
   2024 03 16 20:50  11 27 26.07    +17 52 39.1   0.0082 1.0029 162.8  m  15?   3.21 101.0   42 104  82  46
   2024 03 16 21:00  11 27 28.24    +17 52 32.8   0.0082 1.0029 162.8  m  15?   3.11 102.0   44 106  82  46
   2024 03 16 21:10  11 27 30.33    +17 52 26.1   0.0082 1.0029 162.8  m  15?   3.01 103.1   46 108  82  46
   2024 03 16 21:20  11 27 32.35    +17 52 19.1   0.0082 1.0029 162.8  m  15?   2.92 104.2   48 111  82  46
   2024 03 16 21:30  11 27 34.30    +17 52 11.8   0.0082 1.0029 162.8  m  15?   2.84 105.4   49 113  82  46
   2024 03 16 21:40  11 27 36.18    +17 52 04.0   0.0082 1.0029 162.8  m  15?   2.76 106.7   51 116  82  46
   2024 03 16 21:50  11 27 38.00    +17 51 55.9   0.0082 1.0029 162.8  m  15?   2.69 108.0   53 119  81  46
   2024 03 16 22:00  11 27 39.76    +17 51 47.4   0.0082 1.0029 162.8  m  15?   2.62 109.4   54 121  81  46
   2024 03 16 22:10  11 27 41.47    +17 51 38.5   0.0082 1.0029 162.8  m  15?   2.56 110.9   56 125  81  46
   2024 03 16 22:20  11 27 43.12    +17 51 29.1   0.0082 1.0029 162.8  m  15?   2.52 112.3   57 128  81  47
   2024 03 16 22:30  11 27 44.72    +17 51 19.3   0.0082 1.0029 162.8  m  15?   2.47 113.8   59 132  81  47
   2024 03 16 22:40  11 27 46.29    +17 51 09.1   0.0082 1.0029 162.8  m  15?   2.44 115.3   60 136  81  47
   2024 03 16 22:50  11 27 47.81    +17 50 58.4   0.0082 1.0029 162.8  m  15?   2.41 116.8   61 140  81  47
   2024 03 16 23:00  11 27 49.31    +17 50 47.3   0.0082 1.0029 162.8  m  15?   2.39 118.3   63 144  81  47
   2024 03 16 23:10  11 27 50.77    +17 50 35.7   0.0082 1.0029 162.8  m  15?   2.38 119.7   64 149  81  47
   2024 03 16 23:20  11 27 52.21    +17 50 23.6   0.0082 1.0029 162.8  m  15?   2.38 121.1   65 154  81  47
   2024 03 16 23:30  11 27 53.62    +17 50 11.1   0.0082 1.0029 162.8  m  15?   2.38 122.3   65 160  81  47
   2024 03 16 23:40  11 27 55.02    +17 49 58.1   0.0082 1.0029 162.8  m  15?   2.39 123.5   66 166  81  47
   2024 03 16 23:50  11 27 56.42    +17 49 44.7   0.0082 1.0029 162.8  m  15?   2.41 124.6   66 171  81  47
   2024 03 17 00:00  11 27 57.80    +17 49 30.7   0.0082 1.0029 162.8  m  15?   2.43 125.6   66 177  81  47
   2024 03 17 00:10  11 27 59.18    +17 49 16.3   0.0082 1.0029 162.8  t  15?   2.46 126.5   66 184  80  47
   2024 03 17 00:20  11 28 00.57    +17 49 01.4   0.0082 1.0029 162.8  m  15?   2.50 127.3   66 190  80  47
   2024 03 17 00:30  11 28 01.97    +17 48 46.1   0.0082 1.0029 162.8  m  15?   2.54 127.9   66 195  80  47
   2024 03 17 00:40  11 28 03.37    +17 48 30.2   0.0082 1.0029 162.8  m  15?   2.58 128.5   65 201  80  47
   2024 03 17 00:50  11 28 04.80    +17 48 13.9   0.0082 1.0029 162.8  m  15?   2.63 128.9   64 206  80  48
   2024 03 17 01:00  11 28 06.24    +17 47 57.2   0.0082 1.0029 162.8  m  15?   2.69 129.2   63 211  80  48
   2024 03 17 01:10  11 28 07.72    +17 47 39.9   0.0082 1.0029 162.8  m  15?   2.75 129.4   62 216  80  48
   2024 03 17 01:20  11 28 09.22    +17 47 22.2   0.0082 1.0029 162.8  m  15?   2.82 129.5   61 221  80  48
   2024 03 17 01:30  11 28 10.76    +17 47 04.1   0.0082 1.0029 162.8  m  15?   2.89 129.5   60 225  80  48
   2024 03 17 01:40  11 28 12.34    +17 46 45.6   0.0082 1.0029 162.8  m  15?   2.96 129.4   58 228  80  48
   2024 03 17 01:50  11 28 13.97    +17 46 26.6   0.0082 1.0029 162.8  m  15?   3.04 129.2   57 232  80  48
   2024 03 17 02:00  11 28 15.64    +17 46 07.1   0.0082 1.0029 162.8  m  15?   3.12 128.9   55 235  80  48
   2024 03 17 02:10  11 28 17.37    +17 45 47.3   0.0082 1.0029 162.9  m  15?   3.21 128.6   54 238  79  48
   2024 03 17 02:20  11 28 19.15    +17 45 27.1   0.0082 1.0029 162.9     15?   3.30 128.2   52 241  79  48
   2024 03 17 02:30  11 28 21.00    +17 45 06.4   0.0082 1.0029 162.9     15?   3.39 127.8   50 244  79  48
   2024 03 17 02:40  11 28 22.90    +17 44 45.4   0.0082 1.0029 162.9     15?   3.49 127.3   49 247  79  48
   2024 03 17 02:50  11 28 24.88    +17 44 24.1   0.0082 1.0029 162.9     15?   3.59 126.8   47 249  79  49
   2024 03 17 03:00  11 28 26.93    +17 44 02.4   0.0082 1.0029 162.9     15?   3.70 126.3   45 251  79  49
   2024 03 17 03:10  11 28 29.05    +17 43 40.3   0.0082 1.0029 162.9     15?   3.81 125.7   43 253  79  49
   2024 03 17 03:20  11 28 31.25    +17 43 18.0   0.0082 1.0029 162.9     15?   3.92 125.1   41 256  79  49
   2024 03 17 03:30  11 28 33.54    +17 42 55.3   0.0082 1.0029 162.9     15?   4.03 124.5   40 258  79  49
   2024 03 17 03:40  11 28 35.91    +17 42 32.3   0.0082 1.0029 162.9     15?   4.15 123.8   38 259  79  49
   2024 03 17 03:50  11 28 38.36    +17 42 09.1   0.0082 1.0029 162.9     15?   4.27 123.2   36 261  79  49
   2024 03 17 04:00  11 28 40.91    +17 41 45.6   0.0082 1.0030 162.9     15?   4.39 122.5   34 263  78  49
   2024 03 17 04:10  11 28 43.54    +17 41 21.8   0.0082 1.0030 162.9     15?   4.52 121.8   32 265  78  49
   2024 03 17 04:20  11 28 46.28    +17 40 57.9   0.0082 1.0030 162.9     15?   4.65 121.2   30 267  78  49
   2024 03 17 04:30  11 28 49.11    +17 40 33.7   0.0082 1.0030 162.9     15?   4.78 120.5   28 268  78  49
   2024 03 17 04:40  11 28 52.03    +17 40 09.4   0.0082 1.0030 162.9     15?   4.91 119.8   27 270  78  50
   2024 03 17 04:50  11 28 55.06    +17 39 44.9   0.0082 1.0030 162.9     15?   5.04 119.2   25 271  78  50
   2024 03 17 05:00  11 28 58.19    +17 39 20.2   0.0082 1.0030 162.9 A   15?   5.18 118.5   23 273  78  50
   2024 03 17 05:10  11 29 01.42    +17 38 55.4   0.0082 1.0030 162.9 A   15?   5.31 117.8   21 275  78  50
   2024 03 17 05:20  11 29 04.76    +17 38 30.6   0.0082 1.0030 162.9 A   15?   5.45 117.2   19 276  78  50
   2024 03 17 05:30  11 29 08.20    +17 38 05.6   0.0082 1.0030 162.9 N   15?   5.59 116.6   17 278  78  50
   2024 03 17 05:40  11 29 11.75    +17 37 40.5   0.0082 1.0030 163.0 N   15?   5.73 115.9   15 279  77  50
   2024 03 17 05:50  11 29 15.41    +17 37 15.5   0.0082 1.0030 163.0 N   15?   5.87 115.3   13 281  77  50
   2024 03 17 06:00  11 29 19.17    +17 36 50.3   0.0082 1.0030 163.0 C   15?   6.01 114.7   12 282  77  50
   2024 03 17 06:10  11 29 23.04    +17 36 25.2   0.0082 1.0030 163.0 C   15?   6.14 114.1   10 284  77  50
   ................
   2024 03 17 18:30  11 36 01.33    +17 18 32.5   0.0082 1.0031 163.3 Cm  15?   5.22  95.4   15  80  72  56
   2024 03 17 18:40  11 36 04.91    +17 18 27.6   0.0082 1.0031 163.3 Cm  15?   5.07  95.6   17  81  72  56
   2024 03 17 18:50  11 36 08.38    +17 18 22.6   0.0082 1.0031 163.3 Cm  15?   4.92  95.9   18  83  72  56
   2024 03 17 19:00  11 36 11.75    +17 18 17.6   0.0082 1.0031 163.3 Nm  15?   4.78  96.2   20  84  72  56
   2024 03 17 19:10  11 36 15.02    +17 18 12.4   0.0082 1.0031 163.3 Nm  15?   4.63  96.5   22  86  72  56
   2024 03 17 19:20  11 36 18.18    +17 18 07.1   0.0082 1.0031 163.3 Nm  15?   4.49  96.9   24  88  72  56
   2024 03 17 19:30  11 36 21.23    +17 18 01.6   0.0082 1.0031 163.3 Am  15?   4.34  97.3   26  89  72  56
   2024 03 17 19:40  11 36 24.19    +17 17 56.0   0.0082 1.0031 163.3 Am  15?   4.20  97.8   28  91  72  56
   2024 03 17 19:50  11 36 27.05    +17 17 50.2   0.0082 1.0031 163.3 Am  15?   4.07  98.4   30  92  72  56
   2024 03 17 20:00  11 36 29.82    +17 17 44.2   0.0082 1.0031 163.3  m  15?   3.94  99.0   32  94  72  56
   2024 03 17 20:10  11 36 32.48    +17 17 37.9   0.0082 1.0031 163.3  m  15?   3.81  99.6   33  96  72  56
   2024 03 17 20:20  11 36 35.06    +17 17 31.5   0.0082 1.0031 163.3  m  15?   3.68 100.3   35  98  72  56
   2024 03 17 20:30  11 36 37.54    +17 17 24.7   0.0082 1.0031 163.3  m  15?   3.56 101.1   37 100  71  56
   2024 03 17 20:40  11 36 39.94    +17 17 17.7   0.0082 1.0031 163.3  m  15?   3.45 101.9   39 102  71  56
   2024 03 17 20:50  11 36 42.25    +17 17 10.4   0.0082 1.0031 163.3  m  15?   3.34 102.9   41 104  71  56
   2024 03 17 21:00  11 36 44.49    +17 17 02.8   0.0082 1.0031 163.3  m  15?   3.23 103.8   43 106  71  56
   2024 03 17 21:10  11 36 46.64    +17 16 54.9   0.0082 1.0031 163.3  m  15?   3.13 104.9   44 108  71  57
   2024 03 17 21:20  11 36 48.71    +17 16 46.7   0.0082 1.0031 163.3  m  15?   3.04 106.0   46 110  71  57
   2024 03 17 21:30  11 36 50.72    +17 16 38.1   0.0082 1.0031 163.3  m  15?   2.95 107.2   48 112  71  57
   2024 03 17 21:40  11 36 52.65    +17 16 29.1   0.0082 1.0031 163.3  m  15?   2.87 108.5   50 115  71  57
   2024 03 17 21:50  11 36 54.53    +17 16 19.8   0.0082 1.0032 163.3  m  15?   2.80 109.8   51 118  71  57
   2024 03 17 22:00  11 36 56.34    +17 16 10.1   0.0082 1.0032 163.3  m  15?   2.74 111.2   53 121  71  57
   2024 03 17 22:10  11 36 58.09    +17 16 00.0   0.0082 1.0032 163.3  m  15?   2.68 112.6   55 124  71  57
   2024 03 17 22:20  11 36 59.79    +17 15 49.5   0.0082 1.0032 163.3  m  15?   2.63 114.0   56 127  71  57
   2024 03 17 22:30  11 37 01.44    +17 15 38.6   0.0082 1.0032 163.3  m  15?   2.58 115.5   58 130  71  57
   2024 03 17 22:40  11 37 03.04    +17 15 27.3   0.0082 1.0032 163.3  m  15?   2.55 116.9   59 134  71  57
   2024 03 17 22:50  11 37 04.61    +17 15 15.5   0.0082 1.0032 163.3  m  15?   2.52 118.4   60 138  71  57
   2024 03 17 23:00  11 37 06.14    +17 15 03.3   0.0082 1.0032 163.3  m  15?   2.50 119.8   62 143  71  57
   2024 03 17 23:10  11 37 07.63    +17 14 50.6   0.0082 1.0032 163.3  m  15?   2.48 121.2   63 147  71  57
   2024 03 17 23:20  11 37 09.10    +17 14 37.5   0.0082 1.0032 163.4  m  15?   2.48 122.5   64 152  71  57
   2024 03 17 23:30  11 37 10.55    +17 14 24.0   0.0082 1.0032 163.4  m  15?   2.48 123.8   64 157  70  57
   2024 03 17 23:40  11 37 11.98    +17 14 10.0   0.0082 1.0032 163.4  m  15?   2.48 124.9   65 163  70  57
   2024 03 17 23:50  11 37 13.39    +17 13 55.5   0.0082 1.0032 163.4  m  15?   2.50 126.0   65 169  70  57
   2024 03 18 00:00  11 37 14.80    +17 13 40.6   0.0082 1.0032 163.4  m  15?   2.52 127.0   66 174  70  57
   

INTEGRAL (JPL-ID: -198)

   Date (UTC) HH:MM   RA              Dec         delta   r     elong SM  mag  '/hr    PA   alt  az moo ill
   ---- -- -- -----  -------------   -----------  ------ ------ ----- --  --- ------ ------ --- --- --- ---
   2024 03 04 00:00  13 35 16.96    +72 58 45.1   145676 0.9919 109.4     18?  35.43 212.4   51  19 107  45
   2024 03 04 00:10  13 34 32.59    +72 53 42.0   145508 0.9920 109.5     18?  36.74 212.6   52  19 107  45
   2024 03 04 00:20  13 33 46.58    +72 48 28.5   145336 0.9920 109.6     18?  38.07 212.8   52  18 107  45
   2024 03 04 00:30  13 32 59.06    +72 43 04.1   145161 0.9920 109.8     18?  39.41 212.8   53  17 107  45
   2024 03 04 00:40  13 32 10.16    +72 37 28.3   144982 0.9920 109.9     18?  40.76 212.7   54  16 107  45
   2024 03 04 00:50  13 31 20.02    +72 31 40.8   144799 0.9920 110.0     18?  42.12 212.6   54  16 107  45
   2024 03 04 01:00  13 30 28.79    +72 25 41.0   144613 0.9920 110.1     18?  43.49 212.4   55  15 107  45
   2024 03 04 01:10  13 29 36.60    +72 19 28.6   144424 0.9920 110.2     18?  44.85 212.1   56  14 107  45
   2024 03 04 01:20  13 28 43.62    +72 13 03.2   144231 0.9920 110.3     18?  46.22 211.7   56  12 107  45
   2024 03 04 01:30  13 27 49.98    +72 06 24.5   144035 0.9920 110.5     18?  47.58 211.3   57  11 107  45
   2024 03 04 01:40  13 26 55.83    +71 59 32.2   143837 0.9920 110.6     18?  48.94 210.8   57  10 107  45
   2024 03 04 01:50  13 26 01.34    +71 52 25.9   143635 0.9920 110.7     18?  50.30 210.2   58   9 107  44
   2024 03 04 02:00  13 25 06.64    +71 45 05.5   143430 0.9920 110.9     18?  51.65 209.6   58   7 107  44
   2024 03 04 02:10  13 24 11.88    +71 37 30.7   143223 0.9920 111.0     18?  52.99 209.0   58   6 107  44
   2024 03 04 02:20  13 23 17.21    +71 29 41.3   143013 0.9920 111.2  m  18?  54.32 208.4   59   4 107  44
   2024 03 04 02:30  13 22 22.79    +71 21 37.2   142800 0.9920 111.3  m  18?  55.64 207.7   59   2 107  44
   2024 03 04 02:40  13 21 28.75    +71 13 18.2   142585 0.9920 111.5  m  18?  56.95 206.9   59   1 107  44
   2024 03 04 02:50  13 20 35.22    +71 04 44.2   142367 0.9920 111.6  t  18?  58.25 206.2   59 359 107  44
   2024 03 04 03:00  13 19 42.36    +70 55 55.2   142147 0.9920 111.8  m  18?  59.53 205.4   60 357 107  44
   2024 03 04 03:10  13 18 50.28    +70 46 51.1   141924 0.9920 111.9  e  18?  60.80 204.6   60 355 107  44
   2024 03 04 03:20  13 17 59.13    +70 37 32.0   141699 0.9920 112.1  m  18?  62.05 203.8   60 353 107  44
   2024 03 04 03:30  13 17 09.01    +70 27 57.8   141472 0.9920 112.3  m  18?  63.28 202.9   59 352 107  44
   2024 03 04 03:40  13 16 20.06    +70 18 08.6   141242 0.9920 112.4  m  18?  64.50 202.1   59 350 107  44
   2024 03 04 03:50  13 15 32.37    +70 08 04.6   141010 0.9920 112.6  m  18?  65.70 201.2   59 348 107  44
   2024 03 04 04:00  13 14 46.07    +69 57 45.7   140776 0.9920 112.8  m  18?  66.89 200.3   59 346 107  44
   2024 03 04 04:10  13 14 01.24    +69 47 12.3   140539 0.9920 113.0  m  18?  68.05 199.4   58 344 107  44
   2024 03 04 04:20  13 13 17.99    +69 36 24.3   140301 0.9920 113.1  m  18?  69.19 198.5   58 343 107  44
   2024 03 04 04:30  13 12 36.40    +69 25 22.2   140060 0.9920 113.3  m  18?  70.31 197.6   58 341 107  44
   2024 03 04 04:40  13 11 56.55    +69 14 06.0   139816 0.9920 113.5  m  18?  71.41 196.7   57 340 107  43
   2024 03 04 04:50  13 11 18.52    +69 02 36.0   139570 0.9920 113.7  m  18?  72.49 195.8   56 338 107  43
   2024 03 04 05:00  13 10 42.37    +68 50 52.5   139322 0.9920 113.9  m  18?  73.55 194.8   56 337 107  43
   2024 03 04 05:10  13 10 08.17    +68 38 55.9   139072 0.9920 114.1  m  18?  74.59 193.9   55 336 107  43
   2024 03 04 05:20  13 09 35.98    +68 26 46.3   138819 0.9920 114.3 Am  18?  75.60 193.0   54 334 107  43
   2024 03 04 05:30  13 09 05.83    +68 14 24.2   138563 0.9920 114.5 Am  18?  76.59 192.0   54 333 107  43
   2024 03 04 05:40  13 08 37.78    +68 01 49.8   138305 0.9920 114.7 Am  18?  77.56 191.1   53 332 107  43
   2024 03 04 05:50  13 08 11.86    +67 49 03.6   138044 0.9920 114.9 Nm  18?  78.51 190.2   52 331 107  43
   2024 03 04 06:00  13 07 48.09    +67 36 05.9   137781 0.9920 115.0 Nm  18?  79.43 189.2   51 331 107  43
   2024 03 04 06:10  13 07 26.51    +67 22 57.2   137514 0.9921 115.2 Nm  18?  80.32 188.3   50 330 107  43
   2024 03 04 06:20  13 07 07.14    +67 09 37.8   137245 0.9921 115.4 Cm  18?  81.20 187.4   49 329 107  43
   2024 03 04 06:30  13 06 49.97    +66 56 08.1   136972 0.9921 115.6 Cm  18?  82.05 186.4   48 328 106  43
   ................
   2024 03 04 18:20  13 44 38.82    +48 59 47.2    98003 0.9922 125.1 C   18? 105.93 159.2    9  29  94  38
   2024 03 04 18:30  13 45 16.18    +48 43 09.7    97003 0.9922 125.2 C   18? 106.88 159.9    9  31  94  38
   2024 03 04 18:40  13 45 52.49    +48 26 18.3    95986 0.9922 125.3 N   18? 107.95 160.6   10  32  94  38
   2024 03 04 18:50  13 46 27.70    +48 09 11.9    94953 0.9922 125.4 N   17? 109.15 161.3   11  34  94  38
   2024 03 04 19:00  13 47 01.78    +47 51 48.9    93904 0.9922 125.5 N   17? 110.47 162.1   12  35  94  38
   2024 03 04 19:10  13 47 34.67    +47 34 08.1    92838 0.9922 125.6 A   17? 111.95 162.8   13  36  94  37
   2024 03 04 19:20  13 48 06.35    +47 16 07.8    91755 0.9922 125.7 A   17? 113.58 163.7   13  38  93  37
   2024 03 04 19:30  13 48 36.76    +46 57 46.4    90656 0.9922 125.8 A   17? 115.39 164.5   14  39  93  37
   2024 03 04 19:40  13 49 05.88    +46 39 02.1    89540 0.9922 125.9 A   17? 117.38 165.4   15  41  93  37
   2024 03 04 19:50  13 49 33.66    +46 19 53.1    88407 0.9922 126.1     17? 119.58 166.3   16  42  93  37
   2024 03 04 20:00  13 50 00.07    +46 00 17.2    87258 0.9922 126.2     17? 122.00 167.1   17  43  93  37
   2024 03 04 20:10  13 50 25.06    +45 40 12.5    86091 0.9922 126.3     17? 124.65 168.0   18  45  92  37
   2024 03 04 20:20  13 50 48.61    +45 19 36.5    84907 0.9922 126.5     17? 127.56 169.0   19  46  92  37
   2024 03 04 20:30  13 51 10.68    +44 58 26.8    83706 0.9922 126.6     17? 130.74 169.9   21  48  92  37
   2024 03 04 20:40  13 51 31.24    +44 36 40.7    82487 0.9922 126.8     17? 134.22 170.8   22  49  92  37
   2024 03 04 20:50  13 51 50.25    +44 14 15.3    81251 0.9922 126.9     17? 138.02 171.7   23  51  92  37
   2024 03 04 21:00  13 52 07.68    +43 51 07.6    79997 0.9922 127.1     17? 142.16 172.6   24  52  91  36
   2024 03 04 21:10  13 52 23.51    +43 27 14.1    78726 0.9922 127.3     17? 146.67 173.4   25  53  91  36
   2024 03 04 21:20  13 52 37.71    +43 02 31.4    77437 0.9922 127.4     17? 151.58 174.3   27  55  91  36
   2024 03 04 21:30  13 52 50.24    +42 36 55.4    76130 0.9922 127.6     17? 156.93 175.1   28  56  91  36
   2024 03 04 21:40  13 53 01.09    +42 10 22.0    74805 0.9922 127.8     17? 162.75 175.9   29  58  91  36
   2024 03 04 21:50  13 53 10.23    +41 42 46.4    73462 0.9922 128.1     17? 169.07 176.7   31  59  90  36
   2024 03 04 22:00  13 53 17.64    +41 14 03.8    72100 0.9922 128.3     17? 175.95 177.4   32  61  90  36
   2024 03 04 22:10  13 53 23.28    +40 44 08.4    70720 0.9921 128.5     17? 183.43 178.1   34  62  90  36
   2024 03 04 22:20  13 53 27.16    +40 12 54.4    69321 0.9921 128.8     17? 191.57 178.8   35  64  90  36
   2024 03 04 22:30  13 53 29.23    +39 40 15.0    67903 0.9921 129.1     17? 200.43 179.5   36  66  89  36
   2024 03 04 22:40  13 53 29.50    +39 06 03.0    66465 0.9921 129.3     17? 210.08 180.0   38  67  89  35
   2024 03 04 22:50  13 53 27.93    +38 30 10.1    65008 0.9921 129.6     17? 220.60 180.6   39  69  89  35
   2024 03 04 23:00  13 53 24.52    +37 52 27.6    63532 0.9921 130.0     17? 232.09 181.1   41  71  89  35
   2024 03 04 23:10  13 53 19.24    +37 12 45.2    62035 0.9921 130.3     17? 244.66 181.6   43  73  88  35
   2024 03 04 23:20  13 53 12.09    +36 30 51.8    60518 0.9921 130.6     17? 258.42 182.0   44  75  88  35
   2024 03 04 23:30  13 53 03.05    +35 46 34.9    58980 0.9921 131.0     17? 273.54 182.4   46  77  88  35
   2024 03 04 23:40  13 52 52.10    +34 59 40.3    57422 0.9921 131.4     17? 290.17 182.7   47  80  87  35
   2024 03 04 23:50  13 52 39.24    +34 09 51.9    55842 0.9921 131.8     17? 308.52 183.0   49  82  87  35
   2024 03 05 00:00  13 52 24.43    +33 16 51.5    54240 0.9921 132.2     16? 328.83 183.3   50  85  86  35
   2024 03 05 00:10  13 52 07.67    +32 20 18.1    52616 0.9921 132.7     16? 351.39 183.5   52  88  86  35
   2024 03 05 00:20  13 51 48.93    +31 19 47.7    50970 0.9921 133.2     16? 376.53 183.7   53  91  85  35
   2024 03 05 00:30  13 51 28.18    +30 14 52.4    49300 0.9921 133.7     16? 404.67 183.9   55  94  85  35
   2024 03 05 00:40  13 51 05.39    +29 04 59.8    47608 0.9921 134.2     16? 436.33 184.0   56  98  84  34
   2024 03 05 00:50  13 50 40.51    +27 49 31.9    45892 0.9921 134.7     16? 472.11 184.0   57 102  84  34
   2024 03 05 01:00  13 50 13.48    +26 27 43.5    44151 0.9921 135.3     16? 512.79 184.1   59 107  83  34
   2024 03 05 01:10  13 49 44.24    +24 58 41.1    42387 0.9921 135.9     16? 559.32 184.1   60 112  82  34
   2024 03 05 01:20  13 49 12.68    +23 21 20.2    40599 0.9921 136.5     16? 612.93 184.1   60 118  82  34
   2024 03 05 01:30  13 48 38.67    +21 34 22.8    38787 0.9921 137.1     16? 675.14 184.1   61 124  81  34
   2024 03 05 01:40  13 48 02.04    +19 36 13.2    36951 0.9921 137.7  e  16? 747.95 184.0   61 131  80  34
   2024 03 05 01:50  13 47 22.54    +17 24 53.1    35092 0.9921 138.3     16? 833.94 183.9   60 138  79  34
   2024 03 05 02:00  13 46 39.85    +14 57 54.4    33213 0.9921 138.9     16? 936.50 183.8   59 145  78  34
   2024 03 05 02:10  13 45 53.50    +12 12 10.1    31315 0.9921 139.4     15? 1060.1 183.7   58 151  76  34
   2024 03 05 02:20  13 45 02.84    +09 03 40.6    29403 0.9921 139.8     15? 1210.9 183.6   56 158  75  34
   2024 03 05 02:30  13 44 06.92    +05 27 16.1    27484 0.9920 140.0     15? 1396.9 183.5   53 164  73  34
   2024 03 05 02:40  13 43 04.28    +01 16 12.2    25568 0.9920 139.9     15? 1629.2 183.4   49 170  71  34
   2024 03 05 02:50  13 41 52.67    -03 38 22.8    23668 0.9920 139.3     15? 1922.3 183.3   45 175  69  34
   2024 03 05 03:00  13 40 28.40    -09 28 06.6    21810 0.9920 137.9     15? 2295.1 183.3   39 179  67  34
   2024 03 05 03:10  13 38 44.96    -16 28 01.8    20028 0.9920 135.5  t  14? 2769.5 183.4   32 182  64  33
   2024 03 05 03:20  13 36 30.00    -24 56 45.9    18375 0.9920 131.6     14? 3365.6 183.5   23 185  61  33
   2024 03 05 03:30  13 33 16.92    -35 15 05.6    16928 0.9920 125.7  m  14? 4086.9 184.0   13 187  59  33
   2024 03 05 03:40  13 27 57.30    -47 40 41.5    15792 0.9920 117.6  m  13? 4890.8 185.0    0 188  57  33
   ................
   2024 03 05 18:20  01 25 38.16    +89 22 00.1   113769 0.9921  95.2 C   17?  53.98 338.7   41 359 118  28
   2024 03 05 18:30  00 56 32.51    +89 29 42.5   114459 0.9921  95.3 C   17?  51.94 331.5   41 359 118  28
   2024 03 05 18:40  00 12 16.66    +89 36 28.0   115140 0.9921  95.4 N   17?  50.00 317.3   40 359 118  28
   2024 03 05 18:50  23 02 29.82    +89 41 41.3   115810 0.9921  95.4 N   17?  48.15 287.9   40 359 118  27
   2024 03 05 19:00  21 21 11.93    +89 44 18.2   116472 0.9921  95.5 N   17?  46.40 247.2   40 359 118  27
   2024 03 05 19:10  19 32 42.69    +89 43 28.8   117124 0.9921  95.6 At  17?  44.76 221.9   40   0 118  27
   2024 03 05 19:20  18 11 24.95    +89 39 56.7   117767 0.9921  95.6 A   17?  43.23 210.2   40   0 117  27
   2024 03 05 19:30  17 18 57.61    +89 35 02.2   118400 0.9921  95.7 A   17?  41.81 204.4   40   0 117  27
   2024 03 05 19:40  16 44 29.37    +89 29 34.2   119024 0.9922  95.8 A   17?  40.51 201.3   40   0 117  27
   2024 03 05 19:50  16 20 16.40    +89 23 54.9   119640 0.9922  95.8     17?  39.34 199.6   40   0 117  27
   2024 03 05 20:00  16 02 04.32    +89 18 13.8   120246 0.9922  95.9     17?  38.29 198.9   40   0 117  27
   2024 03 05 20:10  15 47 34.73    +89 12 35.4   120843 0.9922  96.0     17?  37.38 198.7   40   0 117  27
   2024 03 05 20:20  15 35 28.91    +89 07 01.5   121431 0.9922  96.0     17?  36.61 198.9   40   1 117  27
   2024 03 05 20:30  15 24 59.79    +89 01 32.6   122010 0.9922  96.1     17?  35.97 199.4   40   1 117  27
   2024 03 05 20:40  15 15 37.86    +88 56 08.7   122581 0.9922  96.2     17?  35.48 200.1   40   1 117  26
   2024 03 05 20:50  15 07 03.97    +88 50 49.0   123143 0.9922  96.3     17?  35.12 200.9   40   1 117  26
   2024 03 05 21:00  14 59 05.30    +88 45 33.0   123696 0.9922  96.3     17?  34.90 201.8   40   1 117  26
   2024 03 05 21:10  14 51 33.09    +88 40 19.6   124240 0.9922  96.4     17?  34.82 202.7   40   1 117  26
   2024 03 05 21:20  14 44 21.27    +88 35 08.0   124777 0.9922  96.5     17?  34.87 203.6   40   1 117  26
   2024 03 05 21:30  14 37 25.64    +88 29 56.9   125304 0.9922  96.6     17?  35.04 204.5   40   2 117  26
   2024 03 05 21:40  14 30 43.29    +88 24 45.4   125824 0.9922  96.7     17?  35.32 205.2   40   2 117  26
   2024 03 05 21:50  14 24 12.22    +88 19 32.3   126335 0.9922  96.8     17?  35.72 205.9   40   2 117  26
   2024 03 05 22:00  14 17 51.15    +88 14 16.5   126839 0.9922  96.9     17?  36.21 206.5   41   2 117  26
   2024 03 05 22:10  14 11 39.29    +88 08 57.1   127334 0.9922  96.9     17?  36.80 207.0   41   2 117  26
   2024 03 05 22:20  14 05 36.19    +88 03 32.8   127821 0.9922  97.0     17?  37.47 207.4   41   2 117  26
   2024 03 05 22:30  13 59 41.72    +87 58 02.9   128301 0.9922  97.1     17?  38.21 207.6   41   2 117  25
   2024 03 05 22:40  13 53 55.91    +87 52 26.2   128773 0.9922  97.2     17?  39.01 207.7   41   2 117  25
   2024 03 05 22:50  13 48 18.93    +87 46 42.0   129237 0.9922  97.4     17?  39.87 207.7   41   2 117  25
   2024 03 05 23:00  13 42 51.05    +87 40 49.3   129694 0.9922  97.5     17?  40.79 207.6   42   2 117  25
   2024 03 05 23:10  13 37 32.58    +87 34 47.5   130144 0.9922  97.6     17?  41.74 207.3   42   2 117  25
   2024 03 05 23:20  13 32 23.87    +87 28 35.9   130586 0.9922  97.7     17?  42.72 207.0   42   2 117  25
   2024 03 05 23:30  13 27 25.24    +87 22 13.7   131021 0.9923  97.8     17?  43.74 206.6   42   2 117  25
   2024 03 05 23:40  13 22 37.00    +87 15 40.6   131449 0.9923  97.9     17?  44.78 206.1   42   2 117  25
   2024 03 05 23:50  13 17 59.45    +87 08 55.9   131871 0.9923  98.0     17?  45.84 205.6   43   2 118  25
   2024 03 06 00:00  13 13 32.82    +87 01 59.4   132285 0.9923  98.2     17?  46.91 204.9   43   2 118  25
   2024 03 06 00:10  13 09 17.30    +86 54 50.6   132693 0.9923  98.3     17?  48.00 204.3   43   2 118  25
   2024 03 06 00:20  13 05 13.03    +86 47 29.2   133095 0.9923  98.4     17?  49.09 203.6   43   2 118  25
   2024 03 06 00:30  13 01 20.09    +86 39 55.1   133490 0.9923  98.6     17?  50.18 202.8   43   2 118  24
   2024 03 06 00:40  12 57 38.53    +86 32 08.1   133878 0.9923  98.7     17?  51.27 202.0   44   2 118  24
   2024 03 06 00:50  12 54 08.33    +86 24 08.1   134261 0.9923  98.8     17?  52.36 201.2   44   1 118  24
   2024 03 06 01:00  12 50 49.42    +86 15 55.0   134637 0.9923  99.0     17?  53.45 200.3   44   1 118  24
   2024 03 06 01:10  12 47 41.71    +86 07 28.9   135007 0.9923  99.1     17?  54.53 199.5   44   1 118  24
   2024 03 06 01:20  12 44 45.03    +85 58 49.9   135372 0.9923  99.3     17?  55.59 198.6   44   1 118  24
   2024 03 06 01:30  12 41 59.23    +85 49 57.9   135731 0.9923  99.4     17?  56.65 197.7   45   0 118  24
   2024 03 06 01:40  12 39 24.09    +85 40 53.1   136084 0.9923  99.6     17?  57.69 196.8   45   0 118  24
   2024 03 06 01:50  12 36 59.37    +85 31 35.7   136431 0.9923  99.7     17?  58.72 195.9   45   0 118  24
   2024 03 06 02:00  12 34 44.82    +85 22 05.9   136774 0.9923  99.9  t  17?  59.73 195.0   45 359 118  24
   2024 03 06 02:10  12 32 40.18    +85 12 23.9   137110 0.9923 100.1     17?  60.73 194.2   45 359 119  24
   2024 03 06 02:20  12 30 45.14    +85 02 30.0   137442 0.9923 100.2     17?  61.70 193.3   45 359 119  24
   2024 03 06 02:30  12 28 59.43    +84 52 24.4   137769 0.9923 100.4     17?  62.66 192.4   46 358 119  24
   2024 03 06 02:40  12 27 22.74    +84 42 07.4   138090 0.9923 100.6     17?  63.59 191.5   46 358 119  24
   2024 03 06 02:50  12 25 54.76    +84 31 39.4   138407 0.9923 100.7     17?  64.50 190.6   46 357 119  23
   2024 03 06 03:00  12 24 35.19    +84 21 00.6   138718 0.9923 100.9     17?  65.39 189.7   46 357 119  23
   2024 03 06 03:10  12 23 23.72    +84 10 11.5   139025 0.9923 101.1     17?  66.26 188.8   46 356 119  23
   2024 03 06 03:20  12 22 20.04    +83 59 12.3   139328 0.9923 101.3     17?  67.10 188.0   46 356 119  23
   2024 03 06 03:30  12 21 23.85    +83 48 03.5   139625 0.9924 101.5     17?  67.92 187.1   46 355 119  23
   2024 03 06 03:40  12 20 34.86    +83 36 45.4   139918 0.9924 101.6  e  18?  68.71 186.3   46 355 119  23
   2024 03 06 03:50  12 19 52.78    +83 25 18.5   140207 0.9924 101.8     18?  69.48 185.4   46 354 119  23
   2024 03 06 04:00  12 19 17.31    +83 13 43.1   140491 0.9924 102.0     18?  70.22 184.6   46 354 119  23
   2024 03 06 04:10  12 18 48.19    +83 01 59.6   140771 0.9924 102.2     18?  70.93 183.8   46 353 119  23
   2024 03 06 04:20  12 18 25.14    +82 50 08.5   141047 0.9924 102.4  m  18?  71.62 182.9   46 353 119  23
   2024 03 06 04:30  12 18 07.90    +82 38 10.1   141318 0.9924 102.6  m  18?  72.27 182.1   46 352 120  23
   2024 03 06 04:40  12 17 56.21    +82 26 04.9   141586 0.9924 102.8  m  18?  72.90 181.3   45 352 120  23
   2024 03 06 04:50  12 17 49.84    +82 13 53.3   141849 0.9924 103.0  m  18?  73.50 180.5   45 351 120  23
   2024 03 06 05:00  12 17 48.53    +82 01 35.8   142108 0.9924 103.2  m  18?  74.07 179.8   45 350 120  23
   2024 03 06 05:10  12 17 52.07    +81 49 12.7   142363 0.9924 103.3 Am  18?  74.61 179.0   45 350 120  23
   2024 03 06 05:20  12 18 00.23    +81 36 44.5   142613 0.9924 103.5 Am  18?  75.13 178.2   45 349 120  23
   2024 03 06 05:30  12 18 12.80    +81 24 11.7   142860 0.9924 103.7 Am  18?  75.61 177.4   44 349 120  23
   2024 03 06 05:40  12 18 29.58    +81 11 34.6   143103 0.9924 103.9 Am  18?  76.06 176.7   44 348 120  23
   2024 03 06 05:50  12 18 50.36    +80 58 53.7   143342 0.9924 104.1 Nm  18?  76.48 175.9   44 348 120  22
   2024 03 06 06:00  12 19 14.95    +80 46 09.4   143577 0.9924 104.3 Nm  18?  76.88 175.2   44 348 120  22
   2024 03 06 06:10  12 19 43.17    +80 33 22.2   143808 0.9924 104.5 Nm  18?  77.24 174.5   43 347 120  22
   2024 03 06 06:20  12 20 14.85    +80 20 32.4   144035 0.9924 104.7 Cm  18?  77.57 173.7   43 347 120  22
   2024 03 06 06:30  12 20 49.82    +80 07 40.6   144258 0.9924 104.9 Cm  18?  77.88 173.0   43 346 120  22
   ................
   2024 03 06 18:20  13 37 35.38    +68 33 08.1   145457 0.9927 112.2 C   18?  36.47 146.0   25  18 115  18
   2024 03 06 18:30  13 38 11.38    +68 28 08.2   145201 0.9927 112.2 C   18?  35.44 146.8   26  19 115  18
   2024 03 06 18:40  13 38 45.37    +68 23 13.7   144938 0.9927 112.2 N   18?  34.43 147.8   26  20 115  18
   2024 03 06 18:50  13 39 17.29    +68 18 24.2   144666 0.9927 112.3 N   18?  33.45 149.0   27  21 115  18
   2024 03 06 19:00  13 39 47.12    +68 13 39.4   144386 0.9927 112.3 N   18?  32.50 150.3   28  21 115  18
   2024 03 06 19:10  13 40 14.84    +68 08 58.9   144099 0.9927 112.3 N   18?  31.60 151.7   28  22 115  18
   2024 03 06 19:20  13 40 40.40    +68 04 22.2   143803 0.9927 112.4 A   18?  30.74 153.3   29  23 115  18
   2024 03 06 19:30  13 41 03.78    +67 59 49.0   143500 0.9927 112.4 A   18?  29.94 155.0   30  23 115  18
   2024 03 06 19:40  13 41 24.96    +67 55 18.7   143189 0.9927 112.4 A   18?  29.20 157.0   30  24 115  18
   2024 03 06 19:50  13 41 43.91    +67 50 51.0   142870 0.9927 112.5     18?  28.53 159.1   31  25 115  18
   2024 03 06 20:00  13 42 00.62    +67 46 25.3   142544 0.9927 112.5     18?  27.94 161.3   32  25 115  17
   2024 03 06 20:10  13 42 15.07    +67 42 01.2   142210 0.9927 112.5     18?  27.44 163.7   33  26 115  17
   2024 03 06 20:20  13 42 27.23    +67 37 38.2   141870 0.9927 112.6     18?  27.03 166.3   33  27 115  17
   2024 03 06 20:30  13 42 37.12    +67 33 15.7   141522 0.9927 112.6     18?  26.73 169.0   34  27 115  17
   2024 03 06 20:40  13 42 44.70    +67 28 53.3   141167 0.9927 112.7     18?  26.53 171.8   35  28 115  17
   2024 03 06 20:50  13 42 49.98    +67 24 30.4   140805 0.9927 112.7     18?  26.46 174.6   36  28 115  17
   2024 03 06 21:00  13 42 52.97    +67 20 06.4   140436 0.9927 112.8     18?  26.51 177.5   37  29 115  17
   2024 03 06 21:10  13 42 53.65    +67 15 40.8   140061 0.9927 112.8     18?  26.67 180.3   38  29 115  17
   2024 03 06 21:20  13 42 52.04    +67 11 13.0   139679 0.9927 112.9     18?  26.97 183.2   39  30 115  17
   2024 03 06 21:30  13 42 48.14    +67 06 42.5   139291 0.9927 112.9     18?  27.38 185.9   40  30 115  17
   2024 03 06 21:40  13 42 41.98    +67 02 08.5   138896 0.9927 113.0     18?  27.92 188.6   41  30 115  17
   2024 03 06 21:50  13 42 33.57    +66 57 30.6   138495 0.9927 113.1     18?  28.57 191.1   42  31 115  17
   2024 03 06 22:00  13 42 22.92    +66 52 48.1   138089 0.9927 113.1     18?  29.33 193.4   43  31 115  16
   2024 03 06 22:10  13 42 10.08    +66 48 00.4   137676 0.9927 113.2     18?  30.20 195.6   44  31 115  16
   2024 03 06 22:20  13 41 55.07    +66 43 06.9   137258 0.9927 113.3     18?  31.16 197.6   45  31 116  16
   2024 03 06 22:30  13 41 37.93    +66 38 06.9   136834 0.9927 113.3     18?  32.22 199.4   46  31 116  16
   2024 03 06 22:40  13 41 18.70    +66 32 59.8   136405 0.9927 113.4     18?  33.36 201.0   47  31 116  16
   2024 03 06 22:50  13 40 57.42    +66 27 44.9   135970 0.9927 113.5     18?  34.57 202.5   48  31 116  16
   2024 03 06 23:00  13 40 34.15    +66 22 21.7   135531 0.9928 113.6     18?  35.85 203.8   49  31 116  16
   2024 03 06 23:10  13 40 08.94    +66 16 49.5   135086 0.9928 113.7     18?  37.20 204.9   50  31 116  16
   2024 03 06 23:20  13 39 41.85    +66 11 07.7   134636 0.9928 113.8     18?  38.60 205.8   51  31 116  16
   2024 03 06 23:30  13 39 12.96    +66 05 15.6   134182 0.9928 113.9     18?  40.06 206.6   52  31 116  16
   2024 03 06 23:40  13 38 42.31    +65 59 12.6   133723 0.9928 114.0     18?  41.56 207.3   53  30 116  16
   2024 03 06 23:50  13 38 10.01    +65 52 58.1   133260 0.9928 114.1     18?  43.11 207.9   54  30 116  16
   2024 03 07 00:00  13 37 36.11    +65 46 31.5   132793 0.9928 114.3     18?  44.70 208.3   55  29 116  16
   2024 03 07 00:10  13 37 00.70    +65 39 52.2   132321 0.9928 114.4     18?  46.32 208.6   56  29 116  15
   2024 03 07 00:20  13 36 23.88    +65 32 59.5   131845 0.9928 114.5     18?  47.97 208.8   57  28 116  15
   2024 03 07 00:30  13 35 45.73    +65 25 53.0   131366 0.9928 114.6     18?  49.64 208.9   58  27 117  15
   2024 03 07 00:40  13 35 06.35    +65 18 32.0   130882 0.9928 114.8     18?  51.35 209.0   59  26 117  15
   2024 03 07 00:50  13 34 25.84    +65 10 56.0   130395 0.9928 114.9     18?  53.07 208.9   60  25 117  15
   2024 03 07 01:00  13 33 44.29    +65 03 04.4   129904 0.9928 115.1     18?  54.81 208.8   61  23 117  15
   2024 03 07 01:10  13 33 01.82    +64 54 56.8   129410 0.9928 115.2     18?  56.57 208.6   62  22 117  15
   2024 03 07 01:20  13 32 18.52    +64 46 32.7   128913 0.9928 115.4     18?  58.35 208.4   63  20 117  15
   2024 03 07 01:30  13 31 34.52    +64 37 51.6   128412 0.9928 115.5     18?  60.13 208.1   63  18 117  15
   2024 03 07 01:40  13 30 49.91    +64 28 52.9   127908 0.9928 115.7     18?  61.93 207.7   64  16 117  15
   2024 03 07 01:50  13 30 04.82    +64 19 36.5   127401 0.9928 115.9     18?  63.74 207.3   65  14 117  15
   2024 03 07 02:00  13 29 19.35    +64 10 01.7   126891 0.9928 116.0     18?  65.55 206.9   65  11 118  15
   2024 03 07 02:10  13 28 33.62    +64 00 08.2   126378 0.9928 116.2     18?  67.37 206.4   66   9 118  15
   2024 03 07 02:20  13 27 47.75    +63 49 55.8   125862 0.9928 116.4     18?  69.20 205.8   66   6 118  15
   2024 03 07 02:30  13 27 01.85    +63 39 24.0   125343 0.9928 116.6     18?  71.03 205.3   67   3 118  15
   2024 03 07 02:40  13 26 16.04    +63 28 32.6   124822 0.9928 116.8     18?  72.86 204.7   67   0 118  14
   2024 03 07 02:50  13 25 30.41    +63 17 21.3   124298 0.9928 117.0  t  18?  74.69 204.1   67 356 118  14
   2024 03 07 03:00  13 24 45.10    +63 05 49.9   123771 0.9928 117.2  e  18?  76.52 203.4   67 353 118  14
   2024 03 07 03:10  13 24 00.21    +62 53 58.2   123241 0.9928 117.4     18?  78.35 202.7   67 350 118  14
   2024 03 07 03:20  13 23 15.84    +62 41 45.9   122708 0.9928 117.6     18?  80.18 202.0   67 347 119  14
   2024 03 07 03:30  13 22 32.11    +62 29 13.0   122173 0.9928 117.8     18?  82.01 201.3   67 343 119  14
   2024 03 07 03:40  13 21 49.11    +62 16 19.3   121636 0.9928 118.0     18?  83.83 200.6   66 340 119  14
   2024 03 07 03:50  13 21 06.94    +62 03 04.8   121095 0.9928 118.3     18?  85.65 199.8   66 338 119  14
   2024 03 07 04:00  13 20 25.71    +61 49 29.3   120552 0.9928 118.5     18?  87.47 199.1   65 335 119  14
   2024 03 07 04:10  13 19 45.50    +61 35 32.7   120006 0.9928 118.7     18?  89.28 198.3   64 332 119  14
   2024 03 07 04:20  13 19 06.41    +61 21 15.2   119457 0.9928 119.0     18?  91.08 197.5   63 330 119  14
   2024 03 07 04:30  13 18 28.51    +61 06 36.7   118905 0.9928 119.2     18?  92.88 196.7   63 328 119  14
   2024 03 07 04:40  13 17 51.89    +60 51 37.3   118350 0.9928 119.4     18?  94.68 195.9   62 326 120  14
   2024 03 07 04:50  13 17 16.63    +60 36 16.9   117792 0.9928 119.7     18?  96.47 195.1   61 324 120  14
   2024 03 07 05:00  13 16 42.80    +60 20 35.7   117231 0.9928 119.9     18?  98.25 194.3   60 322 120  14
   2024 03 07 05:10  13 16 10.46    +60 04 33.7   116667 0.9928 120.2 Am  18? 100.03 193.5   58 321 120  14
   2024 03 07 05:20  13 15 39.68    +59 48 11.1   116099 0.9928 120.5 Am  18? 101.80 192.7   57 320 120  14
   2024 03 07 05:30  13 15 10.52    +59 31 28.0   115528 0.9928 120.7 Am  18? 103.57 191.9   56 318 120  14
   2024 03 07 05:40  13 14 43.02    +59 14 24.6   114953 0.9928 121.0 Nm  18? 105.33 191.0   55 318 120  14
   2024 03 07 05:50  13 14 17.24    +58 57 00.9   114374 0.9928 121.2 Nm  18? 107.09 190.2   53 317 120  14
   2024 03 07 06:00  13 13 53.23    +58 39 17.2   113791 0.9928 121.5 Nm  18? 108.84 189.4   52 316 120  13
   2024 03 07 06:10  13 13 31.01    +58 21 13.6   113204 0.9928 121.8 Nm  18? 110.59 188.6   51 315 121  13
   2024 03 07 06:20  13 13 10.63    +58 02 50.4   112613 0.9928 122.1 Cm  18? 112.34 187.7   49 315 121  13
   2024 03 07 06:30  13 12 52.11    +57 44 07.6   112017 0.9928 122.3 Cm  18? 114.08 186.9   48 314 121  13
   ................
   2024 03 07 21:40  00 59 17.20    +24 50 06.5    27106 0.9925  39.2     15? 1671.0   7.8    0 303  73   9
   2024 03 07 21:50  01 01 51.25    +29 05 17.2    29131 0.9925  42.7     15? 1427.8   7.7    2 307  76   9
   2024 03 07 22:00  01 04 08.04    +32 44 44.8    31138 0.9925  45.8     15? 1235.8   7.7    4 310  78   9
   2024 03 07 22:10  01 06 12.51    +35 55 47.3    33117 0.9925  48.5     15? 1082.3   7.8    5 314  80   9
   2024 03 07 22:20  01 08 08.08    +38 43 55.0    35063 0.9925  51.0     15? 957.79   7.9    6 317  82   9
   2024 03 07 22:30  01 09 57.22    +41 13 19.9    36973 0.9925  53.2     15? 855.59   8.1    7 320  84   8
   2024 03 07 22:40  01 11 41.75    +43 27 17.0    38845 0.9925  55.1     16? 770.74   8.4    8 322  85   8
   2024 03 07 22:50  01 13 23.04    +45 28 18.9    40680 0.9925  56.9     16? 699.57   8.7    8 325  87   8
   2024 03 07 23:00  01 15 02.16    +47 18 26.8    42478 0.9925  58.6     16? 639.31   9.1    9 327  88   8
   2024 03 07 23:10  01 16 39.93    +48 59 18.0    44238 0.9925  60.1     16? 587.85   9.5    9 329  89   8
   2024 03 07 23:20  01 18 17.02    +50 32 11.3    45961 0.9925  61.5     16? 543.58   9.9   10 331  90   8
   2024 03 07 23:30  01 19 53.96    +51 58 11.5    47649 0.9925  62.8     16? 505.22  10.3   10 333  91   8
   2024 03 07 23:40  01 21 31.21    +53 18 12.0    49303 0.9925  64.0     16? 471.78  10.8   11 335  92   8
   2024 03 07 23:50  01 23 09.12    +54 32 57.4    50923 0.9925  65.2     16? 442.45  11.2   11 337  92   8
   2024 03 08 00:00  01 24 48.00    +55 43 05.4    52510 0.9925  66.3     16? 416.60  11.7   12 338  93   8
   2024 03 08 00:10  01 26 28.12    +56 49 07.6    54066 0.9925  67.3     16? 393.70  12.2   12 340  94   8
   2024 03 08 00:20  01 28 09.70    +57 51 31.3    55591 0.9925  68.2     16? 373.33  12.8   13 341  95   8
   2024 03 08 00:30  01 29 52.94    +58 50 39.7    57086 0.9925  69.2     16? 355.12  13.3   13 343  95   8
   2024 03 08 00:40  01 31 38.02    +59 46 53.0    58553 0.9925  70.1     16? 338.80  13.8   13 344  96   8
   2024 03 08 00:50  01 33 25.08    +60 40 28.4    59992 0.9925  70.9     16? 324.11  14.3   14 346  96   8
   2024 03 08 01:00  01 35 14.28    +61 31 41.3    61405 0.9925  71.7     16? 310.84  14.8   14 347  97   8
   2024 03 08 01:10  01 37 05.74    +62 20 44.8    62791 0.9925  72.5     16? 298.82  15.4   15 348  98   8
   2024 03 08 01:20  01 38 59.58    +63 07 50.8    64152 0.9926  73.2     16? 287.90  15.9   15 349  98   8
   2024 03 08 01:30  01 40 55.92    +63 53 09.4    65489 0.9926  74.0     16? 277.94  16.4   16 350  99   7
   2024 03 08 01:40  01 42 54.87    +64 36 49.8    66803 0.9926  74.7     16? 268.84  16.9   16 351  99   7
   2024 03 08 01:50  01 44 56.53    +65 19 00.1    68094 0.9926  75.3     16? 260.51  17.4   17 352  99   7
   2024 03 08 02:00  01 47 01.01    +65 59 47.5    69362 0.9926  76.0     16? 252.85  17.9   17 353 100   7
   2024 03 08 02:10  01 49 08.41    +66 39 18.5    70610 0.9926  76.6     16? 245.79  18.3   18 354 100   7
   2024 03 08 02:20  01 51 18.85    +67 17 38.8    71836 0.9926  77.3     16? 239.28  18.8   18 355 101   7
   2024 03 08 02:30  01 53 32.43    +67 54 53.5    73042 0.9926  77.9     16? 233.24  19.3   19 356 101   7
   2024 03 08 02:40  01 55 49.26    +68 31 07.3    74229 0.9926  78.5     16? 227.64  19.7   19 357 102   7
   2024 03 08 02:50  01 58 09.46    +69 06 24.4    75397 0.9926  79.0     16? 222.43  20.2   20 358 102   7
   2024 03 08 03:00  02 00 33.16    +69 40 48.4    76547 0.9926  79.6     16? 217.58  20.6   20 358 102   7
   2024 03 08 03:10  02 03 00.48    +70 14 22.8    77679 0.9926  80.1     16? 213.03  21.0   21 359 103   7
   2024 03 08 03:20  02 05 31.56    +70 47 10.6    78793 0.9926  80.7  t  16? 208.77  21.4   21   0 103   7
   2024 03 08 03:30  02 08 06.55    +71 19 14.6    79891 0.9926  81.2     16? 204.77  21.9   22   0 103   7
   2024 03 08 03:40  02 10 45.61    +71 50 37.2    80972 0.9926  81.7     16? 201.00  22.3   22   1 104   7
   2024 03 08 03:50  02 13 28.91    +72 21 20.7    82038 0.9926  82.2     16? 197.44  22.7   23   2 104   7
   2024 03 08 04:00  02 16 16.63    +72 51 27.1    83088 0.9926  82.7     16? 194.07  23.1   23   2 104   7
   2024 03 08 04:10  02 19 08.97    +73 20 58.1    84123 0.9926  83.2     16? 190.87  23.5   24   3 105   7
   2024 03 08 04:20  02 22 06.16    +73 49 55.4    85144 0.9926  83.7     16? 187.83  23.9   25   3 105   7
   2024 03 08 04:30  02 25 08.42    +74 18 20.5    86151 0.9926  84.2     16? 184.93  24.3   25   3 105   7
   2024 03 08 04:40  02 28 16.01    +74 46 14.6    87144 0.9926  84.6     16? 182.15  24.7   26   4 106   7
   2024 03 08 04:50  02 31 29.21    +75 13 39.0    88124 0.9926  85.1     16? 179.49  25.1   26   4 106   7
   2024 03 08 05:00  02 34 48.34    +75 40 34.6    89090 0.9927  85.5     16? 176.94  25.5   27   5 106   6
   2024 03 08 05:10  02 38 13.72    +76 07 02.2    90044 0.9927  86.0 A   16? 174.47  25.9   27   5 107   6
   2024 03 08 05:20  02 41 45.73    +76 33 02.8    90986 0.9927  86.4 A   16? 172.10  26.3   28   5 107   6
   2024 03 08 05:30  02 45 24.77    +76 58 36.9    91916 0.9927  86.8 A   16? 169.79  26.7   28   5 107   6
   2024 03 08 05:40  02 49 11.29    +77 23 45.2    92834 0.9927  87.2 N   16? 167.56  27.2   29   5 107   6
   2024 03 08 05:50  02 53 05.76    +77 48 28.0    93741 0.9927  87.6 Nm  16? 165.39  27.7   29   6 108   6
   2024 03 08 06:00  02 57 08.74    +78 12 45.7    94637 0.9927  88.1 Nm  16? 163.28  28.2   30   6 108   6
   2024 03 08 06:10  03 01 20.81    +78 36 38.6    95522 0.9927  88.4 Cm  16? 161.22  28.7   30   6 108   6
   2024 03 08 06:20  03 05 42.63    +79 00 06.8    96397 0.9927  88.8 Cm  16? 159.20  29.2   31   6 108   6
   2024 03 08 06:30  03 10 14.93    +79 23 10.5    97261 0.9927  89.2 Cm  16? 157.22  29.8   31   6 109   6
   ................
   2024 03 08 18:20  13 35 37.70    +82 00 22.1   138567 0.9930 101.1 C   17?  34.85 148.3   35   8 111   4
   2024 03 08 18:30  13 37 01.02    +81 55 28.8   138880 0.9930 101.2 C   17?  33.49 149.6   36   8 111   4
   2024 03 08 18:40  13 38 17.11    +81 50 43.1   139185 0.9930 101.2 C   17?  32.17 151.0   36   8 111   4
   2024 03 08 18:50  13 39 26.14    +81 46 04.7   139484 0.9930 101.2 N   17?  30.91 152.6   36   9 111   4
   2024 03 08 19:00  13 40 28.25    +81 41 33.3   139774 0.9930 101.3 N   18?  29.71 154.3   36   9 111   4
   2024 03 08 19:10  13 41 23.60    +81 37 08.3   140058 0.9930 101.3 N   18?  28.58 156.3   36   9 111   4
   2024 03 08 19:20  13 42 12.30    +81 32 49.4   140334 0.9930 101.3 A   18?  27.52 158.4   37   9 111   4
   2024 03 08 19:30  13 42 54.50    +81 28 36.2   140603 0.9930 101.4 A   18?  26.55 160.6   37  10 111   4
   2024 03 08 19:40  13 43 30.32    +81 24 28.1   140865 0.9930 101.4 A   18?  25.67 163.1   37  10 111   4
   2024 03 08 19:50  13 43 59.87    +81 20 24.7   141119 0.9930 101.5     18?  24.89 165.8   38  10 111   4
   2024 03 08 20:00  13 44 23.28    +81 16 25.5   141367 0.9931 101.5     18?  24.22 168.7   38  11 111   3
   2024 03 08 20:10  13 44 40.66    +81 12 29.9   141608 0.9931 101.5     18?  23.67 171.7   38  11 111   3
   2024 03 08 20:20  13 44 52.12    +81 08 37.4   141841 0.9931 101.6     18?  23.25 174.8   39  11 111   3
   2024 03 08 20:30  13 44 57.79    +81 04 47.4   142068 0.9931 101.6     18?  22.95 178.1   39  11 111   3
   2024 03 08 20:40  13 44 57.79    +81 00 59.3   142289 0.9931 101.7     18?  22.79 181.4   39  11 111   3
   2024 03 08 20:50  13 44 52.24    +80 57 12.6   142502 0.9931 101.7     18?  22.76 184.6   40  12 111   3
   2024 03 08 21:00  13 44 41.27    +80 53 26.6   142709 0.9931 101.8     18?  22.87 187.9   40  12 111   3
   2024 03 08 21:10  13 44 25.02    +80 49 40.8   142910 0.9931 101.8     18?  23.10 191.0   41  12 111   3
   2024 03 08 21:20  13 44 03.63    +80 45 54.4   143104 0.9931 101.9     18?  23.46 193.9   41  12 111   3
   2024 03 08 21:30  13 43 37.25    +80 42 06.9   143292 0.9931 102.0     18?  23.93 196.7   41  12 111   3
   2024 03 08 21:40  13 43 06.02    +80 38 17.6   143474 0.9931 102.0     18?  24.51 199.3   42  12 111   3
   2024 03 08 21:50  13 42 30.13    +80 34 25.9   143650 0.9931 102.1     18?  25.19 201.6   42  12 111   3
   2024 03 08 22:00  13 41 49.73    +80 30 31.1   143819 0.9931 102.1     18?  25.96 203.7   43  12 111   3
   2024 03 08 22:10  13 41 05.01    +80 26 32.5   143983 0.9931 102.2     18?  26.80 205.5   43  12 111   3
   2024 03 08 22:20  13 40 16.15    +80 22 29.7   144141 0.9931 102.3     18?  27.71 207.1   44  12 111   3
   2024 03 08 22:30  13 39 23.37    +80 18 21.8   144294 0.9931 102.4     18?  28.67 208.5   44  12 111   3
   2024 03 08 22:40  13 38 26.86    +80 14 08.2   144440 0.9931 102.4     18?  29.69 209.7   45  12 111   3
   2024 03 08 22:50  13 37 26.85    +80 09 48.4   144582 0.9931 102.5     18?  30.76 210.7   45  12 111   3
   2024 03 08 23:00  13 36 23.55    +80 05 21.8   144718 0.9931 102.6     18?  31.85 211.5   45  11 111   3
   2024 03 08 23:10  13 35 17.20    +80 00 47.7   144849 0.9931 102.7     18?  32.98 212.1   46  11 112   3
   2024 03 08 23:20  13 34 08.04    +79 56 05.5   144974 0.9931 102.8     18?  34.14 212.5   46  11 112   3
   2024 03 08 23:30  13 32 56.31    +79 51 14.7   145095 0.9931 102.9     18?  35.31 212.8   47  11 112   3
   2024 03 08 23:40  13 31 42.28    +79 46 14.8   145211 0.9931 103.0     18?  36.50 213.0   47  10 112   3
   2024 03 08 23:50  13 30 26.19    +79 41 05.2   145322 0.9931 103.1     18?  37.71 213.0   48  10 112   3
   2024 03 09 00:00  13 29 08.31    +79 35 45.5   145428 0.9931 103.2     18?  38.92 213.0   48   9 112   3
   2024 03 09 00:10  13 27 48.90    +79 30 15.2   145530 0.9932 103.3     18?  40.13 212.8   49   9 112   3
   2024 03 09 00:20  13 26 28.24    +79 24 33.9   145627 0.9932 103.4     18?  41.35 212.5   49   9 112   2
   2024 03 09 00:30  13 25 06.57    +79 18 41.1   145720 0.9932 103.5     18?  42.57 212.2   49   8 112   2
   2024 03 09 00:40  13 23 44.18    +79 12 36.5   145809 0.9932 103.6     18?  43.78 211.8   50   7 112   2
   2024 03 09 00:50  13 22 21.33    +79 06 19.7   145893 0.9932 103.8     18?  45.00 211.3   50   7 112   2
   2024 03 09 01:00  13 20 58.27    +78 59 50.6   145974 0.9932 103.9     18?  46.20 210.8   51   6 112   2
   2024 03 09 01:10  13 19 35.26    +78 53 08.7   146050 0.9932 104.0     18?  47.40 210.2   51   5 113   2
   2024 03 09 01:20  13 18 12.56    +78 46 13.9   146123 0.9932 104.1     18?  48.58 209.5   51   5 113   2
   2024 03 09 01:30  13 16 50.41    +78 39 06.0   146192 0.9932 104.3     18?  49.76 208.8   51   4 113   2
   2024 03 09 01:40  13 15 29.04    +78 31 44.8   146257 0.9932 104.4     18?  50.92 208.1   52   3 113   2
   2024 03 09 01:50  13 14 08.69    +78 24 10.3   146319 0.9932 104.6     18?  52.07 207.3   52   2 113   2
   2024 03 09 02:00  13 12 49.57    +78 16 22.3   146377 0.9932 104.7     18?  53.20 206.5   52   1 113   2
   2024 03 09 02:10  13 11 31.90    +78 08 20.8   146432 0.9932 104.8     18?  54.32 205.7   52   0 113   2
   2024 03 09 02:20  13 10 15.86    +78 00 05.9   146483 0.9932 105.0  t  18?  55.42 204.8   53 359 113   2
   2024 03 09 02:30  13 09 01.65    +77 51 37.5   146531 0.9932 105.1     18?  56.50 203.9   53 358 113   2
   2024 03 09 02:40  13 07 49.44    +77 42 55.7   146576 0.9932 105.3     18?  57.57 203.1   53 357 114   2
   2024 03 09 02:50  13 06 39.39    +77 34 00.6   146617 0.9932 105.5     18?  58.61 202.1   53 356 114   2
   2024 03 09 03:00  13 05 31.65    +77 24 52.4   146656 0.9932 105.6  e  18?  59.63 201.2   53 355 114   2
   2024 03 09 03:10  13 04 26.35    +77 15 31.2   146691 0.9932 105.8     18?  60.63 200.3   53 354 114   2
   2024 03 09 03:20  13 03 23.62    +77 05 57.2   146724 0.9932 105.9     18?  61.61 199.3   53 353 114   2
   2024 03 09 03:30  13 02 23.58    +76 56 10.6   146753 0.9932 106.1     18?  62.57 198.4   53 352 114   2
   2024 03 09 03:40  13 01 26.31    +76 46 11.8   146780 0.9932 106.3     18?  63.50 197.4   52 351 114   2
   2024 03 09 03:50  13 00 31.91    +76 36 00.9   146803 0.9932 106.5     18?  64.41 196.4   52 350 115   2
   2024 03 09 04:00  12 59 40.44    +76 25 38.3   146824 0.9932 106.6     18?  65.29 195.5   52 349 115   2
   2024 03 09 04:10  12 58 51.98    +76 15 04.3   146842 0.9932 106.8     18?  66.15 194.5   52 348 115   2
   2024 03 09 04:20  12 58 06.56    +76 04 19.3   146857 0.9932 107.0     18?  66.99 193.5   51 347 115   2
   2024 03 09 04:30  12 57 24.24    +75 53 23.5   146869 0.9932 107.2     18?  67.80 192.6   51 346 115   2
   2024 03 09 04:40  12 56 45.03    +75 42 17.5   146878 0.9933 107.4     18?  68.58 191.6   51 345 115   2
   2024 03 09 04:50  12 56 08.97    +75 31 01.5   146884 0.9933 107.5     18?  69.34 190.6   50 344 115   2
   2024 03 09 05:00  12 55 36.05    +75 19 36.1   146888 0.9933 107.7     18?  70.07 189.6   50 343 116   2
   2024 03 09 05:10  12 55 06.29    +75 08 01.5   146889 0.9933 107.9 A   18?  70.77 188.7   49 342 116   2
   2024 03 09 05:20  12 54 39.67    +74 56 18.3   146886 0.9933 108.1 A   18?  71.45 187.7   49 342 116   2
   2024 03 09 05:30  12 54 16.19    +74 44 26.9   146881 0.9933 108.3 A   18?  72.10 186.8   48 341 116   2
   2024 03 09 05:40  12 53 55.81    +74 32 27.7   146873 0.9933 108.5 N   18?  72.72 185.8   48 340 116   2
   2024 03 09 05:50  12 53 38.52    +74 20 21.2   146861 0.9933 108.7 N   18?  73.31 184.9   47 340 116   2
   2024 03 09 06:00  12 53 24.28    +74 08 07.9   146847 0.9933 108.9 N   18?  73.88 183.9   47 339 116   1
   2024 03 09 06:10  12 53 13.05    +73 55 48.2   146829 0.9933 109.0 C   18?  74.42 183.0   46 338 117   1
   2024 03 09 06:20  12 53 04.78    +73 43 22.6   146809 0.9933 109.2 Cm  18?  74.93 182.1   45 338 117   1
   ................
   2024 03 09 18:30  13 41 09.36    +60 32 24.7   128255 0.9935 117.7 C   18?  49.47 153.8   21  26 121   0
   2024 03 09 18:40  13 41 37.98    +60 25 01.0   127662 0.9935 117.7 C   18?  48.81 154.9   21  27 121   0
   2024 03 09 18:50  13 42 04.98    +60 17 39.2   127059 0.9935 117.8 N   18?  48.20 156.0   22  28 121   0
   2024 03 09 19:00  13 42 30.32    +60 10 18.7   126445 0.9935 117.9 N   18?  47.63 157.3   23  29 121   0
   2024 03 09 19:10  13 42 53.97    +60 02 59.0   125822 0.9935 117.9 N   18?  47.13 158.6   24  30 121   0
   2024 03 09 19:20  13 43 15.89    +59 55 39.6   125188 0.9935 118.0 A   18?  46.68 160.0   25  31 121   0
   2024 03 09 19:30  13 43 36.05    +59 48 20.0   124545 0.9935 118.0 A   18?  46.31 161.5   26  32 121   0
   2024 03 09 19:40  13 43 54.41    +59 40 59.6   123892 0.9935 118.1 A   18?  46.02 163.1   26  32 121   0
   2024 03 09 19:50  13 44 10.96    +59 33 37.9   123229 0.9935 118.2     18?  45.81 164.8   27  33 121   0
   2024 03 09 20:00  13 44 25.66    +59 26 14.2   122556 0.9935 118.2     18?  45.69 166.5   28  34 121   0
   2024 03 09 20:10  13 44 38.48    +59 18 47.9   121874 0.9935 118.3     18?  45.67 168.3   29  35 121   0
   2024 03 09 20:20  13 44 49.41    +59 11 18.3   121183 0.9935 118.4     18?  45.76 170.2   30  36 121   0
   2024 03 09 20:30  13 44 58.42    +59 03 44.9   120482 0.9935 118.5     18?  45.96 172.1   31  37 121   0
   2024 03 09 20:40  13 45 05.49    +58 56 06.8   119772 0.9935 118.6     18?  46.27 174.0   33  38 121   0
   2024 03 09 20:50  13 45 10.61    +58 48 23.4   119053 0.9935 118.7     18?  46.71 175.9   34  38 122   0
   2024 03 09 21:00  13 45 13.76    +58 40 34.0   118325 0.9935 118.7     18?  47.27 177.8   35  39 122   0
   2024 03 09 21:10  13 45 14.95    +58 32 37.7   117588 0.9935 118.8     18?  47.96 179.6   36  40 122   0
   2024 03 09 21:20  13 45 14.15    +58 24 33.9   116843 0.9935 118.9     18?  48.78 181.5   37  41 122   0
   2024 03 09 21:30  13 45 11.36    +58 16 21.6   116089 0.9935 119.0     18?  49.72 183.3   38  41 122   0
   2024 03 09 21:40  13 45 06.59    +58 08 00.1   115326 0.9935 119.2     18?  50.80 185.0   40  42 122   0
   2024 03 09 21:50  13 44 59.84    +57 59 28.5   114555 0.9935 119.3     18?  52.02 186.6   41  43 122   0
   2024 03 09 22:00  13 44 51.12    +57 50 45.9   113776 0.9935 119.4     18?  53.36 188.2   42  43 122   0
   2024 03 09 22:10  13 44 40.42    +57 41 51.5   112989 0.9935 119.5     18?  54.82 189.7   44  44 122   0
   2024 03 09 22:20  13 44 27.77    +57 32 44.2   112194 0.9935 119.7     18?  56.42 191.0   45  44 122   0
   2024 03 09 22:30  13 44 13.19    +57 23 23.3   111391 0.9935 119.8     18?  58.14 192.3   46  45 123   0
   2024 03 09 22:40  13 43 56.70    +57 13 47.6   110580 0.9935 119.9     18?  59.97 193.5   48  45 123   0
   2024 03 09 22:50  13 43 38.31    +57 03 56.3   109762 0.9935 120.1     18?  61.93 194.6   49  46 123   0
   2024 03 09 23:00  13 43 18.07    +56 53 48.2   108937 0.9935 120.2     18?  64.00 195.5   50  46 123   0
   2024 03 09 23:10  13 42 56.00    +56 43 22.5   108104 0.9935 120.4     18?  66.19 196.4   52  46 123   0
   2024 03 09 23:20  13 42 32.14    +56 32 38.0   107264 0.9935 120.6     18?  68.49 197.2   53  46 123   0
   2024 03 09 23:30  13 42 06.53    +56 21 33.7   106417 0.9935 120.7     18?  70.89 197.9   55  47 123   0
   2024 03 09 23:40  13 41 39.22    +56 10 08.4   105563 0.9935 120.9     18?  73.41 198.5   56  47 124   0
   2024 03 09 23:50  13 41 10.26    +55 58 21.1   104702 0.9935 121.1     18?  76.02 199.0   58  47 124   0
   2024 03 10 00:00  13 40 39.70    +55 46 10.7   103835 0.9935 121.3     18?  78.74 199.5   59  46 124   0
   2024 03 10 00:10  13 40 07.60    +55 33 35.9   102960 0.9936 121.5     18?  81.56 199.8   61  46 124   0
   2024 03 10 00:20  13 39 34.02    +55 20 35.6   102080 0.9936 121.7     18?  84.49 200.1   62  46 124   0
   2024 03 10 00:30  13 38 59.03    +55 07 08.7   101193 0.9936 122.0     18?  87.51 200.3   64  45 125   0
   2024 03 10 00:40  13 38 22.69    +54 53 14.0   100299 0.9936 122.2     18?  90.63 200.5   65  44 125   0
   2024 03 10 00:50  13 37 45.07    +54 38 50.1    99399 0.9936 122.4     17?  93.86 200.5   67  43 125   0
   2024 03 10 01:00  13 37 06.26    +54 23 55.9    98493 0.9936 122.7     17?  97.18 200.6   68  42 125   0
   2024 03 10 01:10  13 36 26.33    +54 08 30.1    97581 0.9936 122.9     17? 100.60 200.5   70  40 126   0
   2024 03 10 01:20  13 35 45.36    +53 52 31.4    96663 0.9936 123.2     17? 104.13 200.5   71  38 126   0
   2024 03 10 01:30  13 35 03.44    +53 35 58.6    95739 0.9936 123.5     17? 107.76 200.3   73  36 126   0
   2024 03 10 01:40  13 34 20.65    +53 18 50.2    94808 0.9936 123.8     17? 111.49 200.2   74  33 127   0
   2024 03 10 01:50  13 33 37.09    +53 01 04.9    93872 0.9936 124.1     17? 115.34 199.9   75  29 127   0
   2024 03 10 02:00  13 32 52.84    +52 42 41.4    92929 0.9936 124.4     17? 119.29 199.7   76  24 127   0
   2024 03 10 02:10  13 32 08.00    +52 23 38.3    91981 0.9936 124.7     17? 123.35 199.4   77  18 127   0
   2024 03 10 02:20  13 31 22.67    +52 03 54.0    91026 0.9936 125.0     17? 127.53 199.1   78  10 128   0
   2024 03 10 02:30  13 30 36.92    +51 43 27.2    90065 0.9936 125.3     17? 131.84 198.7   79   2 128   0
   2024 03 10 02:40  13 29 50.87    +51 22 16.4    89098 0.9936 125.7  t  17? 136.26 198.4   79 353 128   0
   2024 03 10 02:50  13 29 04.61    +51 00 20.0    88125 0.9936 126.0  e  17? 140.82 198.0   79 343 129   0
   2024 03 10 03:00  13 28 18.24    +50 37 36.4    87146 0.9936 126.4     17? 145.51 197.5   79 334 129   0
   2024 03 10 03:10  13 27 31.84    +50 14 03.9    86160 0.9936 126.8     17? 150.35 197.1   78 326 130   0
   2024 03 10 03:20  13 26 45.51    +49 49 40.9    85167 0.9936 127.2     17? 155.34 196.6   77 318 130   0
   2024 03 10 03:30  13 25 59.36    +49 24 25.7    84168 0.9936 127.6     17? 160.48 196.1   76 312 130   0
   2024 03 10 03:40  13 25 13.47    +48 58 16.4    83163 0.9936 128.0     17? 165.80 195.6   74 307 131   0
   2024 03 10 03:50  13 24 27.93    +48 31 11.0    82150 0.9936 128.4     17? 171.29 195.1   73 303 131   0
   2024 03 10 04:00  13 23 42.82    +48 03 07.6    81130 0.9936 128.9     17? 176.97 194.6   71 300 132   0
   2024 03 10 04:10  13 22 58.25    +47 34 04.1    80103 0.9936 129.3     17? 182.85 194.1   70 298 132   0
   2024 03 10 04:20  13 22 14.29    +47 03 58.3    79068 0.9936 129.8     17? 188.95 193.5   68 296 132   0
   2024 03 10 04:30  13 21 31.01    +46 32 47.8    78025 0.9936 130.2     17? 195.29 193.0   66 294 133   0
   2024 03 10 04:40  13 20 48.51    +46 00 30.1    76974 0.9936 130.7     17? 201.87 192.4   64 292 133   0
   2024 03 10 04:50  13 20 06.84    +45 27 02.6    75915 0.9936 131.2     17? 208.72 191.9   62 291 134   0
   2024 03 10 05:00  13 19 26.09    +44 52 22.4    74847 0.9936 131.8     17? 215.86 191.3   60 291 134   0
   2024 03 10 05:10  13 18 46.32    +44 16 26.5    73770 0.9936 132.3 A   17? 223.32 190.8   58 290 135   0
   2024 03 10 05:20  13 18 07.59    +43 39 11.6    72684 0.9936 132.8 A   17? 231.12 190.2   56 289 136   0
   2024 03 10 05:30  13 17 29.95    +43 00 34.1    71587 0.9936 133.4 A   17? 239.29 189.7   54 289 136   0
   2024 03 10 05:40  13 16 53.46    +42 20 30.1    70481 0.9936 134.0 N   17? 247.87 189.1   52 289 137   0
   2024 03 10 05:50  13 16 18.17    +41 38 55.6    69364 0.9936 134.6 N   17? 256.89 188.6   50 289 137   0
   2024 03 10 06:00  13 15 44.12    +40 55 45.7    68235 0.9935 135.2 N   17? 266.40 188.1   48 288 138   0
   2024 03 10 06:10  13 15 11.35    +40 10 55.6    67095 0.9935 135.8 C   17? 276.44 187.5   46 288 138   0
   2024 03 10 06:20  13 14 39.87    +39 24 19.7    65943 0.9935 136.4 C   17? 287.08 187.0   44 288 139   0
   ................
   2024 03 10 18:30  01 15 22.14    +73 49 11.8    71843 0.9933  79.5 Cm  16? 147.05 350.4   46 339  78   0
   2024 03 10 18:40  01 14 24.82    +74 12 49.4    73122 0.9933  79.8 Cm  16? 140.67 350.9   45 339  79   0
   2024 03 10 18:50  01 13 31.71    +74 35 28.5    74382 0.9933  80.1 N   16? 134.77 351.4   44 339  79   0
   2024 03 10 19:00  01 12 43.04    +74 57 13.7    75623 0.9933  80.4 N   16? 129.33 352.1   43 340  79   0
   2024 03 10 19:10  01 11 59.00    +75 18 09.2    76844 0.9933  80.7 N   16? 124.32 352.8   43 340  80   0
   2024 03 10 19:20  01 11 19.79    +75 38 19.1    78048 0.9933  80.9 A   16? 119.71 353.6   42 341  80   0
   2024 03 10 19:30  01 10 45.61    +75 57 47.0    79233 0.9933  81.2 A   16? 115.48 354.4   41 341  80   0
   2024 03 10 19:40  01 10 16.64    +76 16 36.3    80400 0.9933  81.5 A   16? 111.60 355.3   41 341  80   0
   2024 03 10 19:50  01 09 53.08    +76 34 50.1    81550 0.9933  81.7     16? 108.05 356.3   40 342  80   0
   2024 03 10 20:00  01 09 35.10    +76 52 31.4    82683 0.9933  82.0     16? 104.82 357.3   40 342  81   0
   2024 03 10 20:10  01 09 22.87    +77 09 42.8    83799 0.9933  82.2     16? 101.89 358.4   39 343  81   0
   2024 03 10 20:20  01 09 16.58    +77 26 26.8    84898 0.9933  82.5     16?  99.23 359.5   39 343  81   0
   2024 03 10 20:30  01 09 16.38    +77 42 45.9    85980 0.9933  82.7     16?  96.84   0.7   38 344  81   0
   2024 03 10 20:40  01 09 22.46    +77 58 42.2    87047 0.9933  83.0     16?  94.71   1.9   38 344  81   0
   2024 03 10 20:50  01 09 34.99    +78 14 17.6    88098 0.9933  83.2     16?  92.80   3.2   37 345  82   0
   2024 03 10 21:00  01 09 54.13    +78 29 34.1    89133 0.9933  83.4     16?  91.12   4.4   37 345  82   0
   2024 03 10 21:10  01 10 20.08    +78 44 33.3    90153 0.9933  83.6     16?  89.64   5.7   37 346  82   0
   2024 03 10 21:20  01 10 52.99    +78 59 16.9    91158 0.9934  83.9     16?  88.36   7.0   36 346  82   0
   2024 03 10 21:30  01 11 33.08    +79 13 46.4    92148 0.9934  84.1     16?  87.27   8.3   36 347  82   0
   2024 03 10 21:40  01 12 20.53    +79 28 03.1    93124 0.9934  84.3     16?  86.34   9.6   36 347  83   0
   2024 03 10 21:50  01 13 15.56    +79 42 08.3    94085 0.9934  84.6     16?  85.56  10.9   36 348  83   0
   2024 03 10 22:00  01 14 18.38    +79 56 03.1    95032 0.9934  84.8     16?  84.94  12.1   35 348  83   0
   2024 03 10 22:10  01 15 29.24    +80 09 48.6    95965 0.9934  85.0     16?  84.44  13.4   35 349  83   0
   2024 03 10 22:20  01 16 48.40    +80 23 25.6    96885 0.9934  85.2     16?  84.07  14.6   35 349  83   0
   2024 03 10 22:30  01 18 16.13    +80 36 55.2    97791 0.9934  85.4     16?  83.81  15.9   35 350  83   0
   2024 03 10 22:40  01 19 52.73    +80 50 18.1    98684 0.9934  85.7     16?  83.65  17.1   35 350  84   0
   2024 03 10 22:50  01 21 38.55    +81 03 34.8    99564 0.9934  85.9     16?  83.59  18.3   35 351  84   0
   2024 03 10 23:00  01 23 33.95    +81 16 46.2   100431 0.9934  86.1     16?  83.60  19.4   35 351  84   0
   2024 03 10 23:10  01 25 39.33    +81 29 52.5   101285 0.9934  86.3     16?  83.69  20.6   35 352  84   0
   2024 03 10 23:20  01 27 55.15    +81 42 54.4   102128 0.9934  86.6     16?  83.85  21.7   35 352  84   0
   2024 03 10 23:30  01 30 21.90    +81 55 52.2   102958 0.9934  86.8     16?  84.06  22.8   35 353  84   0
   2024 03 10 23:40  01 33 00.14    +82 08 46.1   103776 0.9934  87.0     17?  84.33  23.9   35 353  85   0
   2024 03 10 23:50  01 35 50.49    +82 21 36.3   104583 0.9934  87.3     17?  84.64  25.0   35 353  85   0
   2024 03 11 00:00  01 38 53.63    +82 34 23.0   105378 0.9934  87.5     17?  84.99  26.1   35 354  85   0
   2024 03 11 00:10  01 42 10.34    +82 47 06.1   106162 0.9934  87.7     17?  85.38  27.2   35 354  85   0
   2024 03 11 00:20  01 45 41.49    +82 59 45.6   106935 0.9934  87.9     17?  85.79  28.3   35 354  85   0
   2024 03 11 00:30  01 49 28.02    +83 12 21.4   107697 0.9934  88.2     17?  86.22  29.4   35 355  86   0
   2024 03 11 00:40  01 53 31.04    +83 24 53.1   108448 0.9934  88.4     17?  86.67  30.5   35 355  86   0
   2024 03 11 00:50  01 57 51.75    +83 37 20.4   109189 0.9934  88.7     17?  87.14  31.7   35 355  86   0
   2024 03 11 01:00  02 02 31.51    +83 49 42.8   109920 0.9935  88.9     17?  87.61  32.9   35 356  86   0
   2024 03 11 01:10  02 07 31.86    +84 01 59.8   110640 0.9935  89.1     17?  88.10  34.1   35 356  86   0
   2024 03 11 01:20  02 12 54.51    +84 14 10.5   111351 0.9935  89.4     17?  88.58  35.4   35 356  86   0
   2024 03 11 01:30  02 18 41.38    +84 26 14.1   112052 0.9935  89.6     17?  89.07  36.8   36 356  87   0
   2024 03 11 01:40  02 24 54.61    +84 38 09.4   112744 0.9935  89.9     17?  89.55  38.2   36 357  87   0
   2024 03 11 01:50  02 31 36.60    +84 49 55.2   113426 0.9935  90.1     17?  90.03  39.7   36 357  87   0
   2024 03 11 02:00  02 38 50.01    +85 01 30.0   114100 0.9935  90.3     17?  90.51  41.3   36 357  87   0
   2024 03 11 02:10  02 46 37.77    +85 12 52.1   114764 0.9935  90.6     17?  90.97  43.0   36 357  87   0
   2024 03 11 02:20  02 55 03.10    +85 23 59.5   115420 0.9935  90.8     17?  91.42  44.9   36 357  88   0
   2024 03 11 02:30  03 04 09.47    +85 34 49.7   116067 0.9935  91.1     17?  91.86  46.9   36 357  88   0
   2024 03 11 02:40  03 14 00.61    +85 45 20.2   116706 0.9935  91.3     17?  92.29  49.1   37 357  88   0
   2024 03 11 02:50  03 24 40.39    +85 55 27.7   117336 0.9935  91.6     17?  92.69  51.5   37 357  88   0
   2024 03 11 03:00  03 36 12.72    +86 05 08.9   117959 0.9935  91.8     17?  93.09  54.0   37 357  88   0
   2024 03 11 03:10  03 48 41.38    +86 14 19.8   118573 0.9935  92.1     17?  93.46  56.8   37 357  89   0
   2024 03 11 03:20  04 02 09.73    +86 22 55.9   119180 0.9935  92.3     17?  93.81  59.8   37 357  89   0
   2024 03 11 03:30  04 16 40.40    +86 30 52.5   119779 0.9935  92.6     17?  94.14  63.0   37 357  89   0
   2024 03 11 03:40  04 32 14.77    +86 38 04.3   120371 0.9935  92.8     17?  94.45  66.5   37 357  89   0
   2024 03 11 03:50  04 48 52.51    +86 44 25.9   120956 0.9935  93.1     17?  94.74  70.2   38 357  89   1
   2024 03 11 04:00  05 06 30.96    +86 49 51.8   121533 0.9935  93.4     17?  95.00  74.2   38 357  90   1
   2024 03 11 04:10  05 25 04.76    +86 54 16.6   122103 0.9935  93.6     17?  95.24  78.3   38 357  90   1
   2024 03 11 04:20  05 44 25.47    +86 57 35.6   122667 0.9935  93.9     17?  95.45  82.6   38 357  90   1
   2024 03 11 04:30  06 04 21.68    +86 59 44.8   123224 0.9935  94.1     17?  95.64  87.0   38 357  90   1
   2024 03 11 04:40  06 24 39.49    +87 00 41.5   123774 0.9936  94.4     17?  95.80  91.4   38 357  90   1
   2024 03 11 04:50  06 45 03.40    +87 00 24.3   124317 0.9936  94.6     17?  95.94  95.8   38 357  91   1
   2024 03 11 05:00  07 05 17.50    +86 58 53.7   124854 0.9936  94.9     17?  96.05 100.0   38 357  91   1
   2024 03 11 05:10  07 25 06.80    +86 56 11.3   125385 0.9936  95.1 A   17?  96.13 104.2   38 356  91   1
   2024 03 11 05:20  07 44 18.28    +86 52 20.4   125909 0.9936  95.4 A   17?  96.18 108.1   38 356  91   1
   2024 03 11 05:30  08 02 41.67    +86 47 25.3   126428 0.9936  95.6 A   17?  96.21 111.9   38 356  92   1
   2024 03 11 05:40  08 20 09.75    +86 41 31.0   126940 0.9936  95.9 N   17?  96.20 115.3   38 356  92   1
   2024 03 11 05:50  08 36 38.28    +86 34 42.9   127446 0.9936  96.1 Ne  17?  96.17 118.5   38 356  92   1
   2024 03 11 06:00  08 52 05.59    +86 27 06.6   127947 0.9936  96.4 N   17?  96.11 121.5   38 355  92   1
   2024 03 11 06:10  09 06 32.09    +86 18 47.6   128441 0.9936  96.6 C   17?  96.02 124.2   38 355  92   1
   2024 03 11 06:20  09 19 59.72    +86 09 51.0   128930 0.9936  96.9 C   17?  95.91 126.6   38 355  93   1
   ................
   2024 03 11 18:30  13 38 07.31    +75 07 58.0   148182 0.9939 105.9 Cm  18?  29.36 148.2   32  15 101   2
   2024 03 11 18:40  13 38 45.74    +75 03 51.4   148186 0.9939 105.9 Cm  18?  28.28 149.6   32  15 101   2
   2024 03 11 18:50  13 39 20.97    +74 59 50.3   148183 0.9939 105.9 Nm  18?  27.25 151.2   33  16 101   2
   2024 03 11 19:00  13 39 53.00    +74 55 54.1   148173 0.9939 105.9 Nm  18?  26.27 152.9   33  16 101   2
   2024 03 11 19:10  13 40 21.81    +74 52 02.6   148156 0.9939 106.0 Nm  18?  25.35 154.9   33  17 101   2
   2024 03 11 19:20  13 40 47.41    +74 48 15.2   148132 0.9939 106.0 Am  18?  24.50 157.1   34  17 101   2
   2024 03 11 19:30  13 41 09.80    +74 44 31.4   148102 0.9939 106.1 Am  18?  23.72 159.6   35  18 101   2
   2024 03 11 19:40  13 41 28.96    +74 40 50.9   148064 0.9939 106.1 Am  18?  23.04 162.2   35  18 101   2
   2024 03 11 19:50  13 41 44.91    +74 37 13.2   148020 0.9939 106.1  m  18?  22.45 165.1   36  18 101   2
   2024 03 11 20:00  13 41 57.64    +74 33 37.6   147969 0.9939 106.2  m  18?  21.97 168.1   36  19 101   2
   2024 03 11 20:10  13 42 07.18    +74 30 03.8   147911 0.9939 106.2     18?  21.61 171.3   37  19 101   2
   2024 03 11 20:20  13 42 13.53    +74 26 31.2   147847 0.9939 106.2     18?  21.36 174.7   37  19 101   3
   2024 03 11 20:30  13 42 16.71    +74 22 59.3   147777 0.9939 106.3     18?  21.25 178.0   38  20 101   3
   2024 03 11 20:40  13 42 16.75    +74 19 27.6   147701 0.9939 106.3     18?  21.26 181.5   39  20 101   3
   2024 03 11 20:50  13 42 13.68    +74 15 55.4   147619 0.9939 106.4     18?  21.40 184.8   39  20 101   3
   2024 03 11 21:00  13 42 07.52    +74 12 22.2   147530 0.9940 106.4     18?  21.67 188.1   40  21 101   3
   2024 03 11 21:10  13 41 58.31    +74 08 47.5   147436 0.9940 106.5     18?  22.07 191.3   41  21 101   3
   2024 03 11 21:20  13 41 46.11    +74 05 10.7   147336 0.9940 106.5     18?  22.58 194.2   41  21 101   3
   2024 03 11 21:30  13 41 30.95    +74 01 31.2   147230 0.9940 106.6     18?  23.20 197.0   42  21 101   3
   2024 03 11 21:40  13 41 12.90    +73 57 48.5   147119 0.9940 106.7     18?  23.93 199.5   43  21 101   3
   2024 03 11 21:50  13 40 52.01    +73 54 01.8   147002 0.9940 106.7     18?  24.74 201.8   44  21 101   3
   2024 03 11 22:00  13 40 28.35    +73 50 10.7   146881 0.9940 106.8     18?  25.64 203.8   44  21 101   3
   2024 03 11 22:10  13 40 02.00    +73 46 14.6   146754 0.9940 106.9     18?  26.61 205.6   45  21 101   3
   2024 03 11 22:20  13 39 33.04    +73 42 12.9   146622 0.9940 106.9     18?  27.65 207.2   46  21 101   3
   2024 03 11 22:30  13 39 01.55    +73 38 04.9   146485 0.9940 107.0     18?  28.74 208.6   47  21 101   3
   2024 03 11 22:40  13 38 27.62    +73 33 50.2   146343 0.9940 107.1     18?  29.88 209.7   47  21 101   3
   2024 03 11 22:50  13 37 51.36    +73 29 28.1   146197 0.9940 107.2     18?  31.06 210.7   48  20 101   3
   2024 03 11 23:00  13 37 12.86    +73 24 58.0   146046 0.9940 107.3     18?  32.29 211.5   49  20 101   3
   2024 03 11 23:10  13 36 32.24    +73 20 19.5   145891 0.9940 107.4     18?  33.54 212.1   50  20 101   3
   2024 03 11 23:20  13 35 49.62    +73 15 32.0   145731 0.9940 107.4     18?  34.82 212.5   50  19 101   3
   2024 03 11 23:30  13 35 05.11    +73 10 34.9   145568 0.9940 107.5     18?  36.12 212.9   51  19 101   3
   2024 03 11 23:40  13 34 18.84    +73 05 27.7   145400 0.9940 107.6     18?  37.44 213.1   52  18 101   3
   2024 03 11 23:50  13 33 30.95    +73 00 10.0   145229 0.9940 107.7     18?  38.78 213.2   52  18 101   3
   2024 03 12 00:00  13 32 41.56    +72 54 41.2   145053 0.9940 107.9     18?  40.12 213.2   53  17 101   3
   2024 03 12 00:10  13 31 50.83    +72 49 01.0   144874 0.9940 108.0     18?  41.48 213.1   54  16 101   3
   2024 03 12 00:20  13 30 58.88    +72 43 08.8   144692 0.9940 108.1     18?  42.84 212.9   54  15 102   3
   2024 03 12 00:30  13 30 05.88    +72 37 04.2   144506 0.9940 108.2     18?  44.21 212.6   55  14 102   3
   2024 03 12 00:40  13 29 11.95    +72 30 46.9   144317 0.9940 108.3     18?  45.58 212.3   56  13 102   3
   2024 03 12 00:50  13 28 17.27    +72 24 16.4   144124 0.9940 108.5     18?  46.95 211.9   56  12 102   4
   2024 03 12 01:00  13 27 21.97    +72 17 32.5   143928 0.9940 108.6     18?  48.31 211.5   57  11 102   4
   2024 03 12 01:10  13 26 26.21    +72 10 34.9   143730 0.9940 108.7     18?  49.67 211.0   57  10 102   4
   2024 03 12 01:20  13 25 30.15    +72 03 23.2   143528 0.9940 108.9     18?  51.03 210.4   58   8 102   4
   2024 03 12 01:30  13 24 33.93    +71 55 57.3   143323 0.9940 109.0     18?  52.38 209.8   58   7 102   4
   2024 03 12 01:40  13 23 37.71    +71 48 16.8   143116 0.9940 109.1     18?  53.72 209.2   58   5 102   4
   2024 03 12 01:50  13 22 41.63    +71 40 21.6   142906 0.9941 109.3     18?  55.05 208.5   59   4 102   4
   2024 03 12 02:00  13 21 45.84    +71 32 11.6   142693 0.9941 109.4     18?  56.37 207.8   59   2 102   4
   2024 03 12 02:10  13 20 50.50    +71 23 46.6   142478 0.9941 109.6     18?  57.68 207.0   59   0 102   4
   2024 03 12 02:20  13 19 55.73    +71 15 06.6   142260 0.9941 109.8  t  18?  58.97 206.3   59 359 103   4
   2024 03 12 02:30  13 19 01.68    +71 06 11.4   142040 0.9941 109.9     18?  60.25 205.5   59 357 103   4
   2024 03 12 02:40  13 18 08.47    +70 57 01.1   141817 0.9941 110.1  e  18?  61.52 204.7   59 355 103   4
   2024 03 12 02:50  13 17 16.25    +70 47 35.6   141592 0.9941 110.3     18?  62.77 203.8   59 353 103   4
   2024 03 12 03:00  13 16 25.12    +70 37 55.1   141365 0.9941 110.4     18?  64.00 203.0   59 351 103   4
   2024 03 12 03:10  13 15 35.22    +70 27 59.5   141135 0.9941 110.6     18?  65.22 202.1   59 350 103   4
   2024 03 12 03:20  13 14 46.64    +70 17 49.0   140903 0.9941 110.8     18?  66.41 201.2   59 348 103   4
   2024 03 12 03:30  13 13 59.50    +70 07 23.6   140668 0.9941 111.0     18?  67.59 200.3   59 346 103   4
   2024 03 12 03:40  13 13 13.90    +69 56 43.6   140432 0.9941 111.2     18?  68.75 199.4   58 344 104   4
   2024 03 12 03:50  13 12 29.93    +69 45 49.1   140193 0.9941 111.3     18?  69.89 198.5   58 343 104   4
   2024 03 12 04:00  13 11 47.67    +69 34 40.4   139951 0.9941 111.5     18?  71.01 197.6   57 341 104   4
   2024 03 12 04:10  13 11 07.22    +69 23 17.6   139708 0.9941 111.7     18?  72.11 196.7   57 340 104   4
   2024 03 12 04:20  13 10 28.63    +69 11 41.0   139462 0.9941 111.9     18?  73.18 195.8   56 338 104   4
   2024 03 12 04:30  13 09 51.98    +68 59 51.0   139213 0.9941 112.1     18?  74.23 194.8   56 337 104   4
   2024 03 12 04:40  13 09 17.32    +68 47 47.7   138963 0.9941 112.3     18?  75.26 193.9   55 336 104   5
   2024 03 12 04:50  13 08 44.72    +68 35 31.6   138709 0.9941 112.5     18?  76.27 193.0   54 334 105   5
   2024 03 12 05:00  13 08 14.21    +68 23 02.9   138453 0.9941 112.7 A   18?  77.26 192.0   53 333 105   5
   2024 03 12 05:10  13 07 45.84    +68 10 22.1   138195 0.9941 112.9 A   18?  78.22 191.1   53 332 105   5
   2024 03 12 05:20  13 07 19.64    +67 57 29.4   137934 0.9941 113.2 A   18?  79.16 190.1   52 331 105   5
   2024 03 12 05:30  13 06 55.64    +67 44 25.3   137670 0.9941 113.4 A   18?  80.07 189.2   51 331 105   5
   2024 03 12 05:40  13 06 33.86    +67 31 10.1   137403 0.9941 113.6 N   18?  80.96 188.3   50 330 105   5
   2024 03 12 05:50  13 06 14.32    +67 17 44.4   137133 0.9941 113.8 N   18?  81.83 187.4   49 329 106   5
   2024 03 12 06:00  13 05 57.03    +67 04 08.4   136860 0.9941 114.0 N   18?  82.68 186.4   48 329 106   5
   2024 03 12 06:10  13 05 41.99    +66 50 22.6   136584 0.9941 114.2 C   18?  83.50 185.5   47 328 106   5
   2024 03 12 06:20  13 05 29.21    +66 36 27.5   136305 0.9941 114.4 C   18?  84.29 184.6   46 328 106   5
   ................
   2024 03 12 18:30  13 45 56.17    +47 53 12.9    93681 0.9943 126.7 Cm  17? 111.04 162.7   12  35 121   8
   2024 03 12 18:40  13 46 28.24    +47 35 22.3    92613 0.9943 126.8 Cm  17? 112.57 163.4   13  37 121   8
   2024 03 12 18:50  13 46 59.06    +47 17 11.7    91528 0.9943 127.0 Nm  17? 114.25 164.3   14  38 122   8
   2024 03 12 19:00  13 47 28.60    +46 58 39.6    90427 0.9943 127.1 Nm  17? 116.11 165.1   15  40 122   8
   2024 03 12 19:10  13 47 56.82    +46 39 44.2    89309 0.9943 127.3 Nm  17? 118.17 166.0   16  41 122   8
   2024 03 12 19:20  13 48 23.67    +46 20 23.4    88174 0.9943 127.5 Am  17? 120.43 166.9   17  42 123   8
   2024 03 12 19:30  13 48 49.13    +46 00 35.2    87023 0.9943 127.7 Am  17? 122.92 167.8   18  44 123   8
   2024 03 12 19:40  13 49 13.15    +45 40 17.6    85854 0.9943 127.8 Am  17? 125.65 168.7   19  45 123   8
   2024 03 12 19:50  13 49 35.70    +45 19 28.0    84668 0.9943 128.0  m  17? 128.63 169.6   20  47 123   8
   2024 03 12 20:00  13 49 56.75    +44 58 04.0    83465 0.9943 128.2  m  17? 131.90 170.5   21  48 124   8
   2024 03 12 20:10  13 50 16.25    +44 36 02.8    82245 0.9943 128.5  m  17? 135.47 171.4   22  49 124   8
   2024 03 12 20:20  13 50 34.19    +44 13 21.6    81007 0.9943 128.7  m  17? 139.37 172.3   23  51 124   8
   2024 03 12 20:30  13 50 50.53    +43 49 57.1    79752 0.9943 128.9  m  17? 143.61 173.2   25  52 125   8
   2024 03 12 20:40  13 51 05.24    +43 25 46.1    78479 0.9943 129.2  m  17? 148.24 174.0   26  54 125   8
   2024 03 12 20:50  13 51 18.29    +43 00 44.7    77188 0.9943 129.4  m  17? 153.27 174.9   27  55 126   8
   2024 03 12 21:00  13 51 29.65    +42 34 49.0    75880 0.9943 129.7  m  17? 158.74 175.7   28  57 126   8
   2024 03 12 21:10  13 51 39.30    +42 07 54.8    74553 0.9943 130.0  m  17? 164.69 176.5   30  58 126   8
   2024 03 12 21:20  13 51 47.21    +41 39 57.1    73208 0.9943 130.2     17? 171.16 177.2   31  60 127   8
   2024 03 12 21:30  13 51 53.36    +41 10 51.0    71845 0.9943 130.6     17? 178.19 178.0   33  61 127   8
   2024 03 12 21:40  13 51 57.73    +40 40 30.8    70463 0.9943 130.9     17? 185.84 178.7   34  63 128   8
   2024 03 12 21:50  13 52 00.30    +40 08 50.3    69063 0.9943 131.2     17? 194.16 179.3   35  64 128   8
   2024 03 12 22:00  13 52 01.04    +39 35 42.7    67643 0.9943 131.6     17? 203.21 179.9   37  66 129   8
   2024 03 12 22:10  13 51 59.95    +39 01 00.7    66205 0.9943 131.9     17? 213.06 180.5   38  68 129   9
   2024 03 12 22:20  13 51 56.99    +38 24 35.7    64746 0.9943 132.3     17? 223.81 181.0   40  70 130   9
   2024 03 12 22:30  13 51 52.16    +37 46 18.8    63269 0.9942 132.8     17? 235.55 181.5   41  72 130   9
   2024 03 12 22:40  13 51 45.43    +37 05 59.7    61771 0.9942 133.2     17? 248.38 182.0   43  74 131   9
   2024 03 12 22:50  13 51 36.80    +36 23 26.9    60253 0.9942 133.7     17? 262.44 182.4   45  76 132   9
   2024 03 12 23:00  13 51 26.24    +35 38 27.5    58715 0.9942 134.2     17? 277.88 182.8   46  78 132   9
   2024 03 12 23:10  13 51 13.74    +34 50 47.1    57155 0.9942 134.7     17? 294.87 183.1   48  80 133   9
   2024 03 12 23:20  13 50 59.28    +34 00 09.2    55574 0.9942 135.2     17? 313.62 183.4   49  83 134   9
   2024 03 12 23:30  13 50 42.84    +33 06 15.2    53972 0.9942 135.8     17? 334.37 183.6   51  85 135   9
   2024 03 12 23:40  13 50 24.40    +32 08 43.5    52348 0.9942 136.4     17? 357.42 183.8   52  88 136   9
   2024 03 12 23:50  13 50 03.93    +31 07 09.6    50701 0.9942 137.0     16? 383.13 184.0   54  92 137   9
   2024 03 13 00:00  13 49 41.40    +30 01 04.8    49032 0.9942 137.7     16? 411.91 184.1   55  95 138   9
   2024 03 13 00:10  13 49 16.76    +28 49 55.9    47340 0.9942 138.4     16? 444.29 184.2   57  99 139   9
   2024 03 13 00:20  13 48 49.96    +27 33 03.8    45624 0.9942 139.2     16? 480.91 184.3   58 104 140   9
   2024 03 13 00:30  13 48 20.93    +26 09 42.2    43885 0.9942 140.0     16? 522.56 184.3   59 108 142   9
   2024 03 13 00:40  13 47 49.60    +24 38 56.1    42122 0.9942 140.8     16? 570.23 184.3   60 114 143   9
   2024 03 13 00:50  13 47 15.83    +22 59 39.1    40335 0.9942 141.7     16? 625.16 184.3   61 120 145   9
   2024 03 13 01:00  13 46 39.48    +21 10 31.1    38525 0.9942 142.6     16? 688.96 184.3   61 126 146  10
   2024 03 13 01:10  13 46 00.35    +19 09 53.4    36692 0.9942 143.6  e  16? 763.65 184.2   61 133 148  10
   2024 03 13 01:20  13 45 18.15    +16 55 44.4    34837 0.9942 144.6     16? 851.91 184.1   60 140 151  10
   2024 03 13 01:30  13 44 32.50    +14 25 31.7    32962 0.9942 145.5     16? 957.22 184.0   59 147 153  10
   2024 03 13 01:40  13 43 42.89    +11 36 02.5    31070 0.9942 146.4     16? 1084.2 183.9   58 153 156  10
   2024 03 13 01:50  13 42 48.55    +08 23 10.6    29167 0.9942 147.2     16? 1239.1 183.8   55 160 159  10
   2024 03 13 02:00  13 41 48.39    +04 41 37.5    27257 0.9942 147.8     15? 1430.3 183.7   52 166 163  10
   2024 03 13 02:10  13 40 40.76    +00 24 28.3    25354 0.9941 147.9     15? 1668.8 183.6   49 171 167  10
   2024 03 13 02:20  13 39 23.05    -04 37 20.5    23472 0.9941 147.5     15? 1969.4 183.6   44 176 171  10
   2024 03 13 02:30  13 37 51.00    -10 35 38.1    21636 0.9941 146.1  t  15? 2350.6 183.5   38 180 175  10
   2024 03 13 02:40  13 35 57.08    -17 45 32.6    19883 0.9941 143.3     15? 2833.5 183.6   31 183 173  10
   2024 03 13 02:50  13 33 26.82    -26 25 29.5    18269 0.9941 138.7     14? 3435.5 183.8   22 186 165  10
   2024 03 13 03:00  13 29 48.69    -36 55 21.3    16873 0.9941 131.8     14? 4154.5 184.4   11 188 154  10
   ................
   2024 03 13 06:10  02 16 18.33    +40 01 45.9    37835 0.9939  56.7 Cr  15? 957.82   5.7    1  33  26  12
   2024 03 13 06:20  02 17 39.25    +42 33 48.5    39447 0.9939  58.5 C   15? 876.96   6.0    4  33  29  12
   ................
   2024 03 13 18:30  22 54 05.05    +89 22 03.8   116421 0.9942  92.0 Cm  17?  46.57 296.1   40 359  73  15
   2024 03 13 18:40  22 10 55.92    +89 25 29.2   117074 0.9942  92.1 Cm  17?  44.95 283.4   40 359  73  15
   2024 03 13 18:50  21 22 33.40    +89 27 36.0   117717 0.9942  92.1 Nm  17?  43.45 269.6   40 359  73  15
   2024 03 13 19:00  20 31 49.21    +89 28 19.6   118350 0.9942  92.2 Nm  17?  42.06 256.5   40 359  73  15
   2024 03 13 19:10  19 42 29.90    +89 27 43.7   118975 0.9942  92.3 Nm  17?  40.80 245.4   40 359  73  15
   2024 03 13 19:20  18 57 40.74    +89 26 00.3   119590 0.9942  92.4 At  17?  39.66 236.7   40   0  73  15
   2024 03 13 19:30  18 18 46.98    +89 23 25.1   120196 0.9942  92.5 Am  17?  38.65 230.3   40   0  73  15
   2024 03 13 19:40  17 45 46.54    +89 20 12.8   120793 0.9942  92.6 Am  17?  37.78 225.6   40   0  73  16
   2024 03 13 19:50  17 17 52.84    +89 16 35.1   121382 0.9942  92.6 Am  17?  37.04 222.2   40   0  73  16
   2024 03 13 20:00  16 54 08.06    +89 12 40.4   121961 0.9942  92.7  m  17?  36.44 219.7   40   0  73  16
   2024 03 13 20:10  16 33 39.27    +89 08 34.1   122532 0.9942  92.8  m  17?  35.99 218.0   40   0  73  16
   2024 03 13 20:20  16 15 43.27    +89 04 19.7   123094 0.9942  92.9  m  17?  35.67 216.8   40   1  73  16
   2024 03 13 20:30  15 59 46.57    +88 59 59.2   123647 0.9942  93.0  m  17?  35.48 216.0   40   1  73  16
   2024 03 13 20:40  15 45 23.82    +88 55 33.8   124191 0.9942  93.1  m  17?  35.44 215.4   40   1  74  16
   2024 03 13 20:50  15 32 16.00    +88 51 03.9   124727 0.9942  93.1  m  17?  35.51 215.0   40   1  74  16
   2024 03 13 21:00  15 20 08.88    +88 46 29.5   125255 0.9943  93.2  m  17?  35.71 214.7   40   1  74  16
   2024 03 13 21:10  15 08 51.80    +88 41 50.3   125775 0.9943  93.3  m  17?  36.02 214.5   40   1  74  16
   2024 03 13 21:20  14 58 16.79    +88 37 05.6   126286 0.9943  93.4  m  17?  36.44 214.3   40   1  74  16
   2024 03 13 21:30  14 48 17.89    +88 32 14.9   126789 0.9943  93.5  m  17?  36.96 214.0   40   2  74  16
   2024 03 13 21:40  14 38 50.63    +88 27 17.5   127284 0.9943  93.6  m  17?  37.56 213.7   41   2  74  16
   2024 03 13 21:50  14 29 51.67    +88 22 12.5   127771 0.9943  93.7  m  17?  38.24 213.4   41   2  74  16
   2024 03 13 22:00  14 21 18.50    +88 16 59.2   128251 0.9943  93.8  m  17?  38.99 213.0   41   2  74  16
   2024 03 13 22:10  14 13 09.26    +88 11 36.9   128722 0.9943  93.9  m  17?  39.81 212.5   41   2  74  16
   2024 03 13 22:20  14 05 22.54    +88 06 04.9   129187 0.9943  94.0  m  17?  40.68 212.0   41   2  74  16
   2024 03 13 22:30  13 57 57.26    +88 00 22.4   129643 0.9943  94.2  m  17?  41.60 211.4   41   2  74  16
   2024 03 13 22:40  13 50 52.59    +87 54 28.8   130092 0.9943  94.3     17?  42.55 210.8   42   2  74  17
   2024 03 13 22:50  13 44 07.88    +87 48 23.7   130534 0.9943  94.4     17?  43.54 210.0   42   2  74  17
   2024 03 13 23:00  13 37 42.58    +87 42 06.5   130969 0.9943  94.5     17?  44.56 209.3   42   2  74  17
   2024 03 13 23:10  13 31 36.20    +87 35 36.8   131397 0.9943  94.6     17?  45.60 208.5   42   2  74  17
   2024 03 13 23:20  13 25 48.31    +87 28 54.3   131818 0.9943  94.8     17?  46.66 207.6   42   2  74  17
   2024 03 13 23:30  13 20 18.48    +87 21 58.6   132232 0.9943  94.9     17?  47.74 206.7   43   2  75  17
   2024 03 13 23:40  13 15 06.29    +87 14 49.5   132639 0.9943  95.0     17?  48.82 205.8   43   2  75  17
   2024 03 13 23:50  13 10 11.31    +87 07 26.9   133040 0.9943  95.1     17?  49.90 204.9   43   2  75  17
   2024 03 14 00:00  13 05 33.12    +86 59 50.6   133434 0.9943  95.3     17?  50.99 204.0   43   2  75  17
   2024 03 14 00:10  13 01 11.25    +86 52 00.6   133822 0.9943  95.4     17?  52.08 203.0   43   1  75  17
   2024 03 14 00:20  12 57 05.23    +86 43 56.9   134204 0.9943  95.6     17?  53.17 202.0   44   1  75  17
   2024 03 14 00:30  12 53 14.59    +86 35 39.6   134580 0.9943  95.7     17?  54.25 201.1   44   1  75  17
   2024 03 14 00:40  12 49 38.82    +86 27 08.7   134949 0.9943  95.9     17?  55.32 200.1   44   1  75  17
   2024 03 14 00:50  12 46 17.43    +86 18 24.3   135313 0.9944  96.0     17?  56.39 199.1   44   0  75  17
   2024 03 14 01:00  12 43 09.91    +86 09 26.6   135671 0.9944  96.2     17?  57.44 198.1   44   0  75  18
   2024 03 14 01:10  12 40 15.75    +86 00 15.8   136023 0.9944  96.3     17?  58.48 197.2   45   0  75  18
   2024 03 14 01:20  12 37 34.43    +85 50 52.1   136370 0.9944  96.5     17?  59.50 196.2   45   0  75  18
   2024 03 14 01:30  12 35 05.44    +85 41 15.8   136711 0.9944  96.7  t  17?  60.50 195.2   45 359  75  18
   2024 03 14 01:40  12 32 48.30    +85 31 27.1   137047 0.9944  96.8     17?  61.49 194.3   45 359  75  18
   2024 03 14 01:50  12 30 42.50    +85 21 26.3   137377 0.9944  97.0     17?  62.46 193.3   45 359  75  18
   2024 03 14 02:00  12 28 47.56    +85 11 13.7   137703 0.9944  97.2     17?  63.41 192.4   45 358  76  18
   2024 03 14 02:10  12 27 03.01    +85 00 49.8   138023 0.9944  97.3     17?  64.34 191.5   45 358  76  18
   2024 03 14 02:20  12 25 28.39    +84 50 14.7   138339 0.9944  97.5     17?  65.25 190.6   45 357  76  18
   2024 03 14 02:30  12 24 03.25    +84 39 28.9   138649 0.9944  97.7     17?  66.13 189.7   46 357  76  18
   2024 03 14 02:40  12 22 47.17    +84 28 32.7   138955 0.9944  97.9     17?  66.99 188.8   46 356  76  18
   2024 03 14 02:50  12 21 39.72    +84 17 26.5   139256 0.9944  98.1     17?  67.83 187.9   46 356  76  18
   2024 03 14 03:00  12 20 40.51    +84 06 10.7   139553 0.9944  98.2     17?  68.64 187.0   46 355  76  18
   2024 03 14 03:10  12 19 49.15    +83 54 45.6   139845 0.9944  98.4  e  17?  69.42 186.2   46 355  76  19
   2024 03 14 03:20  12 19 05.27    +83 43 11.8   140132 0.9944  98.6     17?  70.18 185.3   46 354  76  19
   2024 03 14 03:30  12 18 28.52    +83 31 29.6   140415 0.9944  98.8     17?  70.91 184.5   46 354  76  19
   2024 03 14 03:40  12 17 58.55    +83 19 39.4   140693 0.9944  99.0     17?  71.62 183.6   46 353  77  19
   2024 03 14 03:50  12 17 35.03    +83 07 41.6   140968 0.9944  99.2     17?  72.30 182.8   45 353  77  19
   2024 03 14 04:00  12 17 17.66    +82 55 36.7   141238 0.9944  99.4     17?  72.94 182.0   45 352  77  19
   2024 03 14 04:10  12 17 06.13    +82 43 25.1   141504 0.9944  99.6     17?  73.56 181.2   45 352  77  19
   2024 03 14 04:20  12 17 00.17    +82 31 07.2   141765 0.9944  99.8     17?  74.16 180.4   45 351  77  19
   2024 03 14 04:30  12 16 59.49    +82 18 43.4   142023 0.9944 100.0     18?  74.72 179.6   45 351  77  19
   2024 03 14 04:40  12 17 03.84    +82 06 14.2   142276 0.9945 100.2     18?  75.25 178.9   45 350  77  19
   2024 03 14 04:50  12 17 12.97    +81 53 40.0   142526 0.9945 100.4     18?  75.76 178.1   45 350  77  19
   2024 03 14 05:00  12 17 26.64    +81 41 01.2   142771 0.9945 100.6 A   18?  76.23 177.3   44 349  77  19
   2024 03 14 05:10  12 17 44.62    +81 28 18.3   143012 0.9945 100.8 A   18?  76.68 176.6   44 349  78  20
   2024 03 14 05:20  12 18 06.70    +81 15 31.7   143250 0.9945 101.0 A   18?  77.09 175.8   44 348  78  20
   2024 03 14 05:30  12 18 32.67    +81 02 41.8   143483 0.9945 101.2 N   18?  77.48 175.1   43 348  78  20
   2024 03 14 05:40  12 19 02.34    +80 49 49.1   143712 0.9945 101.4 N   18?  77.83 174.4   43 347  78  20
   2024 03 14 05:50  12 19 35.50    +80 36 53.9   143938 0.9945 101.6 N   18?  78.16 173.6   43 347  78  20
   2024 03 14 06:00  12 20 11.99    +80 23 56.7   144159 0.9945 101.8 C   18?  78.45 172.9   42 347  78  20
   2024 03 14 06:10  12 20 51.63    +80 10 58.0   144376 0.9945 102.0 C   18?  78.71 172.2   42 346  78  20
   2024 03 14 06:20  12 21 34.25    +79 57 58.0   144590 0.9945 102.2 C   18?  78.95 171.5   42 346  78  20
   ................
   2024 03 14 18:30  13 39 49.77    +68 26 03.9   144192 0.9948 110.7 Cm  18?  32.51 151.3   28  21  87  24
   2024 03 14 18:40  13 40 16.83    +68 21 21.0   143904 0.9948 110.7 Cm  18?  31.62 152.8   29  22  87  25
   2024 03 14 18:50  13 40 41.71    +68 16 41.8   143608 0.9948 110.8 Nm  18?  30.78 154.4   29  23  87  25
   2024 03 14 19:00  13 41 04.39    +68 12 06.0   143304 0.9948 110.8 Nm  18?  30.00 156.2   30  23  88  25
   2024 03 14 19:10  13 41 24.83    +68 07 33.2   142992 0.9948 110.9 Nm  18?  29.28 158.2   31  24  88  25
   2024 03 14 19:20  13 41 43.03    +68 03 02.8   142673 0.9948 110.9 Am  18?  28.64 160.3   31  25  88  25
   2024 03 14 19:30  13 41 58.95    +67 58 34.4   142346 0.9948 111.0 Am  18?  28.08 162.6   32  25  88  25
   2024 03 14 19:40  13 42 12.59    +67 54 07.5   142012 0.9948 111.0 Am  18?  27.61 165.0   33  26  88  25
   2024 03 14 19:50  13 42 23.92    +67 49 41.6   141671 0.9948 111.1 Am  18?  27.24 167.6   34  26  88  25
   2024 03 14 20:00  13 42 32.94    +67 45 16.2   141323 0.9948 111.1  m  18?  26.97 170.3   34  27  88  25
   2024 03 14 20:10  13 42 39.65    +67 40 50.8   140967 0.9948 111.2  m  18?  26.82 173.0   35  28  88  25
   2024 03 14 20:20  13 42 44.03    +67 36 24.7   140605 0.9948 111.2  m  18?  26.78 175.9   36  28  88  25
   2024 03 14 20:30  13 42 46.09    +67 31 57.5   140236 0.9948 111.3  m  18?  26.86 178.7   37  28  88  25
   2024 03 14 20:40  13 42 45.82    +67 27 28.6   139860 0.9948 111.3  m  18?  27.07 181.5   38  29  88  25
   2024 03 14 20:50  13 42 43.25    +67 22 57.4   139477 0.9948 111.4  m  18?  27.40 184.3   39  29  88  25
   2024 03 14 21:00  13 42 38.38    +67 18 23.2   139089 0.9948 111.5  m  18?  27.85 187.0   40  30  88  25
   2024 03 14 21:10  13 42 31.22    +67 13 45.6   138694 0.9948 111.5  m  18?  28.43 189.5   41  30  88  25
   2024 03 14 21:20  13 42 21.79    +67 09 03.9   138292 0.9948 111.6  m  18?  29.11 192.0   42  30  88  25
   2024 03 14 21:30  13 42 10.12    +67 04 17.5   137885 0.9948 111.7  m  18?  29.90 194.3   43  31  88  25
   2024 03 14 21:40  13 41 56.24    +66 59 25.7   137472 0.9948 111.8  m  18?  30.80 196.4   44  31  88  26
   2024 03 14 21:50  13 41 40.19    +66 54 28.0   137054 0.9948 111.9  m  18?  31.79 198.3   45  31  88  26
   2024 03 14 22:00  13 41 21.99    +66 49 23.7   136629 0.9948 111.9  m  18?  32.87 200.0   46  31  88  26
   2024 03 14 22:10  13 41 01.69    +66 44 12.1   136200 0.9948 112.0  m  18?  34.03 201.6   47  31  88  26
   2024 03 14 22:20  13 40 39.34    +66 38 52.7   135765 0.9948 112.1  m  18?  35.26 203.0   48  31  88  26
   2024 03 14 22:30  13 40 15.00    +66 33 24.7   135325 0.9948 112.2  m  18?  36.57 204.2   49  31  88  26
   2024 03 14 22:40  13 39 48.72    +66 27 47.6   134880 0.9948 112.3  m  18?  37.93 205.3   50  31  88  26
   2024 03 14 22:50  13 39 20.56    +66 22 00.6   134430 0.9948 112.4  m  18?  39.35 206.2   51  31  88  26
   2024 03 14 23:00  13 38 50.58    +66 16 03.3   133975 0.9948 112.5  m  18?  40.83 206.9   52  30  88  26
   2024 03 14 23:10  13 38 18.87    +66 09 54.9   133516 0.9948 112.6  m  18?  42.34 207.6   53  30  88  26
   2024 03 14 23:20  13 37 45.50    +66 03 34.8   133053 0.9948 112.8  m  18?  43.91 208.1   54  29  88  26
   2024 03 14 23:30  13 37 10.55    +65 57 02.4   132585 0.9949 112.9  m  18?  45.50 208.5   55  29  88  26
   2024 03 14 23:40  13 36 34.10    +65 50 17.1   132113 0.9949 113.0  m  18?  47.13 208.8   56  28  89  26
   2024 03 14 23:50  13 35 56.25    +65 43 18.4   131637 0.9949 113.1  m  18?  48.80 209.0   57  27  89  26
   2024 03 15 00:00  13 35 17.08    +65 36 05.6   131156 0.9949 113.3     18?  50.48 209.0   58  26  89  26
   2024 03 15 00:10  13 34 36.70    +65 28 38.1   130673 0.9949 113.4     18?  52.20 209.1   59  25  89  27
   2024 03 15 00:20  13 33 55.20    +65 20 55.5   130185 0.9949 113.6     18?  53.93 209.0   60  24  89  27
   2024 03 15 00:30  13 33 12.69    +65 12 57.2   129694 0.9949 113.7     18?  55.68 208.9   61  23  89  27
   2024 03 15 00:40  13 32 29.27    +65 04 42.6   129200 0.9949 113.9     18?  57.45 208.6   62  21  89  27
   2024 03 15 00:50  13 31 45.06    +64 56 11.3   128702 0.9949 114.0     18?  59.24 208.4   63  19  89  27
   2024 03 15 01:00  13 31 00.16    +64 47 22.9   128200 0.9949 114.2     18?  61.03 208.1   63  17  89  27
   2024 03 15 01:10  13 30 14.69    +64 38 16.8   127696 0.9949 114.4     18?  62.84 207.7   64  15  89  27
   2024 03 15 01:20  13 29 28.76    +64 28 52.7   127189 0.9949 114.5     18?  64.66 207.3   65  13  89  27
   2024 03 15 01:30  13 28 42.49    +64 19 10.1   126678 0.9949 114.7     18?  66.48 206.8   65  11  89  27
   2024 03 15 01:40  13 27 55.99    +64 09 08.7   126165 0.9949 114.9     18?  68.31 206.3   66   8  89  27
   2024 03 15 01:50  13 27 09.37    +63 58 48.1   125648 0.9949 115.1     18?  70.14 205.8   66   5  89  27
   2024 03 15 02:00  13 26 22.76    +63 48 08.1   125129 0.9949 115.3     18?  71.98 205.2   67   2  89  27
   2024 03 15 02:10  13 25 36.27    +63 37 08.3   124607 0.9949 115.5  t  18?  73.81 204.6   67 359  89  28
   2024 03 15 02:20  13 24 50.01    +63 25 48.4   124083 0.9949 115.7     18?  75.65 204.0   67 356  89  28
   2024 03 15 02:30  13 24 04.09    +63 14 08.3   123555 0.9949 115.9  e  18?  77.49 203.3   67 353  89  28
   2024 03 15 02:40  13 23 18.63    +63 02 07.8   123025 0.9949 116.1     18?  79.33 202.6   67 349  89  28
   2024 03 15 02:50  13 22 33.73    +62 49 46.5   122492 0.9949 116.4     18?  81.17 201.9   67 346  90  28
   2024 03 15 03:00  13 21 49.50    +62 37 04.5   121956 0.9949 116.6     18?  83.00 201.2   66 343  90  28
   2024 03 15 03:10  13 21 06.04    +62 24 01.6   121418 0.9949 116.8     18?  84.83 200.5   66 340  90  28
   2024 03 15 03:20  13 20 23.45    +62 10 37.7   120877 0.9949 117.0     18?  86.66 199.7   65 337  90  28
   2024 03 15 03:30  13 19 41.83    +61 56 52.8   120333 0.9949 117.3     18?  88.48 199.0   65 335  90  28
   2024 03 15 03:40  13 19 01.27    +61 42 46.7   119786 0.9949 117.5     18?  90.30 198.2   64 332  90  28
   2024 03 15 03:50  13 18 21.87    +61 28 19.6   119236 0.9949 117.8     18?  92.11 197.4   63 330  90  28
   2024 03 15 04:00  13 17 43.69    +61 13 31.3   118684 0.9949 118.0     18?  93.92 196.6   62 328  90  29
   2024 03 15 04:10  13 17 06.83    +60 58 22.0   118128 0.9949 118.3     18?  95.72 195.8   61 326  90  29
   2024 03 15 04:20  13 16 31.36    +60 42 51.7   117570 0.9949 118.5     18?  97.51 195.0   60 324  90  29
   2024 03 15 04:30  13 15 57.34    +60 27 00.5   117008 0.9949 118.8     18?  99.30 194.2   59 322  90  29
   2024 03 15 04:40  13 15 24.86    +60 10 48.5   116443 0.9949 119.1     18? 101.09 193.4   58 321  91  29
   2024 03 15 04:50  13 14 53.96    +59 54 15.7   115874 0.9949 119.3     18? 102.87 192.6   57 320  91  29
   2024 03 15 05:00  13 14 24.71    +59 37 22.4   115302 0.9949 119.6 A   18? 104.64 191.7   56 319  91  29
   2024 03 15 05:10  13 13 57.16    +59 20 08.7   114726 0.9949 119.9 A   18? 106.41 190.9   54 318  91  29
   2024 03 15 05:20  13 13 31.35    +59 02 34.6   114146 0.9949 120.2 A   18? 108.18 190.1   53 317  91  29
   2024 03 15 05:30  13 13 07.32    +58 44 40.5   113563 0.9949 120.5 N   18? 109.94 189.3   52 316  91  29
   2024 03 15 05:40  13 12 45.12    +58 26 26.4   112975 0.9949 120.8 N   18? 111.70 188.5   51 315  91  30
   2024 03 15 05:50  13 12 24.78    +58 07 52.6   112382 0.9949 121.1 N   18? 113.45 187.6   49 315  92  30
   2024 03 15 06:00  13 12 06.33    +57 48 59.2   111785 0.9949 121.4 C   18? 115.20 186.8   48 315  92  30
   2024 03 15 06:10  13 11 49.78    +57 29 46.4   111184 0.9949 121.7 C   18? 116.96 186.0   46 314  92  30
   ................
   2024 03 15 21:10  00 58 37.67    +24 54 35.6    27558 0.9946  32.3  r  15? 1624.9   7.7    0 303  46  36
   2024 03 15 21:20  01 01 06.31    +29 03 17.6    29573 0.9946  36.0  m  15? 1393.2   7.6    2 307  45  36
   2024 03 15 21:30  01 03 18.77    +32 37 52.7    31567 0.9946  39.2  m  16? 1209.6   7.6    3 311  44  36
   2024 03 15 21:40  01 05 19.63    +35 45 12.4    33534 0.9946  42.1  m  16? 1062.1   7.7    5 314  44  36
   2024 03 15 21:50  01 07 12.11    +38 30 28.4    35467 0.9946  44.6  m  16? 942.07   7.9    6 317  43  36
   2024 03 15 22:00  01 08 58.52    +40 57 39.9    37365 0.9946  46.9  m  16? 843.24   8.1    6 320  43  36
   2024 03 15 22:10  01 10 40.56    +43 09 52.4    39226 0.9946  49.0  m  16? 760.95   8.3    7 322  43  36
   2024 03 15 22:20  01 12 19.54    +45 09 32.0    41050 0.9946  50.9  m  16? 691.76   8.7    8 325  43  36
   2024 03 15 22:30  01 13 56.47    +46 58 34.7    42837 0.9946  52.6  m  16? 633.04   9.0    8 327  43  36
   2024 03 15 22:40  01 15 32.13    +48 38 34.1    44587 0.9946  54.2  m  16? 582.80   9.4    9 329  44  36
   2024 03 15 22:50  01 17 07.15    +50 10 46.4    46301 0.9946  55.7  m  16? 539.50   9.8    9 331  44  36
   2024 03 15 23:00  01 18 42.05    +51 36 14.1    47979 0.9946  57.0  m  16? 501.93  10.2   10 333  44  36
   2024 03 15 23:10  01 20 17.23    +52 55 49.1    49624 0.9946  58.3  m  16? 469.12  10.7   10 335  44  36
   2024 03 15 23:20  01 21 53.06    +54 10 14.6    51235 0.9946  59.5  m  16? 440.31  11.1   11 337  44  36
   2024 03 15 23:30  01 23 29.82    +55 20 07.4    52814 0.9946  60.6  m  16? 414.88  11.6   11 338  45  36
   2024 03 15 23:40  01 25 07.76    +56 25 58.3    54362 0.9946  61.7  m  16? 392.33  12.1   12 340  45  37
   2024 03 15 23:50  01 26 47.10    +57 28 13.9    55879 0.9946  62.7  m  16? 372.25  12.6   12 342  45  37
   2024 03 16 00:00  01 28 28.02    +58 27 16.9    57367 0.9946  63.7  m  16? 354.29  13.1   12 343  45  37
   2024 03 16 00:10  01 30 10.69    +59 23 27.0    58827 0.9946  64.6  m  16? 338.18  13.6   13 344  46  37
   2024 03 16 00:20  01 31 55.24    +60 17 01.3    60259 0.9946  65.5  m  16? 323.66  14.1   13 346  46  37
   2024 03 16 00:30  01 33 41.82    +61 08 14.6    61665 0.9946  66.3  m  16? 310.53  14.6   14 347  46  37
   2024 03 16 00:40  01 35 30.54    +61 57 20.1    63045 0.9946  67.1  m  16? 298.64  15.1   14 348  46  37
   2024 03 16 00:50  01 37 21.52    +62 44 29.2    64400 0.9946  67.9  m  16? 287.82  15.6   15 349  47  37
   2024 03 16 01:00  01 39 14.85    +63 29 52.1    65731 0.9946  68.6  m  16? 277.95  16.1   15 351  47  37
   2024 03 16 01:10  01 41 10.65    +64 13 37.7    67038 0.9946  69.4     16? 268.93  16.6   16 352  47  37
   2024 03 16 01:20  01 43 09.00    +64 55 54.1    68323 0.9946  70.1     16? 260.66  17.1   16 353  47  37
   2024 03 16 01:30  01 45 10.00    +65 36 48.3    69586 0.9946  70.8     16? 253.05  17.6   17 354  48  37
   2024 03 16 01:40  01 47 13.74    +66 16 26.8    70828 0.9946  71.4     16? 246.04  18.0   17 355  48  38
   2024 03 16 01:50  01 49 20.33    +66 54 55.2    72049 0.9947  72.1     16? 239.57  18.5   18 356  48  38
   2024 03 16 02:00  01 51 29.85    +67 32 18.6    73250 0.9947  72.7     16? 233.57  18.9   18 356  48  38
   2024 03 16 02:10  01 53 42.41    +68 08 41.6    74431 0.9947  73.3     16? 228.00  19.3   19 357  49  38
   2024 03 16 02:20  01 55 58.10    +68 44 08.3    75594 0.9947  73.9     16? 222.81  19.8   19 358  49  38
   2024 03 16 02:30  01 58 17.04    +69 18 42.4    76738 0.9947  74.5     16? 217.97  20.2   20 359  49  38
   2024 03 16 02:40  02 00 39.35    +69 52 27.4    77865 0.9947  75.1     16? 213.44  20.6   20 359  49  38
   2024 03 16 02:50  02 03 05.14    +70 25 26.2    78974 0.9947  75.7  t  16? 209.20  21.0   21   0  49  38
   2024 03 16 03:00  02 05 34.54    +70 57 41.5    80067 0.9947  76.2     16? 205.20  21.4   21   1  50  38
   2024 03 16 03:10  02 08 07.69    +71 29 15.8    81144 0.9947  76.7     16? 201.44  21.7   22   1  50  38
   2024 03 16 03:20  02 10 44.75    +72 00 11.4    82205 0.9947  77.3     16? 197.89  22.1   23   2  50  38
   2024 03 16 03:30  02 13 25.87    +72 30 30.3    83250 0.9947  77.8     16? 194.52  22.5   23   3  50  39
   2024 03 16 03:40  02 16 11.22    +73 00 14.2    84281 0.9947  78.3     16? 191.32  22.8   24   3  51  39
   2024 03 16 03:50  02 19 01.01    +73 29 24.8    85297 0.9947  78.8     16? 188.28  23.2   24   3  51  39
   2024 03 16 04:00  02 21 55.43    +73 58 03.6    86299 0.9947  79.3     16? 185.38  23.5   25   4  51  39
   2024 03 16 04:10  02 24 54.70    +74 26 11.8    87288 0.9947  79.8     16? 182.60  23.9   25   4  51  39
   2024 03 16 04:20  02 27 59.09    +74 53 50.7    88263 0.9947  80.3     16? 179.94  24.3   26   5  51  39
   2024 03 16 04:30  02 31 08.85    +75 21 01.3    89225 0.9947  80.7     16? 177.38  24.6   27   5  52  39
   2024 03 16 04:40  02 34 24.28    +75 47 44.4    90175 0.9947  81.2     16? 174.91  25.0   27   5  52  39
   2024 03 16 04:50  02 37 45.71    +76 14 00.9    91113 0.9947  81.6     16? 172.53  25.4   28   6  52  39
   2024 03 16 05:00  02 41 13.48    +76 39 51.6    92038 0.9947  82.1 A   16? 170.23  25.8   28   6  52  39
   2024 03 16 05:10  02 44 47.99    +77 05 16.9    92953 0.9947  82.5 A   16? 167.99  26.2   29   6  53  39
   2024 03 16 05:20  02 48 29.68    +77 30 17.4    93855 0.9947  83.0 A   16? 165.81  26.6   29   6  53  40
   2024 03 16 05:30  02 52 19.01    +77 54 53.4    94747 0.9947  83.4 N   16? 163.70  27.0   30   6  53  40
   2024 03 16 05:40  02 56 16.50    +78 19 05.4    95628 0.9947  83.8 N   16? 161.63  27.5   30   6  53  40
   2024 03 16 05:50  03 00 22.75    +78 42 53.4    96499 0.9948  84.2 N   16? 159.60  28.0   31   6  54  40
   2024 03 16 06:00  03 04 38.37    +79 06 17.7    97359 0.9948  84.6 C   16? 157.62  28.5   31   7  54  40
   2024 03 16 06:10  03 09 04.09    +79 29 18.3    98209 0.9948  85.0 C   16? 155.67  29.0   32   7  54  40
   ................
   2024 03 16 18:30  13 42 24.04    +82 00 27.6   139735 0.9951  98.4 Cm  17?  29.66 155.7   36   9  67  45
   2024 03 16 18:40  13 43 18.19    +81 56 00.0   140018 0.9951  98.4 Cm  17?  28.54 157.7   37   9  67  45
   2024 03 16 18:50  13 44 05.47    +81 51 38.5   140294 0.9951  98.5 Nm  17?  27.51 159.8   37   9  67  45
   2024 03 16 19:00  13 44 46.04    +81 47 22.8   140563 0.9951  98.5 Nm  17?  26.56 162.1   37   9  67  45
   2024 03 16 19:10  13 45 20.02    +81 43 12.3   140825 0.9951  98.6 Nm  17?  25.71 164.6   37  10  67  46
   2024 03 16 19:20  13 45 47.54    +81 39 06.6   141079 0.9951  98.6 Nm  17?  24.95 167.3   38  10  67  46
   2024 03 16 19:30  13 46 08.74    +81 35 05.1   141327 0.9951  98.7 Am  17?  24.32 170.2   38  10  67  46
   2024 03 16 19:40  13 46 23.72    +81 31 07.3   141567 0.9951  98.7 Am  17?  23.80 173.2   38  10  67  46
   2024 03 16 19:50  13 46 32.63    +81 27 12.6   141801 0.9951  98.8 Am  17?  23.40 176.4   39  11  67  46
   2024 03 16 20:00  13 46 35.58    +81 23 20.5   142028 0.9951  98.8  m  17?  23.14 179.6   39  11  67  46
   2024 03 16 20:10  13 46 32.71    +81 19 30.3   142248 0.9951  98.9  m  17?  23.01 182.9   39  11  67  46
   2024 03 16 20:20  13 46 24.14    +81 15 41.5   142461 0.9951  98.9  m  17?  23.02 186.1   40  11  67  46
   2024 03 16 20:30  13 46 10.03    +81 11 53.5   142668 0.9951  99.0  m  17?  23.15 189.2   40  11  67  46
   2024 03 16 20:40  13 45 50.50    +81 08 05.6   142869 0.9951  99.1  m  17?  23.41 192.3   41  11  67  46
   2024 03 16 20:50  13 45 25.71    +81 04 17.1   143063 0.9952  99.1  m  17?  23.80 195.2   41  12  67  46
   2024 03 16 21:00  13 44 55.82    +81 00 27.5   143251 0.9952  99.2  m  17?  24.30 197.8   41  12  67  46
   2024 03 16 21:10  13 44 20.98    +80 56 36.1   143432 0.9952  99.3  m  18?  24.90 200.3   42  12  67  46
   2024 03 16 21:20  13 43 41.39    +80 52 42.2   143608 0.9952  99.3  m  18?  25.59 202.6   42  12  67  46
   2024 03 16 21:30  13 42 57.20    +80 48 45.2   143777 0.9952  99.4  m  18?  26.38 204.6   43  12  67  46
   2024 03 16 21:40  13 42 08.62    +80 44 44.4   143941 0.9952  99.5  m  18?  27.23 206.3   43  12  67  46
   2024 03 16 21:50  13 41 15.85    +80 40 39.2   144099 0.9952  99.5  m  18?  28.15 207.9   44  12  67  46
   2024 03 16 22:00  13 40 19.09    +80 36 28.9   144251 0.9952  99.6  m  18?  29.13 209.2   44  11  67  46
   2024 03 16 22:10  13 39 18.57    +80 32 12.9   144398 0.9952  99.7  m  18?  30.16 210.3   44  11  67  46
   2024 03 16 22:20  13 38 14.51    +80 27 50.6   144539 0.9952  99.8  m  18?  31.23 211.2   45  11  67  47
   2024 03 16 22:30  13 37 07.15    +80 23 21.2   144675 0.9952  99.9  m  18?  32.33 211.9   45  11  67  47
   2024 03 16 22:40  13 35 56.73    +80 18 44.4   144805 0.9952  99.9  m  18?  33.47 212.5   46  11  67  47
   2024 03 16 22:50  13 34 43.50    +80 13 59.3   144931 0.9952 100.0  m  18?  34.63 212.9   46  11  67  47
   2024 03 16 23:00  13 33 27.73    +80 09 05.6   145051 0.9952 100.1  m  18?  35.81 213.1   47  10  67  47
   2024 03 16 23:10  13 32 09.68    +80 04 02.6   145167 0.9952 100.2  m  18?  37.00 213.3   47  10  67  47
   2024 03 16 23:20  13 30 49.61    +79 58 49.8   145277 0.9952 100.3  m  18?  38.20 213.3   48  10  67  47
   2024 03 16 23:30  13 29 27.80    +79 53 26.7   145383 0.9952 100.4  m  18?  39.41 213.2   48   9  67  47
   2024 03 16 23:40  13 28 04.52    +79 47 52.9   145485 0.9952 100.5  m  18?  40.63 213.0   48   9  67  47
   2024 03 16 23:50  13 26 40.06    +79 42 08.0   145581 0.9952 100.7  m  18?  41.85 212.7   49   8  67  47
   2024 03 17 00:00  13 25 14.68    +79 36 11.5   145674 0.9952 100.8  m  18?  43.07 212.3   49   8  67  47
   2024 03 17 00:10  13 23 48.67    +79 30 03.1   145762 0.9952 100.9  m  18?  44.28 211.9   50   7  67  47
   2024 03 17 00:20  13 22 22.30    +79 23 42.4   145846 0.9952 101.0  m  18?  45.49 211.4   50   6  67  47
   2024 03 17 00:30  13 20 55.83    +79 17 09.2   145926 0.9952 101.1  m  18?  46.70 210.8   50   6  67  47
   2024 03 17 00:40  13 19 29.54    +79 10 23.1   146002 0.9952 101.3  m  18?  47.89 210.2   51   5  67  47
   2024 03 17 00:50  13 18 03.67    +79 03 24.0   146074 0.9953 101.4  m  18?  49.08 209.5   51   4  67  48
   2024 03 17 01:00  13 16 38.48    +78 56 11.8   146143 0.9953 101.5  m  18?  50.25 208.8   51   3  67  48
   2024 03 17 01:10  13 15 14.22    +78 48 46.1   146207 0.9953 101.7  m  18?  51.41 208.0   51   3  67  48
   2024 03 17 01:20  13 13 51.11    +78 41 07.0   146268 0.9953 101.8  m  18?  52.56 207.3   52   2  67  48
   2024 03 17 01:30  13 12 29.37    +78 33 14.4   146326 0.9953 102.0  m  18?  53.69 206.4   52   1  67  48
   2024 03 17 01:40  13 11 09.23    +78 25 08.2   146380 0.9953 102.1  m  18?  54.81 205.6   52   0  67  48
   2024 03 17 01:50  13 09 50.87    +78 16 48.5   146430 0.9953 102.3  t  18?  55.90 204.7   52 359  67  48
   2024 03 17 02:00  13 08 34.48    +78 08 15.2   146477 0.9953 102.4  m  18?  56.98 203.8   52 358  67  48
   2024 03 17 02:10  13 07 20.25    +77 59 28.6   146521 0.9953 102.6  m  18?  58.04 202.9   52 357  67  48
   2024 03 17 02:20  13 06 08.32    +77 50 28.6   146562 0.9953 102.7     18?  59.08 202.0   52 356  67  48
   2024 03 17 02:30  13 04 58.85    +77 41 15.4   146600 0.9953 102.9  e  18?  60.10 201.1   52 355  67  48
   2024 03 17 02:40  13 03 51.97    +77 31 49.3   146634 0.9953 103.1     18?  61.10 200.1   52 354  67  48
   2024 03 17 02:50  13 02 47.80    +77 22 10.3   146666 0.9953 103.2     18?  62.08 199.2   52 353  67  49
   2024 03 17 03:00  13 01 46.45    +77 12 18.9   146694 0.9953 103.4     18?  63.03 198.2   52 352  67  49
   2024 03 17 03:10  13 00 48.01    +77 02 15.1   146720 0.9953 103.6     18?  63.96 197.2   52 351  67  49
   2024 03 17 03:20  12 59 52.57    +76 51 59.3   146742 0.9953 103.7     18?  64.86 196.3   52 350  67  49
   2024 03 17 03:30  12 59 00.20    +76 41 31.8   146762 0.9953 103.9     18?  65.75 195.3   52 349  67  49
   2024 03 17 03:40  12 58 10.94    +76 30 52.9   146779 0.9953 104.1     18?  66.60 194.3   51 348  67  49
   2024 03 17 03:50  12 57 24.85    +76 20 03.0   146793 0.9953 104.3     18?  67.43 193.3   51 347  67  49
   2024 03 17 04:00  12 56 41.97    +76 09 02.5   146804 0.9953 104.5     18?  68.24 192.4   51 346  67  49
   2024 03 17 04:10  12 56 02.31    +75 57 51.7   146812 0.9953 104.7     18?  69.02 191.4   50 345  67  49
   2024 03 17 04:20  12 55 25.90    +75 46 31.1   146817 0.9953 104.8     18?  69.77 190.4   50 344  67  49
   2024 03 17 04:30  12 54 52.73    +75 35 01.0   146819 0.9953 105.0     18?  70.50 189.5   50 343  67  49
   2024 03 17 04:40  12 54 22.80    +75 23 21.9   146818 0.9953 105.2     18?  71.20 188.5   49 343  67  50
   2024 03 17 04:50  12 53 56.10    +75 11 34.2   146815 0.9953 105.4     18?  71.87 187.5   49 342  67  50
   2024 03 17 05:00  12 53 32.61    +74 59 38.4   146808 0.9953 105.6 A   18?  72.51 186.6   48 341  67  50
   2024 03 17 05:10  12 53 12.31    +74 47 34.9   146798 0.9954 105.8 A   18?  73.13 185.6   48 340  67  50
   2024 03 17 05:20  12 52 55.16    +74 35 24.2   146786 0.9954 106.0 A   18?  73.72 184.7   47 340  67  50
   2024 03 17 05:30  12 52 41.13    +74 23 06.7   146770 0.9954 106.2 N   18?  74.28 183.7   46 339  67  50
   2024 03 17 05:40  12 52 30.16    +74 10 42.9   146751 0.9954 106.4 N   18?  74.81 182.8   46 339  67  50
   2024 03 17 05:50  12 52 22.21    +73 58 13.4   146729 0.9954 106.6 N   18?  75.32 181.9   45 338  67  50
   2024 03 17 06:00  12 52 17.23    +73 45 38.4   146703 0.9954 106.8 C   18?  75.80 181.0   44 338  67  50
   2024 03 17 06:10  12 52 15.16    +73 32 58.6   146674 0.9954 107.0 C   18?  76.25 180.1   44 337  67  50
   ................
   2024 03 17 18:30  13 42 09.95    +60 23 16.4   126239 0.9956 116.8 Cm  18?  47.63 157.8   23  29  74  56
   2024 03 17 18:40  13 42 33.14    +60 15 55.6   125614 0.9956 116.9 Cm  18?  47.14 159.2   24  30  75  56
   2024 03 17 18:50  13 42 54.58    +60 08 35.0   124980 0.9956 117.0 Cm  18?  46.71 160.6   25  31  75  56
   2024 03 17 19:00  13 43 14.24    +60 01 14.1   124335 0.9956 117.1 Nm  18?  46.36 162.1   26  32  75  56
   2024 03 17 19:10  13 43 32.08    +59 53 52.4   123681 0.9956 117.2 Nm  18?  46.08 163.7   27  32  75  56
   2024 03 17 19:20  13 43 48.08    +59 46 29.1   123017 0.9956 117.3 Nm  18?  45.90 165.4   28  33  75  56
   2024 03 17 19:30  13 44 02.21    +59 39 03.9   122344 0.9956 117.3 Am  18?  45.80 167.2   29  34  75  56
   2024 03 17 19:40  13 44 14.45    +59 31 35.9   121661 0.9956 117.4 Am  18?  45.81 169.0   30  35  75  56
   2024 03 17 19:50  13 44 24.76    +59 24 04.5   120968 0.9956 117.5 Am  18?  45.93 170.8   31  36  75  56
   2024 03 17 20:00  13 44 33.14    +59 16 29.2   120267 0.9956 117.6  m  18?  46.15 172.7   32  37  75  56
   2024 03 17 20:10  13 44 39.56    +59 08 49.1   119556 0.9956 117.7  m  18?  46.50 174.6   33  38  75  56
   2024 03 17 20:20  13 44 44.01    +59 01 03.5   118836 0.9956 117.8  m  18?  46.97 176.5   34  38  75  56
   2024 03 17 20:30  13 44 46.47    +58 53 11.7   118107 0.9956 117.9  m  18?  47.56 178.4   35  39  75  56
   2024 03 17 20:40  13 44 46.95    +58 45 13.0   117369 0.9956 118.0  m  18?  48.28 180.3   36  40  75  56
   2024 03 17 20:50  13 44 45.43    +58 37 06.5   116623 0.9956 118.2  m  18?  49.14 182.1   38  41  75  56
   2024 03 17 21:00  13 44 41.90    +58 28 51.5   115868 0.9956 118.3  m  18?  50.12 183.8   39  41  75  56
   2024 03 17 21:10  13 44 36.38    +58 20 27.0   115104 0.9956 118.4  m  18?  51.23 185.5   40  42  75  57
   2024 03 17 21:20  13 44 28.85    +58 11 52.2   114333 0.9956 118.5  m  18?  52.48 187.2   41  42  75  57
   2024 03 17 21:30  13 44 19.34    +58 03 06.3   113553 0.9956 118.7  m  18?  53.85 188.7   43  43  76  57
   2024 03 17 21:40  13 44 07.85    +57 54 08.4   112765 0.9956 118.8  m  18?  55.36 190.1   44  44  76  57
   2024 03 17 21:50  13 43 54.40    +57 44 57.4   111969 0.9956 118.9  m  18?  56.98 191.5   45  44  76  57
   2024 03 17 22:00  13 43 39.00    +57 35 32.5   111165 0.9956 119.1  m  18?  58.73 192.7   47  45  76  57
   2024 03 17 22:10  13 43 21.67    +57 25 52.7   110354 0.9957 119.2  m  18?  60.60 193.9   48  45  76  57
   2024 03 17 22:20  13 43 02.45    +57 15 56.9   109535 0.9957 119.4  m  18?  62.59 194.9   49  45  76  57
   2024 03 17 22:30  13 42 41.37    +57 05 44.3   108709 0.9957 119.6  m  18?  64.70 195.9   51  46  76  57
   2024 03 17 22:40  13 42 18.45    +56 55 13.7   107875 0.9957 119.8  m  18?  66.91 196.7   52  46  76  57
   2024 03 17 22:50  13 41 53.74    +56 44 24.0   107035 0.9957 119.9  m  18?  69.24 197.5   54  46  76  57
   2024 03 17 23:00  13 41 27.29    +56 33 14.3   106187 0.9957 120.1  m  18?  71.68 198.2   55  46  76  57
   2024 03 17 23:10  13 40 59.13    +56 21 43.4   105332 0.9957 120.3  m  18?  74.22 198.7   56  46  76  57
   2024 03 17 23:20  13 40 29.32    +56 09 50.1   104471 0.9957 120.5  m  18?  76.86 199.2   58  46  76  57
   2024 03 17 23:30  13 39 57.91    +55 57 33.4   103603 0.9957 120.7  m  18?  79.61 199.7   59  46  76  57
   2024 03 17 23:40  13 39 24.96    +55 44 52.2   102728 0.9957 121.0  m  18?  82.46 200.0   61  46  76  57
   2024 03 17 23:50  13 38 50.54    +55 31 45.1   101846 0.9957 121.2  m  18?  85.42 200.3   62  45  76  57
   2024 03 18 00:00  13 38 14.72    +55 18 11.0   100959 0.9957 121.4  m  18?  88.47 200.4   64  45  76  57
   

Spektr-R Observatory (JPL-ID: -557)

   Date (UTC) HH:MM   RA              Dec         delta   r     elong SM  mag  '/hr    PA   alt  az moo ill
   ---- -- -- -----  -------------   -----------  ------ ------ ----- --  --- ------ ------ --- --- --- ---
   2024 03 04 00:00  10 25 58.00    +41 29 47.1   336531 0.9934 144.1     17?   7.54  39.9   88 290 115  45
   2024 03 04 00:10  10 26 02.26    +41 30 43.6   336412 0.9934 144.1     17?   7.28  42.0   86 280 115  45
   2024 03 04 00:20  10 26 06.57    +41 31 36.3   336299 0.9934 144.1     17?   7.05  44.4   84 278 115  45
   2024 03 04 00:30  10 26 10.93    +41 32 25.3   336191 0.9934 144.1     17?   6.85  47.1   83 277 115  45
   2024 03 04 00:40  10 26 15.39    +41 33 10.7   336090 0.9934 144.1     17?   6.69  50.0   81 277 116  45
   2024 03 04 00:50  10 26 19.95    +41 33 52.3   335993 0.9934 144.1     17?   6.57  53.2   79 277 116  45
   2024 03 04 01:00  10 26 24.64    +41 34 30.3   335903 0.9934 144.1     17?   6.48  56.6   77 278 116  45
   2024 03 04 01:10  10 26 29.48    +41 35 04.8   335818 0.9934 144.0     17?   6.45  60.1   75 278 116  45
   2024 03 04 01:20  10 26 34.49    +41 35 35.6   335738 0.9935 144.0     17?   6.46  63.7   73 279 116  45
   2024 03 04 01:30  10 26 39.69    +41 36 03.0   335663 0.9935 144.0     17?   6.52  67.3   71 279 116  45
   2024 03 04 01:40  10 26 45.10    +41 36 26.9   335594 0.9935 144.0     17?   6.63  70.9   69 280 116  45
   2024 03 04 01:50  10 26 50.75    +41 36 47.4   335530 0.9935 144.0     17?   6.79  74.3   68 281 116  44
   2024 03 04 02:00  10 26 56.64    +41 37 04.7   335470 0.9935 144.0     17?   6.99  77.5   66 282 116  44
   2024 03 04 02:10  10 27 02.80    +41 37 18.7   335416 0.9935 144.0     17?   7.23  80.5   64 282 116  44
   2024 03 04 02:20  10 27 09.25    +41 37 29.5   335365 0.9935 144.0  m  17?   7.52  83.3   62 283 116  44
   2024 03 04 02:30  10 27 16.00    +41 37 37.3   335320 0.9935 144.0  m  17?   7.84  85.8   60 284 116  44
   2024 03 04 02:40  10 27 23.08    +41 37 42.2   335278 0.9935 144.0  m  17?   8.19  88.0   59 285 116  44
   2024 03 04 02:50  10 27 30.49    +41 37 44.2   335240 0.9935 144.0  m  17?   8.58  90.0   57 285 116  44
   2024 03 04 03:00  10 27 38.26    +41 37 43.4   335207 0.9935 144.0  m  17?   8.99  91.7   55 286 116  44
   2024 03 04 03:10  10 27 46.40    +41 37 40.0   335176 0.9935 144.0  m  17?   9.42  93.2   53 287 116  44
   2024 03 04 03:20  10 27 54.92    +41 37 34.1   335150 0.9935 144.0  m  17?   9.87  94.5   51 288 117  44
   2024 03 04 03:30  10 28 03.84    +41 37 25.8   335126 0.9935 144.0  m  17?  10.34  95.6   50 289 117  44
   2024 03 04 03:40  10 28 13.17    +41 37 15.2   335105 0.9935 144.0  m  17?  10.83  96.5   48 290 117  44
   2024 03 04 03:50  10 28 22.92    +41 37 02.5   335087 0.9935 144.0  m  17?  11.34  97.3   46 291 117  44
   2024 03 04 04:00  10 28 33.11    +41 36 47.8   335072 0.9935 144.0  m  17?  11.85  97.9   44 292 117  44
   2024 03 04 04:10  10 28 43.74    +41 36 31.2   335058 0.9935 144.1  m  17?  12.38  98.4   43 292 117  44
   2024 03 04 04:20  10 28 54.82    +41 36 12.9   335047 0.9935 144.1  m  17?  12.91  98.8   41 293 117  44
   2024 03 04 04:30  10 29 06.37    +41 35 52.9   335037 0.9935 144.1  m  17?  13.45  99.1   39 294 117  44
   2024 03 04 04:40  10 29 18.39    +41 35 31.6   335029 0.9935 144.1  m  17?  14.00  99.3   38 295 117  43
   2024 03 04 04:50  10 29 30.89    +41 35 08.9   335022 0.9935 144.1  m  17?  14.56  99.4   36 296 117  43
   2024 03 04 05:00  10 29 43.87    +41 34 45.0   335016 0.9935 144.1  m  17?  15.12  99.5   34 297 117  43
   2024 03 04 05:10  10 29 57.34    +41 34 20.2   335010 0.9935 144.1  m  17?  15.68  99.5   33 298 117  43
   2024 03 04 05:20  10 30 11.31    +41 33 54.5   335005 0.9935 144.1 Am  17?  16.24  99.5   31 299 117  43
   2024 03 04 05:30  10 30 25.77    +41 33 28.1   334999 0.9935 144.1 Am  17?  16.81  99.3   29 300 117  43
   2024 03 04 05:40  10 30 40.74    +41 33 01.1   334994 0.9935 144.2 Am  17?  17.37  99.2   28 301 117  43
   2024 03 04 05:50  10 30 56.20    +41 32 33.8   334988 0.9935 144.2 Nm  17?  17.94  99.0   26 302 117  43
   2024 03 04 06:00  10 31 12.17    +41 32 06.2   334981 0.9935 144.2 Nm  17?  18.50  98.8   25 304 117  43
   2024 03 04 06:10  10 31 28.65    +41 31 38.5   334973 0.9935 144.2 Nm  17?  19.07  98.5   23 305 117  43
   2024 03 04 06:20  10 31 45.63    +41 31 10.8   334964 0.9935 144.2 Cm  17?  19.62  98.3   22 306 117  43
   2024 03 04 06:30  10 32 03.10    +41 30 43.4   334953 0.9935 144.2 Cm  17?  20.18  98.0   20 307 117  43
   ................
   2024 03 04 18:20  11 01 35.30    +42 36 30.8   320324 0.9935 143.5 C   17?  25.05  56.9   25  54 117  38
   2024 03 04 18:30  11 01 53.95    +42 38 48.4   319936 0.9935 143.5 C   17?  24.61  56.1   26  55 117  38
   2024 03 04 18:40  11 02 12.11    +42 41 06.0   319547 0.9935 143.4 N   17?  24.17  55.4   28  56 117  38
   2024 03 04 18:50  11 02 29.81    +42 43 23.5   319158 0.9935 143.4 N   17?  23.72  54.7   30  57 117  38
   2024 03 04 19:00  11 02 47.02    +42 45 40.7   318768 0.9935 143.3 N   17?  23.26  54.0   31  58 117  38
   2024 03 04 19:10  11 03 03.76    +42 47 57.5   318379 0.9935 143.3 A   17?  22.80  53.4   33  59 117  37
   2024 03 04 19:20  11 03 20.03    +42 50 13.8   317990 0.9935 143.3 A   17?  22.34  52.7   34  60 117  37
   2024 03 04 19:30  11 03 35.82    +42 52 29.2   317601 0.9935 143.2 A   17?  21.87  52.0   36  61 117  37
   2024 03 04 19:40  11 03 51.15    +42 54 43.7   317214 0.9935 143.2 A   17?  21.39  51.4   38  62 117  37
   2024 03 04 19:50  11 04 06.00    +42 56 57.2   316827 0.9935 143.1     17?  20.92  50.7   39  63 118  37
   2024 03 04 20:00  11 04 20.40    +42 59 09.4   316442 0.9935 143.1     17?  20.44  50.1   41  64 118  37
   2024 03 04 20:10  11 04 34.34    +43 01 20.1   316058 0.9935 143.1     17?  19.96  49.5   43  65 118  37
   2024 03 04 20:20  11 04 47.83    +43 03 29.3   315676 0.9935 143.0     17?  19.48  48.9   44  65 118  37
   2024 03 04 20:30  11 05 00.89    +43 05 36.8   315296 0.9935 143.0     17?  18.99  48.4   46  66 118  37
   2024 03 04 20:40  11 05 13.51    +43 07 42.4   314919 0.9935 143.0     17?  18.51  47.9   48  67 118  37
   2024 03 04 20:50  11 05 25.71    +43 09 45.9   314544 0.9935 142.9     17?  18.02  47.4   50  68 118  37
   2024 03 04 21:00  11 05 37.50    +43 11 47.3   314171 0.9935 142.9     17?  17.54  46.9   51  68 118  36
   2024 03 04 21:10  11 05 48.88    +43 13 46.3   313802 0.9935 142.8     17?  17.06  46.5   53  69 118  36
   2024 03 04 21:20  11 05 59.89    +43 15 42.8   313436 0.9935 142.8     17?  16.57  46.1   55  70 118  36
   2024 03 04 21:30  11 06 10.51    +43 17 36.6   313073 0.9935 142.8     17?  16.09  45.8   57  70 118  36
   2024 03 04 21:40  11 06 20.78    +43 19 27.7   312714 0.9935 142.7     17?  15.62  45.6   58  71 118  36
   2024 03 04 21:50  11 06 30.71    +43 21 15.9   312359 0.9935 142.7     17?  15.14  45.4   60  71 118  36
   2024 03 04 22:00  11 06 40.30    +43 23 01.1   312008 0.9935 142.7     17?  14.68  45.3   62  72 118  36
   2024 03 04 22:10  11 06 49.59    +43 24 43.1   311660 0.9935 142.6     17?  14.21  45.3   64  72 119  36
   2024 03 04 22:20  11 06 58.58    +43 26 21.8   311317 0.9935 142.6     17?  13.75  45.3   65  73 119  36
   2024 03 04 22:30  11 07 07.29    +43 27 57.1   310979 0.9935 142.6     17?  13.30  45.5   67  73 119  36
   2024 03 04 22:40  11 07 15.75    +43 29 29.0   310645 0.9935 142.5     17?  12.86  45.8   69  73 119  35
   2024 03 04 22:50  11 07 23.97    +43 30 57.2   310315 0.9935 142.5     17?  12.43  46.2   71  73 119  35
   2024 03 04 23:00  11 07 31.97    +43 32 21.7   309991 0.9935 142.5     17?  12.01  46.7   73  73 119  35
   2024 03 04 23:10  11 07 39.78    +43 33 42.5   309671 0.9935 142.5     17?  11.60  47.4   74  73 119  35
   2024 03 04 23:20  11 07 47.42    +43 34 59.4   309356 0.9935 142.4     17?  11.20  48.2   76  73 119  35
   2024 03 04 23:30  11 07 54.90    +43 36 12.4   309047 0.9935 142.4     17?  10.82  49.2   78  72 119  35
   2024 03 04 23:40  11 08 02.25    +43 37 21.3   308742 0.9935 142.4     17?  10.46  50.4   80  70 119  35
   2024 03 04 23:50  11 08 09.49    +43 38 26.2   308443 0.9935 142.4     17?  10.12  51.8   81  67 119  35
   2024 03 05 00:00  11 08 16.65    +43 39 27.0   308149 0.9935 142.4     17?   9.81  53.4   83  62 119  35
   2024 03 05 00:10  11 08 23.75    +43 40 23.6   307860 0.9935 142.3     17?   9.52  55.3   85  54 120  35
   2024 03 05 00:20  11 08 30.82    +43 41 16.1   307577 0.9935 142.3     17?   9.27  57.3   86  37 120  35
   2024 03 05 00:30  11 08 37.87    +43 42 04.3   307298 0.9935 142.3     17?   9.04  59.5   87   5 120  35
   2024 03 05 00:40  11 08 44.93    +43 42 48.3   307026 0.9935 142.3  t  17?   8.86  62.0   86 330 120  34
   2024 03 05 00:50  11 08 52.03    +43 43 28.0   306758 0.9935 142.3     17?   8.71  64.6   85 309 120  34
   2024 03 05 01:00  11 08 59.19    +43 44 03.5   306496 0.9935 142.3     17?   8.61  67.4   84 299 120  34
   2024 03 05 01:10  11 09 06.43    +43 44 34.8   306239 0.9935 142.2     17?   8.55  70.3   82 294 120  34
   2024 03 05 01:20  11 09 13.78    +43 45 01.8   305987 0.9935 142.2     17?   8.55  73.2   80 291 120  34
   2024 03 05 01:30  11 09 21.27    +43 45 24.6   305741 0.9935 142.2     17?   8.59  76.2   78 289 120  34
   2024 03 05 01:40  11 09 28.91    +43 45 43.3   305499 0.9935 142.2     17?   8.68  79.2   77 287 120  34
   2024 03 05 01:50  11 09 36.73    +43 45 57.7   305263 0.9935 142.2     17?   8.81  82.1   75 287 120  34
   2024 03 05 02:00  11 09 44.76    +43 46 08.2   305031 0.9935 142.2     16?   9.00  84.8   73 286 120  34
   2024 03 05 02:10  11 09 53.02    +43 46 14.5   304805 0.9935 142.2     16?   9.23  87.4   71 286 120  34
   2024 03 05 02:20  11 10 01.52    +43 46 16.9   304583 0.9935 142.2     16?   9.51  89.9   69 286 120  34
   2024 03 05 02:30  11 10 10.30    +43 46 15.4   304365 0.9935 142.2     16?   9.82  92.2   68 287 120  34
   2024 03 05 02:40  11 10 19.38    +43 46 10.0   304152 0.9935 142.2     16?  10.18  94.2   66 287 120  34
   2024 03 05 02:50  11 10 28.77    +43 46 00.9   303944 0.9935 142.2     16?  10.56  96.1   64 287 121  34
   2024 03 05 03:00  11 10 38.50    +43 45 48.2   303739 0.9935 142.2     16?  10.98  97.7   62 288 121  34
   2024 03 05 03:10  11 10 48.59    +43 45 31.9   303538 0.9935 142.2     16?  11.43  99.2   61 288 121  33
   2024 03 05 03:20  11 10 59.06    +43 45 12.1   303342 0.9935 142.2     16?  11.90 100.4   59 289 121  33
   2024 03 05 03:30  11 11 09.92    +43 44 49.1   303148 0.9935 142.2  m  16?  12.40 101.6   57 289 121  33
   2024 03 05 03:40  11 11 21.20    +43 44 22.7   302959 0.9935 142.2  m  16?  12.92 102.5   55 290 121  33
   2024 03 05 03:50  11 11 32.91    +43 43 53.3   302772 0.9935 142.2  m  16?  13.45 103.3   54 291 121  33
   2024 03 05 04:00  11 11 45.07    +43 43 20.9   302589 0.9935 142.2  m  16?  14.01 104.0   52 291 121  33
   2024 03 05 04:10  11 11 57.69    +43 42 45.7   302408 0.9935 142.2  m  16?  14.57 104.6   50 292 121  33
   2024 03 05 04:20  11 12 10.80    +43 42 07.8   302230 0.9935 142.2  m  16?  15.16 105.1   48 293 121  33
   2024 03 05 04:30  11 12 24.40    +43 41 27.3   302054 0.9935 142.2  m  16?  15.75 105.4   47 293 121  33
   2024 03 05 04:40  11 12 38.51    +43 40 44.4   301880 0.9935 142.2  m  16?  16.35 105.7   45 294 121  33
   2024 03 05 04:50  11 12 53.13    +43 39 59.2   301709 0.9935 142.2  m  16?  16.97 105.9   43 295 121  33
   2024 03 05 05:00  11 13 08.30    +43 39 12.0   301539 0.9935 142.2  m  16?  17.59 106.0   42 296 121  33
   2024 03 05 05:10  11 13 24.00    +43 38 22.7   301370 0.9935 142.2  m  16?  18.21 106.0   40 297 121  33
   2024 03 05 05:20  11 13 40.26    +43 37 31.7   301203 0.9935 142.3 Am  16?  18.85 106.0   38 298 121  33
   2024 03 05 05:30  11 13 57.07    +43 36 39.1   301036 0.9935 142.3 Am  16?  19.48 105.9   37 298 121  33
   2024 03 05 05:40  11 14 14.46    +43 35 45.0   300870 0.9935 142.3 Am  16?  20.13 105.8   35 299 121  33
   2024 03 05 05:50  11 14 32.42    +43 34 49.6   300704 0.9935 142.3 Nm  16?  20.77 105.7   34 300 121  33
   2024 03 05 06:00  11 14 50.97    +43 33 53.0   300539 0.9935 142.3 Nm  16?  21.41 105.5   32 301 121  33
   2024 03 05 06:10  11 15 10.09    +43 32 55.6   300373 0.9935 142.3 Nm  16?  22.06 105.2   30 302 121  32
   2024 03 05 06:20  11 15 29.81    +43 31 57.3   300207 0.9935 142.3 Cm  16?  22.71 105.0   29 303 121  32
   2024 03 05 06:30  11 15 50.13    +43 30 58.4   300041 0.9935 142.3 Cm  16?  23.35 104.7   27 304 121  32
   ................
   2024 03 05 18:20  11 54 13.09    +43 54 35.1   275523 0.9935 140.4 C   16?  34.57  69.6   19  47 119  28
   2024 03 05 18:30  11 54 42.58    +43 56 36.3   274976 0.9935 140.3 C   16?  34.11  69.1   20  49 119  28
   2024 03 05 18:40  11 55 11.60    +43 58 38.4   274427 0.9935 140.3 N   16?  33.64  68.7   21  50 119  28
   2024 03 05 18:50  11 55 40.12    +44 00 41.2   273875 0.9935 140.2 N   16?  33.15  68.2   23  51 119  27
   2024 03 05 19:00  11 56 08.15    +44 02 44.6   273322 0.9935 140.1 N   16?  32.66  67.8   24  52 119  27
   2024 03 05 19:10  11 56 35.68    +44 04 48.5   272767 0.9935 140.1 A   16?  32.15  67.3   26  53 119  27
   2024 03 05 19:20  11 57 02.70    +44 06 52.5   272211 0.9935 140.0 A   16?  31.64  66.9   27  54 119  27
   2024 03 05 19:30  11 57 29.21    +44 08 56.5   271653 0.9935 139.9 A   16?  31.11  66.5   29  55 119  27
   2024 03 05 19:40  11 57 55.21    +44 11 00.4   271095 0.9935 139.9 A   16?  30.58  66.1   30  56 119  27
   2024 03 05 19:50  11 58 20.69    +44 13 03.9   270536 0.9935 139.8     16?  30.05  65.8   32  57 119  27
   2024 03 05 20:00  11 58 45.65    +44 15 06.8   269977 0.9935 139.8     16?  29.50  65.4   33  58 119  27
   2024 03 05 20:10  11 59 10.10    +44 17 09.0   269417 0.9935 139.7     16?  28.95  65.1   35  58 119  27
   2024 03 05 20:20  11 59 34.04    +44 19 10.3   268858 0.9935 139.7     16?  28.40  64.8   36  59 119  27
   2024 03 05 20:30  11 59 57.46    +44 21 10.5   268299 0.9935 139.6     16?  27.84  64.6   38  60 119  27
   2024 03 05 20:40  12 00 20.37    +44 23 09.3   267740 0.9934 139.5     16?  27.27  64.3   39  61 119  26
   2024 03 05 20:50  12 00 42.78    +44 25 06.6   267182 0.9934 139.5     16?  26.71  64.1   41  62 119  26
   2024 03 05 21:00  12 01 04.68    +44 27 02.2   266626 0.9934 139.4     16?  26.14  64.0   43  62 119  26
   2024 03 05 21:10  12 01 26.10    +44 28 55.9   266071 0.9934 139.4     16?  25.58  63.8   44  63 119  26
   2024 03 05 21:20  12 01 47.03    +44 30 47.5   265517 0.9934 139.3     16?  25.01  63.8   46  64 119  26
   2024 03 05 21:30  12 02 07.49    +44 32 36.8   264965 0.9934 139.3     16?  24.44  63.7   48  65 119  26
   2024 03 05 21:40  12 02 27.48    +44 34 23.7   264415 0.9934 139.2     16?  23.88  63.8   49  65 119  26
   2024 03 05 21:50  12 02 47.01    +44 36 07.9   263867 0.9934 139.2     16?  23.32  63.8   51  66 119  26
   2024 03 05 22:00  12 03 06.10    +44 37 49.2   263321 0.9934 139.1     16?  22.77  64.0   53  67 119  26
   2024 03 05 22:10  12 03 24.77    +44 39 27.5   262778 0.9934 139.1     16?  22.22  64.2   54  67 119  26
   2024 03 05 22:20  12 03 43.02    +44 41 02.6   262238 0.9934 139.0     16?  21.68  64.4   56  68 119  26
   2024 03 05 22:30  12 04 00.87    +44 42 34.3   261701 0.9934 139.0     16?  21.15  64.8   58  68 119  25
   2024 03 05 22:40  12 04 18.34    +44 44 02.4   261166 0.9934 138.9     16?  20.63  65.2   60  69 119  25
   2024 03 05 22:50  12 04 35.45    +44 45 26.9   260635 0.9934 138.9     16?  20.13  65.7   61  69 120  25
   2024 03 05 23:00  12 04 52.21    +44 46 47.5   260108 0.9934 138.9     16?  19.63  66.3   63  69 120  25
   2024 03 05 23:10  12 05 08.65    +44 48 04.0   259584 0.9934 138.8     16?  19.16  67.1   65  69 120  25
   2024 03 05 23:20  12 05 24.78    +44 49 16.4   259064 0.9934 138.8     16?  18.71  67.9   67  70 120  25
   2024 03 05 23:30  12 05 40.63    +44 50 24.5   258547 0.9934 138.8     16?  18.27  68.8   68  70 120  25
   2024 03 05 23:40  12 05 56.22    +44 51 28.2   258035 0.9934 138.7     16?  17.86  69.8   70  69 120  25
   2024 03 05 23:50  12 06 11.57    +44 52 27.2   257526 0.9934 138.7     16?  17.48  71.0   72  69 120  25
   2024 03 06 00:00  12 06 26.71    +44 53 21.6   257022 0.9934 138.7     16?  17.12  72.3   73  68 120  25
   2024 03 06 00:10  12 06 41.66    +44 54 11.1   256522 0.9934 138.6     16?  16.80  73.6   75  68 120  25
   2024 03 06 00:20  12 06 56.44    +44 54 55.8   256026 0.9934 138.6     16?  16.51  75.1   77  66 120  25
   2024 03 06 00:30  12 07 11.09    +44 55 35.4   255535 0.9934 138.6     16?  16.26  76.7   79  64 120  24
   2024 03 06 00:40  12 07 25.63    +44 56 10.0   255048 0.9934 138.5     16?  16.05  78.4   80  61 120  24
   2024 03 06 00:50  12 07 40.09    +44 56 39.3   254566 0.9934 138.5     16?  15.88  80.2   82  56 120  24
   2024 03 06 01:00  12 07 54.49    +44 57 03.5   254088 0.9934 138.5     16?  15.76  82.1   83  48 120  24
   2024 03 06 01:10  12 08 08.87    +44 57 22.3   253615 0.9934 138.5     16?  15.68  84.0   85  36 120  24
   2024 03 06 01:20  12 08 23.25    +44 57 35.7   253147 0.9934 138.4     16?  15.65  86.0   85  17 120  24
   2024 03 06 01:30  12 08 37.66    +44 57 43.8   252683 0.9934 138.4  t  16?  15.68  88.0   86 352 120  24
   2024 03 06 01:40  12 08 52.14    +44 57 46.4   252224 0.9934 138.4     16?  15.75  89.9   85 330 120  24
   2024 03 06 01:50  12 09 06.70    +44 57 43.6   251769 0.9934 138.4     16?  15.87  91.9   84 315 120  24
   2024 03 06 02:00  12 09 21.38    +44 57 35.3   251319 0.9934 138.4     16?  16.04  93.8   82 306 120  24
   2024 03 06 02:10  12 09 36.22    +44 57 21.6   250873 0.9934 138.4     16?  16.27  95.7   81 300 120  24
   2024 03 06 02:20  12 09 51.23    +44 57 02.3   250432 0.9934 138.3     16?  16.54  97.5   79 296 120  24
   2024 03 06 02:30  12 10 06.45    +44 56 37.6   249996 0.9934 138.3     16?  16.85  99.3   78 294 121  24
   2024 03 06 02:40  12 10 21.91    +44 56 07.5   249563 0.9934 138.3     16?  17.22 100.8   76 292 121  24
   2024 03 06 02:50  12 10 37.63    +44 55 32.0   249135 0.9934 138.3     16?  17.62 102.4   74 291 121  23
   2024 03 06 03:00  12 10 53.66    +44 54 51.2   248711 0.9934 138.3     16?  18.07 103.8   72 290 121  23
   2024 03 06 03:10  12 11 10.00    +44 54 05.0   248291 0.9934 138.3     16?  18.56 105.1   71 290 121  23
   2024 03 06 03:20  12 11 26.70    +44 53 13.7   247876 0.9934 138.3     16?  19.08 106.3   69 290 121  23
   2024 03 06 03:30  12 11 43.78    +44 52 17.2   247464 0.9934 138.3     16?  19.63 107.4   67 290 121  23
   2024 03 06 03:40  12 12 01.27    +44 51 15.6   247055 0.9934 138.3     16?  20.22 108.3   66 290 121  23
   2024 03 06 03:50  12 12 19.19    +44 50 09.0   246651 0.9934 138.3     16?  20.84 109.2   64 290 121  23
   2024 03 06 04:00  12 12 37.58    +44 48 57.5   246249 0.9934 138.3     16?  21.48 110.0   62 290 121  23
   2024 03 06 04:10  12 12 56.45    +44 47 41.3   245851 0.9934 138.3     16?  22.15 110.6   60 290 121  23
   2024 03 06 04:20  12 13 15.83    +44 46 20.4   245456 0.9934 138.2  m  16?  22.85 111.2   59 291 121  23
   2024 03 06 04:30  12 13 35.74    +44 44 54.9   245065 0.9934 138.2  m  16?  23.56 111.7   57 291 121  23
   2024 03 06 04:40  12 13 56.21    +44 43 25.0   244675 0.9934 138.2  m  16?  24.30 112.1   55 292 121  23
   2024 03 06 04:50  12 14 17.26    +44 41 50.9   244289 0.9934 138.2  m  16?  25.05 112.5   54 292 121  23
   2024 03 06 05:00  12 14 38.92    +44 40 12.6   243904 0.9934 138.2  m  16?  25.82 112.7   52 293 121  23
   2024 03 06 05:10  12 15 01.19    +44 38 30.3   243522 0.9934 138.2 Am  16?  26.61 112.9   50 293 121  23
   2024 03 06 05:20  12 15 24.11    +44 36 44.2   243142 0.9934 138.2 Am  16?  27.41 113.1   49 294 121  23
   2024 03 06 05:30  12 15 47.68    +44 34 54.4   242764 0.9934 138.2 Am  16?  28.22 113.2   47 295 121  23
   2024 03 06 05:40  12 16 11.93    +44 33 01.1   242387 0.9934 138.2 Am  16?  29.04 113.2   45 295 121  23
   2024 03 06 05:50  12 16 36.88    +44 31 04.5   242012 0.9934 138.2 Nm  16?  29.87 113.2   44 296 121  22
   2024 03 06 06:00  12 17 02.53    +44 29 04.7   241637 0.9934 138.2 Nm  16?  30.71 113.1   42 297 121  22
   2024 03 06 06:10  12 17 28.90    +44 27 01.9   241264 0.9934 138.2 Nm  16?  31.56 113.1   40 298 121  22
   2024 03 06 06:20  12 17 56.02    +44 24 56.3   240891 0.9934 138.2 Cm  16?  32.42 112.9   39 299 121  22
   2024 03 06 06:30  12 18 23.87    +44 22 48.1   240518 0.9934 138.2 Cm  16?  33.28 112.8   37 299 121  22
   ................
   2024 03 06 18:20  13 17 31.74    +42 37 20.1   202814 0.9932 133.2 C   15?  64.30  89.3    7  38 113  18
   2024 03 06 18:30  13 18 29.22    +42 37 27.9   202051 0.9932 133.1 C   15?  64.00  89.2    8  39 113  18
   2024 03 06 18:40  13 19 26.41    +42 37 37.3   201283 0.9932 132.9 N   15?  63.67  89.1   10  41 113  18
   2024 03 06 18:50  13 20 23.29    +42 37 47.9   200510 0.9932 132.8 N   15?  63.33  89.0   11  42 113  18
   2024 03 06 19:00  13 21 19.84    +42 37 59.7   199733 0.9932 132.7 N   15?  62.97  88.9   12  43 113  18
   2024 03 06 19:10  13 22 16.06    +42 38 12.5   198951 0.9932 132.6 N   15?  62.59  88.8   13  44 113  18
   2024 03 06 19:20  13 23 11.92    +42 38 25.9   198165 0.9932 132.4 A   15?  62.19  88.7   14  45 113  18
   2024 03 06 19:30  13 24 07.42    +42 38 40.0   197375 0.9932 132.3 A   15?  61.78  88.7   16  47 113  18
   2024 03 06 19:40  13 25 02.53    +42 38 54.3   196580 0.9932 132.2 A   15?  61.36  88.6   17  48 113  18
   2024 03 06 19:50  13 25 57.25    +42 39 08.8   195783 0.9932 132.0     15?  60.92  88.6   18  49 113  18
   2024 03 06 20:00  13 26 51.57    +42 39 23.2   194981 0.9932 131.9     15?  60.47  88.6   19  50 112  17
   2024 03 06 20:10  13 27 45.47    +42 39 37.2   194177 0.9932 131.8     15?  60.01  88.7   21  51 112  17
   2024 03 06 20:20  13 28 38.94    +42 39 50.7   193370 0.9932 131.7     15?  59.54  88.7   22  52 112  17
   2024 03 06 20:30  13 29 31.98    +42 40 03.4   192559 0.9932 131.5     15?  59.06  88.8   24  53 112  17
   2024 03 06 20:40  13 30 24.59    +42 40 15.0   191746 0.9932 131.4     15?  58.57  88.9   25  54 112  17
   2024 03 06 20:50  13 31 16.74    +42 40 25.4   190931 0.9932 131.3     15?  58.08  89.0   26  55 112  17
   2024 03 06 21:00  13 32 08.44    +42 40 34.2   190114 0.9932 131.2     15?  57.58  89.2   28  56 112  17
   2024 03 06 21:10  13 32 59.69    +42 40 41.2   189294 0.9932 131.1     15?  57.08  89.4   29  57 112  17
   2024 03 06 21:20  13 33 50.48    +42 40 46.1   188473 0.9932 130.9     15?  56.58  89.6   31  58 112  17
   2024 03 06 21:30  13 34 40.80    +42 40 48.7   187650 0.9932 130.8     15?  56.07  89.9   32  59 112  17
   2024 03 06 21:40  13 35 30.66    +42 40 48.7   186826 0.9932 130.7     15?  55.57  90.1   34  60 112  17
   2024 03 06 21:50  13 36 20.06    +42 40 45.8   186001 0.9932 130.6     15?  55.07  90.5   35  61 112  17
   2024 03 06 22:00  13 37 09.00    +42 40 39.7   185175 0.9932 130.5     15?  54.58  90.8   37  62 112  16
   2024 03 06 22:10  13 37 57.49    +42 40 30.2   184349 0.9932 130.4     15?  54.10  91.2   38  63 112  16
   2024 03 06 22:20  13 38 45.52    +42 40 17.0   183521 0.9932 130.2     15?  53.62  91.6   40  64 112  16
   2024 03 06 22:30  13 39 33.10    +42 39 59.8   182694 0.9932 130.1     15?  53.16  92.1   41  64 112  16
   2024 03 06 22:40  13 40 20.25    +42 39 38.3   181866 0.9932 130.0     15?  52.71  92.6   43  65 112  16
   2024 03 06 22:50  13 41 06.96    +42 39 12.2   181039 0.9932 129.9     15?  52.28  93.1   45  66 111  16
   2024 03 06 23:00  13 41 53.26    +42 38 41.2   180212 0.9932 129.8     15?  51.87  93.7   46  67 111  16
   2024 03 06 23:10  13 42 39.14    +42 38 05.1   179385 0.9932 129.7     15?  51.48  94.3   48  68 111  16
   2024 03 06 23:20  13 43 24.63    +42 37 23.5   178559 0.9932 129.6     15?  51.11  95.0   49  68 111  16
   2024 03 06 23:30  13 44 09.74    +42 36 36.2   177734 0.9931 129.5     15?  50.78  95.7   51  69 111  16
   2024 03 06 23:40  13 44 54.47    +42 35 42.8   176910 0.9931 129.4     15?  50.47  96.5   53  70 111  16
   2024 03 06 23:50  13 45 38.86    +42 34 43.1   176087 0.9931 129.3     15?  50.19  97.2   54  71 111  16
   2024 03 07 00:00  13 46 22.92    +42 33 36.8   175265 0.9931 129.2     15?  49.96  98.1   56  72 111  16
   2024 03 07 00:10  13 47 06.67    +42 32 23.6   174445 0.9931 129.1     15?  49.76  98.9   58  72 111  15
   2024 03 07 00:20  13 47 50.12    +42 31 03.2   173627 0.9931 129.0     15?  49.60  99.8   59  73 111  15
   2024 03 07 00:30  13 48 33.31    +42 29 35.3   172810 0.9931 128.9     15?  49.48 100.7   61  74 111  15
   2024 03 07 00:40  13 49 16.26    +42 27 59.7   171995 0.9931 128.8     15?  49.42 101.6   63  74 111  15
   2024 03 07 00:50  13 49 58.99    +42 26 16.1   171182 0.9931 128.7     15?  49.40 102.6   64  75 111  15
   2024 03 07 01:00  13 50 41.53    +42 24 24.3   170372 0.9931 128.7     15?  49.43 103.6   66  76 111  15
   2024 03 07 01:10  13 51 23.90    +42 22 23.9   169563 0.9931 128.6     15?  49.52 104.6   68  76 111  15
   2024 03 07 01:20  13 52 06.15    +42 20 14.7   168757 0.9931 128.5     15?  49.66 105.6   70  77 111  15
   2024 03 07 01:30  13 52 48.29    +42 17 56.4   167954 0.9931 128.4     15?  49.87 106.7   71  77 111  15
   2024 03 07 01:40  13 53 30.36    +42 15 28.9   167153 0.9931 128.3     15?  50.13 107.7   73  78 111  15
   2024 03 07 01:50  13 54 12.39    +42 12 51.8   166354 0.9931 128.2     15?  50.45 108.7   75  78 111  15
   2024 03 07 02:00  13 54 54.43    +42 10 05.0   165559 0.9931 128.2     15?  50.84 109.8   77  79 110  15
   2024 03 07 02:10  13 55 36.49    +42 07 08.1   164766 0.9931 128.1     15?  51.28 110.8   78  79 110  15
   2024 03 07 02:20  13 56 18.62    +42 04 01.1   163976 0.9931 128.0     15?  51.80 111.8   80  79 110  15
   2024 03 07 02:30  13 57 00.86    +42 00 43.7   163188 0.9931 127.9     15?  52.37 112.8   82  79 110  15
   2024 03 07 02:40  13 57 43.25    +41 57 15.6   162404 0.9931 127.9     15?  53.02 113.8   83  78 110  14
   2024 03 07 02:50  13 58 25.81    +41 53 36.8   161623 0.9931 127.8     15?  53.72 114.7   85  76 110  14
   2024 03 07 03:00  13 59 08.60    +41 49 46.9   160844 0.9931 127.7     15?  54.50 115.6   87  70 110  14
   2024 03 07 03:10  13 59 51.66    +41 45 45.9   160069 0.9931 127.6     15?  55.33 116.5   88  43 110  14
   2024 03 07 03:20  14 00 35.01    +41 41 33.6   159296 0.9931 127.6  t  15?  56.23 117.4   88 304 110  14
   2024 03 07 03:30  14 01 18.72    +41 37 09.8   158526 0.9931 127.5     15?  57.20 118.2   87 283 110  14
   2024 03 07 03:40  14 02 02.81    +41 32 34.3   157760 0.9931 127.4     15?  58.23 118.9   85 278 110  14
   2024 03 07 03:50  14 02 47.33    +41 27 47.1   156996 0.9931 127.3     15?  59.31 119.7   83 276 110  14
   2024 03 07 04:00  14 03 32.33    +41 22 48.0   156235 0.9931 127.3     15?  60.46 120.4   81 276 110  14
   2024 03 07 04:10  14 04 17.84    +41 17 36.9   155477 0.9931 127.2     15?  61.67 121.0   80 275 110  14
   2024 03 07 04:20  14 05 03.91    +41 12 13.7   154721 0.9931 127.1     15?  62.94 121.6   78 276 109  14
   2024 03 07 04:30  14 05 50.58    +41 06 38.3   153968 0.9931 127.0     15?  64.26 122.2   76 276 109  14
   2024 03 07 04:40  14 06 37.90    +41 00 50.6   153218 0.9930 126.9     15?  65.64 122.7   74 276 109  14
   2024 03 07 04:50  14 07 25.90    +40 54 50.5   152471 0.9930 126.9     15?  67.07 123.2   73 277 109  14
   2024 03 07 05:00  14 08 14.64    +40 48 37.9   151726 0.9930 126.8     15?  68.56 123.6   71 277 109  14
   2024 03 07 05:10  14 09 04.15    +40 42 12.9   150983 0.9930 126.7 Am  15?  70.09 124.0   69 278 109  14
   2024 03 07 05:20  14 09 54.48    +40 35 35.2   150242 0.9930 126.6 Am  15?  71.68 124.4   68 278 109  14
   2024 03 07 05:30  14 10 45.67    +40 28 45.0   149504 0.9930 126.5 Am  15?  73.32 124.7   66 279 109  14
   2024 03 07 05:40  14 11 37.76    +40 21 42.1   148768 0.9930 126.5 Nm  14?  75.01 125.0   64 279 108  14
   2024 03 07 05:50  14 12 30.79    +40 14 26.6   148033 0.9930 126.4 Nm  14?  76.74 125.2   62 280 108  14
   2024 03 07 06:00  14 13 24.80    +40 06 58.4   147300 0.9930 126.3 Nm  14?  78.52 125.5   61 281 108  13
   2024 03 07 06:10  14 14 19.84    +39 59 17.4   146569 0.9930 126.2 Nm  14?  80.34 125.7   59 281 108  13
   2024 03 07 06:20  14 15 15.93    +39 51 23.7   145840 0.9930 126.1 Cm  14?  82.21 125.8   57 282 108  13
   2024 03 07 06:30  14 16 13.13    +39 43 17.3   145112 0.9930 126.0 Cm  14?  84.12 126.0   55 282 108  13
   ................
   2024 03 08 18:20  06 33 40.61    +02 32 15.2   123938 0.9931 109.2 C   14? 116.57  31.6   47 149 128   4
   2024 03 08 18:30  06 34 20.07    +02 48 37.8   124773 0.9931 109.4 C   14? 114.67  31.4   48 152 129   4
   2024 03 08 18:40  06 34 58.71    +03 04 46.1   125612 0.9931 109.6 C   14? 112.82  31.3   49 155 129   4
   2024 03 08 18:50  06 35 36.59    +03 20 40.4   126455 0.9931 109.8 N   14? 111.03  31.2   50 158 129   4
   2024 03 08 19:00  06 36 13.77    +03 36 20.7   127303 0.9931 109.9 N   14? 109.29  31.1   51 162 129   4
   2024 03 08 19:10  06 36 50.29    +03 51 47.2   128155 0.9931 110.1 N   14? 107.60  31.0   52 165 129   4
   2024 03 08 19:20  06 37 26.21    +04 07 00.0   129012 0.9931 110.2 A   14? 105.96  31.0   52 169 129   4
   2024 03 08 19:30  06 38 01.57    +04 21 59.4   129874 0.9932 110.4 A   14? 104.37  31.0   53 173 129   4
   2024 03 08 19:40  06 38 36.42    +04 36 45.3   130740 0.9932 110.5 A   14? 102.83  31.0   53 177 129   4
   2024 03 08 19:50  06 39 10.81    +04 51 18.1   131611 0.9932 110.7  t  14? 101.34  31.1   53 181 130   4
   2024 03 08 20:00  06 39 44.79    +05 05 37.7   132487 0.9932 110.8     14?  99.90  31.1   54 185 130   3
   2024 03 08 20:10  06 40 18.40    +05 19 44.4   133368 0.9932 111.0  e  14?  98.50  31.3   54 189 130   3
   2024 03 08 20:20  06 40 51.68    +05 33 38.2   134253 0.9932 111.1     14?  97.15  31.4   53 193 130   3
   2024 03 08 20:30  06 41 24.68    +05 47 19.5   135143 0.9932 111.3     14?  95.85  31.6   53 197 130   3
   2024 03 08 20:40  06 41 57.44    +06 00 48.2   136038 0.9932 111.4     14?  94.59  31.8   53 201 130   3
   2024 03 08 20:50  06 42 29.99    +06 14 04.5   136938 0.9932 111.5     14?  93.38  32.0   52 205 130   3
   2024 03 08 21:00  06 43 02.38    +06 27 08.7   137843 0.9932 111.7     14?  92.21  32.3   52 208 130   3
   2024 03 08 21:10  06 43 34.65    +06 40 00.8   138752 0.9932 111.8     14?  91.09  32.6   51 212 130   3
   2024 03 08 21:20  06 44 06.82    +06 52 41.0   139665 0.9932 111.9     14?  90.01  32.9   50 216 130   3
   2024 03 08 21:30  06 44 38.94    +07 05 09.5   140583 0.9932 112.1     14?  88.98  33.3   49 219 130   3
   2024 03 08 21:40  06 45 11.05    +07 17 26.5   141505 0.9933 112.2     14?  87.99  33.7   48 222 130   3
   2024 03 08 21:50  06 45 43.16    +07 29 32.0   142431 0.9933 112.3     14?  87.05  34.1   47 225 130   3
   2024 03 08 22:00  06 46 15.32    +07 41 26.4   143361 0.9933 112.5     14?  86.15  34.6   46 229 130   3
   2024 03 08 22:10  06 46 47.54    +07 53 09.6   144295 0.9933 112.6     14?  85.30  35.0   45 231 131   3
   2024 03 08 22:20  06 47 19.87    +08 04 42.1   145233 0.9933 112.7     14?  84.49  35.5   43 234 131   3
   2024 03 08 22:30  06 47 52.33    +08 16 03.8   146174 0.9933 112.9     14?  83.72  36.1   42 237 131   3
   2024 03 08 22:40  06 48 24.94    +08 27 15.0   147119 0.9933 113.0     14?  83.00  36.6   41 239 131   3
   2024 03 08 22:50  06 48 57.72    +08 38 16.0   148066 0.9933 113.1     14?  82.32  37.2   39 242 131   3
   2024 03 08 23:00  06 49 30.70    +08 49 06.8   149017 0.9933 113.3     14?  81.69  37.7   38 244 131   3
   2024 03 08 23:10  06 50 03.90    +08 59 47.6   149970 0.9933 113.4     14?  81.10  38.3   36 246 131   3
   2024 03 08 23:20  06 50 37.34    +09 10 18.8   150925 0.9933 113.5     14?  80.54  39.0   35 249 131   3
   2024 03 08 23:30  06 51 11.03    +09 20 40.4   151883 0.9933 113.7     14?  80.03  39.6   33 251 131   3
   2024 03 08 23:40  06 51 45.00    +09 30 52.6   152843 0.9933 113.8     14?  79.56  40.2   32 253 131   3
   2024 03 08 23:50  06 52 19.25    +09 40 55.8   153804 0.9933 113.9     14?  79.13  40.9   30 255 131   3
   2024 03 09 00:00  06 52 53.81    +09 50 50.0   154766 0.9933 114.1     14?  78.74  41.5   28 257 131   3
   2024 03 09 00:10  06 53 28.68    +10 00 35.4   155730 0.9934 114.2     14?  78.38  42.2   27 259 131   3
   2024 03 09 00:20  06 54 03.87    +10 10 12.4   156695 0.9934 114.4     14?  78.06  42.9   25 260 131   2
   2024 03 09 00:30  06 54 39.41    +10 19 41.0   157660 0.9934 114.5     14?  77.77  43.5   23 262 131   2
   2024 03 09 00:40  06 55 15.28    +10 29 01.5   158625 0.9934 114.6     14?  77.52  44.2   22 264 131   2
   2024 03 09 00:50  06 55 51.50    +10 38 14.1   159590 0.9934 114.8     14?  77.30  44.9   20 266 131   2
   2024 03 09 01:00  06 56 28.08    +10 47 19.0   160555 0.9934 114.9     14?  77.11  45.5   18 267 131   2
   2024 03 09 01:10  06 57 05.02    +10 56 16.5   161519 0.9934 115.1     14?  76.94  46.2   17 269 131   2
   2024 03 09 01:20  06 57 42.33    +11 05 06.6   162483 0.9934 115.2     14?  76.81  46.8   15 271 132   2
   2024 03 09 01:30  06 58 19.99    +11 13 49.7   163445 0.9934 115.4     14?  76.70  47.5   13 272 132   2
   2024 03 09 01:40  06 58 58.03    +11 22 26.0   164405 0.9934 115.5     14?  76.61  48.1   12 274 132   2
   2024 03 09 01:50  06 59 36.43    +11 30 55.6   165364 0.9934 115.7     14?  76.55  48.7   10 276 132   2
   2024 03 09 02:00  07 00 15.20    +11 39 18.7   166320 0.9934 115.8     14?  76.50  49.3    8 277 132   2
   2024 03 09 02:10  07 00 54.33    +11 47 35.6   167274 0.9934 116.0     14?  76.48  49.9    7 279 132   2
   2024 03 09 02:20  07 01 33.81    +11 55 46.5   168225 0.9934 116.1     14?  76.47  50.5    5 280 132   2
   2024 03 09 02:30  07 02 13.66    +12 03 51.6   169173 0.9934 116.3     14?  76.47  51.0    3 282 132   2
   2024 03 09 02:40  07 02 53.85    +12 11 51.0   170117 0.9935 116.4     14?  76.49  51.6    2 284 132   2
   2024 03 09 02:50  07 03 34.38    +12 19 45.0   171058 0.9935 116.6     14?  76.52  52.1    0 285 132   2
   ................
   2024 03 09 18:30  07 56 49.09    +22 20 55.5   227028 0.9940 127.4 C   15?  34.39  27.4   53 108 137   0
   2024 03 09 18:40  07 57 00.02    +22 26 01.4   227465 0.9940 127.5 C   15?  33.80  26.8   55 111 137   0
   2024 03 09 18:50  07 57 10.57    +22 31 03.4   227908 0.9940 127.5 N   15?  33.22  26.4   56 113 136   0
   2024 03 09 19:00  07 57 20.77    +22 36 01.5   228355 0.9940 127.5 N   15?  32.66  25.9   58 116 136   0
   2024 03 09 19:10  07 57 30.65    +22 40 55.6   228807 0.9940 127.5 N   15?  32.10  25.5   60 119 136   0
   2024 03 09 19:20  07 57 40.21    +22 45 45.6   229266 0.9940 127.5 A   15?  31.55  25.1   61 122 136   0
   2024 03 09 19:30  07 57 49.49    +22 50 31.5   229730 0.9941 127.5 A   15?  31.01  24.8   63 126 136   0
   2024 03 09 19:40  07 57 58.52    +22 55 13.2   230199 0.9941 127.5 A   15?  30.48  24.5   65 130 136   0
   2024 03 09 19:50  07 58 07.31    +22 59 50.6   230675 0.9941 127.5     15?  29.97  24.3   66 134 136   0
   2024 03 09 20:00  07 58 15.89    +23 04 23.8   231157 0.9941 127.5     15?  29.46  24.2   67 139 136   0
   2024 03 09 20:10  07 58 24.28    +23 08 52.7   231645 0.9941 127.5     15?  28.97  24.1   69 144 136   0
   2024 03 09 20:20  07 58 32.52    +23 13 17.3   232139 0.9941 127.6     15?  28.48  24.1   70 150 136   0
   2024 03 09 20:30  07 58 40.62    +23 17 37.5   232639 0.9941 127.6     15?  28.01  24.1   71 156 135   0
   2024 03 09 20:40  07 58 48.62    +23 21 53.4   233146 0.9941 127.6     16?  27.56  24.2   71 163 135   0
   2024 03 09 20:50  07 58 56.53    +23 26 04.8   233659 0.9941 127.6     16?  27.11  24.4   72 170 135   0
   2024 03 09 21:00  07 59 04.38    +23 30 11.9   234179 0.9941 127.6     16?  26.69  24.6   72 177 135   0
   2024 03 09 21:10  07 59 12.21    +23 34 14.6   234705 0.9941 127.6  t  16?  26.27  25.0   72 185 135   0
   2024 03 09 21:20  07 59 20.02    +23 38 12.9   235238 0.9941 127.6     16?  25.88  25.4   72 192 135   0
   2024 03 09 21:30  07 59 27.85    +23 42 06.9   235777 0.9941 127.6     16?  25.50  25.9   71 200 135   0
   2024 03 09 21:40  07 59 35.72    +23 45 56.6   236322 0.9941 127.6     16?  25.14  26.4   71 207 135   0
   2024 03 09 21:50  07 59 43.66    +23 49 41.9   236874 0.9941 127.6     16?  24.81  27.1   70 213 135   0
   2024 03 09 22:00  07 59 51.69    +23 53 23.0   237432 0.9941 127.6     16?  24.49  27.8   69 219 134   0
   2024 03 09 22:10  07 59 59.84    +23 56 59.8   237996 0.9941 127.6     16?  24.20  28.6   68 224 134   0
   2024 03 09 22:20  08 00 08.12    +24 00 32.5   238566 0.9941 127.6     16?  23.93  29.5   66 229 134   0
   2024 03 09 22:30  08 00 16.56    +24 04 01.0   239142 0.9941 127.6     16?  23.69  30.5   65 233 134   0
   2024 03 09 22:40  08 00 25.18    +24 07 25.5   239724 0.9941 127.7     16?  23.47  31.5   63 237 134   0
   2024 03 09 22:50  08 00 34.00    +24 10 45.9   240311 0.9942 127.7     16?  23.29  32.6   62 241 134   0
   2024 03 09 23:00  08 00 43.05    +24 14 02.5   240905 0.9942 127.7     16?  23.13  33.8   60 244 134   0
   2024 03 09 23:10  08 00 52.34    +24 17 15.2   241503 0.9942 127.7     16?  23.01  35.0   58 247 134   0
   2024 03 09 23:20  08 01 01.89    +24 20 24.1   242107 0.9942 127.7     16?  22.92  36.3   57 250 134   0
   2024 03 09 23:30  08 01 11.73    +24 23 29.4   242715 0.9942 127.7     16?  22.86  37.6   55 252 133   0
   2024 03 09 23:40  08 01 21.86    +24 26 31.1   243329 0.9942 127.7     16?  22.84  39.0   53 255 133   0
   2024 03 09 23:50  08 01 32.31    +24 29 29.3   243947 0.9942 127.8     16?  22.85  40.4   51 257 133   0
   2024 03 10 00:00  08 01 43.10    +24 32 24.1   244569 0.9942 127.8     16?  22.90  41.8   50 259 133   0
   2024 03 10 00:10  08 01 54.23    +24 35 15.6   245195 0.9942 127.8     16?  22.98  43.2   48 261 133   0
   2024 03 10 00:20  08 02 05.72    +24 38 03.9   245826 0.9942 127.8     16?  23.10  44.6   46 263 133   0
   2024 03 10 00:30  08 02 17.60    +24 40 49.2   246460 0.9942 127.9     16?  23.26  46.1   44 265 133   0
   2024 03 10 00:40  08 02 29.86    +24 43 31.6   247097 0.9942 127.9     16?  23.45  47.5   42 267 133   0
   2024 03 10 00:50  08 02 42.52    +24 46 11.2   247737 0.9942 127.9     16?  23.67  48.9   41 268 133   0
   2024 03 10 01:00  08 02 55.59    +24 48 48.0   248380 0.9942 127.9     16?  23.92  50.2   39 270 133   0
   2024 03 10 01:10  08 03 09.08    +24 51 22.3   249026 0.9942 128.0     16?  24.21  51.5   37 272 132   0
   2024 03 10 01:20  08 03 23.01    +24 53 54.1   249674 0.9942 128.0     16?  24.52  52.8   35 273 132   0
   2024 03 10 01:30  08 03 37.37    +24 56 23.7   250324 0.9942 128.0     16?  24.86  54.1   33 275 132   0
   2024 03 10 01:40  08 03 52.18    +24 58 51.0   250975 0.9942 128.1     16?  25.23  55.2   31 276 132   0
   2024 03 10 01:50  08 04 07.43    +25 01 16.3   251627 0.9942 128.1     16?  25.62  56.4   30 278 132   0
   2024 03 10 02:00  08 04 23.15    +25 03 39.7   252281 0.9942 128.2     16?  26.03  57.5   28 279 132   0
   2024 03 10 02:10  08 04 39.32    +25 06 01.3   252935 0.9943 128.2     16?  26.47  58.5   26 281 132   0
   2024 03 10 02:20  08 04 55.96    +25 08 21.2   253590 0.9943 128.2     16?  26.92  59.5   24 282 132   0
   2024 03 10 02:30  08 05 13.06    +25 10 39.7   254244 0.9943 128.3     16?  27.39  60.4   22 284 132   0
   2024 03 10 02:40  08 05 30.63    +25 12 56.8   254898 0.9943 128.3     16?  27.87  61.3   21 285 132   0
   2024 03 10 02:50  08 05 48.67    +25 15 12.6   255552 0.9943 128.4     16?  28.36  62.1   19 286 132   0
   2024 03 10 03:00  08 06 07.17    +25 17 27.4   256205 0.9943 128.4     16?  28.87  62.9   17 288 132   0
   2024 03 10 03:10  08 06 26.14    +25 19 41.2   256856 0.9943 128.5     16?  29.38  63.6   16 289 132   0
   2024 03 10 03:20  08 06 45.57    +25 21 54.1   257505 0.9943 128.5     16?  29.89  64.2   14 291 132   0
   2024 03 10 03:30  08 07 05.46    +25 24 06.4   258153 0.9943 128.6     16?  30.42  64.8   12 292 131   0
   2024 03 10 03:40  08 07 25.80    +25 26 18.1   258798 0.9943 128.6     16?  30.94  65.4   11 294 131   0
   2024 03 10 03:50  08 07 46.59    +25 28 29.3   259441 0.9943 128.7     16?  31.47  65.9    9 295 131   0
   2024 03 10 04:00  08 08 07.83    +25 30 40.3   260081 0.9943 128.8     16?  31.99  66.4    7 297 131   0
   2024 03 10 04:10  08 08 29.50    +25 32 51.1   260717 0.9943 128.8     16?  32.52  66.8    6 298 131   0
   2024 03 10 04:20  08 08 51.60    +25 35 01.8   261350 0.9943 128.9     16?  33.04  67.2    4 300 131   0
   2024 03 10 04:30  08 09 14.12    +25 37 12.6   261979 0.9943 128.9     16?  33.55  67.5    3 301 131   0
   2024 03 10 04:40  08 09 37.05    +25 39 23.6   262604 0.9943 129.0     16?  34.06  67.8    1 303 131   0
   2024 03 10 04:50  08 10 00.39    +25 41 34.9   263225 0.9943 129.1     16?  34.56  68.1    0 304 131   0
   ................
   2024 03 10 18:30  08 40 26.78    +29 59 46.2   290971 0.9947 133.2 Cm  16?  22.09  28.0   50  90 129   0
   2024 03 10 18:40  08 40 34.43    +30 03 01.9   291184 0.9947 133.2 Cm  16?  21.64  27.2   52  92 129   0
   2024 03 10 18:50  08 40 41.72    +30 06 14.9   291402 0.9947 133.2 N   16?  21.19  26.4   53  93 129   0
   2024 03 10 19:00  08 40 48.67    +30 09 25.3   291625 0.9947 133.2 N   16?  20.74  25.7   55  95 129   0
   2024 03 10 19:10  08 40 55.29    +30 12 32.7   291852 0.9947 133.2 N   16?  20.31  25.0   57  97 128   0
   2024 03 10 19:20  08 41 01.60    +30 15 37.3   292084 0.9947 133.2 A   16?  19.87  24.3   59  99 128   0
   2024 03 10 19:30  08 41 07.62    +30 18 38.8   292322 0.9947 133.2 A   16?  19.44  23.6   61 101 128   0
   2024 03 10 19:40  08 41 13.36    +30 21 37.2   292564 0.9947 133.2 A   16?  19.01  23.1   63 103 128   0
   2024 03 10 19:50  08 41 18.85    +30 24 32.4   292813 0.9947 133.2     16?  18.59  22.5   65 106 128   0
   2024 03 10 20:00  08 41 24.09    +30 27 24.4   293067 0.9947 133.1     16?  18.18  22.0   67 109 128   0
   2024 03 10 20:10  08 41 29.12    +30 30 13.1   293327 0.9947 133.1     16?  17.77  21.6   68 112 128   0
   2024 03 10 20:20  08 41 33.96    +30 32 58.4   293593 0.9947 133.1     16?  17.36  21.3   70 115 128   0
   2024 03 10 20:30  08 41 38.61    +30 35 40.3   293865 0.9947 133.1     16?  16.96  21.0   72 120 127   0
   2024 03 10 20:40  08 41 43.11    +30 38 18.7   294143 0.9947 133.1     16?  16.57  20.8   73 124 127   0
   2024 03 10 20:50  08 41 47.47    +30 40 53.6   294428 0.9947 133.1     16?  16.18  20.7   75 130 127   0
   2024 03 10 21:00  08 41 51.71    +30 43 25.0   294719 0.9948 133.1     16?  15.80  20.7   76 137 127   0
   2024 03 10 21:10  08 41 55.87    +30 45 52.8   295016 0.9948 133.1     16?  15.42  20.8   77 145 127   0
   2024 03 10 21:20  08 41 59.94    +30 48 16.9   295320 0.9948 133.1     16?  15.06  21.0   78 154 127   0
   2024 03 10 21:30  08 42 03.97    +30 50 37.5   295630 0.9948 133.0     16?  14.70  21.3   79 165 127   0
   2024 03 10 21:40  08 42 07.97    +30 52 54.5   295947 0.9948 133.0     16?  14.36  21.7   79 177 127   0
   2024 03 10 21:50  08 42 11.96    +30 55 07.8   296271 0.9948 133.0  t  16?  14.02  22.2   79 189 127   0
   2024 03 10 22:00  08 42 15.96    +30 57 17.5   296601 0.9948 133.0     16?  13.70  22.9   79 201 126   0
   2024 03 10 22:10  08 42 20.00    +30 59 23.7   296937 0.9948 133.0     16?  13.39  23.7   78 211 126   0
   2024 03 10 22:20  08 42 24.10    +31 01 26.2   297281 0.9948 133.0     16?  13.10  24.7   77 220 126   0
   2024 03 10 22:30  08 42 28.27    +31 03 25.2   297630 0.9948 133.0     16?  12.82  25.8   76 228 126   0
   2024 03 10 22:40  08 42 32.54    +31 05 20.6   297986 0.9948 133.0     16?  12.57  27.1   74 234 126   0
   2024 03 10 22:50  08 42 36.93    +31 07 12.6   298348 0.9948 133.0     16?  12.34  28.5   73 239 126   0
   2024 03 10 23:00  08 42 41.45    +31 09 01.1   298716 0.9948 133.0     16?  12.13  30.0   71 244 126   0
   2024 03 10 23:10  08 42 46.14    +31 10 46.2   299090 0.9948 133.0     16?  11.95  31.7   69 247 126   0
   2024 03 10 23:20  08 42 51.00    +31 12 28.0   299470 0.9948 133.0     16?  11.80  33.5   68 251 125   0
   2024 03 10 23:30  08 42 56.06    +31 14 06.4   299856 0.9948 132.9     16?  11.68  35.5   66 254 125   0
   2024 03 10 23:40  08 43 01.34    +31 15 41.7   300248 0.9948 132.9     16?  11.60  37.5   64 257 125   0
   2024 03 10 23:50  08 43 06.84    +31 17 13.9   300645 0.9948 132.9     16?  11.55  39.7   62 259 125   0
   2024 03 11 00:00  08 43 12.60    +31 18 42.9   301047 0.9948 132.9     16?  11.53  41.9   60 261 125   0
   2024 03 11 00:10  08 43 18.63    +31 20 09.1   301455 0.9948 132.9     16?  11.56  44.2   58 263 125   0
   2024 03 11 00:20  08 43 24.94    +31 21 32.3   301867 0.9948 132.9     16?  11.62  46.4   57 265 125   0
   2024 03 11 00:30  08 43 31.55    +31 22 52.7   302284 0.9948 133.0     16?  11.72  48.7   55 267 125   0
   2024 03 11 00:40  08 43 38.48    +31 24 10.4   302706 0.9948 133.0     16?  11.87  51.0   53 269 124   0
   2024 03 11 00:50  08 43 45.73    +31 25 25.6   303132 0.9948 133.0     16?  12.05  53.2   51 270 124   0
   2024 03 11 01:00  08 43 53.32    +31 26 38.2   303562 0.9948 133.0     16?  12.26  55.4   49 272 124   0
   2024 03 11 01:10  08 44 01.27    +31 27 48.5   303995 0.9948 133.0     16?  12.51  57.4   47 274 124   0
   2024 03 11 01:20  08 44 09.59    +31 28 56.5   304432 0.9949 133.0     16?  12.80  59.4   45 275 124   0
   2024 03 11 01:30  08 44 18.28    +31 30 02.4   304873 0.9949 133.0     16?  13.12  61.3   44 276 124   0
   2024 03 11 01:40  08 44 27.36    +31 31 06.2   305316 0.9949 133.0     16?  13.47  63.0   42 278 124   0
   2024 03 11 01:50  08 44 36.83    +31 32 08.1   305762 0.9949 133.0     16?  13.85  64.7   40 279 124   0
   2024 03 11 02:00  08 44 46.71    +31 33 08.3   306211 0.9949 133.0     16?  14.25  66.2   38 281 124   0
   2024 03 11 02:10  08 44 57.01    +31 34 06.8   306661 0.9949 133.1     16?  14.67  67.6   36 282 123   0
   2024 03 11 02:20  08 45 07.72    +31 35 03.8   307114 0.9949 133.1     16?  15.12  68.9   34 283 123   0
   2024 03 11 02:30  08 45 18.86    +31 35 59.3   307568 0.9949 133.1     16?  15.58  70.1   33 285 123   0
   2024 03 11 02:40  08 45 30.43    +31 36 53.6   308023 0.9949 133.1     16?  16.06  71.1   31 286 123   0
   2024 03 11 02:50  08 45 42.44    +31 37 46.8   308479 0.9949 133.2     16?  16.55  72.1   29 287 123   0
   2024 03 11 03:00  08 45 54.89    +31 38 39.0   308935 0.9949 133.2     16?  17.06  73.0   27 288 123   0
   2024 03 11 03:10  08 46 07.78    +31 39 30.3   309392 0.9949 133.2     16?  17.57  73.8   26 290 123   0
   2024 03 11 03:20  08 46 21.11    +31 40 20.9   309849 0.9949 133.2     16?  18.10  74.5   24 291 123   0
   2024 03 11 03:30  08 46 34.88    +31 41 10.9   310306 0.9949 133.3     16?  18.63  75.1   22 292 123   0
   2024 03 11 03:40  08 46 49.10    +31 42 00.5   310761 0.9949 133.3     16?  19.16  75.6   21 294 123   0
   2024 03 11 03:50  08 47 03.77    +31 42 49.7   311216 0.9949 133.3     16?  19.70  76.1   19 295 123   1
   2024 03 11 04:00  08 47 18.87    +31 43 38.7   311669 0.9949 133.4     16?  20.24  76.5   17 296 123   1
   2024 03 11 04:10  08 47 34.42    +31 44 27.6   312121 0.9949 133.4     16?  20.78  76.9   16 298 122   1
   2024 03 11 04:20  08 47 50.40    +31 45 16.6   312571 0.9949 133.4     16?  21.32  77.2   14 299 122   1
   2024 03 11 04:30  08 48 06.81    +31 46 05.8   313019 0.9949 133.5     16?  21.86  77.4   12 300 122   1
   2024 03 11 04:40  08 48 23.65    +31 46 55.3   313464 0.9949 133.5     16?  22.39  77.7   11 302 122   1
   2024 03 11 04:50  08 48 40.92    +31 47 45.3   313906 0.9949 133.5     16?  22.92  77.8    9 303 122   1
   2024 03 11 05:00  08 48 58.59    +31 48 35.8   314345 0.9949 133.6     16?  23.44  77.9    8 305 122   1
   2024 03 11 05:10  08 49 16.68    +31 49 27.0   314780 0.9949 133.6 A   16?  23.96  78.0    6 306 122   1
   2024 03 11 05:20  08 49 35.17    +31 50 19.1   315212 0.9949 133.7 A   16?  24.47  78.1    5 308 122   1
   2024 03 11 05:30  08 49 54.05    +31 51 12.0   315639 0.9949 133.7 A   16?  24.97  78.1    3 309 122   1
   2024 03 11 05:40  08 50 13.32    +31 52 06.0   316062 0.9949 133.8 N   16?  25.46  78.1    2 311 122   1
   2024 03 11 05:50  08 50 32.95    +31 53 01.1   316481 0.9950 133.8 N   16?  25.94  78.0    1 312 122   1
   2024 03 11 06:00  08 50 52.96    +31 53 57.5   316894 0.9950 133.9 N   16?  26.41  77.9    0 314 122   1
   ................
   2024 03 11 18:30  09 15 10.41    +34 38 03.4   329253 0.9952 136.1 Cm  16?  18.28  31.4   46  79 119   2
   2024 03 11 18:40  09 15 17.85    +34 40 39.6   329301 0.9952 136.1 Cm  16?  17.87  30.4   48  81 118   2
   2024 03 11 18:50  09 15 24.92    +34 43 13.8   329353 0.9952 136.1 Nm  16?  17.46  29.5   50  82 118   2
   2024 03 11 19:00  09 15 31.64    +34 45 45.8   329409 0.9952 136.0 Nm  16?  17.05  28.6   52  83 118   2
   2024 03 11 19:10  09 15 38.01    +34 48 15.5   329469 0.9952 136.0 Nm  16?  16.65  27.7   53  84 118   2
   2024 03 11 19:20  09 15 44.05    +34 50 42.8   329533 0.9952 136.0 Am  16?  16.25  26.9   55  86 118   2
   2024 03 11 19:30  09 15 49.77    +34 53 07.6   329602 0.9952 136.0 Am  16?  15.85  26.0   57  87 118   2
   2024 03 11 19:40  09 15 55.19    +34 55 29.7   329675 0.9952 136.0 Am  16?  15.45  25.2   59  89 118   2
   2024 03 11 19:50  09 16 00.33    +34 57 49.1   329754 0.9952 136.0  m  16?  15.05  24.5   61  90 118   2
   2024 03 11 20:00  09 16 05.20    +35 00 05.8   329837 0.9952 136.0  m  17?  14.66  23.8   63  92 118   2
   2024 03 11 20:10  09 16 09.81    +35 02 19.5   329926 0.9952 135.9     16?  14.28  23.2   65  94 118   2
   2024 03 11 20:20  09 16 14.19    +35 04 30.3   330020 0.9952 135.9     16?  13.89  22.6   67  95 117   3
   2024 03 11 20:30  09 16 18.34    +35 06 38.1   330120 0.9952 135.9     16?  13.51  22.0   69  98 117   3
   2024 03 11 20:40  09 16 22.30    +35 08 42.8   330225 0.9952 135.9     17?  13.13  21.6   70 100 117   3
   2024 03 11 20:50  09 16 26.08    +35 10 44.3   330336 0.9953 135.9     17?  12.75  21.2   72 103 117   3
   2024 03 11 21:00  09 16 29.69    +35 12 42.5   330453 0.9953 135.8     16?  12.38  20.9   74 106 117   3
   2024 03 11 21:10  09 16 33.15    +35 14 37.6   330577 0.9953 135.8     16?  12.02  20.7   76 110 117   3
   2024 03 11 21:20  09 16 36.49    +35 16 29.3   330706 0.9953 135.8     17?  11.65  20.7   78 114 117   3
   2024 03 11 21:30  09 16 39.73    +35 18 17.6   330842 0.9953 135.8     17?  11.30  20.7   79 120 117   3
   2024 03 11 21:40  09 16 42.87    +35 20 02.6   330984 0.9953 135.8     17?  10.95  20.9   81 128 117   3
   2024 03 11 21:50  09 16 45.96    +35 21 44.1   331132 0.9953 135.8     17?  10.60  21.2   82 140 116   3
   2024 03 11 22:00  09 16 48.99    +35 23 22.3   331286 0.9953 135.8     17?  10.27  21.6   83 155 116   3
   2024 03 11 22:10  09 16 52.01    +35 24 57.0   331447 0.9953 135.7     17?   9.94  22.2   84 174 116   3
   2024 03 11 22:20  09 16 55.01    +35 26 28.2   331615 0.9953 135.7  t  17?   9.63  23.0   84 195 116   3
   2024 03 11 22:30  09 16 58.04    +35 27 56.1   331788 0.9953 135.7     17?   9.32  24.0   83 213 116   3
   2024 03 11 22:40  09 17 01.09    +35 29 20.5   331968 0.9953 135.7     17?   9.03  25.2   82 226 116   3
   2024 03 11 22:50  09 17 04.21    +35 30 41.4   332155 0.9953 135.7     17?   8.76  26.6   80 236 116   3
   2024 03 11 23:00  09 17 07.40    +35 31 59.0   332347 0.9953 135.7     17?   8.51  28.3   79 243 116   3
   2024 03 11 23:10  09 17 10.68    +35 33 13.2   332546 0.9953 135.7     17?   8.28  30.1   77 248 116   3
   2024 03 11 23:20  09 17 14.08    +35 34 24.1   332751 0.9953 135.7     17?   8.07  32.2   75 253 115   3
   2024 03 11 23:30  09 17 17.62    +35 35 31.7   332962 0.9953 135.6     17?   7.90  34.6   73 256 115   3
   2024 03 11 23:40  09 17 21.31    +35 36 36.0   333179 0.9953 135.6     17?   7.75  37.1   72 259 115   3
   2024 03 11 23:50  09 17 25.17    +35 37 37.2   333401 0.9953 135.6     17?   7.64  39.9   70 262 115   3
   2024 03 12 00:00  09 17 29.22    +35 38 35.2   333630 0.9953 135.6     17?   7.57  42.8   68 264 115   3
   2024 03 12 00:10  09 17 33.48    +35 39 30.1   333864 0.9953 135.6     17?   7.53  45.8   66 266 115   3
   2024 03 12 00:20  09 17 37.97    +35 40 22.1   334103 0.9953 135.6     17?   7.54  48.9   64 268 115   3
   2024 03 12 00:30  09 17 42.70    +35 41 11.1   334347 0.9953 135.6     17?   7.59  52.1   62 270 115   3
   2024 03 12 00:40  09 17 47.69    +35 41 57.3   334597 0.9953 135.6     17?   7.69  55.2   60 271 114   3
   2024 03 12 00:50  09 17 52.95    +35 42 40.8   334851 0.9953 135.6     17?   7.83  58.2   59 273 114   4
   2024 03 12 01:00  09 17 58.50    +35 43 21.6   335110 0.9953 135.6     17?   8.01  61.2   57 274 114   4
   2024 03 12 01:10  09 18 04.36    +35 43 59.8   335373 0.9953 135.6     17?   8.23  64.0   55 275 114   4
   2024 03 12 01:20  09 18 10.54    +35 44 35.6   335641 0.9953 135.6     17?   8.49  66.6   53 277 114   4
   2024 03 12 01:30  09 18 17.05    +35 45 09.0   335912 0.9953 135.6     17?   8.78  69.1   51 278 114   4
   2024 03 12 01:40  09 18 23.90    +35 45 40.1   336188 0.9953 135.6     17?   9.10  71.3   49 279 114   4
   2024 03 12 01:50  09 18 31.11    +35 46 09.2   336466 0.9953 135.6     17?   9.46  73.4   47 281 114   4
   2024 03 12 02:00  09 18 38.69    +35 46 36.2   336748 0.9953 135.6     17?   9.84  75.2   46 282 114   4
   2024 03 12 02:10  09 18 46.65    +35 47 01.3   337033 0.9953 135.7     17?  10.25  76.9   44 283 114   4
   2024 03 12 02:20  09 18 54.99    +35 47 24.6   337321 0.9954 135.7     17?  10.68  78.4   42 284 113   4
   2024 03 12 02:30  09 19 03.73    +35 47 46.3   337611 0.9954 135.7     17?  11.12  79.7   40 285 113   4
   2024 03 12 02:40  09 19 12.88    +35 48 06.4   337904 0.9954 135.7     17?  11.59  80.8   38 287 113   4
   2024 03 12 02:50  09 19 22.44    +35 48 25.1   338198 0.9954 135.7     17?  12.06  81.8   37 288 113   4
   2024 03 12 03:00  09 19 32.41    +35 48 42.6   338494 0.9954 135.7     17?  12.55  82.7   35 289 113   4
   2024 03 12 03:10  09 19 42.81    +35 48 58.9   338791 0.9954 135.7     17?  13.05  83.5   33 290 113   4
   2024 03 12 03:20  09 19 53.63    +35 49 14.3   339089 0.9954 135.8     17?  13.56  84.1   31 291 113   4
   2024 03 12 03:30  09 20 04.89    +35 49 28.7   339388 0.9954 135.8     17?  14.08  84.7   30 293 113   4
   2024 03 12 03:40  09 20 16.58    +35 49 42.4   339687 0.9954 135.8     17?  14.60  85.1   28 294 113   4
   2024 03 12 03:50  09 20 28.72    +35 49 55.6   339986 0.9954 135.8     17?  15.13  85.5   26 295 113   4
   2024 03 12 04:00  09 20 41.28    +35 50 08.2   340285 0.9954 135.9     17?  15.65  85.8   25 296 112   4
   2024 03 12 04:10  09 20 54.29    +35 50 20.5   340583 0.9954 135.9     17?  16.18  86.0   23 297 112   4
   2024 03 12 04:20  09 21 07.74    +35 50 32.7   340881 0.9954 135.9     17?  16.71  86.2   21 299 112   4
   2024 03 12 04:30  09 21 21.63    +35 50 44.7   341178 0.9954 135.9     17?  17.24  86.3   20 300 112   4
   2024 03 12 04:40  09 21 35.95    +35 50 56.9   341473 0.9954 136.0     17?  17.77  86.4   18 301 112   5
   2024 03 12 04:50  09 21 50.71    +35 51 09.2   341766 0.9954 136.0     17?  18.30  86.4   17 302 112   5
   2024 03 12 05:00  09 22 05.90    +35 51 21.9   342057 0.9954 136.0 A   17?  18.82  86.4   15 304 112   5
   2024 03 12 05:10  09 22 21.51    +35 51 35.0   342346 0.9954 136.1 A   17?  19.34  86.3   13 305 112   5
   2024 03 12 05:20  09 22 37.54    +35 51 48.7   342632 0.9954 136.1 A   17?  19.85  86.2   12 306 112   5
   2024 03 12 05:30  09 22 54.00    +35 52 03.2   342916 0.9954 136.1 A   17?  20.35  86.1   11 308 112   5
   2024 03 12 05:40  09 23 10.86    +35 52 18.5   343196 0.9954 136.2 N   17?  20.85  86.0    9 309 112   5
   2024 03 12 05:50  09 23 28.12    +35 52 34.7   343472 0.9954 136.2 N   17?  21.34  85.8    8 311 112   5
   2024 03 12 06:00  09 23 45.78    +35 52 52.1   343745 0.9954 136.2 N   17?  21.82  85.6    6 312 112   5
   2024 03 12 06:10  09 24 03.83    +35 53 10.6   344014 0.9954 136.3 C   17?  22.29  85.3    5 313 112   5
   2024 03 12 06:20  09 24 22.25    +35 53 30.4   344278 0.9954 136.3 C   17?  22.75  85.1    4 315 111   5
   ................
   2024 03 12 18:30  09 47 47.07    +37 56 02.2   346618 0.9956 137.7 Cm  17?  17.39  36.8   42  72 108   8
   2024 03 12 18:40  09 47 55.63    +37 58 21.1   346524 0.9956 137.7 Cm  17?  16.98  35.9   44  73 108   8
   2024 03 12 18:50  09 48 03.81    +38 00 38.3   346433 0.9956 137.7 Nm  17?  16.57  34.9   46  74 108   8
   2024 03 12 19:00  09 48 11.60    +38 02 53.8   346345 0.9956 137.7 Nm  17?  16.16  34.0   48  75 108   8
   2024 03 12 19:10  09 48 19.03    +38 05 07.3   346260 0.9956 137.7 Nm  17?  15.76  33.1   49  76 108   8
   2024 03 12 19:20  09 48 26.10    +38 07 18.7   346178 0.9956 137.6 Am  17?  15.35  32.2   51  77 108   8
   2024 03 12 19:30  09 48 32.81    +38 09 28.0   346100 0.9956 137.6 Am  17?  14.95  31.3   53  78 108   8
   2024 03 12 19:40  09 48 39.20    +38 11 35.1   346027 0.9956 137.6 Am  17?  14.55  30.5   55  79 108   8
   2024 03 12 19:50  09 48 45.26    +38 13 39.7   345957 0.9956 137.6  m  17?  14.15  29.7   57  80 108   8
   2024 03 12 20:00  09 48 51.01    +38 15 41.9   345891 0.9956 137.6  m  17?  13.75  28.9   59  81 108   8
   2024 03 12 20:10  09 48 56.46    +38 17 41.4   345831 0.9956 137.5  m  17?  13.36  28.2   60  82 107   8
   2024 03 12 20:20  09 49 01.64    +38 19 38.3   345775 0.9956 137.5  m  17?  12.97  27.5   62  83 107   8
   2024 03 12 20:30  09 49 06.56    +38 21 32.3   345723 0.9956 137.5  m  17?  12.58  26.9   64  85 107   8
   2024 03 12 20:40  09 49 11.22    +38 23 23.5   345677 0.9956 137.5  m  17?  12.19  26.3   66  86 107   8
   2024 03 12 20:50  09 49 15.66    +38 25 11.8   345637 0.9956 137.5  m  17?  11.81  25.8   68  87 107   8
   2024 03 12 21:00  09 49 19.88    +38 26 57.0   345601 0.9956 137.4  m  17?  11.42  25.3   70  89 107   8
   2024 03 12 21:10  09 49 23.90    +38 28 39.1   345571 0.9956 137.4  m  17?  11.05  25.0   72  90 107   8
   2024 03 12 21:20  09 49 27.75    +38 30 18.1   345547 0.9956 137.4     17?  10.67  24.7   74  92 107   8
   2024 03 12 21:30  09 49 31.44    +38 31 53.8   345528 0.9956 137.4     17?  10.30  24.6   76  94 107   8
   2024 03 12 21:40  09 49 34.99    +38 33 26.2   345515 0.9956 137.4     17?   9.94  24.6   77  96 107   8
   2024 03 12 21:50  09 49 38.42    +38 34 55.3   345508 0.9956 137.4     17?   9.58  24.7   79  99 106   8
   2024 03 12 22:00  09 49 41.74    +38 36 21.0   345508 0.9957 137.3     17?   9.23  25.0   81 103 106   8
   2024 03 12 22:10  09 49 44.99    +38 37 43.4   345513 0.9957 137.3     17?   8.88  25.4   83 108 106   9
   2024 03 12 22:20  09 49 48.17    +38 39 02.3   345524 0.9957 137.3     17?   8.54  26.0   85 117 106   9
   2024 03 12 22:30  09 49 51.31    +38 40 17.7   345541 0.9957 137.3     17?   8.22  26.8   86 135 106   9
   2024 03 12 22:40  09 49 54.43    +38 41 29.7   345565 0.9957 137.3     17?   7.90  27.8   87 172 106   9
   2024 03 12 22:50  09 49 57.55    +38 42 38.2   345594 0.9957 137.3  t  17?   7.60  29.1   87 216 106   9
   2024 03 12 23:00  09 50 00.69    +38 43 43.3   345630 0.9957 137.2     17?   7.32  30.7   85 238 106   9
   2024 03 12 23:10  09 50 03.87    +38 44 44.8   345672 0.9957 137.2     17?   7.05  32.5   84 249 106   9
   2024 03 12 23:20  09 50 07.10    +38 45 42.9   345720 0.9957 137.2     17?   6.81  34.6   82 256 106   9
   2024 03 12 23:30  09 50 10.42    +38 46 37.6   345773 0.9957 137.2     17?   6.59  37.1   80 260 105   9
   2024 03 12 23:40  09 50 13.84    +38 47 28.9   345833 0.9957 137.2     17?   6.41  39.8   78 263 105   9
   2024 03 12 23:50  09 50 17.38    +38 48 16.8   345899 0.9957 137.2     17?   6.25  42.8   76 266 105   9
   2024 03 13 00:00  09 50 21.06    +38 49 01.4   345970 0.9957 137.2     17?   6.14  46.1   74 268 105   9
   2024 03 13 00:10  09 50 24.89    +38 49 42.7   346047 0.9957 137.2     17?   6.07  49.6   72 269 105   9
   2024 03 13 00:20  09 50 28.91    +38 50 20.7   346130 0.9957 137.2     17?   6.04  53.3   71 271 105   9
   2024 03 13 00:30  09 50 33.12    +38 50 55.6   346218 0.9957 137.2     17?   6.05  57.0   69 272 105   9
   2024 03 13 00:40  09 50 37.54    +38 51 27.4   346312 0.9957 137.2     17?   6.11  60.7   67 274 105   9
   2024 03 13 00:50  09 50 42.20    +38 51 56.1   346410 0.9957 137.2     17?   6.22  64.4   65 275 105   9
   2024 03 13 01:00  09 50 47.11    +38 52 21.9   346514 0.9957 137.2     17?   6.38  67.9   63 276 105  10
   2024 03 13 01:10  09 50 52.28    +38 52 44.8   346622 0.9957 137.2     17?   6.58  71.3   61 277 104  10
   2024 03 13 01:20  09 50 57.73    +38 53 04.9   346735 0.9957 137.2     17?   6.82  74.4   59 279 104  10
   2024 03 13 01:30  09 51 03.48    +38 53 22.4   346852 0.9957 137.2     17?   7.10  77.2   58 280 104  10
   2024 03 13 01:40  09 51 09.55    +38 53 37.2   346974 0.9957 137.2     17?   7.42  79.8   56 281 104  10
   2024 03 13 01:50  09 51 15.94    +38 53 49.5   347100 0.9957 137.2     17?   7.76  82.1   54 282 104  10
   2024 03 13 02:00  09 51 22.67    +38 53 59.4   347229 0.9957 137.2     17?   8.13  84.1   52 283 104  10
   2024 03 13 02:10  09 51 29.75    +38 54 07.1   347363 0.9957 137.2     17?   8.53  85.9   50 284 104  10
   2024 03 13 02:20  09 51 37.20    +38 54 12.6   347499 0.9957 137.2     17?   8.95  87.4   48 285 104  10
   2024 03 13 02:30  09 51 45.03    +38 54 16.0   347639 0.9957 137.2     17?   9.39  88.7   47 286 104  10
   2024 03 13 02:40  09 51 53.25    +38 54 17.6   347781 0.9957 137.2     17?   9.85  89.9   45 287 104  10
   2024 03 13 02:50  09 52 01.86    +38 54 17.3   347926 0.9957 137.2     17?  10.32  90.8   43 288 103  10
   2024 03 13 03:00  09 52 10.88    +38 54 15.3   348073 0.9957 137.2     17?  10.80  91.7   41 289 103  10
   2024 03 13 03:10  09 52 20.32    +38 54 11.9   348223 0.9957 137.3     17?  11.30  92.3   40 290 103  10
   2024 03 13 03:20  09 52 30.18    +38 54 07.0   348374 0.9957 137.3     17?  11.80  92.9   38 291 103  10
   2024 03 13 03:30  09 52 40.47    +38 54 00.8   348527 0.9957 137.3     17?  12.31  93.3   36 292 103  11
   2024 03 13 03:40  09 52 51.19    +38 53 53.5   348681 0.9957 137.3     17?  12.83  93.7   34 293 103  11
   2024 03 13 03:50  09 53 02.36    +38 53 45.2   348836 0.9957 137.3     17?  13.35  94.0   33 295 103  11
   2024 03 13 04:00  09 53 13.97    +38 53 36.1   348991 0.9957 137.3     17?  13.88  94.1   31 296 103  11
   2024 03 13 04:10  09 53 26.03    +38 53 26.2   349147 0.9957 137.4     17?  14.41  94.2   29 297 103  11
   2024 03 13 04:20  09 53 38.54    +38 53 15.7   349303 0.9957 137.4     17?  14.94  94.3   28 298 103  11
   2024 03 13 04:30  09 53 51.51    +38 53 04.8   349459 0.9957 137.4     17?  15.47  94.3   26 299 103  11
   2024 03 13 04:40  09 54 04.93    +38 52 53.6   349614 0.9957 137.4     17?  16.00  94.2   24 300 103  11
   2024 03 13 04:50  09 54 18.80    +38 52 42.3   349769 0.9957 137.5     17?  16.53  94.1   23 301 102  11
   2024 03 13 05:00  09 54 33.13    +38 52 30.9   349922 0.9957 137.5 A   17?  17.06  94.0   21 303 102  11
   2024 03 13 05:10  09 54 47.91    +38 52 19.6   350074 0.9957 137.5 A   17?  17.59  93.8   20 304 102  11
   2024 03 13 05:20  09 55 03.14    +38 52 08.6   350224 0.9957 137.5 A   17?  18.11  93.6   18 305 102  11
   2024 03 13 05:30  09 55 18.82    +38 51 57.9   350372 0.9957 137.6 N   17?  18.63  93.3   17 306 102  11
   2024 03 13 05:40  09 55 34.94    +38 51 47.8   350518 0.9957 137.6 N   17?  19.14  93.1   15 307 102  11
   2024 03 13 05:50  09 55 51.50    +38 51 38.4   350662 0.9957 137.6 N   17?  19.65  92.8   14 309 102  11
   2024 03 13 06:00  09 56 08.50    +38 51 29.8   350802 0.9958 137.7 N   17?  20.14  92.5   12 310 102  12
   2024 03 13 06:10  09 56 25.92    +38 51 22.0   350940 0.9958 137.7 C   17?  20.64  92.2   11 311 102  12
   2024 03 13 06:20  09 56 43.76    +38 51 15.3   351074 0.9958 137.7 C   17?  21.12  91.8   10 313 102  12
   ................
   2024 03 13 18:30  10 21 55.80    +40 26 57.9   344719 0.9959 138.7 Cm  17?  18.40  44.4   38  65  99  15
   2024 03 13 18:40  10 22 06.82    +40 29 09.3   344489 0.9959 138.6 Cm  17?  17.98  43.5   40  66  99  15
   2024 03 13 18:50  10 22 17.42    +40 31 19.3   344261 0.9959 138.6 Nm  17?  17.55  42.6   41  67  99  15
   2024 03 13 19:00  10 22 27.61    +40 33 27.9   344034 0.9959 138.6 Nm  17?  17.12  41.8   43  68  99  15
   2024 03 13 19:10  10 22 37.38    +40 35 35.0   343810 0.9959 138.6 Nm  17?  16.69  41.0   45  69  99  15
   2024 03 13 19:20  10 22 46.76    +40 37 40.4   343588 0.9959 138.6 Am  17?  16.26  40.2   47  70  99  15
   2024 03 13 19:30  10 22 55.74    +40 39 43.9   343369 0.9959 138.5 Am  17?  15.83  39.4   48  71  99  15
   2024 03 13 19:40  10 23 04.34    +40 41 45.5   343154 0.9959 138.5 Am  17?  15.40  38.6   50  72  99  16
   2024 03 13 19:50  10 23 12.58    +40 43 45.0   342941 0.9959 138.5 Am  17?  14.97  37.9   52  73  98  16
   2024 03 13 20:00  10 23 20.45    +40 45 42.3   342732 0.9959 138.5  m  17?  14.54  37.2   54  74  98  16
   2024 03 13 20:10  10 23 27.98    +40 47 37.2   342526 0.9959 138.4  m  17?  14.12  36.5   56  75  98  16
   2024 03 13 20:20  10 23 35.17    +40 49 29.7   342325 0.9959 138.4  m  17?  13.69  35.9   57  75  98  16
   2024 03 13 20:30  10 23 42.05    +40 51 19.6   342127 0.9959 138.4  m  17?  13.27  35.3   59  76  98  16
   2024 03 13 20:40  10 23 48.62    +40 53 06.8   341934 0.9959 138.4  m  17?  12.85  34.7   61  77  98  16
   2024 03 13 20:50  10 23 54.91    +40 54 51.2   341746 0.9959 138.4  m  17?  12.44  34.3   63  78  98  16
   2024 03 13 21:00  10 24 00.92    +40 56 32.8   341562 0.9959 138.3  m  17?  12.02  33.9   65  79  98  16
   2024 03 13 21:10  10 24 06.67    +40 58 11.3   341382 0.9959 138.3  m  17?  11.61  33.5   67  79  98  16
   2024 03 13 21:20  10 24 12.18    +40 59 46.8   341208 0.9959 138.3  m  17?  11.21  33.3   68  80  98  16
   2024 03 13 21:30  10 24 17.47    +41 01 19.1   341039 0.9959 138.3  m  17?  10.81  33.1   70  81  98  16
   2024 03 13 21:40  10 24 22.56    +41 02 48.1   340875 0.9959 138.3  m  17?  10.41  33.1   72  82  98  16
   2024 03 13 21:50  10 24 27.47    +41 04 13.8   340716 0.9959 138.2  m  17?  10.02  33.2   74  82  98  16
   2024 03 13 22:00  10 24 32.20    +41 05 36.2   340563 0.9959 138.2  m  17?   9.64  33.4   76  83  97  16
   2024 03 13 22:10  10 24 36.80    +41 06 55.1   340415 0.9959 138.2  m  17?   9.26  33.8   78  84  97  16
   2024 03 13 22:20  10 24 41.26    +41 08 10.5   340273 0.9959 138.2  m  17?   8.89  34.3   80  84  97  16
   2024 03 13 22:30  10 24 45.62    +41 09 22.3   340136 0.9959 138.2  m  17?   8.54  35.1   81  85  97  16
   2024 03 13 22:40  10 24 49.90    +41 10 30.6   340006 0.9959 138.2     17?   8.20  36.0   83  85  97  17
   2024 03 13 22:50  10 24 54.11    +41 11 35.2   339881 0.9959 138.1     17?   7.87  37.2   85  85  97  17
   2024 03 13 23:00  10 24 58.28    +41 12 36.2   339762 0.9959 138.1     17?   7.56  38.7   87  84  97  17
   2024 03 13 23:10  10 25 02.43    +41 13 33.6   339648 0.9959 138.1     17?   7.26  40.4   89  65  97  17
   2024 03 13 23:20  10 25 06.58    +41 14 27.2   339541 0.9959 138.1  t  17?   6.99  42.4   88 280  97  17
   2024 03 13 23:30  10 25 10.74    +41 15 17.2   339439 0.9959 138.1     17?   6.75  44.7   86 275  97  17
   2024 03 13 23:40  10 25 14.96    +41 16 03.5   339343 0.9959 138.1     17?   6.54  47.4   84 275  97  17
   2024 03 13 23:50  10 25 19.23    +41 16 46.1   339253 0.9959 138.1     17?   6.36  50.3   82 275  96  17
   2024 03 14 00:00  10 25 23.59    +41 17 25.1   339168 0.9959 138.1     17?   6.22  53.5   81 275  96  17
   2024 03 14 00:10  10 25 28.06    +41 18 00.5   339089 0.9959 138.1     17?   6.12  57.0   79 276  96  17
   2024 03 14 00:20  10 25 32.65    +41 18 32.2   339016 0.9959 138.0     17?   6.07  60.6   77 276  96  17
   2024 03 14 00:30  10 25 37.39    +41 19 00.4   338948 0.9959 138.0     17?   6.06  64.3   75 277  96  17
   2024 03 14 00:40  10 25 42.30    +41 19 25.1   338886 0.9959 138.0     17?   6.10  68.1   73 278  96  17
   2024 03 14 00:50  10 25 47.40    +41 19 46.4   338828 0.9959 138.0     17?   6.19  71.8   71 279  96  17
   2024 03 14 01:00  10 25 52.70    +41 20 04.2   338776 0.9959 138.0     17?   6.33  75.4   69 279  96  18
   2024 03 14 01:10  10 25 58.24    +41 20 18.7   338729 0.9959 138.0     17?   6.52  78.8   68 280  96  18
   2024 03 14 01:20  10 26 04.02    +41 20 30.0   338687 0.9959 138.0     17?   6.75  82.0   66 281  96  18
   2024 03 14 01:30  10 26 10.06    +41 20 38.1   338650 0.9959 138.0     17?   7.02  84.8   64 282  96  18
   2024 03 14 01:40  10 26 16.39    +41 20 43.0   338617 0.9959 138.0     17?   7.33  87.5   62 282  95  18
   2024 03 14 01:50  10 26 23.02    +41 20 45.0   338589 0.9959 138.0     17?   7.67  89.8   60 283  95  18
   2024 03 14 02:00  10 26 29.97    +41 20 44.1   338565 0.9959 138.0     17?   8.04  91.8   58 284  95  18
   2024 03 14 02:10  10 26 37.25    +41 20 40.3   338545 0.9959 138.1     17?   8.44  93.6   57 285  95  18
   2024 03 14 02:20  10 26 44.88    +41 20 33.8   338529 0.9960 138.1     17?   8.86  95.2   55 286  95  18
   2024 03 14 02:30  10 26 52.87    +41 20 24.8   338516 0.9960 138.1     17?   9.30  96.5   53 287  95  18
   2024 03 14 02:40  10 27 01.24    +41 20 13.3   338507 0.9960 138.1     17?   9.76  97.6   51 288  95  18
   2024 03 14 02:50  10 27 10.01    +41 19 59.4   338501 0.9960 138.1     17?  10.24  98.6   49 288  95  18
   2024 03 14 03:00  10 27 19.18    +41 19 43.3   338498 0.9960 138.1     17?  10.73  99.3   48 289  95  18
   2024 03 14 03:10  10 27 28.76    +41 19 25.1   338498 0.9960 138.1     17?  11.23 100.0   46 290  95  19
   2024 03 14 03:20  10 27 38.77    +41 19 04.9   338500 0.9960 138.1     17?  11.74 100.4   44 291  95  19
   2024 03 14 03:30  10 27 49.22    +41 18 42.9   338504 0.9960 138.1     17?  12.27 100.8   42 292  95  19
   2024 03 14 03:40  10 28 00.12    +41 18 19.2   338510 0.9960 138.2     17?  12.80 101.1   41 293  94  19
   2024 03 14 03:50  10 28 11.47    +41 17 53.9   338518 0.9960 138.2     17?  13.34 101.3   39 294  94  19
   2024 03 14 04:00  10 28 23.28    +41 17 27.2   338528 0.9960 138.2     17?  13.88 101.4   37 295  94  19
   2024 03 14 04:10  10 28 35.57    +41 16 59.2   338538 0.9960 138.2     17?  14.43 101.5   36 296  94  19
   2024 03 14 04:20  10 28 48.33    +41 16 30.1   338550 0.9960 138.2     17?  14.98 101.5   34 297  94  19
   2024 03 14 04:30  10 29 01.57    +41 16 00.0   338562 0.9960 138.3     17?  15.54 101.4   32 298  94  19
   2024 03 14 04:40  10 29 15.30    +41 15 29.1   338574 0.9960 138.3     17?  16.09 101.3   31 299  94  19
   2024 03 14 04:50  10 29 29.51    +41 14 57.5   338587 0.9960 138.3     17?  16.65 101.1   29 300  94  19
   2024 03 14 05:00  10 29 44.22    +41 14 25.4   338599 0.9960 138.3 A   17?  17.21 100.9   28 301  94  19
   2024 03 14 05:10  10 29 59.42    +41 13 52.9   338611 0.9960 138.3 A   17?  17.76 100.7   26 302  94  20
   2024 03 14 05:20  10 30 15.12    +41 13 20.1   338622 0.9960 138.4 A   17?  18.32 100.4   24 303  94  20
   2024 03 14 05:30  10 30 31.31    +41 12 47.3   338631 0.9960 138.4 N   17?  18.87 100.1   23 304  94  20
   2024 03 14 05:40  10 30 47.99    +41 12 14.5   338640 0.9960 138.4 N   17?  19.41  99.8   21 306  94  20
   2024 03 14 05:50  10 31 05.17    +41 11 42.0   338647 0.9960 138.5 N   17?  19.96  99.5   20 307  94  20
   2024 03 14 06:00  10 31 22.83    +41 11 09.8   338652 0.9960 138.5 C   17?  20.50  99.1   18 308  94  20
   2024 03 14 06:10  10 31 40.98    +41 10 38.1   338654 0.9960 138.5 C   17?  21.03  98.7   17 309  93  20
   2024 03 14 06:20  10 31 59.61    +41 10 07.1   338655 0.9960 138.5 C   17?  21.56  98.3   16 310  93  20
   ................
   2024 03 14 18:30  11 01 22.21    +42 20 25.8   323331 0.9960 139.0 Cm  17?  21.79  54.3   33  60  91  24
   2024 03 14 18:40  11 01 37.89    +42 22 33.1   322957 0.9961 139.0 Cm  17?  21.33  53.6   34  61  91  25
   2024 03 14 18:50  11 01 53.09    +42 24 39.6   322585 0.9961 138.9 Nm  17?  20.86  52.9   36  62  91  25
   2024 03 14 19:00  11 02 07.84    +42 26 45.2   322213 0.9961 138.9 Nm  17?  20.38  52.3   38  63  91  25
   2024 03 14 19:10  11 02 22.13    +42 28 49.7   321842 0.9961 138.9 Nm  17?  19.91  51.6   39  63  91  25
   2024 03 14 19:20  11 02 35.97    +42 30 52.9   321473 0.9961 138.8 Am  17?  19.43  51.0   41  64  91  25
   2024 03 14 19:30  11 02 49.36    +42 32 54.7   321105 0.9961 138.8 Am  17?  18.95  50.4   43  65  91  25
   2024 03 14 19:40  11 03 02.30    +42 34 54.9   320739 0.9961 138.8 Am  17?  18.47  49.9   44  66  91  25
   2024 03 14 19:50  11 03 14.82    +42 36 53.4   320375 0.9961 138.8 Am  17?  17.98  49.3   46  67  91  25
   2024 03 14 20:00  11 03 26.91    +42 38 50.0   320014 0.9961 138.7  m  17?  17.50  48.8   48  68  91  25
   2024 03 14 20:10  11 03 38.59    +42 40 44.6   319655 0.9961 138.7  m  17?  17.02  48.3   50  68  91  25
   2024 03 14 20:20  11 03 49.87    +42 42 37.0   319299 0.9961 138.7  m  17?  16.54  47.9   51  69  91  25
   2024 03 14 20:30  11 04 00.76    +42 44 27.1   318947 0.9961 138.7  m  17?  16.06  47.5   53  70  91  25
   2024 03 14 20:40  11 04 11.27    +42 46 14.7   318597 0.9961 138.6  m  17?  15.58  47.1   55  71  91  25
   2024 03 14 20:50  11 04 21.41    +42 47 59.7   318251 0.9961 138.6  m  16?  15.11  46.8   57  71  91  25
   2024 03 14 21:00  11 04 31.20    +42 49 42.0   317908 0.9961 138.6  m  16?  14.64  46.6   58  72  91  25
   2024 03 14 21:10  11 04 40.65    +42 51 21.4   317569 0.9961 138.6  m  16?  14.17  46.5   60  73  91  25
   2024 03 14 21:20  11 04 49.79    +42 52 57.8   317235 0.9961 138.5  m  16?  13.71  46.4   62  73  91  25
   2024 03 14 21:30  11 04 58.62    +42 54 31.1   316904 0.9961 138.5  m  16?  13.25  46.4   64  74  91  25
   2024 03 14 21:40  11 05 07.16    +42 56 01.2   316578 0.9961 138.5  m  16?  12.80  46.5   66  74  90  26
   2024 03 14 21:50  11 05 15.43    +42 57 28.0   316256 0.9961 138.5  m  16?  12.36  46.7   67  75  90  26
   2024 03 14 22:00  11 05 23.46    +42 58 51.3   315939 0.9961 138.5  m  16?  11.93  47.1   69  75  90  26
   2024 03 14 22:10  11 05 31.25    +43 00 11.0   315627 0.9961 138.4  m  16?  11.50  47.5   71  75  90  26
   2024 03 14 22:20  11 05 38.84    +43 01 27.2   315319 0.9961 138.4  m  16?  11.09  48.2   73  75  90  26
   2024 03 14 22:30  11 05 46.23    +43 02 39.6   315017 0.9961 138.4  m  16?  10.70  48.9   75  75  90  26
   2024 03 14 22:40  11 05 53.46    +43 03 48.3   314719 0.9961 138.4  m  16?  10.31  49.9   76  75  90  26
   2024 03 14 22:50  11 06 00.54    +43 04 53.1   314427 0.9961 138.4  m  16?   9.95  51.1   78  74  90  26
   2024 03 14 23:00  11 06 07.49    +43 05 54.0   314140 0.9961 138.3  m  16?   9.61  52.4   80  73  90  26
   2024 03 14 23:10  11 06 14.34    +43 06 50.9   313858 0.9961 138.3  m  16?   9.28  54.0   82  70  90  26
   2024 03 14 23:20  11 06 21.11    +43 07 43.8   313581 0.9961 138.3  m  16?   8.99  55.8   84  66  90  26
   2024 03 14 23:30  11 06 27.82    +43 08 32.7   313310 0.9961 138.3  m  16?   8.72  57.8   85  58  90  26
   2024 03 14 23:40  11 06 34.50    +43 09 17.4   313045 0.9961 138.3  m  16?   8.49  60.1   87  40  90  26
   2024 03 14 23:50  11 06 41.16    +43 09 58.0   312784 0.9961 138.3  m  16?   8.29  62.5   87   0  90  26
   2024 03 15 00:00  11 06 47.85    +43 10 34.5   312529 0.9961 138.3  t  16?   8.13  65.2   87 320  90  26
   2024 03 15 00:10  11 06 54.56    +43 11 06.9   312280 0.9961 138.3     16?   8.01  68.0   85 302  89  27
   2024 03 15 00:20  11 07 01.34    +43 11 35.1   312036 0.9961 138.3     16?   7.94  71.0   84 294  89  27
   2024 03 15 00:30  11 07 08.21    +43 11 59.2   311797 0.9961 138.3     16?   7.92  74.1   82 289  89  27
   2024 03 15 00:40  11 07 15.18    +43 12 19.2   311563 0.9961 138.3     16?   7.94  77.2   80 287  89  27
   2024 03 15 00:50  11 07 22.28    +43 12 35.1   311335 0.9961 138.2     16?   8.02  80.3   78 286  89  27
   2024 03 15 01:00  11 07 29.54    +43 12 46.9   311112 0.9961 138.2     16?   8.14  83.3   76 285  89  27
   2024 03 15 01:10  11 07 36.97    +43 12 54.7   310894 0.9961 138.2     16?   8.31  86.2   75 285  89  27
   2024 03 15 01:20  11 07 44.61    +43 12 58.5   310681 0.9961 138.2     16?   8.52  89.0   73 284  89  27
   2024 03 15 01:30  11 07 52.47    +43 12 58.4   310472 0.9961 138.2     16?   8.78  91.6   71 285  89  27
   2024 03 15 01:40  11 08 00.57    +43 12 54.5   310269 0.9961 138.2     16?   9.08  93.9   69 285  89  27
   2024 03 15 01:50  11 08 08.95    +43 12 46.7   310070 0.9961 138.3     16?   9.42  96.1   67 285  89  27
   2024 03 15 02:00  11 08 17.61    +43 12 35.3   309876 0.9961 138.3     16?   9.79  98.0   66 286  89  27
   2024 03 15 02:10  11 08 26.58    +43 12 20.2   309686 0.9961 138.3     16?  10.19  99.7   64 286  89  28
   2024 03 15 02:20  11 08 35.88    +43 12 01.6   309500 0.9961 138.3     16?  10.62 101.2   62 287  89  28
   2024 03 15 02:30  11 08 45.53    +43 11 39.6   309318 0.9961 138.3     16?  11.08 102.5   60 287  88  28
   2024 03 15 02:40  11 08 55.55    +43 11 14.2   309140 0.9961 138.3     16?  11.55 103.7   58 288  88  28
   2024 03 15 02:50  11 09 05.96    +43 10 45.6   308966 0.9961 138.3     16?  12.05 104.6   57 288  88  28
   2024 03 15 03:00  11 09 16.77    +43 10 13.9   308795 0.9961 138.3     16?  12.57 105.5   55 289  88  28
   2024 03 15 03:10  11 09 28.00    +43 09 39.2   308628 0.9961 138.3     16?  13.10 106.1   53 290  88  28
   2024 03 15 03:20  11 09 39.67    +43 09 01.7   308463 0.9961 138.3     16?  13.65 106.7   51 290  88  28
   2024 03 15 03:30  11 09 51.79    +43 08 21.4   308302 0.9961 138.4     16?  14.21 107.1   50 291  88  28
   2024 03 15 03:40  11 10 04.38    +43 07 38.5   308143 0.9961 138.4     16?  14.79 107.5   48 292  88  28
   2024 03 15 03:50  11 10 17.45    +43 06 53.2   307986 0.9961 138.4     16?  15.37 107.7   46 293  88  28
   2024 03 15 04:00  11 10 31.02    +43 06 05.6   307832 0.9961 138.4     16?  15.97 107.9   45 294  88  29
   2024 03 15 04:10  11 10 45.08    +43 05 15.8   307679 0.9961 138.4     16?  16.57 108.0   43 294  88  29
   2024 03 15 04:20  11 10 59.67    +43 04 24.0   307528 0.9961 138.4     16?  17.17 108.0   41 295  88  29
   2024 03 15 04:30  11 11 14.78    +43 03 30.3   307379 0.9961 138.5     16?  17.79 108.0   40 296  88  29
   2024 03 15 04:40  11 11 30.43    +43 02 35.0   307230 0.9961 138.5     16?  18.40 107.9   38 297  88  29
   2024 03 15 04:50  11 11 46.62    +43 01 38.1   307083 0.9961 138.5     16?  19.02 107.7   36 298  88  29
   2024 03 15 05:00  11 12 03.37    +43 00 39.8   306936 0.9961 138.5 A   16?  19.65 107.5   35 299  88  29
   2024 03 15 05:10  11 12 20.67    +42 59 40.3   306790 0.9961 138.5 A   16?  20.27 107.3   33 300  88  29
   2024 03 15 05:20  11 12 38.53    +42 58 39.8   306644 0.9961 138.6 A   16?  20.90 107.1   31 301  87  29
   2024 03 15 05:30  11 12 56.96    +42 57 38.3   306497 0.9961 138.6 N   16?  21.53 106.8   30 302  87  29
   2024 03 15 05:40  11 13 15.96    +42 56 36.2   306351 0.9961 138.6 N   16?  22.15 106.5   28 303  87  30
   2024 03 15 05:50  11 13 35.53    +42 55 33.5   306203 0.9961 138.6 N   16?  22.78 106.1   27 304  87  30
   2024 03 15 06:00  11 13 55.68    +42 54 30.4   306055 0.9961 138.7 C   16?  23.40 105.8   25 305  87  30
   2024 03 15 06:10  11 14 16.40    +42 53 27.0   305905 0.9961 138.7 C   16?  24.02 105.4   24 306  87  30
   ................
   2024 03 15 18:30  11 52 30.47    +43 22 40.0   280235 0.9961 138.4 Cm  16?  30.15  67.7   26  54  87  35
   2024 03 15 18:40  11 52 55.70    +43 24 34.9   279696 0.9961 138.3 Cm  16?  29.63  67.3   27  55  87  35
   2024 03 15 18:50  11 53 20.44    +43 26 29.8   279155 0.9961 138.3 Nm  16?  29.11  66.9   29  56  87  35
   2024 03 15 19:00  11 53 44.67    +43 28 24.5   278614 0.9961 138.3 Nm  16?  28.58  66.5   30  57  87  35
   2024 03 15 19:10  11 54 08.40    +43 30 18.8   278073 0.9961 138.2 Nm  16?  28.04  66.2   32  58  87  35
   2024 03 15 19:20  11 54 31.61    +43 32 12.4   277531 0.9961 138.2 Nm  16?  27.50  65.8   33  59  87  35
   2024 03 15 19:30  11 54 54.33    +43 34 05.3   276989 0.9961 138.1 Am  16?  26.95  65.5   35  60  87  35
   2024 03 15 19:40  11 55 16.53    +43 35 57.2   276447 0.9961 138.1 Am  16?  26.40  65.2   37  60  87  35
   2024 03 15 19:50  11 55 38.24    +43 37 47.9   275906 0.9961 138.1 Am  16?  25.84  64.9   38  61  87  35
   2024 03 15 20:00  11 55 59.45    +43 39 37.2   275365 0.9961 138.0  m  16?  25.29  64.7   40  62  87  35
   2024 03 15 20:10  11 56 20.16    +43 41 25.1   274826 0.9961 138.0  m  16?  24.73  64.5   41  63  87  35
   2024 03 15 20:20  11 56 40.39    +43 43 11.2   274288 0.9961 138.0  m  16?  24.17  64.4   43  64  87  35
   2024 03 15 20:30  11 57 00.14    +43 44 55.4   273751 0.9961 137.9  m  16?  23.61  64.3   45  65  87  35
   2024 03 15 20:40  11 57 19.42    +43 46 37.5   273216 0.9961 137.9  m  16?  23.05  64.2   46  65  87  35
   2024 03 15 20:50  11 57 38.24    +43 48 17.3   272682 0.9961 137.8  m  16?  22.49  64.2   48  66  87  35
   2024 03 15 21:00  11 57 56.60    +43 49 54.7   272151 0.9961 137.8  m  16?  21.94  64.2   50  67  87  36
   2024 03 15 21:10  11 58 14.53    +43 51 29.4   271622 0.9961 137.8  m  16?  21.39  64.3   52  67  87  36
   2024 03 15 21:20  11 58 32.02    +43 53 01.3   271096 0.9961 137.7  m  16?  20.85  64.5   53  68  87  36
   2024 03 15 21:30  11 58 49.11    +43 54 30.3   270573 0.9961 137.7  m  16?  20.31  64.7   55  69  87  36
   2024 03 15 21:40  11 59 05.79    +43 55 56.1   270052 0.9961 137.7  m  16?  19.79  65.0   57  69  87  36
   2024 03 15 21:50  11 59 22.09    +43 57 18.5   269535 0.9961 137.7  m  16?  19.27  65.4   58  70  87  36
   2024 03 15 22:00  11 59 38.03    +43 58 37.5   269020 0.9961 137.6  m  16?  18.77  65.9   60  70  87  36
   2024 03 15 22:10  11 59 53.61    +43 59 52.9   268510 0.9961 137.6  m  16?  18.28  66.5   62  71  87  36
   2024 03 15 22:20  12 00 08.87    +44 01 04.5   268002 0.9961 137.6  m  16?  17.80  67.2   64  71  87  36
   2024 03 15 22:30  12 00 23.81    +44 02 12.2   267499 0.9961 137.5  m  16?  17.35  68.0   65  71  87  36
   2024 03 15 22:40  12 00 38.46    +44 03 15.9   266999 0.9961 137.5  m  16?  16.91  68.9   67  72  86  36
   2024 03 15 22:50  12 00 52.84    +44 04 15.3   266504 0.9961 137.5  m  16?  16.50  69.9   69  72  86  36
   2024 03 15 23:00  12 01 06.98    +44 05 10.5   266013 0.9961 137.5  m  16?  16.11  71.1   71  72  86  36
   2024 03 15 23:10  12 01 20.89    +44 06 01.2   265525 0.9961 137.4  m  16?  15.75  72.3   73  72  86  36
   2024 03 15 23:20  12 01 34.59    +44 06 47.3   265043 0.9961 137.4  m  16?  15.41  73.7   74  71  86  36
   2024 03 15 23:30  12 01 48.13    +44 07 28.9   264564 0.9961 137.4  m  16?  15.12  75.2   76  70  86  36
   2024 03 15 23:40  12 02 01.51    +44 08 05.7   264091 0.9961 137.4  m  16?  14.85  76.9   78  69  86  37
   2024 03 15 23:50  12 02 14.76    +44 08 37.6   263621 0.9961 137.4  m  16?  14.63  78.6   79  67  86  37
   2024 03 16 00:00  12 02 27.92    +44 09 04.7   263157 0.9961 137.4  m  16?  14.45  80.5   81  64  86  37
   2024 03 16 00:10  12 02 41.00    +44 09 26.8   262697 0.9961 137.4  m  16?  14.31  82.4   83  59  86  37
   2024 03 16 00:20  12 02 54.03    +44 09 43.9   262242 0.9961 137.3  m  16?  14.22  84.4   84  50  86  37
   2024 03 16 00:30  12 03 07.05    +44 09 55.8   261792 0.9961 137.3  m  16?  14.17  86.5   86  34  86  37
   2024 03 16 00:40  12 03 20.07    +44 10 02.7   261346 0.9961 137.3  m  16?  14.17  88.5   86   8  86  37
   2024 03 16 00:50  12 03 33.13    +44 10 04.4   260905 0.9961 137.3  t  16?  14.22  90.6   86 337  86  37
   2024 03 16 01:00  12 03 46.25    +44 10 00.9   260469 0.9961 137.3  m  16?  14.32  92.7   85 316  86  37
   2024 03 16 01:10  12 03 59.47    +44 09 52.2   260038 0.9961 137.3     16?  14.48  94.7   84 304  86  37
   2024 03 16 01:20  12 04 12.81    +44 09 38.3   259612 0.9961 137.3     16?  14.67  96.7   82 297  86  37
   2024 03 16 01:30  12 04 26.30    +44 09 19.2   259190 0.9961 137.3     16?  14.92  98.6   80 293  86  37
   2024 03 16 01:40  12 04 39.97    +44 08 54.9   258773 0.9961 137.3     16?  15.21 100.4   79 291  86  38
   2024 03 16 01:50  12 04 53.84    +44 08 25.5   258360 0.9961 137.3     16?  15.55 102.1   77 289  86  38
   2024 03 16 02:00  12 05 07.95    +44 07 50.9   257952 0.9961 137.3     16?  15.93 103.7   75 288  86  38
   2024 03 16 02:10  12 05 22.31    +44 07 11.2   257548 0.9961 137.3     16?  16.35 105.2   73 288  86  38
   2024 03 16 02:20  12 05 36.97    +44 06 26.4   257148 0.9961 137.3     16?  16.80 106.5   72 287  86  38
   2024 03 16 02:30  12 05 51.95    +44 05 36.7   256753 0.9961 137.3     16?  17.29 107.8   70 287  86  38
   2024 03 16 02:40  12 06 07.27    +44 04 42.1   256362 0.9961 137.3     16?  17.82 108.9   68 287  86  38
   2024 03 16 02:50  12 06 22.95    +44 03 42.6   255975 0.9961 137.3     16?  18.37 109.9   66 288  86  38
   2024 03 16 03:00  12 06 39.04    +44 02 38.3   255591 0.9961 137.3     16?  18.95 110.8   65 288  86  38
   2024 03 16 03:10  12 06 55.54    +44 01 29.4   255211 0.9961 137.3     16?  19.56 111.5   63 288  85  38
   2024 03 16 03:20  12 07 12.49    +44 00 16.0   254835 0.9961 137.4     16?  20.19 112.2   61 289  85  38
   2024 03 16 03:30  12 07 29.90    +43 58 58.0   254462 0.9961 137.4     16?  20.85 112.8   59 289  85  39
   2024 03 16 03:40  12 07 47.81    +43 57 35.8   254092 0.9961 137.4     16?  21.52 113.2   58 289  85  39
   2024 03 16 03:50  12 08 06.23    +43 56 09.3   253726 0.9961 137.4     16?  22.22 113.6   56 290  85  39
   2024 03 16 04:00  12 08 25.19    +43 54 38.7   253362 0.9961 137.4     16?  22.93 114.0   54 291  85  39
   2024 03 16 04:10  12 08 44.70    +43 53 04.2   253000 0.9961 137.4     16?  23.65 114.2   53 291  85  39
   2024 03 16 04:20  12 09 04.79    +43 51 25.9   252642 0.9961 137.4     16?  24.39 114.4   51 292  85  39
   2024 03 16 04:30  12 09 25.48    +43 49 43.9   252285 0.9961 137.5     16?  25.15 114.5   49 293  85  39
   2024 03 16 04:40  12 09 46.77    +43 47 58.4   251930 0.9961 137.5     16?  25.91 114.6   47 293  85  39
   2024 03 16 04:50  12 10 08.70    +43 46 09.5   251577 0.9961 137.5     16?  26.69 114.6   46 294  85  39
   2024 03 16 05:00  12 10 31.27    +43 44 17.5   251226 0.9961 137.5 A   16?  27.47 114.5   44 295  85  39
   2024 03 16 05:10  12 10 54.50    +43 42 22.5   250876 0.9961 137.5 A   16?  28.27 114.5   42 296  85  39
   2024 03 16 05:20  12 11 18.41    +43 40 24.6   250527 0.9960 137.5 A   16?  29.07 114.3   41 296  85  40
   2024 03 16 05:30  12 11 43.00    +43 38 24.0   250179 0.9960 137.6 N   16?  29.88 114.2   39 297  85  40
   2024 03 16 05:40  12 12 08.30    +43 36 21.0   249831 0.9960 137.6 N   16?  30.69 114.0   38 298  85  40
   2024 03 16 05:50  12 12 34.30    +43 34 15.6   249484 0.9960 137.6 N   16?  31.50 113.8   36 299  85  40
   2024 03 16 06:00  12 13 01.02    +43 32 08.1   249137 0.9960 137.6 C   16?  32.32 113.5   34 300  85  40
   2024 03 16 06:10  12 13 28.47    +43 29 58.6   248789 0.9960 137.6 C   16?  33.14 113.3   33 301  85  40
   ................
   2024 03 16 18:30  13 11 25.48    +42 01 15.0   209608 0.9959 135.1 Cm  15?  56.06  87.6   14  46  89  45
   2024 03 16 18:40  13 12 15.28    +42 01 39.6   208846 0.9959 135.0 Cm  15?  55.61  87.5   15  47  89  45
   2024 03 16 18:50  13 13 04.68    +42 02 04.8   208080 0.9959 135.0 Nm  15?  55.15  87.5   17  48  89  45
   2024 03 16 19:00  13 13 53.66    +42 02 30.3   207310 0.9959 134.9 Nm  15?  54.68  87.4   18  49  89  45
   2024 03 16 19:10  13 14 42.21    +42 02 56.1   206537 0.9959 134.8 Nm  15?  54.19  87.4   19  51  89  46
   2024 03 16 19:20  13 15 30.32    +42 03 21.8   205761 0.9959 134.7 Nm  15?  53.69  87.4   21  52  89  46
   2024 03 16 19:30  13 16 17.98    +42 03 47.3   204982 0.9959 134.6 Am  15?  53.18  87.4   22  53  90  46
   2024 03 16 19:40  13 17 05.19    +42 04 12.3   204200 0.9959 134.5 Am  15?  52.67  87.4   23  54  90  46
   2024 03 16 19:50  13 17 51.93    +42 04 36.6   203416 0.9959 134.5 Am  15?  52.14  87.5   25  55  90  46
   2024 03 16 20:00  13 18 38.20    +42 05 00.0   202630 0.9959 134.4  m  15?  51.61  87.6   26  56  90  46
   2024 03 16 20:10  13 19 24.00    +42 05 22.2   201842 0.9959 134.3  m  15?  51.07  87.7   28  57  90  46
   2024 03 16 20:20  13 20 09.32    +42 05 43.0   201052 0.9959 134.2  m  15?  50.53  87.8   29  58  90  46
   2024 03 16 20:30  13 20 54.16    +42 06 02.1   200260 0.9959 134.1  m  15?  49.99  88.0   31  59  90  46
   2024 03 16 20:40  13 21 38.51    +42 06 19.3   199467 0.9959 134.0  m  15?  49.44  88.2   32  60  90  46
   2024 03 16 20:50  13 22 22.38    +42 06 34.4   198673 0.9959 134.0  m  15?  48.90  88.5   34  61  90  46
   2024 03 16 21:00  13 23 05.77    +42 06 47.1   197879 0.9959 133.9  m  15?  48.36  88.8   35  62  90  46
   2024 03 16 21:10  13 23 48.68    +42 06 57.2   197083 0.9959 133.8  m  15?  47.82  89.1   37  63  90  46
   2024 03 16 21:20  13 24 31.11    +42 07 04.3   196288 0.9959 133.7  m  15?  47.29  89.5   39  64  90  46
   2024 03 16 21:30  13 25 13.07    +42 07 08.2   195492 0.9959 133.7  m  15?  46.77  89.9   40  64  90  46
   2024 03 16 21:40  13 25 54.56    +42 07 08.7   194696 0.9959 133.6  m  15?  46.25  90.3   42  65  90  46
   2024 03 16 21:50  13 26 35.59    +42 07 05.6   193900 0.9959 133.5  m  15?  45.75  90.8   43  66  90  46
   2024 03 16 22:00  13 27 16.18    +42 06 58.4   193105 0.9959 133.4  m  15?  45.27  91.3   45  67  90  46
   2024 03 16 22:10  13 27 56.31    +42 06 47.0   192310 0.9959 133.4  m  15?  44.80  91.9   47  68  90  46
   2024 03 16 22:20  13 28 36.02    +42 06 31.2   191516 0.9959 133.3  m  15?  44.36  92.5   48  69  91  47
   2024 03 16 22:30  13 29 15.32    +42 06 10.6   190724 0.9959 133.2  m  15?  43.93  93.2   50  70  91  47
   2024 03 16 22:40  13 29 54.20    +42 05 44.9   189932 0.9959 133.2  m  15?  43.53  93.9   52  70  91  47
   2024 03 16 22:50  13 30 32.70    +42 05 14.0   189142 0.9959 133.1  m  15?  43.16  94.6   53  71  91  47
   2024 03 16 23:00  13 31 10.83    +42 04 37.6   188353 0.9959 133.0  m  15?  42.82  95.4   55  72  91  47
   2024 03 16 23:10  13 31 48.61    +42 03 55.4   187566 0.9959 133.0  m  15?  42.51  96.3   57  73  91  47
   2024 03 16 23:20  13 32 26.05    +42 03 07.2   186781 0.9959 132.9  m  15?  42.24  97.2   58  73  91  47
   2024 03 16 23:30  13 33 03.18    +42 02 12.7   185998 0.9959 132.9  m  15?  42.00  98.1   60  74  91  47
   2024 03 16 23:40  13 33 40.01    +42 01 11.6   185217 0.9959 132.8  m  15?  41.81  99.1   62  75  91  47
   2024 03 16 23:50  13 34 16.58    +42 00 03.8   184438 0.9959 132.8  m  15?  41.66 100.0   63  76  91  47
   2024 03 17 00:00  13 34 52.90    +41 58 49.0   183662 0.9959 132.7  m  15?  41.55 101.0   65  76  91  47
   2024 03 17 00:10  13 35 29.01    +41 57 27.0   182889 0.9959 132.7  m  15?  41.49 102.1   67  77  91  47
   2024 03 17 00:20  13 36 04.92    +41 55 57.4   182118 0.9959 132.6  m  15?  41.49 103.2   69  78  91  47
   2024 03 17 00:30  13 36 40.68    +41 54 20.3   181350 0.9959 132.6  m  15?  41.53 104.2   70  78  91  47
   2024 03 17 00:40  13 37 16.30    +41 52 35.2   180584 0.9959 132.5  m  15?  41.63 105.4   72  79  91  47
   2024 03 17 00:50  13 37 51.81    +41 50 42.0   179822 0.9959 132.5  m  15?  41.79 106.5   74  80  91  48
   2024 03 17 01:00  13 38 27.26    +41 48 40.6   179063 0.9959 132.4  m  15?  42.00 107.6   76  80  91  48
   2024 03 17 01:10  13 39 02.66    +41 46 30.6   178307 0.9959 132.4  m  15?  42.27 108.7   77  81  91  48
   2024 03 17 01:20  13 39 38.07    +41 44 12.0   177554 0.9959 132.3  m  15?  42.60 109.8   79  81  91  48
   2024 03 17 01:30  13 40 13.50    +41 41 44.5   176804 0.9959 132.3  m  15?  42.99 110.9   81  81  91  48
   2024 03 17 01:40  13 40 48.99    +41 39 08.1   176058 0.9959 132.3  m  15?  43.44 111.9   83  81  92  48
   2024 03 17 01:50  13 41 24.59    +41 36 22.5   175315 0.9959 132.2  m  15?  43.95 113.0   85  80  92  48
   2024 03 17 02:00  13 42 00.32    +41 33 27.6   174575 0.9959 132.2  m  15?  44.51 114.0   86  78  92  48
   2024 03 17 02:10  13 42 36.23    +41 30 23.2   173839 0.9958 132.2  m  15?  45.14 114.9   88  69  92  48
   2024 03 17 02:20  13 43 12.34    +41 27 09.3   173106 0.9958 132.1  t  15?  45.82 115.9   89 319  92  48
   2024 03 17 02:30  13 43 48.71    +41 23 45.7   172377 0.9958 132.1     15?  46.56 116.8   87 281  92  48
   2024 03 17 02:40  13 44 25.37    +41 20 12.3   171650 0.9958 132.1     15?  47.36 117.6   86 276  92  48
   2024 03 17 02:50  13 45 02.36    +41 16 29.1   170927 0.9958 132.0     15?  48.22 118.4   84 275  92  49
   2024 03 17 03:00  13 45 39.71    +41 12 35.8   170208 0.9958 132.0     15?  49.12 119.2   82 274  92  49
   2024 03 17 03:10  13 46 17.47    +41 08 32.5   169491 0.9958 132.0     15?  50.09 119.9   80 274  92  49
   2024 03 17 03:20  13 46 55.68    +41 04 19.1   168778 0.9958 132.0     15?  51.10 120.6   78 275  92  49
   2024 03 17 03:30  13 47 34.38    +40 59 55.5   168068 0.9958 131.9     15?  52.16 121.2   77 275  92  49
   2024 03 17 03:40  13 48 13.60    +40 55 21.7   167361 0.9958 131.9     15?  53.27 121.7   75 276  92  49
   2024 03 17 03:50  13 48 53.39    +40 50 37.7   166657 0.9958 131.9     15?  54.43 122.3   73 276  92  49
   2024 03 17 04:00  13 49 33.78    +40 45 43.3   165956 0.9958 131.9     15?  55.64 122.7   71 277  92  49
   2024 03 17 04:10  13 50 14.82    +40 40 38.7   165257 0.9958 131.8     15?  56.89 123.2   70 277  93  49
   2024 03 17 04:20  13 50 56.54    +40 35 23.8   164562 0.9958 131.8     15?  58.18 123.5   68 278  93  49
   2024 03 17 04:30  13 51 38.99    +40 29 58.6   163868 0.9958 131.8     15?  59.51 123.9   66 279  93  49
   2024 03 17 04:40  13 52 22.19    +40 24 23.1   163178 0.9958 131.8     15?  60.89 124.2   64 279  93  50
   2024 03 17 04:50  13 53 06.20    +40 18 37.3   162489 0.9958 131.7     15?  62.30 124.4   63 280  93  50
   2024 03 17 05:00  13 53 51.04    +40 12 41.3   161803 0.9958 131.7 A   15?  63.75 124.7   61 281  93  50
   2024 03 17 05:10  13 54 36.75    +40 06 35.1   161119 0.9958 131.7 A   15?  65.24 124.8   59 281  93  50
   2024 03 17 05:20  13 55 23.36    +40 00 18.8   160436 0.9958 131.6 A   15?  66.77 125.0   57 282  93  50
   2024 03 17 05:30  13 56 10.92    +39 53 52.3   159755 0.9958 131.6 N   15?  68.32 125.1   56 283  93  50
   2024 03 17 05:40  13 56 59.45    +39 47 15.8   159076 0.9958 131.6 N   15?  69.91 125.2   54 283  93  50
   2024 03 17 05:50  13 57 48.99    +39 40 29.3   158398 0.9958 131.6 N   15?  71.54 125.3   52 284  94  50
   2024 03 17 06:00  13 58 39.58    +39 33 32.8   157722 0.9958 131.5 C   15?  73.19 125.3   50 285  94  50
   2024 03 17 06:10  13 59 31.23    +39 26 26.5   157046 0.9958 131.5 C   15?  74.88 125.3   49 286  94  50
   ................
   

Euclid (JPL-ID: -680)

   Date (UTC) HH:MM   RA              Dec         delta   r     elong SM  mag  '/hr    PA   alt  az moo ill
   ---- -- -- -----  -------------   -----------  ------ ------ ----- --  --- ------ ------ --- --- --- ---
   2024 03 04 00:00  09 08 49.41    +18 46 42.0   0.0103 1.0006 150.4     20?   2.21 206.4   61 225 124  45
   2024 03 04 00:10  09 08 48.74    +18 46 22.0   0.0103 1.0006 150.4     20?   2.22 204.9   59 229 124  45
   2024 03 04 00:20  09 08 48.10    +18 46 01.6   0.0103 1.0006 150.3     20?   2.24 203.3   58 232 124  45
   2024 03 04 00:30  09 08 47.50    +18 45 40.9   0.0103 1.0006 150.3     20?   2.25 201.6   56 236 124  45
   2024 03 04 00:40  09 08 46.94    +18 45 19.9   0.0103 1.0006 150.3     20?   2.26 199.8   55 239 125  45
   2024 03 04 00:50  09 08 46.42    +18 44 58.5   0.0103 1.0006 150.3     20?   2.27 198.0   53 242 125  45
   2024 03 04 01:00  09 08 45.95    +18 44 36.7   0.0103 1.0006 150.3     20?   2.28 196.0   51 245 125  45
   2024 03 04 01:10  09 08 45.54    +18 44 14.7   0.0103 1.0006 150.3     20?   2.29 194.0   50 247 125  45
   2024 03 04 01:20  09 08 45.18    +18 43 52.4   0.0103 1.0006 150.3     20?   2.30 191.9   48 250 125  45
   2024 03 04 01:30  09 08 44.87    +18 43 29.7   0.0103 1.0006 150.3     20?   2.31 189.7   46 252 125  45
   2024 03 04 01:40  09 08 44.63    +18 43 06.8   0.0103 1.0006 150.3     20?   2.33 187.5   44 254 125  45
   2024 03 04 01:50  09 08 44.45    +18 42 43.6   0.0103 1.0006 150.3     20?   2.34 185.2   42 256 125  44
   2024 03 04 02:00  09 08 44.34    +18 42 20.2   0.0103 1.0006 150.3     20?   2.36 182.9   41 258 125  44
   2024 03 04 02:10  09 08 44.29    +18 41 56.5   0.0103 1.0006 150.3     20?   2.38 180.5   39 260 125  44
   2024 03 04 02:20  09 08 44.31    +18 41 32.5   0.0103 1.0006 150.3  m  20?   2.40 178.1   37 262 125  44
   2024 03 04 02:30  09 08 44.41    +18 41 08.4   0.0103 1.0006 150.3  m  20?   2.43 175.6   35 264 125  44
   2024 03 04 02:40  09 08 44.58    +18 40 44.1   0.0103 1.0006 150.3  m  20?   2.46 173.2   33 266 126  44
   2024 03 04 02:50  09 08 44.82    +18 40 19.6   0.0103 1.0006 150.3  m  20?   2.49 170.7   31 267 126  44
   2024 03 04 03:00  09 08 45.15    +18 39 54.9   0.0103 1.0006 150.3  m  20?   2.53 168.3   29 269 126  44
   2024 03 04 03:10  09 08 45.55    +18 39 30.0   0.0103 1.0006 150.3  m  20?   2.57 165.9   27 271 126  44
   2024 03 04 03:20  09 08 46.03    +18 39 05.1   0.0103 1.0007 150.3  m  20?   2.61 163.5   26 272 126  44
   2024 03 04 03:30  09 08 46.60    +18 38 40.0   0.0103 1.0007 150.3  m  20?   2.66 161.1   24 274 126  44
   2024 03 04 03:40  09 08 47.25    +18 38 14.8   0.0103 1.0007 150.3  m  20?   2.71 158.8   22 275 126  44
   2024 03 04 03:50  09 08 47.98    +18 37 49.5   0.0104 1.0007 150.3  m  20?   2.76 156.5   20 277 126  44
   2024 03 04 04:00  09 08 48.80    +18 37 24.1   0.0104 1.0007 150.2  m  20?   2.82 154.3   18 278 126  44
   2024 03 04 04:10  09 08 49.71    +18 36 58.7   0.0104 1.0007 150.2  m  20?   2.88 152.2   16 280 126  44
   2024 03 04 04:20  09 08 50.70    +18 36 33.3   0.0104 1.0007 150.2  m  20?   2.94 150.1   14 281 126  44
   2024 03 04 04:30  09 08 51.77    +18 36 07.8   0.0104 1.0007 150.2  m  20?   3.00 148.1   12 283 126  44
   2024 03 04 04:40  09 08 52.94    +18 35 42.3   0.0104 1.0007 150.2  m  20?   3.07 146.1   11 284 126  43
   2024 03 04 04:50  09 08 54.19    +18 35 16.8   0.0104 1.0007 150.2  m  20?   3.14 144.2    9 286 126  43
   2024 03 04 05:00  09 08 55.52    +18 34 51.4   0.0104 1.0007 150.2  m  20?   3.21 142.4    7 288 126  43
   2024 03 04 05:10  09 08 56.94    +18 34 26.0   0.0104 1.0007 150.2  m  20?   3.28 140.7    5 289 126  43
   2024 03 04 05:20  09 08 58.45    +18 34 00.7   0.0104 1.0007 150.2 Am  20?   3.35 139.0    3 291 127  43
   2024 03 04 05:30  09 09 00.04    +18 33 35.5   0.0104 1.0007 150.3 Am  20?   3.43 137.4    2 292 127  43
   2024 03 04 05:40  09 09 01.72    +18 33 10.4   0.0104 1.0007 150.3 Am  20?   3.50 135.8    0 294 127  43
   ................
   2024 03 04 18:20  09 11 54.71    +18 14 30.1   0.0103 1.0008 150.5 C   20?   0.99 154.0   31  92 132  38
   2024 03 04 18:30  09 11 54.97    +18 14 21.0   0.0103 1.0008 150.5 C   20?   0.97 160.3   33  94 133  38
   2024 03 04 18:40  09 11 55.17    +18 14 11.8   0.0103 1.0008 150.5 N   20?   0.96 166.8   35  96 133  38
   2024 03 04 18:50  09 11 55.28    +18 14 02.4   0.0103 1.0008 150.5 N   20?   0.96 173.1   36  97 133  38
   2024 03 04 19:00  09 11 55.33    +18 13 52.8   0.0103 1.0008 150.5 N   20?   0.98 179.2   38  99 133  38
   2024 03 04 19:10  09 11 55.31    +18 13 42.9   0.0103 1.0008 150.5 A   20?   1.00 184.8   40 101 133  37
   2024 03 04 19:20  09 11 55.21    +18 13 32.8   0.0103 1.0008 150.4 A   20?   1.04 189.9   42 103 133  37
   2024 03 04 19:30  09 11 55.06    +18 13 22.4   0.0103 1.0008 150.4 A   20?   1.08 194.4   44 105 133  37
   2024 03 04 19:40  09 11 54.84    +18 13 11.8   0.0103 1.0008 150.4 A   20?   1.14 198.4   46 107 133  37
   2024 03 04 19:50  09 11 54.56    +18 13 00.8   0.0103 1.0008 150.4     20?   1.19 201.7   47 110 134  37
   2024 03 04 20:00  09 11 54.22    +18 12 49.6   0.0103 1.0008 150.4     20?   1.25 204.6   49 112 134  37
   2024 03 04 20:10  09 11 53.83    +18 12 38.1   0.0103 1.0008 150.4     20?   1.31 207.1   51 115 134  37
   2024 03 04 20:20  09 11 53.38    +18 12 26.2   0.0103 1.0008 150.4     20?   1.37 209.1   53 118 134  37
   2024 03 04 20:30  09 11 52.89    +18 12 14.1   0.0103 1.0008 150.4     20?   1.43 210.8   54 120 134  37
   2024 03 04 20:40  09 11 52.36    +18 12 01.6   0.0103 1.0008 150.4     20?   1.50 212.2   56 124 134  37
   2024 03 04 20:50  09 11 51.78    +18 11 48.7   0.0103 1.0008 150.4     20?   1.56 213.3   57 127 134  37
   2024 03 04 21:00  09 11 51.16    +18 11 35.5   0.0103 1.0008 150.4     20?   1.61 214.1   59 131 134  36
   2024 03 04 21:10  09 11 50.51    +18 11 22.0   0.0103 1.0008 150.4     20?   1.67 214.8   60 135 135  36
   2024 03 04 21:20  09 11 49.83    +18 11 08.1   0.0103 1.0008 150.4     20?   1.72 215.2   62 139 135  36
   2024 03 04 21:30  09 11 49.12    +18 10 53.8   0.0103 1.0008 150.3     20?   1.78 215.5   63 143 135  36
   2024 03 04 21:40  09 11 48.38    +18 10 39.1   0.0103 1.0008 150.3     20?   1.83 215.7   64 148 135  36
   2024 03 04 21:50  09 11 47.63    +18 10 24.1   0.0103 1.0008 150.3     20?   1.87 215.6   65 153 135  36
   2024 03 04 22:00  09 11 46.85    +18 10 08.7   0.0103 1.0008 150.3     20?   1.92 215.5   65 159 135  36
   2024 03 04 22:10  09 11 46.07    +18 09 52.9   0.0103 1.0008 150.3     20?   1.96 215.2   66 165 135  36
   2024 03 04 22:20  09 11 45.27    +18 09 36.7   0.0103 1.0008 150.3     20?   1.99 214.8   66 170 135  36
   2024 03 04 22:30  09 11 44.47    +18 09 20.2   0.0103 1.0008 150.3     20?   2.03 214.3   67 177 136  36
   2024 03 04 22:40  09 11 43.67    +18 09 03.2   0.0103 1.0008 150.3  t  20?   2.06 213.7   67 183 136  35
   2024 03 04 22:50  09 11 42.87    +18 08 45.9   0.0103 1.0008 150.3     20?   2.09 213.0   66 189 136  35
   2024 03 04 23:00  09 11 42.08    +18 08 28.2   0.0103 1.0008 150.3     20?   2.12 212.2   66 195 136  35
   2024 03 04 23:10  09 11 41.30    +18 08 10.0   0.0103 1.0008 150.3     20?   2.14 211.2   65 201 136  35
   2024 03 04 23:20  09 11 40.53    +18 07 51.6   0.0103 1.0008 150.3     20?   2.16 210.2   65 206 136  35
   2024 03 04 23:30  09 11 39.77    +18 07 32.7   0.0103 1.0008 150.2     20?   2.18 209.1   64 211 136  35
   2024 03 04 23:40  09 11 39.04    +18 07 13.4   0.0103 1.0008 150.2     20?   2.20 207.9   63 216 136  35
   2024 03 04 23:50  09 11 38.34    +18 06 53.8   0.0103 1.0008 150.2     20?   2.21 206.6   61 220 136  35
   2024 03 05 00:00  09 11 37.66    +18 06 33.9   0.0103 1.0008 150.2     20?   2.23 205.2   60 225 136  35
   2024 03 05 00:10  09 11 37.01    +18 06 13.5   0.0103 1.0008 150.2     20?   2.24 203.7   59 228 137  35
   2024 03 05 00:20  09 11 36.40    +18 05 52.9   0.0103 1.0008 150.2     20?   2.25 202.1   57 232 137  35
   2024 03 05 00:30  09 11 35.83    +18 05 31.8   0.0103 1.0008 150.2     20?   2.26 200.4   56 235 137  35
   2024 03 05 00:40  09 11 35.30    +18 05 10.5   0.0103 1.0008 150.2     20?   2.27 198.6   54 239 137  34
   2024 03 05 00:50  09 11 34.82    +18 04 48.8   0.0103 1.0008 150.2     20?   2.28 196.8   52 241 137  34
   2024 03 05 01:00  09 11 34.38    +18 04 26.8   0.0103 1.0008 150.2     20?   2.29 194.8   51 244 137  34
   2024 03 05 01:10  09 11 34.00    +18 04 04.5   0.0103 1.0008 150.2     20?   2.30 192.8   49 247 137  34
   2024 03 05 01:20  09 11 33.67    +18 03 41.9   0.0103 1.0008 150.2     20?   2.31 190.7   47 249 137  34
   2024 03 05 01:30  09 11 33.40    +18 03 19.0   0.0103 1.0008 150.2     20?   2.33 188.5   46 251 137  34
   2024 03 05 01:40  09 11 33.19    +18 02 55.9   0.0103 1.0008 150.2     20?   2.34 186.3   44 254 137  34
   2024 03 05 01:50  09 11 33.04    +18 02 32.5   0.0103 1.0008 150.2     20?   2.36 184.0   42 256 138  34
   2024 03 05 02:00  09 11 32.96    +18 02 08.8   0.0103 1.0008 150.1     20?   2.38 181.7   40 258 138  34
   2024 03 05 02:10  09 11 32.95    +18 01 44.9   0.0103 1.0008 150.1     20?   2.40 179.3   38 260 138  34
   2024 03 05 02:20  09 11 33.01    +18 01 20.8   0.0103 1.0008 150.1     20?   2.43 176.9   36 262 138  34
   2024 03 05 02:30  09 11 33.14    +18 00 56.5   0.0103 1.0008 150.1     20?   2.45 174.4   34 263 138  34
   2024 03 05 02:40  09 11 33.35    +18 00 32.0   0.0103 1.0008 150.1     20?   2.48 172.0   32 265 138  34
   2024 03 05 02:50  09 11 33.63    +18 00 07.3   0.0103 1.0008 150.1     20?   2.52 169.6   31 267 138  34
   2024 03 05 03:00  09 11 33.99    +17 59 42.4   0.0103 1.0008 150.1     20?   2.56 167.2   29 268 138  34
   2024 03 05 03:10  09 11 34.43    +17 59 17.4   0.0103 1.0008 150.1     20?   2.60 164.8   27 270 138  33
   2024 03 05 03:20  09 11 34.95    +17 58 52.3   0.0103 1.0008 150.1     20?   2.64 162.4   25 272 138  33
   2024 03 05 03:30  09 11 35.55    +17 58 27.0   0.0103 1.0008 150.1  m  20?   2.69 160.1   23 273 138  33
   2024 03 05 03:40  09 11 36.24    +17 58 01.7   0.0103 1.0008 150.1  m  20?   2.74 157.8   21 275 138  33
   2024 03 05 03:50  09 11 37.01    +17 57 36.3   0.0103 1.0008 150.1  m  20?   2.80 155.5   19 276 138  33
   2024 03 05 04:00  09 11 37.87    +17 57 10.8   0.0103 1.0009 150.1  m  20?   2.86 153.3   17 278 139  33
   2024 03 05 04:10  09 11 38.81    +17 56 45.2   0.0103 1.0009 150.1  m  20?   2.92 151.2   15 280 139  33
   2024 03 05 04:20  09 11 39.84    +17 56 19.7   0.0103 1.0009 150.1  m  20?   2.98 149.2   14 281 139  33
   2024 03 05 04:30  09 11 40.96    +17 55 54.1   0.0103 1.0009 150.1  m  20?   3.05 147.2   12 283 139  33
   2024 03 05 04:40  09 11 42.16    +17 55 28.5   0.0103 1.0009 150.1  m  20?   3.12 145.3   10 284 139  33
   2024 03 05 04:50  09 11 43.45    +17 55 02.9   0.0103 1.0009 150.1  m  20?   3.19 143.4    8 286 139  33
   2024 03 05 05:00  09 11 44.82    +17 54 37.3   0.0103 1.0009 150.1  m  20?   3.26 141.6    6 287 139  33
   2024 03 05 05:10  09 11 46.28    +17 54 11.8   0.0103 1.0009 150.1  m  20?   3.33 139.9    4 289 139  33
   2024 03 05 05:20  09 11 47.83    +17 53 46.4   0.0103 1.0009 150.1 Am  20?   3.40 138.3    3 290 139  33
   2024 03 05 05:30  09 11 49.46    +17 53 21.0   0.0103 1.0009 150.1 Am  20?   3.48 136.7    1 292 139  33
   2024 03 05 05:40  09 11 51.17    +17 52 55.8   0.0103 1.0009 150.1 Am  20?   3.56 135.2    0 294 139  33
   ................
   2024 03 05 18:20  09 14 46.46    +17 33 43.1   0.0102 1.0010 150.4 C   20?   1.07 154.0   31  93 145  28
   2024 03 05 18:30  09 14 46.74    +17 33 33.4   0.0102 1.0010 150.3 C   20?   1.04 159.9   32  95 145  28
   2024 03 05 18:40  09 14 46.96    +17 33 23.6   0.0102 1.0010 150.3 N   20?   1.03 165.9   34  96 145  28
   2024 03 05 18:50  09 14 47.10    +17 33 13.5   0.0102 1.0010 150.3 N   20?   1.03 171.9   36  98 145  27
   2024 03 05 19:00  09 14 47.16    +17 33 03.2   0.0102 1.0010 150.3 N   20?   1.04 177.6   38 100 145  27
   2024 03 05 19:10  09 14 47.16    +17 32 52.7   0.0102 1.0010 150.3 A   20?   1.06 182.9   40 102 146  27
   2024 03 05 19:20  09 14 47.09    +17 32 42.0   0.0102 1.0010 150.3 A   20?   1.10 187.8   42 104 146  27
   2024 03 05 19:30  09 14 46.95    +17 32 31.0   0.0102 1.0010 150.3 A   20?   1.14 192.2   44 106 146  27
   2024 03 05 19:40  09 14 46.75    +17 32 19.7   0.0102 1.0010 150.3 A   20?   1.19 196.1   45 108 146  27
   2024 03 05 19:50  09 14 46.50    +17 32 08.2   0.0102 1.0010 150.3     20?   1.24 199.4   47 111 146  27
   2024 03 05 20:00  09 14 46.18    +17 31 56.4   0.0102 1.0010 150.3     20?   1.29 202.3   49 113 146  27
   2024 03 05 20:10  09 14 45.81    +17 31 44.2   0.0102 1.0010 150.3     20?   1.35 204.8   51 116 146  27
   2024 03 05 20:20  09 14 45.39    +17 31 31.8   0.0102 1.0010 150.3     20?   1.41 206.9   52 119 146  27
   2024 03 05 20:30  09 14 44.92    +17 31 19.1   0.0102 1.0010 150.3     20?   1.47 208.6   54 122 147  27
   2024 03 05 20:40  09 14 44.41    +17 31 06.0   0.0102 1.0010 150.3     20?   1.53 210.1   56 125 147  26
   2024 03 05 20:50  09 14 43.86    +17 30 52.6   0.0102 1.0010 150.3     20?   1.59 211.2   57 128 147  26
   2024 03 05 21:00  09 14 43.26    +17 30 38.9   0.0102 1.0010 150.2     20?   1.64 212.2   59 132 147  26
   2024 03 05 21:10  09 14 42.64    +17 30 24.8   0.0102 1.0010 150.2     20?   1.70 212.9   60 136 147  26
   2024 03 05 21:20  09 14 41.98    +17 30 10.3   0.0102 1.0010 150.2     20?   1.75 213.4   61 140 147  26
   2024 03 05 21:30  09 14 41.29    +17 29 55.5   0.0102 1.0010 150.2     20?   1.80 213.8   62 144 147  26
   2024 03 05 21:40  09 14 40.58    +17 29 40.4   0.0102 1.0010 150.2     20?   1.85 213.9   63 149 147  26
   2024 03 05 21:50  09 14 39.85    +17 29 24.9   0.0102 1.0010 150.2     20?   1.89 214.0   64 154 148  26
   2024 03 05 22:00  09 14 39.11    +17 29 09.0   0.0102 1.0010 150.2     20?   1.94 213.9   65 160 148  26
   2024 03 05 22:10  09 14 38.35    +17 28 52.7   0.0102 1.0010 150.2     20?   1.98 213.6   65 165 148  26
   2024 03 05 22:20  09 14 37.58    +17 28 36.1   0.0102 1.0010 150.2     20?   2.01 213.3   66 171 148  26
   2024 03 05 22:30  09 14 36.81    +17 28 19.0   0.0102 1.0010 150.2     20?   2.05 212.8   66 177 148  25
   2024 03 05 22:40  09 14 36.03    +17 28 01.7   0.0102 1.0010 150.2  t  20?   2.08 212.2   66 183 148  25
   2024 03 05 22:50  09 14 35.26    +17 27 43.9   0.0102 1.0010 150.2     20?   2.11 211.5   66 189 148  25
   2024 03 05 23:00  09 14 34.50    +17 27 25.8   0.0102 1.0010 150.1     20?   2.13 210.7   65 195 148  25
   2024 03 05 23:10  09 14 33.74    +17 27 07.2   0.0102 1.0010 150.1     20?   2.15 209.8   65 201 149  25
   2024 03 05 23:20  09 14 33.00    +17 26 48.4   0.0102 1.0010 150.1     20?   2.17 208.8   64 206 149  25
   2024 03 05 23:30  09 14 32.28    +17 26 29.1   0.0102 1.0010 150.1     20?   2.19 207.7   63 211 149  25
   2024 03 05 23:40  09 14 31.58    +17 26 09.5   0.0102 1.0010 150.1     20?   2.21 206.5   62 216 149  25
   2024 03 05 23:50  09 14 30.90    +17 25 49.6   0.0102 1.0010 150.1     20?   2.23 205.2   61 220 149  25
   2024 03 06 00:00  09 14 30.26    +17 25 29.2   0.0102 1.0010 150.1     20?   2.24 203.8   59 224 149  25
   2024 03 06 00:10  09 14 29.64    +17 25 08.6   0.0102 1.0010 150.1     20?   2.25 202.4   58 228 149  25
   2024 03 06 00:20  09 14 29.06    +17 24 47.6   0.0102 1.0010 150.1     20?   2.26 200.8   57 232 149  25
   2024 03 06 00:30  09 14 28.53    +17 24 26.3   0.0102 1.0010 150.1     20?   2.27 199.1   55 235 149  24
   2024 03 06 00:40  09 14 28.03    +17 24 04.6   0.0102 1.0010 150.1     20?   2.28 197.3   53 238 150  24
   2024 03 06 00:50  09 14 27.58    +17 23 42.7   0.0102 1.0010 150.1     20?   2.29 195.5   52 241 150  24
   2024 03 06 01:00  09 14 27.18    +17 23 20.4   0.0102 1.0010 150.1     20?   2.31 193.5   50 244 150  24
   2024 03 06 01:10  09 14 26.83    +17 22 57.8   0.0102 1.0010 150.1     20?   2.32 191.5   48 246 150  24
   2024 03 06 01:20  09 14 26.54    +17 22 35.0   0.0102 1.0010 150.0     20?   2.33 189.4   47 249 150  24
   2024 03 06 01:30  09 14 26.30    +17 22 11.9   0.0102 1.0010 150.0     20?   2.34 187.2   45 251 150  24
   2024 03 06 01:40  09 14 26.13    +17 21 48.5   0.0102 1.0010 150.0     20?   2.36 185.0   43 253 150  24
   2024 03 06 01:50  09 14 26.02    +17 21 24.8   0.0102 1.0010 150.0     20?   2.38 182.7   41 255 150  24
   2024 03 06 02:00  09 14 25.97    +17 21 01.0   0.0102 1.0010 150.0     20?   2.40 180.4   39 257 150  24
   2024 03 06 02:10  09 14 26.00    +17 20 36.9   0.0102 1.0010 150.0     20?   2.42 178.0   38 259 150  24
   2024 03 06 02:20  09 14 26.09    +17 20 12.6   0.0102 1.0010 150.0     20?   2.45 175.6   36 261 151  24
   2024 03 06 02:30  09 14 26.26    +17 19 48.1   0.0102 1.0010 150.0     20?   2.48 173.2   34 263 151  24
   2024 03 06 02:40  09 14 26.51    +17 19 23.4   0.0102 1.0010 150.0     20?   2.51 170.8   32 265 151  24
   2024 03 06 02:50  09 14 26.83    +17 18 58.5   0.0102 1.0010 150.0     20?   2.55 168.4   30 266 151  23
   2024 03 06 03:00  09 14 27.23    +17 18 33.5   0.0102 1.0010 150.0     20?   2.59 166.0   28 268 151  23
   2024 03 06 03:10  09 14 27.70    +17 18 08.3   0.0102 1.0010 150.0     20?   2.63 163.6   26 270 151  23
   2024 03 06 03:20  09 14 28.26    +17 17 43.1   0.0102 1.0010 150.0     20?   2.68 161.3   24 271 151  23
   2024 03 06 03:30  09 14 28.91    +17 17 17.7   0.0102 1.0010 150.0     20?   2.73 159.0   22 273 151  23
   2024 03 06 03:40  09 14 29.64    +17 16 52.2   0.0102 1.0010 150.0     20?   2.78 156.7   20 274 151  23
   2024 03 06 03:50  09 14 30.45    +17 16 26.6   0.0102 1.0010 150.0     20?   2.84 154.5   19 276 151  23
   2024 03 06 04:00  09 14 31.34    +17 16 01.0   0.0102 1.0010 150.0     20?   2.90 152.3   17 278 151  23
   2024 03 06 04:10  09 14 32.33    +17 15 35.3   0.0102 1.0011 150.0     20?   2.96 150.3   15 279 151  23
   2024 03 06 04:20  09 14 33.40    +17 15 09.6   0.0102 1.0011 150.0  m  20?   3.03 148.2   13 281 152  23
   2024 03 06 04:30  09 14 34.55    +17 14 43.9   0.0102 1.0011 150.0  m  20?   3.09 146.3   11 282 152  23
   2024 03 06 04:40  09 14 35.80    +17 14 18.2   0.0102 1.0011 150.0  m  20?   3.16 144.4    9 284 152  23
   2024 03 06 04:50  09 14 37.13    +17 13 52.5   0.0102 1.0011 150.0  m  20?   3.24 142.6    7 285 152  23
   2024 03 06 05:00  09 14 38.54    +17 13 26.8   0.0102 1.0011 150.0  m  20?   3.31 140.9    6 287 152  23
   2024 03 06 05:10  09 14 40.04    +17 13 01.2   0.0102 1.0011 150.0 Am  20?   3.38 139.2    4 288 152  23
   2024 03 06 05:20  09 14 41.63    +17 12 35.6   0.0102 1.0011 150.0 Am  20?   3.46 137.6    2 290 152  23
   2024 03 06 05:30  09 14 43.31    +17 12 10.2   0.0102 1.0011 150.0 Am  20?   3.54 136.0    0 292 152  23
   ................
   2024 03 06 18:20  09 17 42.89    +16 51 58.4   0.0102 1.0012 150.2 C   20?   1.14 153.9   30  94 158  18
   2024 03 06 18:30  09 17 43.20    +16 51 48.1   0.0102 1.0012 150.2 C   20?   1.12 159.3   32  95 158  18
   2024 03 06 18:40  09 17 43.44    +16 51 37.5   0.0102 1.0012 150.2 N   20?   1.10 164.9   34  97 158  18
   2024 03 06 18:50  09 17 43.60    +16 51 26.8   0.0102 1.0012 150.2 N   20?   1.10 170.5   36  99 158  18
   2024 03 06 19:00  09 17 43.70    +16 51 15.9   0.0102 1.0012 150.2 N   20?   1.11 175.8   38 101 158  18
   2024 03 06 19:10  09 17 43.72    +16 51 04.7   0.0102 1.0012 150.2 N   20?   1.13 180.9   40 103 158  18
   2024 03 06 19:20  09 17 43.67    +16 50 53.3   0.0102 1.0012 150.2 A   20?   1.16 185.6   42 105 159  18
   2024 03 06 19:30  09 17 43.56    +16 50 41.7   0.0102 1.0012 150.2 A   20?   1.19 189.9   43 107 159  18
   2024 03 06 19:40  09 17 43.39    +16 50 29.8   0.0102 1.0012 150.2 A   20?   1.24 193.7   45 109 159  18
   2024 03 06 19:50  09 17 43.16    +16 50 17.6   0.0102 1.0012 150.2     20?   1.29 197.0   47 112 159  18
   2024 03 06 20:00  09 17 42.87    +16 50 05.2   0.0102 1.0012 150.2     20?   1.34 199.9   49 114 159  17
   2024 03 06 20:10  09 17 42.52    +16 49 52.4   0.0102 1.0012 150.2     20?   1.39 202.4   50 117 159  17
   2024 03 06 20:20  09 17 42.13    +16 49 39.4   0.0102 1.0012 150.2     20?   1.45 204.5   52 120 159  17
   2024 03 06 20:30  09 17 41.69    +16 49 26.1   0.0102 1.0012 150.2     20?   1.50 206.4   54 123 159  17
   2024 03 06 20:40  09 17 41.20    +16 49 12.4   0.0102 1.0012 150.2     20?   1.56 207.9   55 126 160  17
   2024 03 06 20:50  09 17 40.67    +16 48 58.5   0.0102 1.0012 150.2     20?   1.62 209.1   57 129 160  17
   2024 03 06 21:00  09 17 40.11    +16 48 44.2   0.0102 1.0012 150.1     20?   1.67 210.1   58 133 160  17
   2024 03 06 21:10  09 17 39.51    +16 48 29.5   0.0102 1.0012 150.1     20?   1.72 210.9   59 137 160  17
   2024 03 06 21:20  09 17 38.88    +16 48 14.5   0.0102 1.0012 150.1     20?   1.78 211.5   61 141 160  17
   2024 03 06 21:30  09 17 38.22    +16 47 59.2   0.0102 1.0012 150.1     20?   1.82 211.9   62 146 160  17
   2024 03 06 21:40  09 17 37.54    +16 47 43.5   0.0102 1.0012 150.1     20?   1.87 212.1   63 150 160  17
   2024 03 06 21:50  09 17 36.84    +16 47 27.5   0.0102 1.0012 150.1     20?   1.91 212.2   64 155 160  17
   2024 03 06 22:00  09 17 36.12    +16 47 11.1   0.0102 1.0012 150.1     20?   1.96 212.1   64 161 161  16
   2024 03 06 22:10  09 17 35.39    +16 46 54.4   0.0102 1.0012 150.1     20?   1.99 212.0   65 166 161  16
   2024 03 06 22:20  09 17 34.66    +16 46 37.3   0.0102 1.0012 150.1     20?   2.03 211.6   65 172 161  16
   2024 03 06 22:30  09 17 33.92    +16 46 19.8   0.0102 1.0012 150.1     20?   2.06 211.2   65 178 161  16
   2024 03 06 22:40  09 17 33.17    +16 46 02.0   0.0102 1.0012 150.1  t  20?   2.09 210.7   65 184 161  16
   2024 03 06 22:50  09 17 32.43    +16 45 43.8   0.0102 1.0012 150.1     20?   2.12 210.0   65 190 161  16
   2024 03 06 23:00  09 17 31.70    +16 45 25.2   0.0102 1.0012 150.0     20?   2.15 209.2   65 195 161  16
   2024 03 06 23:10  09 17 30.98    +16 45 06.3   0.0102 1.0012 150.0     20?   2.17 208.3   64 201 161  16
   2024 03 06 23:20  09 17 30.27    +16 44 47.0   0.0102 1.0012 150.0     20?   2.19 207.4   63 206 162  16
   2024 03 06 23:30  09 17 29.58    +16 44 27.4   0.0102 1.0012 150.0     20?   2.21 206.3   62 211 162  16
   2024 03 06 23:40  09 17 28.91    +16 44 07.4   0.0102 1.0012 150.0     20?   2.22 205.1   61 215 162  16
   2024 03 06 23:50  09 17 28.27    +16 43 47.1   0.0102 1.0012 150.0     20?   2.24 203.8   60 220 162  16
   2024 03 07 00:00  09 17 27.66    +16 43 26.5   0.0102 1.0012 150.0     20?   2.25 202.4   59 224 162  16
   2024 03 07 00:10  09 17 27.08    +16 43 05.5   0.0102 1.0012 150.0     20?   2.26 200.9   57 228 162  15
   2024 03 07 00:20  09 17 26.54    +16 42 44.2   0.0102 1.0012 150.0     20?   2.28 199.4   56 231 162  15
   2024 03 07 00:30  09 17 26.03    +16 42 22.5   0.0102 1.0012 150.0     20?   2.29 197.7   54 234 162  15
   2024 03 07 00:40  09 17 25.57    +16 42 00.6   0.0102 1.0012 150.0     20?   2.30 195.9   53 238 162  15
   2024 03 07 00:50  09 17 25.16    +16 41 38.3   0.0102 1.0012 150.0     20?   2.31 194.1   51 240 163  15
   2024 03 07 01:00  09 17 24.79    +16 41 15.8   0.0102 1.0012 150.0     20?   2.32 192.1   49 243 163  15
   2024 03 07 01:10  09 17 24.48    +16 40 53.0   0.0102 1.0012 150.0     20?   2.33 190.1   48 246 163  15
   2024 03 07 01:20  09 17 24.23    +16 40 29.9   0.0102 1.0012 149.9     20?   2.35 188.0   46 248 163  15
   2024 03 07 01:30  09 17 24.03    +16 40 06.5   0.0102 1.0012 149.9     20?   2.36 185.9   44 250 163  15
   2024 03 07 01:40  09 17 23.90    +16 39 42.9   0.0102 1.0012 149.9     20?   2.38 183.6   42 253 163  15
   2024 03 07 01:50  09 17 23.82    +16 39 19.1   0.0102 1.0012 149.9     20?   2.40 181.4   41 255 163  15
   2024 03 07 02:00  09 17 23.82    +16 38 55.0   0.0102 1.0012 149.9     20?   2.42 179.0   39 257 163  15
   2024 03 07 02:10  09 17 23.88    +16 38 30.7   0.0102 1.0012 149.9     20?   2.44 176.7   37 259 163  15
   2024 03 07 02:20  09 17 24.02    +16 38 06.2   0.0102 1.0012 149.9     20?   2.47 174.3   35 261 163  15
   2024 03 07 02:30  09 17 24.23    +16 37 41.5   0.0102 1.0012 149.9     20?   2.50 171.9   33 262 164  15
   2024 03 07 02:40  09 17 24.51    +16 37 16.6   0.0102 1.0012 149.9     20?   2.54 169.5   31 264 164  14
   2024 03 07 02:50  09 17 24.87    +16 36 51.6   0.0102 1.0012 149.9     20?   2.58 167.1   29 266 164  14
   2024 03 07 03:00  09 17 25.32    +16 36 26.4   0.0102 1.0012 149.9     20?   2.62 164.7   27 268 164  14
   2024 03 07 03:10  09 17 25.84    +16 36 01.1   0.0102 1.0012 149.9     20?   2.66 162.4   26 269 164  14
   2024 03 07 03:20  09 17 26.44    +16 35 35.6   0.0102 1.0012 149.9     20?   2.71 160.1   24 271 164  14
   2024 03 07 03:30  09 17 27.12    +16 35 10.1   0.0102 1.0012 149.9     20?   2.76 157.8   22 272 164  14
   2024 03 07 03:40  09 17 27.89    +16 34 44.5   0.0102 1.0012 149.9     20?   2.82 155.6   20 274 164  14
   2024 03 07 03:50  09 17 28.75    +16 34 18.8   0.0102 1.0012 149.9     20?   2.88 153.4   18 276 164  14
   2024 03 07 04:00  09 17 29.69    +16 33 53.0   0.0102 1.0013 149.9     20?   2.94 151.3   16 277 164  14
   2024 03 07 04:10  09 17 30.72    +16 33 27.2   0.0102 1.0013 149.9     20?   3.01 149.3   14 279 164  14
   2024 03 07 04:20  09 17 31.83    +16 33 01.4   0.0102 1.0013 149.9     20?   3.07 147.3   12 280 164  14
   2024 03 07 04:30  09 17 33.03    +16 32 35.5   0.0102 1.0013 149.9     20?   3.14 145.4   10 282 165  14
   2024 03 07 04:40  09 17 34.32    +16 32 09.7   0.0102 1.0013 149.9     20?   3.22 143.5    9 283 165  14
   2024 03 07 04:50  09 17 35.69    +16 31 43.9   0.0102 1.0013 149.9     20?   3.29 141.7    7 285 165  14
   2024 03 07 05:00  09 17 37.15    +16 31 18.1   0.0102 1.0013 149.9     20?   3.36 140.0    5 287 165  14
   2024 03 07 05:10  09 17 38.70    +16 30 52.3   0.0102 1.0013 149.9 Am  20?   3.44 138.4    3 288 165  14
   2024 03 07 05:20  09 17 40.33    +16 30 26.7   0.0102 1.0013 149.9 Am  20?   3.52 136.8    1 290 165  14
   2024 03 07 05:30  09 17 42.05    +16 30 01.1   0.0102 1.0013 149.9 Am  20?   3.60 135.3    0 291 165  14
   ................
   2024 03 07 18:20  09 20 44.53    +16 09 13.9   0.0101 1.0014 150.2 C   20?   1.23 153.5   30  95 171  10
   2024 03 07 18:30  09 20 44.87    +16 09 02.8   0.0101 1.0014 150.2 C   20?   1.20 158.6   32  96 171  10
   2024 03 07 18:40  09 20 45.14    +16 08 51.6   0.0101 1.0014 150.2 C   20?   1.18 163.8   34  98 171  10
   2024 03 07 18:50  09 20 45.33    +16 08 40.2   0.0101 1.0014 150.2 N   20?   1.17 169.0   36 100 171  10
   2024 03 07 19:00  09 20 45.45    +16 08 28.6   0.0101 1.0014 150.1 N   20?   1.18 174.0   38 102 171  10
   2024 03 07 19:10  09 20 45.50    +16 08 16.7   0.0101 1.0014 150.1 N   20?   1.20 178.8   39 104 171  10
   2024 03 07 19:20  09 20 45.49    +16 08 04.7   0.0101 1.0014 150.1 A   20?   1.22 183.3   41 106 171  10
   2024 03 07 19:30  09 20 45.41    +16 07 52.4   0.0101 1.0014 150.1 A   20?   1.25 187.5   43 108 171  10
   2024 03 07 19:40  09 20 45.26    +16 07 39.8   0.0101 1.0014 150.1 A   20?   1.29 191.2   45 110 171  10
   2024 03 07 19:50  09 20 45.06    +16 07 27.0   0.0101 1.0014 150.1     20?   1.34 194.5   47 113 172  10
   2024 03 07 20:00  09 20 44.80    +16 07 13.9   0.0101 1.0014 150.1     20?   1.38 197.4   48 115 172   9
   2024 03 07 20:10  09 20 44.49    +16 07 00.6   0.0101 1.0014 150.1     20?   1.44 199.9   50 118 172   9
   2024 03 07 20:20  09 20 44.13    +16 06 46.9   0.0101 1.0014 150.1     20?   1.49 202.1   52 121 172   9
   2024 03 07 20:30  09 20 43.72    +16 06 33.0   0.0101 1.0014 150.1     20?   1.54 204.0   53 124 172   9
   2024 03 07 20:40  09 20 43.26    +16 06 18.7   0.0101 1.0014 150.1     20?   1.60 205.5   55 127 172   9
   2024 03 07 20:50  09 20 42.76    +16 06 04.2   0.0101 1.0014 150.1     20?   1.65 206.8   56 130 172   9
   2024 03 07 21:00  09 20 42.23    +16 05 49.3   0.0101 1.0014 150.1     20?   1.70 207.9   58 134 172   9
   2024 03 07 21:10  09 20 41.66    +16 05 34.1   0.0101 1.0014 150.1     20?   1.75 208.7   59 138 172   9
   2024 03 07 21:20  09 20 41.07    +16 05 18.6   0.0101 1.0014 150.1     20?   1.80 209.4   60 142 173   9
   2024 03 07 21:30  09 20 40.44    +16 05 02.7   0.0101 1.0014 150.0     20?   1.85 209.8   61 147 173   9
   2024 03 07 21:40  09 20 39.79    +16 04 46.5   0.0101 1.0014 150.0     20?   1.89 210.1   62 151 173   9
   2024 03 07 21:50  09 20 39.12    +16 04 29.9   0.0101 1.0014 150.0     20?   1.94 210.3   63 156 173   9
   2024 03 07 22:00  09 20 38.44    +16 04 13.1   0.0101 1.0014 150.0     20?   1.98 210.3   64 162 173   9
   2024 03 07 22:10  09 20 37.75    +16 03 55.8   0.0101 1.0014 150.0     20?   2.01 210.1   64 167 173   9
   2024 03 07 22:20  09 20 37.04    +16 03 38.2   0.0101 1.0014 150.0     20?   2.05 209.9   64 173 173   9
   2024 03 07 22:30  09 20 36.33    +16 03 20.3   0.0101 1.0014 150.0     20?   2.08 209.5   65 178 173   8
   2024 03 07 22:40  09 20 35.63    +16 03 02.0   0.0101 1.0014 150.0  t  20?   2.11 208.9   65 184 173   8
   2024 03 07 22:50  09 20 34.92    +16 02 43.4   0.0101 1.0014 150.0     20?   2.14 208.3   64 190 173   8
   2024 03 07 23:00  09 20 34.22    +16 02 24.4   0.0101 1.0014 150.0     20?   2.16 207.6   64 195 173   8
   2024 03 07 23:10  09 20 33.54    +16 02 05.0   0.0101 1.0014 150.0     20?   2.18 206.7   63 201 174   8
   2024 03 07 23:20  09 20 32.87    +16 01 45.4   0.0101 1.0014 150.0     20?   2.20 205.8   62 206 174   8
   2024 03 07 23:30  09 20 32.21    +16 01 25.4   0.0101 1.0014 149.9     20?   2.22 204.7   62 211 174   8
   2024 03 07 23:40  09 20 31.58    +16 01 05.0   0.0101 1.0014 149.9     20?   2.24 203.5   60 215 174   8
   2024 03 07 23:50  09 20 30.98    +16 00 44.3   0.0101 1.0014 149.9     20?   2.25 202.2   59 219 174   8
   2024 03 08 00:00  09 20 30.40    +16 00 23.3   0.0101 1.0014 149.9     20?   2.26 200.9   58 223 174   8
   2024 03 08 00:10  09 20 29.86    +16 00 02.0   0.0101 1.0014 149.9     20?   2.28 199.4   57 227 174   8
   2024 03 08 00:20  09 20 29.36    +15 59 40.4   0.0101 1.0014 149.9     20?   2.29 197.8   55 231 174   8
   2024 03 08 00:30  09 20 28.89    +15 59 18.4   0.0101 1.0014 149.9     20?   2.30 196.2   54 234 174   8
   2024 03 08 00:40  09 20 28.47    +15 58 56.2   0.0101 1.0014 149.9     20?   2.31 194.4   52 237 174   8
   2024 03 08 00:50  09 20 28.10    +15 58 33.6   0.0101 1.0014 149.9     20?   2.32 192.6   50 240 174   8
   2024 03 08 01:00  09 20 27.78    +15 58 10.8   0.0101 1.0014 149.9     20?   2.34 190.6   49 243 174   8
   2024 03 08 01:10  09 20 27.51    +15 57 47.7   0.0101 1.0014 149.9     20?   2.35 188.6   47 245 174   8
   2024 03 08 01:20  09 20 27.29    +15 57 24.4   0.0101 1.0014 149.9     20?   2.36 186.5   45 248 174   8
   2024 03 08 01:30  09 20 27.14    +15 57 00.8   0.0101 1.0014 149.9     20?   2.38 184.4   44 250 174   7
   2024 03 08 01:40  09 20 27.04    +15 56 36.9   0.0101 1.0014 149.9     20?   2.40 182.2   42 252 174   7
   2024 03 08 01:50  09 20 27.02    +15 56 12.8   0.0101 1.0014 149.9     20?   2.42 179.9   40 254 174   7
   2024 03 08 02:00  09 20 27.05    +15 55 48.5   0.0101 1.0014 149.9     20?   2.44 177.6   38 256 174   7
   2024 03 08 02:10  09 20 27.16    +15 55 24.0   0.0101 1.0014 149.8     20?   2.47 175.2   36 258 174   7
   2024 03 08 02:20  09 20 27.34    +15 54 59.3   0.0101 1.0014 149.8     20?   2.50 172.9   34 260 174   7
   2024 03 08 02:30  09 20 27.59    +15 54 34.4   0.0101 1.0014 149.8     20?   2.53 170.5   33 262 174   7
   2024 03 08 02:40  09 20 27.92    +15 54 09.4   0.0101 1.0014 149.8     20?   2.57 168.1   31 264 174   7
   2024 03 08 02:50  09 20 28.33    +15 53 44.2   0.0101 1.0014 149.8     20?   2.61 165.8   29 265 175   7
   2024 03 08 03:00  09 20 28.81    +15 53 18.8   0.0101 1.0014 149.8     20?   2.65 163.4   27 267 175   7
   2024 03 08 03:10  09 20 29.38    +15 52 53.4   0.0101 1.0014 149.8     20?   2.70 161.1   25 269 175   7
   2024 03 08 03:20  09 20 30.03    +15 52 27.8   0.0101 1.0014 149.8     20?   2.75 158.8   23 270 175   7
   2024 03 08 03:30  09 20 30.76    +15 52 02.1   0.0101 1.0015 149.8     20?   2.80 156.6   21 272 175   7
   2024 03 08 03:40  09 20 31.58    +15 51 36.3   0.0101 1.0015 149.8     20?   2.86 154.4   19 274 175   7
   2024 03 08 03:50  09 20 32.48    +15 51 10.5   0.0101 1.0015 149.8     20?   2.92 152.3   17 275 175   7
   2024 03 08 04:00  09 20 33.46    +15 50 44.6   0.0101 1.0015 149.8     20?   2.99 150.2   15 277 175   7
   2024 03 08 04:10  09 20 34.54    +15 50 18.6   0.0101 1.0015 149.8     20?   3.06 148.2   14 278 175   7
   2024 03 08 04:20  09 20 35.70    +15 49 52.7   0.0101 1.0015 149.8     20?   3.12 146.3   12 280 175   7
   2024 03 08 04:30  09 20 36.95    +15 49 26.7   0.0101 1.0015 149.8     20?   3.20 144.4   10 281 175   7
   2024 03 08 04:40  09 20 38.28    +15 49 00.7   0.0101 1.0015 149.8     20?   3.27 142.6    8 283 175   7
   2024 03 08 04:50  09 20 39.70    +15 48 34.8   0.0101 1.0015 149.8     20?   3.35 140.8    6 285 175   7
   2024 03 08 05:00  09 20 41.21    +15 48 08.8   0.0101 1.0015 149.8     20?   3.42 139.2    4 286 175   6
   2024 03 08 05:10  09 20 42.81    +15 47 43.0   0.0101 1.0015 149.8 A   20?   3.50 137.6    3 288 175   6
   2024 03 08 05:20  09 20 44.49    +15 47 17.2   0.0101 1.0015 149.8 A   20?   3.58 136.1    1 289 174   6
   2024 03 08 05:30  09 20 46.25    +15 46 51.4   0.0101 1.0015 149.8 A   20?   3.66 134.6    0 291 174   6
   ................
   2024 03 08 18:20  09 23 51.99    +15 25 26.9   0.0101 1.0016 150.1 C   20?   1.32 152.9   30  95 172   4
   2024 03 08 18:30  09 23 52.36    +15 25 15.1   0.0101 1.0016 150.1 C   20?   1.28 157.6   32  97 172   4
   2024 03 08 18:40  09 23 52.66    +15 25 03.2   0.0101 1.0016 150.1 C   20?   1.26 162.5   34  99 172   4
   2024 03 08 18:50  09 23 52.89    +15 24 51.0   0.0101 1.0016 150.1 N   20?   1.25 167.3   35 101 172   4
   2024 03 08 19:00  09 23 53.05    +15 24 38.7   0.0101 1.0016 150.1 N   20?   1.26 172.1   37 103 172   4
   2024 03 08 19:10  09 23 53.13    +15 24 26.2   0.0101 1.0016 150.1 N   20?   1.27 176.6   39 105 172   4
   2024 03 08 19:20  09 23 53.15    +15 24 13.4   0.0101 1.0016 150.1 A   20?   1.29 180.9   41 107 172   4
   2024 03 08 19:30  09 23 53.11    +15 24 00.4   0.0101 1.0016 150.1 A   20?   1.32 184.9   43 109 172   4
   2024 03 08 19:40  09 23 53.00    +15 23 47.2   0.0101 1.0016 150.1 A   20?   1.35 188.6   44 111 171   4
   2024 03 08 19:50  09 23 52.83    +15 23 33.7   0.0101 1.0016 150.1     20?   1.39 191.8   46 114 171   4
   2024 03 08 20:00  09 23 52.61    +15 23 20.0   0.0101 1.0016 150.1     20?   1.43 194.7   48 116 171   3
   2024 03 08 20:10  09 23 52.33    +15 23 06.0   0.0101 1.0016 150.0     20?   1.48 197.3   50 119 171   3
   2024 03 08 20:20  09 23 52.00    +15 22 51.7   0.0101 1.0016 150.0     20?   1.53 199.5   51 122 171   3
   2024 03 08 20:30  09 23 51.63    +15 22 37.1   0.0101 1.0016 150.0     20?   1.58 201.4   53 125 171   3
   2024 03 08 20:40  09 23 51.21    +15 22 22.2   0.0101 1.0016 150.0     20?   1.63 203.0   54 128 171   3
   2024 03 08 20:50  09 23 50.75    +15 22 07.1   0.0101 1.0016 150.0     20?   1.68 204.4   56 131 171   3
   2024 03 08 21:00  09 23 50.25    +15 21 51.6   0.0101 1.0016 150.0     20?   1.73 205.5   57 135 171   3
   2024 03 08 21:10  09 23 49.72    +15 21 35.8   0.0100 1.0016 150.0     20?   1.78 206.4   58 139 170   3
   2024 03 08 21:20  09 23 49.16    +15 21 19.7   0.0100 1.0016 150.0     20?   1.83 207.1   60 143 170   3
   2024 03 08 21:30  09 23 48.57    +15 21 03.2   0.0100 1.0016 150.0     20?   1.87 207.7   61 148 170   3
   2024 03 08 21:40  09 23 47.96    +15 20 46.5   0.0100 1.0016 150.0     20?   1.92 208.0   62 152 170   3
   2024 03 08 21:50  09 23 47.33    +15 20 29.4   0.0100 1.0016 150.0     20?   1.96 208.2   62 157 170   3
   2024 03 08 22:00  09 23 46.68    +15 20 12.0   0.0100 1.0016 150.0     20?   2.00 208.2   63 163 170   3
   2024 03 08 22:10  09 23 46.02    +15 19 54.2   0.0100 1.0016 150.0     20?   2.03 208.1   63 168 170   3
   2024 03 08 22:20  09 23 45.36    +15 19 36.1   0.0100 1.0016 149.9     20?   2.07 207.9   64 173 170   3
   2024 03 08 22:30  09 23 44.69    +15 19 17.7   0.0100 1.0016 149.9     20?   2.10 207.6   64 179 169   3
   2024 03 08 22:40  09 23 44.02    +15 18 59.0   0.0100 1.0016 149.9  t  20?   2.12 207.1   64 185 169   3
   2024 03 08 22:50  09 23 43.36    +15 18 39.9   0.0100 1.0016 149.9     20?   2.15 206.5   63 190 169   3
   2024 03 08 23:00  09 23 42.70    +15 18 20.4   0.0100 1.0016 149.9     20?   2.17 205.8   63 195 169   3
   2024 03 08 23:10  09 23 42.05    +15 18 00.7   0.0100 1.0016 149.9     20?   2.20 204.9   62 201 169   3
   2024 03 08 23:20  09 23 41.42    +15 17 40.6   0.0100 1.0016 149.9     20?   2.22 204.0   62 206 169   3
   2024 03 08 23:30  09 23 40.81    +15 17 20.2   0.0100 1.0016 149.9     20?   2.23 203.0   61 210 169   3
   2024 03 08 23:40  09 23 40.22    +15 16 59.4   0.0100 1.0016 149.9     20?   2.25 201.8   60 215 168   3
   2024 03 08 23:50  09 23 39.66    +15 16 38.4   0.0100 1.0016 149.9     20?   2.26 200.5   59 219 168   3
   2024 03 09 00:00  09 23 39.13    +15 16 17.0   0.0100 1.0016 149.9     20?   2.28 199.2   57 223 168   3
   2024 03 09 00:10  09 23 38.63    +15 15 55.3   0.0100 1.0016 149.9     20?   2.29 197.7   56 227 168   3
   2024 03 09 00:20  09 23 38.17    +15 15 33.4   0.0100 1.0016 149.9     20?   2.30 196.2   55 230 168   2
   2024 03 09 00:30  09 23 37.75    +15 15 11.1   0.0100 1.0016 149.9     20?   2.31 194.5   53 233 168   2
   2024 03 09 00:40  09 23 37.37    +15 14 48.5   0.0100 1.0016 149.8     20?   2.33 192.8   51 236 168   2
   2024 03 09 00:50  09 23 37.04    +15 14 25.7   0.0100 1.0016 149.8     20?   2.34 190.9   50 239 168   2
   2024 03 09 01:00  09 23 36.76    +15 14 02.6   0.0100 1.0016 149.8     20?   2.35 189.0   48 242 167   2
   2024 03 09 01:10  09 23 36.53    +15 13 39.2   0.0100 1.0016 149.8     20?   2.37 187.0   46 245 167   2
   2024 03 09 01:20  09 23 36.37    +15 13 15.6   0.0100 1.0016 149.8     20?   2.38 184.9   45 247 167   2
   2024 03 09 01:30  09 23 36.26    +15 12 51.7   0.0100 1.0016 149.8     20?   2.40 182.8   43 249 167   2
   2024 03 09 01:40  09 23 36.21    +15 12 27.7   0.0100 1.0016 149.8     20?   2.42 180.6   41 252 167   2
   2024 03 09 01:50  09 23 36.23    +15 12 03.3   0.0100 1.0016 149.8     20?   2.44 178.3   39 254 167   2
   2024 03 09 02:00  09 23 36.31    +15 11 38.8   0.0100 1.0016 149.8     20?   2.47 176.0   37 256 167   2
   2024 03 09 02:10  09 23 36.47    +15 11 14.1   0.0100 1.0016 149.8     20?   2.50 173.7   36 258 167   2
   2024 03 09 02:20  09 23 36.69    +15 10 49.2   0.0100 1.0016 149.8     20?   2.53 171.4   34 260 166   2
   2024 03 09 02:30  09 23 36.99    +15 10 24.1   0.0101 1.0017 149.8     20?   2.56 169.0   32 261 166   2
   2024 03 09 02:40  09 23 37.37    +15 09 58.9   0.0101 1.0017 149.8     20?   2.60 166.7   30 263 166   2
   2024 03 09 02:50  09 23 37.82    +15 09 33.5   0.0101 1.0017 149.8     20?   2.64 164.3   28 265 166   2
   2024 03 09 03:00  09 23 38.36    +15 09 08.0   0.0101 1.0017 149.8     20?   2.69 162.0   26 267 166   2
   2024 03 09 03:10  09 23 38.97    +15 08 42.3   0.0101 1.0017 149.8     20?   2.74 159.8   24 268 166   2
   2024 03 09 03:20  09 23 39.67    +15 08 16.6   0.0101 1.0017 149.8     20?   2.79 157.5   22 270 166   2
   2024 03 09 03:30  09 23 40.45    +15 07 50.7   0.0101 1.0017 149.8     20?   2.85 155.3   21 271 166   2
   2024 03 09 03:40  09 23 41.32    +15 07 24.8   0.0101 1.0017 149.8     20?   2.91 153.2   19 273 166   2
   2024 03 09 03:50  09 23 42.27    +15 06 58.8   0.0101 1.0017 149.8     20?   2.97 151.1   17 275 165   2
   2024 03 09 04:00  09 23 43.31    +15 06 32.8   0.0101 1.0017 149.8     20?   3.04 149.1   15 276 165   2
   2024 03 09 04:10  09 23 44.43    +15 06 06.7   0.0101 1.0017 149.8     20?   3.11 147.1   13 278 165   2
   2024 03 09 04:20  09 23 45.64    +15 05 40.6   0.0101 1.0017 149.8     20?   3.18 145.2   11 279 165   2
   2024 03 09 04:30  09 23 46.94    +15 05 14.5   0.0101 1.0017 149.8     20?   3.26 143.4    9 281 165   2
   2024 03 09 04:40  09 23 48.33    +15 04 48.4   0.0101 1.0017 149.8     20?   3.33 141.6    7 283 165   2
   2024 03 09 04:50  09 23 49.80    +15 04 22.3   0.0101 1.0017 149.8     20?   3.41 139.9    6 284 165   2
   2024 03 09 05:00  09 23 51.36    +15 03 56.2   0.0101 1.0017 149.8     20?   3.49 138.3    4 286 165   2
   2024 03 09 05:10  09 23 53.01    +15 03 30.2   0.0101 1.0017 149.8 A   20?   3.57 136.7    2 287 165   2
   2024 03 09 05:20  09 23 54.74    +15 03 04.3   0.0101 1.0017 149.8 A   20?   3.65 135.2    0 289 165   2
   ................
   2024 03 09 18:30  09 27 06.34    +14 40 21.8   0.0100 1.0018 150.1 C   20?   1.38 156.5   31  98 159   0
   2024 03 09 18:40  09 27 06.69    +14 40 09.1   0.0100 1.0018 150.1 C   20?   1.35 161.0   33 100 159   0
   2024 03 09 18:50  09 27 06.95    +14 39 56.2   0.0100 1.0018 150.1 N   20?   1.34 165.6   35 102 159   0
   2024 03 09 19:00  09 27 07.15    +14 39 43.1   0.0100 1.0018 150.1 N   20?   1.34 170.0   37 104 159   0
   2024 03 09 19:10  09 27 07.27    +14 39 29.8   0.0100 1.0018 150.1 N   20?   1.34 174.4   39 106 159   0
   2024 03 09 19:20  09 27 07.33    +14 39 16.3   0.0100 1.0018 150.1 A   20?   1.36 178.5   41 108 158   0
   2024 03 09 19:30  09 27 07.33    +14 39 02.6   0.0100 1.0018 150.0 A   20?   1.38 182.3   42 110 158   0
   2024 03 09 19:40  09 27 07.26    +14 38 48.7   0.0100 1.0018 150.0 A   20?   1.41 185.8   44 112 158   0
   2024 03 09 19:50  09 27 07.13    +14 38 34.5   0.0100 1.0018 150.0     20?   1.45 189.0   46 115 158   0
   2024 03 09 20:00  09 27 06.95    +14 38 20.1   0.0100 1.0018 150.0     20?   1.49 191.9   48 117 158   0
   2024 03 09 20:10  09 27 06.71    +14 38 05.4   0.0100 1.0018 150.0     20?   1.53 194.5   49 120 158   0
   2024 03 09 20:20  09 27 06.42    +14 37 50.4   0.0100 1.0018 150.0     20?   1.58 196.7   51 123 158   0
   2024 03 09 20:30  09 27 06.09    +14 37 35.2   0.0100 1.0018 150.0     20?   1.62 198.7   52 126 158   0
   2024 03 09 20:40  09 27 05.71    +14 37 19.6   0.0100 1.0018 150.0     20?   1.67 200.3   54 129 157   0
   2024 03 09 20:50  09 27 05.29    +14 37 03.8   0.0100 1.0018 150.0     20?   1.72 201.8   55 133 157   0
   2024 03 09 21:00  09 27 04.83    +14 36 47.7   0.0100 1.0018 150.0     20?   1.76 203.0   57 136 157   0
   2024 03 09 21:10  09 27 04.34    +14 36 31.3   0.0100 1.0018 150.0     20?   1.81 203.9   58 140 157   0
   2024 03 09 21:20  09 27 03.82    +14 36 14.6   0.0100 1.0018 150.0     20?   1.86 204.7   59 144 157   0
   2024 03 09 21:30  09 27 03.28    +14 35 57.6   0.0100 1.0018 150.0     20?   1.90 205.3   60 149 157   0
   2024 03 09 21:40  09 27 02.71    +14 35 40.3   0.0100 1.0018 150.0     20?   1.94 205.7   61 153 157   0
   2024 03 09 21:50  09 27 02.12    +14 35 22.7   0.0100 1.0018 150.0     20?   1.98 206.0   62 158 157   0
   2024 03 09 22:00  09 27 01.52    +14 35 04.7   0.0100 1.0018 149.9     20?   2.02 206.0   62 163 156   0
   2024 03 09 22:10  09 27 00.90    +14 34 46.4   0.0100 1.0018 149.9     20?   2.05 206.0   63 169 156   0
   2024 03 09 22:20  09 27 00.28    +14 34 27.8   0.0100 1.0018 149.9     20?   2.08 205.8   63 174 156   0
   2024 03 09 22:30  09 26 59.66    +14 34 08.9   0.0100 1.0018 149.9  e  20?   2.11 205.5   63 179 156   0
   2024 03 09 22:40  09 26 59.03    +14 33 49.6   0.0100 1.0018 149.9  t  20?   2.14 205.1   63 185 156   0
   2024 03 09 22:50  09 26 58.41    +14 33 30.1   0.0100 1.0018 149.9     20?   2.17 204.5   63 190 156   0
   2024 03 09 23:00  09 26 57.80    +14 33 10.2   0.0100 1.0018 149.9     20?   2.19 203.8   62 195 156   0
   2024 03 09 23:10  09 26 57.20    +14 32 50.0   0.0100 1.0018 149.9     20?   2.21 203.0   62 201 155   0
   2024 03 09 23:20  09 26 56.61    +14 32 29.5   0.0100 1.0018 149.9     20?   2.23 202.1   61 205 155   0
   2024 03 09 23:30  09 26 56.05    +14 32 08.6   0.0100 1.0018 149.9     20?   2.25 201.1   60 210 155   0
   2024 03 09 23:40  09 26 55.50    +14 31 47.5   0.0100 1.0018 149.9     20?   2.26 199.9   59 214 155   0
   2024 03 09 23:50  09 26 54.99    +14 31 26.0   0.0100 1.0018 149.9     20?   2.28 198.7   58 219 155   0
   2024 03 10 00:00  09 26 54.50    +14 31 04.3   0.0100 1.0018 149.9     20?   2.29 197.3   57 223 155   0
   2024 03 10 00:10  09 26 54.05    +14 30 42.2   0.0100 1.0018 149.8     20?   2.31 195.9   55 226 155   0
   2024 03 10 00:20  09 26 53.63    +14 30 19.9   0.0100 1.0018 149.8     20?   2.32 194.3   54 230 155   0
   2024 03 10 00:30  09 26 53.26    +14 29 57.3   0.0100 1.0018 149.8     20?   2.33 192.7   52 233 154   0
   2024 03 10 00:40  09 26 52.93    +14 29 34.4   0.0100 1.0018 149.8     20?   2.34 191.0   51 236 154   0
   2024 03 10 00:50  09 26 52.65    +14 29 11.3   0.0100 1.0018 149.8     20?   2.36 189.1   49 239 154   0
   2024 03 10 01:00  09 26 52.42    +14 28 47.9   0.0100 1.0018 149.8     20?   2.37 187.2   47 241 154   0
   2024 03 10 01:10  09 26 52.24    +14 28 24.2   0.0100 1.0018 149.8     20?   2.39 185.2   46 244 154   0
   2024 03 10 01:20  09 26 52.12    +14 28 00.3   0.0100 1.0019 149.8     20?   2.40 183.2   44 246 154   0
   2024 03 10 01:30  09 26 52.06    +14 27 36.2   0.0100 1.0019 149.8     20?   2.42 181.0   42 249 154   0
   2024 03 10 01:40  09 26 52.06    +14 27 11.9   0.0100 1.0019 149.8     20?   2.45 178.9   41 251 153   0
   2024 03 10 01:50  09 26 52.13    +14 26 47.3   0.0100 1.0019 149.8     20?   2.47 176.6   39 253 153   0
   2024 03 10 02:00  09 26 52.27    +14 26 22.6   0.0100 1.0019 149.8     20?   2.50 174.4   37 255 153   0
   2024 03 10 02:10  09 26 52.47    +14 25 57.6   0.0100 1.0019 149.8     20?   2.53 172.1   35 257 153   0
   2024 03 10 02:20  09 26 52.75    +14 25 32.5   0.0100 1.0019 149.8     20?   2.56 169.8   33 259 153   0
   2024 03 10 02:30  09 26 53.10    +14 25 07.2   0.0100 1.0019 149.8     20?   2.60 167.4   31 261 153   0
   2024 03 10 02:40  09 26 53.53    +14 24 41.8   0.0100 1.0019 149.8     20?   2.64 165.1   29 263 153   0
   2024 03 10 02:50  09 26 54.04    +14 24 16.2   0.0100 1.0019 149.8     20?   2.68 162.8   28 264 153   0
   2024 03 10 03:00  09 26 54.63    +14 23 50.5   0.0100 1.0019 149.8     20?   2.73 160.6   26 266 152   0
   2024 03 10 03:10  09 26 55.29    +14 23 24.7   0.0100 1.0019 149.8     20?   2.79 158.3   24 268 152   0
   2024 03 10 03:20  09 26 56.04    +14 22 58.7   0.0100 1.0019 149.8     20?   2.84 156.1   22 269 152   0
   2024 03 10 03:30  09 26 56.88    +14 22 32.7   0.0100 1.0019 149.8     20?   2.90 154.0   20 271 152   0
   2024 03 10 03:40  09 26 57.80    +14 22 06.6   0.0100 1.0019 149.8     20?   2.96 151.9   18 273 152   0
   2024 03 10 03:50  09 26 58.80    +14 21 40.5   0.0100 1.0019 149.8     20?   3.03 149.8   16 274 152   0
   2024 03 10 04:00  09 26 59.90    +14 21 14.3   0.0100 1.0019 149.8     20?   3.10 147.9   14 276 152   0
   2024 03 10 04:10  09 27 01.07    +14 20 48.1   0.0100 1.0019 149.8     20?   3.17 145.9   12 277 152   0
   2024 03 10 04:20  09 27 02.34    +14 20 21.8   0.0100 1.0019 149.8     20?   3.24 144.1   11 279 151   0
   2024 03 10 04:30  09 27 03.69    +14 19 55.6   0.0100 1.0019 149.8     20?   3.32 142.3    9 280 151   0
   2024 03 10 04:40  09 27 05.14    +14 19 29.3   0.0100 1.0019 149.8     20?   3.40 140.6    7 282 151   0
   2024 03 10 04:50  09 27 06.66    +14 19 03.1   0.0100 1.0019 149.8     20?   3.48 139.0    5 284 151   0
   2024 03 10 05:00  09 27 08.28    +14 18 36.9   0.0100 1.0019 149.8     20?   3.56 137.4    3 285 151   0
   2024 03 10 05:10  09 27 09.98    +14 18 10.7   0.0100 1.0019 149.8 A   20?   3.64 135.9    1 287 151   0
   2024 03 10 05:20  09 27 11.77    +14 17 44.6   0.0100 1.0019 149.8 A   20?   3.73 134.4    0 288 151   0
   ................
   2024 03 10 18:30  09 30 27.49    +13 54 19.2   0.0100 1.0020 150.1 Cm  20?   1.48 155.4   31  99 145   0
   2024 03 10 18:40  09 30 27.88    +13 54 05.7   0.0100 1.0020 150.1 Cm  20?   1.45 159.5   33 101 145   0
   2024 03 10 18:50  09 30 28.19    +13 53 52.0   0.0100 1.0020 150.1 N   20?   1.43 163.8   35 102 145   0
   2024 03 10 19:00  09 30 28.43    +13 53 38.1   0.0099 1.0020 150.1 N   20?   1.43 167.9   37 104 145   0
   2024 03 10 19:10  09 30 28.60    +13 53 24.1   0.0099 1.0020 150.1 N   20?   1.43 172.0   38 106 145   0
   2024 03 10 19:20  09 30 28.70    +13 53 09.8   0.0099 1.0020 150.1 A   20?   1.44 175.9   40 109 144   0
   2024 03 10 19:30  09 30 28.74    +13 52 55.4   0.0099 1.0020 150.1 A   20?   1.46 179.6   42 111 144   0
   2024 03 10 19:40  09 30 28.72    +13 52 40.7   0.0099 1.0020 150.0 A   20?   1.48 183.0   44 113 144   0
   2024 03 10 19:50  09 30 28.64    +13 52 25.8   0.0099 1.0020 150.0     20?   1.51 186.2   45 116 144   0
   2024 03 10 20:00  09 30 28.50    +13 52 10.6   0.0099 1.0020 150.0     20?   1.55 189.0   47 118 144   0
   2024 03 10 20:10  09 30 28.31    +13 51 55.2   0.0099 1.0020 150.0     20?   1.58 191.6   49 121 144   0
   2024 03 10 20:20  09 30 28.07    +13 51 39.6   0.0099 1.0020 150.0     20?   1.63 193.8   50 124 144   0
   2024 03 10 20:30  09 30 27.78    +13 51 23.6   0.0099 1.0020 150.0     20?   1.67 195.8   52 127 144   0
   2024 03 10 20:40  09 30 27.44    +13 51 07.5   0.0099 1.0020 150.0     20?   1.71 197.5   53 130 143   0
   2024 03 10 20:50  09 30 27.07    +13 50 51.0   0.0099 1.0020 150.0     20?   1.76 199.0   55 133 143   0
   2024 03 10 21:00  09 30 26.66    +13 50 34.2   0.0099 1.0020 150.0     20?   1.80 200.3   56 137 143   0
   2024 03 10 21:10  09 30 26.22    +13 50 17.2   0.0099 1.0020 150.0     20?   1.84 201.3   57 141 143   0
   2024 03 10 21:20  09 30 25.74    +13 49 59.9   0.0099 1.0020 150.0     20?   1.89 202.1   58 145 143   0
   2024 03 10 21:30  09 30 25.24    +13 49 42.2   0.0099 1.0020 150.0     20?   1.93 202.8   59 149 143   0
   2024 03 10 21:40  09 30 24.72    +13 49 24.3   0.0099 1.0020 150.0     20?   1.97 203.2   60 154 143   0
   2024 03 10 21:50  09 30 24.18    +13 49 06.1   0.0099 1.0020 150.0     20?   2.00 203.6   61 159 143   0
   2024 03 10 22:00  09 30 23.63    +13 48 47.6   0.0099 1.0020 150.0     20?   2.04 203.7   62 164 142   0
   2024 03 10 22:10  09 30 23.06    +13 48 28.7   0.0099 1.0020 149.9     20?   2.07 203.7   62 169 142   0
   2024 03 10 22:20  09 30 22.48    +13 48 09.6   0.0099 1.0020 149.9     20?   2.10 203.6   62 174 142   0
   2024 03 10 22:30  09 30 21.91    +13 47 50.1   0.0099 1.0020 149.9  t  20?   2.13 203.3   62 180 142   0
   2024 03 10 22:40  09 30 21.33    +13 47 30.4   0.0099 1.0020 149.9     20?   2.16 202.9   62 185 142   0
   2024 03 10 22:50  09 30 20.76    +13 47 10.3   0.0099 1.0020 149.9     20?   2.18 202.3   62 190 142   0
   2024 03 10 23:00  09 30 20.19    +13 46 50.0   0.0099 1.0020 149.9     20?   2.21 201.7   61 195 142   0
   2024 03 10 23:10  09 30 19.64    +13 46 29.3   0.0099 1.0020 149.9     20?   2.23 200.9   61 200 142   0
   2024 03 10 23:20  09 30 19.10    +13 46 08.3   0.0099 1.0020 149.9     20?   2.25 200.0   60 205 141   0
   2024 03 10 23:30  09 30 18.59    +13 45 47.1   0.0099 1.0020 149.9     20?   2.26 199.0   59 210 141   0
   2024 03 10 23:40  09 30 18.09    +13 45 25.5   0.0099 1.0021 149.9     20?   2.28 197.9   58 214 141   0
   2024 03 10 23:50  09 30 17.63    +13 45 03.6   0.0099 1.0021 149.9     20?   2.30 196.7   57 218 141   0
   2024 03 11 00:00  09 30 17.19    +13 44 41.5   0.0099 1.0021 149.9     20?   2.31 195.4   56 222 141   0
   2024 03 11 00:10  09 30 16.79    +13 44 19.1   0.0099 1.0021 149.9     20?   2.32 193.9   55 226 141   0
   2024 03 11 00:20  09 30 16.42    +13 43 56.4   0.0099 1.0021 149.8     20?   2.34 192.4   53 229 141   0
   2024 03 11 00:30  09 30 16.10    +13 43 33.5   0.0099 1.0021 149.8     20?   2.35 190.8   52 232 141   0
   2024 03 11 00:40  09 30 15.82    +13 43 10.2   0.0099 1.0021 149.8     20?   2.36 189.1   50 235 140   0
   2024 03 11 00:50  09 30 15.59    +13 42 46.8   0.0099 1.0021 149.8     20?   2.38 187.2   48 238 140   0
   2024 03 11 01:00  09 30 15.42    +13 42 23.1   0.0099 1.0021 149.8     20?   2.39 185.3   47 241 140   0
   2024 03 11 01:10  09 30 15.29    +13 41 59.1   0.0099 1.0021 149.8     20?   2.41 183.4   45 243 140   0
   2024 03 11 01:20  09 30 15.22    +13 41 34.9   0.0099 1.0021 149.8     20?   2.43 181.3   43 246 140   0
   2024 03 11 01:30  09 30 15.22    +13 41 10.5   0.0099 1.0021 149.8     20?   2.45 179.2   42 248 140   0
   2024 03 11 01:40  09 30 15.27    +13 40 45.9   0.0099 1.0021 149.8     20?   2.47 177.1   40 250 140   0
   2024 03 11 01:50  09 30 15.40    +13 40 21.1   0.0099 1.0021 149.8     20?   2.50 174.9   38 252 139   0
   2024 03 11 02:00  09 30 15.59    +13 39 56.1   0.0099 1.0021 149.8     20?   2.53 172.6   36 254 139   0
   2024 03 11 02:10  09 30 15.84    +13 39 30.9   0.0099 1.0021 149.8     20?   2.56 170.4   34 256 139   0
   2024 03 11 02:20  09 30 16.18    +13 39 05.6   0.0099 1.0021 149.8     20?   2.60 168.1   33 258 139   0
   2024 03 11 02:30  09 30 16.58    +13 38 40.1   0.0099 1.0021 149.8     20?   2.64 165.8   31 260 139   0
   2024 03 11 02:40  09 30 17.07    +13 38 14.4   0.0099 1.0021 149.8     20?   2.68 163.5   29 262 139   0
   2024 03 11 02:50  09 30 17.63    +13 37 48.7   0.0099 1.0021 149.8     20?   2.73 161.3   27 264 139   0
   2024 03 11 03:00  09 30 18.27    +13 37 22.8   0.0099 1.0021 149.8     20?   2.78 159.0   25 265 139   0
   2024 03 11 03:10  09 30 19.00    +13 36 56.8   0.0099 1.0021 149.8     20?   2.83 156.9   23 267 138   0
   2024 03 11 03:20  09 30 19.80    +13 36 30.7   0.0099 1.0021 149.8     20?   2.89 154.7   21 269 138   0
   2024 03 11 03:30  09 30 20.70    +13 36 04.5   0.0099 1.0021 149.8     20?   2.95 152.6   19 270 138   0
   2024 03 11 03:40  09 30 21.67    +13 35 38.2   0.0099 1.0021 149.8     20?   3.02 150.6   17 272 138   0
   2024 03 11 03:50  09 30 22.74    +13 35 11.9   0.0099 1.0021 149.8     20?   3.09 148.6   16 274 138   1
   2024 03 11 04:00  09 30 23.88    +13 34 45.5   0.0099 1.0021 149.8     20?   3.16 146.6   14 275 138   1
   2024 03 11 04:10  09 30 25.12    +13 34 19.1   0.0099 1.0021 149.8     20?   3.23 144.8   12 277 138   1
   2024 03 11 04:20  09 30 26.45    +13 33 52.7   0.0099 1.0021 149.8     20?   3.31 143.0   10 278 138   1
   2024 03 11 04:30  09 30 27.86    +13 33 26.3   0.0099 1.0021 149.8     20?   3.39 141.2    8 280 137   1
   2024 03 11 04:40  09 30 29.36    +13 32 59.9   0.0099 1.0021 149.8     20?   3.47 139.6    6 282 137   1
   2024 03 11 04:50  09 30 30.95    +13 32 33.5   0.0099 1.0021 149.8     20?   3.55 138.0    4 283 137   1
   2024 03 11 05:00  09 30 32.62    +13 32 07.1   0.0099 1.0021 149.8     20?   3.64 136.5    2 285 137   1
   2024 03 11 05:10  09 30 34.38    +13 31 40.8   0.0099 1.0021 149.8 A   20?   3.72 135.0    1 286 137   1
   ................
   2024 03 11 18:30  09 33 56.42    +13 07 03.7   0.0099 1.0022 150.1 Cm  20?   1.58 154.1   31  99 131   2
   2024 03 11 18:40  09 33 56.86    +13 06 49.4   0.0099 1.0022 150.1 Cm  20?   1.55 158.0   32 101 131   2
   2024 03 11 18:50  09 33 57.22    +13 06 34.9   0.0099 1.0022 150.1 Nm  20?   1.53 162.0   34 103 131   2
   2024 03 11 19:00  09 33 57.51    +13 06 20.2   0.0099 1.0022 150.1 Nm  20?   1.52 165.9   36 105 131   2
   2024 03 11 19:10  09 33 57.73    +13 06 05.4   0.0099 1.0022 150.1 Nm  20?   1.52 169.7   38 107 130   2
   2024 03 11 19:20  09 33 57.88    +13 05 50.3   0.0099 1.0022 150.1 Am  20?   1.52 173.4   40 109 130   2
   2024 03 11 19:30  09 33 57.97    +13 05 35.1   0.0099 1.0022 150.1 Am  20?   1.54 176.9   41 112 130   2
   2024 03 11 19:40  09 33 58.00    +13 05 19.6   0.0099 1.0022 150.1 Am  20?   1.56 180.2   43 114 130   2
   2024 03 11 19:50  09 33 57.97    +13 05 04.0   0.0099 1.0022 150.1  m  20?   1.58 183.3   45 117 130   2
   2024 03 11 20:00  09 33 57.88    +13 04 48.0   0.0099 1.0022 150.1  m  20?   1.61 186.1   47 119 130   2
   2024 03 11 20:10  09 33 57.74    +13 04 31.9   0.0099 1.0022 150.1     20?   1.64 188.6   48 122 130   2
   2024 03 11 20:20  09 33 57.55    +13 04 15.5   0.0099 1.0022 150.1     20?   1.68 190.9   50 125 130   3
   2024 03 11 20:30  09 33 57.31    +13 03 58.9   0.0099 1.0022 150.1     20?   1.72 192.9   51 128 130   3
   2024 03 11 20:40  09 33 57.02    +13 03 42.0   0.0099 1.0022 150.1     20?   1.76 194.6   53 131 130   3
   2024 03 11 20:50  09 33 56.70    +13 03 24.8   0.0099 1.0022 150.0     20?   1.80 196.2   54 134 129   3
   2024 03 11 21:00  09 33 56.34    +13 03 07.4   0.0099 1.0022 150.0     20?   1.84 197.5   55 138 129   3
   2024 03 11 21:10  09 33 55.95    +13 02 49.7   0.0099 1.0022 150.0     20?   1.88 198.6   57 142 129   3
   2024 03 11 21:20  09 33 55.52    +13 02 31.7   0.0099 1.0022 150.0     20?   1.92 199.4   58 146 129   3
   2024 03 11 21:30  09 33 55.07    +13 02 13.5   0.0099 1.0022 150.0     20?   1.96 200.1   59 150 129   3
   2024 03 11 21:40  09 33 54.60    +13 01 54.9   0.0099 1.0023 150.0     20?   2.00 200.7   60 155 129   3
   2024 03 11 21:50  09 33 54.11    +13 01 36.1   0.0099 1.0023 150.0     20?   2.03 201.0   60 160 129   3
   2024 03 11 22:00  09 33 53.61    +13 01 17.0   0.0099 1.0023 150.0     20?   2.07 201.2   61 164 129   3
   2024 03 11 22:10  09 33 53.09    +13 00 57.6   0.0099 1.0023 150.0     20?   2.10 201.3   61 170 128   3
   2024 03 11 22:20  09 33 52.57    +13 00 37.9   0.0099 1.0023 150.0     20?   2.13 201.2   61 175 128   3
   2024 03 11 22:30  09 33 52.04    +13 00 17.9   0.0099 1.0023 150.0  t  20?   2.16 200.9   62 180 128   3
   2024 03 11 22:40  09 33 51.52    +12 59 57.6   0.0099 1.0023 150.0     20?   2.18 200.6   61 185 128   3
   2024 03 11 22:50  09 33 51.00    +12 59 37.0   0.0099 1.0023 150.0     20?   2.21 200.1   61 190 128   3
   2024 03 11 23:00  09 33 50.48    +12 59 16.2   0.0099 1.0023 149.9     20?   2.23 199.5   61 195 128   3
   2024 03 11 23:10  09 33 49.98    +12 58 55.0   0.0099 1.0023 149.9     20?   2.25 198.7   60 200 128   3
   2024 03 11 23:20  09 33 49.50    +12 58 33.6   0.0099 1.0023 149.9     20?   2.27 197.9   59 205 128   3
   2024 03 11 23:30  09 33 49.04    +12 58 11.9   0.0099 1.0023 149.9     20?   2.28 196.9   58 209 127   3
   2024 03 11 23:40  09 33 48.59    +12 57 49.9   0.0099 1.0023 149.9     20?   2.30 195.8   57 214 127   3
   2024 03 11 23:50  09 33 48.18    +12 57 27.6   0.0099 1.0023 149.9     20?   2.32 194.6   56 218 127   3
   2024 03 12 00:00  09 33 47.80    +12 57 05.1   0.0099 1.0023 149.9     20?   2.33 193.3   55 221 127   3
   2024 03 12 00:10  09 33 47.45    +12 56 42.3   0.0099 1.0023 149.9     20?   2.34 191.9   54 225 127   3
   2024 03 12 00:20  09 33 47.14    +12 56 19.2   0.0099 1.0023 149.9     20?   2.36 190.4   52 228 127   3
   2024 03 12 00:30  09 33 46.87    +12 55 55.9   0.0099 1.0023 149.9     20?   2.37 188.8   51 232 127   3
   2024 03 12 00:40  09 33 46.65    +12 55 32.3   0.0099 1.0023 149.9     20?   2.39 187.1   49 235 127   3
   2024 03 12 00:50  09 33 46.47    +12 55 08.5   0.0099 1.0023 149.9     20?   2.40 185.3   48 237 126   4
   2024 03 12 01:00  09 33 46.35    +12 54 44.5   0.0099 1.0023 149.9     20?   2.42 183.4   46 240 126   4
   2024 03 12 01:10  09 33 46.28    +12 54 20.2   0.0099 1.0023 149.9     20?   2.44 181.4   45 243 126   4
   2024 03 12 01:20  09 33 46.27    +12 53 55.7   0.0099 1.0023 149.9     20?   2.46 179.4   43 245 126   4
   2024 03 12 01:30  09 33 46.32    +12 53 31.0   0.0099 1.0023 149.9     20?   2.48 177.3   41 247 126   4
   2024 03 12 01:40  09 33 46.43    +12 53 06.2   0.0099 1.0023 149.9     20?   2.51 175.2   39 250 126   4
   2024 03 12 01:50  09 33 46.61    +12 52 41.1   0.0099 1.0023 149.8     20?   2.54 173.0   37 252 126   4
   2024 03 12 02:00  09 33 46.86    +12 52 15.8   0.0099 1.0023 149.8     20?   2.57 170.8   36 254 126   4
   2024 03 12 02:10  09 33 47.17    +12 51 50.4   0.0099 1.0023 149.8     20?   2.60 168.6   34 256 125   4
   2024 03 12 02:20  09 33 47.56    +12 51 24.8   0.0099 1.0023 149.8     20?   2.64 166.4   32 258 125   4
   2024 03 12 02:30  09 33 48.03    +12 50 59.1   0.0099 1.0023 149.8     20?   2.68 164.1   30 260 125   4
   2024 03 12 02:40  09 33 48.57    +12 50 33.3   0.0099 1.0023 149.8     20?   2.73 161.9   28 261 125   4
   2024 03 12 02:50  09 33 49.19    +12 50 07.3   0.0099 1.0023 149.8     20?   2.78 159.7   26 263 125   4
   2024 03 12 03:00  09 33 49.89    +12 49 41.2   0.0099 1.0023 149.8     20?   2.83 157.5   24 265 125   4
   2024 03 12 03:10  09 33 50.67    +12 49 15.0   0.0099 1.0023 149.8     20?   2.89 155.4   23 267 125   4
   2024 03 12 03:20  09 33 51.54    +12 48 48.7   0.0099 1.0023 149.8     20?   2.95 153.3   21 268 125   4
   2024 03 12 03:30  09 33 52.49    +12 48 22.3   0.0099 1.0023 149.8     20?   3.01 151.2   19 270 124   4
   2024 03 12 03:40  09 33 53.53    +12 47 55.9   0.0099 1.0023 149.8     20?   3.08 149.2   17 271 124   4
   2024 03 12 03:50  09 33 54.65    +12 47 29.4   0.0099 1.0023 149.8     20?   3.15 147.3   15 273 124   4
   2024 03 12 04:00  09 33 55.86    +12 47 02.8   0.0099 1.0023 149.8     20?   3.23 145.4   13 275 124   4
   2024 03 12 04:10  09 33 57.15    +12 46 36.3   0.0099 1.0023 149.8     20?   3.30 143.6   11 276 124   4
   2024 03 12 04:20  09 33 58.54    +12 46 09.7   0.0099 1.0023 149.8     20?   3.38 141.9    9 278 124   4
   2024 03 12 04:30  09 34 00.01    +12 45 43.1   0.0099 1.0023 149.8     20?   3.46 140.2    7 279 124   4
   2024 03 12 04:40  09 34 01.57    +12 45 16.5   0.0099 1.0023 149.8     20?   3.55 138.6    6 281 124   5
   2024 03 12 04:50  09 34 03.22    +12 44 50.0   0.0099 1.0023 149.8     20?   3.63 137.0    4 283 123   5
   2024 03 12 05:00  09 34 04.96    +12 44 23.4   0.0099 1.0023 149.8 A   20?   3.72 135.5    2 284 123   5
   2024 03 12 05:10  09 34 06.78    +12 43 57.0   0.0099 1.0023 149.8 A   20?   3.80 134.1    0 286 123   5
   ................
   2024 03 12 18:30  09 37 33.65    +12 18 31.9   0.0098 1.0024 150.2 Cm  20?   1.70 152.9   30 100 117   8
   2024 03 12 18:40  09 37 34.14    +12 18 16.7   0.0098 1.0024 150.2 Cm  20?   1.66 156.6   32 102 117   8
   2024 03 12 18:50  09 37 34.56    +12 18 01.4   0.0098 1.0024 150.2 Nm  20?   1.64 160.2   34 104 117   8
   2024 03 12 19:00  09 37 34.90    +12 17 45.8   0.0098 1.0024 150.2 Nm  20?   1.62 163.9   36 106 117   8
   2024 03 12 19:10  09 37 35.18    +12 17 30.2   0.0098 1.0024 150.2 Nm  20?   1.62 167.4   37 108 117   8
   2024 03 12 19:20  09 37 35.39    +12 17 14.3   0.0098 1.0024 150.2 Am  20?   1.62 170.9   39 110 117   8
   2024 03 12 19:30  09 37 35.53    +12 16 58.2   0.0098 1.0025 150.2 Am  20?   1.62 174.3   41 113 116   8
   2024 03 12 19:40  09 37 35.61    +12 16 42.0   0.0098 1.0025 150.2 Am  20?   1.64 177.5   43 115 116   8
   2024 03 12 19:50  09 37 35.63    +12 16 25.5   0.0098 1.0025 150.2  m  20?   1.66 180.4   44 117 116   8
   2024 03 12 20:00  09 37 35.59    +12 16 08.8   0.0098 1.0025 150.2  m  20?   1.68 183.2   46 120 116   8
   2024 03 12 20:10  09 37 35.51    +12 15 51.9   0.0098 1.0025 150.2  m  20?   1.71 185.6   48 123 116   8
   2024 03 12 20:20  09 37 35.37    +12 15 34.8   0.0098 1.0025 150.1  m  20?   1.74 187.9   49 126 116   8
   2024 03 12 20:30  09 37 35.18    +12 15 17.4   0.0098 1.0025 150.1  m  20?   1.78 189.9   51 129 116   8
   2024 03 12 20:40  09 37 34.95    +12 14 59.7   0.0098 1.0025 150.1  m  20?   1.81 191.7   52 132 116   8
   2024 03 12 20:50  09 37 34.68    +12 14 41.9   0.0098 1.0025 150.1  m  20?   1.85 193.3   53 135 116   8
   2024 03 12 21:00  09 37 34.37    +12 14 23.7   0.0098 1.0025 150.1  m  20?   1.89 194.6   55 139 116   8
   2024 03 12 21:10  09 37 34.03    +12 14 05.4   0.0098 1.0025 150.1  m  20?   1.92 195.8   56 143 116   8
   2024 03 12 21:20  09 37 33.66    +12 13 46.7   0.0098 1.0025 150.1     20?   1.96 196.7   57 147 115   8
   2024 03 12 21:30  09 37 33.27    +12 13 27.8   0.0098 1.0025 150.1     20?   2.00 197.4   58 151 115   8
   2024 03 12 21:40  09 37 32.85    +12 13 08.6   0.0098 1.0025 150.1     20?   2.03 198.0   59 155 115   8
   2024 03 12 21:50  09 37 32.41    +12 12 49.2   0.0098 1.0025 150.1     20?   2.06 198.4   59 160 115   8
   2024 03 12 22:00  09 37 31.96    +12 12 29.4   0.0098 1.0025 150.1     20?   2.10 198.7   60 165 115   8
   2024 03 12 22:10  09 37 31.50    +12 12 09.4   0.0098 1.0025 150.1     20?   2.13 198.8   60 170 115   9
   2024 03 12 22:20  09 37 31.03    +12 11 49.2   0.0098 1.0025 150.1     20?   2.15 198.7   61 175 115   9
   2024 03 12 22:30  09 37 30.56    +12 11 28.6   0.0098 1.0025 150.1  t  20?   2.18 198.5   61 180 115   9
   2024 03 12 22:40  09 37 30.09    +12 11 07.8   0.0098 1.0025 150.0     20?   2.21 198.2   61 185 115   9
   2024 03 12 22:50  09 37 29.62    +12 10 46.7   0.0098 1.0025 150.0     20?   2.23 197.8   60 190 114   9
   2024 03 12 23:00  09 37 29.16    +12 10 25.3   0.0098 1.0025 150.0     20?   2.25 197.2   60 195 114   9
   2024 03 12 23:10  09 37 28.72    +12 10 03.7   0.0098 1.0025 150.0     20?   2.27 196.5   59 200 114   9
   2024 03 12 23:20  09 37 28.29    +12 09 41.8   0.0098 1.0025 150.0     20?   2.29 195.6   59 204 114   9
   2024 03 12 23:30  09 37 27.88    +12 09 19.6   0.0098 1.0025 150.0     20?   2.31 194.7   58 209 114   9
   2024 03 12 23:40  09 37 27.49    +12 08 57.1   0.0098 1.0025 150.0     20?   2.32 193.6   57 213 114   9
   2024 03 12 23:50  09 37 27.14    +12 08 34.4   0.0098 1.0025 150.0     20?   2.34 192.5   56 217 114   9
   2024 03 13 00:00  09 37 26.81    +12 08 11.5   0.0098 1.0025 150.0     20?   2.35 191.2   54 221 114   9
   2024 03 13 00:10  09 37 26.52    +12 07 48.3   0.0098 1.0025 150.0     20?   2.37 189.8   53 224 113   9
   2024 03 13 00:20  09 37 26.26    +12 07 24.8   0.0098 1.0025 150.0     20?   2.38 188.3   52 228 113   9
   2024 03 13 00:30  09 37 26.05    +12 07 01.1   0.0098 1.0025 150.0     20?   2.40 186.7   50 231 113   9
   2024 03 13 00:40  09 37 25.88    +12 06 37.2   0.0098 1.0025 150.0     20?   2.41 185.0   49 234 113   9
   2024 03 13 00:50  09 37 25.77    +12 06 13.1   0.0098 1.0025 150.0     20?   2.43 183.3   47 237 113   9
   2024 03 13 01:00  09 37 25.70    +12 05 48.7   0.0098 1.0025 150.0     20?   2.45 181.4   46 239 113  10
   2024 03 13 01:10  09 37 25.69    +12 05 24.1   0.0098 1.0025 149.9     20?   2.47 179.5   44 242 113  10
   2024 03 13 01:20  09 37 25.73    +12 04 59.4   0.0098 1.0025 149.9     20?   2.49 177.5   42 244 113  10
   2024 03 13 01:30  09 37 25.84    +12 04 34.4   0.0098 1.0025 149.9     20?   2.52 175.4   40 247 112  10
   2024 03 13 01:40  09 37 26.01    +12 04 09.2   0.0098 1.0025 149.9     20?   2.54 173.3   39 249 112  10
   2024 03 13 01:50  09 37 26.25    +12 03 43.9   0.0098 1.0025 149.9     20?   2.57 171.2   37 251 112  10
   2024 03 13 02:00  09 37 26.55    +12 03 18.4   0.0098 1.0025 149.9     20?   2.61 169.0   35 253 112  10
   2024 03 13 02:10  09 37 26.93    +12 02 52.7   0.0098 1.0025 149.9     20?   2.64 166.8   33 255 112  10
   2024 03 13 02:20  09 37 27.37    +12 02 26.9   0.0098 1.0025 149.9     20?   2.68 164.6   31 257 112  10
   2024 03 13 02:30  09 37 27.90    +12 02 00.9   0.0098 1.0025 149.9     20?   2.73 162.4   30 259 112  10
   2024 03 13 02:40  09 37 28.50    +12 01 34.9   0.0098 1.0025 149.9     20?   2.78 160.3   28 261 112  10
   2024 03 13 02:50  09 37 29.18    +12 01 08.7   0.0098 1.0025 149.9     20?   2.83 158.1   26 262 111  10
   2024 03 13 03:00  09 37 29.94    +12 00 42.3   0.0098 1.0025 149.9     20?   2.89 156.0   24 264 111  10
   2024 03 13 03:10  09 37 30.78    +12 00 15.9   0.0098 1.0025 149.9     20?   2.95 153.9   22 266 111  10
   2024 03 13 03:20  09 37 31.71    +11 59 49.5   0.0098 1.0025 149.9     20?   3.01 151.8   20 268 111  10
   2024 03 13 03:30  09 37 32.72    +11 59 22.9   0.0098 1.0025 149.9     20?   3.08 149.9   18 269 111  11
   2024 03 13 03:40  09 37 33.82    +11 58 56.3   0.0098 1.0025 149.9     20?   3.15 147.9   16 271 111  11
   2024 03 13 03:50  09 37 35.00    +11 58 29.6   0.0098 1.0025 149.9     20?   3.22 146.0   14 272 111  11
   2024 03 13 04:00  09 37 36.27    +11 58 02.9   0.0098 1.0025 149.9     20?   3.30 144.2   13 274 111  11
   2024 03 13 04:10  09 37 37.63    +11 57 36.2   0.0098 1.0025 149.9     20?   3.38 142.5   11 276 110  11
   2024 03 13 04:20  09 37 39.08    +11 57 09.4   0.0098 1.0025 149.9     20?   3.46 140.8    9 277 110  11
   2024 03 13 04:30  09 37 40.61    +11 56 42.6   0.0098 1.0025 149.9     20?   3.54 139.1    7 279 110  11
   2024 03 13 04:40  09 37 42.24    +11 56 15.9   0.0098 1.0025 149.9     20?   3.62 137.6    5 280 110  11
   2024 03 13 04:50  09 37 43.95    +11 55 49.2   0.0098 1.0025 149.9     20?   3.71 136.1    3 282 110  11
   2024 03 13 05:00  09 37 45.75    +11 55 22.4   0.0098 1.0025 149.9 A   20?   3.80 134.6    1 284 110  11
   2024 03 13 05:10  09 37 47.63    +11 54 55.8   0.0098 1.0025 149.9 A   20?   3.89 133.3    0 285 110  11
   ................
   2024 03 13 18:30  09 41 19.57    +11 28 40.7   0.0098 1.0027 150.3 Cm  20?   1.82 151.8   30 101 104  15
   2024 03 13 18:40  09 41 20.11    +11 28 24.6   0.0098 1.0027 150.3 Cm  20?   1.78 155.2   31 103 103  15
   2024 03 13 18:50  09 41 20.58    +11 28 08.4   0.0098 1.0027 150.3 Nm  20?   1.75 158.6   33 105 103  15
   2024 03 13 19:00  09 41 20.99    +11 27 52.0   0.0098 1.0027 150.3 Nm  20?   1.73 162.0   35 107 103  15
   2024 03 13 19:10  09 41 21.32    +11 27 35.4   0.0098 1.0027 150.3 Nm  20?   1.72 165.3   37 109 103  15
   2024 03 13 19:20  09 41 21.58    +11 27 18.7   0.0098 1.0027 150.3 Am  20?   1.71 168.6   39 111 103  15
   2024 03 13 19:30  09 41 21.78    +11 27 01.8   0.0098 1.0027 150.3 Am  20?   1.72 171.8   40 113 103  15
   2024 03 13 19:40  09 41 21.91    +11 26 44.7   0.0098 1.0027 150.3 Am  20?   1.73 174.8   42 116 103  16
   2024 03 13 19:50  09 41 21.99    +11 26 27.4   0.0098 1.0027 150.3 Am  20?   1.74 177.7   44 118 103  16
   2024 03 13 20:00  09 41 22.01    +11 26 09.9   0.0098 1.0027 150.3  m  20?   1.76 180.3   45 121 103  16
   2024 03 13 20:10  09 41 21.98    +11 25 52.2   0.0098 1.0027 150.3  m  20?   1.78 182.8   47 124 103  16
   2024 03 13 20:20  09 41 21.90    +11 25 34.3   0.0098 1.0027 150.3  m  20?   1.81 185.0   49 126 103  16
   2024 03 13 20:30  09 41 21.77    +11 25 16.2   0.0098 1.0027 150.3  m  20?   1.84 187.0   50 129 103  16
   2024 03 13 20:40  09 41 21.59    +11 24 57.8   0.0098 1.0027 150.2  m  20?   1.87 188.8   51 133 102  16
   2024 03 13 20:50  09 41 21.38    +11 24 39.2   0.0098 1.0027 150.2  m  20?   1.90 190.4   53 136 102  16
   2024 03 13 21:00  09 41 21.13    +11 24 20.3   0.0098 1.0027 150.2  m  20?   1.94 191.8   54 140 102  16
   2024 03 13 21:10  09 41 20.84    +11 24 01.2   0.0098 1.0027 150.2  m  20?   1.97 193.0   55 143 102  16
   2024 03 13 21:20  09 41 20.53    +11 23 41.9   0.0098 1.0027 150.2  m  20?   2.00 193.9   56 147 102  16
   2024 03 13 21:30  09 41 20.19    +11 23 22.3   0.0098 1.0027 150.2  m  20?   2.04 194.7   57 152 102  16
   2024 03 13 21:40  09 41 19.83    +11 23 02.5   0.0098 1.0027 150.2  m  20?   2.07 195.4   58 156 102  16
   2024 03 13 21:50  09 41 19.44    +11 22 42.4   0.0098 1.0027 150.2  m  20?   2.10 195.8   59 161 102  16
   2024 03 13 22:00  09 41 19.05    +11 22 22.0   0.0098 1.0027 150.2  m  20?   2.13 196.1   59 165 102  16
   2024 03 13 22:10  09 41 18.64    +11 22 01.4   0.0098 1.0027 150.2  m  20?   2.16 196.3   60 170 102  16
   2024 03 13 22:20  09 41 18.23    +11 21 40.6   0.0098 1.0027 150.2  m  20?   2.19 196.3   60 175 102  16
   2024 03 13 22:30  09 41 17.81    +11 21 19.4   0.0098 1.0027 150.2  t  20?   2.21 196.1   60 180 101  16
   2024 03 13 22:40  09 41 17.40    +11 20 58.1   0.0098 1.0027 150.2     20?   2.24 195.8   60 185 101  17
   2024 03 13 22:50  09 41 16.99    +11 20 36.4   0.0098 1.0027 150.2     20?   2.26 195.4   59 190 101  17
   2024 03 13 23:00  09 41 16.58    +11 20 14.5   0.0098 1.0027 150.2     20?   2.28 194.9   59 195 101  17
   2024 03 13 23:10  09 41 16.19    +11 19 52.4   0.0098 1.0027 150.1     20?   2.30 194.2   58 199 101  17
   2024 03 13 23:20  09 41 15.82    +11 19 30.0   0.0098 1.0027 150.1     20?   2.32 193.4   58 204 101  17
   2024 03 13 23:30  09 41 15.47    +11 19 07.3   0.0098 1.0027 150.1     20?   2.33 192.5   57 208 101  17
   2024 03 13 23:40  09 41 15.14    +11 18 44.4   0.0098 1.0027 150.1     20?   2.35 191.5   56 212 101  17
   2024 03 13 23:50  09 41 14.84    +11 18 21.3   0.0098 1.0027 150.1     20?   2.36 190.3   55 216 101  17
   2024 03 14 00:00  09 41 14.57    +11 17 57.9   0.0098 1.0027 150.1     20?   2.38 189.0   54 220 100  17
   2024 03 14 00:10  09 41 14.33    +11 17 34.3   0.0098 1.0027 150.1     20?   2.39 187.7   52 224 100  17
   2024 03 14 00:20  09 41 14.13    +11 17 10.4   0.0098 1.0027 150.1     20?   2.41 186.2   51 227 100  17
   2024 03 14 00:30  09 41 13.98    +11 16 46.4   0.0098 1.0027 150.1     20?   2.43 184.7   50 230 100  17
   2024 03 14 00:40  09 41 13.87    +11 16 22.1   0.0098 1.0027 150.1     20?   2.44 183.0   48 233 100  17
   2024 03 14 00:50  09 41 13.81    +11 15 57.6   0.0098 1.0027 150.1     20?   2.46 181.2   46 236 100  17
   2024 03 14 01:00  09 41 13.80    +11 15 32.9   0.0098 1.0027 150.1     20?   2.48 179.4   45 239 100  18
   2024 03 14 01:10  09 41 13.84    +11 15 08.0   0.0098 1.0027 150.1     20?   2.50 177.5   43 241 100  18
   2024 03 14 01:20  09 41 13.95    +11 14 42.9   0.0098 1.0027 150.1     20?   2.53 175.6   42 244  99  18
   2024 03 14 01:30  09 41 14.11    +11 14 17.6   0.0098 1.0027 150.1     20?   2.55 173.5   40 246  99  18
   2024 03 14 01:40  09 41 14.34    +11 13 52.2   0.0098 1.0027 150.1     20?   2.58 171.5   38 248  99  18
   2024 03 14 01:50  09 41 14.64    +11 13 26.6   0.0098 1.0027 150.1     20?   2.61 169.4   36 250  99  18
   2024 03 14 02:00  09 41 15.00    +11 13 00.8   0.0098 1.0027 150.1     20?   2.65 167.2   34 252  99  18
   2024 03 14 02:10  09 41 15.43    +11 12 34.9   0.0098 1.0027 150.0     20?   2.69 165.1   33 254  99  18
   2024 03 14 02:20  09 41 15.94    +11 12 08.8   0.0098 1.0027 150.0     20?   2.73 163.0   31 256  99  18
   2024 03 14 02:30  09 41 16.53    +11 11 42.7   0.0098 1.0027 150.0     20?   2.78 160.8   29 258  99  18
   2024 03 14 02:40  09 41 17.19    +11 11 16.4   0.0098 1.0027 150.0     20?   2.83 158.7   27 260  99  18
   2024 03 14 02:50  09 41 17.93    +11 10 49.9   0.0098 1.0027 150.0     20?   2.88 156.6   25 262  98  18
   2024 03 14 03:00  09 41 18.75    +11 10 23.4   0.0098 1.0027 150.0     20?   2.94 154.5   23 263  98  18
   2024 03 14 03:10  09 41 19.65    +11 09 56.8   0.0098 1.0027 150.0     20?   3.01 152.5   21 265  98  19
   2024 03 14 03:20  09 41 20.64    +11 09 30.2   0.0098 1.0027 150.0     20?   3.07 150.5   20 267  98  19
   2024 03 14 03:30  09 41 21.71    +11 09 03.4   0.0098 1.0028 150.0     20?   3.14 148.5   18 269  98  19
   2024 03 14 03:40  09 41 22.87    +11 08 36.6   0.0098 1.0028 150.0     20?   3.21 146.6   16 270  98  19
   2024 03 14 03:50  09 41 24.11    +11 08 09.7   0.0098 1.0028 150.0     20?   3.29 144.8   14 272  98  19
   2024 03 14 04:00  09 41 25.45    +11 07 42.9   0.0098 1.0028 150.0     20?   3.37 143.0   12 273  98  19
   2024 03 14 04:10  09 41 26.87    +11 07 15.9   0.0098 1.0028 150.0     20?   3.45 141.3   10 275  97  19
   2024 03 14 04:20  09 41 28.38    +11 06 49.0   0.0098 1.0028 150.0     20?   3.53 139.7    8 277  97  19
   2024 03 14 04:30  09 41 29.97    +11 06 22.1   0.0098 1.0028 150.0     20?   3.62 138.1    6 278  97  19
   2024 03 14 04:40  09 41 31.66    +11 05 55.2   0.0098 1.0028 150.0     20?   3.71 136.6    4 280  97  19
   2024 03 14 04:50  09 41 33.43    +11 05 28.2   0.0098 1.0028 150.0     20?   3.79 135.2    3 281  97  19
   2024 03 14 05:00  09 41 35.30    +11 05 01.4   0.0098 1.0028 150.0 A   20?   3.88 133.8    1 283  97  19
   ................
   2024 03 14 18:30  09 45 14.39    +10 37 27.7   0.0097 1.0029 150.5 Cm  20?   1.94 150.8   29 102  91  24
   2024 03 14 18:40  09 45 15.00    +10 37 10.7   0.0097 1.0029 150.5 Cm  20?   1.90 153.9   31 104  90  25
   2024 03 14 18:50  09 45 15.53    +10 36 53.5   0.0097 1.0029 150.5 Nm  20?   1.87 157.1   33 106  90  25
   2024 03 14 19:00  09 45 15.99    +10 36 36.2   0.0097 1.0029 150.5 Nm  20?   1.84 160.2   34 108  90  25
   2024 03 14 19:10  09 45 16.38    +10 36 18.8   0.0097 1.0029 150.5 Nm  20?   1.83 163.4   36 110  90  25
   2024 03 14 19:20  09 45 16.70    +10 36 01.2   0.0097 1.0029 150.4 Am  20?   1.82 166.5   38 112  90  25
   2024 03 14 19:30  09 45 16.96    +10 35 43.4   0.0097 1.0029 150.4 Am  20?   1.82 169.5   40 114  90  25
   2024 03 14 19:40  09 45 17.15    +10 35 25.5   0.0097 1.0029 150.4 Am  20?   1.82 172.4   41 117  90  25
   2024 03 14 19:50  09 45 17.29    +10 35 07.4   0.0097 1.0029 150.4 Am  20?   1.83 175.1   43 119  90  25
   2024 03 14 20:00  09 45 17.36    +10 34 49.0   0.0097 1.0029 150.4  m  20?   1.84 177.7   45 122  90  25
   2024 03 14 20:10  09 45 17.39    +10 34 30.5   0.0097 1.0029 150.4  m  20?   1.86 180.1   46 124  90  25
   2024 03 14 20:20  09 45 17.36    +10 34 11.8   0.0097 1.0029 150.4  m  20?   1.88 182.3   48 127  90  25
   2024 03 14 20:30  09 45 17.29    +10 33 52.9   0.0097 1.0029 150.4  m  20?   1.91 184.3   49 130  90  25
   2024 03 14 20:40  09 45 17.17    +10 33 33.7   0.0097 1.0029 150.4  m  20?   1.94 186.1   51 133  90  25
   2024 03 14 20:50  09 45 17.02    +10 33 14.4   0.0097 1.0029 150.4  m  20?   1.96 187.6   52 137  90  25
   2024 03 14 21:00  09 45 16.82    +10 32 54.8   0.0097 1.0029 150.4  m  20?   1.99 189.0   53 140  89  25
   2024 03 14 21:10  09 45 16.59    +10 32 35.0   0.0097 1.0029 150.4  m  20?   2.02 190.2   54 144  89  25
   2024 03 14 21:20  09 45 16.34    +10 32 14.9   0.0097 1.0029 150.4  m  20?   2.06 191.3   55 148  89  25
   2024 03 14 21:30  09 45 16.05    +10 31 54.6   0.0097 1.0029 150.4  m  20?   2.09 192.1   56 152  89  25
   2024 03 14 21:40  09 45 15.75    +10 31 34.1   0.0097 1.0029 150.4  m  20?   2.11 192.8   57 157  89  26
   2024 03 14 21:50  09 45 15.42    +10 31 13.4   0.0097 1.0029 150.4  m  20?   2.14 193.3   58 161  89  26
   2024 03 14 22:00  09 45 15.08    +10 30 52.4   0.0097 1.0029 150.4  m  20?   2.17 193.6   58 166  89  26
   2024 03 14 22:10  09 45 14.73    +10 30 31.2   0.0097 1.0029 150.3  m  20?   2.20 193.8   59 170  89  26
   2024 03 14 22:20  09 45 14.37    +10 30 09.7   0.0097 1.0029 150.3  m  20?   2.22 193.8   59 175  89  26
   2024 03 14 22:30  09 45 14.01    +10 29 48.0   0.0097 1.0029 150.3  t  20?   2.25 193.7   59 180  89  26
   2024 03 14 22:40  09 45 13.65    +10 29 26.0   0.0097 1.0029 150.3  m  20?   2.27 193.5   59 185  89  26
   2024 03 14 22:50  09 45 13.30    +10 29 03.9   0.0097 1.0029 150.3  m  20?   2.29 193.1   59 190  88  26
   2024 03 14 23:00  09 45 12.95    +10 28 41.4   0.0097 1.0029 150.3  m  20?   2.31 192.6   58 194  88  26
   2024 03 14 23:10  09 45 12.62    +10 28 18.8   0.0097 1.0029 150.3  m  20?   2.33 191.9   58 199  88  26
   2024 03 14 23:20  09 45 12.30    +10 27 55.9   0.0097 1.0029 150.3  m  20?   2.35 191.2   57 203  88  26
   2024 03 14 23:30  09 45 12.01    +10 27 32.7   0.0097 1.0029 150.3  m  20?   2.36 190.3   56 208  88  26
   2024 03 14 23:40  09 45 11.73    +10 27 09.4   0.0097 1.0029 150.3  m  20?   2.38 189.3   55 212  88  26
   2024 03 14 23:50  09 45 11.49    +10 26 45.8   0.0097 1.0029 150.3  m  20?   2.39 188.2   54 216  88  26
   2024 03 15 00:00  09 45 11.27    +10 26 22.0   0.0097 1.0029 150.3     20?   2.41 187.0   53 219  88  26
   2024 03 15 00:10  09 45 11.10    +10 25 58.0   0.0097 1.0029 150.3     20?   2.42 185.6   52 223  88  27
   2024 03 15 00:20  09 45 10.96    +10 25 33.7   0.0097 1.0029 150.3     20?   2.44 184.2   50 226  88  27
   2024 03 15 00:30  09 45 10.86    +10 25 09.3   0.0097 1.0030 150.3     20?   2.46 182.6   49 229  87  27
   2024 03 15 00:40  09 45 10.80    +10 24 44.6   0.0097 1.0030 150.2     20?   2.47 181.0   47 232  87  27
   2024 03 15 00:50  09 45 10.80    +10 24 19.8   0.0097 1.0030 150.2     20?   2.49 179.3   46 235  87  27
   2024 03 15 01:00  09 45 10.85    +10 23 54.8   0.0097 1.0030 150.2     20?   2.52 177.5   44 238  87  27
   2024 03 15 01:10  09 45 10.95    +10 23 29.5   0.0097 1.0030 150.2     20?   2.54 175.6   43 240  87  27
   2024 03 15 01:20  09 45 11.11    +10 23 04.2   0.0097 1.0030 150.2     20?   2.56 173.7   41 243  87  27
   2024 03 15 01:30  09 45 11.34    +10 22 38.6   0.0097 1.0030 150.2     20?   2.59 171.7   39 245  87  27
   2024 03 15 01:40  09 45 11.62    +10 22 12.9   0.0097 1.0030 150.2     20?   2.62 169.7   37 247  87  27
   2024 03 15 01:50  09 45 11.98    +10 21 47.0   0.0097 1.0030 150.2     20?   2.66 167.6   36 250  87  27
   2024 03 15 02:00  09 45 12.40    +10 21 21.0   0.0097 1.0030 150.2     20?   2.70 165.5   34 252  86  27
   2024 03 15 02:10  09 45 12.89    +10 20 54.8   0.0097 1.0030 150.2     20?   2.74 163.4   32 254  86  28
   2024 03 15 02:20  09 45 13.46    +10 20 28.5   0.0097 1.0030 150.2     20?   2.78 161.3   30 256  86  28
   2024 03 15 02:30  09 45 14.10    +10 20 02.1   0.0097 1.0030 150.2     20?   2.83 159.2   28 257  86  28
   2024 03 15 02:40  09 45 14.82    +10 19 35.6   0.0097 1.0030 150.2     20?   2.88 157.2   27 259  86  28
   2024 03 15 02:50  09 45 15.62    +10 19 09.0   0.0097 1.0030 150.2     20?   2.94 155.1   25 261  86  28
   2024 03 15 03:00  09 45 16.50    +10 18 42.2   0.0097 1.0030 150.2     20?   3.00 153.1   23 263  86  28
   2024 03 15 03:10  09 45 17.47    +10 18 15.5   0.0097 1.0030 150.2     20?   3.07 151.1   21 264  86  28
   2024 03 15 03:20  09 45 18.51    +10 17 48.6   0.0097 1.0030 150.2     20?   3.13 149.1   19 266  85  28
   2024 03 15 03:30  09 45 19.65    +10 17 21.6   0.0097 1.0030 150.2     20?   3.21 147.3   17 268  85  28
   2024 03 15 03:40  09 45 20.86    +10 16 54.7   0.0097 1.0030 150.2     20?   3.28 145.4   15 269  85  28
   2024 03 15 03:50  09 45 22.17    +10 16 27.6   0.0097 1.0030 150.2     20?   3.36 143.7   13 271  85  28
   2024 03 15 04:00  09 45 23.56    +10 16 00.6   0.0097 1.0030 150.2     20?   3.44 141.9   11 273  85  29
   2024 03 15 04:10  09 45 25.05    +10 15 33.5   0.0097 1.0030 150.2     20?   3.52 140.3   10 274  85  29
   2024 03 15 04:20  09 45 26.62    +10 15 06.4   0.0097 1.0030 150.2     20?   3.61 138.7    8 276  85  29
   2024 03 15 04:30  09 45 28.28    +10 14 39.3   0.0097 1.0030 150.2     20?   3.70 137.2    6 278  85  29
   2024 03 15 04:40  09 45 30.03    +10 14 12.2   0.0097 1.0030 150.2     20?   3.79 135.7    4 279  85  29
   2024 03 15 04:50  09 45 31.86    +10 13 45.1   0.0097 1.0030 150.2     20?   3.88 134.3    2 281  84  29
   2024 03 15 05:00  09 45 33.79    +10 13 18.1   0.0097 1.0030 150.2 A   20?   3.97 132.9    0 282  84  29
   ................
   2024 03 15 18:30  09 49 18.26    +09 44 51.1   0.0097 1.0031 150.7 Cm  20?   2.07 149.8   28 103  78  35
   2024 03 15 18:40  09 49 18.92    +09 44 33.2   0.0097 1.0031 150.7 Cm  20?   2.03 152.7   30 104  78  35
   2024 03 15 18:50  09 49 19.52    +09 44 15.1   0.0097 1.0031 150.7 Nm  20?   1.99 155.7   32 106  78  35
   2024 03 15 19:00  09 49 20.03    +09 43 56.9   0.0097 1.0031 150.7 Nm  20?   1.96 158.7   34 108  78  35
   2024 03 15 19:10  09 49 20.48    +09 43 38.6   0.0097 1.0031 150.6 Nm  20?   1.94 161.6   36 111  78  35
   2024 03 15 19:20  09 49 20.86    +09 43 20.1   0.0097 1.0031 150.6 Nm  20?   1.93 164.6   37 113  78  35
   2024 03 15 19:30  09 49 21.18    +09 43 01.4   0.0097 1.0031 150.6 Am  20?   1.92 167.4   39 115  78  35
   2024 03 15 19:40  09 49 21.43    +09 42 42.6   0.0097 1.0031 150.6 Am  20?   1.92 170.1   41 117  78  35
   2024 03 15 19:50  09 49 21.63    +09 42 23.6   0.0096 1.0031 150.6 Am  20?   1.92 172.8   42 120  78  35
   2024 03 15 20:00  09 49 21.76    +09 42 04.4   0.0096 1.0031 150.6  m  20?   1.93 175.2   44 122  77  35
   2024 03 15 20:10  09 49 21.85    +09 41 45.1   0.0096 1.0031 150.6  m  20?   1.95 177.6   46 125  77  35
   2024 03 15 20:20  09 49 21.88    +09 41 25.5   0.0096 1.0031 150.6  m  20?   1.96 179.7   47 128  77  35
   2024 03 15 20:30  09 49 21.86    +09 41 05.8   0.0096 1.0031 150.6  m  20?   1.98 181.7   49 131  77  35
   2024 03 15 20:40  09 49 21.80    +09 40 45.9   0.0096 1.0031 150.6  m  20?   2.01 183.4   50 134  77  35
   2024 03 15 20:50  09 49 21.70    +09 40 25.7   0.0096 1.0031 150.6  m  20?   2.03 185.0   51 138  77  35
   2024 03 15 21:00  09 49 21.56    +09 40 05.4   0.0096 1.0031 150.6  m  20?   2.06 186.4   52 141  77  36
   2024 03 15 21:10  09 49 21.39    +09 39 44.9   0.0096 1.0031 150.6  m  20?   2.08 187.6   54 145  77  36
   2024 03 15 21:20  09 49 21.19    +09 39 24.1   0.0096 1.0032 150.6  m  20?   2.11 188.7   55 149  77  36
   2024 03 15 21:30  09 49 20.97    +09 39 03.1   0.0096 1.0032 150.6  m  20?   2.14 189.5   56 153  77  36
   2024 03 15 21:40  09 49 20.72    +09 38 41.9   0.0096 1.0032 150.6  m  20?   2.16 190.2   56 157  77  36
   2024 03 15 21:50  09 49 20.45    +09 38 20.5   0.0096 1.0032 150.6  m  20?   2.19 190.8   57 161  77  36
   2024 03 15 22:00  09 49 20.16    +09 37 58.9   0.0096 1.0032 150.6  m  20?   2.22 191.2   57 166  77  36
   2024 03 15 22:10  09 49 19.87    +09 37 37.0   0.0096 1.0032 150.5  m  20?   2.24 191.4   58 171  77  36
   2024 03 15 22:20  09 49 19.57    +09 37 15.0   0.0096 1.0032 150.5  m  20?   2.26 191.5   58 175  76  36
   2024 03 15 22:30  09 49 19.26    +09 36 52.7   0.0096 1.0032 150.5  t  20?   2.29 191.4   58 180  76  36
   2024 03 15 22:40  09 49 18.96    +09 36 30.1   0.0096 1.0032 150.5  m  20?   2.31 191.2   58 185  76  36
   2024 03 15 22:50  09 49 18.66    +09 36 07.4   0.0096 1.0032 150.5  m  20?   2.33 190.8   58 189  76  36
   2024 03 15 23:00  09 49 18.37    +09 35 44.4   0.0096 1.0032 150.5  m  20?   2.35 190.4   57 194  76  36
   2024 03 15 23:10  09 49 18.09    +09 35 21.3   0.0096 1.0032 150.5  m  20?   2.36 189.8   57 199  76  36
   2024 03 15 23:20  09 49 17.83    +09 34 57.9   0.0096 1.0032 150.5  m  20?   2.38 189.0   56 203  76  36
   2024 03 15 23:30  09 49 17.59    +09 34 34.3   0.0096 1.0032 150.5  m  20?   2.40 188.2   55 207  76  36
   2024 03 15 23:40  09 49 17.38    +09 34 10.4   0.0096 1.0032 150.5  m  20?   2.41 187.2   54 211  76  37
   2024 03 15 23:50  09 49 17.19    +09 33 46.4   0.0096 1.0032 150.5  m  20?   2.43 186.1   53 215  76  37
   2024 03 16 00:00  09 49 17.03    +09 33 22.2   0.0096 1.0032 150.5  m  20?   2.44 184.9   52 219  76  37
   2024 03 16 00:10  09 49 16.91    +09 32 57.7   0.0096 1.0032 150.5  m  20?   2.46 183.6   51 222  75  37
   2024 03 16 00:20  09 49 16.82    +09 32 33.1   0.0096 1.0032 150.5  m  20?   2.47 182.2   50 225  75  37
   2024 03 16 00:30  09 49 16.78    +09 32 08.3   0.0096 1.0032 150.5  m  20?   2.49 180.7   48 229  75  37
   2024 03 16 00:40  09 49 16.78    +09 31 43.3   0.0096 1.0032 150.5  m  20?   2.51 179.1   47 231  75  37
   2024 03 16 00:50  09 49 16.84    +09 31 18.1   0.0096 1.0032 150.4  m  20?   2.53 177.4   45 234  75  37
   2024 03 16 01:00  09 49 16.94    +09 30 52.7   0.0096 1.0032 150.4  m  20?   2.55 175.6   44 237  75  37
   2024 03 16 01:10  09 49 17.10    +09 30 27.2   0.0096 1.0032 150.4     20?   2.58 173.8   42 240  75  37
   2024 03 16 01:20  09 49 17.32    +09 30 01.5   0.0096 1.0032 150.4     20?   2.60 171.9   40 242  75  37
   2024 03 16 01:30  09 49 17.60    +09 29 35.7   0.0096 1.0032 150.4     20?   2.63 170.0   39 244  75  37
   2024 03 16 01:40  09 49 17.94    +09 29 09.7   0.0096 1.0032 150.4     20?   2.67 168.0   37 247  75  38
   2024 03 16 01:50  09 49 18.35    +09 28 43.5   0.0096 1.0032 150.4     20?   2.70 166.0   35 249  74  38
   2024 03 16 02:00  09 49 18.83    +09 28 17.2   0.0096 1.0032 150.4     20?   2.74 163.9   33 251  74  38
   2024 03 16 02:10  09 49 19.38    +09 27 50.9   0.0096 1.0032 150.4     20?   2.78 161.8   31 253  74  38
   2024 03 16 02:20  09 49 20.01    +09 27 24.3   0.0096 1.0032 150.4     20?   2.83 159.8   30 255  74  38
   2024 03 16 02:30  09 49 20.71    +09 26 57.7   0.0096 1.0032 150.4     20?   2.88 157.7   28 257  74  38
   2024 03 16 02:40  09 49 21.48    +09 26 31.0   0.0096 1.0032 150.4     20?   2.94 155.7   26 258  74  38
   2024 03 16 02:50  09 49 22.34    +09 26 04.2   0.0096 1.0032 150.4     20?   3.00 153.7   24 260  74  38
   2024 03 16 03:00  09 49 23.28    +09 25 37.2   0.0096 1.0032 150.4     20?   3.06 151.7   22 262  74  38
   2024 03 16 03:10  09 49 24.30    +09 25 10.3   0.0096 1.0032 150.4     20?   3.13 149.8   20 264  74  38
   2024 03 16 03:20  09 49 25.41    +09 24 43.2   0.0096 1.0032 150.4     20?   3.20 147.9   18 265  73  38
   2024 03 16 03:30  09 49 26.60    +09 24 16.1   0.0096 1.0032 150.4     20?   3.27 146.1   17 267  73  39
   2024 03 16 03:40  09 49 27.88    +09 23 49.0   0.0096 1.0032 150.4     20?   3.35 144.3   15 269  73  39
   2024 03 16 03:50  09 49 29.25    +09 23 21.8   0.0096 1.0032 150.4     20?   3.43 142.5   13 270  73  39
   2024 03 16 04:00  09 49 30.70    +09 22 54.5   0.0096 1.0032 150.4     20?   3.51 140.9   11 272  73  39
   2024 03 16 04:10  09 49 32.24    +09 22 27.3   0.0097 1.0032 150.4     20?   3.60 139.3    9 274  73  39
   2024 03 16 04:20  09 49 33.88    +09 22 00.0   0.0097 1.0032 150.4     20?   3.69 137.7    7 275  73  39
   2024 03 16 04:30  09 49 35.60    +09 21 32.8   0.0097 1.0032 150.4     20?   3.78 136.2    5 277  73  39
   2024 03 16 04:40  09 49 37.41    +09 21 05.5   0.0097 1.0032 150.4     20?   3.87 134.8    3 278  73  39
   2024 03 16 04:50  09 49 39.30    +09 20 38.3   0.0097 1.0032 150.4     20?   3.96 133.5    1 280  72  39
   2024 03 16 05:00  09 49 41.29    +09 20 11.1   0.0097 1.0032 150.4 A   20?   4.05 132.2    0 282  72  39
   ................
   2024 03 16 18:30  09 53 31.19    +08 50 50.0   0.0096 1.0034 150.9 Cm  20?   2.20 149.0   28 103  66  45
   2024 03 16 18:40  09 53 31.91    +08 50 31.1   0.0096 1.0034 150.9 Cm  20?   2.15 151.7   30 105  66  45
   2024 03 16 18:50  09 53 32.57    +08 50 12.0   0.0096 1.0034 150.9 Nm  20?   2.11 154.5   31 107  66  45
   2024 03 16 19:00  09 53 33.15    +08 49 52.9   0.0096 1.0034 150.9 Nm  20?   2.08 157.3   33 109  66  45
   2024 03 16 19:10  09 53 33.65    +08 49 33.6   0.0096 1.0034 150.9 Nm  20?   2.06 160.1   35 111  66  46
   2024 03 16 19:20  09 53 34.09    +08 49 14.2   0.0096 1.0034 150.9 Nm  20?   2.04 162.8   37 113  66  46
   2024 03 16 19:30  09 53 34.47    +08 48 54.7   0.0096 1.0034 150.9 Am  20?   2.03 165.5   38 116  66  46
   2024 03 16 19:40  09 53 34.78    +08 48 34.9   0.0096 1.0034 150.9 Am  20?   2.02 168.1   40 118  66  46
   2024 03 16 19:50  09 53 35.03    +08 48 15.1   0.0096 1.0034 150.9 Am  20?   2.02 170.6   42 121  66  46
   2024 03 16 20:00  09 53 35.23    +08 47 55.0   0.0096 1.0034 150.9  m  20?   2.03 173.0   43 123  66  46
   2024 03 16 20:10  09 53 35.37    +08 47 34.9   0.0096 1.0034 150.9  m  20?   2.04 175.2   45 126  66  46
   2024 03 16 20:20  09 53 35.46    +08 47 14.5   0.0096 1.0034 150.8  m  20?   2.05 177.3   46 129  65  46
   2024 03 16 20:30  09 53 35.50    +08 46 53.9   0.0096 1.0034 150.8  m  20?   2.06 179.2   48 132  65  46
   2024 03 16 20:40  09 53 35.50    +08 46 33.2   0.0096 1.0034 150.8  m  20?   2.08 181.0   49 135  65  46
   2024 03 16 20:50  09 53 35.46    +08 46 12.3   0.0096 1.0034 150.8  m  20?   2.10 182.5   50 138  65  46
   2024 03 16 21:00  09 53 35.38    +08 45 51.2   0.0096 1.0034 150.8  m  20?   2.12 183.9   52 142  65  46
   2024 03 16 21:10  09 53 35.26    +08 45 29.9   0.0096 1.0034 150.8  m  20?   2.15 185.2   53 145  65  46
   2024 03 16 21:20  09 53 35.12    +08 45 08.4   0.0096 1.0034 150.8  m  20?   2.17 186.2   54 149  65  46
   2024 03 16 21:30  09 53 34.95    +08 44 46.7   0.0096 1.0034 150.8  m  20?   2.19 187.1   55 153  65  46
   2024 03 16 21:40  09 53 34.75    +08 44 24.9   0.0096 1.0034 150.8  m  20?   2.22 187.8   55 157  65  46
   2024 03 16 21:50  09 53 34.54    +08 44 02.8   0.0096 1.0034 150.8  m  20?   2.24 188.4   56 162  65  46
   2024 03 16 22:00  09 53 34.31    +08 43 40.5   0.0096 1.0034 150.8  m  20?   2.26 188.8   57 166  65  46
   2024 03 16 22:10  09 53 34.07    +08 43 18.0   0.0096 1.0034 150.8  m  20?   2.29 189.1   57 171  65  46
   2024 03 16 22:20  09 53 33.83    +08 42 55.3   0.0096 1.0034 150.8  m  20?   2.31 189.2   57 175  65  47
   2024 03 16 22:30  09 53 33.58    +08 42 32.4   0.0096 1.0034 150.8  t  20?   2.33 189.2   57 180  65  47
   2024 03 16 22:40  09 53 33.33    +08 42 09.4   0.0096 1.0034 150.8  m  20?   2.35 189.0   57 184  65  47
   2024 03 16 22:50  09 53 33.09    +08 41 46.1   0.0096 1.0034 150.8  m  20?   2.37 188.7   57 189  64  47
   2024 03 16 23:00  09 53 32.85    +08 41 22.6   0.0096 1.0034 150.8  m  20?   2.38 188.2   56 194  64  47
   2024 03 16 23:10  09 53 32.63    +08 40 58.9   0.0096 1.0034 150.7  m  20?   2.40 187.7   56 198  64  47
   2024 03 16 23:20  09 53 32.42    +08 40 35.0   0.0096 1.0034 150.7  m  20?   2.42 187.0   55 202  64  47
   2024 03 16 23:30  09 53 32.24    +08 40 10.9   0.0096 1.0034 150.7  m  20?   2.43 186.1   54 206  64  47
   2024 03 16 23:40  09 53 32.07    +08 39 46.6   0.0096 1.0034 150.7  m  20?   2.45 185.2   54 210  64  47
   2024 03 16 23:50  09 53 31.94    +08 39 22.1   0.0096 1.0034 150.7  m  20?   2.46 184.2   52 214  64  47
   2024 03 17 00:00  09 53 31.84    +08 38 57.5   0.0096 1.0034 150.7  m  20?   2.48 183.0   51 218  64  47
   2024 03 17 00:10  09 53 31.77    +08 38 32.7   0.0096 1.0034 150.7  m  20?   2.49 181.7   50 221  64  47
   2024 03 17 00:20  09 53 31.74    +08 38 07.6   0.0096 1.0034 150.7  m  20?   2.51 180.3   49 225  64  47
   2024 03 17 00:30  09 53 31.75    +08 37 42.4   0.0096 1.0034 150.7  m  20?   2.53 178.8   47 228  64  47
   2024 03 17 00:40  09 53 31.81    +08 37 17.1   0.0096 1.0034 150.7  m  20?   2.55 177.3   46 231  63  47
   2024 03 17 00:50  09 53 31.92    +08 36 51.6   0.0096 1.0034 150.7  m  20?   2.57 175.6   44 233  63  48
   2024 03 17 01:00  09 53 32.08    +08 36 25.9   0.0096 1.0034 150.7  m  20?   2.59 173.9   43 236  63  48
   2024 03 17 01:10  09 53 32.29    +08 36 00.0   0.0096 1.0034 150.7  m  20?   2.62 172.1   41 239  63  48
   2024 03 17 01:20  09 53 32.57    +08 35 34.1   0.0096 1.0034 150.7  m  20?   2.64 170.2   40 241  63  48
   2024 03 17 01:30  09 53 32.90    +08 35 07.9   0.0096 1.0034 150.7  m  20?   2.68 168.3   38 243  63  48
   2024 03 17 01:40  09 53 33.30    +08 34 41.7   0.0096 1.0034 150.7  m  20?   2.71 166.4   36 246  63  48
   2024 03 17 01:50  09 53 33.76    +08 34 15.3   0.0096 1.0034 150.7  m  20?   2.75 164.4   35 248  63  48
   2024 03 17 02:00  09 53 34.30    +08 33 48.8   0.0096 1.0034 150.7  m  20?   2.79 162.4   33 250  63  48
   2024 03 17 02:10  09 53 34.91    +08 33 22.2   0.0096 1.0034 150.7  m  20?   2.83 160.3   31 252  63  48
   2024 03 17 02:20  09 53 35.59    +08 32 55.4   0.0096 1.0034 150.7     20?   2.88 158.3   29 254  63  48
   2024 03 17 02:30  09 53 36.34    +08 32 28.6   0.0096 1.0034 150.7     20?   2.94 156.3   27 256  62  48
   2024 03 17 02:40  09 53 37.18    +08 32 01.7   0.0096 1.0034 150.7     20?   2.99 154.3   25 258  62  48
   2024 03 17 02:50  09 53 38.09    +08 31 34.7   0.0096 1.0034 150.6     20?   3.05 152.4   24 259  62  49
   2024 03 17 03:00  09 53 39.09    +08 31 07.6   0.0096 1.0034 150.6     20?   3.12 150.4   22 261  62  49
   2024 03 17 03:10  09 53 40.17    +08 30 40.4   0.0096 1.0034 150.6     20?   3.19 148.6   20 263  62  49
   2024 03 17 03:20  09 53 41.33    +08 30 13.2   0.0096 1.0034 150.6     20?   3.26 146.7   18 265  62  49
   2024 03 17 03:30  09 53 42.58    +08 29 45.9   0.0096 1.0034 150.6     20?   3.34 144.9   16 266  62  49
   2024 03 17 03:40  09 53 43.92    +08 29 18.6   0.0096 1.0034 150.6     20?   3.41 143.2   14 268  62  49
   2024 03 17 03:50  09 53 45.34    +08 28 51.3   0.0096 1.0034 150.6     20?   3.50 141.5   12 270  62  49
   2024 03 17 04:00  09 53 46.85    +08 28 23.9   0.0096 1.0035 150.6     20?   3.58 139.9   10 271  62  49
   2024 03 17 04:10  09 53 48.46    +08 27 56.5   0.0096 1.0035 150.6     20?   3.67 138.3    8 273  61  49
   2024 03 17 04:20  09 53 50.15    +08 27 29.1   0.0096 1.0035 150.6     20?   3.76 136.8    7 274  61  49
   2024 03 17 04:30  09 53 51.93    +08 27 01.7   0.0096 1.0035 150.7     20?   3.85 135.4    5 276  61  49
   2024 03 17 04:40  09 53 53.80    +08 26 34.3   0.0096 1.0035 150.7     20?   3.95 134.0    3 278  61  50
   2024 03 17 04:50  09 53 55.75    +08 26 06.9   0.0096 1.0035 150.7     20?   4.04 132.7    1 279  61  50
   2024 03 17 05:00  09 53 57.80    +08 25 39.6   0.0096 1.0035 150.7 A   20?   4.14 131.4    0 281  61  50
   ................
   2024 03 17 18:30  09 57 53.15    +07 55 23.8   0.0095 1.0036 151.2 Cm  20?   2.33 148.2   27 104  55  56
   2024 03 17 18:40  09 57 53.94    +07 55 03.9   0.0095 1.0036 151.2 Cm  20?   2.28 150.8   29 106  55  56
   2024 03 17 18:50  09 57 54.65    +07 54 43.9   0.0095 1.0036 151.2 Cm  20?   2.24 153.4   31 108  55  56
   2024 03 17 19:00  09 57 55.29    +07 54 23.8   0.0095 1.0036 151.2 Nm  20?   2.21 156.0   32 110  55  56
   2024 03 17 19:10  09 57 55.86    +07 54 03.6   0.0095 1.0036 151.2 Nm  20?   2.18 158.6   34 112  54  56
   2024 03 17 19:20  09 57 56.36    +07 53 43.3   0.0095 1.0036 151.2 Nm  20?   2.16 161.2   36 114  54  56
   2024 03 17 19:30  09 57 56.79    +07 53 22.8   0.0095 1.0036 151.1 Am  20?   2.14 163.8   38 116  54  56
   2024 03 17 19:40  09 57 57.16    +07 53 02.2   0.0095 1.0036 151.1 Am  20?   2.13 166.3   39 119  54  56
   2024 03 17 19:50  09 57 57.48    +07 52 41.4   0.0095 1.0036 151.1 Am  20?   2.12 168.7   41 121  54  56
   2024 03 17 20:00  09 57 57.73    +07 52 20.5   0.0095 1.0036 151.1  m  20?   2.12 170.9   43 124  54  56
   2024 03 17 20:10  09 57 57.93    +07 51 59.5   0.0095 1.0036 151.1  m  20?   2.13 173.1   44 127  54  56
   2024 03 17 20:20  09 57 58.08    +07 51 38.3   0.0095 1.0036 151.1  m  20?   2.14 175.1   46 129  54  56
   2024 03 17 20:30  09 57 58.18    +07 51 16.9   0.0095 1.0036 151.1  m  20?   2.15 177.0   47 132  54  56
   2024 03 17 20:40  09 57 58.23    +07 50 55.4   0.0095 1.0036 151.1  m  20?   2.16 178.7   48 135  54  56
   2024 03 17 20:50  09 57 58.24    +07 50 33.7   0.0095 1.0036 151.1  m  20?   2.18 180.2   50 139  54  56
   2024 03 17 21:00  09 57 58.22    +07 50 11.8   0.0095 1.0036 151.1  m  20?   2.20 181.6   51 142  54  56
   2024 03 17 21:10  09 57 58.16    +07 49 49.8   0.0095 1.0036 151.1  m  20?   2.22 182.9   52 146  54  57
   2024 03 17 21:20  09 57 58.07    +07 49 27.5   0.0095 1.0036 151.1  m  20?   2.24 183.9   53 150  54  57
   2024 03 17 21:30  09 57 57.96    +07 49 05.2   0.0095 1.0036 151.1  m  20?   2.26 184.8   54 154  54  57
   2024 03 17 21:40  09 57 57.82    +07 48 42.6   0.0095 1.0036 151.1  m  20?   2.28 185.6   55 158  54  57
   2024 03 17 21:50  09 57 57.66    +07 48 19.8   0.0095 1.0036 151.1  m  20?   2.30 186.2   55 162  54  57
   2024 03 17 22:00  09 57 57.49    +07 47 56.9   0.0095 1.0036 151.1  m  20?   2.32 186.6   56 166  53  57
   2024 03 17 22:10  09 57 57.31    +07 47 33.8   0.0095 1.0036 151.1  m  20?   2.34 186.9   56 171  53  57
   2024 03 17 22:20  09 57 57.11    +07 47 10.5   0.0095 1.0036 151.1  m  20?   2.36 187.0   56 175  53  57
   2024 03 17 22:30  09 57 56.92    +07 46 47.0   0.0095 1.0036 151.0  t  20?   2.38 187.0   56 180  53  57
   2024 03 17 22:40  09 57 56.73    +07 46 23.3   0.0095 1.0036 151.0  m  20?   2.39 186.9   56 184  53  57
   2024 03 17 22:50  09 57 56.54    +07 45 59.5   0.0095 1.0036 151.0  m  20?   2.41 186.6   56 189  53  57
   2024 03 17 23:00  09 57 56.35    +07 45 35.5   0.0095 1.0036 151.0  m  20?   2.43 186.2   56 193  53  57
   2024 03 17 23:10  09 57 56.18    +07 45 11.3   0.0095 1.0036 151.0  m  20?   2.44 185.7   55 197  53  57
   2024 03 17 23:20  09 57 56.03    +07 44 46.9   0.0095 1.0036 151.0  m  20?   2.46 185.0   54 202  53  57
   2024 03 17 23:30  09 57 55.90    +07 44 22.3   0.0095 1.0036 151.0  m  20?   2.47 184.2   54 206  53  57
   2024 03 17 23:40  09 57 55.79    +07 43 57.6   0.0095 1.0036 151.0  m  20?   2.49 183.3   53 210  53  57
   2024 03 17 23:50  09 57 55.71    +07 43 32.7   0.0095 1.0036 151.0  m  20?   2.50 182.3   52 213  53  57
   2024 03 18 00:00  09 57 55.66    +07 43 07.6   0.0095 1.0036 151.0  m  20?   2.52 181.1   51 217  53  57
   

CAPSTONE (JPL-ID: -1176)

   Date (UTC) HH:MM   RA              Dec         delta   r     elong SM  mag  '/hr    PA   alt  az moo ill
   ---- -- -- -----  -------------   -----------  ------ ------ ----- --  --- ------ ------ --- --- --- ---
   2024 03 04 03:20  17 06 08.36    -38 07 18.9   404386 0.9914  84.8  m  15?  23.17 109.6    0 144  10  44
   2024 03 04 03:30  17 06 26.70    -38 08 36.4   404214 0.9914  84.7  m  15?  22.80 109.3    0 145  10  44
   2024 03 04 03:40  17 06 44.79    -38 09 51.5   404047 0.9914  84.7  m  15?  22.44 109.0    1 147  10  44
   2024 03 04 03:50  17 07 02.63    -38 11 04.3   403884 0.9914  84.6  m  15?  22.08 108.7    2 149  10  44
   2024 03 04 04:00  17 07 20.23    -38 12 14.6   403727 0.9914  84.6  m  15?  21.74 108.3    3 150  10  44
   2024 03 04 04:10  17 07 37.61    -38 13 22.3   403574 0.9914  84.5  m  15?  21.41 107.8    4 152  10  44
   2024 03 04 04:20  17 07 54.78    -38 14 27.3   403427 0.9914  84.5  m  15?  21.09 107.4    5 154  10  44
   2024 03 04 04:30  17 08 11.76    -38 15 29.6   403285 0.9914  84.4  m  15?  20.79 106.8    5 155  10  44
   2024 03 04 04:40  17 08 28.54    -38 16 29.2   403149 0.9914  84.4  m  15?  20.51 106.2    6 157  10  43
   2024 03 04 04:50  17 08 45.16    -38 17 25.9   403018 0.9914  84.3  m  15?  20.24 105.6    7 159  10  43
   2024 03 04 05:00  17 09 01.62    -38 18 19.6   402893 0.9914  84.3  m  15?  19.99 105.0    7 161  10  43
   2024 03 04 05:10  17 09 17.94    -38 19 10.5   402775 0.9914  84.2  m  15?  19.75 104.2    8 163  10  43
   2024 03 04 05:20  17 09 34.13    -38 19 58.2   402662 0.9914  84.2 Am  15?  19.54 103.5    8 165  10  43
   2024 03 04 05:30  17 09 50.21    -38 20 43.0   402556 0.9914  84.1 Am  15?  19.34 102.7    9 166  10  43
   2024 03 04 05:40  17 10 06.20    -38 21 24.6   402456 0.9914  84.1 Am  15?  19.17 101.8    9 168  10  43
   2024 03 04 05:50  17 10 22.10    -38 22 03.1   402362 0.9914  84.0 Nm  15?  19.02 101.0   10 170  10  43
   2024 03 04 06:00  17 10 37.94    -38 22 38.4   402275 0.9914  84.0 Nm  15?  18.89 100.1   10 172  10  43
   2024 03 04 06:10  17 10 53.72    -38 23 10.5   402194 0.9914  83.9 Nm  15?  18.79  99.2   10 174  10  43
   2024 03 04 06:20  17 11 09.48    -38 23 39.4   402119 0.9914  83.9 Cm  15?  18.71  98.2   10 176  10  43
   2024 03 04 06:30  17 11 25.21    -38 24 05.1   402052 0.9914  83.9 Cm  15?  18.65  97.2   10 178  10  43
   ................
   2024 03 05 04:20  18 09 24.58    -37 50 43.3   393576 0.9912  73.3  m  16?  23.74  89.9    0 144   9  33
   2024 03 05 04:30  18 09 44.48    -37 50 42.5   393372 0.9912  73.3  m  16?  23.42  89.3    0 145   9  33
   2024 03 05 04:40  18 10 04.12    -37 50 39.0   393172 0.9912  73.2  m  16?  23.11  88.7    1 147   9  33
   2024 03 05 04:50  18 10 23.51    -37 50 33.0   392976 0.9912  73.2  m  16?  22.83  88.0    2 148   9  33
   2024 03 05 05:00  18 10 42.64    -37 50 24.3   392786 0.9912  73.1  m  16?  22.55  87.3    3 150   9  33
   2024 03 05 05:10  18 11 01.55    -37 50 12.8   392600 0.9912  73.1  m  16?  22.30  86.5    4 152   9  33
   2024 03 05 05:20  18 11 20.24    -37 49 58.4   392420 0.9912  73.0 Am  16?  22.07  85.7    5 154   9  33
   2024 03 05 05:30  18 11 38.72    -37 49 41.1   392246 0.9912  72.9 Am  16?  21.86  84.9    6 155   9  33
   2024 03 05 05:40  18 11 57.01    -37 49 20.8   392077 0.9912  72.9 Am  16?  21.67  84.1    7 157   9  33
   2024 03 05 05:50  18 12 15.13    -37 48 57.5   391914 0.9912  72.8 Nm  16?  21.51  83.2    7 159   9  33
   2024 03 05 06:00  18 12 33.08    -37 48 31.1   391756 0.9911  72.8 Nm  16?  21.37  82.3    8 161   9  33
   2024 03 05 06:10  18 12 50.88    -37 48 01.5   391605 0.9911  72.7 Nm  16?  21.25  81.4    8 163   9  32
   2024 03 05 06:20  18 13 08.54    -37 47 28.6   391460 0.9911  72.7 Cm  16?  21.15  80.5    9 165   9  32
   2024 03 05 06:30  18 13 26.09    -37 46 52.6   391321 0.9911  72.6 Cm  16?  21.08  79.5    9 166   9  32
   ................
   2024 03 06 04:50  19 14 21.58    -33 46 47.3   379234 0.9909  60.7  r  16?  29.04  68.0    0 136   6  23
   2024 03 06 05:00  19 14 43.05    -33 44 57.9   378987 0.9909  60.6  m  16?  28.81  67.3    0 138   6  23
   2024 03 06 05:10  19 15 04.23    -33 43 05.9   378744 0.9909  60.5 Am  16?  28.59  66.5    1 139   6  23
   2024 03 06 05:20  19 15 25.12    -33 41 11.2   378505 0.9909  60.5 Am  16?  28.39  65.7    3 141   6  23
   2024 03 06 05:30  19 15 45.74    -33 39 13.7   378271 0.9909  60.4 Am  16?  28.21  64.9    4 143   6  23
   2024 03 06 05:40  19 16 06.10    -33 37 13.3   378042 0.9909  60.3 Am  16?  28.05  64.1    5 144   6  23
   2024 03 06 05:50  19 16 26.20    -33 35 09.9   377817 0.9909  60.3 Nm  16?  27.92  63.3    6 146   6  22
   2024 03 06 06:00  19 16 46.07    -33 33 03.5   377598 0.9909  60.2 Nm  16?  27.81  62.4    7 148   6  22
   2024 03 06 06:10  19 17 05.70    -33 30 53.9   377384 0.9909  60.1 Nm  16?  27.72  61.6    8 150   6  22
   2024 03 06 06:20  19 17 25.12    -33 28 41.1   377176 0.9909  60.1 Cm  16?  27.66  60.8    9 151   6  22
   2024 03 06 06:30  19 17 44.34    -33 26 25.1   376974 0.9909  60.0 Cm  16?  27.62  59.9   10 153   6  22
   ................
   2024 03 07 05:30  20 37 34.53    -26 13 19.9   367749 0.9906  42.2 Ar  17?  46.06 107.4    0 125   2  14
   2024 03 07 05:40  20 38 06.89    -26 15 37.4   367615 0.9906  42.2 Nm  17?  45.25 107.3    1 126   2  14
   2024 03 07 05:50  20 38 38.70    -26 17 52.0   367484 0.9906  42.1 Nm  17?  44.46 107.3    2 128   3  14
   2024 03 07 06:00  20 39 09.98    -26 20 03.5   367357 0.9906  42.0 Nm  17?  43.69 107.2    3 130   3  13
   2024 03 07 06:10  20 39 40.75    -26 22 12.1   367234 0.9906  41.9 Nm  17?  42.94 107.0    5 131   3  13
   2024 03 07 06:20  20 40 11.02    -26 24 17.6   367116 0.9906  41.8 Cm  17?  42.21 106.9    6 133   3  13
   2024 03 07 06:30  20 40 40.82    -26 26 20.0   367003 0.9906  41.7 Cm  17?  41.50 106.8    7 135   3  13
   ................
   2024 03 11 18:30  00 46 59.03    -04 53 31.1   371459 0.9913  19.7 Cm  17?  33.87  44.5   10 254   8   2
   2024 03 11 18:40  00 47 15.05    -04 49 29.2   371621 0.9913  19.7 Cm  17?  34.21  45.0    8 255   8   2
   2024 03 11 18:50  00 47 31.38    -04 45 27.1   371785 0.9913  19.8 Nm  17?  34.55  45.5    6 257   8   2
   2024 03 11 19:00  00 47 48.02    -04 41 24.7   371951 0.9913  19.8 Nm  17?  34.90  46.0    5 259   8   2
   2024 03 11 19:10  00 48 04.97    -04 37 22.2   372119 0.9913  19.9 Nm  17?  35.26  46.6    3 261   8   2
   2024 03 11 19:20  00 48 22.24    -04 33 19.6   372287 0.9913  19.9 Am  17?  35.61  47.1    1 262   8   2
   2024 03 11 19:30  00 48 39.83    -04 29 16.8   372457 0.9913  20.0 Am  17?  35.97  47.6    0 264   8   2
   ................
   2024 03 12 18:30  01 30 40.97    +05 47 48.2   365127 0.9918  30.9 Cm  17?  37.80  35.7   24 255   4   8
   2024 03 12 18:40  01 30 55.87    +05 52 55.9   365269 0.9918  31.0 Cm  17?  38.12  36.2   23 257   4   8
   2024 03 12 18:50  01 31 11.09    +05 58 04.2   365415 0.9918  31.1 Nm  17?  38.46  36.7   21 259   4   8
   2024 03 12 19:00  01 31 26.63    +06 03 13.2   365564 0.9918  31.1 Nm  17?  38.80  37.2   19 260   4   8
   2024 03 12 19:10  01 31 42.50    +06 08 22.9   365716 0.9918  31.2 Nm  17?  39.15  37.7   17 262   4   8
   2024 03 12 19:20  01 31 58.70    +06 13 33.3   365872 0.9918  31.3 Am  17?  39.52  38.2   16 264   4   8
   2024 03 12 19:30  01 32 15.23    +06 18 44.6   366029 0.9918  31.4 Am  17?  39.89  38.7   14 266   4   8
   2024 03 12 19:40  01 32 32.11    +06 23 56.6   366189 0.9918  31.5 Am  17?  40.28  39.2   12 267   4   8
   2024 03 12 19:50  01 32 49.33    +06 29 09.5   366350 0.9918  31.6  m  17?  40.67  39.7   10 269   4   8
   2024 03 12 20:00  01 33 06.90    +06 34 23.3   366513 0.9918  31.6  m  17?  41.07  40.1    9 271   4   8
   2024 03 12 20:10  01 33 24.82    +06 39 38.1   366676 0.9918  31.7  m  17?  41.48  40.6    7 272   4   8
   2024 03 12 20:20  01 33 43.08    +06 44 53.8   366840 0.9918  31.8  m  17?  41.90  41.0    5 274   4   8
   2024 03 12 20:30  01 34 01.71    +06 50 10.6   367004 0.9919  31.9  m  17?  42.32  41.5    3 275   4   8
   2024 03 12 20:40  01 34 20.68    +06 55 28.5   367168 0.9919  32.0  m  17?  42.75  41.9    1 277   4   8
   2024 03 12 20:50  01 34 40.01    +07 00 47.6   367332 0.9919  32.1  m  17?  43.19  42.3    0 279   4   8
   ................
   2024 03 13 18:30  02 42 46.18    +14 20 27.8   368205 0.9926  49.3 Cm  17?  33.88  93.5   43 249   4  15
   2024 03 13 18:40  02 43 09.53    +14 20 07.4   368451 0.9926  49.4 Cm  17?  34.11  93.5   41 251   4  15
   2024 03 13 18:50  02 43 33.04    +14 19 46.6   368702 0.9926  49.5 Nm  17?  34.35  93.6   39 253   4  15
   2024 03 13 19:00  02 43 56.71    +14 19 25.5   368959 0.9926  49.6 Nm  17?  34.60  93.6   37 255   4  15
   2024 03 13 19:10  02 44 20.57    +14 19 04.2   369221 0.9926  49.7 Nm  17?  34.87  93.6   36 257   4  15
   2024 03 13 19:20  02 44 44.61    +14 18 42.6   369488 0.9926  49.8 Am  17?  35.15  93.6   34 258   4  15
   2024 03 13 19:30  02 45 08.85    +14 18 20.7   369760 0.9926  49.8 Am  17?  35.45  93.6   32 260   5  15
   2024 03 13 19:40  02 45 33.29    +14 17 58.7   370035 0.9926  49.9 Am  17?  35.75  93.6   30 262   5  16
   2024 03 13 19:50  02 45 57.95    +14 17 36.6   370315 0.9926  50.0 Am  17?  36.07  93.6   28 264   5  16
   2024 03 13 20:00  02 46 22.83    +14 17 14.3   370599 0.9926  50.1  m  17?  36.39  93.6   27 265   5  16
   2024 03 13 20:10  02 46 47.93    +14 16 52.0   370885 0.9926  50.2  m  17?  36.73  93.6   25 267   5  16
   2024 03 13 20:20  02 47 13.26    +14 16 29.7   371175 0.9926  50.3  m  17?  37.07  93.5   23 268   5  16
   2024 03 13 20:30  02 47 38.83    +14 16 07.4   371468 0.9926  50.4  m  17?  37.42  93.5   21 270   5  16
   2024 03 13 20:40  02 48 04.65    +14 15 45.1   371763 0.9926  50.5  m  17?  37.77  93.5   19 272   5  16
   2024 03 13 20:50  02 48 30.71    +14 15 23.0   372060 0.9926  50.6  m  17?  38.13  93.4   18 273   5  16
   2024 03 13 21:00  02 48 57.02    +14 15 01.0   372358 0.9926  50.6  m  17?  38.49  93.3   16 275   5  16
   2024 03 13 21:10  02 49 23.58    +14 14 39.2   372658 0.9926  50.7  m  17?  38.86  93.3   14 276   5  16
   2024 03 13 21:20  02 49 50.39    +14 14 17.7   372959 0.9926  50.8  m  17?  39.23  93.2   12 278   5  16
   2024 03 13 21:30  02 50 17.46    +14 13 56.4   373261 0.9926  50.9  m  17?  39.60  93.1   10 279   5  16
   2024 03 13 21:40  02 50 44.79    +14 13 35.5   373563 0.9927  51.0  m  17?  39.97  93.1    9 281   5  16
   2024 03 13 21:50  02 51 12.37    +14 13 14.9   373865 0.9927  51.1  m  17?  40.35  93.0    7 282   5  16
   2024 03 13 22:00  02 51 40.21    +14 12 54.7   374167 0.9927  51.2  m  17?  40.72  92.9    5 284   5  16
   2024 03 13 22:10  02 52 08.31    +14 12 35.0   374468 0.9927  51.3  m  17?  41.09  92.8    3 285   5  16
   2024 03 13 22:20  02 52 36.66    +14 12 15.8   374768 0.9927  51.4  m  17?  41.46  92.7    1 287   5  16
   2024 03 13 22:30  02 53 05.26    +14 11 57.2   375066 0.9927  51.5  m  17?  41.82  92.6    0 288   5  16
   ................
   2024 03 14 18:30  03 43 49.30    +15 03 48.7   382335 0.9933  62.9 Cm  16?  23.76  87.0   53 234   8  24
   2024 03 14 18:40  03 44 05.75    +15 04 00.9   382534 0.9933  62.9 Cm  16?  23.98  87.3   51 237   8  25
   2024 03 14 18:50  03 44 22.37    +15 04 12.2   382740 0.9933  63.0 Nm  16?  24.21  87.5   50 240   8  25
   2024 03 14 19:00  03 44 39.15    +15 04 22.6   382952 0.9933  63.0 Nm  16?  24.46  87.8   48 242   8  25
   2024 03 14 19:10  03 44 56.12    +15 04 32.1   383171 0.9933  63.1 Nm  16?  24.73  88.0   46 245   8  25
   2024 03 14 19:20  03 45 13.28    +15 04 40.8   383397 0.9933  63.2 Am  16?  25.01  88.2   45 247   8  25
   2024 03 14 19:30  03 45 30.63    +15 04 48.6   383628 0.9933  63.2 Am  16?  25.30  88.4   43 250   8  25
   2024 03 14 19:40  03 45 48.20    +15 04 55.7   383865 0.9933  63.3 Am  16?  25.61  88.6   41 252   8  25
   2024 03 14 19:50  03 46 06.00    +15 05 02.1   384108 0.9933  63.4 Am  16?  25.94  88.8   39 254   8  25
   2024 03 14 20:00  03 46 24.01    +15 05 07.7   384355 0.9933  63.4  m  16?  26.27  89.0   38 256   8  25
   2024 03 14 20:10  03 46 42.27    +15 05 12.7   384608 0.9933  63.5  m  16?  26.62  89.1   36 258   8  25
   2024 03 14 20:20  03 47 00.77    +15 05 17.1   384865 0.9933  63.6  m  16?  26.98  89.2   34 259   8  25
   2024 03 14 20:30  03 47 19.53    +15 05 20.9   385127 0.9933  63.6  m  16?  27.35  89.4   32 261   8  25
   2024 03 14 20:40  03 47 38.54    +15 05 24.2   385393 0.9933  63.7  m  16?  27.73  89.5   30 263   8  25
   2024 03 14 20:50  03 47 57.82    +15 05 27.1   385662 0.9933  63.8  m  16?  28.12  89.6   29 265   8  25
   2024 03 14 21:00  03 48 17.37    +15 05 29.5   385935 0.9933  63.8  m  16?  28.51  89.7   27 266   8  25
   2024 03 14 21:10  03 48 37.20    +15 05 31.5   386211 0.9933  63.9  m  16?  28.92  89.8   25 268   8  25
   2024 03 14 21:20  03 48 57.31    +15 05 33.1   386490 0.9933  64.0  m  16?  29.33  89.8   23 270   8  25
   2024 03 14 21:30  03 49 17.70    +15 05 34.5   386771 0.9934  64.1  m  16?  29.74  89.9   21 271   8  25
   2024 03 14 21:40  03 49 38.38    +15 05 35.7   387054 0.9934  64.1  m  16?  30.16  89.9   19 273   8  26
   2024 03 14 21:50  03 49 59.35    +15 05 36.7   387340 0.9934  64.2  m  16?  30.58  89.9   18 274   8  26
   2024 03 14 22:00  03 50 20.61    +15 05 37.5   387626 0.9934  64.3  m  16?  31.01  90.0   16 276   8  26
   2024 03 14 22:10  03 50 42.17    +15 05 38.2   387914 0.9934  64.4  m  16?  31.44  90.0   14 277   8  26
   2024 03 14 22:20  03 51 04.02    +15 05 38.9   388202 0.9934  64.4  m  16?  31.86  90.0   12 279   8  26
   2024 03 14 22:30  03 51 26.17    +15 05 39.6   388491 0.9934  64.5  m  16?  32.29  90.0   10 280   8  26
   2024 03 14 22:40  03 51 48.62    +15 05 40.4   388779 0.9934  64.6  m  16?  32.72  90.0    9 282   8  26
   2024 03 14 22:50  03 52 11.36    +15 05 41.2   389068 0.9934  64.7  m  16?  33.15  90.0    7 283   8  26
   2024 03 14 23:00  03 52 34.40    +15 05 42.3   389355 0.9934  64.8  m  16?  33.58  89.9    5 285   8  26
   2024 03 14 23:10  03 52 57.73    +15 05 43.5   389642 0.9934  64.9  m  16?  34.00  89.9    3 286   8  26
   2024 03 14 23:20  03 53 21.35    +15 05 45.0   389927 0.9934  64.9  m  16?  34.42  89.8    1 288   8  26
   2024 03 14 23:30  03 53 45.26    +15 05 46.8   390211 0.9934  65.0  m  16?  34.83  89.8    0 290   8  26
   ................
   2024 03 15 18:30  04 36 30.85    +16 20 31.9   393922 0.9940  74.6 Cm  16?  19.92  83.0   60 218  10  35
   2024 03 15 18:40  04 36 44.62    +16 20 56.1   394057 0.9940  74.7 Cm  16?  20.04  83.4   59 222  10  35
   2024 03 15 18:50  04 36 58.51    +16 21 19.0   394200 0.9940  74.7 Nm  16?  20.19  83.8   58 226  10  35
   2024 03 15 19:00  04 37 12.51    +16 21 40.8   394349 0.9940  74.8 Nm  16?  20.36  84.1   57 229  10  35
   2024 03 15 19:10  04 37 26.65    +16 22 01.5   394507 0.9940  74.8 Nm  16?  20.54  84.5   55 233  10  35
   2024 03 15 19:20  04 37 40.92    +16 22 21.0   394671 0.9940  74.9 Nm  16?  20.74  84.9   54 236  10  35
   2024 03 15 19:30  04 37 55.36    +16 22 39.5   394843 0.9940  74.9 Am  16?  20.97  85.2   52 239  10  35
   2024 03 15 19:40  04 38 09.96    +16 22 56.9   395021 0.9940  75.0 Am  16?  21.20  85.6   50 241  10  35
   2024 03 15 19:50  04 38 24.74    +16 23 13.2   395206 0.9940  75.0 Am  16?  21.46  85.9   49 244  10  35
   2024 03 15 20:00  04 38 39.70    +16 23 28.6   395397 0.9940  75.1  m  16?  21.73  86.2   47 246  10  35
   2024 03 15 20:10  04 38 54.87    +16 23 43.1   395594 0.9940  75.1  m  16?  22.02  86.5   45 249  10  35
   2024 03 15 20:20  04 39 10.24    +16 23 56.6   395798 0.9941  75.2  m  16?  22.32  86.8   44 251  10  35
   2024 03 15 20:30  04 39 25.83    +16 24 09.3   396007 0.9941  75.2  m  16?  22.63  87.0   42 253  10  35
   2024 03 15 20:40  04 39 41.65    +16 24 21.1   396221 0.9941  75.3  m  16?  22.96  87.3   40 255  10  35
   2024 03 15 20:50  04 39 57.71    +16 24 32.2   396441 0.9941  75.3  m  16?  23.30  87.5   38 257  10  35
   2024 03 15 21:00  04 40 14.01    +16 24 42.5   396665 0.9941  75.4  m  16?  23.65  87.7   36 259  10  36
   2024 03 15 21:10  04 40 30.56    +16 24 52.1   396894 0.9941  75.5  m  16?  24.02  87.9   35 261  10  36
   2024 03 15 21:20  04 40 47.37    +16 25 01.0   397128 0.9941  75.5  m  16?  24.39  88.1   33 263  10  36
   2024 03 15 21:30  04 41 04.45    +16 25 09.4   397365 0.9941  75.6  m  16?  24.78  88.3   31 264  10  36
   2024 03 15 21:40  04 41 21.79    +16 25 17.1   397606 0.9941  75.6  m  16?  25.17  88.4   29 266  10  36
   2024 03 15 21:50  04 41 39.42    +16 25 24.4   397850 0.9941  75.7  m  16?  25.57  88.6   27 268  10  36
   2024 03 15 22:00  04 41 57.32    +16 25 31.2   398097 0.9941  75.8  m  16?  25.98  88.7   26 269  10  36
   2024 03 15 22:10  04 42 15.51    +16 25 37.6   398347 0.9941  75.8  m  16?  26.39  88.8   24 271  10  36
   2024 03 15 22:20  04 42 34.00    +16 25 43.7   398600 0.9941  75.9  m  16?  26.81  88.9   22 272  10  36
   2024 03 15 22:30  04 42 52.77    +16 25 49.5   398854 0.9941  76.0  m  16?  27.23  88.9   20 274  10  36
   2024 03 15 22:40  04 43 11.85    +16 25 55.0   399110 0.9941  76.0  m  16?  27.66  89.0   18 275  10  36
   2024 03 15 22:50  04 43 31.22    +16 26 00.3   399367 0.9941  76.1  m  16?  28.09  89.1   16 277  10  36
   2024 03 15 23:00  04 43 50.89    +16 26 05.4   399626 0.9941  76.2  m  16?  28.52  89.1   15 278  10  36
   2024 03 15 23:10  04 44 10.86    +16 26 10.5   399885 0.9941  76.3  m  16?  28.96  89.1   13 280  10  36
   2024 03 15 23:20  04 44 31.13    +16 26 15.6   400144 0.9941  76.3  m  16?  29.39  89.1   11 281  10  36
   2024 03 15 23:30  04 44 51.71    +16 26 20.7   400403 0.9942  76.4  m  16?  29.82  89.2    9 283  10  36
   2024 03 15 23:40  04 45 12.59    +16 26 25.8   400662 0.9942  76.5  m  16?  30.26  89.1    7 285  10  37
   2024 03 15 23:50  04 45 33.77    +16 26 31.1   400920 0.9942  76.6  m  16?  30.69  89.1    6 286  10  37
   2024 03 16 00:00  04 45 55.24    +16 26 36.5   401176 0.9942  76.6  m  16?  31.11  89.1    4 288  10  37
   2024 03 16 00:10  04 46 17.01    +16 26 42.2   401432 0.9942  76.7  m  16?  31.54  89.1    2 289  10  37
   2024 03 16 00:20  04 46 39.08    +16 26 48.1   401685 0.9942  76.8  m  16?  31.96  89.0    0 291  10  37
   ................
   2024 03 16 18:30  05 25 44.28    +17 48 18.3   401445 0.9947  85.5 Cm  15?  18.34  79.4   66 196  10  45
   2024 03 16 18:40  05 25 56.92    +17 48 51.7   401510 0.9948  85.5 Cm  15?  18.38  79.9   65 202   0  45
   2024 03 16 18:50  05 26 09.61    +17 49 23.8   401582 0.9948  85.5 Nm  15?  18.43  80.3   64 207  10  45
   2024 03 16 19:00  05 26 22.36    +17 49 54.5   401663 0.9948  85.6 Nm  15?  18.51  80.8   63 212  10  45
   2024 03 16 19:10  05 26 35.19    +17 50 23.9   401752 0.9948  85.6 Nm  15?  18.61  81.2   62 217  10  46
   2024 03 16 19:20  05 26 48.11    +17 50 52.0   401849 0.9948  85.7 Nm  15?  18.72  81.7   61 221  10  46
   2024 03 16 19:30  05 27 01.14    +17 51 18.8   401953 0.9948  85.7 Am  15?  18.86  82.2   60 225  10  46
   2024 03 16 19:40  05 27 14.28    +17 51 44.4   402065 0.9948  85.8 Am  15?  19.01  82.6   59 229  10  46
   2024 03 16 19:50  05 27 27.55    +17 52 08.8   402184 0.9948  85.8 Am  15?  19.19  83.0   57 232  10  46
   2024 03 16 20:00  05 27 40.96    +17 52 31.9   402310 0.9948  85.9  m  15?  19.38  83.5   56 235  10  46
   2024 03 16 20:10  05 27 54.52    +17 52 53.8   402443 0.9948  85.9  m  15?  19.59  83.9   54 238  10  46
   2024 03 16 20:20  05 28 08.24    +17 53 14.6   402583 0.9948  86.0  m  15?  19.82  84.3   52 241  10  46
   2024 03 16 20:30  05 28 22.15    +17 53 34.3   402730 0.9948  86.0  m  15?  20.07  84.7   51 244  10  46
   2024 03 16 20:40  05 28 36.24    +17 53 52.9   402884 0.9948  86.1  m  15?  20.33  85.0   49 247  10  46
   2024 03 16 20:50  05 28 50.52    +17 54 10.5   403043 0.9948  86.1  m  15?  20.61  85.4   47 249  10  46
   2024 03 16 21:00  05 29 05.02    +17 54 27.0   403209 0.9948  86.2  m  15?  20.90  85.7   46 251  10  46
   2024 03 16 21:10  05 29 19.73    +17 54 42.6   403380 0.9948  86.2  m  15?  21.21  86.1   44 253  10  46
   2024 03 16 21:20  05 29 34.66    +17 54 57.2   403557 0.9948  86.3  m  15?  21.53  86.3   42 255  10  46
   2024 03 16 21:30  05 29 49.84    +17 55 11.0   403739 0.9948  86.3  m  15?  21.87  86.6   40 257  10  46
   2024 03 16 21:40  05 30 05.25    +17 55 24.0   403926 0.9948  86.4  m  15?  22.22  86.9   39 259  10  46
   2024 03 16 21:50  05 30 20.92    +17 55 36.1   404118 0.9949  86.4  m  15?  22.57  87.1   37 261  10  46
   2024 03 16 22:00  05 30 36.85    +17 55 47.6   404314 0.9949  86.5  m  15?  22.94  87.4   35 263  10  46
   2024 03 16 22:10  05 30 53.04    +17 55 58.3   404514 0.9949  86.5  m  15?  23.33  87.6   33 265  10  46
   2024 03 16 22:20  05 31 09.51    +17 56 08.4   404719 0.9949  86.6  m  15?  23.71  87.8   31 266  10  47
   2024 03 16 22:30  05 31 26.25    +17 56 17.9   404926 0.9949  86.7  m  15?  24.11  87.9   29 268  10  47
   2024 03 16 22:40  05 31 43.27    +17 56 27.0   405137 0.9949  86.7  m  15?  24.52  88.1   28 270  10  47
   2024 03 16 22:50  05 32 00.59    +17 56 35.5   405350 0.9949  86.8  m  15?  24.93  88.2   26 271  10  47
   2024 03 16 23:00  05 32 18.20    +17 56 43.6   405567 0.9949  86.8  m  15?  25.35  88.3   24 273  10  47
   2024 03 16 23:10  05 32 36.10    +17 56 51.4   405785 0.9949  86.9  m  15?  25.77  88.5   22 274  10  47
   2024 03 16 23:20  05 32 54.30    +17 56 58.8   406005 0.9949  87.0  m  15?  26.20  88.5   20 276  10  47
   2024 03 16 23:30  05 33 12.81    +17 57 06.0   406226 0.9949  87.0  m  15?  26.63  88.6   18 277  10  47
   2024 03 16 23:40  05 33 31.62    +17 57 13.0   406449 0.9949  87.1  m  15?  27.07  88.7   17 279  10  47
   2024 03 16 23:50  05 33 50.73    +17 57 19.9   406673 0.9949  87.2  m  15?  27.50  88.7   15 280  10  47
   2024 03 17 00:00  05 34 10.16    +17 57 26.7   406897 0.9949  87.2  m  15?  27.94  88.7   13 282  10  47
   2024 03 17 00:10  05 34 29.88    +17 57 33.5   407121 0.9949  87.3  m  15?  28.38  88.8   11 283  10  47
   2024 03 17 00:20  05 34 49.92    +17 57 40.3   407345 0.9949  87.4  m  15?  28.81  88.8    9 285  10  47
   2024 03 17 00:30  05 35 10.26    +17 57 47.3   407568 0.9949  87.5  m  15?  29.25  88.8    8 286  10  47
   2024 03 17 00:40  05 35 30.90    +17 57 54.3   407790 0.9949  87.5  m  15?  29.68  88.8    6 288  10  47
   2024 03 17 00:50  05 35 51.85    +17 58 01.6   408011 0.9949  87.6  m  15?  30.11  88.7    4 289  10  48
   2024 03 17 01:00  05 36 13.10    +17 58 09.2   408231 0.9950  87.7  m  15?  30.54  88.7    2 291  10  48
   2024 03 17 01:10  05 36 34.65    +17 58 17.1   408448 0.9950  87.8  m  15?  30.96  88.6    1 292  10  48
   2024 03 17 01:20  05 36 56.49    +17 58 25.3   408663 0.9950  87.8  m  15?  31.38  88.6    0 294  10  48
   ................
   2024 03 17 18:30  06 14 05.26    +19 26 02.2   404369 0.9955  95.9 Cm  16?  18.55  75.7   68 169   9  56
   2024 03 17 18:40  06 14 17.96    +19 26 47.6   404362 0.9955  96.0 Cm  16?  18.50  76.2   68 175   9  56
   2024 03 17 18:50  06 14 30.65    +19 27 31.6   404364 0.9955  96.0 Ct  16?  18.46  76.6   68 181   9  56
   2024 03 17 19:00  06 14 43.34    +19 28 14.1   404373 0.9955  96.1 Nm  16?  18.45  77.0   68 188   9  56
   2024 03 17 19:10  06 14 56.06    +19 28 55.3   404391 0.9955  96.1 Nm  16?  18.46  77.5   68 194   9  56
   2024 03 17 19:20  06 15 08.82    +19 29 34.9   404417 0.9955  96.2 Nm  16?  18.48  78.0   67 200   9  56
   2024 03 17 19:30  06 15 21.63    +19 30 13.2   404451 0.9955  96.2 Am  16?  18.53  78.5   66 206   9  56
   2024 03 17 19:40  06 15 34.50    +19 30 50.1   404492 0.9955  96.3 Am  16?  18.60  78.9   65 211   9  56
   2024 03 17 19:50  06 15 47.44    +19 31 25.5   404541 0.9956  96.3 Am  16?  18.69  79.4   64 216   9  56
   2024 03 17 20:00  06 16 00.48    +19 31 59.6   404598 0.9956  96.3  m  16?  18.80  79.9   63 220   9  56
   2024 03 17 20:10  06 16 13.61    +19 32 32.3   404663 0.9956  96.4  m  16?  18.92  80.4   62 225   9  56
   2024 03 17 20:20  06 16 26.87    +19 33 03.6   404735 0.9956  96.4  m  16?  19.07  80.9   61 229   9  56
   2024 03 17 20:30  06 16 40.25    +19 33 33.7   404815 0.9956  96.5  m  16?  19.24  81.3   59 232   9  56
   2024 03 17 20:40  06 16 53.78    +19 34 02.4   404902 0.9956  96.5  m  16?  19.42  81.8   58 236   9  56
   2024 03 17 20:50  06 17 07.45    +19 34 29.9   404996 0.9956  96.6  m  16?  19.63  82.3   56 239   9  56
   2024 03 17 21:00  06 17 21.30    +19 34 56.1   405096 0.9956  96.6  m  16?  19.85  82.7   54 242   9  56
   2024 03 17 21:10  06 17 35.32    +19 35 21.2   405204 0.9956  96.7  m  16?  20.09  83.2   53 245   9  57
   2024 03 17 21:20  06 17 49.53    +19 35 45.1   405318 0.9956  96.7  m  16?  20.35  83.6   51 247   9  57
   2024 03 17 21:30  06 18 03.93    +19 36 07.8   405438 0.9956  96.8  m  16?  20.62  84.0   49 250   9  57
   2024 03 17 21:40  06 18 18.55    +19 36 29.5   405564 0.9956  96.8  m  16?  20.91  84.3   48 252   9  57
   2024 03 17 21:50  06 18 33.38    +19 36 50.1   405696 0.9956  96.9  m  16?  21.22  84.7   46 254   9  57
   2024 03 17 22:00  06 18 48.45    +19 37 09.7   405834 0.9956  96.9  m  16?  21.54  85.0   44 256   9  57
   2024 03 17 22:10  06 19 03.75    +19 37 28.4   405977 0.9956  97.0  m  16?  21.87  85.4   42 258   9  57
   2024 03 17 22:20  06 19 19.30    +19 37 46.2   406125 0.9956  97.0  m  16?  22.22  85.7   41 260   9  57
   2024 03 17 22:30  06 19 35.11    +19 38 03.2   406278 0.9956  97.1  m  16?  22.57  85.9   39 262   9  57
   2024 03 17 22:40  06 19 51.17    +19 38 19.3   406435 0.9956  97.1  m  16?  22.94  86.2   37 264   9  57
   2024 03 17 22:50  06 20 07.51    +19 38 34.7   406597 0.9956  97.2  m  16?  23.32  86.4   35 265   9  57
   2024 03 17 23:00  06 20 24.13    +19 38 49.4   406762 0.9957  97.2  m  16?  23.72  86.7   33 267   9  57
   2024 03 17 23:10  06 20 41.03    +19 39 03.5   406931 0.9957  97.3  m  16?  24.12  86.9   31 269   8  57
   2024 03 17 23:20  06 20 58.22    +19 39 17.0   407104 0.9957  97.4  m  16?  24.52  87.0   30 270   8  57
   2024 03 17 23:30  06 21 15.70    +19 39 30.0   407279 0.9957  97.4  m  16?  24.94  87.2   28 272   8  57
   2024 03 17 23:40  06 21 33.48    +19 39 42.5   407457 0.9957  97.5  m  16?  25.36  87.3   26 273   8  57
   2024 03 17 23:50  06 21 51.57    +19 39 54.7   407637 0.9957  97.6  m  16?  25.79  87.5   24 275   8  57
   2024 03 18 00:00  06 22 09.96    +19 40 06.5   407819 0.9957  97.6  m  16?  26.22  87.6   22 276   8  57
   

Titan-3C RB (JPL-ID: -102770)

   Date (UTC) HH:MM   RA              Dec         delta   r     elong SM  mag  '/hr    PA   alt  az moo ill
   ---- -- -- -----  -------------   -----------  ------ ------ ----- --  --- ------ ------ --- --- --- ---
   2024 03 04 04:50  22 11 18.09    +13 35 00.5    74354 0.9912  23.3  m  14? 211.01  82.9    0  72  82  43
   2024 03 04 05:00  22 13 39.39    +13 39 10.8    75233 0.9912  23.1  m  14? 204.05  83.1    1  73  82  43
   2024 03 04 05:10  22 15 56.14    +13 43 07.8    76092 0.9912  22.9  m  14? 197.40  83.2    3  74  83  43
   2024 03 04 05:20  22 18 08.53    +13 46 52.3    76933 0.9912  22.7 Am  14? 191.04  83.4    4  75  83  43
   2024 03 04 05:30  22 20 16.76    +13 50 25.0    77755 0.9912  22.5 Am  14? 184.95  83.5    6  76  84  43
   2024 03 04 05:40  22 22 20.98    +13 53 46.5    78560 0.9912  22.3 Am  14? 179.11  83.7    7  78  84  43
   2024 03 04 05:50  22 24 21.36    +13 56 57.4    79347 0.9912  22.1 Nm  14? 173.51  83.8    9  79  84  43
   2024 03 04 06:00  22 26 18.05    +13 59 58.1    80119 0.9912  22.0 Nm  14? 168.13  83.9   10  80  85  43
   2024 03 04 06:10  22 28 11.19    +14 02 49.2    80874 0.9912  21.9 Nm  14? 162.96  84.1   12  81  85  43
   2024 03 04 06:20  22 30 00.91    +14 05 31.0    81613 0.9912  21.7 Cm  14? 157.98  84.2   13  83  85  43
   2024 03 04 06:30  22 31 47.35    +14 08 03.9    82337 0.9911  21.6 Cm  14? 153.19  84.4   15  84  86  43
   ................
   2024 03 04 18:20  23 39 13.48    +12 57 03.2   116460 0.9911  21.2 C   15?  82.56 103.2   16 273  93  38
   2024 03 04 18:30  23 40 08.82    +12 53 52.7   116792 0.9911  21.2 C   15?  83.62 103.1   14 274  93  38
   2024 03 04 18:40  23 41 04.88    +12 50 41.4   117117 0.9911  21.3 N   15?  84.68 103.0   13 275  93  38
   2024 03 04 18:50  23 42 01.67    +12 47 29.3   117435 0.9911  21.3 N   15?  85.75 102.9   11 277  94  38
   2024 03 04 19:00  23 42 59.18    +12 44 16.7   117745 0.9911  21.4 N   15?  86.83 102.8    9 278  94  38
   2024 03 04 19:10  23 43 57.43    +12 41 03.6   118048 0.9911  21.4 A   15?  87.90 102.6    7 280  94  37
   2024 03 04 19:20  23 44 56.42    +12 37 50.1   118342 0.9911  21.5 A   15?  88.98 102.5    6 281  94  37
   2024 03 04 19:30  23 45 56.15    +12 34 36.2   118628 0.9911  21.6 A   15?  90.06 102.4    4 282  94  37
   2024 03 04 19:40  23 46 56.61    +12 31 22.2   118905 0.9911  21.6 A   15?  91.13 102.2    2 284  94  37
   2024 03 04 19:50  23 47 57.80    +12 28 08.0   119173 0.9911  21.7     15?  92.21 102.1    1 285  94  37
   ................
   2024 03 05 18:20  03 50 47.91    -07 24 52.9    35296 0.9920  70.6 C   11? 759.65 118.9   39 202 123  28
   2024 03 05 18:30  03 58 38.56    -08 29 08.5    33633 0.9920  72.5 C   11? 839.38 119.0   37 202 124  28
   2024 03 05 18:40  04 07 21.36    -09 40 42.4    31936 0.9920  74.6 N   10? 934.19 119.1   36 202 124  28
   2024 03 05 18:50  04 17 07.16    -11 00 57.6    30202 0.9920  76.9 N   10? 1048.2 119.2   35 202 125  27
   2024 03 05 19:00  04 28 10.30    -12 31 38.1    28434 0.9920  79.5 N   10? 1187.2 119.3   34 201 126  27
   2024 03 05 19:10  04 40 50.00    -14 14 54.6    26633 0.9920  82.4 A   10? 1358.8 119.3   32 200 126  27
   2024 03 05 19:20  04 55 32.75    -16 13 30.3    24805 0.9921  85.8 A    9? 1574.0 119.1   30 198 127  27
   2024 03 05 19:30  05 12 55.97    -18 30 46.1    22956 0.9921  89.7 A    9? 1847.9 118.8   29 195 127  27
   2024 03 05 19:40  05 33 53.99    -21 10 36.2    21103 0.9921  94.3 A    9? 2201.7 118.1   27 192 126  27
   2024 03 05 19:50  05 59 47.76    -24 16 58.1    19268 0.9921  99.7      9? 2664.0 117.0   24 187 125  27
   2024 03 05 20:00  06 32 40.16    -27 52 06.7    17494 0.9921 106.0      9? 3269.1 115.0   21 181 123  27
   2024 03 05 20:10  07 15 35.68    -31 51 37.1    15847 0.9921 113.5  t   9? 4046.7 111.5   16 174 119  27
   2024 03 05 20:20  08 12 45.92    -35 52 53.0    14433 0.9921 121.8      9? 4985.2 105.9   11 165 113  27
   2024 03 05 20:30  09 27 58.75    -38 56 50.2    13402 0.9921 129.8      9? 5956.4  97.3    4 154 104  27
   ................
   2024 03 06 04:50  22 22 53.50    +13 45 03.0    79798 0.9917  22.3  r  14? 186.02  84.0    0  71  60  23
   2024 03 06 05:00  22 24 58.66    +13 48 10.2    80583 0.9917  22.1  m  14? 180.43  84.1    1  72  60  23
   2024 03 06 05:10  22 27 00.11    +13 51 08.0    81350 0.9917  21.9 Am  14? 175.05  84.3    2  73  61  23
   2024 03 06 05:20  22 28 58.01    +13 53 57.0    82101 0.9917  21.7 Am  14? 169.87  84.4    4  75  61  23
   2024 03 06 05:30  22 30 52.48    +13 56 37.6    82834 0.9917  21.5 Am  14? 164.87  84.5    5  76  61  23
   2024 03 06 05:40  22 32 43.64    +13 59 10.2    83552 0.9917  21.4 Am  14? 160.05  84.6    7  77  61  23
   2024 03 06 05:50  22 34 31.60    +14 01 35.0    84254 0.9917  21.2 Nm  14? 155.40  84.7    8  78  62  22
   2024 03 06 06:00  22 36 16.48    +14 03 52.3    84942 0.9916  21.1 Nm  14? 150.91  84.9   10  80  62  22
   2024 03 06 06:10  22 37 58.36    +14 06 02.4    85614 0.9916  21.0 Nm  14? 146.57  85.0   11  81  62  22
   2024 03 06 06:20  22 39 37.36    +14 08 05.5    86273 0.9916  20.9 Cm  14? 142.38  85.1   13  82  63  22
   2024 03 06 06:30  22 41 13.57    +14 10 01.9    86917 0.9916  20.8 Cm  14? 138.32  85.3   15  84  63  22
   ................
   2024 03 06 18:20  23 44 34.14    +12 45 04.5   117230 0.9916  20.1 C   15?  81.65 103.8   15 273  68  18
   2024 03 06 18:30  23 45 28.74    +12 41 48.5   117519 0.9916  20.1 C   15?  82.76 103.7   14 274  68  18
   2024 03 06 18:40  23 46 24.09    +12 38 31.7   117801 0.9916  20.1 N   15?  83.89 103.5   12 276  68  18
   2024 03 06 18:50  23 47 20.22    +12 35 14.2   118076 0.9916  20.2 N   15?  85.01 103.4   10 277  68  18
   2024 03 06 19:00  23 48 17.11    +12 31 56.0   118343 0.9916  20.3 N   15?  86.15 103.2    8 279  68  18
   2024 03 06 19:10  23 49 14.78    +12 28 37.2   118602 0.9916  20.3 N   15?  87.28 103.1    7 280  68  18
   2024 03 06 19:20  23 50 13.22    +12 25 18.1   118853 0.9916  20.4 A   15?  88.42 103.0    5 281  68  18
   2024 03 06 19:30  23 51 12.44    +12 21 58.5   119095 0.9916  20.4 A   15?  89.56 102.8    3 283  68  18
   2024 03 06 19:40  23 52 12.44    +12 18 38.7   119329 0.9916  20.5 A   15?  90.69 102.7    2 284  68  18
   2024 03 06 19:50  23 53 13.22    +12 15 18.7   119554 0.9916  20.6     15?  91.82 102.5    0 286  68  18
   ................
   2024 03 07 18:20  04 53 57.99    -15 04 23.7    25833 0.9926  84.0 C    9? 1482.6 118.2   33 184 110  10
   2024 03 07 18:30  05 10 18.26    -17 09 25.9    24020 0.9926  87.7 C    9? 1726.4 117.9   31 182 112  10
   2024 03 07 18:40  05 29 46.68    -19 33 41.7    22202 0.9926  92.1 Ct   9? 2037.1 117.3   29 179 114  10
   2024 03 07 18:50  05 53 28.26    -22 20 22.4    20402 0.9926  97.2 N    9? 2437.0 116.2   26 176 116  10
   2024 03 07 19:00  06 22 58.49    -25 31 32.9    18652 0.9926 103.3 N    9? 2953.5 114.5   23 171 119  10
   2024 03 07 19:10  07 00 36.76    -29 05 05.9    17006 0.9926 110.4 N    9? 3613.0 111.7   18 165 121  10
   2024 03 07 19:20  07 49 33.77    -32 47 37.3    15548 0.9926 118.6 A    9? 4420.0 107.3   12 158 122  10
   2024 03 07 19:30  08 53 13.88    -36 02 08.4    14398 0.9926 127.4 A    9? 5310.4 100.5    5 149 121  10
   ................
   2024 03 08 05:00  22 35 13.68    +13 54 20.5    85457 0.9922  21.1     14? 162.19  85.1    0  72  38   6
   2024 03 08 05:10  22 37 03.22    +13 56 33.8    86141 0.9922  21.0 A   14? 157.70  85.2    2  73  38   6
   2024 03 08 05:20  22 38 49.77    +13 58 40.7    86810 0.9922  20.8 A   14? 153.35  85.3    3  74  38   6
   2024 03 08 05:30  22 40 33.41    +14 00 41.4    87464 0.9922  20.6 A   14? 149.13  85.4    5  75  38   6
   2024 03 08 05:40  22 42 14.25    +14 02 36.1    88103 0.9921  20.5 N   14? 145.04  85.5    6  77  39   6
   2024 03 08 05:50  22 43 52.35    +14 04 25.0    88728 0.9921  20.4 Nm  14? 141.08  85.7    8  78  39   6
   2024 03 08 06:00  22 45 27.80    +14 06 08.2    89339 0.9921  20.3 Nm  14? 137.23  85.8   10  79  39   6
   2024 03 08 06:10  22 47 00.69    +14 07 45.9    89937 0.9921  20.1 Cm  14? 133.50  85.9   11  81  39   6
   2024 03 08 06:20  22 48 31.07    +14 09 18.1    90521 0.9921  20.0 Cm  14? 129.88  86.0   13  82  39   6
   2024 03 08 06:30  22 49 59.03    +14 10 45.0    91093 0.9921  19.9 Cm  14? 126.36  86.1   14  83  39   6
   ................
   2024 03 08 18:20  23 49 53.69    +12 32 30.6   117784 0.9921  18.9 C   15?  81.00 104.4   15 273  41   4
   2024 03 08 18:30  23 50 47.72    +12 29 08.2   118031 0.9921  19.0 C   15?  82.18 104.2   13 275  41   4
   2024 03 08 18:40  23 51 42.54    +12 25 44.9   118270 0.9921  19.0 C   15?  83.36 104.1   11 276  41   4
   2024 03 08 18:50  23 52 38.17    +12 22 20.9   118502 0.9921  19.1 N   15?  84.54 103.9   10 277  41   4
   2024 03 08 19:00  23 53 34.61    +12 18 56.1   118726 0.9921  19.1 N   15?  85.73 103.8    8 279  41   4
   2024 03 08 19:10  23 54 31.86    +12 15 30.8   118943 0.9921  19.2 N   15?  86.92 103.6    6 280  41   4
   2024 03 08 19:20  23 55 29.94    +12 12 04.9   119151 0.9921  19.3 A   15?  88.12 103.5    4 282  41   4
   2024 03 08 19:30  23 56 28.82    +12 08 38.6   119351 0.9921  19.3 A   15?  89.31 103.3    3 283  41   4
   2024 03 08 19:40  23 57 28.53    +12 05 12.0   119542 0.9921  19.4 A   15?  90.50 103.1    1 284  41   4
   2024 03 08 19:50  23 58 29.05    +12 01 45.1   119723 0.9921  19.5     15?  91.69 103.0    0 286  41   4
   ................
   2024 03 09 18:30  08 17 44.14    -32 43 24.4    15659 0.9932 123.0 C    9? 4621.3 103.4    6 144 123   0
   ................
   2024 03 10 05:00  22 44 31.25    +13 57 51.2    89824 0.9927  20.3     14? 148.06  86.0    0  71  23   0
   2024 03 10 05:10  22 46 11.46    +13 59 30.2    90434 0.9927  20.1 A   14? 144.20  86.1    2  73  23   0
   2024 03 10 05:20  22 47 49.09    +14 01 04.4    91030 0.9927  20.0 A   14? 140.45  86.2    3  74  23   0
   2024 03 10 05:30  22 49 24.21    +14 02 33.9    91612 0.9927  19.8 A   14? 136.80  86.3    5  75  23   0
   2024 03 10 05:40  22 50 56.87    +14 03 58.8    92180 0.9926  19.7 N   14? 133.25  86.4    6  77  23   0
   2024 03 10 05:50  22 52 27.15    +14 05 19.2    92734 0.9926  19.6 N   14? 129.79  86.5    8  78  23   0
   2024 03 10 06:00  22 53 55.11    +14 06 35.1    93276 0.9926  19.4 N   14? 126.42  86.6   10  79  22   0
   2024 03 10 06:10  22 55 20.80    +14 07 46.7    93806 0.9926  19.3 C   14? 123.14  86.7   11  81  22   0
   2024 03 10 06:20  22 56 44.29    +14 08 53.8    94323 0.9926  19.2 C   14? 119.94  86.9   13  82  22   0
   ................
   2024 03 10 18:30  23 56 07.23    +12 15 41.8   118301 0.9926  17.9 Cm  15?  81.97 104.8   12 275  16   0
   2024 03 10 18:40  23 57 01.77    +12 12 11.4   118499 0.9926  17.9 Cm  15?  83.20 104.6   11 276  16   0
   2024 03 10 18:50  23 57 57.15    +12 08 40.2   118689 0.9926  17.9 N   15?  84.44 104.4    9 278  16   0
   2024 03 10 19:00  23 58 53.38    +12 05 08.3   118872 0.9926  18.0 N   15?  85.69 104.3    7 279  16   0
   2024 03 10 19:10  23 59 50.47    +12 01 35.7   119046 0.9926  18.1 N   15?  86.94 104.1    5 280  16   0
   2024 03 10 19:20  00 00 48.41    +11 58 02.5   119212 0.9926  18.1 A   15?  88.19 103.9    4 282  16   0
   2024 03 10 19:30  00 01 47.21    +11 54 28.9   119370 0.9926  18.2 A   15?  89.44 103.8    2 283  15   0
   2024 03 10 19:40  00 02 46.86    +11 50 54.8   119519 0.9926  18.2 A   15?  90.69 103.6    0 285  15   0
   ................
   2024 03 12 05:00  22 52 55.64    +13 58 10.2    93728 0.9932  19.5 A   14? 137.02  86.8    0  71  33   5
   2024 03 12 05:10  22 54 28.49    +13 59 22.9    94271 0.9932  19.3 A   14? 133.63  86.9    2  73  33   5
   2024 03 12 05:20  22 55 59.06    +14 00 31.9    94800 0.9932  19.1 A   15? 130.33  87.0    3  74  33   5
   2024 03 12 05:30  22 57 27.41    +14 01 37.2    95315 0.9932  19.0 A   15? 127.11  87.1    5  75  33   5
   2024 03 12 05:40  22 58 53.59    +14 02 38.9    95818 0.9931  18.9 N   15? 123.95  87.2    6  77  32   5
   2024 03 12 05:50  23 00 17.64    +14 03 36.9    96309 0.9931  18.8 N   15? 120.88  87.3    8  78  32   5
   2024 03 12 06:00  23 01 39.62    +14 04 31.4    96787 0.9931  18.6 N   15? 117.87  87.4   10  79  32   5
   2024 03 12 06:10  23 02 59.57    +14 05 22.3    97254 0.9931  18.5 C   15? 114.93  87.5   11  81  32   5
   2024 03 12 06:20  23 04 17.54    +14 06 09.6    97709 0.9931  18.4 C   15? 112.06  87.6   13  82  31   5
   ................
   2024 03 12 18:30  00 01 25.93    +12 01 27.1   118317 0.9931  16.7 Cm  15?  82.22 105.2   12 275  22   8
   2024 03 12 18:40  00 02 20.48    +11 57 49.8   118474 0.9931  16.8 Cm  15?  83.51 105.1   10 276  22   8
   2024 03 12 18:50  00 03 15.92    +11 54 11.5   118622 0.9931  16.8 Nm  15?  84.81 104.9    8 278  22   8
   2024 03 12 19:00  00 04 12.25    +11 50 32.4   118763 0.9931  16.8 Nm  15?  86.11 104.7    7 279  21   8
   2024 03 12 19:10  00 05 09.47    +11 46 52.5   118896 0.9931  16.9 Nm  15?  87.42 104.5    5 281  21   8
   2024 03 12 19:20  00 06 07.59    +11 43 12.0   119021 0.9931  17.0 Am  15?  88.72 104.3    3 282  21   8
   2024 03 12 19:30  00 07 06.60    +11 39 30.9   119136 0.9932  17.0 Am  15?  90.03 104.2    1 283  21   8
   2024 03 12 19:40  00 08 06.51    +11 35 49.2   119243 0.9932  17.1 Am  15?  91.34 104.0    0 285  21   8
   ................
   2024 03 14 05:00  23 00 35.90    +13 55 25.1    97273 0.9937  18.7 A   15? 128.13  87.5    0  71  56  19
   2024 03 14 05:10  23 02 02.78    +13 56 17.7    97752 0.9937  18.5 A   15? 125.11  87.6    2  73  56  20
   2024 03 14 05:20  23 03 27.63    +13 57 07.3    98219 0.9937  18.4 A   15? 122.15  87.7    3  74  55  20
   2024 03 14 05:30  23 04 50.49    +13 57 54.0    98673 0.9937  18.2 N   15? 119.26  87.8    5  75  55  20
   2024 03 14 05:40  23 06 11.39    +13 58 37.7    99114 0.9937  18.1 N   15? 116.42  87.9    6  77  55  20
   2024 03 14 05:50  23 07 30.37    +13 59 18.5    99545 0.9937  18.0 N   15? 113.65  88.0    8  78  55  20
   2024 03 14 06:00  23 08 47.47    +13 59 56.2    99963 0.9937  17.9 C   15? 110.92  88.1   10  80  55  20
   2024 03 14 06:10  23 10 02.73    +14 00 30.9   100371 0.9936  17.7 C   15? 108.26  88.2   11  81  54  20
   2024 03 14 06:20  23 11 16.19    +14 01 02.6   100768 0.9936  17.6 C   15? 105.65  88.3   13  82  54  20
   ................
   2024 03 14 18:30  00 06 41.60    +11 46 28.5   118088 0.9937  15.6 Cm  15?  82.90 105.6   11 275  48  24
   2024 03 14 18:40  00 07 36.46    +11 42 44.2   118202 0.9937  15.6 Cm  15?  84.24 105.4    9 277  47  25
   2024 03 14 18:50  00 08 32.24    +11 38 58.9   118309 0.9937  15.6 Nm  15?  85.60 105.2    8 278  47  25
   2024 03 14 19:00  00 09 28.95    +11 35 12.7   118408 0.9937  15.7 Nm  15?  86.96 105.0    6 279  47  25
   2024 03 14 19:10  00 10 26.60    +11 31 25.7   118498 0.9937  15.7 Nm  15?  88.33 104.9    4 281  47  25
   2024 03 14 19:20  00 11 25.18    +11 27 37.9   118580 0.9937  15.8 Am  15?  89.70 104.7    2 282  47  25
   2024 03 14 19:30  00 12 24.70    +11 23 49.3   118653 0.9937  15.9 Am  15?  91.07 104.5    1 284  47  25
   2024 03 14 19:40  00 13 25.16    +11 20 00.1   118717 0.9937  15.9 Am  15?  92.44 104.3    0 285  47  25
   ................
   2024 03 16 05:00  23 07 45.04    +13 50 35.6   100545 0.9942  17.9 A   15? 120.66  88.2    0  71  79  39
   2024 03 16 05:10  23 09 06.92    +13 51 12.1   100964 0.9942  17.8 A   15? 117.94  88.2    2  73  79  39
   2024 03 16 05:20  23 10 26.95    +13 51 46.3   101370 0.9942  17.6 A   15? 115.27  88.3    3  74  79  40
   2024 03 16 05:30  23 11 45.17    +13 52 18.0   101765 0.9942  17.5 N   15? 112.64  88.4    5  76  79  40
   2024 03 16 05:40  23 13 01.61    +13 52 47.3   102148 0.9942  17.4 N   15? 110.06  88.5    7  77  79  40
   2024 03 16 05:50  23 14 16.30    +13 53 14.0   102521 0.9942  17.2 N   15? 107.53  88.6    8  78  78  40
   2024 03 16 06:00  23 15 29.28    +13 53 38.1   102882 0.9942  17.1 C   15? 105.04  88.7   10  80  78  40
   2024 03 16 06:10  23 16 40.57    +13 53 59.7   103233 0.9942  17.0 C   15? 102.60  88.8   11  81  78  40
   ................
   2024 03 16 18:30  00 11 53.87    +11 30 42.5   117633 0.9942  14.4 Cm  15?  83.88 105.9   10 275  73  45
   2024 03 16 18:40  00 12 49.24    +11 26 50.9   117705 0.9942  14.4 Cm  15?  85.29 105.7    9 277  73  45
   2024 03 16 18:50  00 13 45.58    +11 22 58.2   117769 0.9942  14.5 Nm  15?  86.71 105.5    7 278  73  45
   2024 03 16 19:00  00 14 42.88    +11 19 04.5   117824 0.9942  14.5 Nm  15?  88.13 105.4    5 280  73  45
   2024 03 16 19:10  00 15 41.17    +11 15 09.8   117871 0.9942  14.6 Nm  15?  89.56 105.2    4 281  73  46
   2024 03 16 19:20  00 16 40.43    +11 11 14.1   117910 0.9942  14.6 Nm  15?  91.00 105.0    2 282  72  46
   2024 03 16 19:30  00 17 40.68    +11 07 17.6   117939 0.9942  14.7 Am  15?  92.44 104.8    0 284  72  46
   ................
   

Gaia (JPL-ID: -139479)

   Date (UTC) HH:MM   RA              Dec         delta   r     elong SM  mag  '/hr    PA   alt  az moo ill
   ---- -- -- -----  -------------   -----------  ------ ------ ----- --  --- ------ ------ --- --- --- ---
   2024 03 04 00:00  11 43 31.11    +03 13 31.6   0.0103 1.0017 168.5     20?   0.75 248.3   49 152  83  45
   2024 03 04 00:10  11 43 30.63    +03 13 28.8   0.0103 1.0017 168.5     20?   0.79 248.8   49 156  83  45
   2024 03 04 00:20  11 43 30.13    +03 13 26.0   0.0103 1.0017 168.5     20?   0.82 249.2   50 160  84  45
   2024 03 04 00:30  11 43 29.61    +03 13 23.0   0.0103 1.0017 168.5     20?   0.84 249.3   51 163  84  45
   2024 03 04 00:40  11 43 29.08    +03 13 20.0   0.0103 1.0017 168.5     20?   0.86 249.4   51 167  84  45
   2024 03 04 00:50  11 43 28.53    +03 13 17.0   0.0103 1.0017 168.5     20?   0.88 249.3   51 171  84  45
   2024 03 04 01:00  11 43 27.98    +03 13 13.8   0.0103 1.0017 168.5     20?   0.89 249.1   52 175  84  45
   2024 03 04 01:10  11 43 27.43    +03 13 10.6   0.0103 1.0018 168.6  t  20?   0.89 248.8   52 180  84  45
   2024 03 04 01:20  11 43 26.87    +03 13 07.4   0.0103 1.0018 168.6     20?   0.89 248.3   52 184  84  45
   2024 03 04 01:30  11 43 26.32    +03 13 04.1   0.0103 1.0018 168.6     20?   0.89 247.7   51 188  84  45
   2024 03 04 01:40  11 43 25.77    +03 13 00.7   0.0103 1.0018 168.6     20?   0.88 247.0   51 192  84  45
   2024 03 04 01:50  11 43 25.24    +03 12 57.2   0.0103 1.0018 168.6     20?   0.86 246.2   51 196  84  44
   2024 03 04 02:00  11 43 24.72    +03 12 53.7   0.0103 1.0018 168.6     20?   0.84 245.1   50 200  84  44
   2024 03 04 02:10  11 43 24.22    +03 12 50.1   0.0103 1.0018 168.6     20?   0.82 243.8   49 203  85  44
   2024 03 04 02:20  11 43 23.74    +03 12 46.5   0.0103 1.0018 168.6  m  20?   0.79 242.3   49 207  85  44
   2024 03 04 02:30  11 43 23.28    +03 12 42.8   0.0103 1.0018 168.6  m  20?   0.76 240.6   48 210  85  44
   2024 03 04 02:40  11 43 22.85    +03 12 39.0   0.0103 1.0018 168.6  m  20?   0.73 238.4   47 214  85  44
   2024 03 04 02:50  11 43 22.46    +03 12 35.2   0.0103 1.0018 168.6  m  20?   0.69 235.8   45 217  85  44
   2024 03 04 03:00  11 43 22.10    +03 12 31.3   0.0103 1.0018 168.6  m  20?   0.65 232.7   44 220  85  44
   2024 03 04 03:10  11 43 21.77    +03 12 27.3   0.0103 1.0018 168.7  m  20?   0.60 228.8   43 223  85  44
   2024 03 04 03:20  11 43 21.49    +03 12 23.4   0.0103 1.0018 168.7  m  20?   0.56 224.1   42 226  85  44
   2024 03 04 03:30  11 43 21.25    +03 12 19.3   0.0103 1.0018 168.7  m  20?   0.52 218.2   40 229  85  44
   2024 03 04 03:40  11 43 21.06    +03 12 15.2   0.0103 1.0018 168.7  m  20?   0.48 211.0   39 231  85  44
   2024 03 04 03:50  11 43 20.92    +03 12 11.1   0.0103 1.0018 168.7  m  20?   0.45 202.3   37 234  85  44
   2024 03 04 04:00  11 43 20.83    +03 12 06.9   0.0103 1.0018 168.7  m  20?   0.43 192.0   36 236  85  44
   2024 03 04 04:10  11 43 20.80    +03 12 02.6   0.0103 1.0018 168.7  m  20?   0.43 180.6   34 239  85  44
   2024 03 04 04:20  11 43 20.83    +03 11 58.3   0.0103 1.0018 168.7  m  20?   0.44 168.9   32 241  86  44
   2024 03 04 04:30  11 43 20.92    +03 11 54.0   0.0103 1.0018 168.7  m  20?   0.47 157.8   31 243  86  44
   2024 03 04 04:40  11 43 21.07    +03 11 49.6   0.0103 1.0018 168.7  m  20?   0.52 148.0   29 245  86  43
   2024 03 04 04:50  11 43 21.28    +03 11 45.2   0.0103 1.0018 168.7  m  20?   0.58 139.9   27 247  86  43
   2024 03 04 05:00  11 43 21.57    +03 11 40.8   0.0103 1.0018 168.7  m  20?   0.65 133.1   25 249  86  43
   2024 03 04 05:10  11 43 21.92    +03 11 36.3   0.0103 1.0018 168.7  m  20?   0.73 127.7   24 251  86  43
   2024 03 04 05:20  11 43 22.34    +03 11 31.8   0.0103 1.0018 168.7 Am  20?   0.82 123.3   22 253  86  43
   2024 03 04 05:30  11 43 22.84    +03 11 27.2   0.0103 1.0018 168.7 Am  20?   0.92 119.6   20 255  86  43
   2024 03 04 05:40  11 43 23.41    +03 11 22.7   0.0103 1.0018 168.7 Am  20?   1.02 116.6   18 257  86  43
   2024 03 04 05:50  11 43 24.06    +03 11 18.1   0.0103 1.0018 168.8 Nm  20?   1.12 114.1   16 259  86  43
   2024 03 04 06:00  11 43 24.78    +03 11 13.5   0.0103 1.0018 168.8 Nm  20?   1.23 111.9   15 260  86  43
   2024 03 04 06:10  11 43 25.58    +03 11 08.9   0.0103 1.0018 168.8 Nm  20?   1.34 110.1   13 262  86  43
   2024 03 04 06:20  11 43 26.46    +03 11 04.3   0.0103 1.0018 168.8 Cm  20?   1.45 108.6   11 264  86  43
   2024 03 04 06:30  11 43 27.42    +03 10 59.6   0.0103 1.0018 168.8 Cm  20?   1.57 107.2    9 265  86  43
   ................
   2024 03 04 19:00  11 46 30.84    +03 06 57.9   0.0104 1.0020 168.5 Nr  20?   2.08  94.5    0  86  92  38
   2024 03 04 19:10  11 46 32.18    +03 06 56.3   0.0104 1.0020 168.5 A   20?   1.95  94.8    1  87  92  37
   2024 03 04 19:20  11 46 33.44    +03 06 54.7   0.0104 1.0020 168.5 A   20?   1.83  95.1    3  89  93  37
   2024 03 04 19:30  11 46 34.61    +03 06 53.1   0.0104 1.0020 168.5 A   20?   1.71  95.5    5  91  93  37
   2024 03 04 19:40  11 46 35.71    +03 06 51.4   0.0104 1.0020 168.5 A   20?   1.59  95.9    7  92  93  37
   2024 03 04 19:50  11 46 36.72    +03 06 49.8   0.0104 1.0020 168.5     20?   1.47  96.4    9  94  93  37
   2024 03 04 20:00  11 46 37.66    +03 06 48.1   0.0104 1.0020 168.5     20?   1.35  97.1   11  95  93  37
   2024 03 04 20:10  11 46 38.51    +03 06 46.5   0.0104 1.0020 168.5     20?   1.23  97.8   13  97  93  37
   2024 03 04 20:20  11 46 39.28    +03 06 44.8   0.0104 1.0020 168.5     20?   1.11  98.7   15  99  93  37
   2024 03 04 20:30  11 46 39.98    +03 06 43.1   0.0104 1.0020 168.6     20?   1.00  99.9   17 101  93  37
   2024 03 04 20:40  11 46 40.60    +03 06 41.4   0.0103 1.0020 168.6     20?   0.89 101.2   18 102  94  37
   2024 03 04 20:50  11 46 41.14    +03 06 39.6   0.0103 1.0020 168.6     20?   0.78 103.1   20 104  94  37
   2024 03 04 21:00  11 46 41.61    +03 06 37.9   0.0103 1.0020 168.6     20?   0.67 105.4   22 106  94  36
   2024 03 04 21:10  11 46 42.00    +03 06 36.1   0.0103 1.0020 168.6     20?   0.57 108.7   24 108  94  36
   2024 03 04 21:20  11 46 42.32    +03 06 34.2   0.0103 1.0020 168.6     20?   0.47 113.2   26 110  94  36
   2024 03 04 21:30  11 46 42.58    +03 06 32.4   0.0103 1.0020 168.6     20?   0.38 119.8   27 112  94  36
   2024 03 04 21:40  11 46 42.76    +03 06 30.5   0.0103 1.0020 168.6     20?   0.30 130.0   29 114  94  36
   2024 03 04 21:50  11 46 42.88    +03 06 28.5   0.0103 1.0020 168.6     20?   0.24 145.9   31 116  94  36
   2024 03 04 22:00  11 46 42.94    +03 06 26.5   0.0103 1.0020 168.6     20?   0.20 168.7   33 118  94  36
   2024 03 04 22:10  11 46 42.94    +03 06 24.5   0.0103 1.0020 168.6     20?   0.21 193.6   34 120  95  36
   2024 03 04 22:20  11 46 42.87    +03 06 22.5   0.0103 1.0020 168.6     20?   0.25 212.8   36 123  95  36
   2024 03 04 22:30  11 46 42.76    +03 06 20.3   0.0103 1.0020 168.6     20?   0.30 225.3   37 125  95  36
   2024 03 04 22:40  11 46 42.59    +03 06 18.2   0.0103 1.0020 168.6     20?   0.37 233.3   39 128  95  35
   2024 03 04 22:50  11 46 42.37    +03 06 16.0   0.0103 1.0020 168.6     20?   0.43 238.6   40 131  95  35
   2024 03 04 23:00  11 46 42.10    +03 06 13.7   0.0103 1.0020 168.6     20?   0.49 242.2   42 133  95  35
   2024 03 04 23:10  11 46 41.78    +03 06 11.4   0.0103 1.0020 168.7     20?   0.55 244.8   43 136  95  35
   2024 03 04 23:20  11 46 41.43    +03 06 09.0   0.0103 1.0020 168.7     20?   0.61 246.7   44 139  95  35
   2024 03 04 23:30  11 46 41.04    +03 06 06.6   0.0103 1.0020 168.7     20?   0.66 248.2   45 142  96  35
   2024 03 04 23:40  11 46 40.61    +03 06 04.1   0.0103 1.0020 168.7     20?   0.71 249.2   47 146  96  35
   2024 03 04 23:50  11 46 40.15    +03 06 01.6   0.0103 1.0020 168.7     20?   0.75 250.0   48 149  96  35
   2024 03 05 00:00  11 46 39.67    +03 05 59.0   0.0103 1.0020 168.7     20?   0.79 250.6   48 153  96  35
   2024 03 05 00:10  11 46 39.16    +03 05 56.3   0.0103 1.0020 168.7     20?   0.83 251.0   49 156  96  35
   2024 03 05 00:20  11 46 38.62    +03 05 53.6   0.0103 1.0020 168.7     20?   0.86 251.2   50 160  96  35
   2024 03 05 00:30  11 46 38.07    +03 05 50.8   0.0103 1.0020 168.7     20?   0.88 251.4   51 164  96  35
   2024 03 05 00:40  11 46 37.51    +03 05 47.9   0.0103 1.0020 168.7     20?   0.90 251.4   51 168  96  34
   2024 03 05 00:50  11 46 36.93    +03 05 45.0   0.0103 1.0020 168.7     20?   0.92 251.3   51 172  96  34
   2024 03 05 01:00  11 46 36.35    +03 05 42.1   0.0103 1.0020 168.8     20?   0.93 251.0   52 176  96  34
   2024 03 05 01:10  11 46 35.77    +03 05 39.0   0.0103 1.0020 168.8  t  20?   0.93 250.7   52 180  97  34
   2024 03 05 01:20  11 46 35.18    +03 05 35.9   0.0103 1.0020 168.8     20?   0.93 250.3   51 184  97  34
   2024 03 05 01:30  11 46 34.60    +03 05 32.8   0.0103 1.0020 168.8     20?   0.92 249.8   51 188  97  34
   2024 03 05 01:40  11 46 34.02    +03 05 29.6   0.0103 1.0020 168.8     20?   0.91 249.1   51 192  97  34
   2024 03 05 01:50  11 46 33.46    +03 05 26.3   0.0103 1.0020 168.8     20?   0.90 248.3   50 196  97  34
   2024 03 05 02:00  11 46 32.91    +03 05 23.0   0.0103 1.0020 168.8     20?   0.88 247.4   50 200  97  34
   2024 03 05 02:10  11 46 32.38    +03 05 19.6   0.0103 1.0020 168.8     20?   0.85 246.2   49 203  97  34
   2024 03 05 02:20  11 46 31.87    +03 05 16.1   0.0103 1.0020 168.8     20?   0.82 244.9   48 207  97  34
   2024 03 05 02:30  11 46 31.39    +03 05 12.6   0.0103 1.0020 168.8     20?   0.79 243.2   47 211  97  34
   2024 03 05 02:40  11 46 30.93    +03 05 09.0   0.0103 1.0020 168.8     20?   0.75 241.3   46 214  97  34
   2024 03 05 02:50  11 46 30.51    +03 05 05.4   0.0103 1.0020 168.8     20?   0.71 239.0   45 217  97  34
   2024 03 05 03:00  11 46 30.12    +03 05 01.7   0.0103 1.0021 168.9     20?   0.67 236.1   44 220  98  34
   2024 03 05 03:10  11 46 29.77    +03 04 57.9   0.0103 1.0021 168.9     20?   0.62 232.7   43 223  98  33
   2024 03 05 03:20  11 46 29.46    +03 04 54.1   0.0103 1.0021 168.9     20?   0.58 228.4   41 226  98  33
   2024 03 05 03:30  11 46 29.19    +03 04 50.3   0.0103 1.0021 168.9  m  20?   0.53 223.0   40 229  98  33
   2024 03 05 03:40  11 46 28.97    +03 04 46.4   0.0103 1.0021 168.9  m  20?   0.49 216.3   39 232  98  33
   2024 03 05 03:50  11 46 28.81    +03 04 42.4   0.0103 1.0021 168.9  m  20?   0.45 208.0   37 234  98  33
   2024 03 05 04:00  11 46 28.69    +03 04 38.4   0.0103 1.0021 168.9  m  20?   0.42 197.9   35 237  98  33
   2024 03 05 04:10  11 46 28.63    +03 04 34.4   0.0103 1.0021 168.9  m  20?   0.41 186.2   34 239  98  33
   2024 03 05 04:20  11 46 28.63    +03 04 30.3   0.0103 1.0021 168.9  m  20?   0.41 173.7   32 241  98  33
   2024 03 05 04:30  11 46 28.69    +03 04 26.2   0.0103 1.0021 168.9  m  20?   0.44 161.5   30 243  98  33
   2024 03 05 04:40  11 46 28.82    +03 04 22.0   0.0103 1.0021 168.9  m  20?   0.48 150.7   29 245  98  33
   2024 03 05 04:50  11 46 29.01    +03 04 17.9   0.0103 1.0021 168.9  m  20?   0.54 141.6   27 247  98  33
   2024 03 05 05:00  11 46 29.26    +03 04 13.6   0.0103 1.0021 168.9  m  20?   0.61 134.2   25 249  98  33
   2024 03 05 05:10  11 46 29.59    +03 04 09.4   0.0104 1.0021 168.9  m  20?   0.69 128.2   23 251  99  33
   2024 03 05 05:20  11 46 29.99    +03 04 05.1   0.0104 1.0021 169.0 Am  20?   0.78 123.5   22 253  99  33
   2024 03 05 05:30  11 46 30.46    +03 04 00.8   0.0104 1.0021 169.0 Am  20?   0.87 119.6   20 255  99  33
   2024 03 05 05:40  11 46 31.00    +03 03 56.4   0.0104 1.0021 169.0 Am  20?   0.97 116.4   18 257  99  33
   2024 03 05 05:50  11 46 31.62    +03 03 52.1   0.0104 1.0021 169.0 Nm  20?   1.08 113.8   16 259  99  33
   2024 03 05 06:00  11 46 32.32    +03 03 47.7   0.0104 1.0021 169.0 Nm  20?   1.19 111.6   14 260  99  33
   2024 03 05 06:10  11 46 33.10    +03 03 43.3   0.0104 1.0021 169.0 Nm  20?   1.30 109.8   12 262  99  32
   2024 03 05 06:20  11 46 33.95    +03 03 38.9   0.0104 1.0021 169.0 Cm  20?   1.41 108.2   11 264  99  32
   2024 03 05 06:30  11 46 34.89    +03 03 34.5   0.0104 1.0021 169.0 Cm  20?   1.53 106.8    9 265  99  32
   ................
   2024 03 05 19:00  11 49 35.73    +02 59 45.8   0.0104 1.0022 168.7 Nr  20?   2.02  94.3    0  86 105  27
   2024 03 05 19:10  11 49 37.03    +02 59 44.3   0.0104 1.0022 168.7 A   20?   1.89  94.6    2  87 105  27
   2024 03 05 19:20  11 49 38.25    +02 59 42.8   0.0104 1.0022 168.7 A   20?   1.77  94.9    3  89 105  27
   2024 03 05 19:30  11 49 39.39    +02 59 41.3   0.0104 1.0022 168.8 A   20?   1.65  95.3    5  91 105  27
   2024 03 05 19:40  11 49 40.44    +02 59 39.8   0.0104 1.0022 168.8 A   20?   1.53  95.8    7  92 106  27
   2024 03 05 19:50  11 49 41.42    +02 59 38.2   0.0104 1.0022 168.8     20?   1.41  96.3    9  94 106  27
   2024 03 05 20:00  11 49 42.31    +02 59 36.7   0.0104 1.0023 168.8     20?   1.29  96.9   11  96 106  27
   2024 03 05 20:10  11 49 43.13    +02 59 35.1   0.0104 1.0023 168.8     20?   1.17  97.7   13  97 106  27
   2024 03 05 20:20  11 49 43.86    +02 59 33.5   0.0104 1.0023 168.8     20?   1.05  98.7   15  99 106  27
   2024 03 05 20:30  11 49 44.52    +02 59 31.9   0.0104 1.0023 168.8     20?   0.94  99.8   17 101 106  27
   2024 03 05 20:40  11 49 45.10    +02 59 30.3   0.0104 1.0023 168.8     20?   0.83 101.3   18 103 106  26
   2024 03 05 20:50  11 49 45.60    +02 59 28.7   0.0104 1.0023 168.8     20?   0.72 103.2   20 104 106  26
   2024 03 05 21:00  11 49 46.03    +02 59 27.0   0.0104 1.0023 168.8     20?   0.61 105.9   22 106 107  26
   2024 03 05 21:10  11 49 46.38    +02 59 25.3   0.0104 1.0023 168.8     20?   0.51 109.5   24 108 107  26
   2024 03 05 21:20  11 49 46.67    +02 59 23.6   0.0104 1.0023 168.8     20?   0.41 114.8   26 110 107  26
   2024 03 05 21:30  11 49 46.89    +02 59 21.9   0.0104 1.0023 168.8     20?   0.33 122.9   27 112 107  26
   2024 03 05 21:40  11 49 47.03    +02 59 20.1   0.0104 1.0023 168.8     20?   0.25 136.1   29 114 107  26
   2024 03 05 21:50  11 49 47.12    +02 59 18.3   0.0104 1.0023 168.8     20?   0.20 157.1   31 116 107  26
   2024 03 05 22:00  11 49 47.14    +02 59 16.4   0.0104 1.0023 168.8     20?   0.19 184.5   33 119 107  26
   2024 03 05 22:10  11 49 47.10    +02 59 14.5   0.0104 1.0023 168.8     20?   0.22 208.3   34 121 107  26
   2024 03 05 22:20  11 49 47.00    +02 59 12.5   0.0104 1.0023 168.8     20?   0.27 223.7   36 123 108  26
   2024 03 05 22:30  11 49 46.85    +02 59 10.6   0.0104 1.0023 168.8     20?   0.34 233.2   37 126 108  25
   2024 03 05 22:40  11 49 46.64    +02 59 08.5   0.0104 1.0023 168.9     20?   0.40 239.2   39 128 108  25
   2024 03 05 22:50  11 49 46.39    +02 59 06.4   0.0104 1.0023 168.9     20?   0.47 243.2   40 131 108  25
   2024 03 05 23:00  11 49 46.08    +02 59 04.3   0.0103 1.0023 168.9     20?   0.53 246.0   42 134 108  25
   2024 03 05 23:10  11 49 45.74    +02 59 02.1   0.0103 1.0023 168.9     20?   0.59 248.1   43 137 108  25
   2024 03 05 23:20  11 49 45.35    +02 58 59.9   0.0103 1.0023 168.9     20?   0.65 249.6   44 140 108  25
   2024 03 05 23:30  11 49 44.92    +02 58 57.6   0.0103 1.0023 168.9     20?   0.70 250.7   45 143 108  25
   2024 03 05 23:40  11 49 44.46    +02 58 55.2   0.0103 1.0023 168.9     20?   0.75 251.5   47 146 108  25
   2024 03 05 23:50  11 49 43.97    +02 58 52.8   0.0103 1.0023 168.9     20?   0.80 252.2   48 149 109  25
   2024 03 06 00:00  11 49 43.45    +02 58 50.4   0.0103 1.0023 168.9     20?   0.83 252.6   48 153 109  25
   2024 03 06 00:10  11 49 42.91    +02 58 47.8   0.0103 1.0023 168.9     20?   0.87 252.9   49 157 109  25
   2024 03 06 00:20  11 49 42.34    +02 58 45.3   0.0103 1.0023 168.9     20?   0.90 253.1   50 160 109  25
   2024 03 06 00:30  11 49 41.76    +02 58 42.6   0.0103 1.0023 168.9     20?   0.92 253.2   50 164 109  24
   2024 03 06 00:40  11 49 41.17    +02 58 39.9   0.0103 1.0023 169.0     20?   0.94 253.1   51 168 109  24
   2024 03 06 00:50  11 49 40.56    +02 58 37.2   0.0103 1.0023 169.0     20?   0.96 253.0   51 172 109  24
   2024 03 06 01:00  11 49 39.95    +02 58 34.4   0.0103 1.0023 169.0     20?   0.96 252.8   51 176 109  24
   2024 03 06 01:10  11 49 39.33    +02 58 31.5   0.0103 1.0023 169.0  t  20?   0.97 252.5   51 180 109  24
   2024 03 06 01:20  11 49 38.72    +02 58 28.6   0.0103 1.0023 169.0     20?   0.97 252.1   51 184 110  24
   2024 03 06 01:30  11 49 38.10    +02 58 25.6   0.0103 1.0023 169.0     20?   0.96 251.6   51 188 110  24
   2024 03 06 01:40  11 49 37.50    +02 58 22.5   0.0103 1.0023 169.0     20?   0.95 251.0   51 192 110  24
   2024 03 06 01:50  11 49 36.91    +02 58 19.4   0.0103 1.0023 169.0     20?   0.93 250.3   50 196 110  24
   2024 03 06 02:00  11 49 36.33    +02 58 16.3   0.0103 1.0023 169.0     20?   0.91 249.4   50 200 110  24
   2024 03 06 02:10  11 49 35.77    +02 58 13.0   0.0103 1.0023 169.0     20?   0.88 248.4   49 204 110  24
   2024 03 06 02:20  11 49 35.23    +02 58 09.7   0.0103 1.0023 169.0     20?   0.85 247.1   48 207 110  24
   2024 03 06 02:30  11 49 34.72    +02 58 06.4   0.0103 1.0023 169.1     20?   0.82 245.7   47 211 110  24
   2024 03 06 02:40  11 49 34.24    +02 58 03.0   0.0103 1.0023 169.1     20?   0.78 243.9   46 214 110  24
   2024 03 06 02:50  11 49 33.78    +02 57 59.6   0.0103 1.0023 169.1     20?   0.74 241.9   45 217 111  23
   2024 03 06 03:00  11 49 33.37    +02 57 56.0   0.0104 1.0023 169.1     20?   0.69 239.3   44 221 111  23
   2024 03 06 03:10  11 49 32.99    +02 57 52.5   0.0104 1.0023 169.1     20?   0.64 236.2   43 224 111  23
   2024 03 06 03:20  11 49 32.65    +02 57 48.9   0.0104 1.0023 169.1     20?   0.59 232.3   41 226 111  23
   2024 03 06 03:30  11 49 32.36    +02 57 45.2   0.0104 1.0023 169.1     20?   0.54 227.5   40 229 111  23
   2024 03 06 03:40  11 49 32.12    +02 57 41.5   0.0104 1.0023 169.1     20?   0.50 221.3   38 232 111  23
   2024 03 06 03:50  11 49 31.93    +02 57 37.8   0.0104 1.0023 169.1     20?   0.45 213.5   37 234 111  23
   2024 03 06 04:00  11 49 31.79    +02 57 34.0   0.0104 1.0023 169.1     20?   0.42 203.8   35 237 111  23
   2024 03 06 04:10  11 49 31.70    +02 57 30.2   0.0104 1.0023 169.1     20?   0.39 192.1   34 239 111  23
   2024 03 06 04:20  11 49 31.68    +02 57 26.3   0.0104 1.0023 169.1  m  20?   0.39 179.0   32 241 111  23
   2024 03 06 04:30  11 49 31.71    +02 57 22.4   0.0104 1.0024 169.1  m  20?   0.41 165.7   30 243 111  23
   2024 03 06 04:40  11 49 31.81    +02 57 18.4   0.0104 1.0024 169.2  m  20?   0.44 153.6   29 246 111  23
   2024 03 06 04:50  11 49 31.97    +02 57 14.4   0.0104 1.0024 169.2  m  20?   0.50 143.5   27 248 112  23
   2024 03 06 05:00  11 49 32.21    +02 57 10.4   0.0104 1.0024 169.2  m  20?   0.57 135.3   25 250 112  23
   2024 03 06 05:10  11 49 32.51    +02 57 06.4   0.0104 1.0024 169.2 Am  20?   0.65 128.8   23 251 112  23
   2024 03 06 05:20  11 49 32.88    +02 57 02.3   0.0104 1.0024 169.2 Am  20?   0.74 123.7   21 253 112  23
   2024 03 06 05:30  11 49 33.32    +02 56 58.2   0.0104 1.0024 169.2 Am  20?   0.83 119.6   20 255 112  23
   2024 03 06 05:40  11 49 33.84    +02 56 54.1   0.0104 1.0024 169.2 Am  20?   0.93 116.3   18 257 112  23
   2024 03 06 05:50  11 49 34.44    +02 56 49.9   0.0104 1.0024 169.2 Nm  20?   1.04 113.6   16 259 112  22
   2024 03 06 06:00  11 49 35.11    +02 56 45.8   0.0104 1.0024 169.2 Nm  20?   1.14 111.3   14 260 112  22
   2024 03 06 06:10  11 49 35.86    +02 56 41.6   0.0104 1.0024 169.2 Nm  20?   1.26 109.4   12 262 112  22
   2024 03 06 06:20  11 49 36.69    +02 56 37.4   0.0104 1.0024 169.2 Cm  20?   1.37 107.8   10 264 112  22
   2024 03 06 06:30  11 49 37.60    +02 56 33.2   0.0104 1.0024 169.2 Cm  20?   1.48 106.4    8 266 112  22
   ................
   2024 03 06 19:00  11 52 35.93    +02 52 57.0   0.0104 1.0025 169.0 Nr  20?   1.96  94.2    0  86 118  18
   2024 03 06 19:10  11 52 37.19    +02 52 55.6   0.0104 1.0025 169.0 N   20?   1.83  94.5    2  88 118  18
   2024 03 06 19:20  11 52 38.37    +02 52 54.2   0.0104 1.0025 169.0 A   20?   1.71  94.8    4  89 118  18
   2024 03 06 19:30  11 52 39.47    +02 52 52.8   0.0104 1.0025 169.0 A   20?   1.59  95.2    5  91 119  18
   2024 03 06 19:40  11 52 40.48    +02 52 51.3   0.0104 1.0025 169.0 A   20?   1.47  95.6    7  93 119  18
   2024 03 06 19:50  11 52 41.42    +02 52 49.9   0.0104 1.0025 169.0     20?   1.35  96.1    9  94 119  18
   2024 03 06 20:00  11 52 42.27    +02 52 48.5   0.0104 1.0025 169.0     20?   1.23  96.8   11  96 119  17
   2024 03 06 20:10  11 52 43.05    +02 52 47.0   0.0104 1.0025 169.0     20?   1.11  97.6   13  98 119  17
   2024 03 06 20:20  11 52 43.74    +02 52 45.5   0.0104 1.0025 169.0     20?   0.99  98.6   15  99 119  17
   2024 03 06 20:30  11 52 44.36    +02 52 44.0   0.0104 1.0025 169.0     20?   0.88  99.8   17 101 119  17
   2024 03 06 20:40  11 52 44.90    +02 52 42.5   0.0104 1.0025 169.0     20?   0.77 101.4   19 103 119  17
   2024 03 06 20:50  11 52 45.37    +02 52 41.0   0.0104 1.0025 169.0     20?   0.66 103.5   20 105 120  17
   2024 03 06 21:00  11 52 45.76    +02 52 39.4   0.0104 1.0025 169.0     20?   0.55 106.4   22 107 120  17
   2024 03 06 21:10  11 52 46.08    +02 52 37.8   0.0104 1.0025 169.0     20?   0.45 110.6   24 108 120  17
   2024 03 06 21:20  11 52 46.33    +02 52 36.2   0.0104 1.0025 169.0     20?   0.36 117.0   26 110 120  17
   2024 03 06 21:30  11 52 46.50    +02 52 34.6   0.0104 1.0026 169.0     20?   0.27 127.4   28 112 120  17
   2024 03 06 21:40  11 52 46.62    +02 52 32.9   0.0104 1.0026 169.0     20?   0.21 145.0   29 114 120  17
   2024 03 06 21:50  11 52 46.66    +02 52 31.2   0.0104 1.0026 169.1     20?   0.18 172.3   31 117 120  17
   2024 03 06 22:00  11 52 46.65    +02 52 29.4   0.0104 1.0026 169.1     20?   0.19 201.1   33 119 121  16
   2024 03 06 22:10  11 52 46.57    +02 52 27.6   0.0104 1.0026 169.1     20?   0.24 220.8   34 121 121  16
   2024 03 06 22:20  11 52 46.44    +02 52 25.8   0.0104 1.0026 169.1     20?   0.30 232.4   36 123 121  16
   2024 03 06 22:30  11 52 46.25    +02 52 23.9   0.0104 1.0026 169.1     20?   0.37 239.4   37 126 121  16
   2024 03 06 22:40  11 52 46.01    +02 52 22.0   0.0104 1.0026 169.1     20?   0.44 243.9   39 129 121  16
   2024 03 06 22:50  11 52 45.72    +02 52 20.0   0.0104 1.0026 169.1     20?   0.51 247.0   40 131 121  16
   2024 03 06 23:00  11 52 45.38    +02 52 18.0   0.0104 1.0026 169.1     20?   0.58 249.2   42 134 121  16
   2024 03 06 23:10  11 52 45.00    +02 52 15.9   0.0104 1.0026 169.1     20?   0.64 250.8   43 137 121  16
   2024 03 06 23:20  11 52 44.58    +02 52 13.8   0.0104 1.0026 169.1     20?   0.69 252.0   44 140 122  16
   2024 03 06 23:30  11 52 44.12    +02 52 11.7   0.0104 1.0026 169.1     20?   0.75 252.9   45 143 122  16
   2024 03 06 23:40  11 52 43.63    +02 52 09.4   0.0104 1.0026 169.1     20?   0.79 253.5   47 146 122  16
   2024 03 06 23:50  11 52 43.11    +02 52 07.2   0.0104 1.0026 169.1     20?   0.84 254.0   48 150 122  16
   2024 03 07 00:00  11 52 42.56    +02 52 04.8   0.0104 1.0026 169.2     20?   0.88 254.4   48 153 122  16
   2024 03 07 00:10  11 52 41.98    +02 52 02.5   0.0104 1.0026 169.2     20?   0.91 254.6   49 157 122  15
   2024 03 07 00:20  11 52 41.39    +02 52 00.0   0.0104 1.0026 169.2     20?   0.94 254.7   50 161 122  15
   2024 03 07 00:30  11 52 40.77    +02 51 57.5   0.0104 1.0026 169.2     20?   0.96 254.8   50 165 122  15
   2024 03 07 00:40  11 52 40.15    +02 51 55.0   0.0104 1.0026 169.2     20?   0.98 254.7   51 169 123  15
   2024 03 07 00:50  11 52 39.51    +02 51 52.4   0.0104 1.0026 169.2     20?   0.99 254.6   51 173 123  15
   2024 03 07 01:00  11 52 38.87    +02 51 49.7   0.0104 1.0026 169.2     20?   1.00 254.4   51 177 123  15
   2024 03 07 01:10  11 52 38.22    +02 51 47.0   0.0104 1.0026 169.2  t  20?   1.01 254.1   51 181 123  15
   2024 03 07 01:20  11 52 37.58    +02 51 44.2   0.0104 1.0026 169.2     20?   1.00 253.7   51 185 123  15
   2024 03 07 01:30  11 52 36.94    +02 51 41.4   0.0104 1.0026 169.2     20?   1.00 253.2   51 189 123  15
   2024 03 07 01:40  11 52 36.31    +02 51 38.5   0.0104 1.0026 169.2     20?   0.98 252.7   51 193 123  15
   2024 03 07 01:50  11 52 35.68    +02 51 35.5   0.0104 1.0026 169.3     20?   0.97 252.0   50 197 123  15
   2024 03 07 02:00  11 52 35.08    +02 51 32.5   0.0104 1.0026 169.3     20?   0.94 251.2   50 200 123  15
   2024 03 07 02:10  11 52 34.49    +02 51 29.4   0.0104 1.0026 169.3     20?   0.92 250.3   49 204 124  15
   2024 03 07 02:20  11 52 33.93    +02 51 26.3   0.0104 1.0026 169.3     20?   0.89 249.1   48 208 124  15
   2024 03 07 02:30  11 52 33.39    +02 51 23.1   0.0104 1.0026 169.3     20?   0.85 247.8   47 211 124  15
   2024 03 07 02:40  11 52 32.88    +02 51 19.9   0.0104 1.0026 169.3     20?   0.81 246.2   46 214 124  14
   2024 03 07 02:50  11 52 32.40    +02 51 16.6   0.0104 1.0026 169.3     20?   0.76 244.4   45 218 124  14
   2024 03 07 03:00  11 52 31.96    +02 51 13.3   0.0104 1.0026 169.3     20?   0.72 242.1   44 221 124  14
   2024 03 07 03:10  11 52 31.56    +02 51 09.9   0.0104 1.0026 169.3     20?   0.67 239.3   42 224 124  14
   2024 03 07 03:20  11 52 31.19    +02 51 06.5   0.0104 1.0026 169.3     20?   0.61 235.8   41 227 124  14
   2024 03 07 03:30  11 52 30.88    +02 51 03.0   0.0104 1.0026 169.3     20?   0.56 231.4   40 229 124  14
   2024 03 07 03:40  11 52 30.61    +02 50 59.5   0.0104 1.0026 169.4     20?   0.51 225.8   38 232 124  14
   2024 03 07 03:50  11 52 30.39    +02 50 55.9   0.0104 1.0026 169.4     20?   0.46 218.6   37 234 125  14
   2024 03 07 04:00  11 52 30.23    +02 50 52.3   0.0104 1.0026 169.4     20?   0.42 209.4   35 237 125  14
   2024 03 07 04:10  11 52 30.12    +02 50 48.7   0.0104 1.0026 169.4     20?   0.39 197.9   33 239 125  14
   2024 03 07 04:20  11 52 30.07    +02 50 45.0   0.0104 1.0026 169.4     20?   0.37 184.4   32 241 125  14
   2024 03 07 04:30  11 52 30.08    +02 50 41.3   0.0104 1.0026 169.4     20?   0.38 170.2   30 244 125  14
   2024 03 07 04:40  11 52 30.16    +02 50 37.5   0.0104 1.0026 169.4     20?   0.41 156.9   28 246 125  14
   2024 03 07 04:50  11 52 30.30    +02 50 33.7   0.0104 1.0026 169.4     20?   0.46 145.5   27 248 125  14
   2024 03 07 05:00  11 52 30.50    +02 50 29.9   0.0104 1.0026 169.4     20?   0.53 136.5   25 250 125  14
   2024 03 07 05:10  11 52 30.78    +02 50 26.1   0.0104 1.0026 169.4 Am  20?   0.61 129.4   23 252 125  14
   2024 03 07 05:20  11 52 31.13    +02 50 22.2   0.0104 1.0026 169.4 Am  20?   0.70 123.9   21 253 125  14
   2024 03 07 05:30  11 52 31.55    +02 50 18.3   0.0104 1.0026 169.4 Am  20?   0.79 119.6   19 255 125  14
   2024 03 07 05:40  11 52 32.05    +02 50 14.4   0.0104 1.0026 169.4 Nm  20?   0.89 116.1   17 257 126  14
   2024 03 07 05:50  11 52 32.62    +02 50 10.4   0.0104 1.0026 169.4 Nm  20?   1.00 113.3   16 259 126  14
   2024 03 07 06:00  11 52 33.27    +02 50 06.5   0.0104 1.0027 169.4 Nm  20?   1.10 111.0   14 261 126  13
   2024 03 07 06:10  11 52 34.00    +02 50 02.5   0.0104 1.0027 169.4 Nm  20?   1.22 109.0   12 262 126  13
   2024 03 07 06:20  11 52 34.81    +02 49 58.5   0.0104 1.0027 169.4 Cm  20?   1.33 107.4   10 264 126  13
   2024 03 07 06:30  11 52 35.69    +02 49 54.5   0.0104 1.0027 169.4 Cm  20?   1.44 106.0    8 266 126  13
   ................
   2024 03 07 19:00  11 55 31.61    +02 46 29.7   0.0104 1.0028 169.2 N   20?   1.90  94.0    0  86 132  10
   2024 03 07 19:10  11 55 32.83    +02 46 28.4   0.0104 1.0028 169.2 N   20?   1.78  94.3    2  88 132  10
   2024 03 07 19:20  11 55 33.97    +02 46 27.0   0.0104 1.0028 169.2 A   20?   1.65  94.6    4  90 132  10
   2024 03 07 19:30  11 55 35.03    +02 46 25.7   0.0104 1.0028 169.2 A   20?   1.53  95.0    6  91 132  10
   2024 03 07 19:40  11 55 36.01    +02 46 24.3   0.0104 1.0028 169.2 A   20?   1.41  95.5    7  93 132  10
   2024 03 07 19:50  11 55 36.90    +02 46 23.0   0.0104 1.0028 169.2     20?   1.29  96.0    9  95 133  10
   2024 03 07 20:00  11 55 37.72    +02 46 21.6   0.0104 1.0028 169.2     20?   1.17  96.7   11  96 133   9
   2024 03 07 20:10  11 55 38.46    +02 46 20.3   0.0104 1.0028 169.2     20?   1.05  97.5   13  98 133   9
   2024 03 07 20:20  11 55 39.11    +02 46 18.9   0.0104 1.0028 169.2     20?   0.94  98.6   15 100 133   9
   2024 03 07 20:30  11 55 39.70    +02 46 17.5   0.0104 1.0028 169.3     20?   0.82  99.9   17 101 133   9
   2024 03 07 20:40  11 55 40.20    +02 46 16.0   0.0104 1.0028 169.3     20?   0.71 101.6   19 103 133   9
   2024 03 07 20:50  11 55 40.63    +02 46 14.6   0.0104 1.0028 169.3     20?   0.60 103.9   20 105 133   9
   2024 03 07 21:00  11 55 40.98    +02 46 13.1   0.0104 1.0028 169.3     20?   0.50 107.2   22 107 133   9
   2024 03 07 21:10  11 55 41.26    +02 46 11.6   0.0104 1.0028 169.3     20?   0.40 112.2   24 109 134   9
   2024 03 07 21:20  11 55 41.48    +02 46 10.1   0.0104 1.0028 169.3     20?   0.31 120.1   26 111 134   9
   2024 03 07 21:30  11 55 41.62    +02 46 08.5   0.0104 1.0028 169.3     20?   0.23 133.7   28 113 134   9
   2024 03 07 21:40  11 55 41.70    +02 46 06.9   0.0104 1.0028 169.3     20?   0.17 157.6   29 115 134   9
   2024 03 07 21:50  11 55 41.71    +02 46 05.3   0.0104 1.0028 169.3     20?   0.17 190.0   31 117 134   9
   2024 03 07 22:00  11 55 41.66    +02 46 03.7   0.0104 1.0028 169.3     20?   0.21 215.6   33 119 134   9
   2024 03 07 22:10  11 55 41.55    +02 46 02.0   0.0104 1.0028 169.3     20?   0.27 230.5   34 121 134   9
   2024 03 07 22:20  11 55 41.38    +02 46 00.2   0.0104 1.0028 169.3     20?   0.34 238.9   36 124 134   9
   2024 03 07 22:30  11 55 41.16    +02 45 58.4   0.0104 1.0028 169.3     20?   0.41 244.1   37 126 135   8
   2024 03 07 22:40  11 55 40.89    +02 45 56.6   0.0104 1.0028 169.3     20?   0.48 247.6   39 129 135   8
   2024 03 07 22:50  11 55 40.56    +02 45 54.8   0.0104 1.0029 169.3     20?   0.55 250.0   40 132 135   8
   2024 03 07 23:00  11 55 40.19    +02 45 52.8   0.0104 1.0029 169.4     20?   0.62 251.7   42 134 135   8
   2024 03 07 23:10  11 55 39.78    +02 45 50.9   0.0104 1.0029 169.4     20?   0.68 253.0   43 137 135   8
   2024 03 07 23:20  11 55 39.33    +02 45 48.9   0.0104 1.0029 169.4     20?   0.74 253.9   44 140 135   8
   2024 03 07 23:30  11 55 38.84    +02 45 46.8   0.0104 1.0029 169.4     20?   0.79 254.6   45 143 135   8
   2024 03 07 23:40  11 55 38.31    +02 45 44.7   0.0104 1.0029 169.4     20?   0.84 255.2   47 147 136   8
   2024 03 07 23:50  11 55 37.76    +02 45 42.6   0.0104 1.0029 169.4     20?   0.88 255.6   48 150 136   8
   2024 03 08 00:00  11 55 37.18    +02 45 40.3   0.0104 1.0029 169.4     20?   0.92 255.8   48 154 136   8
   2024 03 08 00:10  11 55 36.57    +02 45 38.1   0.0104 1.0029 169.4     20?   0.95 256.0   49 157 136   8
   2024 03 08 00:20  11 55 35.95    +02 45 35.8   0.0104 1.0029 169.4     20?   0.98 256.1   50 161 136   8
   2024 03 08 00:30  11 55 35.31    +02 45 33.4   0.0104 1.0029 169.4     20?   1.00 256.1   50 165 136   8
   2024 03 08 00:40  11 55 34.65    +02 45 30.9   0.0104 1.0029 169.4     20?   1.02 256.0   51 169 136   8
   2024 03 08 00:50  11 55 33.99    +02 45 28.5   0.0104 1.0029 169.5     20?   1.03 255.9   51 173 136   8
   2024 03 08 01:00  11 55 33.32    +02 45 25.9   0.0104 1.0029 169.5     20?   1.04 255.7   51 177 137   8
   2024 03 08 01:10  11 55 32.64    +02 45 23.3   0.0104 1.0029 169.5  t  20?   1.04 255.4   51 181 137   8
   2024 03 08 01:20  11 55 31.97    +02 45 20.7   0.0104 1.0029 169.5     20?   1.04 255.0   51 185 137   8
   2024 03 08 01:30  11 55 31.31    +02 45 18.0   0.0104 1.0029 169.5     20?   1.03 254.6   51 189 137   7
   2024 03 08 01:40  11 55 30.65    +02 45 15.2   0.0104 1.0029 169.5     20?   1.02 254.1   50 193 137   7
   2024 03 08 01:50  11 55 30.00    +02 45 12.4   0.0104 1.0029 169.5     20?   1.00 253.4   50 197 137   7
   2024 03 08 02:00  11 55 29.37    +02 45 09.5   0.0104 1.0029 169.5     20?   0.98 252.7   49 201 137   7
   2024 03 08 02:10  11 55 28.76    +02 45 06.6   0.0104 1.0029 169.5     20?   0.95 251.8   49 204 137   7
   2024 03 08 02:20  11 55 28.17    +02 45 03.6   0.0104 1.0029 169.5     20?   0.92 250.8   48 208 138   7
   2024 03 08 02:30  11 55 27.61    +02 45 00.6   0.0104 1.0029 169.5     20?   0.88 249.6   47 211 138   7
   2024 03 08 02:40  11 55 27.07    +02 44 57.5   0.0104 1.0029 169.6     20?   0.84 248.2   46 215 138   7
   2024 03 08 02:50  11 55 26.57    +02 44 54.4   0.0104 1.0029 169.6     20?   0.79 246.5   45 218 138   7
   2024 03 08 03:00  11 55 26.10    +02 44 51.2   0.0104 1.0029 169.6     20?   0.74 244.4   43 221 138   7
   2024 03 08 03:10  11 55 25.68    +02 44 48.0   0.0104 1.0029 169.6     20?   0.69 241.9   42 224 138   7
   2024 03 08 03:20  11 55 25.29    +02 44 44.7   0.0104 1.0029 169.6     20?   0.63 238.7   41 227 138   7
   2024 03 08 03:30  11 55 24.95    +02 44 41.4   0.0104 1.0029 169.6     20?   0.58 234.7   39 229 138   7
   2024 03 08 03:40  11 55 24.66    +02 44 38.1   0.0104 1.0029 169.6     20?   0.52 229.7   38 232 138   7
   2024 03 08 03:50  11 55 24.42    +02 44 34.7   0.0104 1.0029 169.6     20?   0.47 223.1   36 235 139   7
   2024 03 08 04:00  11 55 24.24    +02 44 31.2   0.0104 1.0029 169.6     20?   0.42 214.4   35 237 139   7
   2024 03 08 04:10  11 55 24.11    +02 44 27.7   0.0104 1.0029 169.6     20?   0.38 203.3   33 239 139   7
   2024 03 08 04:20  11 55 24.03    +02 44 24.2   0.0104 1.0029 169.6     20?   0.36 189.8   31 242 139   7
   2024 03 08 04:30  11 55 24.02    +02 44 20.7   0.0104 1.0029 169.6     20?   0.36 174.8   30 244 139   7
   2024 03 08 04:40  11 55 24.08    +02 44 17.1   0.0104 1.0029 169.6     20?   0.38 160.2   28 246 139   7
   2024 03 08 04:50  11 55 24.20    +02 44 13.5   0.0104 1.0029 169.7     20?   0.43 147.7   26 248 139   7
   2024 03 08 05:00  11 55 24.38    +02 44 09.8   0.0104 1.0029 169.7     20?   0.49 137.7   25 250 139   6
   2024 03 08 05:10  11 55 24.64    +02 44 06.1   0.0104 1.0029 169.7 A   20?   0.57 130.0   23 252 139   6
   2024 03 08 05:20  11 55 24.97    +02 44 02.4   0.0104 1.0029 169.7 A   20?   0.66 124.1   21 254 139   6
   2024 03 08 05:30  11 55 25.37    +02 43 58.7   0.0104 1.0029 169.7 A   20?   0.76 119.6   19 255 140   6
   2024 03 08 05:40  11 55 25.85    +02 43 55.0   0.0104 1.0029 169.7 N   20?   0.86 115.9   17 257 140   6
   2024 03 08 05:50  11 55 26.40    +02 43 51.2   0.0104 1.0029 169.7 Nm  20?   0.96 113.0   15 259 140   6
   2024 03 08 06:00  11 55 27.03    +02 43 47.4   0.0104 1.0029 169.7 Nm  20?   1.07 110.7   14 261 140   6
   2024 03 08 06:10  11 55 27.74    +02 43 43.7   0.0104 1.0029 169.7 Cm  20?   1.18 108.7   12 262 140   6
   2024 03 08 06:20  11 55 28.52    +02 43 39.9   0.0104 1.0029 169.7 Cm  20?   1.29 107.0   10 264 140   6
   2024 03 08 06:30  11 55 29.39    +02 43 36.0   0.0104 1.0029 169.7 Cm  20?   1.41 105.6    8 266 140   6
   ................
   2024 03 08 19:00  11 58 23.06    +02 40 20.9   0.0104 1.0031 169.5 N   20?   1.84  94.0    0  87 146   4
   2024 03 08 19:10  11 58 24.24    +02 40 19.6   0.0104 1.0031 169.5 N   20?   1.72  94.2    2  88 146   4
   2024 03 08 19:20  11 58 25.35    +02 40 18.3   0.0104 1.0031 169.5 A   20?   1.60  94.6    4  90 146   4
   2024 03 08 19:30  11 58 26.37    +02 40 17.1   0.0104 1.0031 169.5 A   20?   1.48  95.0    6  91 146   4
   2024 03 08 19:40  11 58 27.31    +02 40 15.8   0.0104 1.0031 169.5 A   20?   1.36  95.4    8  93 146   4
   2024 03 08 19:50  11 58 28.17    +02 40 14.5   0.0104 1.0031 169.5     20?   1.24  96.0    9  95 147   4
   2024 03 08 20:00  11 58 28.95    +02 40 13.2   0.0104 1.0031 169.5     20?   1.12  96.7   11  96 147   3
   2024 03 08 20:10  11 58 29.65    +02 40 11.9   0.0104 1.0031 169.5     20?   1.00  97.6   13  98 147   3
   2024 03 08 20:20  11 58 30.28    +02 40 10.6   0.0104 1.0031 169.5     20?   0.88  98.7   15 100 147   3
   2024 03 08 20:30  11 58 30.82    +02 40 09.2   0.0104 1.0031 169.5     20?   0.77 100.0   17 102 147   3
   2024 03 08 20:40  11 58 31.29    +02 40 07.8   0.0104 1.0031 169.5     20?   0.66 101.9   19 103 147   3
   2024 03 08 20:50  11 58 31.68    +02 40 06.5   0.0104 1.0031 169.5     20?   0.55 104.6   21 105 147   3
   2024 03 08 21:00  11 58 32.00    +02 40 05.1   0.0104 1.0031 169.5     20?   0.45 108.4   22 107 148   3
   2024 03 08 21:10  11 58 32.25    +02 40 03.6   0.0104 1.0031 169.5     20?   0.35 114.3   24 109 148   3
   2024 03 08 21:20  11 58 32.43    +02 40 02.2   0.0104 1.0031 169.5     20?   0.26 124.4   26 111 148   3
   2024 03 08 21:30  11 58 32.54    +02 40 00.7   0.0104 1.0031 169.5     20?   0.19 142.7   28 113 148   3
   2024 03 08 21:40  11 58 32.58    +02 39 59.2   0.0104 1.0031 169.6     20?   0.15 173.8   29 115 148   3
   2024 03 08 21:50  11 58 32.56    +02 39 57.6   0.0104 1.0031 169.6     20?   0.18 206.3   31 117 148   3
   2024 03 08 22:00  11 58 32.48    +02 39 56.0   0.0104 1.0031 169.6     20?   0.23 226.4   33 119 148   3
   2024 03 08 22:10  11 58 32.34    +02 39 54.4   0.0104 1.0031 169.6     20?   0.30 237.3   34 122 148   3
   2024 03 08 22:20  11 58 32.14    +02 39 52.7   0.0104 1.0031 169.6     20?   0.38 243.6   36 124 149   3
   2024 03 08 22:30  11 58 31.88    +02 39 51.0   0.0104 1.0031 169.6     20?   0.45 247.6   38 127 149   3
   2024 03 08 22:40  11 58 31.58    +02 39 49.3   0.0104 1.0031 169.6     20?   0.52 250.3   39 129 149   3
   2024 03 08 22:50  11 58 31.23    +02 39 47.5   0.0104 1.0031 169.6     20?   0.59 252.2   40 132 149   3
   2024 03 08 23:00  11 58 30.83    +02 39 45.7   0.0104 1.0031 169.6     20?   0.66 253.6   42 135 149   3
   2024 03 08 23:10  11 58 30.38    +02 39 43.8   0.0104 1.0031 169.6     20?   0.72 254.6   43 138 149   3
   2024 03 08 23:20  11 58 29.90    +02 39 41.9   0.0104 1.0031 169.6     20?   0.78 255.4   44 141 149   3
   2024 03 08 23:30  11 58 29.38    +02 39 39.9   0.0104 1.0031 169.6     20?   0.83 256.0   46 144 150   3
   2024 03 08 23:40  11 58 28.83    +02 39 37.9   0.0104 1.0031 169.7     20?   0.87 256.4   47 147 150   3
   2024 03 08 23:50  11 58 28.25    +02 39 35.8   0.0104 1.0031 169.7     20?   0.92 256.7   48 151 150   3
   2024 03 09 00:00  11 58 27.64    +02 39 33.7   0.0104 1.0032 169.7     20?   0.95 256.9   48 154 150   3
   2024 03 09 00:10  11 58 27.01    +02 39 31.5   0.0104 1.0032 169.7     20?   0.99 257.1   49 158 150   3
   2024 03 09 00:20  11 58 26.36    +02 39 29.3   0.0104 1.0032 169.7     20?   1.01 257.1   50 162 150   2
   2024 03 09 00:30  11 58 25.69    +02 39 27.0   0.0104 1.0032 169.7     20?   1.04 257.1   50 165 150   2
   2024 03 09 00:40  11 58 25.01    +02 39 24.6   0.0104 1.0032 169.7     20?   1.05 257.0   51 169 150   2
   2024 03 09 00:50  11 58 24.32    +02 39 22.3   0.0104 1.0032 169.7     20?   1.07 256.9   51 173 151   2
   2024 03 09 01:00  11 58 23.62    +02 39 19.8   0.0104 1.0032 169.7     20?   1.07 256.7   51 177 151   2
   2024 03 09 01:10  11 58 22.93    +02 39 17.3   0.0104 1.0032 169.7  t  20?   1.07 256.4   51 181 151   2
   2024 03 09 01:20  11 58 22.23    +02 39 14.8   0.0104 1.0032 169.7     20?   1.07 256.1   51 186 151   2
   2024 03 09 01:30  11 58 21.54    +02 39 12.2   0.0104 1.0032 169.8     20?   1.06 255.6   51 189 151   2
   2024 03 09 01:40  11 58 20.86    +02 39 09.5   0.0104 1.0032 169.8     20?   1.05 255.2   50 193 151   2
   2024 03 09 01:50  11 58 20.19    +02 39 06.8   0.0104 1.0032 169.8     20?   1.03 254.6   50 197 151   2
   2024 03 09 02:00  11 58 19.53    +02 39 04.1   0.0104 1.0032 169.8     20?   1.00 253.9   49 201 151   2
   2024 03 09 02:10  11 58 18.90    +02 39 01.3   0.0104 1.0032 169.8     20?   0.98 253.1   48 205 152   2
   2024 03 09 02:20  11 58 18.29    +02 38 58.4   0.0104 1.0032 169.8     20?   0.94 252.1   48 208 152   2
   2024 03 09 02:30  11 58 17.70    +02 38 55.5   0.0104 1.0032 169.8     20?   0.90 251.0   47 212 152   2
   2024 03 09 02:40  11 58 17.15    +02 38 52.6   0.0104 1.0032 169.8     20?   0.86 249.7   46 215 152   2
   2024 03 09 02:50  11 58 16.63    +02 38 49.6   0.0104 1.0032 169.8     20?   0.81 248.1   44 218 152   2
   2024 03 09 03:00  11 58 16.14    +02 38 46.5   0.0104 1.0032 169.8     20?   0.76 246.2   43 221 152   2
   2024 03 09 03:10  11 58 15.69    +02 38 43.4   0.0104 1.0032 169.8     20?   0.71 243.9   42 224 152   2
   2024 03 09 03:20  11 58 15.29    +02 38 40.3   0.0104 1.0032 169.9     20?   0.65 241.0   40 227 152   2
   2024 03 09 03:30  11 58 14.93    +02 38 37.1   0.0104 1.0032 169.9     20?   0.60 237.4   39 230 153   2
   2024 03 09 03:40  11 58 14.62    +02 38 33.9   0.0104 1.0032 169.9     20?   0.54 232.7   38 232 153   2
   2024 03 09 03:50  11 58 14.36    +02 38 30.6   0.0104 1.0032 169.9     20?   0.48 226.6   36 235 153   2
   2024 03 09 04:00  11 58 14.16    +02 38 27.3   0.0104 1.0032 169.9     20?   0.43 218.6   34 237 153   2
   2024 03 09 04:10  11 58 14.01    +02 38 23.9   0.0104 1.0032 169.9     20?   0.38 208.0   33 239 153   2
   2024 03 09 04:20  11 58 13.92    +02 38 20.6   0.0104 1.0032 169.9     20?   0.35 194.6   31 242 153   2
   2024 03 09 04:30  11 58 13.89    +02 38 17.1   0.0104 1.0032 169.9     20?   0.34 179.1   29 244 153   2
   2024 03 09 04:40  11 58 13.93    +02 38 13.7   0.0104 1.0032 169.9     20?   0.36 163.5   28 246 153   2
   2024 03 09 04:50  11 58 14.03    +02 38 10.2   0.0104 1.0032 169.9     20?   0.40 149.8   26 248 153   2
   2024 03 09 05:00  11 58 14.20    +02 38 06.7   0.0104 1.0032 169.9     20?   0.47 138.9   24 250 154   2
   2024 03 09 05:10  11 58 14.44    +02 38 03.2   0.0104 1.0032 169.9 A   20?   0.54 130.6   22 252 154   2
   2024 03 09 05:20  11 58 14.75    +02 37 59.6   0.0104 1.0032 169.9 A   20?   0.63 124.4   21 254 154   2
   2024 03 09 05:30  11 58 15.13    +02 37 56.1   0.0104 1.0032 169.9 A   20?   0.73 119.5   19 255 154   2
   2024 03 09 05:40  11 58 15.59    +02 37 52.5   0.0104 1.0032 169.9 N   20?   0.83 115.8   17 257 154   2
   2024 03 09 05:50  11 58 16.12    +02 37 48.9   0.0104 1.0032 169.9 N   20?   0.93 112.8   15 259 154   2
   2024 03 09 06:00  11 58 16.74    +02 37 45.2   0.0104 1.0032 170.0 N   20?   1.04 110.4   13 261 154   1
   2024 03 09 06:10  11 58 17.43    +02 37 41.6   0.0104 1.0032 170.0 C   20?   1.15 108.4   11 262 154   1
   2024 03 09 06:20  11 58 18.20    +02 37 37.9   0.0104 1.0032 170.0 Cm  20?   1.27 106.7    9 264 154   1
   ................
   2024 03 09 19:00  12 01 10.69    +02 34 26.5   0.0104 1.0034 169.8 N   20?   1.79  94.0    0  87 160   0
   2024 03 09 19:10  12 01 11.84    +02 34 25.3   0.0104 1.0034 169.8 N   20?   1.67  94.3    2  88 161   0
   2024 03 09 19:20  12 01 12.91    +02 34 24.1   0.0104 1.0034 169.8 A   20?   1.55  94.6    4  90 161   0
   2024 03 09 19:30  12 01 13.90    +02 34 22.8   0.0104 1.0034 169.8 A   20?   1.43  95.0    6  92 161   0
   2024 03 09 19:40  12 01 14.81    +02 34 21.6   0.0104 1.0034 169.8 A   20?   1.31  95.5    8  93 161   0
   2024 03 09 19:50  12 01 15.64    +02 34 20.3   0.0104 1.0034 169.8     20?   1.19  96.1   10  95 161   0
   2024 03 09 20:00  12 01 16.39    +02 34 19.0   0.0104 1.0034 169.8     20?   1.07  96.8   11  97 161   0
   2024 03 09 20:10  12 01 17.05    +02 34 17.8   0.0104 1.0034 169.8     20?   0.95  97.8   13  98 161   0
   2024 03 09 20:20  12 01 17.64    +02 34 16.5   0.0104 1.0034 169.8     20?   0.84  98.9   15 100 161   0
   2024 03 09 20:30  12 01 18.16    +02 34 15.2   0.0104 1.0034 169.8     20?   0.72 100.4   17 102 161   0
   2024 03 09 20:40  12 01 18.59    +02 34 13.8   0.0104 1.0034 169.8     20?   0.61 102.6   19 104 162   0
   2024 03 09 20:50  12 01 18.95    +02 34 12.5   0.0104 1.0034 169.8     20?   0.51 105.5   21 106 162   0
   2024 03 09 21:00  12 01 19.24    +02 34 11.1   0.0104 1.0034 169.8     20?   0.40 110.0   23 107 162   0
   2024 03 09 21:10  12 01 19.46    +02 34 09.7   0.0104 1.0034 169.8     20?   0.31 117.3   24 109 162   0
   2024 03 09 21:20  12 01 19.61    +02 34 08.3   0.0104 1.0034 169.8     20?   0.22 130.3   26 111 162   0
   2024 03 09 21:30  12 01 19.69    +02 34 06.9   0.0104 1.0034 169.8     20?   0.16 154.8   28 113 162   0
   2024 03 09 21:40  12 01 19.70    +02 34 05.4   0.0104 1.0034 169.8     20?   0.15 190.7   30 115 162   0
   2024 03 09 21:50  12 01 19.65    +02 34 03.9   0.0104 1.0034 169.8     20?   0.20 218.6   31 118 163   0
   2024 03 09 22:00  12 01 19.54    +02 34 02.3   0.0104 1.0034 169.8     20?   0.26 233.6   33 120 163   0
   2024 03 09 22:10  12 01 19.37    +02 34 00.7   0.0104 1.0034 169.8     20?   0.34 241.8   35 122 163   0
   2024 03 09 22:20  12 01 19.14    +02 33 59.1   0.0104 1.0034 169.9     20?   0.42 246.7   36 125 163   0
   2024 03 09 22:30  12 01 18.86    +02 33 57.4   0.0104 1.0034 169.9     20?   0.49 249.9   38 127 163   0
   2024 03 09 22:40  12 01 18.52    +02 33 55.7   0.0104 1.0034 169.9     20?   0.56 252.1   39 130 163   0
   2024 03 09 22:50  12 01 18.14    +02 33 54.0   0.0104 1.0034 169.9     20?   0.63 253.7   41 132 163   0
   2024 03 09 23:00  12 01 17.72    +02 33 52.2   0.0104 1.0034 169.9     20?   0.70 254.9   42 135 163   0
   2024 03 09 23:10  12 01 17.25    +02 33 50.4   0.0104 1.0034 169.9     20?   0.76 255.8   43 138 164   0
   2024 03 09 23:20  12 01 16.74    +02 33 48.5   0.0104 1.0034 169.9     20?   0.81 256.4   44 141 164   0
   2024 03 09 23:30  12 01 16.20    +02 33 46.6   0.0104 1.0034 169.9     20?   0.86 256.9   46 144 164   0
   2024 03 09 23:40  12 01 15.62    +02 33 44.6   0.0104 1.0034 169.9     20?   0.91 257.3   47 148 164   0
   2024 03 09 23:50  12 01 15.01    +02 33 42.6   0.0104 1.0034 169.9     20?   0.95 257.6   48 151 164   0
   2024 03 10 00:00  12 01 14.38    +02 33 40.5   0.0104 1.0034 169.9     20?   0.99 257.7   48 155 164   0
   2024 03 10 00:10  12 01 13.72    +02 33 38.4   0.0104 1.0034 169.9     20?   1.02 257.8   49 158 164   0
   2024 03 10 00:20  12 01 13.05    +02 33 36.2   0.0104 1.0034 170.0     20?   1.05 257.9   50 162 165   0
   2024 03 10 00:30  12 01 12.36    +02 33 34.0   0.0104 1.0034 170.0     20?   1.07 257.8   50 166 165   0
   2024 03 10 00:40  12 01 11.65    +02 33 31.8   0.0104 1.0034 170.0     20?   1.09 257.8   51 170 165   0
   2024 03 10 00:50  12 01 10.94    +02 33 29.4   0.0104 1.0034 170.0     20?   1.10 257.6   51 174 165   0
   2024 03 10 01:00  12 01 10.23    +02 33 27.1   0.0104 1.0034 170.0     20?   1.10 257.4   51 178 165   0
   2024 03 10 01:10  12 01 09.51    +02 33 24.7   0.0104 1.0035 170.0  t  20?   1.10 257.1   51 182 165   0
   2024 03 10 01:20  12 01 08.79    +02 33 22.2   0.0104 1.0035 170.0     20?   1.10 256.8   51 186 165   0
   2024 03 10 01:30  12 01 08.08    +02 33 19.7   0.0104 1.0035 170.0     20?   1.09 256.4   51 190 165   0
   2024 03 10 01:40  12 01 07.38    +02 33 17.1   0.0104 1.0035 170.0     20?   1.07 255.9   50 194 166   0
   2024 03 10 01:50  12 01 06.69    +02 33 14.5   0.0104 1.0035 170.0     20?   1.05 255.4   50 198 166   0
   2024 03 10 02:00  12 01 06.02    +02 33 11.8   0.0104 1.0035 170.1     20?   1.03 254.8   49 201 166   0
   2024 03 10 02:10  12 01 05.37    +02 33 09.1   0.0104 1.0035 170.1     20?   1.00 254.0   48 205 166   0
   2024 03 10 02:20  12 01 04.74    +02 33 06.3   0.0104 1.0035 170.1     20?   0.97 253.1   47 209 166   0
   2024 03 10 02:30  12 01 04.13    +02 33 03.5   0.0104 1.0035 170.1     20?   0.93 252.1   46 212 166   0
   2024 03 10 02:40  12 01 03.56    +02 33 00.6   0.0104 1.0035 170.1     20?   0.88 250.8   45 215 166   0
   2024 03 10 02:50  12 01 03.02    +02 32 57.7   0.0104 1.0035 170.1     20?   0.83 249.4   44 218 167   0
   2024 03 10 03:00  12 01 02.52    +02 32 54.7   0.0104 1.0035 170.1     20?   0.78 247.6   43 222 167   0
   2024 03 10 03:10  12 01 02.06    +02 32 51.7   0.0104 1.0035 170.1     20?   0.73 245.4   42 224 167   0
   2024 03 10 03:20  12 01 01.64    +02 32 48.7   0.0104 1.0035 170.1     20?   0.67 242.7   40 227 167   0
   2024 03 10 03:30  12 01 01.26    +02 32 45.6   0.0104 1.0035 170.1     20?   0.61 239.3   39 230 167   0
   2024 03 10 03:40  12 01 00.94    +02 32 42.5   0.0104 1.0035 170.1     20?   0.55 235.0   37 233 167   0
   2024 03 10 03:50  12 01 00.66    +02 32 39.3   0.0104 1.0035 170.1     20?   0.49 229.3   36 235 167   0
   2024 03 10 04:00  12 01 00.44    +02 32 36.1   0.0104 1.0035 170.2     20?   0.43 221.7   34 237 167   0
   2024 03 10 04:10  12 01 00.28    +02 32 32.8   0.0104 1.0035 170.2     20?   0.38 211.6   33 240 168   0
   2024 03 10 04:20  12 01 00.18    +02 32 29.6   0.0104 1.0035 170.2     20?   0.35 198.4   31 242 168   0
   2024 03 10 04:30  12 01 00.13    +02 32 26.3   0.0104 1.0035 170.2     20?   0.33 182.7   29 244 168   0
   2024 03 10 04:40  12 01 00.16    +02 32 22.9   0.0104 1.0035 170.2     20?   0.35 166.3   27 246 168   0
   2024 03 10 04:50  12 01 00.24    +02 32 19.6   0.0104 1.0035 170.2     20?   0.38 151.6   26 248 168   0
   2024 03 10 05:00  12 01 00.40    +02 32 16.2   0.0104 1.0035 170.2     20?   0.44 140.0   24 250 168   0
   2024 03 10 05:10  12 01 00.62    +02 32 12.7   0.0104 1.0035 170.2 A   20?   0.52 131.2   22 252 168   0
   2024 03 10 05:20  12 01 00.92    +02 32 09.3   0.0104 1.0035 170.2 A   20?   0.61 124.6   20 254 168   0
   2024 03 10 05:30  12 01 01.29    +02 32 05.8   0.0104 1.0035 170.2 A   20?   0.70 119.5   19 256 168   0
   2024 03 10 05:40  12 01 01.74    +02 32 02.4   0.0104 1.0035 170.2 N   20?   0.80 115.7   17 257 169   0
   2024 03 10 05:50  12 01 02.26    +02 31 58.9   0.0104 1.0035 170.2 N   20?   0.91 112.6   15 259 169   0
   2024 03 10 06:00  12 01 02.86    +02 31 55.3   0.0104 1.0035 170.2 N   20?   1.02 110.2   13 261 169   0
   2024 03 10 06:10  12 01 03.54    +02 31 51.8   0.0104 1.0035 170.2 C   20?   1.13 108.2   11 263 169   0
   2024 03 10 06:20  12 01 04.29    +02 31 48.3   0.0104 1.0035 170.2 C   20?   1.24 106.5    9 264 169   0
   ................
   2024 03 10 19:00  12 03 55.02    +02 28 41.7   0.0104 1.0037 170.0 N   20?   1.74  94.1    0  87 175   0
   2024 03 10 19:10  12 03 56.15    +02 28 40.5   0.0104 1.0037 170.0 N   20?   1.62  94.4    2  89 175   0
   2024 03 10 19:20  12 03 57.18    +02 28 39.2   0.0104 1.0037 170.0 A   20?   1.50  94.7    4  90 175   0
   2024 03 10 19:30  12 03 58.14    +02 28 38.0   0.0104 1.0037 170.0 A   20?   1.38  95.2    6  92 175   0
   2024 03 10 19:40  12 03 59.02    +02 28 36.7   0.0104 1.0037 170.0 A   20?   1.26  95.7    8  94 175   0
   2024 03 10 19:50  12 03 59.82    +02 28 35.5   0.0104 1.0037 170.0     20?   1.14  96.3   10  95 175   0
   2024 03 10 20:00  12 04 00.54    +02 28 34.2   0.0104 1.0037 170.0     20?   1.02  97.1   12  97 176   0
   2024 03 10 20:10  12 04 01.17    +02 28 32.9   0.0104 1.0037 170.0     20?   0.91  98.1   14  99 176   0
   2024 03 10 20:20  12 04 01.74    +02 28 31.7   0.0104 1.0037 170.1     20?   0.79  99.4   15 100 176   0
   2024 03 10 20:30  12 04 02.22    +02 28 30.3   0.0104 1.0037 170.1     20?   0.68 101.1   17 102 176   0
   2024 03 10 20:40  12 04 02.63    +02 28 29.0   0.0104 1.0037 170.1     20?   0.57 103.5   19 104 176   0
   2024 03 10 20:50  12 04 02.96    +02 28 27.7   0.0104 1.0037 170.1     20?   0.47 106.9   21 106 176   0
   2024 03 10 21:00  12 04 03.22    +02 28 26.3   0.0104 1.0037 170.1     20?   0.36 112.3   23 108 176   0
   2024 03 10 21:10  12 04 03.41    +02 28 24.9   0.0104 1.0037 170.1     20?   0.27 121.3   25 110 176   0
   2024 03 10 21:20  12 04 03.53    +02 28 23.5   0.0104 1.0037 170.1     20?   0.19 138.1   26 112 176   0
   2024 03 10 21:30  12 04 03.58    +02 28 22.0   0.0104 1.0037 170.1     20?   0.15 168.8   28 114 177   0
   2024 03 10 21:40  12 04 03.57    +02 28 20.5   0.0104 1.0037 170.1     20?   0.16 204.4   30 116 177   0
   2024 03 10 21:50  12 04 03.49    +02 28 19.0   0.0104 1.0037 170.1     20?   0.22 226.5   31 118 177   0
   2024 03 10 22:00  12 04 03.36    +02 28 17.5   0.0104 1.0037 170.1     20?   0.30 238.0   33 120 177   0
   2024 03 10 22:10  12 04 03.16    +02 28 15.9   0.0104 1.0037 170.1     20?   0.37 244.6   35 122 177   0
   2024 03 10 22:20  12 04 02.91    +02 28 14.3   0.0104 1.0037 170.1     20?   0.45 248.6   36 125 177   0
   2024 03 10 22:30  12 04 02.60    +02 28 12.6   0.0104 1.0037 170.1     20?   0.52 251.4   38 127 177   0
   2024 03 10 22:40  12 04 02.24    +02 28 10.9   0.0104 1.0037 170.1     20?   0.60 253.3   39 130 177   0
   2024 03 10 22:50  12 04 01.84    +02 28 09.2   0.0104 1.0037 170.2     20?   0.66 254.6   41 133 178   0
   2024 03 10 23:00  12 04 01.39    +02 28 07.4   0.0104 1.0037 170.2     20?   0.73 255.7   42 136 178   0
   2024 03 10 23:10  12 04 00.90    +02 28 05.6   0.0104 1.0037 170.2     20?   0.79 256.5   43 139 178   0
   2024 03 10 23:20  12 04 00.37    +02 28 03.8   0.0104 1.0037 170.2     20?   0.84 257.0   44 142 178   0
   2024 03 10 23:30  12 03 59.80    +02 28 01.9   0.0104 1.0037 170.2     20?   0.89 257.5   46 145 178   0
   2024 03 10 23:40  12 03 59.20    +02 27 59.9   0.0104 1.0037 170.2     20?   0.94 257.8   47 148 178   0
   2024 03 10 23:50  12 03 58.58    +02 27 57.9   0.0104 1.0037 170.2     20?   0.98 258.1   48 152 178   0
   2024 03 11 00:00  12 03 57.92    +02 27 55.9   0.0104 1.0037 170.2     20?   1.02 258.2   48 155 178   0
   2024 03 11 00:10  12 03 57.25    +02 27 53.8   0.0104 1.0037 170.2     20?   1.05 258.3   49 159 179   0
   2024 03 11 00:20  12 03 56.55    +02 27 51.6   0.0104 1.0037 170.2     20?   1.07 258.3   50 163 179   0
   2024 03 11 00:30  12 03 55.85    +02 27 49.4   0.0104 1.0037 170.2     20?   1.10 258.3   50 166 179   0
   2024 03 11 00:40  12 03 55.12    +02 27 47.2   0.0104 1.0037 170.3     20?   1.11 258.2   51 170 179   0
   2024 03 11 00:50  12 03 54.39    +02 27 44.9   0.0104 1.0037 170.3     20?   1.12 258.0   51 174 179   0
   2024 03 11 01:00  12 03 53.66    +02 27 42.6   0.0104 1.0037 170.3     20?   1.13 257.8   51 178 179   0
   2024 03 11 01:10  12 03 52.93    +02 27 40.2   0.0104 1.0037 170.3  t  20?   1.13 257.6   51 182 179   0
   2024 03 11 01:20  12 03 52.19    +02 27 37.7   0.0104 1.0037 170.3     20?   1.12 257.3   51 186 179   0
   2024 03 11 01:30  12 03 51.47    +02 27 35.3   0.0104 1.0037 170.3     20?   1.11 256.9   50 190 179   0
   2024 03 11 01:40  12 03 50.75    +02 27 32.7   0.0104 1.0037 170.3     20?   1.10 256.4   50 194 179   0
   2024 03 11 01:50  12 03 50.05    +02 27 30.1   0.0104 1.0037 170.3     20?   1.07 255.9   49 198 179   0
   2024 03 11 02:00  12 03 49.36    +02 27 27.5   0.0104 1.0038 170.3     20?   1.05 255.3   49 202 179   0
   2024 03 11 02:10  12 03 48.69    +02 27 24.8   0.0104 1.0038 170.3     20?   1.02 254.6   48 205 178   0
   2024 03 11 02:20  12 03 48.05    +02 27 22.1   0.0104 1.0038 170.4     20?   0.98 253.7   47 209 178   0
   2024 03 11 02:30  12 03 47.43    +02 27 19.3   0.0104 1.0038 170.4     20?   0.94 252.7   46 212 178   0
   2024 03 11 02:40  12 03 46.85    +02 27 16.5   0.0104 1.0038 170.4     20?   0.90 251.5   45 216 178   0
   2024 03 11 02:50  12 03 46.30    +02 27 13.6   0.0104 1.0038 170.4     20?   0.85 250.1   44 219 178   0
   2024 03 11 03:00  12 03 45.78    +02 27 10.7   0.0104 1.0038 170.4     20?   0.80 248.4   43 222 178   0
   2024 03 11 03:10  12 03 45.31    +02 27 07.8   0.0104 1.0038 170.4     20?   0.74 246.4   41 225 178   0
   2024 03 11 03:20  12 03 44.87    +02 27 04.8   0.0104 1.0038 170.4     20?   0.68 243.8   40 228 178   0
   2024 03 11 03:30  12 03 44.49    +02 27 01.8   0.0104 1.0038 170.4     20?   0.62 240.6   39 230 178   0
   2024 03 11 03:40  12 03 44.15    +02 26 58.7   0.0104 1.0038 170.4     20?   0.56 236.4   37 233 177   0
   2024 03 11 03:50  12 03 43.87    +02 26 55.6   0.0104 1.0038 170.4     20?   0.50 231.0   36 235 177   1
   2024 03 11 04:00  12 03 43.64    +02 26 52.4   0.0104 1.0038 170.4     20?   0.44 223.8   34 238 177   1
   2024 03 11 04:10  12 03 43.46    +02 26 49.3   0.0104 1.0038 170.4     20?   0.39 214.0   32 240 177   1
   2024 03 11 04:20  12 03 43.35    +02 26 46.1   0.0104 1.0038 170.4     20?   0.35 201.1   31 242 177   1
   2024 03 11 04:30  12 03 43.30    +02 26 42.8   0.0104 1.0038 170.5     20?   0.33 185.2   29 244 177   1
   2024 03 11 04:40  12 03 43.31    +02 26 39.6   0.0104 1.0038 170.5     20?   0.34 168.3   27 246 177   1
   2024 03 11 04:50  12 03 43.39    +02 26 36.3   0.0104 1.0038 170.5     20?   0.37 153.0   25 248 177   1
   2024 03 11 05:00  12 03 43.54    +02 26 32.9   0.0104 1.0038 170.5     20?   0.43 140.8   24 250 176   1
   2024 03 11 05:10  12 03 43.75    +02 26 29.6   0.0104 1.0038 170.5 A   20?   0.51 131.5   22 252 176   1
   2024 03 11 05:20  12 03 44.04    +02 26 26.2   0.0104 1.0038 170.5 A   20?   0.59 124.7   20 254 176   1
   2024 03 11 05:30  12 03 44.40    +02 26 22.8   0.0104 1.0038 170.5 A   20?   0.69 119.6   18 256 176   1
   2024 03 11 05:40  12 03 44.84    +02 26 19.4   0.0104 1.0038 170.5 N   20?   0.79 115.6   16 258 176   1
   2024 03 11 05:50  12 03 45.35    +02 26 16.0   0.0104 1.0038 170.5 N   20?   0.89 112.5   15 259 176   1
   2024 03 11 06:00  12 03 45.94    +02 26 12.6   0.0104 1.0038 170.5 N   20?   1.00 110.0   13 261 176   1
   2024 03 11 06:10  12 03 46.61    +02 26 09.1   0.0104 1.0038 170.5 C   20?   1.12 108.0   11 263 176   1
   2024 03 11 06:20  12 03 47.36    +02 26 05.6   0.0105 1.0038 170.5 C   20?   1.23 106.3    9 264 176   1
   ................
   2024 03 11 19:00  12 06 36.62    +02 23 01.0   0.0105 1.0040 170.3 Nm  20?   1.70  94.3    0  87 169   2
   2024 03 11 19:10  12 06 37.72    +02 22 59.8   0.0105 1.0040 170.3 Nm  20?   1.58  94.6    2  89 169   2
   2024 03 11 19:20  12 06 38.73    +02 22 58.5   0.0105 1.0040 170.3 Am  20?   1.46  95.0    4  91 169   2
   2024 03 11 19:30  12 06 39.66    +02 22 57.2   0.0105 1.0040 170.3 Am  20?   1.34  95.5    6  92 169   2
   2024 03 11 19:40  12 06 40.51    +02 22 55.9   0.0105 1.0040 170.3 Am  20?   1.22  96.1    8  94 169   2
   2024 03 11 19:50  12 06 41.28    +02 22 54.6   0.0105 1.0040 170.3  m  20?   1.10  96.8   10  96 169   2
   2024 03 11 20:00  12 06 41.97    +02 22 53.3   0.0105 1.0040 170.3  m  20?   0.99  97.6   12  97 169   2
   2024 03 11 20:10  12 06 42.59    +02 22 52.0   0.0105 1.0040 170.3     20?   0.87  98.8   14  99 169   2
   2024 03 11 20:20  12 06 43.12    +02 22 50.6   0.0105 1.0040 170.3     20?   0.76 100.2   16 101 169   3
   2024 03 11 20:30  12 06 43.58    +02 22 49.3   0.0105 1.0040 170.3     20?   0.64 102.1   17 103 169   3
   2024 03 11 20:40  12 06 43.96    +02 22 47.9   0.0105 1.0040 170.3     20?   0.54 104.8   19 104 168   3
   2024 03 11 20:50  12 06 44.27    +02 22 46.5   0.0105 1.0040 170.3     20?   0.43 108.8   21 106 168   3
   2024 03 11 21:00  12 06 44.51    +02 22 45.1   0.0105 1.0040 170.4     20?   0.33 115.2   23 108 168   3
   2024 03 11 21:10  12 06 44.68    +02 22 43.7   0.0105 1.0040 170.4     20?   0.24 126.4   25 110 168   3
   2024 03 11 21:20  12 06 44.77    +02 22 42.2   0.0105 1.0040 170.4     20?   0.17 147.4   26 112 168   3
   2024 03 11 21:30  12 06 44.80    +02 22 40.8   0.0104 1.0040 170.4     20?   0.15 182.0   28 114 168   3
   2024 03 11 21:40  12 06 44.77    +02 22 39.2   0.0104 1.0040 170.4     20?   0.18 213.5   30 116 168   3
   2024 03 11 21:50  12 06 44.67    +02 22 37.7   0.0104 1.0040 170.4     20?   0.25 231.1   32 118 168   3
   2024 03 11 22:00  12 06 44.51    +02 22 36.1   0.0104 1.0040 170.4     20?   0.32 240.6   33 121 167   3
   2024 03 11 22:10  12 06 44.29    +02 22 34.5   0.0104 1.0040 170.4     20?   0.40 246.1   35 123 167   3
   2024 03 11 22:20  12 06 44.02    +02 22 32.9   0.0104 1.0040 170.4     20?   0.48 249.6   36 125 167   3
   2024 03 11 22:30  12 06 43.69    +02 22 31.2   0.0104 1.0040 170.4     20?   0.55 252.1   38 128 167   3
   2024 03 11 22:40  12 06 43.31    +02 22 29.5   0.0104 1.0040 170.4     20?   0.63 253.8   39 130 167   3
   2024 03 11 22:50  12 06 42.89    +02 22 27.7   0.0104 1.0040 170.4     20?   0.69 255.1   41 133 167   3
   2024 03 11 23:00  12 06 42.42    +02 22 25.9   0.0104 1.0040 170.4     20?   0.76 256.0   42 136 167   3
   2024 03 11 23:10  12 06 41.91    +02 22 24.0   0.0104 1.0040 170.5     20?   0.82 256.7   43 139 167   3
   2024 03 11 23:20  12 06 41.36    +02 22 22.2   0.0104 1.0040 170.5     20?   0.87 257.3   45 142 167   3
   2024 03 11 23:30  12 06 40.78    +02 22 20.2   0.0104 1.0040 170.5     20?   0.92 257.7   46 145 166   3
   2024 03 11 23:40  12 06 40.16    +02 22 18.3   0.0104 1.0040 170.5     20?   0.97 258.0   47 149 166   3
   2024 03 11 23:50  12 06 39.52    +02 22 16.2   0.0104 1.0040 170.5     20?   1.01 258.2   48 152 166   3
   2024 03 12 00:00  12 06 38.85    +02 22 14.2   0.0104 1.0040 170.5     20?   1.04 258.4   48 156 166   3
   2024 03 12 00:10  12 06 38.16    +02 22 12.1   0.0104 1.0040 170.5     20?   1.07 258.5   49 159 166   3
   2024 03 12 00:20  12 06 37.45    +02 22 09.9   0.0104 1.0040 170.5     20?   1.10 258.5   50 163 166   3
   2024 03 12 00:30  12 06 36.73    +02 22 07.7   0.0104 1.0040 170.5     20?   1.12 258.5   50 167 166   3
   2024 03 12 00:40  12 06 35.99    +02 22 05.5   0.0104 1.0040 170.5     20?   1.13 258.4   51 171 165   3
   2024 03 12 00:50  12 06 35.25    +02 22 03.2   0.0104 1.0040 170.5     20?   1.14 258.2   51 175 165   4
   2024 03 12 01:00  12 06 34.50    +02 22 00.8   0.0104 1.0040 170.6     20?   1.15 258.0   51 179 165   4
   2024 03 12 01:10  12 06 33.75    +02 21 58.4   0.0104 1.0040 170.6  t  20?   1.14 257.8   51 183 165   4
   2024 03 12 01:20  12 06 33.01    +02 21 56.0   0.0104 1.0040 170.6     20?   1.14 257.5   51 187 165   4
   2024 03 12 01:30  12 06 32.27    +02 21 53.5   0.0104 1.0040 170.6     20?   1.13 257.1   50 191 165   4
   2024 03 12 01:40  12 06 31.54    +02 21 51.0   0.0104 1.0040 170.6     20?   1.11 256.6   50 195 165   4
   2024 03 12 01:50  12 06 30.83    +02 21 48.4   0.0104 1.0040 170.6     20?   1.09 256.1   49 199 165   4
   2024 03 12 02:00  12 06 30.13    +02 21 45.8   0.0104 1.0040 170.6     20?   1.06 255.5   49 202 164   4
   2024 03 12 02:10  12 06 29.46    +02 21 43.1   0.0104 1.0040 170.6     20?   1.03 254.8   48 206 164   4
   2024 03 12 02:20  12 06 28.80    +02 21 40.4   0.0104 1.0040 170.6     20?   1.00 254.0   47 209 164   4
   2024 03 12 02:30  12 06 28.18    +02 21 37.6   0.0104 1.0040 170.6     20?   0.96 253.0   46 213 164   4
   2024 03 12 02:40  12 06 27.58    +02 21 34.8   0.0104 1.0040 170.6     20?   0.91 251.9   45 216 164   4
   2024 03 12 02:50  12 06 27.02    +02 21 32.0   0.0104 1.0041 170.7     20?   0.86 250.5   44 219 164   4
   2024 03 12 03:00  12 06 26.50    +02 21 29.1   0.0104 1.0041 170.7     20?   0.81 248.8   42 222 164   4
   2024 03 12 03:10  12 06 26.02    +02 21 26.1   0.0104 1.0041 170.7     20?   0.75 246.8   41 225 163   4
   2024 03 12 03:20  12 06 25.58    +02 21 23.2   0.0104 1.0041 170.7     20?   0.69 244.3   40 228 163   4
   2024 03 12 03:30  12 06 25.19    +02 21 20.2   0.0104 1.0041 170.7     20?   0.63 241.2   38 230 163   4
   2024 03 12 03:40  12 06 24.85    +02 21 17.1   0.0104 1.0041 170.7     20?   0.57 237.2   37 233 163   4
   2024 03 12 03:50  12 06 24.55    +02 21 14.0   0.0104 1.0041 170.7     20?   0.50 231.9   35 235 163   4
   2024 03 12 04:00  12 06 24.32    +02 21 10.9   0.0105 1.0041 170.7     20?   0.44 224.8   34 238 163   4
   2024 03 12 04:10  12 06 24.14    +02 21 07.8   0.0105 1.0041 170.7     20?   0.39 215.2   32 240 163   4
   2024 03 12 04:20  12 06 24.02    +02 21 04.6   0.0105 1.0041 170.7     20?   0.35 202.5   30 242 163   4
   2024 03 12 04:30  12 06 23.96    +02 21 01.4   0.0105 1.0041 170.7     20?   0.32 186.7   29 244 162   4
   2024 03 12 04:40  12 06 23.97    +02 20 58.1   0.0105 1.0041 170.7     20?   0.33 169.5   27 246 162   5
   2024 03 12 04:50  12 06 24.04    +02 20 54.9   0.0105 1.0041 170.7     20?   0.37 153.8   25 248 162   5
   2024 03 12 05:00  12 06 24.18    +02 20 51.6   0.0105 1.0041 170.8 A   20?   0.42 141.2   23 250 162   5
   2024 03 12 05:10  12 06 24.40    +02 20 48.2   0.0105 1.0041 170.8 A   20?   0.50 131.8   22 252 162   5
   2024 03 12 05:20  12 06 24.68    +02 20 44.9   0.0105 1.0041 170.8 A   20?   0.59 124.8   20 254 162   5
   2024 03 12 05:30  12 06 25.04    +02 20 41.6   0.0105 1.0041 170.8 A   20?   0.68 119.6   18 256 162   5
   2024 03 12 05:40  12 06 25.47    +02 20 38.2   0.0105 1.0041 170.8 N   20?   0.78 115.6   16 258 162   5
   2024 03 12 05:50  12 06 25.98    +02 20 34.8   0.0105 1.0041 170.8 N   20?   0.89 112.4   14 259 161   5
   2024 03 12 06:00  12 06 26.57    +02 20 31.4   0.0105 1.0041 170.8 N   20?   1.00 109.9   12 261 161   5
   2024 03 12 06:10  12 06 27.23    +02 20 28.0   0.0105 1.0041 170.8 C   20?   1.11 107.9   10 263 161   5
   2024 03 12 06:20  12 06 27.97    +02 20 24.6   0.0105 1.0041 170.8 C   20?   1.22 106.2    9 265 161   5
   ................
   2024 03 12 19:00  12 09 16.05    +02 17 19.1   0.0105 1.0042 170.6 Nm  20?   1.67  94.6    1  88 155   8
   2024 03 12 19:10  12 09 17.12    +02 17 17.7   0.0105 1.0042 170.6 Nm  20?   1.55  95.0    3  89 155   8
   2024 03 12 19:20  12 09 18.11    +02 17 16.4   0.0105 1.0043 170.6 Am  20?   1.43  95.4    4  91 155   8
   2024 03 12 19:30  12 09 19.02    +02 17 15.0   0.0105 1.0043 170.6 Am  20?   1.31  96.0    6  93 155   8
   2024 03 12 19:40  12 09 19.85    +02 17 13.7   0.0105 1.0043 170.6 Am  20?   1.19  96.6    8  94 155   8
   2024 03 12 19:50  12 09 20.60    +02 17 12.3   0.0105 1.0043 170.6  m  20?   1.07  97.4   10  96 155   8
   2024 03 12 20:00  12 09 21.27    +02 17 10.9   0.0105 1.0043 170.6  m  20?   0.95  98.3   12  98 155   8
   2024 03 12 20:10  12 09 21.86    +02 17 09.5   0.0105 1.0043 170.6  m  20?   0.84  99.6   14  99 154   8
   2024 03 12 20:20  12 09 22.37    +02 17 08.1   0.0105 1.0043 170.6  m  20?   0.73 101.2   16 101 154   8
   2024 03 12 20:30  12 09 22.81    +02 17 06.7   0.0105 1.0043 170.6  m  20?   0.62 103.4   18 103 154   8
   2024 03 12 20:40  12 09 23.17    +02 17 05.3   0.0105 1.0043 170.6  m  20?   0.51 106.5   19 105 154   8
   2024 03 12 20:50  12 09 23.46    +02 17 03.8   0.0105 1.0043 170.6  m  20?   0.41 111.2   21 106 154   8
   2024 03 12 21:00  12 09 23.68    +02 17 02.3   0.0105 1.0043 170.6  m  20?   0.31 118.9   23 108 154   8
   2024 03 12 21:10  12 09 23.82    +02 17 00.8   0.0105 1.0043 170.6  m  20?   0.23 132.4   25 110 154   8
   2024 03 12 21:20  12 09 23.90    +02 16 59.3   0.0105 1.0043 170.6     20?   0.17 157.2   27 112 154   8
   2024 03 12 21:30  12 09 23.91    +02 16 57.7   0.0105 1.0043 170.7     20?   0.16 192.1   28 114 154   8
   2024 03 12 21:40  12 09 23.85    +02 16 56.1   0.0105 1.0043 170.7     20?   0.21 218.9   30 116 154   8
   2024 03 12 21:50  12 09 23.74    +02 16 54.5   0.0105 1.0043 170.7     20?   0.27 233.5   32 119 153   8
   2024 03 12 22:00  12 09 23.56    +02 16 52.9   0.0105 1.0043 170.7     20?   0.35 241.7   33 121 153   8
   2024 03 12 22:10  12 09 23.32    +02 16 51.2   0.0105 1.0043 170.7     20?   0.43 246.7   35 123 153   9
   2024 03 12 22:20  12 09 23.03    +02 16 49.5   0.0105 1.0043 170.7     20?   0.51 249.9   36 126 153   9
   2024 03 12 22:30  12 09 22.69    +02 16 47.7   0.0105 1.0043 170.7     20?   0.58 252.2   38 128 153   9
   2024 03 12 22:40  12 09 22.30    +02 16 45.9   0.0105 1.0043 170.7     20?   0.65 253.8   39 131 153   9
   2024 03 12 22:50  12 09 21.86    +02 16 44.1   0.0105 1.0043 170.7     20?   0.72 255.0   41 134 153   9
   2024 03 12 23:00  12 09 21.38    +02 16 42.2   0.0105 1.0043 170.7     20?   0.78 256.0   42 136 153   9
   2024 03 12 23:10  12 09 20.85    +02 16 40.3   0.0105 1.0043 170.7     20?   0.84 256.7   43 139 152   9
   2024 03 12 23:20  12 09 20.29    +02 16 38.4   0.0105 1.0043 170.7     20?   0.89 257.2   45 143 152   9
   2024 03 12 23:30  12 09 19.69    +02 16 36.4   0.0105 1.0043 170.7     20?   0.94 257.6   46 146 152   9
   2024 03 12 23:40  12 09 19.06    +02 16 34.4   0.0105 1.0043 170.8     20?   0.99 257.9   47 149 152   9
   2024 03 12 23:50  12 09 18.41    +02 16 32.3   0.0105 1.0043 170.8     20?   1.02 258.2   48 153 152   9
   2024 03 13 00:00  12 09 17.73    +02 16 30.2   0.0105 1.0043 170.8     20?   1.06 258.3   48 156 152   9
   2024 03 13 00:10  12 09 17.02    +02 16 28.0   0.0105 1.0043 170.8     20?   1.09 258.4   49 160 152   9
   2024 03 13 00:20  12 09 16.30    +02 16 25.8   0.0105 1.0043 170.8     20?   1.11 258.4   50 164 152   9
   2024 03 13 00:30  12 09 15.57    +02 16 23.6   0.0105 1.0043 170.8     20?   1.13 258.4   50 168 152   9
   2024 03 13 00:40  12 09 14.82    +02 16 21.3   0.0105 1.0043 170.8     20?   1.15 258.3   50 171 151   9
   2024 03 13 00:50  12 09 14.07    +02 16 19.0   0.0105 1.0043 170.8     20?   1.16 258.2   51 175 151   9
   2024 03 13 01:00  12 09 13.31    +02 16 16.6   0.0105 1.0043 170.8     20?   1.16 258.0   51 179 151  10
   2024 03 13 01:10  12 09 12.56    +02 16 14.1   0.0105 1.0043 170.8  t  20?   1.16 257.7   51 183 151  10
   2024 03 13 01:20  12 09 11.81    +02 16 11.7   0.0105 1.0043 170.9     20?   1.15 257.4   50 187 151  10
   2024 03 13 01:30  12 09 11.06    +02 16 09.1   0.0105 1.0043 170.9     20?   1.14 257.0   50 191 151  10
   2024 03 13 01:40  12 09 10.33    +02 16 06.6   0.0105 1.0043 170.9     20?   1.12 256.6   50 195 151  10
   2024 03 13 01:50  12 09 09.60    +02 16 04.0   0.0105 1.0043 170.9     20?   1.10 256.1   49 199 150  10
   2024 03 13 02:00  12 09 08.90    +02 16 01.3   0.0105 1.0043 170.9     20?   1.07 255.5   48 203 150  10
   2024 03 13 02:10  12 09 08.22    +02 15 58.6   0.0105 1.0043 170.9     20?   1.04 254.8   48 206 150  10
   2024 03 13 02:20  12 09 07.56    +02 15 55.9   0.0105 1.0043 170.9     20?   1.00 254.0   47 210 150  10
   2024 03 13 02:30  12 09 06.93    +02 15 53.1   0.0105 1.0043 170.9     20?   0.96 253.0   46 213 150  10
   2024 03 13 02:40  12 09 06.33    +02 15 50.2   0.0105 1.0043 170.9     20?   0.92 251.9   45 216 150  10
   2024 03 13 02:50  12 09 05.77    +02 15 47.4   0.0105 1.0043 170.9     20?   0.87 250.5   43 219 150  10
   2024 03 13 03:00  12 09 05.24    +02 15 44.5   0.0105 1.0043 170.9     20?   0.81 248.9   42 222 150  10
   2024 03 13 03:10  12 09 04.76    +02 15 41.5   0.0105 1.0043 171.0     21?   0.76 246.9   41 225 149  10
   2024 03 13 03:20  12 09 04.31    +02 15 38.5   0.0105 1.0043 171.0     21?   0.70 244.4   39 228 149  10
   2024 03 13 03:30  12 09 03.92    +02 15 35.5   0.0105 1.0044 171.0     21?   0.63 241.3   38 231 149  11
   2024 03 13 03:40  12 09 03.57    +02 15 32.5   0.0105 1.0044 171.0     21?   0.57 237.3   37 233 149  11
   2024 03 13 03:50  12 09 03.28    +02 15 29.4   0.0105 1.0044 171.0     21?   0.51 232.0   35 236 149  11
   2024 03 13 04:00  12 09 03.04    +02 15 26.2   0.0105 1.0044 171.0     21?   0.44 225.0   33 238 149  11
   2024 03 13 04:10  12 09 02.86    +02 15 23.1   0.0105 1.0044 171.0     21?   0.39 215.5   32 240 149  11
   2024 03 13 04:20  12 09 02.74    +02 15 19.9   0.0105 1.0044 171.0     21?   0.35 202.8   30 242 149  11
   2024 03 13 04:30  12 09 02.68    +02 15 16.7   0.0105 1.0044 171.0     21?   0.33 187.0   28 245 148  11
   2024 03 13 04:40  12 09 02.69    +02 15 13.4   0.0105 1.0044 171.0     21?   0.33 169.8   27 247 148  11
   2024 03 13 04:50  12 09 02.76    +02 15 10.2   0.0105 1.0044 171.0     21?   0.36 154.0   25 249 148  11
   2024 03 13 05:00  12 09 02.90    +02 15 06.9   0.0105 1.0044 171.0 A   21?   0.42 141.3   23 251 148  11
   2024 03 13 05:10  12 09 03.11    +02 15 03.6   0.0105 1.0044 171.0 A   21?   0.50 131.9   21 252 148  11
   2024 03 13 05:20  12 09 03.40    +02 15 00.2   0.0105 1.0044 171.0 A   21?   0.58 124.8   19 254 148  11
   2024 03 13 05:30  12 09 03.75    +02 14 56.9   0.0105 1.0044 171.1 N   21?   0.68 119.6   18 256 148  11
   2024 03 13 05:40  12 09 04.18    +02 14 53.5   0.0105 1.0044 171.1 N   21?   0.78 115.6   16 258 148  11
   2024 03 13 05:50  12 09 04.69    +02 14 50.1   0.0105 1.0044 171.1 N   21?   0.89 112.4   14 260 147  11
   2024 03 13 06:00  12 09 05.28    +02 14 46.7   0.0105 1.0044 171.1 N   21?   1.00 109.9   12 261 147  12
   2024 03 13 06:10  12 09 05.94    +02 14 43.3   0.0105 1.0044 171.1 C   21?   1.11 107.9   10 263 147  12
   2024 03 13 06:20  12 09 06.68    +02 14 39.9   0.0105 1.0044 171.1 C   21?   1.22 106.2    8 265 147  12
   ................
   2024 03 13 18:50  12 11 52.71    +02 11 32.5   0.0105 1.0045 170.9 Nr  21?   1.76  94.7    0  86 141  15
   2024 03 13 19:00  12 11 53.84    +02 11 31.1   0.0105 1.0045 170.9 Nm  21?   1.64  95.1    1  88 141  15
   2024 03 13 19:10  12 11 54.89    +02 11 29.6   0.0105 1.0045 170.9 Nm  21?   1.52  95.5    3  90 141  15
   2024 03 13 19:20  12 11 55.86    +02 11 28.2   0.0105 1.0045 170.9 Am  21?   1.40  96.0    5  91 141  15
   2024 03 13 19:30  12 11 56.75    +02 11 26.7   0.0105 1.0045 170.9 Am  21?   1.28  96.6    7  93 141  15
   2024 03 13 19:40  12 11 57.56    +02 11 25.2   0.0105 1.0045 170.9 Am  21?   1.16  97.3    8  95 141  16
   2024 03 13 19:50  12 11 58.28    +02 11 23.8   0.0105 1.0045 170.9 Am  21?   1.04  98.2   10  96 141  16
   2024 03 13 20:00  12 11 58.93    +02 11 22.3   0.0105 1.0046 170.9  m  21?   0.93  99.3   12  98 141  16
   2024 03 13 20:10  12 11 59.51    +02 11 20.8   0.0105 1.0046 170.9  m  21?   0.81 100.6   14 100 140  16
   2024 03 13 20:20  12 12 00.00    +02 11 19.3   0.0105 1.0046 170.9  m  21?   0.70 102.5   16 101 140  16
   2024 03 13 20:30  12 12 00.42    +02 11 17.7   0.0105 1.0046 170.9  m  21?   0.59 105.0   18 103 140  16
   2024 03 13 20:40  12 12 00.77    +02 11 16.2   0.0105 1.0046 170.9  m  21?   0.49 108.6   20 105 140  16
   2024 03 13 20:50  12 12 01.04    +02 11 14.6   0.0105 1.0046 170.9  m  21?   0.39 114.1   21 107 140  16
   2024 03 13 21:00  12 12 01.23    +02 11 13.0   0.0105 1.0046 170.9  m  21?   0.29 123.1   23 109 140  16
   2024 03 13 21:10  12 12 01.36    +02 11 11.4   0.0105 1.0046 170.9  m  21?   0.22 138.9   25 111 140  16
   2024 03 13 21:20  12 12 01.42    +02 11 09.8   0.0105 1.0046 170.9  m  21?   0.17 166.2   27 113 140  16
   2024 03 13 21:30  12 12 01.42    +02 11 08.1   0.0105 1.0046 170.9  m  21?   0.18 198.9   28 115 140  16
   2024 03 13 21:40  12 12 01.35    +02 11 06.4   0.0105 1.0046 170.9  m  21?   0.23 221.8   30 117 140  16
   2024 03 13 21:50  12 12 01.22    +02 11 04.7   0.0105 1.0046 170.9  m  21?   0.30 234.5   32 119 140  16
   2024 03 13 22:00  12 12 01.02    +02 11 03.0   0.0105 1.0046 171.0  m  21?   0.38 241.9   33 121 139  16
   2024 03 13 22:10  12 12 00.77    +02 11 01.2   0.0105 1.0046 171.0  m  21?   0.45 246.6   35 124 139  16
   2024 03 13 22:20  12 12 00.47    +02 10 59.4   0.0105 1.0046 171.0  m  21?   0.53 249.7   37 126 139  16
   2024 03 13 22:30  12 12 00.11    +02 10 57.5   0.0105 1.0046 171.0  m  21?   0.60 251.9   38 129 139  16
   2024 03 13 22:40  12 11 59.71    +02 10 55.7   0.0105 1.0046 171.0     21?   0.67 253.5   40 131 139  17
   2024 03 13 22:50  12 11 59.26    +02 10 53.7   0.0105 1.0046 171.0     21?   0.74 254.7   41 134 139  17
   2024 03 13 23:00  12 11 58.76    +02 10 51.8   0.0105 1.0046 171.0     21?   0.80 255.6   42 137 139  17
   2024 03 13 23:10  12 11 58.23    +02 10 49.8   0.0105 1.0046 171.0     21?   0.86 256.4   43 140 139  17
   2024 03 13 23:20  12 11 57.65    +02 10 47.8   0.0105 1.0046 171.0     21?   0.91 256.9   45 143 139  17
   2024 03 13 23:30  12 11 57.05    +02 10 45.7   0.0105 1.0046 171.0     21?   0.96 257.3   46 146 138  17
   2024 03 13 23:40  12 11 56.41    +02 10 43.6   0.0105 1.0046 171.0     21?   1.00 257.6   47 150 138  17
   2024 03 13 23:50  12 11 55.74    +02 10 41.4   0.0105 1.0046 171.0     21?   1.04 257.9   48 153 138  17
   2024 03 14 00:00  12 11 55.05    +02 10 39.2   0.0105 1.0046 171.1     21?   1.07 258.0   48 157 138  17
   2024 03 14 00:10  12 11 54.34    +02 10 37.0   0.0105 1.0046 171.1     21?   1.10 258.1   49 160 138  17
   2024 03 14 00:20  12 11 53.61    +02 10 34.7   0.0105 1.0046 171.1     21?   1.13 258.1   50 164 138  17
   2024 03 14 00:30  12 11 52.87    +02 10 32.4   0.0105 1.0046 171.1     21?   1.14 258.1   50 168 138  17
   2024 03 14 00:40  12 11 52.12    +02 10 30.0   0.0105 1.0046 171.1     21?   1.16 258.0   50 172 138  17
   2024 03 14 00:50  12 11 51.36    +02 10 27.6   0.0105 1.0046 171.1     21?   1.17 257.9   51 176 138  17
   2024 03 14 01:00  12 11 50.60    +02 10 25.2   0.0105 1.0046 171.1  t  21?   1.17 257.7   51 180 137  18
   2024 03 14 01:10  12 11 49.84    +02 10 22.7   0.0105 1.0046 171.1     21?   1.17 257.5   51 184 137  18
   2024 03 14 01:20  12 11 49.08    +02 10 20.1   0.0105 1.0046 171.1     21?   1.16 257.2   50 188 137  18
   2024 03 14 01:30  12 11 48.33    +02 10 17.5   0.0105 1.0046 171.1     21?   1.15 256.8   50 192 137  18
   2024 03 14 01:40  12 11 47.59    +02 10 14.9   0.0105 1.0046 171.1     21?   1.13 256.4   50 196 137  18
   2024 03 14 01:50  12 11 46.87    +02 10 12.2   0.0105 1.0046 171.2     21?   1.11 255.9   49 199 137  18
   2024 03 14 02:00  12 11 46.16    +02 10 09.5   0.0105 1.0046 171.2     21?   1.08 255.3   48 203 137  18
   2024 03 14 02:10  12 11 45.48    +02 10 06.8   0.0105 1.0046 171.2     21?   1.05 254.5   47 207 137  18
   2024 03 14 02:20  12 11 44.82    +02 10 04.0   0.0105 1.0046 171.2     21?   1.01 253.7   47 210 136  18
   2024 03 14 02:30  12 11 44.19    +02 10 01.1   0.0105 1.0046 171.2     21?   0.97 252.7   46 213 136  18
   2024 03 14 02:40  12 11 43.59    +02 09 58.2   0.0105 1.0046 171.2     21?   0.92 251.6   44 217 136  18
   2024 03 14 02:50  12 11 43.02    +02 09 55.3   0.0105 1.0046 171.2     21?   0.87 250.2   43 220 136  18
   2024 03 14 03:00  12 11 42.49    +02 09 52.4   0.0105 1.0046 171.2     21?   0.82 248.6   42 223 136  18
   2024 03 14 03:10  12 11 42.01    +02 09 49.4   0.0105 1.0046 171.2     21?   0.76 246.5   41 226 136  19
   2024 03 14 03:20  12 11 41.57    +02 09 46.3   0.0105 1.0046 171.2     21?   0.70 244.1   39 228 136  19
   2024 03 14 03:30  12 11 41.17    +02 09 43.3   0.0105 1.0046 171.2     21?   0.63 240.9   38 231 136  19
   2024 03 14 03:40  12 11 40.83    +02 09 40.2   0.0105 1.0046 171.3     21?   0.57 236.9   36 233 135  19
   2024 03 14 03:50  12 11 40.53    +02 09 37.0   0.0105 1.0046 171.3     21?   0.51 231.6   35 236 135  19
   2024 03 14 04:00  12 11 40.30    +02 09 33.9   0.0105 1.0046 171.3     21?   0.45 224.5   33 238 135  19
   2024 03 14 04:10  12 11 40.12    +02 09 30.7   0.0105 1.0047 171.3     21?   0.39 214.9   31 241 135  19
   2024 03 14 04:20  12 11 40.00    +02 09 27.5   0.0105 1.0047 171.3     21?   0.35 202.2   30 243 135  19
   2024 03 14 04:30  12 11 39.94    +02 09 24.2   0.0105 1.0047 171.3     21?   0.33 186.4   28 245 135  19
   2024 03 14 04:40  12 11 39.95    +02 09 20.9   0.0105 1.0047 171.3     21?   0.33 169.3   26 247 135  19
   2024 03 14 04:50  12 11 40.03    +02 09 17.6   0.0105 1.0047 171.3     21?   0.37 153.7   25 249 134  19
   2024 03 14 05:00  12 11 40.17    +02 09 14.3   0.0105 1.0047 171.3 A   21?   0.43 141.2   23 251 134  19
   2024 03 14 05:10  12 11 40.38    +02 09 11.0   0.0105 1.0047 171.3 A   21?   0.50 131.8   21 253 134  20
   2024 03 14 05:20  12 11 40.67    +02 09 07.6   0.0105 1.0047 171.3 A   21?   0.59 124.8   19 254 134  20
   2024 03 14 05:30  12 11 41.03    +02 09 04.2   0.0105 1.0047 171.3 N   21?   0.68 119.6   17 256 134  20
   2024 03 14 05:40  12 11 41.46    +02 09 00.9   0.0105 1.0047 171.3 N   21?   0.79 115.6   15 258 134  20
   2024 03 14 05:50  12 11 41.97    +02 08 57.4   0.0105 1.0047 171.3 N   21?   0.89 112.5   14 260 134  20
   2024 03 14 06:00  12 11 42.56    +02 08 54.0   0.0105 1.0047 171.3 C   21?   1.00 110.0   12 261 134  20
   2024 03 14 06:10  12 11 43.23    +02 08 50.6   0.0105 1.0047 171.3 C   21?   1.11 107.9   10 263 133  20
   2024 03 14 06:20  12 11 43.97    +02 08 47.2   0.0105 1.0047 171.3 C   21?   1.23 106.3    8 265 133  20
   ................
   2024 03 14 18:50  12 14 29.30    +02 05 34.6   0.0105 1.0048 171.1 Nr  21?   1.74  95.2    0  87 127  25
   2024 03 14 19:00  12 14 30.41    +02 05 33.0   0.0105 1.0048 171.1 Nm  21?   1.62  95.6    1  88 127  25
   2024 03 14 19:10  12 14 31.44    +02 05 31.5   0.0105 1.0048 171.1 Nm  21?   1.50  96.1    3  90 127  25
   2024 03 14 19:20  12 14 32.40    +02 05 29.9   0.0105 1.0048 171.1 Am  21?   1.38  96.6    5  92 127  25
   2024 03 14 19:30  12 14 33.27    +02 05 28.3   0.0105 1.0048 171.1 Am  21?   1.26  97.3    7  93 127  25
   2024 03 14 19:40  12 14 34.06    +02 05 26.7   0.0105 1.0048 171.1 Am  21?   1.14  98.1    9  95 127  25
   2024 03 14 19:50  12 14 34.77    +02 05 25.1   0.0105 1.0048 171.1 Am  21?   1.02  99.1   10  97 127  25
   2024 03 14 20:00  12 14 35.40    +02 05 23.4   0.0105 1.0048 171.2  m  21?   0.91 100.3   12  98 127  25
   2024 03 14 20:10  12 14 35.96    +02 05 21.8   0.0105 1.0048 171.2  m  21?   0.79 101.9   14 100 127  25
   2024 03 14 20:20  12 14 36.44    +02 05 20.2   0.0105 1.0048 171.2  m  21?   0.68 104.0   16 102 127  25
   2024 03 14 20:30  12 14 36.84    +02 05 18.5   0.0105 1.0049 171.2  m  21?   0.57 106.9   18 103 127  25
   2024 03 14 20:40  12 14 37.17    +02 05 16.8   0.0105 1.0049 171.2  m  21?   0.47 111.0   20 105 127  25
   2024 03 14 20:50  12 14 37.43    +02 05 15.1   0.0105 1.0049 171.2  m  21?   0.37 117.3   22 107 127  25
   2024 03 14 21:00  12 14 37.61    +02 05 13.4   0.0105 1.0049 171.2  m  21?   0.28 127.6   23 109 126  25
   2024 03 14 21:10  12 14 37.73    +02 05 11.7   0.0105 1.0049 171.2  m  21?   0.21 145.4   25 111 126  25
   2024 03 14 21:20  12 14 37.77    +02 05 09.9   0.0105 1.0049 171.2  m  21?   0.18 173.5   27 113 126  25
   2024 03 14 21:30  12 14 37.75    +02 05 08.1   0.0105 1.0049 171.2  m  21?   0.20 203.2   29 115 126  25
   2024 03 14 21:40  12 14 37.67    +02 05 06.3   0.0105 1.0049 171.2  m  21?   0.25 223.1   30 117 126  26
   2024 03 14 21:50  12 14 37.53    +02 05 04.5   0.0105 1.0049 171.2  m  21?   0.32 234.6   32 119 126  26
   2024 03 14 22:00  12 14 37.32    +02 05 02.6   0.0105 1.0049 171.2  m  21?   0.40 241.6   34 122 126  26
   2024 03 14 22:10  12 14 37.06    +02 05 00.7   0.0105 1.0049 171.2  m  21?   0.47 246.0   35 124 126  26
   2024 03 14 22:20  12 14 36.75    +02 04 58.8   0.0105 1.0049 171.2  m  21?   0.55 249.1   37 126 126  26
   2024 03 14 22:30  12 14 36.38    +02 04 56.8   0.0105 1.0049 171.2  m  21?   0.62 251.3   38 129 126  26
   2024 03 14 22:40  12 14 35.96    +02 04 54.8   0.0105 1.0049 171.3  m  21?   0.69 252.9   40 132 126  26
   2024 03 14 22:50  12 14 35.50    +02 04 52.8   0.0105 1.0049 171.3  m  21?   0.75 254.1   41 134 125  26
   2024 03 14 23:00  12 14 35.00    +02 04 50.7   0.0105 1.0049 171.3  m  21?   0.81 255.1   42 137 125  26
   2024 03 14 23:10  12 14 34.45    +02 04 48.6   0.0105 1.0049 171.3  m  21?   0.87 255.8   44 140 125  26
   2024 03 14 23:20  12 14 33.87    +02 04 46.4   0.0105 1.0049 171.3  m  21?   0.92 256.4   45 143 125  26
   2024 03 14 23:30  12 14 33.26    +02 04 44.3   0.0105 1.0049 171.3  m  21?   0.97 256.8   46 147 125  26
   2024 03 14 23:40  12 14 32.61    +02 04 42.0   0.0105 1.0049 171.3  m  21?   1.01 257.2   47 150 125  26
   2024 03 14 23:50  12 14 31.94    +02 04 39.8   0.0105 1.0049 171.3  m  21?   1.05 257.4   48 154 125  26
   2024 03 15 00:00  12 14 31.24    +02 04 37.5   0.0105 1.0049 171.3     21?   1.08 257.6   48 157 125  26
   2024 03 15 00:10  12 14 30.53    +02 04 35.1   0.0105 1.0049 171.3     21?   1.11 257.7   49 161 125  27
   2024 03 15 00:20  12 14 29.80    +02 04 32.8   0.0105 1.0049 171.3     21?   1.14 257.7   50 165 125  27
   2024 03 15 00:30  12 14 29.05    +02 04 30.3   0.0105 1.0049 171.4     21?   1.15 257.7   50 169 124  27
   2024 03 15 00:40  12 14 28.29    +02 04 27.9   0.0105 1.0049 171.4     21?   1.17 257.6   50 173 124  27
   2024 03 15 00:50  12 14 27.53    +02 04 25.4   0.0105 1.0049 171.4     21?   1.17 257.5   51 176 124  27
   2024 03 15 01:00  12 14 26.77    +02 04 22.8   0.0105 1.0049 171.4  t  21?   1.18 257.3   51 180 124  27
   2024 03 15 01:10  12 14 26.00    +02 04 20.2   0.0105 1.0049 171.4     21?   1.17 257.1   50 184 124  27
   2024 03 15 01:20  12 14 25.24    +02 04 17.6   0.0105 1.0049 171.4     21?   1.16 256.8   50 188 124  27
   2024 03 15 01:30  12 14 24.49    +02 04 14.9   0.0105 1.0049 171.4     21?   1.15 256.4   50 192 124  27
   2024 03 15 01:40  12 14 23.75    +02 04 12.2   0.0105 1.0049 171.4     21?   1.13 256.0   49 196 124  27
   2024 03 15 01:50  12 14 23.03    +02 04 09.5   0.0105 1.0049 171.4     21?   1.11 255.5   49 200 123  27
   2024 03 15 02:00  12 14 22.32    +02 04 06.7   0.0105 1.0049 171.4     21?   1.08 254.8   48 204 123  27
   2024 03 15 02:10  12 14 21.64    +02 04 03.8   0.0105 1.0049 171.4     21?   1.05 254.1   47 207 123  28
   2024 03 15 02:20  12 14 20.98    +02 04 01.0   0.0105 1.0049 171.5     21?   1.01 253.3   46 211 123  28
   2024 03 15 02:30  12 14 20.35    +02 03 58.1   0.0105 1.0049 171.5     21?   0.97 252.3   45 214 123  28
   2024 03 15 02:40  12 14 19.75    +02 03 55.1   0.0105 1.0049 171.5     21?   0.92 251.1   44 217 123  28
   2024 03 15 02:50  12 14 19.18    +02 03 52.1   0.0105 1.0049 171.5     21?   0.87 249.7   43 220 123  28
   2024 03 15 03:00  12 14 18.66    +02 03 49.1   0.0105 1.0049 171.5     21?   0.82 248.0   42 223 123  28
   2024 03 15 03:10  12 14 18.18    +02 03 46.0   0.0105 1.0049 171.5     21?   0.76 246.0   40 226 123  28
   2024 03 15 03:20  12 14 17.74    +02 03 42.9   0.0105 1.0049 171.5     21?   0.70 243.4   39 229 122  28
   2024 03 15 03:30  12 14 17.35    +02 03 39.8   0.0105 1.0049 171.5     21?   0.63 240.2   37 231 122  28
   2024 03 15 03:40  12 14 17.00    +02 03 36.7   0.0105 1.0049 171.5     21?   0.57 236.1   36 234 122  28
   2024 03 15 03:50  12 14 16.72    +02 03 33.5   0.0105 1.0049 171.5     21?   0.51 230.7   34 236 122  28
   2024 03 15 04:00  12 14 16.48    +02 03 30.3   0.0105 1.0049 171.5     21?   0.45 223.4   33 238 122  29
   2024 03 15 04:10  12 14 16.31    +02 03 27.0   0.0105 1.0049 171.5     21?   0.39 213.7   31 241 122  29
   2024 03 15 04:20  12 14 16.19    +02 03 23.7   0.0105 1.0049 171.6     21?   0.35 200.8   29 243 122  29
   2024 03 15 04:30  12 14 16.14    +02 03 20.4   0.0105 1.0049 171.6     21?   0.33 185.1   28 245 122  29
   2024 03 15 04:40  12 14 16.15    +02 03 17.1   0.0105 1.0050 171.6     21?   0.34 168.3   26 247 121  29
   2024 03 15 04:50  12 14 16.23    +02 03 13.8   0.0105 1.0050 171.6     21?   0.38 153.0   24 249 121  29
   2024 03 15 05:00  12 14 16.38    +02 03 10.4   0.0105 1.0050 171.6 A   21?   0.44 140.8   22 251 121  29
   2024 03 15 05:10  12 14 16.60    +02 03 07.0   0.0105 1.0050 171.6 A   21?   0.51 131.6   21 253 121  29
   2024 03 15 05:20  12 14 16.89    +02 03 03.6   0.0105 1.0050 171.6 A   21?   0.60 124.7   19 255 121  29
   2024 03 15 05:30  12 14 17.26    +02 03 00.2   0.0105 1.0050 171.6 N   21?   0.69 119.6   17 256 121  29
   2024 03 15 05:40  12 14 17.70    +02 02 56.7   0.0105 1.0050 171.6 N   21?   0.79 115.6   15 258 121  30
   2024 03 15 05:50  12 14 18.21    +02 02 53.3   0.0105 1.0050 171.6 N   21?   0.90 112.5   13 260 121  30
   2024 03 15 06:00  12 14 18.81    +02 02 49.8   0.0105 1.0050 171.6 C   21?   1.01 110.0   11 262 120  30
   2024 03 15 06:10  12 14 19.48    +02 02 46.4   0.0105 1.0050 171.6 C   21?   1.12 108.0   10 263 120  30
   ................
   2024 03 15 18:50  12 17 05.01    +01 59 23.7   0.0105 1.0051 171.4 Nr  21?   1.71  95.8    0  87 114  35
   2024 03 15 19:00  12 17 06.10    +01 59 22.0   0.0105 1.0051 171.4 Nm  21?   1.59  96.2    1  89 114  35
   2024 03 15 19:10  12 17 07.12    +01 59 20.2   0.0105 1.0051 171.4 Nm  21?   1.47  96.8    3  90 114  35
   2024 03 15 19:20  12 17 08.05    +01 59 18.5   0.0105 1.0051 171.4 Nm  21?   1.35  97.4    5  92 114  35
   2024 03 15 19:30  12 17 08.91    +01 59 16.8   0.0105 1.0051 171.4 Am  21?   1.24  98.1    7  93 114  35
   2024 03 15 19:40  12 17 09.69    +01 59 15.0   0.0105 1.0051 171.4 Am  21?   1.12  99.0    9  95 114  35
   2024 03 15 19:50  12 17 10.38    +01 59 13.2   0.0105 1.0051 171.4 Am  21?   1.00 100.1   11  97 114  35
   2024 03 15 20:00  12 17 11.00    +01 59 11.5   0.0105 1.0051 171.4  m  21?   0.89 101.5   13  99 114  35
   2024 03 15 20:10  12 17 11.54    +01 59 09.7   0.0105 1.0051 171.4  m  21?   0.77 103.3   14 100 114  35
   2024 03 15 20:20  12 17 12.01    +01 59 07.9   0.0105 1.0051 171.4  m  21?   0.66 105.7   16 102 114  35
   2024 03 15 20:30  12 17 12.40    +01 59 06.1   0.0105 1.0051 171.4  m  21?   0.56 108.9   18 104 114  35
   2024 03 15 20:40  12 17 12.71    +01 59 04.3   0.0105 1.0051 171.4  m  21?   0.46 113.6   20 106 113  35
   2024 03 15 20:50  12 17 12.96    +01 59 02.4   0.0105 1.0051 171.4  m  21?   0.36 120.8   22 107 113  35
   2024 03 15 21:00  12 17 13.13    +01 59 00.6   0.0105 1.0052 171.4  m  21?   0.28 132.4   24 109 113  36
   2024 03 15 21:10  12 17 13.23    +01 58 58.7   0.0105 1.0052 171.5  m  21?   0.22 151.6   25 111 113  36
   2024 03 15 21:20  12 17 13.27    +01 58 56.8   0.0105 1.0052 171.5  m  21?   0.19 179.2   27 113 113  36
   2024 03 15 21:30  12 17 13.23    +01 58 54.8   0.0105 1.0052 171.5  m  21?   0.22 205.8   29 115 113  36
   2024 03 15 21:40  12 17 13.14    +01 58 52.9   0.0105 1.0052 171.5  m  21?   0.27 223.6   30 118 113  36
   2024 03 15 21:50  12 17 12.98    +01 58 50.9   0.0105 1.0052 171.5  m  21?   0.34 234.2   32 120 113  36
   2024 03 15 22:00  12 17 12.77    +01 58 48.9   0.0105 1.0052 171.5  m  21?   0.42 240.9   34 122 113  36
   2024 03 15 22:10  12 17 12.50    +01 58 46.8   0.0105 1.0052 171.5  m  21?   0.49 245.2   35 124 113  36
   2024 03 15 22:20  12 17 12.18    +01 58 44.8   0.0105 1.0052 171.5  m  21?   0.57 248.3   37 127 113  36
   2024 03 15 22:30  12 17 11.80    +01 58 42.7   0.0105 1.0052 171.5  m  21?   0.64 250.5   38 129 113  36
   2024 03 15 22:40  12 17 11.38    +01 58 40.5   0.0105 1.0052 171.5  m  21?   0.70 252.2   40 132 113  36
   2024 03 15 22:50  12 17 10.91    +01 58 38.4   0.0105 1.0052 171.5  m  21?   0.77 253.4   41 135 112  36
   2024 03 15 23:00  12 17 10.40    +01 58 36.2   0.0105 1.0052 171.5  m  21?   0.83 254.4   42 138 112  36
   2024 03 15 23:10  12 17 09.84    +01 58 33.9   0.0105 1.0052 171.5  m  21?   0.88 255.2   44 141 112  36
   2024 03 15 23:20  12 17 09.26    +01 58 31.7   0.0105 1.0052 171.6  m  21?   0.93 255.8   45 144 112  36
   2024 03 15 23:30  12 17 08.64    +01 58 29.4   0.0105 1.0052 171.6  m  21?   0.98 256.2   46 147 112  36
   2024 03 15 23:40  12 17 07.99    +01 58 27.0   0.0105 1.0052 171.6  m  21?   1.02 256.6   47 151 112  37
   2024 03 15 23:50  12 17 07.31    +01 58 24.6   0.0105 1.0052 171.6  m  21?   1.06 256.9   48 154 112  37
   2024 03 16 00:00  12 17 06.61    +01 58 22.2   0.0105 1.0052 171.6  m  21?   1.09 257.0   48 158 112  37
   2024 03 16 00:10  12 17 05.89    +01 58 19.8   0.0105 1.0052 171.6  m  21?   1.12 257.2   49 161 112  37
   2024 03 16 00:20  12 17 05.15    +01 58 17.3   0.0105 1.0052 171.6  m  21?   1.14 257.2   50 165 112  37
   2024 03 16 00:30  12 17 04.40    +01 58 14.7   0.0105 1.0052 171.6  m  21?   1.16 257.2   50 169 111  37
   2024 03 16 00:40  12 17 03.65    +01 58 12.2   0.0105 1.0052 171.6  m  21?   1.17 257.1   50 173 111  37
   2024 03 16 00:50  12 17 02.88    +01 58 09.5   0.0105 1.0052 171.6  m  21?   1.18 257.0   50 177 111  37
   2024 03 16 01:00  12 17 02.12    +01 58 06.9   0.0105 1.0052 171.6  t  21?   1.18 256.8   50 181 111  37
   2024 03 16 01:10  12 17 01.35    +01 58 04.2   0.0105 1.0052 171.7     21?   1.18 256.6   50 185 111  37
   2024 03 16 01:20  12 17 00.59    +01 58 01.5   0.0105 1.0052 171.7     21?   1.17 256.3   50 189 111  37
   2024 03 16 01:30  12 16 59.84    +01 57 58.7   0.0105 1.0052 171.7     21?   1.15 255.9   50 193 111  37
   2024 03 16 01:40  12 16 59.10    +01 57 55.9   0.0105 1.0052 171.7     21?   1.13 255.5   49 197 111  38
   2024 03 16 01:50  12 16 58.38    +01 57 53.0   0.0105 1.0052 171.7     21?   1.11 255.0   49 200 111  38
   2024 03 16 02:00  12 16 57.67    +01 57 50.1   0.0105 1.0052 171.7     21?   1.08 254.3   48 204 111  38
   2024 03 16 02:10  12 16 56.99    +01 57 47.2   0.0105 1.0052 171.7     21?   1.05 253.6   47 208 110  38
   2024 03 16 02:20  12 16 56.33    +01 57 44.3   0.0105 1.0052 171.7     21?   1.01 252.8   46 211 110  38
   2024 03 16 02:30  12 16 55.71    +01 57 41.3   0.0105 1.0052 171.7     21?   0.97 251.7   45 214 110  38
   2024 03 16 02:40  12 16 55.11    +01 57 38.2   0.0105 1.0052 171.7     21?   0.92 250.5   44 217 110  38
   2024 03 16 02:50  12 16 54.55    +01 57 35.2   0.0105 1.0052 171.7     21?   0.87 249.1   43 220 110  38
   2024 03 16 03:00  12 16 54.03    +01 57 32.1   0.0105 1.0052 171.8     21?   0.81 247.4   41 223 110  38
   2024 03 16 03:10  12 16 53.55    +01 57 28.9   0.0105 1.0052 171.8     21?   0.75 245.2   40 226 110  38
   2024 03 16 03:20  12 16 53.12    +01 57 25.7   0.0105 1.0052 171.8     21?   0.69 242.6   39 229 110  38
   2024 03 16 03:30  12 16 52.73    +01 57 22.5   0.0105 1.0052 171.8     21?   0.63 239.3   37 231 109  39
   2024 03 16 03:40  12 16 52.39    +01 57 19.3   0.0105 1.0052 171.8     21?   0.57 235.0   36 234 109  39
   2024 03 16 03:50  12 16 52.11    +01 57 16.1   0.0105 1.0052 171.8     21?   0.50 229.4   34 236 109  39
   2024 03 16 04:00  12 16 51.88    +01 57 12.8   0.0105 1.0052 171.8     21?   0.44 222.0   32 239 109  39
   2024 03 16 04:10  12 16 51.71    +01 57 09.5   0.0105 1.0052 171.8     21?   0.39 212.0   31 241 109  39
   2024 03 16 04:20  12 16 51.61    +01 57 06.1   0.0105 1.0052 171.8     21?   0.35 199.1   29 243 109  39
   2024 03 16 04:30  12 16 51.56    +01 57 02.7   0.0105 1.0052 171.8     21?   0.34 183.4   27 245 109  39
   2024 03 16 04:40  12 16 51.58    +01 56 59.4   0.0105 1.0052 171.8     21?   0.35 166.9   26 247 109  39
   2024 03 16 04:50  12 16 51.67    +01 56 55.9   0.0105 1.0052 171.8     21?   0.39 152.1   24 249 109  39
   2024 03 16 05:00  12 16 51.82    +01 56 52.5   0.0105 1.0052 171.8 A   21?   0.45 140.3   22 251 108  39
   2024 03 16 05:10  12 16 52.05    +01 56 49.1   0.0105 1.0053 171.8 A   21?   0.52 131.3   20 253 108  39
   2024 03 16 05:20  12 16 52.34    +01 56 45.6   0.0105 1.0053 171.9 A   21?   0.61 124.6   19 255 108  40
   2024 03 16 05:30  12 16 52.72    +01 56 42.1   0.0105 1.0053 171.9 N   21?   0.71 119.6   17 257 108  40
   2024 03 16 05:40  12 16 53.16    +01 56 38.6   0.0105 1.0053 171.9 N   21?   0.81 115.7   15 258 108  40
   2024 03 16 05:50  12 16 53.69    +01 56 35.1   0.0105 1.0053 171.9 N   21?   0.91 112.6   13 260 108  40
   2024 03 16 06:00  12 16 54.29    +01 56 31.6   0.0105 1.0053 171.9 C   21?   1.02 110.1   11 262 108  40
   2024 03 16 06:10  12 16 54.96    +01 56 28.1   0.0105 1.0053 171.9 C   21?   1.13 108.1    9 263 108  40
   ................
   2024 03 16 18:50  12 19 40.06    +01 52 57.8   0.0106 1.0054 171.7 Nr  21?   1.69  96.4    0  87 101  45
   2024 03 16 19:00  12 19 41.14    +01 52 55.9   0.0106 1.0054 171.7 Nm  21?   1.57  96.9    1  89 101  45
   2024 03 16 19:10  12 19 42.14    +01 52 54.0   0.0106 1.0054 171.7 Nm  21?   1.45  97.5    3  90 101  46
   2024 03 16 19:20  12 19 43.06    +01 52 52.1   0.0106 1.0054 171.7 Nm  21?   1.34  98.2    5  92 101  46
   2024 03 16 19:30  12 19 43.90    +01 52 50.2   0.0106 1.0054 171.7 Am  21?   1.22  99.0    7  94 101  46
   2024 03 16 19:40  12 19 44.67    +01 52 48.3   0.0106 1.0054 171.7 Am  21?   1.10 100.0    9  95 101  46
   2024 03 16 19:50  12 19 45.35    +01 52 46.4   0.0106 1.0054 171.7 Am  21?   0.98 101.2   11  97 101  46
   2024 03 16 20:00  12 19 45.95    +01 52 44.5   0.0106 1.0054 171.7  m  21?   0.87 102.8   13  99 101  46
   2024 03 16 20:10  12 19 46.48    +01 52 42.5   0.0106 1.0054 171.7  m  21?   0.76 104.8   15 101 101  46
   2024 03 16 20:20  12 19 46.93    +01 52 40.6   0.0106 1.0054 171.7  m  21?   0.65 107.5   16 102 101  46
   2024 03 16 20:30  12 19 47.31    +01 52 38.6   0.0106 1.0054 171.7  m  21?   0.55 111.2   18 104 101  46
   2024 03 16 20:40  12 19 47.61    +01 52 36.6   0.0106 1.0054 171.7  m  21?   0.45 116.5   20 106 101  46
   2024 03 16 20:50  12 19 47.84    +01 52 34.6   0.0106 1.0054 171.7  m  21?   0.36 124.5   22 108 101  46
   2024 03 16 21:00  12 19 48.00    +01 52 32.6   0.0106 1.0054 171.7  m  21?   0.28 137.2   24 110 101  46
   2024 03 16 21:10  12 19 48.10    +01 52 30.5   0.0106 1.0054 171.7  m  21?   0.22 157.3   25 112 101  46
   2024 03 16 21:20  12 19 48.12    +01 52 28.5   0.0105 1.0055 171.7  m  21?   0.21 183.6   27 114 101  46
   2024 03 16 21:30  12 19 48.08    +01 52 26.4   0.0105 1.0055 171.7  m  21?   0.24 207.5   29 116 100  46
   2024 03 16 21:40  12 19 47.97    +01 52 24.3   0.0105 1.0055 171.7  m  21?   0.29 223.6   31 118 100  46
   2024 03 16 21:50  12 19 47.81    +01 52 22.2   0.0105 1.0055 171.7  m  21?   0.36 233.6   32 120 100  46
   2024 03 16 22:00  12 19 47.59    +01 52 20.0   0.0105 1.0055 171.7  m  21?   0.44 240.0   34 122 100  46
   2024 03 16 22:10  12 19 47.31    +01 52 17.8   0.0105 1.0055 171.8  m  21?   0.51 244.3   35 125 100  46
   2024 03 16 22:20  12 19 46.97    +01 52 15.6   0.0105 1.0055 171.8  m  21?   0.58 247.4   37 127 100  47
   2024 03 16 22:30  12 19 46.59    +01 52 13.3   0.0105 1.0055 171.8  m  21?   0.65 249.6   38 130 100  47
   2024 03 16 22:40  12 19 46.16    +01 52 11.1   0.0105 1.0055 171.8  m  21?   0.72 251.3   40 133 100  47
   2024 03 16 22:50  12 19 45.68    +01 52 08.8   0.0105 1.0055 171.8  m  21?   0.78 252.6   41 135 100  47
   2024 03 16 23:00  12 19 45.17    +01 52 06.4   0.0105 1.0055 171.8  m  21?   0.84 253.6   42 138 100  47
   2024 03 16 23:10  12 19 44.61    +01 52 04.0   0.0105 1.0055 171.8  m  21?   0.89 254.4   44 141 100  47
   2024 03 16 23:20  12 19 44.02    +01 52 01.6   0.0105 1.0055 171.8  m  21?   0.95 255.1   45 144 100  47
   2024 03 16 23:30  12 19 43.39    +01 51 59.2   0.0105 1.0055 171.8  m  21?   0.99 255.6   46 148 100  47
   2024 03 16 23:40  12 19 42.74    +01 51 56.7   0.0105 1.0055 171.8  m  21?   1.03 256.0   47 151  99  47
   2024 03 16 23:50  12 19 42.06    +01 51 54.2   0.0105 1.0055 171.8  m  21?   1.07 256.2   48 155  99  47
   2024 03 17 00:00  12 19 41.35    +01 51 51.7   0.0105 1.0055 171.8  m  21?   1.10 256.4   48 158  99  47
   2024 03 17 00:10  12 19 40.63    +01 51 49.1   0.0105 1.0055 171.9  m  21?   1.13 256.6   49 162  99  47
   2024 03 17 00:20  12 19 39.89    +01 51 46.4   0.0105 1.0055 171.9  m  21?   1.15 256.6   50 166  99  47
   2024 03 17 00:30  12 19 39.14    +01 51 43.8   0.0105 1.0055 171.9  m  21?   1.16 256.6   50 170  99  47
   2024 03 17 00:40  12 19 38.38    +01 51 41.1   0.0105 1.0055 171.9  m  21?   1.17 256.6   50 174  99  47
   2024 03 17 00:50  12 19 37.62    +01 51 38.4   0.0105 1.0055 171.9  m  21?   1.18 256.5   50 178  99  48
   2024 03 17 01:00  12 19 36.85    +01 51 35.6   0.0105 1.0055 171.9  t  21?   1.18 256.3   50 182  99  48
   2024 03 17 01:10  12 19 36.09    +01 51 32.8   0.0105 1.0055 171.9  m  21?   1.18 256.1   50 186  99  48
   2024 03 17 01:20  12 19 35.33    +01 51 29.9   0.0105 1.0055 171.9  m  21?   1.17 255.8   50 189  99  48
   2024 03 17 01:30  12 19 34.58    +01 51 27.1   0.0105 1.0055 171.9  m  21?   1.15 255.4   50 193  98  48
   2024 03 17 01:40  12 19 33.84    +01 51 24.1   0.0105 1.0055 171.9  m  21?   1.13 254.9   49 197  98  48
   2024 03 17 01:50  12 19 33.12    +01 51 21.2   0.0105 1.0055 171.9  m  21?   1.11 254.4   48 201  98  48
   2024 03 17 02:00  12 19 32.42    +01 51 18.2   0.0105 1.0055 172.0  m  21?   1.08 253.8   48 204  98  48
   2024 03 17 02:10  12 19 31.74    +01 51 15.2   0.0105 1.0055 172.0  m  21?   1.04 253.0   47 208  98  48
   2024 03 17 02:20  12 19 31.09    +01 51 12.1   0.0105 1.0055 172.0     21?   1.01 252.1   46 211  98  48
   2024 03 17 02:30  12 19 30.46    +01 51 09.0   0.0105 1.0055 172.0     21?   0.96 251.1   45 215  98  48
   2024 03 17 02:40  12 19 29.87    +01 51 05.9   0.0105 1.0055 172.0     21?   0.92 249.9   44 218  98  48
   2024 03 17 02:50  12 19 29.32    +01 51 02.7   0.0105 1.0055 172.0     21?   0.86 248.4   42 221  98  49
   2024 03 17 03:00  12 19 28.80    +01 50 59.6   0.0105 1.0055 172.0     21?   0.81 246.6   41 224  97  49
   2024 03 17 03:10  12 19 28.33    +01 50 56.3   0.0105 1.0055 172.0     21?   0.75 244.4   40 226  97  49
   2024 03 17 03:20  12 19 27.90    +01 50 53.1   0.0105 1.0055 172.0     21?   0.69 241.7   38 229  97  49
   2024 03 17 03:30  12 19 27.52    +01 50 49.8   0.0105 1.0055 172.0     21?   0.63 238.2   37 232  97  49
   2024 03 17 03:40  12 19 27.19    +01 50 46.5   0.0106 1.0055 172.0     21?   0.56 233.8   35 234  97  49
   2024 03 17 03:50  12 19 26.91    +01 50 43.1   0.0106 1.0055 172.0     21?   0.50 228.0   34 237  97  49
   2024 03 17 04:00  12 19 26.69    +01 50 39.8   0.0106 1.0055 172.1     21?   0.44 220.4   32 239  97  49
   2024 03 17 04:10  12 19 26.53    +01 50 36.4   0.0106 1.0055 172.1     21?   0.39 210.2   31 241  97  49
   2024 03 17 04:20  12 19 26.43    +01 50 33.0   0.0106 1.0055 172.1     21?   0.36 197.0   29 243  97  49
   2024 03 17 04:30  12 19 26.39    +01 50 29.5   0.0106 1.0055 172.1     21?   0.34 181.5   27 245  96  49
   2024 03 17 04:40  12 19 26.42    +01 50 26.1   0.0106 1.0055 172.1     21?   0.36 165.4   25 247  96  50
   2024 03 17 04:50  12 19 26.51    +01 50 22.6   0.0106 1.0055 172.1     21?   0.40 151.1   24 249  96  50
   2024 03 17 05:00  12 19 26.67    +01 50 19.1   0.0106 1.0055 172.1 A   21?   0.46 139.7   22 251  96  50
   2024 03 17 05:10  12 19 26.91    +01 50 15.6   0.0106 1.0055 172.1 A   21?   0.54 131.0   20 253  96  50
   2024 03 17 05:20  12 19 27.21    +01 50 12.1   0.0106 1.0055 172.1 A   21?   0.62 124.5   18 255  96  50
   2024 03 17 05:30  12 19 27.59    +01 50 08.5   0.0106 1.0056 172.1 N   21?   0.72 119.5   16 257  96  50
   2024 03 17 05:40  12 19 28.05    +01 50 05.0   0.0106 1.0056 172.1 N   21?   0.82 115.7   15 258  96  50
   2024 03 17 05:50  12 19 28.58    +01 50 01.4   0.0106 1.0056 172.1 N   21?   0.93 112.7   13 260  96  50
   2024 03 17 06:00  12 19 29.19    +01 49 57.8   0.0106 1.0056 172.1 C   21?   1.03 110.2   11 262  95  50
   2024 03 17 06:10  12 19 29.87    +01 49 54.2   0.0106 1.0056 172.1 C   21?   1.15 108.2    9 264  95  50
   ................
   2024 03 17 18:50  12 22 14.59    +01 46 15.9   0.0106 1.0057 171.9 Cr  21?   1.67  97.1    0  88  89  56
   2024 03 17 19:00  12 22 15.66    +01 46 13.8   0.0106 1.0057 171.9 Nm  21?   1.55  97.6    2  89  89  56
   2024 03 17 19:10  12 22 16.64    +01 46 11.8   0.0106 1.0057 171.9 Nm  21?   1.44  98.3    4  91  89  56
   2024 03 17 19:20  12 22 17.55    +01 46 09.7   0.0106 1.0057 171.9 Nm  21?   1.32  99.0    5  92  89  56
   2024 03 17 19:30  12 22 18.38    +01 46 07.6   0.0106 1.0057 171.9 Am  21?   1.20 100.0    7  94  89  56
   2024 03 17 19:40  12 22 19.13    +01 46 05.5   0.0106 1.0057 171.9 Am  21?   1.08 101.0    9  96  89  56
   2024 03 17 19:50  12 22 19.80    +01 46 03.4   0.0106 1.0057 171.9 Am  21?   0.97 102.4   11  97  89  56
   2024 03 17 20:00  12 22 20.39    +01 46 01.3   0.0106 1.0057 171.9  m  21?   0.86 104.2   13  99  89  56
   2024 03 17 20:10  12 22 20.91    +01 45 59.2   0.0106 1.0057 171.9  m  21?   0.75 106.4   15 101  89  56
   2024 03 17 20:20  12 22 21.35    +01 45 57.1   0.0106 1.0057 171.9  m  21?   0.64 109.4   17 103  89  56
   2024 03 17 20:30  12 22 21.71    +01 45 55.0   0.0106 1.0057 171.9  m  21?   0.54 113.5   18 104  89  56
   2024 03 17 20:40  12 22 22.00    +01 45 52.8   0.0106 1.0057 171.9  m  21?   0.44 119.4   20 106  88  56
   2024 03 17 20:50  12 22 22.22    +01 45 50.6   0.0106 1.0057 171.9  m  21?   0.35 128.2   22 108  88  56
   2024 03 17 21:00  12 22 22.37    +01 45 48.5   0.0106 1.0057 172.0  m  21?   0.28 141.9   24 110  88  56
   2024 03 17 21:10  12 22 22.45    +01 45 46.2   0.0106 1.0057 172.0  m  21?   0.23 162.3   26 112  88  57
   2024 03 17 21:20  12 22 22.46    +01 45 44.0   0.0106 1.0057 172.0  m  21?   0.23 187.2   27 114  88  57
   2024 03 17 21:30  12 22 22.41    +01 45 41.8   0.0106 1.0057 172.0  m  21?   0.26 208.7   29 116  88  57
   2024 03 17 21:40  12 22 22.30    +01 45 39.5   0.0106 1.0058 172.0  m  21?   0.31 223.4   31 118  88  57
   2024 03 17 21:50  12 22 22.13    +01 45 37.2   0.0106 1.0058 172.0  m  21?   0.38 232.8   32 121  88  57
   2024 03 17 22:00  12 22 21.89    +01 45 34.9   0.0106 1.0058 172.0  m  21?   0.45 239.1   34 123  88  57
   2024 03 17 22:10  12 22 21.61    +01 45 32.6   0.0106 1.0058 172.0  m  21?   0.53 243.3   36 125  88  57
   2024 03 17 22:20  12 22 21.27    +01 45 30.2   0.0106 1.0058 172.0  m  21?   0.60 246.4   37 128  88  57
   2024 03 17 22:30  12 22 20.88    +01 45 27.8   0.0106 1.0058 172.0  m  21?   0.67 248.7   39 130  88  57
   2024 03 17 22:40  12 22 20.44    +01 45 25.4   0.0106 1.0058 172.0  m  21?   0.73 250.5   40 133  88  57
   2024 03 17 22:50  12 22 19.96    +01 45 22.9   0.0106 1.0058 172.0  m  21?   0.79 251.8   41 136  88  57
   2024 03 17 23:00  12 22 19.43    +01 45 20.4   0.0106 1.0058 172.0  m  21?   0.85 252.9   43 139  88  57
   2024 03 17 23:10  12 22 18.87    +01 45 17.9   0.0106 1.0058 172.0  m  21?   0.91 253.7   44 142  87  57
   2024 03 17 23:20  12 22 18.28    +01 45 15.4   0.0106 1.0058 172.1  m  21?   0.96 254.4   45 145  87  57
   2024 03 17 23:30  12 22 17.65    +01 45 12.8   0.0106 1.0058 172.1  m  21?   1.00 254.9   46 148  87  57
   2024 03 17 23:40  12 22 16.99    +01 45 10.2   0.0106 1.0058 172.1  m  21?   1.04 255.3   47 152  87  57
   2024 03 17 23:50  12 22 16.31    +01 45 07.5   0.0106 1.0058 172.1  m  21?   1.08 255.6   48 155  87  57
   2024 03 18 00:00  12 22 15.60    +01 45 04.8   0.0106 1.0058 172.1  m  21?   1.11 255.8   48 159  87  57
   

MMS-1 (JPL-ID: -140482)

   Date (UTC) HH:MM   RA              Dec         delta   r     elong SM  mag  '/hr    PA   alt  az moo ill
   ---- -- -- -----  -------------   -----------  ------ ------ ----- --  --- ------ ------ --- --- --- ---
   2024 03 12 18:30  02 05 32.69    +10 05 54.5    17630 0.9938  40.4 Cm  10? 1527.0  47.6   34 252   8   8
   2024 03 12 18:40  02 20 37.46    +13 25 17.6    14578 0.9938  44.9 Cm  10? 2104.7  48.6   37 254  12   8
   2024 03 12 18:50  02 43 24.80    +18 07 37.2    11305 0.9938  51.6 Nm   9? 3243.8  50.3   42 256  18   8
   2024 03 12 19:00  03 25 32.03    +25 42 32.2     7811 0.9939  63.3 Nm   8? 6199.5  54.4   53 258  30   8
   2024 03 12 19:10  05 31 06.61    +39 35 18.2     4393 0.9939  91.7 Nm   6?  18197  71.8   81 265  59   8
   2024 03 12 19:20  11 41 33.99    +21 37 38.7     3765 0.9939 161.2 At   8?  27339 128.0   22  80 137   8
   ................
   

MMS-2 (JPL-ID: -140483)

   Date (UTC) HH:MM   RA              Dec         delta   r     elong SM  mag  '/hr    PA   alt  az moo ill
   ---- -- -- -----  -------------   -----------  ------ ------ ----- --  --- ------ ------ --- --- --- ---
   2024 03 12 18:30  02 06 19.05    +10 13 10.4    17508 0.9938  40.6 Cm  10? 1546.9  47.6   34 252   8   8
   2024 03 12 18:40  02 21 38.88    +13 35 10.5    14449 0.9938  45.2 Cm  10? 2139.6  48.7   37 254  12   8
   2024 03 12 18:50  02 44 57.12    +18 22 19.0    11168 0.9939  52.1 Nm   9? 3318.0  50.5   43 256  19   8
   2024 03 12 19:00  03 28 32.83    +26 07 49.0     7671 0.9939  64.1 Nm   8? 6418.6  54.8   54 258  31   8
   2024 03 12 19:10  05 42 02.17    +40 11 04.8     4288 0.9939  93.8 Nm   6?  19142  73.5   83 267  62   8
   2024 03 12 19:20  11 50 51.30    +19 51 40.0     3873 0.9939 162.5 At   8?  26202 128.8   19  80 140   8
   ................
   

MMS-3 (JPL-ID: -140484)

   Date (UTC) HH:MM   RA              Dec         delta   r     elong SM  mag  '/hr    PA   alt  az moo ill
   ---- -- -- -----  -------------   -----------  ------ ------ ----- --  --- ------ ------ --- --- --- ---
   2024 03 12 18:30  02 06 22.10    +10 14 25.7    17507 0.9938  40.6 Cm  10? 1547.6  47.6   34 252   8   8
   2024 03 12 18:40  02 21 42.49    +13 36 30.3    14449 0.9938  45.2 Cm  10? 2140.6  48.7   37 254  12   8
   2024 03 12 18:50  02 45 01.64    +18 23 44.4    11169 0.9939  52.1 Nm   9? 3319.4  50.5   43 256  19   8
   2024 03 12 19:00  03 28 39.07    +26 09 16.8     7673 0.9939  64.1 Nm   8? 6419.9  54.8   54 258  31   8
   2024 03 12 19:10  05 42 08.89    +40 11 43.3     4292 0.9939  93.9 Nm   6?  19125  73.6   83 267  62   8
   2024 03 12 19:20  11 50 37.55    +19 53 57.2     3875 0.9939 162.5 At   8?  26197 128.8   19  80 140   8
   ................
   

MMS-4 (JPL-ID: -140485)

   Date (UTC) HH:MM   RA              Dec         delta   r     elong SM  mag  '/hr    PA   alt  az moo ill
   ---- -- -- -----  -------------   -----------  ------ ------ ----- --  --- ------ ------ --- --- --- ---
   2024 03 12 18:30  02 06 34.01    +10 16 08.9    17453 0.9938  40.7 Cm  10? 1555.1  47.7   34 252   8   8
   2024 03 12 18:40  02 22 00.18    +13 39 13.9    14391 0.9938  45.3 Cm  10? 2154.4  48.7   37 254  12   8
   2024 03 12 18:50  02 45 31.77    +18 28 25.9    11107 0.9939  52.2 Nm   9? 3350.4  50.6   43 256  19   8
   2024 03 12 19:00  03 29 47.15    +26 18 38.1     7607 0.9939  64.4 Nm   8? 6518.5  54.9   54 258  31   8
   2024 03 12 19:10  05 47 00.97    +40 26 10.0     4238 0.9939  94.8 Nm   6?  19594  74.3   84 268  63   8
   2024 03 12 19:20  11 55 00.12    +19 02 19.4     3922 0.9939 163.0 At   8?  25702 129.1   18  80 141   8
   ................
   

Website generated with AmrumHtml. Date: 03-04-2024